<?xml version='1.0' encoding='UTF-8'?><gpx version="1.1" creator="JPX - https://github.com/jenetics/jpx" xmlns="http://www.topografix.com/GPX/1/1"><trk><trkseg><trkpt lat="43.7818648" lon="12.5788977"><ele>316.0</ele><time>2026-04-19T07:48:47.853Z</time></trkpt><trkpt lat="43.7819594" lon="12.578695"><ele>316.0</ele><time>2026-04-19T07:48:48.845Z</time></trkpt><trkpt lat="43.7820418" lon="12.5785284"><ele>316.0</ele><time>2026-04-19T07:48:49.849Z</time></trkpt><trkpt lat="43.7821165" lon="12.5783969"><ele>316.0</ele><time>2026-04-19T07:48:50.842Z</time></trkpt><trkpt lat="43.7821938" lon="12.578265"><ele>314.5</ele><time>2026-04-19T07:48:51.845Z</time></trkpt><trkpt lat="43.7822728" lon="12.5781405"><ele>313.0</ele><time>2026-04-19T07:48:52.844Z</time></trkpt><trkpt lat="43.782346" lon="12.5780181"><ele>311.5</ele><time>2026-04-19T07:48:53.845Z</time></trkpt><trkpt lat="43.7824105" lon="12.57789"><ele>310.0</ele><time>2026-04-19T07:48:54.848Z</time></trkpt><trkpt lat="43.7824622" lon="12.5777618"><ele>308.8333333333333</ele><time>2026-04-19T07:48:55.846Z</time></trkpt><trkpt lat="43.7825079" lon="12.5776415"><ele>307.66666666666663</ele><time>2026-04-19T07:48:56.862Z</time></trkpt><trkpt lat="43.7825504" lon="12.5775388"><ele>306.5</ele><time>2026-04-19T07:48:57.844Z</time></trkpt><trkpt lat="43.7825951" lon="12.577452"><ele>305.3333333333333</ele><time>2026-04-19T07:48:58.841Z</time></trkpt><trkpt lat="43.782644" lon="12.5773774"><ele>304.1666666666667</ele><time>2026-04-19T07:48:59.848Z</time></trkpt><trkpt lat="43.7826955" lon="12.577311"><ele>303.0</ele><time>2026-04-19T07:49:00.841Z</time></trkpt><trkpt lat="43.7827544" lon="12.5772449"><ele>303.0</ele><time>2026-04-19T07:49:01.867Z</time></trkpt><trkpt lat="43.7828206" lon="12.5771778"><ele>303.0</ele><time>2026-04-19T07:49:02.845Z</time></trkpt><trkpt lat="43.78289" lon="12.5771107"><ele>303.0</ele><time>2026-04-19T07:49:03.849Z</time></trkpt><trkpt lat="43.7829615" lon="12.5770407"><ele>303.0</ele><time>2026-04-19T07:49:04.844Z</time></trkpt><trkpt lat="43.7830373" lon="12.5769685"><ele>303.0</ele><time>2026-04-19T07:49:05.848Z</time></trkpt><trkpt lat="43.7831106" lon="12.5769022"><ele>303.0</ele><time>2026-04-19T07:49:06.842Z</time></trkpt><trkpt lat="43.783181" lon="12.5768434"><ele>301.14285714285717</ele><time>2026-04-19T07:49:07.846Z</time></trkpt><trkpt lat="43.7832499" lon="12.5767943"><ele>299.2857142857143</ele><time>2026-04-19T07:49:08.847Z</time></trkpt><trkpt lat="43.7833152" lon="12.5767607"><ele>297.42857142857144</ele><time>2026-04-19T07:49:09.845Z</time></trkpt><trkpt lat="43.7833799" lon="12.5767458"><ele>295.57142857142856</ele><time>2026-04-19T07:49:10.848Z</time></trkpt><trkpt lat="43.7834472" lon="12.5767487"><ele>293.7142857142857</ele><time>2026-04-19T07:49:11.867Z</time></trkpt><trkpt lat="43.7835158" lon="12.5767639"><ele>291.8571428571429</ele><time>2026-04-19T07:49:12.854Z</time></trkpt><trkpt lat="43.783586" lon="12.5767781"><ele>290.0</ele><time>2026-04-19T07:49:13.85Z</time></trkpt><trkpt lat="43.7836576" lon="12.5767907"><ele>289.57142857142856</ele><time>2026-04-19T07:49:14.856Z</time></trkpt><trkpt lat="43.7837267" lon="12.5768015"><ele>289.14285714285717</ele><time>2026-04-19T07:49:15.85Z</time></trkpt><trkpt lat="43.7837927" lon="12.5768142"><ele>288.7142857142857</ele><time>2026-04-19T07:49:16.849Z</time></trkpt><trkpt lat="43.783858" lon="12.5768334"><ele>288.2857142857143</ele><time>2026-04-19T07:49:17.859Z</time></trkpt><trkpt lat="43.7839229" lon="12.5768648"><ele>287.8571428571429</ele><time>2026-04-19T07:49:18.85Z</time></trkpt><trkpt lat="43.7839855" lon="12.5769114"><ele>287.42857142857144</ele><time>2026-04-19T07:49:19.856Z</time></trkpt><trkpt lat="43.7840443" lon="12.576968"><ele>287.0</ele><time>2026-04-19T07:49:20.851Z</time></trkpt><trkpt lat="43.7841015" lon="12.5770307"><ele>287.0</ele><time>2026-04-19T07:49:21.855Z</time></trkpt><trkpt lat="43.7841574" lon="12.5770968"><ele>287.0</ele><time>2026-04-19T07:49:22.85Z</time></trkpt><trkpt lat="43.7842149" lon="12.5771622"><ele>287.0</ele><time>2026-04-19T07:49:23.857Z</time></trkpt><trkpt lat="43.7842712" lon="12.5772248"><ele>287.0</ele><time>2026-04-19T07:49:24.843Z</time></trkpt><trkpt lat="43.7843377" lon="12.5772576"><ele>287.0</ele><time>2026-04-19T07:49:25.859Z</time></trkpt><trkpt lat="43.7844098" lon="12.5772894"><ele>287.0</ele><time>2026-04-19T07:49:26.852Z</time></trkpt><trkpt lat="43.7844854" lon="12.5773097"><ele>287.0</ele><time>2026-04-19T07:49:27.851Z</time></trkpt><trkpt lat="43.7845644" lon="12.5773276"><ele>284.6666666666667</ele><time>2026-04-19T07:49:28.848Z</time></trkpt><trkpt lat="43.7846427" lon="12.577333"><ele>282.33333333333337</ele><time>2026-04-19T07:49:29.859Z</time></trkpt><trkpt lat="43.7847198" lon="12.5773313"><ele>280.0</ele><time>2026-04-19T07:49:30.853Z</time></trkpt><trkpt lat="43.7847958" lon="12.5773278"><ele>277.6666666666667</ele><time>2026-04-19T07:49:31.856Z</time></trkpt><trkpt lat="43.7848718" lon="12.5773252"><ele>275.3333333333333</ele><time>2026-04-19T07:49:32.843Z</time></trkpt><trkpt lat="43.7849482" lon="12.5773247"><ele>273.0</ele><time>2026-04-19T07:49:33.857Z</time></trkpt><trkpt lat="43.7850231" lon="12.5773243"><ele>273.0</ele><time>2026-04-19T07:49:34.849Z</time></trkpt><trkpt lat="43.7850999" lon="12.5773242"><ele>273.0</ele><time>2026-04-19T07:49:35.852Z</time></trkpt><trkpt lat="43.7851746" lon="12.577322"><ele>273.0</ele><time>2026-04-19T07:49:36.846Z</time></trkpt><trkpt lat="43.7852495" lon="12.5773241"><ele>273.0</ele><time>2026-04-19T07:49:37.85Z</time></trkpt><trkpt lat="43.7853193" lon="12.57734"><ele>273.0</ele><time>2026-04-19T07:49:38.849Z</time></trkpt><trkpt lat="43.7853809" lon="12.5773765"><ele>273.0</ele><time>2026-04-19T07:49:39.856Z</time></trkpt><trkpt lat="43.7854327" lon="12.5774326"><ele>273.0</ele><time>2026-04-19T07:49:40.853Z</time></trkpt><trkpt lat="43.7854772" lon="12.5775072"><ele>270.8333333333333</ele><time>2026-04-19T07:49:41.854Z</time></trkpt><trkpt lat="43.7855188" lon="12.577599"><ele>268.6666666666667</ele><time>2026-04-19T07:49:42.85Z</time></trkpt><trkpt lat="43.7855602" lon="12.577703"><ele>266.5</ele><time>2026-04-19T07:49:43.855Z</time></trkpt><trkpt lat="43.7856004" lon="12.5778068"><ele>264.33333333333337</ele><time>2026-04-19T07:49:44.849Z</time></trkpt><trkpt lat="43.7856422" lon="12.5779066"><ele>262.1666666666667</ele><time>2026-04-19T07:49:45.85Z</time></trkpt><trkpt lat="43.7856889" lon="12.5779988"><ele>260.0</ele><time>2026-04-19T07:49:46.844Z</time></trkpt><trkpt lat="43.7857344" lon="12.5780848"><ele>260.00000000000006</ele><time>2026-04-19T07:49:47.856Z</time></trkpt><trkpt lat="43.7857764" lon="12.5781592"><ele>260.0</ele><time>2026-04-19T07:49:48.857Z</time></trkpt><trkpt lat="43.7858262" lon="12.578226"><ele>260.0</ele><time>2026-04-19T07:49:49.855Z</time></trkpt><trkpt lat="43.7858828" lon="12.5782902"><ele>260.0</ele><time>2026-04-19T07:49:50.848Z</time></trkpt><trkpt lat="43.7859444" lon="12.5783516"><ele>260.0</ele><time>2026-04-19T07:49:51.851Z</time></trkpt><trkpt lat="43.786013" lon="12.5784098"><ele>260.00000000000006</ele><time>2026-04-19T07:49:52.857Z</time></trkpt><trkpt lat="43.7860809" lon="12.5784715"><ele>260.0</ele><time>2026-04-19T07:49:53.863Z</time></trkpt><trkpt lat="43.7861427" lon="12.5785356"><ele>257.8571428571429</ele><time>2026-04-19T07:49:54.845Z</time></trkpt><trkpt lat="43.7861977" lon="12.5786019"><ele>255.71428571428572</ele><time>2026-04-19T07:49:55.854Z</time></trkpt><trkpt lat="43.7862481" lon="12.5786751"><ele>253.57142857142858</ele><time>2026-04-19T07:49:56.853Z</time></trkpt><trkpt lat="43.7862988" lon="12.5787525"><ele>251.42857142857144</ele><time>2026-04-19T07:49:57.85Z</time></trkpt><trkpt lat="43.7863491" lon="12.5788248"><ele>249.28571428571428</ele><time>2026-04-19T07:49:58.855Z</time></trkpt><trkpt lat="43.7864004" lon="12.5788934"><ele>247.14285714285714</ele><time>2026-04-19T07:49:59.852Z</time></trkpt><trkpt lat="43.7864557" lon="12.5789566"><ele>245.0</ele><time>2026-04-19T07:50:00.845Z</time></trkpt><trkpt lat="43.7865165" lon="12.5790212"><ele>245.00000000000003</ele><time>2026-04-19T07:50:01.854Z</time></trkpt><trkpt lat="43.7865742" lon="12.5790815"><ele>245.0</ele><time>2026-04-19T07:50:02.842Z</time></trkpt><trkpt lat="43.7866368" lon="12.5791306"><ele>245.0</ele><time>2026-04-19T07:50:03.853Z</time></trkpt><trkpt lat="43.7867023" lon="12.5791784"><ele>245.0</ele><time>2026-04-19T07:50:04.844Z</time></trkpt><trkpt lat="43.7867694" lon="12.57923"><ele>245.00000000000003</ele><time>2026-04-19T07:50:05.852Z</time></trkpt><trkpt lat="43.7868372" lon="12.5792791"><ele>245.0</ele><time>2026-04-19T07:50:06.848Z</time></trkpt><trkpt lat="43.7869073" lon="12.5793309"><ele>242.33333333333334</ele><time>2026-04-19T07:50:07.872Z</time></trkpt><trkpt lat="43.7869773" lon="12.5793778"><ele>239.66666666666669</ele><time>2026-04-19T07:50:08.845Z</time></trkpt><trkpt lat="43.7870503" lon="12.5794238"><ele>237.0</ele><time>2026-04-19T07:50:09.85Z</time></trkpt><trkpt lat="43.7871255" lon="12.5794656"><ele>234.33333333333331</ele><time>2026-04-19T07:50:10.846Z</time></trkpt><trkpt lat="43.7872041" lon="12.579508"><ele>231.66666666666666</ele><time>2026-04-19T07:50:11.851Z</time></trkpt><trkpt lat="43.7872827" lon="12.5795523"><ele>229.0</ele><time>2026-04-19T07:50:12.877Z</time></trkpt><trkpt lat="43.7873598" lon="12.579597"><ele>228.99999999999997</ele><time>2026-04-19T07:50:13.848Z</time></trkpt><trkpt lat="43.7874395" lon="12.5796479"><ele>229.0</ele><time>2026-04-19T07:50:14.847Z</time></trkpt><trkpt lat="43.7875188" lon="12.5796991"><ele>229.0</ele><time>2026-04-19T07:50:15.848Z</time></trkpt><trkpt lat="43.7875963" lon="12.5797486"><ele>229.0</ele><time>2026-04-19T07:50:16.844Z</time></trkpt><trkpt lat="43.7876727" lon="12.5797967"><ele>228.99999999999997</ele><time>2026-04-19T07:50:17.864Z</time></trkpt><trkpt lat="43.7877464" lon="12.579844"><ele>229.0</ele><time>2026-04-19T07:50:18.851Z</time></trkpt><trkpt lat="43.7878226" lon="12.579895"><ele>225.99999999999997</ele><time>2026-04-19T07:50:19.849Z</time></trkpt><trkpt lat="43.7878969" lon="12.5799517"><ele>223.0</ele><time>2026-04-19T07:50:20.845Z</time></trkpt><trkpt lat="43.7879654" lon="12.5800145"><ele>220.0</ele><time>2026-04-19T07:50:21.847Z</time></trkpt><trkpt lat="43.788027" lon="12.5800806"><ele>217.0</ele><time>2026-04-19T07:50:22.846Z</time></trkpt><trkpt lat="43.7880815" lon="12.5801478"><ele>213.99999999999997</ele><time>2026-04-19T07:50:23.854Z</time></trkpt><trkpt lat="43.78813" lon="12.5802051"><ele>211.0</ele><time>2026-04-19T07:50:24.845Z</time></trkpt><trkpt lat="43.7882314" lon="12.5802679"><ele>211.0</ele><time>2026-04-19T07:50:26.848Z</time></trkpt><trkpt lat="43.7883307" lon="12.580236"><ele>211.0</ele><time>2026-04-19T07:50:28.852Z</time></trkpt><trkpt lat="43.7883926" lon="12.5801003"><ele>211.0</ele><time>2026-04-19T07:50:30.854Z</time></trkpt><trkpt lat="43.7884071" lon="12.5799443"><ele>211.0</ele><time>2026-04-19T07:50:32.869Z</time></trkpt><trkpt lat="43.7883819" lon="12.5797884"><ele>211.0</ele><time>2026-04-19T07:50:34.859Z</time></trkpt><trkpt lat="43.7883618" lon="12.5797012"><ele>211.0</ele><time>2026-04-19T07:50:35.854Z</time></trkpt><trkpt lat="43.7883394" lon="12.5796094"><ele>211.0</ele><time>2026-04-19T07:50:36.854Z</time></trkpt><trkpt lat="43.7883183" lon="12.5795208"><ele>211.0</ele><time>2026-04-19T07:50:37.851Z</time></trkpt><trkpt lat="43.7883277" lon="12.5793705"><ele>211.0</ele><time>2026-04-19T07:50:39.868Z</time></trkpt><trkpt lat="43.7884267" lon="12.5792546"><ele>211.0</ele><time>2026-04-19T07:50:41.856Z</time></trkpt><trkpt lat="43.7885039" lon="12.5791903"><ele>207.4</ele><time>2026-04-19T07:50:42.855Z</time></trkpt><trkpt lat="43.7885924" lon="12.5791234"><ele>203.8</ele><time>2026-04-19T07:50:43.845Z</time></trkpt><trkpt lat="43.7886797" lon="12.5790586"><ele>200.20000000000002</ele><time>2026-04-19T07:50:44.849Z</time></trkpt><trkpt lat="43.788767" lon="12.5790124"><ele>196.60000000000002</ele><time>2026-04-19T07:50:45.85Z</time></trkpt><trkpt lat="43.7888475" lon="12.578972"><ele>193.0</ele><time>2026-04-19T07:50:46.849Z</time></trkpt><trkpt lat="43.7889182" lon="12.5789332"><ele>192.99999999999997</ele><time>2026-04-19T07:50:47.853Z</time></trkpt><trkpt lat="43.7889866" lon="12.578894"><ele>193.0</ele><time>2026-04-19T07:50:48.853Z</time></trkpt><trkpt lat="43.7890378" lon="12.5788304"><ele>193.0</ele><time>2026-04-19T07:50:49.848Z</time></trkpt><trkpt lat="43.7890824" lon="12.5787513"><ele>193.0</ele><time>2026-04-19T07:50:50.862Z</time></trkpt><trkpt lat="43.7891294" lon="12.5786557"><ele>192.99999999999997</ele><time>2026-04-19T07:50:51.848Z</time></trkpt><trkpt lat="43.7891837" lon="12.5785632"><ele>193.0</ele><time>2026-04-19T07:50:52.874Z</time></trkpt><trkpt lat="43.7892438" lon="12.5784895"><ele>192.99999999999997</ele><time>2026-04-19T07:50:53.846Z</time></trkpt><trkpt lat="43.7893064" lon="12.5784342"><ele>193.0</ele><time>2026-04-19T07:50:54.854Z</time></trkpt><trkpt lat="43.7893675" lon="12.5783923"><ele>193.0</ele><time>2026-04-19T07:50:55.844Z</time></trkpt><trkpt lat="43.7894247" lon="12.5783514"><ele>193.0</ele><time>2026-04-19T07:50:56.85Z</time></trkpt><trkpt lat="43.7895234" lon="12.578249"><ele>192.99999999999997</ele><time>2026-04-19T07:50:58.852Z</time></trkpt><trkpt lat="43.7895677" lon="12.5781851"><ele>193.0</ele><time>2026-04-19T07:50:59.867Z</time></trkpt><trkpt lat="43.7896637" lon="12.5781177"><ele>191.33333333333331</ele><time>2026-04-19T07:51:01.842Z</time></trkpt><trkpt lat="43.7897346" lon="12.5781269"><ele>189.66666666666666</ele><time>2026-04-19T07:51:02.854Z</time></trkpt><trkpt lat="43.7898094" lon="12.5781545"><ele>188.0</ele><time>2026-04-19T07:51:03.854Z</time></trkpt><trkpt lat="43.7898774" lon="12.5781805"><ele>186.33333333333331</ele><time>2026-04-19T07:51:04.867Z</time></trkpt><trkpt lat="43.7900049" lon="12.5782135"><ele>184.66666666666666</ele><time>2026-04-19T07:51:06.857Z</time></trkpt><trkpt lat="43.7900664" lon="12.5782336"><ele>183.0</ele><time>2026-04-19T07:51:07.85Z</time></trkpt><trkpt lat="43.7901737" lon="12.5783394"><ele>180.57142857142858</ele><time>2026-04-19T07:51:09.851Z</time></trkpt><trkpt lat="43.7902212" lon="12.5784123"><ele>178.14285714285717</ele><time>2026-04-19T07:51:10.847Z</time></trkpt><trkpt lat="43.7902629" lon="12.5784868"><ele>175.71428571428572</ele><time>2026-04-19T07:51:11.844Z</time></trkpt><trkpt lat="43.7903035" lon="12.5785658"><ele>173.28571428571428</ele><time>2026-04-19T07:51:12.851Z</time></trkpt><trkpt lat="43.7903413" lon="12.5786508"><ele>170.85714285714286</ele><time>2026-04-19T07:51:13.84Z</time></trkpt><trkpt lat="43.7903802" lon="12.578728"><ele>168.42857142857142</ele><time>2026-04-19T07:51:14.873Z</time></trkpt><trkpt lat="43.7904242" lon="12.5788069"><ele>166.0</ele><time>2026-04-19T07:51:15.856Z</time></trkpt><trkpt lat="43.7904697" lon="12.5788761"><ele>166.0</ele><time>2026-04-19T07:51:16.853Z</time></trkpt><trkpt lat="43.7905583" lon="12.57899"><ele>166.0</ele><time>2026-04-19T07:51:18.848Z</time></trkpt><trkpt lat="43.7906323" lon="12.5790962"><ele>166.0</ele><time>2026-04-19T07:51:20.851Z</time></trkpt><trkpt lat="43.7906776" lon="12.5791874"><ele>166.0</ele><time>2026-04-19T07:51:22.845Z</time></trkpt><trkpt lat="43.7907131" lon="12.5792694"><ele>166.0</ele><time>2026-04-19T07:51:24.863Z</time></trkpt><trkpt lat="43.790745" lon="12.5793486"><ele>166.0</ele><time>2026-04-19T07:51:26.846Z</time></trkpt><trkpt lat="43.7908187" lon="12.5794924"><ele>165.85714285714286</ele><time>2026-04-19T07:51:28.849Z</time></trkpt><trkpt lat="43.7908778" lon="12.5795419"><ele>165.71428571428572</ele><time>2026-04-19T07:51:29.878Z</time></trkpt><trkpt lat="43.790941" lon="12.5795801"><ele>165.57142857142858</ele><time>2026-04-19T07:51:30.848Z</time></trkpt><trkpt lat="43.7910083" lon="12.5796009"><ele>165.42857142857144</ele><time>2026-04-19T07:51:31.849Z</time></trkpt><trkpt lat="43.7910731" lon="12.5796164"><ele>165.28571428571428</ele><time>2026-04-19T07:51:32.851Z</time></trkpt><trkpt lat="43.7911346" lon="12.5796367"><ele>165.14285714285717</ele><time>2026-04-19T07:51:33.849Z</time></trkpt><trkpt lat="43.7911961" lon="12.5796612"><ele>165.0</ele><time>2026-04-19T07:51:34.87Z</time></trkpt><trkpt lat="43.7912612" lon="12.5796841"><ele>161.8</ele><time>2026-04-19T07:51:35.85Z</time></trkpt><trkpt lat="43.7913719" lon="12.5796935"><ele>158.6</ele><time>2026-04-19T07:51:37.849Z</time></trkpt><trkpt lat="43.7914517" lon="12.5797014"><ele>155.4</ele><time>2026-04-19T07:51:39.85Z</time></trkpt><trkpt lat="43.7915511" lon="12.5797464"><ele>152.2</ele><time>2026-04-19T07:51:41.852Z</time></trkpt><trkpt lat="43.7916459" lon="12.5798011"><ele>149.0</ele><time>2026-04-19T07:51:43.849Z</time></trkpt><trkpt lat="43.7917362" lon="12.5798478"><ele>146.4</ele><time>2026-04-19T07:51:45.872Z</time></trkpt><trkpt lat="43.7918503" lon="12.5798626"><ele>143.8</ele><time>2026-04-19T07:51:47.85Z</time></trkpt><trkpt lat="43.7919784" lon="12.5798194"><ele>141.2</ele><time>2026-04-19T07:51:49.856Z</time></trkpt><trkpt lat="43.7920441" lon="12.5797977"><ele>138.6</ele><time>2026-04-19T07:51:50.842Z</time></trkpt><trkpt lat="43.7921537" lon="12.5797705"><ele>136.0</ele><time>2026-04-19T07:51:52.85Z</time></trkpt><trkpt lat="43.7922429" lon="12.5798036"><ele>136.0</ele><time>2026-04-19T07:51:54.85Z</time></trkpt><trkpt lat="43.7922919" lon="12.5798905"><ele>136.0</ele><time>2026-04-19T07:51:56.849Z</time></trkpt><trkpt lat="43.7922992" lon="12.5800331"><ele>136.0</ele><time>2026-04-19T07:51:58.852Z</time></trkpt><trkpt lat="43.7923478" lon="12.5801279"><ele>136.0</ele><time>2026-04-19T07:52:00.844Z</time></trkpt><trkpt lat="43.792422" lon="12.5801191"><ele>136.0</ele><time>2026-04-19T07:52:02.851Z</time></trkpt><trkpt lat="43.7924951" lon="12.580084"><ele>136.0</ele><time>2026-04-19T07:52:03.851Z</time></trkpt><trkpt lat="43.7925527" lon="12.5800214"><ele>136.0</ele><time>2026-04-19T07:52:04.852Z</time></trkpt><trkpt lat="43.7925989" lon="12.5799614"><ele>136.0</ele><time>2026-04-19T07:52:05.847Z</time></trkpt><trkpt lat="43.7926489" lon="12.5799068"><ele>136.0</ele><time>2026-04-19T07:52:06.853Z</time></trkpt><trkpt lat="43.7927" lon="12.5798549"><ele>136.0</ele><time>2026-04-19T07:52:07.854Z</time></trkpt><trkpt lat="43.7927684" lon="12.5797483"><ele>136.0</ele><time>2026-04-19T07:52:09.848Z</time></trkpt><trkpt lat="43.7928152" lon="12.5795868"><ele>136.0</ele><time>2026-04-19T07:52:11.86Z</time></trkpt><trkpt lat="43.7928225" lon="12.5794897"><ele>135.2</ele><time>2026-04-19T07:52:12.852Z</time></trkpt><trkpt lat="43.7928315" lon="12.5794018"><ele>134.39999999999998</ele><time>2026-04-19T07:52:13.85Z</time></trkpt><trkpt lat="43.7928345" lon="12.5792835"><ele>133.6</ele><time>2026-04-19T07:52:15.848Z</time></trkpt><trkpt lat="43.7927211" lon="12.5791563"><ele>132.79999999999998</ele><time>2026-04-19T07:52:18.852Z</time></trkpt><trkpt lat="43.792654" lon="12.5790498"><ele>132.0</ele><time>2026-04-19T07:52:19.844Z</time></trkpt><trkpt lat="43.7925927" lon="12.5789466"><ele>132.0</ele><time>2026-04-19T07:52:20.855Z</time></trkpt><trkpt lat="43.7925573" lon="12.5788447"><ele>132.0</ele><time>2026-04-19T07:52:21.858Z</time></trkpt><trkpt lat="43.792531" lon="12.5787465"><ele>132.0</ele><time>2026-04-19T07:52:22.85Z</time></trkpt><trkpt lat="43.7925179" lon="12.5786552"><ele>132.0</ele><time>2026-04-19T07:52:23.854Z</time></trkpt><trkpt lat="43.7924873" lon="12.5785386"><ele>132.0</ele><time>2026-04-19T07:52:25.851Z</time></trkpt><trkpt lat="43.792459" lon="12.57842"><ele>132.0</ele><time>2026-04-19T07:52:28.856Z</time></trkpt><trkpt lat="43.7924535" lon="12.5783044"><ele>131.71428571428572</ele><time>2026-04-19T07:52:30.848Z</time></trkpt><trkpt lat="43.7924589" lon="12.5782114"><ele>131.42857142857144</ele><time>2026-04-19T07:52:31.857Z</time></trkpt><trkpt lat="43.7924493" lon="12.5780964"><ele>131.14285714285717</ele><time>2026-04-19T07:52:32.845Z</time></trkpt><trkpt lat="43.7924249" lon="12.5779923"><ele>130.85714285714286</ele><time>2026-04-19T07:52:33.851Z</time></trkpt><trkpt lat="43.792397" lon="12.577905"><ele>130.57142857142858</ele><time>2026-04-19T07:52:34.846Z</time></trkpt><trkpt lat="43.7923705" lon="12.5778213"><ele>130.2857142857143</ele><time>2026-04-19T07:52:35.841Z</time></trkpt><trkpt lat="43.7923467" lon="12.5777342"><ele>130.0</ele><time>2026-04-19T07:52:36.848Z</time></trkpt><trkpt lat="43.7923171" lon="12.5775796"><ele>130.0</ele><time>2026-04-19T07:52:38.858Z</time></trkpt><trkpt lat="43.7923078" lon="12.5773879"><ele>130.0</ele><time>2026-04-19T07:52:40.846Z</time></trkpt><trkpt lat="43.7923115" lon="12.5772791"><ele>130.0</ele><time>2026-04-19T07:52:41.852Z</time></trkpt><trkpt lat="43.7923183" lon="12.5771783"><ele>130.0</ele><time>2026-04-19T07:52:42.845Z</time></trkpt><trkpt lat="43.7923249" lon="12.5770658"><ele>130.0</ele><time>2026-04-19T07:52:43.855Z</time></trkpt><trkpt lat="43.7923283" lon="12.5769453"><ele>130.66666666666669</ele><time>2026-04-19T07:52:44.841Z</time></trkpt><trkpt lat="43.7923307" lon="12.5768298"><ele>131.33333333333334</ele><time>2026-04-19T07:52:45.848Z</time></trkpt><trkpt lat="43.7923316" lon="12.5767297"><ele>132.0</ele><time>2026-04-19T07:52:46.841Z</time></trkpt><trkpt lat="43.792349" lon="12.5765922"><ele>132.66666666666666</ele><time>2026-04-19T07:52:48.85Z</time></trkpt><trkpt lat="43.7923926" lon="12.5764839"><ele>133.33333333333331</ele><time>2026-04-19T07:52:50.871Z</time></trkpt><trkpt lat="43.7924556" lon="12.5763837"><ele>134.0</ele><time>2026-04-19T07:52:52.858Z</time></trkpt><trkpt lat="43.7925028" lon="12.5763174"><ele>134.0</ele><time>2026-04-19T07:52:53.851Z</time></trkpt><trkpt lat="43.7925588" lon="12.5762685"><ele>134.0</ele><time>2026-04-19T07:52:54.845Z</time></trkpt><trkpt lat="43.7926218" lon="12.5762421"><ele>134.0</ele><time>2026-04-19T07:52:55.853Z</time></trkpt><trkpt lat="43.7926892" lon="12.5762401"><ele>134.0</ele><time>2026-04-19T07:52:56.844Z</time></trkpt><trkpt lat="43.7927583" lon="12.5762414"><ele>134.0</ele><time>2026-04-19T07:52:57.851Z</time></trkpt><trkpt lat="43.7928293" lon="12.5762339"><ele>134.0</ele><time>2026-04-19T07:52:58.845Z</time></trkpt><trkpt lat="43.7929097" lon="12.576223"><ele>134.0</ele><time>2026-04-19T07:52:59.839Z</time></trkpt><trkpt lat="43.7929955" lon="12.5762109"><ele>136.0</ele><time>2026-04-19T07:53:00.845Z</time></trkpt><trkpt lat="43.7930952" lon="12.5762055"><ele>138.0</ele><time>2026-04-19T07:53:01.845Z</time></trkpt><trkpt lat="43.7931949" lon="12.5762039"><ele>140.0</ele><time>2026-04-19T07:53:02.868Z</time></trkpt><trkpt lat="43.7932776" lon="12.5762079"><ele>142.0</ele><time>2026-04-19T07:53:03.85Z</time></trkpt><trkpt lat="43.7933501" lon="12.5762157"><ele>144.0</ele><time>2026-04-19T07:53:04.852Z</time></trkpt><trkpt lat="43.7934376" lon="12.5761903"><ele>146.0</ele><time>2026-04-19T07:53:06.848Z</time></trkpt><trkpt lat="43.7934366" lon="12.5760676"><ele>147.8</ele><time>2026-04-19T07:53:08.854Z</time></trkpt><trkpt lat="43.793396" lon="12.5759729"><ele>149.6</ele><time>2026-04-19T07:53:09.849Z</time></trkpt><trkpt lat="43.793346" lon="12.5758626"><ele>151.4</ele><time>2026-04-19T07:53:10.851Z</time></trkpt><trkpt lat="43.7932756" lon="12.5757492"><ele>153.2</ele><time>2026-04-19T07:53:11.849Z</time></trkpt><trkpt lat="43.7932153" lon="12.5756386"><ele>155.0</ele><time>2026-04-19T07:53:12.851Z</time></trkpt><trkpt lat="43.7931657" lon="12.5755344"><ele>155.0</ele><time>2026-04-19T07:53:13.87Z</time></trkpt><trkpt lat="43.7931232" lon="12.5754456"><ele>155.0</ele><time>2026-04-19T07:53:14.853Z</time></trkpt><trkpt lat="43.7930877" lon="12.5753724"><ele>155.0</ele><time>2026-04-19T07:53:15.85Z</time></trkpt><trkpt lat="43.7930296" lon="12.5752223"><ele>155.0</ele><time>2026-04-19T07:53:17.848Z</time></trkpt><trkpt lat="43.7930065" lon="12.5751407"><ele>155.0</ele><time>2026-04-19T07:53:18.844Z</time></trkpt><trkpt lat="43.7930068" lon="12.5750523"><ele>155.0</ele><time>2026-04-19T07:53:19.848Z</time></trkpt><trkpt lat="43.793047" lon="12.5748973"><ele>156.6</ele><time>2026-04-19T07:53:21.847Z</time></trkpt><trkpt lat="43.7931099" lon="12.5748144"><ele>158.2</ele><time>2026-04-19T07:53:23.847Z</time></trkpt><trkpt lat="43.7932128" lon="12.5747715"><ele>159.8</ele><time>2026-04-19T07:53:33.865Z</time></trkpt><trkpt lat="43.79332" lon="12.5747284"><ele>161.4</ele><time>2026-04-19T07:53:34.847Z</time></trkpt><trkpt lat="43.7934196" lon="12.5746979"><ele>163.0</ele><time>2026-04-19T07:53:35.855Z</time></trkpt><trkpt lat="43.7934962" lon="12.5747028"><ele>165.66666666666669</ele><time>2026-04-19T07:53:36.848Z</time></trkpt><trkpt lat="43.7935625" lon="12.5747314"><ele>168.33333333333334</ele><time>2026-04-19T07:53:37.844Z</time></trkpt><trkpt lat="43.7936336" lon="12.5748265"><ele>171.0</ele><time>2026-04-19T07:53:38.846Z</time></trkpt><trkpt lat="43.7937022" lon="12.5749381"><ele>173.66666666666666</ele><time>2026-04-19T07:53:39.845Z</time></trkpt><trkpt lat="43.7937594" lon="12.5750404"><ele>176.33333333333331</ele><time>2026-04-19T07:53:40.847Z</time></trkpt><trkpt lat="43.7938019" lon="12.5751076"><ele>179.0</ele><time>2026-04-19T07:53:41.845Z</time></trkpt><trkpt lat="43.7938553" lon="12.575163"><ele>179.0</ele><time>2026-04-19T07:53:42.846Z</time></trkpt><trkpt lat="43.7939116" lon="12.5752093"><ele>179.0</ele><time>2026-04-19T07:53:43.847Z</time></trkpt><trkpt lat="43.7940282" lon="12.5752713"><ele>179.0</ele><time>2026-04-19T07:53:45.856Z</time></trkpt><trkpt lat="43.7940996" lon="12.5752869"><ele>179.0</ele><time>2026-04-19T07:53:46.848Z</time></trkpt><trkpt lat="43.7941762" lon="12.5752717"><ele>179.0</ele><time>2026-04-19T07:53:47.847Z</time></trkpt><trkpt lat="43.7942538" lon="12.5752476"><ele>179.0</ele><time>2026-04-19T07:53:48.839Z</time></trkpt><trkpt lat="43.7943168" lon="12.5752174"><ele>182.2</ele><time>2026-04-19T07:53:49.842Z</time></trkpt><trkpt lat="43.7944096" lon="12.5751616"><ele>185.39999999999998</ele><time>2026-04-19T07:53:51.842Z</time></trkpt><trkpt lat="43.7944951" lon="12.5751363"><ele>188.6</ele><time>2026-04-19T07:53:53.841Z</time></trkpt><trkpt lat="43.7945877" lon="12.5751257"><ele>191.8</ele><time>2026-04-19T07:53:55.85Z</time></trkpt><trkpt lat="43.7947045" lon="12.5751212"><ele>195.0</ele><time>2026-04-19T07:53:57.855Z</time></trkpt><trkpt lat="43.7947703" lon="12.5751204"><ele>195.0</ele><time>2026-04-19T07:53:58.848Z</time></trkpt><trkpt lat="43.7948407" lon="12.5751195"><ele>195.0</ele><time>2026-04-19T07:53:59.843Z</time></trkpt><trkpt lat="43.794953" lon="12.5751389"><ele>195.0</ele><time>2026-04-19T07:54:01.845Z</time></trkpt><trkpt lat="43.7950331" lon="12.575158"><ele>195.0</ele><time>2026-04-19T07:54:05.858Z</time></trkpt><trkpt lat="43.795088" lon="12.5752358"><ele>195.0</ele><time>2026-04-19T07:54:18.824Z</time></trkpt><trkpt lat="43.7952104" lon="12.5752417"><ele>195.2</ele><time>2026-04-19T07:54:20.85Z</time></trkpt><trkpt lat="43.795295" lon="12.5752594"><ele>195.4</ele><time>2026-04-19T07:54:21.851Z</time></trkpt><trkpt lat="43.7954051" lon="12.5753011"><ele>195.60000000000002</ele><time>2026-04-19T07:54:23.864Z</time></trkpt><trkpt lat="43.7955009" lon="12.5753418"><ele>195.8</ele><time>2026-04-19T07:54:25.853Z</time></trkpt><trkpt lat="43.7956043" lon="12.575371"><ele>196.0</ele><time>2026-04-19T07:54:27.85Z</time></trkpt><trkpt lat="43.7957308" lon="12.575413"><ele>196.0</ele><time>2026-04-19T07:54:29.855Z</time></trkpt><trkpt lat="43.7958184" lon="12.5754544"><ele>196.0</ele><time>2026-04-19T07:54:30.846Z</time></trkpt><trkpt lat="43.7959215" lon="12.5755056"><ele>196.0</ele><time>2026-04-19T07:54:31.851Z</time></trkpt><trkpt lat="43.7960297" lon="12.5755561"><ele>196.0</ele><time>2026-04-19T07:54:32.846Z</time></trkpt><trkpt lat="43.7961233" lon="12.5756125"><ele>196.0</ele><time>2026-04-19T07:54:33.851Z</time></trkpt><trkpt lat="43.7962144" lon="12.5756762"><ele>197.60000000000002</ele><time>2026-04-19T07:54:34.849Z</time></trkpt><trkpt lat="43.7963069" lon="12.5757438"><ele>199.2</ele><time>2026-04-19T07:54:35.852Z</time></trkpt><trkpt lat="43.7963846" lon="12.5758013"><ele>200.8</ele><time>2026-04-19T07:54:36.849Z</time></trkpt><trkpt lat="43.7964619" lon="12.5758517"><ele>202.39999999999998</ele><time>2026-04-19T07:54:38.848Z</time></trkpt><trkpt lat="43.7964615" lon="12.5757027"><ele>204.0</ele><time>2026-04-19T07:54:40.86Z</time></trkpt><trkpt lat="43.7964206" lon="12.5755741"><ele>204.0</ele><time>2026-04-19T07:54:41.847Z</time></trkpt><trkpt lat="43.7963688" lon="12.5754387"><ele>204.0</ele><time>2026-04-19T07:54:42.849Z</time></trkpt><trkpt lat="43.7963233" lon="12.575294"><ele>204.0</ele><time>2026-04-19T07:54:43.846Z</time></trkpt><trkpt lat="43.7962853" lon="12.5751213"><ele>204.0</ele><time>2026-04-19T07:54:44.847Z</time></trkpt><trkpt lat="43.7962528" lon="12.5749237"><ele>207.5</ele><time>2026-04-19T07:54:45.862Z</time></trkpt><trkpt lat="43.7962298" lon="12.5747356"><ele>211.0</ele><time>2026-04-19T07:54:46.843Z</time></trkpt><trkpt lat="43.7962184" lon="12.574562"><ele>214.5</ele><time>2026-04-19T07:54:47.847Z</time></trkpt><trkpt lat="43.7962191" lon="12.5743928"><ele>218.0</ele><time>2026-04-19T07:54:48.84Z</time></trkpt><trkpt lat="43.7962216" lon="12.5742324"><ele>220.60000000000002</ele><time>2026-04-19T07:54:49.847Z</time></trkpt><trkpt lat="43.7962269" lon="12.5741018"><ele>223.20000000000002</ele><time>2026-04-19T07:54:50.853Z</time></trkpt><trkpt lat="43.7962517" lon="12.5739959"><ele>225.8</ele><time>2026-04-19T07:54:51.847Z</time></trkpt><trkpt lat="43.7962871" lon="12.5739088"><ele>228.4</ele><time>2026-04-19T07:54:52.871Z</time></trkpt><trkpt lat="43.7963746" lon="12.573793"><ele>231.0</ele><time>2026-04-19T07:54:54.848Z</time></trkpt><trkpt lat="43.7964724" lon="12.5737082"><ele>231.0</ele><time>2026-04-19T07:54:56.841Z</time></trkpt><trkpt lat="43.7965512" lon="12.5737033"><ele>231.00000000000003</ele><time>2026-04-19T07:54:57.866Z</time></trkpt><trkpt lat="43.7966529" lon="12.573696"><ele>231.00000000000003</ele><time>2026-04-19T07:54:58.842Z</time></trkpt><trkpt lat="43.796777" lon="12.5736756"><ele>231.0</ele><time>2026-04-19T07:54:59.841Z</time></trkpt><trkpt lat="43.7968806" lon="12.5736521"><ele>231.0</ele><time>2026-04-19T07:55:00.841Z</time></trkpt><trkpt lat="43.7969618" lon="12.5736575"><ele>235.25</ele><time>2026-04-19T07:55:01.846Z</time></trkpt><trkpt lat="43.7970385" lon="12.5737097"><ele>239.5</ele><time>2026-04-19T07:55:02.865Z</time></trkpt><trkpt lat="43.7971331" lon="12.5737898"><ele>243.75</ele><time>2026-04-19T07:55:03.844Z</time></trkpt><trkpt lat="43.7972476" lon="12.5738863"><ele>248.0</ele><time>2026-04-19T07:55:04.839Z</time></trkpt><trkpt lat="43.7973567" lon="12.5739761"><ele>248.00000000000003</ele><time>2026-04-19T07:55:05.844Z</time></trkpt><trkpt lat="43.7974491" lon="12.5740494"><ele>248.0</ele><time>2026-04-19T07:55:06.846Z</time></trkpt><trkpt lat="43.7975302" lon="12.5740984"><ele>248.0</ele><time>2026-04-19T07:55:07.845Z</time></trkpt><trkpt lat="43.797606" lon="12.5741162"><ele>248.0</ele><time>2026-04-19T07:55:08.865Z</time></trkpt><trkpt lat="43.7976715" lon="12.5741004"><ele>248.00000000000003</ele><time>2026-04-19T07:55:09.847Z</time></trkpt><trkpt lat="43.7977282" lon="12.5740425"><ele>248.0</ele><time>2026-04-19T07:55:10.849Z</time></trkpt><trkpt lat="43.7977771" lon="12.5739606"><ele>248.4</ele><time>2026-04-19T07:55:11.857Z</time></trkpt><trkpt lat="43.7978274" lon="12.5738648"><ele>248.8</ele><time>2026-04-19T07:55:12.847Z</time></trkpt><trkpt lat="43.7978813" lon="12.5737599"><ele>249.2</ele><time>2026-04-19T07:55:13.872Z</time></trkpt><trkpt lat="43.7979269" lon="12.5736763"><ele>249.6</ele><time>2026-04-19T07:55:14.852Z</time></trkpt><trkpt lat="43.7979863" lon="12.57353"><ele>250.0</ele><time>2026-04-19T07:55:16.847Z</time></trkpt><trkpt lat="43.7980014" lon="12.5734002"><ele>252.0</ele><time>2026-04-19T07:55:17.851Z</time></trkpt><trkpt lat="43.7980232" lon="12.5732509"><ele>254.0</ele><time>2026-04-19T07:55:18.849Z</time></trkpt><trkpt lat="43.7980563" lon="12.5730577"><ele>256.0</ele><time>2026-04-19T07:55:19.86Z</time></trkpt><trkpt lat="43.7980893" lon="12.5728516"><ele>258.0</ele><time>2026-04-19T07:55:20.852Z</time></trkpt><trkpt lat="43.7981153" lon="12.5726609"><ele>260.0</ele><time>2026-04-19T07:55:21.85Z</time></trkpt><trkpt lat="43.798137" lon="12.5724906"><ele>262.0</ele><time>2026-04-19T07:55:22.857Z</time></trkpt><trkpt lat="43.7981509" lon="12.5723236"><ele>264.0</ele><time>2026-04-19T07:55:23.851Z</time></trkpt><trkpt lat="43.798159" lon="12.5721764"><ele>266.0</ele><time>2026-04-19T07:55:24.87Z</time></trkpt><trkpt lat="43.7981636" lon="12.5720438"><ele>268.0</ele><time>2026-04-19T07:55:25.852Z</time></trkpt><trkpt lat="43.7981634" lon="12.5719046"><ele>269.2</ele><time>2026-04-19T07:55:26.85Z</time></trkpt><trkpt lat="43.7981575" lon="12.5717489"><ele>270.4</ele><time>2026-04-19T07:55:27.851Z</time></trkpt><trkpt lat="43.7981457" lon="12.5715847"><ele>271.59999999999997</ele><time>2026-04-19T07:55:28.851Z</time></trkpt><trkpt lat="43.7981326" lon="12.5714395"><ele>272.8</ele><time>2026-04-19T07:55:29.857Z</time></trkpt><trkpt lat="43.7981228" lon="12.5713153"><ele>274.0</ele><time>2026-04-19T07:55:30.85Z</time></trkpt><trkpt lat="43.7981223" lon="12.5712026"><ele>274.4</ele><time>2026-04-19T07:55:31.859Z</time></trkpt><trkpt lat="43.7981146" lon="12.5710923"><ele>274.79999999999995</ele><time>2026-04-19T07:55:32.85Z</time></trkpt><trkpt lat="43.7980942" lon="12.5709769"><ele>275.20000000000005</ele><time>2026-04-19T07:55:33.85Z</time></trkpt><trkpt lat="43.7980669" lon="12.5708555"><ele>275.6</ele><time>2026-04-19T07:55:34.85Z</time></trkpt><trkpt lat="43.7980413" lon="12.5707189"><ele>276.0</ele><time>2026-04-19T07:55:35.852Z</time></trkpt><trkpt lat="43.7980195" lon="12.5705744"><ele>276.0</ele><time>2026-04-19T07:55:36.848Z</time></trkpt><trkpt lat="43.7980198" lon="12.5704165"><ele>276.0</ele><time>2026-04-19T07:55:37.85Z</time></trkpt><trkpt lat="43.7980295" lon="12.5702563"><ele>276.0</ele><time>2026-04-19T07:55:38.842Z</time></trkpt><trkpt lat="43.79804" lon="12.5700828"><ele>276.0</ele><time>2026-04-19T07:55:39.845Z</time></trkpt><trkpt lat="43.7980498" lon="12.5699039"><ele>276.6</ele><time>2026-04-19T07:55:40.855Z</time></trkpt><trkpt lat="43.7980711" lon="12.5697432"><ele>277.20000000000005</ele><time>2026-04-19T07:55:41.852Z</time></trkpt><trkpt lat="43.798094" lon="12.5696068"><ele>277.79999999999995</ele><time>2026-04-19T07:55:42.844Z</time></trkpt><trkpt lat="43.7980987" lon="12.5694725"><ele>278.4</ele><time>2026-04-19T07:55:43.865Z</time></trkpt><trkpt lat="43.7980909" lon="12.569334"><ele>279.0</ele><time>2026-04-19T07:55:44.855Z</time></trkpt><trkpt lat="43.7980842" lon="12.5691888"><ele>279.0</ele><time>2026-04-19T07:55:45.853Z</time></trkpt><trkpt lat="43.7980914" lon="12.5690401"><ele>279.0</ele><time>2026-04-19T07:55:46.855Z</time></trkpt><trkpt lat="43.7981121" lon="12.5688906"><ele>279.0</ele><time>2026-04-19T07:55:47.85Z</time></trkpt><trkpt lat="43.7981354" lon="12.5687417"><ele>279.0</ele><time>2026-04-19T07:55:48.87Z</time></trkpt><trkpt lat="43.7981609" lon="12.5685929"><ele>279.0</ele><time>2026-04-19T07:55:49.848Z</time></trkpt><trkpt lat="43.798191" lon="12.5684328"><ele>280.25</ele><time>2026-04-19T07:55:50.846Z</time></trkpt><trkpt lat="43.7982216" lon="12.5682623"><ele>281.5</ele><time>2026-04-19T07:55:51.845Z</time></trkpt><trkpt lat="43.7982521" lon="12.5680847"><ele>282.75</ele><time>2026-04-19T07:55:52.846Z</time></trkpt><trkpt lat="43.7982778" lon="12.5679001"><ele>284.0</ele><time>2026-04-19T07:55:53.87Z</time></trkpt><trkpt lat="43.7982945" lon="12.5677141"><ele>285.0</ele><time>2026-04-19T07:55:54.848Z</time></trkpt><trkpt lat="43.7983015" lon="12.5675232"><ele>286.0</ele><time>2026-04-19T07:55:55.847Z</time></trkpt><trkpt lat="43.7982995" lon="12.5673314"><ele>287.0</ele><time>2026-04-19T07:55:56.852Z</time></trkpt><trkpt lat="43.7982928" lon="12.5671408"><ele>288.0</ele><time>2026-04-19T07:55:57.844Z</time></trkpt><trkpt lat="43.7982822" lon="12.5669492"><ele>290.0</ele><time>2026-04-19T07:55:58.851Z</time></trkpt><trkpt lat="43.7982621" lon="12.566761"><ele>292.0</ele><time>2026-04-19T07:55:59.846Z</time></trkpt><trkpt lat="43.7982295" lon="12.5665774"><ele>294.0</ele><time>2026-04-19T07:56:00.874Z</time></trkpt><trkpt lat="43.7981815" lon="12.5664074"><ele>296.0</ele><time>2026-04-19T07:56:01.851Z</time></trkpt><trkpt lat="43.7981184" lon="12.566248"><ele>298.5</ele><time>2026-04-19T07:56:02.845Z</time></trkpt><trkpt lat="43.7980465" lon="12.5661022"><ele>301.0</ele><time>2026-04-19T07:56:03.848Z</time></trkpt><trkpt lat="43.7979758" lon="12.5659585"><ele>303.5</ele><time>2026-04-19T07:56:04.852Z</time></trkpt><trkpt lat="43.7979131" lon="12.5658063"><ele>306.0</ele><time>2026-04-19T07:56:05.848Z</time></trkpt><trkpt lat="43.7978547" lon="12.5656493"><ele>306.0</ele><time>2026-04-19T07:56:06.852Z</time></trkpt><trkpt lat="43.7977967" lon="12.5654971"><ele>306.0</ele><time>2026-04-19T07:56:07.872Z</time></trkpt><trkpt lat="43.7977425" lon="12.56535"><ele>306.0</ele><time>2026-04-19T07:56:08.849Z</time></trkpt><trkpt lat="43.7977034" lon="12.5652135"><ele>306.0</ele><time>2026-04-19T07:56:09.849Z</time></trkpt><trkpt lat="43.7976804" lon="12.5650978"><ele>306.0</ele><time>2026-04-19T07:56:10.849Z</time></trkpt><trkpt lat="43.7976574" lon="12.564982"><ele>306.5</ele><time>2026-04-19T07:56:11.848Z</time></trkpt><trkpt lat="43.7976216" lon="12.5648532"><ele>307.0</ele><time>2026-04-19T07:56:12.845Z</time></trkpt><trkpt lat="43.7975779" lon="12.5647119"><ele>307.5</ele><time>2026-04-19T07:56:13.859Z</time></trkpt><trkpt lat="43.7975319" lon="12.564561"><ele>308.0</ele><time>2026-04-19T07:56:14.86Z</time></trkpt><trkpt lat="43.7974842" lon="12.5644066"><ele>308.0</ele><time>2026-04-19T07:56:15.853Z</time></trkpt><trkpt lat="43.797439" lon="12.5642609"><ele>308.0</ele><time>2026-04-19T07:56:16.854Z</time></trkpt><trkpt lat="43.7974023" lon="12.564136"><ele>308.0</ele><time>2026-04-19T07:56:17.857Z</time></trkpt><trkpt lat="43.7973762" lon="12.5640261"><ele>308.0</ele><time>2026-04-19T07:56:18.844Z</time></trkpt><trkpt lat="43.7973556" lon="12.5639172"><ele>308.0</ele><time>2026-04-19T07:56:19.848Z</time></trkpt><trkpt lat="43.7973347" lon="12.5638239"><ele>308.0</ele><time>2026-04-19T07:56:20.848Z</time></trkpt><trkpt lat="43.7972525" lon="12.5637012"><ele>308.0</ele><time>2026-04-19T07:56:22.844Z</time></trkpt><trkpt lat="43.7971858" lon="12.5636704"><ele>308.0</ele><time>2026-04-19T07:56:23.844Z</time></trkpt><trkpt lat="43.7971084" lon="12.5636587"><ele>308.0</ele><time>2026-04-19T07:56:24.853Z</time></trkpt><trkpt lat="43.7970286" lon="12.563663"><ele>308.0</ele><time>2026-04-19T07:56:25.851Z</time></trkpt><trkpt lat="43.796951" lon="12.5636664"><ele>308.0</ele><time>2026-04-19T07:56:26.847Z</time></trkpt><trkpt lat="43.7968788" lon="12.563664"><ele>308.0</ele><time>2026-04-19T07:56:27.87Z</time></trkpt><trkpt lat="43.7968077" lon="12.5636627"><ele>308.0</ele><time>2026-04-19T07:56:28.846Z</time></trkpt><trkpt lat="43.7967372" lon="12.5636633"><ele>306.4</ele><time>2026-04-19T07:56:29.849Z</time></trkpt><trkpt lat="43.7966206" lon="12.5636734"><ele>304.8</ele><time>2026-04-19T07:56:31.842Z</time></trkpt><trkpt lat="43.7965211" lon="12.5637047"><ele>303.2</ele><time>2026-04-19T07:56:33.847Z</time></trkpt><trkpt lat="43.7964363" lon="12.5637523"><ele>301.6</ele><time>2026-04-19T07:56:35.848Z</time></trkpt><trkpt lat="43.7963563" lon="12.5638005"><ele>300.0</ele><time>2026-04-19T07:56:37.853Z</time></trkpt><trkpt lat="43.7962585" lon="12.5638457"><ele>299.8</ele><time>2026-04-19T07:56:39.847Z</time></trkpt><trkpt lat="43.7961954" lon="12.5638461"><ele>299.6</ele><time>2026-04-19T07:56:40.847Z</time></trkpt><trkpt lat="43.7960722" lon="12.5638516"><ele>299.4</ele><time>2026-04-19T07:56:42.845Z</time></trkpt><trkpt lat="43.7959572" lon="12.5639583"><ele>299.2</ele><time>2026-04-19T07:56:44.849Z</time></trkpt><trkpt lat="43.7958793" lon="12.5640518"><ele>299.0</ele><time>2026-04-19T07:56:45.849Z</time></trkpt><trkpt lat="43.7957958" lon="12.5641511"><ele>298.2</ele><time>2026-04-19T07:56:46.845Z</time></trkpt><trkpt lat="43.7957079" lon="12.5642202"><ele>297.4</ele><time>2026-04-19T07:56:47.844Z</time></trkpt><trkpt lat="43.7956158" lon="12.5642771"><ele>296.6</ele><time>2026-04-19T07:56:48.845Z</time></trkpt><trkpt lat="43.7955161" lon="12.5643003"><ele>295.8</ele><time>2026-04-19T07:56:49.87Z</time></trkpt><trkpt lat="43.7954178" lon="12.564325"><ele>295.0</ele><time>2026-04-19T07:56:50.844Z</time></trkpt><trkpt lat="43.7953125" lon="12.5643633"><ele>295.0</ele><time>2026-04-19T07:56:51.85Z</time></trkpt><trkpt lat="43.7952138" lon="12.5644234"><ele>295.0</ele><time>2026-04-19T07:56:52.844Z</time></trkpt><trkpt lat="43.7951319" lon="12.564507"><ele>295.0</ele><time>2026-04-19T07:56:53.845Z</time></trkpt><trkpt lat="43.7950726" lon="12.5646083"><ele>295.0</ele><time>2026-04-19T07:56:54.849Z</time></trkpt><trkpt lat="43.7950245" lon="12.5647013"><ele>295.0</ele><time>2026-04-19T07:56:55.844Z</time></trkpt><trkpt lat="43.7949729" lon="12.5647666"><ele>293.7142857142857</ele><time>2026-04-19T07:56:56.845Z</time></trkpt><trkpt lat="43.7949122" lon="12.5648196"><ele>292.42857142857144</ele><time>2026-04-19T07:56:57.844Z</time></trkpt><trkpt lat="43.7948496" lon="12.5648696"><ele>291.1428571428571</ele><time>2026-04-19T07:56:58.843Z</time></trkpt><trkpt lat="43.7947832" lon="12.5649035"><ele>289.8571428571429</ele><time>2026-04-19T07:56:59.849Z</time></trkpt><trkpt lat="43.7947213" lon="12.5649308"><ele>288.57142857142856</ele><time>2026-04-19T07:57:00.85Z</time></trkpt><trkpt lat="43.7946606" lon="12.5649591"><ele>287.2857142857143</ele><time>2026-04-19T07:57:01.847Z</time></trkpt><trkpt lat="43.794594" lon="12.5649957"><ele>286.0</ele><time>2026-04-19T07:57:02.846Z</time></trkpt><trkpt lat="43.7945144" lon="12.5650324"><ele>286.0</ele><time>2026-04-19T07:57:03.844Z</time></trkpt><trkpt lat="43.7944256" lon="12.5650706"><ele>286.0</ele><time>2026-04-19T07:57:04.863Z</time></trkpt><trkpt lat="43.7943329" lon="12.5650864"><ele>286.0</ele><time>2026-04-19T07:57:05.841Z</time></trkpt><trkpt lat="43.794252" lon="12.5650894"><ele>286.0</ele><time>2026-04-19T07:57:06.845Z</time></trkpt><trkpt lat="43.7941414" lon="12.5650859"><ele>286.0</ele><time>2026-04-19T07:57:08.847Z</time></trkpt><trkpt lat="43.7940786" lon="12.5651115"><ele>286.0</ele><time>2026-04-19T07:57:09.849Z</time></trkpt><trkpt lat="43.794015" lon="12.5651664"><ele>283.8333333333333</ele><time>2026-04-19T07:57:10.868Z</time></trkpt><trkpt lat="43.7939538" lon="12.5652377"><ele>281.66666666666663</ele><time>2026-04-19T07:57:11.848Z</time></trkpt><trkpt lat="43.7938958" lon="12.5653219"><ele>279.5</ele><time>2026-04-19T07:57:12.847Z</time></trkpt><trkpt lat="43.793842" lon="12.5654069"><ele>277.3333333333333</ele><time>2026-04-19T07:57:13.849Z</time></trkpt><trkpt lat="43.7937849" lon="12.5655025"><ele>275.1666666666667</ele><time>2026-04-19T07:57:14.85Z</time></trkpt><trkpt lat="43.7937189" lon="12.5656019"><ele>273.0</ele><time>2026-04-19T07:57:15.849Z</time></trkpt><trkpt lat="43.7936486" lon="12.5656918"><ele>273.0</ele><time>2026-04-19T07:57:16.854Z</time></trkpt><trkpt lat="43.7935854" lon="12.5657695"><ele>273.0</ele><time>2026-04-19T07:57:17.85Z</time></trkpt><trkpt lat="43.7935323" lon="12.5658358"><ele>273.0</ele><time>2026-04-19T07:57:18.859Z</time></trkpt><trkpt lat="43.7934516" lon="12.5659451"><ele>273.0</ele><time>2026-04-19T07:57:20.855Z</time></trkpt><trkpt lat="43.7933934" lon="12.5660427"><ele>273.0</ele><time>2026-04-19T07:57:22.843Z</time></trkpt><trkpt lat="43.7933086" lon="12.5661625"><ele>270.5</ele><time>2026-04-19T07:57:24.845Z</time></trkpt><trkpt lat="43.7932621" lon="12.5662227"><ele>268.0</ele><time>2026-04-19T07:57:25.848Z</time></trkpt><trkpt lat="43.7931817" lon="12.5663048"><ele>265.5</ele><time>2026-04-19T07:57:27.845Z</time></trkpt><trkpt lat="43.7930649" lon="12.5663743"><ele>263.0</ele><time>2026-04-19T07:57:29.848Z</time></trkpt><trkpt lat="43.7929948" lon="12.5664124"><ele>260.5</ele><time>2026-04-19T07:57:30.848Z</time></trkpt><trkpt lat="43.7929275" lon="12.5664451"><ele>258.0</ele><time>2026-04-19T07:57:31.844Z</time></trkpt><trkpt lat="43.7928634" lon="12.5664788"><ele>258.0</ele><time>2026-04-19T07:57:32.845Z</time></trkpt><trkpt lat="43.7928033" lon="12.5665129"><ele>258.0</ele><time>2026-04-19T07:57:33.846Z</time></trkpt><trkpt lat="43.7926926" lon="12.5665818"><ele>258.0</ele><time>2026-04-19T07:57:35.854Z</time></trkpt><trkpt lat="43.7925815" lon="12.566668"><ele>258.0</ele><time>2026-04-19T07:57:37.867Z</time></trkpt><trkpt lat="43.7925124" lon="12.5667129"><ele>258.0</ele><time>2026-04-19T07:57:38.848Z</time></trkpt><trkpt lat="43.7924333" lon="12.5667506"><ele>257.4</ele><time>2026-04-19T07:57:39.857Z</time></trkpt><trkpt lat="43.7923528" lon="12.5667845"><ele>256.8</ele><time>2026-04-19T07:57:40.84Z</time></trkpt><trkpt lat="43.7922824" lon="12.5668164"><ele>256.2</ele><time>2026-04-19T07:57:41.858Z</time></trkpt><trkpt lat="43.7922238" lon="12.5668495"><ele>255.6</ele><time>2026-04-19T07:57:42.846Z</time></trkpt><trkpt lat="43.7921172" lon="12.5669299"><ele>255.0</ele><time>2026-04-19T07:57:44.846Z</time></trkpt><trkpt lat="43.7920173" lon="12.5670119"><ele>253.0</ele><time>2026-04-19T07:57:46.854Z</time></trkpt><trkpt lat="43.7919232" lon="12.5670715"><ele>251.0</ele><time>2026-04-19T07:57:48.851Z</time></trkpt><trkpt lat="43.7918629" lon="12.5671121"><ele>249.0</ele><time>2026-04-19T07:57:50.848Z</time></trkpt><trkpt lat="43.791797" lon="12.5671173"><ele>247.0</ele><time>2026-04-19T07:57:53.848Z</time></trkpt><trkpt lat="43.7917322" lon="12.5670749"><ele>245.0</ele><time>2026-04-19T07:57:56.91Z</time></trkpt><trkpt lat="43.791667" lon="12.5670275"><ele>243.0</ele><time>2026-04-19T07:57:58.844Z</time></trkpt><trkpt lat="43.7915855" lon="12.5669608"><ele>243.0</ele><time>2026-04-19T07:58:01.843Z</time></trkpt><trkpt lat="43.791514" lon="12.5669194"><ele>243.0</ele><time>2026-04-19T07:58:03.893Z</time></trkpt><trkpt lat="43.791451" lon="12.5668672"><ele>243.0</ele><time>2026-04-19T07:58:05.87Z</time></trkpt><trkpt lat="43.7913917" lon="12.5668185"><ele>243.0</ele><time>2026-04-19T07:58:07.91Z</time></trkpt><trkpt lat="43.7913256" lon="12.5667396"><ele>243.0</ele><time>2026-04-19T07:58:09.856Z</time></trkpt><trkpt lat="43.791246" lon="12.5666507"><ele>243.0</ele><time>2026-04-19T07:58:11.844Z</time></trkpt><trkpt lat="43.7911648" lon="12.5665537"><ele>243.0</ele><time>2026-04-19T07:58:13.844Z</time></trkpt><trkpt lat="43.7910705" lon="12.5664412"><ele>243.0</ele><time>2026-04-19T07:58:15.843Z</time></trkpt><trkpt lat="43.790971" lon="12.5663353"><ele>243.0</ele><time>2026-04-19T07:58:17.843Z</time></trkpt><trkpt lat="43.7909207" lon="12.566278"><ele>243.0</ele><time>2026-04-19T07:58:18.842Z</time></trkpt><trkpt lat="43.7908375" lon="12.5661636"><ele>243.0</ele><time>2026-04-19T07:58:20.841Z</time></trkpt><trkpt lat="43.790795" lon="12.5660986"><ele>239.66666666666666</ele><time>2026-04-19T07:58:21.841Z</time></trkpt><trkpt lat="43.7907508" lon="12.5660316"><ele>236.33333333333331</ele><time>2026-04-19T07:58:22.842Z</time></trkpt><trkpt lat="43.7906831" lon="12.5659226"><ele>233.0</ele><time>2026-04-19T07:58:24.841Z</time></trkpt><trkpt lat="43.7906229" lon="12.565811"><ele>229.66666666666666</ele><time>2026-04-19T07:58:26.841Z</time></trkpt><trkpt lat="43.7905859" lon="12.5657404"><ele>226.33333333333331</ele><time>2026-04-19T07:58:27.854Z</time></trkpt><trkpt lat="43.7905494" lon="12.5656685"><ele>223.0</ele><time>2026-04-19T07:58:28.843Z</time></trkpt><trkpt lat="43.7904963" lon="12.5655446"><ele>222.99999999999997</ele><time>2026-04-19T07:58:30.839Z</time></trkpt><trkpt lat="43.7904658" lon="12.5654482"><ele>223.0</ele><time>2026-04-19T07:58:32.847Z</time></trkpt><trkpt lat="43.7904325" lon="12.5653334"><ele>223.0</ele><time>2026-04-19T07:58:35.844Z</time></trkpt><trkpt lat="43.7903832" lon="12.5652378"><ele>223.0</ele><time>2026-04-19T07:58:39.882Z</time></trkpt><trkpt lat="43.7903478" lon="12.5651589"><ele>222.99999999999997</ele><time>2026-04-19T07:58:40.883Z</time></trkpt><trkpt lat="43.7903144" lon="12.5650621"><ele>223.0</ele><time>2026-04-19T07:58:42.828Z</time></trkpt><trkpt lat="43.7902771" lon="12.5649524"><ele>222.83333333333331</ele><time>2026-04-19T07:58:44.845Z</time></trkpt><trkpt lat="43.7902464" lon="12.5648702"><ele>222.66666666666666</ele><time>2026-04-19T07:58:45.845Z</time></trkpt><trkpt lat="43.7901893" lon="12.5647683"><ele>222.5</ele><time>2026-04-19T07:58:46.857Z</time></trkpt><trkpt lat="43.7901256" lon="12.5646826"><ele>222.33333333333331</ele><time>2026-04-19T07:58:47.838Z</time></trkpt><trkpt lat="43.7900643" lon="12.5646093"><ele>222.16666666666666</ele><time>2026-04-19T07:58:48.845Z</time></trkpt><trkpt lat="43.7900073" lon="12.5645497"><ele>222.0</ele><time>2026-04-19T07:58:49.843Z</time></trkpt><trkpt lat="43.789954" lon="12.5644942"><ele>218.33333333333334</ele><time>2026-04-19T07:58:50.844Z</time></trkpt><trkpt lat="43.7898787" lon="12.5643715"><ele>214.66666666666669</ele><time>2026-04-19T07:58:52.844Z</time></trkpt><trkpt lat="43.7898455" lon="12.564281"><ele>211.0</ele><time>2026-04-19T07:58:53.843Z</time></trkpt><trkpt lat="43.7898133" lon="12.5641687"><ele>207.33333333333334</ele><time>2026-04-19T07:58:54.84Z</time></trkpt><trkpt lat="43.7897904" lon="12.5640554"><ele>203.66666666666669</ele><time>2026-04-19T07:58:55.861Z</time></trkpt><trkpt lat="43.7897735" lon="12.5639496"><ele>200.0</ele><time>2026-04-19T07:58:56.843Z</time></trkpt><trkpt lat="43.7897575" lon="12.5638401"><ele>200.0</ele><time>2026-04-19T07:58:57.843Z</time></trkpt><trkpt lat="43.789743" lon="12.5637386"><ele>200.0</ele><time>2026-04-19T07:58:58.844Z</time></trkpt><trkpt lat="43.7896926" lon="12.5635927"><ele>200.0</ele><time>2026-04-19T07:59:00.865Z</time></trkpt><trkpt lat="43.7895819" lon="12.5635032"><ele>200.0</ele><time>2026-04-19T07:59:02.841Z</time></trkpt><trkpt lat="43.7895156" lon="12.5634841"><ele>200.0</ele><time>2026-04-19T07:59:03.843Z</time></trkpt><trkpt lat="43.7894049" lon="12.5635163"><ele>195.8</ele><time>2026-04-19T07:59:05.868Z</time></trkpt><trkpt lat="43.7893004" lon="12.5636192"><ele>191.6</ele><time>2026-04-19T07:59:07.843Z</time></trkpt><trkpt lat="43.789209" lon="12.5636894"><ele>187.39999999999998</ele><time>2026-04-19T07:59:09.844Z</time></trkpt><trkpt lat="43.7891308" lon="12.5636955"><ele>183.2</ele><time>2026-04-19T07:59:11.849Z</time></trkpt><trkpt lat="43.7890807" lon="12.5636241"><ele>179.0</ele><time>2026-04-19T07:59:13.844Z</time></trkpt><trkpt lat="43.7890458" lon="12.5635197"><ele>179.0</ele><time>2026-04-19T07:59:15.841Z</time></trkpt><trkpt lat="43.7890764" lon="12.5634177"><ele>179.0</ele><time>2026-04-19T07:59:19.896Z</time></trkpt><trkpt lat="43.7891429" lon="12.5633447"><ele>179.0</ele><time>2026-04-19T07:59:21.842Z</time></trkpt><trkpt lat="43.7891774" lon="12.5632488"><ele>179.0</ele><time>2026-04-19T07:59:23.855Z</time></trkpt><trkpt lat="43.7891337" lon="12.5631485"><ele>179.0</ele><time>2026-04-19T07:59:25.877Z</time></trkpt><trkpt lat="43.7890723" lon="12.5630949"><ele>179.0</ele><time>2026-04-19T07:59:27.859Z</time></trkpt><trkpt lat="43.7889981" lon="12.5630373"><ele>179.0</ele><time>2026-04-19T07:59:29.84Z</time></trkpt><trkpt lat="43.788935" lon="12.5629734"><ele>179.0</ele><time>2026-04-19T07:59:30.845Z</time></trkpt><trkpt lat="43.7888656" lon="12.5628996"><ele>179.0</ele><time>2026-04-19T07:59:31.857Z</time></trkpt><trkpt lat="43.788799" lon="12.5628275"><ele>179.0</ele><time>2026-04-19T07:59:32.843Z</time></trkpt><trkpt lat="43.7887226" lon="12.5627513"><ele>179.0</ele><time>2026-04-19T07:59:33.845Z</time></trkpt><trkpt lat="43.7886372" lon="12.5626777"><ele>179.0</ele><time>2026-04-19T07:59:34.843Z</time></trkpt><trkpt lat="43.7885596" lon="12.5626055"><ele>175.5</ele><time>2026-04-19T07:59:35.851Z</time></trkpt><trkpt lat="43.7884958" lon="12.5625224"><ele>172.0</ele><time>2026-04-19T07:59:36.841Z</time></trkpt><trkpt lat="43.7884469" lon="12.5624157"><ele>168.5</ele><time>2026-04-19T07:59:37.841Z</time></trkpt><trkpt lat="43.7884008" lon="12.5622916"><ele>165.0</ele><time>2026-04-19T07:59:38.843Z</time></trkpt><trkpt lat="43.7883527" lon="12.5621793"><ele>161.5</ele><time>2026-04-19T07:59:39.846Z</time></trkpt><trkpt lat="43.7883184" lon="12.562101"><ele>158.0</ele><time>2026-04-19T07:59:40.859Z</time></trkpt><trkpt lat="43.7883203" lon="12.562007"><ele>158.0</ele><time>2026-04-19T07:59:44.845Z</time></trkpt><trkpt lat="43.7883315" lon="12.5619031"><ele>158.0</ele><time>2026-04-19T08:00:06.874Z</time></trkpt><trkpt lat="43.7882521" lon="12.5619734"><ele>158.0</ele><time>2026-04-19T08:00:07.849Z</time></trkpt><trkpt lat="43.788173" lon="12.5619941"><ele>158.0</ele><time>2026-04-19T08:00:08.847Z</time></trkpt><trkpt lat="43.7880944" lon="12.5619385"><ele>158.0</ele><time>2026-04-19T08:00:09.843Z</time></trkpt><trkpt lat="43.7880131" lon="12.5618725"><ele>158.0</ele><time>2026-04-19T08:00:10.848Z</time></trkpt><trkpt lat="43.7879393" lon="12.5618215"><ele>158.0</ele><time>2026-04-19T08:00:11.848Z</time></trkpt><trkpt lat="43.7878602" lon="12.5617878"><ele>158.0</ele><time>2026-04-19T08:00:12.84Z</time></trkpt><trkpt lat="43.7877748" lon="12.5617545"><ele>158.0</ele><time>2026-04-19T08:00:13.839Z</time></trkpt><trkpt lat="43.7876975" lon="12.5617185"><ele>158.0</ele><time>2026-04-19T08:00:14.84Z</time></trkpt><trkpt lat="43.7876334" lon="12.5616742"><ele>158.0</ele><time>2026-04-19T08:00:15.844Z</time></trkpt><trkpt lat="43.7875791" lon="12.5616248"><ele>158.0</ele><time>2026-04-19T08:00:16.852Z</time></trkpt><trkpt lat="43.7875052" lon="12.5615271"><ele>156.20000000000002</ele><time>2026-04-19T08:00:18.86Z</time></trkpt><trkpt lat="43.7874389" lon="12.561411"><ele>154.4</ele><time>2026-04-19T08:00:20.848Z</time></trkpt><trkpt lat="43.7873695" lon="12.561327"><ele>152.60000000000002</ele><time>2026-04-19T08:00:22.845Z</time></trkpt><trkpt lat="43.7872425" lon="12.5613696"><ele>150.8</ele><time>2026-04-19T08:00:24.848Z</time></trkpt><trkpt lat="43.787163" lon="12.5614515"><ele>149.0</ele><time>2026-04-19T08:00:25.857Z</time></trkpt><trkpt lat="43.7870831" lon="12.5615574"><ele>149.0</ele><time>2026-04-19T08:00:26.847Z</time></trkpt><trkpt lat="43.7869907" lon="12.5616777"><ele>149.0</ele><time>2026-04-19T08:00:27.845Z</time></trkpt><trkpt lat="43.7868934" lon="12.5617811"><ele>149.0</ele><time>2026-04-19T08:00:28.841Z</time></trkpt><trkpt lat="43.7867974" lon="12.5618443"><ele>149.0</ele><time>2026-04-19T08:00:29.845Z</time></trkpt><trkpt lat="43.7867126" lon="12.5618654"><ele>149.0</ele><time>2026-04-19T08:00:30.846Z</time></trkpt><trkpt lat="43.7866422" lon="12.5618438"><ele>149.6</ele><time>2026-04-19T08:00:31.843Z</time></trkpt><trkpt lat="43.7865687" lon="12.5617829"><ele>150.2</ele><time>2026-04-19T08:00:32.871Z</time></trkpt><trkpt lat="43.7864774" lon="12.5617023"><ele>150.79999999999998</ele><time>2026-04-19T08:00:33.841Z</time></trkpt><trkpt lat="43.786382" lon="12.5615985"><ele>151.4</ele><time>2026-04-19T08:00:34.848Z</time></trkpt><trkpt lat="43.7863165" lon="12.5614815"><ele>152.0</ele><time>2026-04-19T08:00:35.845Z</time></trkpt><trkpt lat="43.7862666" lon="12.5613615"><ele>152.0</ele><time>2026-04-19T08:00:36.848Z</time></trkpt><trkpt lat="43.7862523" lon="12.5612269"><ele>152.0</ele><time>2026-04-19T08:00:37.846Z</time></trkpt><trkpt lat="43.7862411" lon="12.5610654"><ele>152.0</ele><time>2026-04-19T08:00:38.846Z</time></trkpt><trkpt lat="43.78623" lon="12.5609053"><ele>152.0</ele><time>2026-04-19T08:00:39.857Z</time></trkpt><trkpt lat="43.7862186" lon="12.5607703"><ele>152.0</ele><time>2026-04-19T08:00:40.851Z</time></trkpt><trkpt lat="43.7862008" lon="12.5606737"><ele>152.4</ele><time>2026-04-19T08:00:41.846Z</time></trkpt><trkpt lat="43.7861862" lon="12.5605334"><ele>152.79999999999998</ele><time>2026-04-19T08:00:43.844Z</time></trkpt><trkpt lat="43.7861854" lon="12.5603536"><ele>153.2</ele><time>2026-04-19T08:00:45.845Z</time></trkpt><trkpt lat="43.7861854" lon="12.5602341"><ele>153.6</ele><time>2026-04-19T08:00:46.852Z</time></trkpt><trkpt lat="43.7861871" lon="12.5601254"><ele>154.0</ele><time>2026-04-19T08:00:47.867Z</time></trkpt><trkpt lat="43.7861758" lon="12.5599671"><ele>154.0</ele><time>2026-04-19T08:00:49.845Z</time></trkpt><trkpt lat="43.7861403" lon="12.5598928"><ele>154.0</ele><time>2026-04-19T08:00:50.845Z</time></trkpt><trkpt lat="43.7860796" lon="12.5598239"><ele>154.0</ele><time>2026-04-19T08:00:51.844Z</time></trkpt><trkpt lat="43.786022" lon="12.5597538"><ele>154.0</ele><time>2026-04-19T08:00:52.845Z</time></trkpt><trkpt lat="43.7859685" lon="12.5596708"><ele>154.0</ele><time>2026-04-19T08:00:53.837Z</time></trkpt><trkpt lat="43.7859112" lon="12.5595639"><ele>154.0</ele><time>2026-04-19T08:00:54.847Z</time></trkpt><trkpt lat="43.7858493" lon="12.5594312"><ele>156.2</ele><time>2026-04-19T08:00:55.843Z</time></trkpt><trkpt lat="43.7857825" lon="12.5593009"><ele>158.4</ele><time>2026-04-19T08:00:56.863Z</time></trkpt><trkpt lat="43.7857224" lon="12.5591862"><ele>160.6</ele><time>2026-04-19T08:00:57.845Z</time></trkpt><trkpt lat="43.7856765" lon="12.5590873"><ele>162.8</ele><time>2026-04-19T08:00:58.849Z</time></trkpt><trkpt lat="43.7856317" lon="12.558985"><ele>165.0</ele><time>2026-04-19T08:00:59.851Z</time></trkpt><trkpt lat="43.7855768" lon="12.5588845"><ele>165.0</ele><time>2026-04-19T08:01:00.85Z</time></trkpt><trkpt lat="43.7855133" lon="12.5587765"><ele>165.0</ele><time>2026-04-19T08:01:01.845Z</time></trkpt><trkpt lat="43.7854516" lon="12.5586598"><ele>165.0</ele><time>2026-04-19T08:01:02.862Z</time></trkpt><trkpt lat="43.7854063" lon="12.558541"><ele>165.0</ele><time>2026-04-19T08:01:03.841Z</time></trkpt><trkpt lat="43.7853586" lon="12.5584028"><ele>165.0</ele><time>2026-04-19T08:01:04.848Z</time></trkpt><trkpt lat="43.7853057" lon="12.5582406"><ele>164.5</ele><time>2026-04-19T08:01:05.844Z</time></trkpt><trkpt lat="43.7852446" lon="12.5580628"><ele>164.0</ele><time>2026-04-19T08:01:06.845Z</time></trkpt><trkpt lat="43.7851802" lon="12.5578941"><ele>163.5</ele><time>2026-04-19T08:01:07.845Z</time></trkpt><trkpt lat="43.7851178" lon="12.5577295"><ele>163.0</ele><time>2026-04-19T08:01:08.845Z</time></trkpt><trkpt lat="43.7850627" lon="12.557576"><ele>164.25</ele><time>2026-04-19T08:01:09.842Z</time></trkpt><trkpt lat="43.7850097" lon="12.557418"><ele>165.5</ele><time>2026-04-19T08:01:10.865Z</time></trkpt><trkpt lat="43.7849545" lon="12.5572598"><ele>166.75</ele><time>2026-04-19T08:01:11.842Z</time></trkpt><trkpt lat="43.7848983" lon="12.5571081"><ele>168.0</ele><time>2026-04-19T08:01:12.849Z</time></trkpt><trkpt lat="43.7848397" lon="12.5569643"><ele>168.0</ele><time>2026-04-19T08:01:13.848Z</time></trkpt><trkpt lat="43.7847717" lon="12.556812"><ele>168.0</ele><time>2026-04-19T08:01:14.85Z</time></trkpt><trkpt lat="43.7846977" lon="12.5566452"><ele>168.0</ele><time>2026-04-19T08:01:15.856Z</time></trkpt><trkpt lat="43.7846216" lon="12.5564716"><ele>168.0</ele><time>2026-04-19T08:01:16.843Z</time></trkpt><trkpt lat="43.78455" lon="12.5563192"><ele>167.25</ele><time>2026-04-19T08:01:17.849Z</time></trkpt><trkpt lat="43.7844791" lon="12.5561818"><ele>166.5</ele><time>2026-04-19T08:01:18.842Z</time></trkpt><trkpt lat="43.784402" lon="12.5560347"><ele>165.75</ele><time>2026-04-19T08:01:19.84Z</time></trkpt><trkpt lat="43.7843178" lon="12.5558717"><ele>165.0</ele><time>2026-04-19T08:01:20.851Z</time></trkpt><trkpt lat="43.7842508" lon="12.5557377"><ele>167.4</ele><time>2026-04-19T08:01:21.844Z</time></trkpt><trkpt lat="43.7841816" lon="12.5556208"><ele>169.8</ele><time>2026-04-19T08:01:22.867Z</time></trkpt><trkpt lat="43.7841097" lon="12.5555082"><ele>172.2</ele><time>2026-04-19T08:01:23.843Z</time></trkpt><trkpt lat="43.7840551" lon="12.5553947"><ele>174.6</ele><time>2026-04-19T08:01:24.847Z</time></trkpt><trkpt lat="43.7840296" lon="12.5552793"><ele>177.0</ele><time>2026-04-19T08:01:25.851Z</time></trkpt><trkpt lat="43.7840232" lon="12.5551404"><ele>177.0</ele><time>2026-04-19T08:01:26.845Z</time></trkpt><trkpt lat="43.7840206" lon="12.5549741"><ele>177.0</ele><time>2026-04-19T08:01:27.847Z</time></trkpt><trkpt lat="43.7840284" lon="12.5547699"><ele>177.0</ele><time>2026-04-19T08:01:28.853Z</time></trkpt><trkpt lat="43.7840396" lon="12.5545616"><ele>177.0</ele><time>2026-04-19T08:01:29.844Z</time></trkpt><trkpt lat="43.7840532" lon="12.5543711"><ele>177.39999999999998</ele><time>2026-04-19T08:01:30.844Z</time></trkpt><trkpt lat="43.7840652" lon="12.5542054"><ele>177.79999999999998</ele><time>2026-04-19T08:01:31.851Z</time></trkpt><trkpt lat="43.7840743" lon="12.5540518"><ele>178.2</ele><time>2026-04-19T08:01:32.847Z</time></trkpt><trkpt lat="43.7840762" lon="12.5539048"><ele>178.6</ele><time>2026-04-19T08:01:33.865Z</time></trkpt><trkpt lat="43.7840651" lon="12.5537825"><ele>179.0</ele><time>2026-04-19T08:01:34.844Z</time></trkpt><trkpt lat="43.7840482" lon="12.553676"><ele>179.39999999999998</ele><time>2026-04-19T08:01:35.853Z</time></trkpt><trkpt lat="43.7840058" lon="12.5535871"><ele>179.8</ele><time>2026-04-19T08:01:36.85Z</time></trkpt><trkpt lat="43.7839401" lon="12.5535036"><ele>180.2</ele><time>2026-04-19T08:01:37.847Z</time></trkpt><trkpt lat="43.7838486" lon="12.5534494"><ele>180.60000000000002</ele><time>2026-04-19T08:01:38.85Z</time></trkpt><trkpt lat="43.7837404" lon="12.5534292"><ele>181.0</ele><time>2026-04-19T08:01:39.844Z</time></trkpt><trkpt lat="43.7836171" lon="12.5534359"><ele>184.4</ele><time>2026-04-19T08:01:40.846Z</time></trkpt><trkpt lat="43.783495" lon="12.5534568"><ele>187.8</ele><time>2026-04-19T08:01:41.845Z</time></trkpt><trkpt lat="43.7833939" lon="12.553506"><ele>191.20000000000002</ele><time>2026-04-19T08:01:42.862Z</time></trkpt><trkpt lat="43.7833061" lon="12.553565"><ele>194.60000000000002</ele><time>2026-04-19T08:01:43.845Z</time></trkpt><trkpt lat="43.7832076" lon="12.5536256"><ele>198.0</ele><time>2026-04-19T08:01:44.85Z</time></trkpt><trkpt lat="43.7831025" lon="12.5536651"><ele>198.0</ele><time>2026-04-19T08:01:45.844Z</time></trkpt><trkpt lat="43.7830026" lon="12.5536957"><ele>198.0</ele><time>2026-04-19T08:01:46.848Z</time></trkpt><trkpt lat="43.782911" lon="12.5537325"><ele>198.0</ele><time>2026-04-19T08:01:47.844Z</time></trkpt><trkpt lat="43.7828283" lon="12.5537762"><ele>198.0</ele><time>2026-04-19T08:01:48.849Z</time></trkpt><trkpt lat="43.7827669" lon="12.553859"><ele>198.0</ele><time>2026-04-19T08:01:49.848Z</time></trkpt><trkpt lat="43.7827168" lon="12.553977"><ele>196.0</ele><time>2026-04-19T08:01:50.845Z</time></trkpt><trkpt lat="43.7826801" lon="12.5541343"><ele>194.0</ele><time>2026-04-19T08:01:51.848Z</time></trkpt><trkpt lat="43.7826461" lon="12.5543211"><ele>192.0</ele><time>2026-04-19T08:01:52.841Z</time></trkpt><trkpt lat="43.7826099" lon="12.5545035"><ele>190.0</ele><time>2026-04-19T08:01:53.851Z</time></trkpt><trkpt lat="43.7825757" lon="12.5546667"><ele>189.16666666666669</ele><time>2026-04-19T08:01:54.848Z</time></trkpt><trkpt lat="43.7825459" lon="12.5547916"><ele>188.33333333333334</ele><time>2026-04-19T08:01:55.879Z</time></trkpt><trkpt lat="43.7825148" lon="12.5548867"><ele>187.5</ele><time>2026-04-19T08:01:56.842Z</time></trkpt><trkpt lat="43.7824812" lon="12.5549657"><ele>186.66666666666666</ele><time>2026-04-19T08:01:57.849Z</time></trkpt><trkpt lat="43.782379" lon="12.5550051"><ele>185.83333333333331</ele><time>2026-04-19T08:01:59.841Z</time></trkpt><trkpt lat="43.7822993" lon="12.5549781"><ele>185.0</ele><time>2026-04-19T08:02:00.863Z</time></trkpt><trkpt lat="43.7822026" lon="12.5549133"><ele>185.0</ele><time>2026-04-19T08:02:01.849Z</time></trkpt><trkpt lat="43.7821013" lon="12.5548547"><ele>185.0</ele><time>2026-04-19T08:02:02.848Z</time></trkpt><trkpt lat="43.7819946" lon="12.5548074"><ele>185.0</ele><time>2026-04-19T08:02:03.849Z</time></trkpt><trkpt lat="43.7818824" lon="12.5547571"><ele>185.0</ele><time>2026-04-19T08:02:04.845Z</time></trkpt><trkpt lat="43.7817542" lon="12.5546833"><ele>186.0</ele><time>2026-04-19T08:02:05.848Z</time></trkpt><trkpt lat="43.781608" lon="12.5545963"><ele>187.0</ele><time>2026-04-19T08:02:06.845Z</time></trkpt><trkpt lat="43.7814444" lon="12.5544912"><ele>188.0</ele><time>2026-04-19T08:02:07.872Z</time></trkpt><trkpt lat="43.7813047" lon="12.5543991"><ele>188.0</ele><time>2026-04-19T08:02:08.844Z</time></trkpt><trkpt lat="43.7811821" lon="12.5543167"><ele>188.0</ele><time>2026-04-19T08:02:09.851Z</time></trkpt><trkpt lat="43.7810655" lon="12.5542479"><ele>188.0</ele><time>2026-04-19T08:02:10.853Z</time></trkpt><trkpt lat="43.7809424" lon="12.5541877"><ele>188.0</ele><time>2026-04-19T08:02:11.842Z</time></trkpt><trkpt lat="43.7808186" lon="12.5541333"><ele>187.25</ele><time>2026-04-19T08:02:12.862Z</time></trkpt><trkpt lat="43.7807004" lon="12.5540832"><ele>186.5</ele><time>2026-04-19T08:02:13.848Z</time></trkpt><trkpt lat="43.7805858" lon="12.554033"><ele>185.75</ele><time>2026-04-19T08:02:14.841Z</time></trkpt><trkpt lat="43.7804703" lon="12.5539846"><ele>185.0</ele><time>2026-04-19T08:02:15.844Z</time></trkpt><trkpt lat="43.7803557" lon="12.5539381"><ele>185.0</ele><time>2026-04-19T08:02:16.85Z</time></trkpt><trkpt lat="43.7802539" lon="12.5538922"><ele>185.0</ele><time>2026-04-19T08:02:17.844Z</time></trkpt><trkpt lat="43.7801739" lon="12.5538378"><ele>185.0</ele><time>2026-04-19T08:02:18.869Z</time></trkpt><trkpt lat="43.7801231" lon="12.5537657"><ele>185.0</ele><time>2026-04-19T08:02:19.853Z</time></trkpt><trkpt lat="43.780092" lon="12.5536724"><ele>185.0</ele><time>2026-04-19T08:02:20.841Z</time></trkpt><trkpt lat="43.7800841" lon="12.553563"><ele>185.0</ele><time>2026-04-19T08:02:21.839Z</time></trkpt><trkpt lat="43.7800897" lon="12.5534423"><ele>185.8</ele><time>2026-04-19T08:02:22.84Z</time></trkpt><trkpt lat="43.7801027" lon="12.5533175"><ele>186.6</ele><time>2026-04-19T08:02:23.85Z</time></trkpt><trkpt lat="43.7801104" lon="12.5531928"><ele>187.39999999999998</ele><time>2026-04-19T08:02:24.842Z</time></trkpt><trkpt lat="43.7801028" lon="12.553057"><ele>188.2</ele><time>2026-04-19T08:02:25.844Z</time></trkpt><trkpt lat="43.7800846" lon="12.5529249"><ele>189.0</ele><time>2026-04-19T08:02:26.84Z</time></trkpt><trkpt lat="43.7800565" lon="12.5528194"><ele>189.0</ele><time>2026-04-19T08:02:27.839Z</time></trkpt><trkpt lat="43.7799549" lon="12.5527466"><ele>189.0</ele><time>2026-04-19T08:02:29.836Z</time></trkpt><trkpt lat="43.779897" lon="12.5527858"><ele>189.0</ele><time>2026-04-19T08:02:30.865Z</time></trkpt><trkpt lat="43.7798369" lon="12.5528476"><ele>189.0</ele><time>2026-04-19T08:02:31.845Z</time></trkpt><trkpt lat="43.7797672" lon="12.5529856"><ele>189.0</ele><time>2026-04-19T08:02:32.849Z</time></trkpt><trkpt lat="43.7796927" lon="12.5531403"><ele>189.0</ele><time>2026-04-19T08:02:33.845Z</time></trkpt><trkpt lat="43.7796302" lon="12.5532885"><ele>189.0</ele><time>2026-04-19T08:02:34.845Z</time></trkpt><trkpt lat="43.7795828" lon="12.5534442"><ele>189.0</ele><time>2026-04-19T08:02:35.843Z</time></trkpt><trkpt lat="43.7795351" lon="12.5536282"><ele>189.0</ele><time>2026-04-19T08:02:36.846Z</time></trkpt><trkpt lat="43.7794911" lon="12.5538229"><ele>187.25</ele><time>2026-04-19T08:02:37.863Z</time></trkpt><trkpt lat="43.7794364" lon="12.553993"><ele>185.5</ele><time>2026-04-19T08:02:38.843Z</time></trkpt><trkpt lat="43.7793651" lon="12.5541572"><ele>183.75</ele><time>2026-04-19T08:02:39.846Z</time></trkpt><trkpt lat="43.7792878" lon="12.5543054"><ele>182.0</ele><time>2026-04-19T08:02:40.849Z</time></trkpt><trkpt lat="43.779209" lon="12.554423"><ele>182.0</ele><time>2026-04-19T08:02:41.852Z</time></trkpt><trkpt lat="43.7791323" lon="12.5545152"><ele>182.0</ele><time>2026-04-19T08:02:42.85Z</time></trkpt><trkpt lat="43.7790472" lon="12.5545873"><ele>182.0</ele><time>2026-04-19T08:02:43.856Z</time></trkpt><trkpt lat="43.7789406" lon="12.5546262"><ele>182.0</ele><time>2026-04-19T08:02:44.851Z</time></trkpt><trkpt lat="43.7788084" lon="12.5546543"><ele>182.0</ele><time>2026-04-19T08:02:45.848Z</time></trkpt><trkpt lat="43.7786623" lon="12.554671"><ele>180.75</ele><time>2026-04-19T08:02:46.875Z</time></trkpt><trkpt lat="43.7785129" lon="12.5546812"><ele>179.5</ele><time>2026-04-19T08:02:47.85Z</time></trkpt><trkpt lat="43.7783739" lon="12.5546949"><ele>178.25</ele><time>2026-04-19T08:02:48.847Z</time></trkpt><trkpt lat="43.7782473" lon="12.5547093"><ele>177.0</ele><time>2026-04-19T08:02:49.853Z</time></trkpt><trkpt lat="43.7781358" lon="12.5547049"><ele>177.0</ele><time>2026-04-19T08:02:50.851Z</time></trkpt><trkpt lat="43.7780338" lon="12.5546603"><ele>177.0</ele><time>2026-04-19T08:02:51.871Z</time></trkpt><trkpt lat="43.7779471" lon="12.5545811"><ele>177.0</ele><time>2026-04-19T08:02:52.856Z</time></trkpt><trkpt lat="43.7778726" lon="12.5544636"><ele>177.0</ele><time>2026-04-19T08:02:53.849Z</time></trkpt><trkpt lat="43.7778017" lon="12.5543013"><ele>177.33333333333334</ele><time>2026-04-19T08:02:54.845Z</time></trkpt><trkpt lat="43.7777358" lon="12.554096"><ele>177.66666666666669</ele><time>2026-04-19T08:02:55.841Z</time></trkpt><trkpt lat="43.7776772" lon="12.5539017"><ele>178.0</ele><time>2026-04-19T08:02:56.863Z</time></trkpt><trkpt lat="43.7776205" lon="12.5537278"><ele>179.5</ele><time>2026-04-19T08:02:57.851Z</time></trkpt><trkpt lat="43.7775472" lon="12.5535634"><ele>181.0</ele><time>2026-04-19T08:02:58.845Z</time></trkpt><trkpt lat="43.7774474" lon="12.5534198"><ele>182.5</ele><time>2026-04-19T08:02:59.844Z</time></trkpt><trkpt lat="43.7773541" lon="12.5532943"><ele>184.0</ele><time>2026-04-19T08:03:00.848Z</time></trkpt><trkpt lat="43.777285" lon="12.5531863"><ele>184.0</ele><time>2026-04-19T08:03:01.841Z</time></trkpt><trkpt lat="43.7772557" lon="12.5530891"><ele>184.0</ele><time>2026-04-19T08:03:02.845Z</time></trkpt><trkpt lat="43.7772612" lon="12.5529962"><ele>184.0</ele><time>2026-04-19T08:03:03.858Z</time></trkpt><trkpt lat="43.7772963" lon="12.5528992"><ele>184.0</ele><time>2026-04-19T08:03:04.841Z</time></trkpt><trkpt lat="43.7773599" lon="12.5527684"><ele>184.0</ele><time>2026-04-19T08:03:05.846Z</time></trkpt><trkpt lat="43.7774349" lon="12.552623"><ele>185.33333333333334</ele><time>2026-04-19T08:03:06.839Z</time></trkpt><trkpt lat="43.777487" lon="12.5524878"><ele>186.66666666666669</ele><time>2026-04-19T08:03:07.842Z</time></trkpt><trkpt lat="43.7775039" lon="12.5523743"><ele>188.0</ele><time>2026-04-19T08:03:08.84Z</time></trkpt><trkpt lat="43.7774906" lon="12.5522707"><ele>189.33333333333334</ele><time>2026-04-19T08:03:09.843Z</time></trkpt><trkpt lat="43.7774498" lon="12.5521732"><ele>190.66666666666666</ele><time>2026-04-19T08:03:10.861Z</time></trkpt><trkpt lat="43.7773812" lon="12.552077"><ele>192.0</ele><time>2026-04-19T08:03:11.844Z</time></trkpt><trkpt lat="43.7772756" lon="12.551964"><ele>196.75</ele><time>2026-04-19T08:03:12.848Z</time></trkpt><trkpt lat="43.7771823" lon="12.5518422"><ele>201.5</ele><time>2026-04-19T08:03:13.841Z</time></trkpt><trkpt lat="43.7771076" lon="12.5517084"><ele>206.25</ele><time>2026-04-19T08:03:14.846Z</time></trkpt><trkpt lat="43.7770544" lon="12.5515579"><ele>211.0</ele><time>2026-04-19T08:03:15.87Z</time></trkpt><trkpt lat="43.7770241" lon="12.5514066"><ele>211.0</ele><time>2026-04-19T08:03:16.847Z</time></trkpt><trkpt lat="43.7769988" lon="12.5512592"><ele>211.0</ele><time>2026-04-19T08:03:17.849Z</time></trkpt><trkpt lat="43.7769678" lon="12.551101"><ele>211.0</ele><time>2026-04-19T08:03:18.841Z</time></trkpt><trkpt lat="43.776926" lon="12.5509145"><ele>211.0</ele><time>2026-04-19T08:03:19.839Z</time></trkpt><trkpt lat="43.7768878" lon="12.5507292"><ele>211.20000000000002</ele><time>2026-04-19T08:03:20.858Z</time></trkpt><trkpt lat="43.7768609" lon="12.5505826"><ele>211.4</ele><time>2026-04-19T08:03:21.84Z</time></trkpt><trkpt lat="43.7768388" lon="12.5504727"><ele>211.6</ele><time>2026-04-19T08:03:22.849Z</time></trkpt><trkpt lat="43.7767848" lon="12.5503408"><ele>211.8</ele><time>2026-04-19T08:03:24.842Z</time></trkpt><trkpt lat="43.7767215" lon="12.5503326"><ele>212.0</ele><time>2026-04-19T08:03:25.864Z</time></trkpt><trkpt lat="43.776643" lon="12.5503845"><ele>209.6</ele><time>2026-04-19T08:03:26.841Z</time></trkpt><trkpt lat="43.7765606" lon="12.5504634"><ele>207.2</ele><time>2026-04-19T08:03:27.852Z</time></trkpt><trkpt lat="43.7764787" lon="12.5505271"><ele>204.8</ele><time>2026-04-19T08:03:28.84Z</time></trkpt><trkpt lat="43.7763917" lon="12.5505652"><ele>202.4</ele><time>2026-04-19T08:03:29.844Z</time></trkpt><trkpt lat="43.7762946" lon="12.5505489"><ele>200.0</ele><time>2026-04-19T08:03:30.847Z</time></trkpt><trkpt lat="43.7762041" lon="12.5504796"><ele>202.0</ele><time>2026-04-19T08:03:31.844Z</time></trkpt><trkpt lat="43.776112" lon="12.5503527"><ele>204.0</ele><time>2026-04-19T08:03:32.843Z</time></trkpt><trkpt lat="43.7760054" lon="12.5501661"><ele>206.0</ele><time>2026-04-19T08:03:33.845Z</time></trkpt><trkpt lat="43.7759038" lon="12.5499731"><ele>206.0</ele><time>2026-04-19T08:03:34.845Z</time></trkpt><trkpt lat="43.7758151" lon="12.5497925"><ele>206.0</ele><time>2026-04-19T08:03:35.84Z</time></trkpt><trkpt lat="43.7757229" lon="12.5496076"><ele>206.0</ele><time>2026-04-19T08:03:36.878Z</time></trkpt><trkpt lat="43.7756228" lon="12.5494318"><ele>210.25</ele><time>2026-04-19T08:03:37.848Z</time></trkpt><trkpt lat="43.7755283" lon="12.5492726"><ele>214.5</ele><time>2026-04-19T08:03:38.84Z</time></trkpt><trkpt lat="43.7754398" lon="12.5491273"><ele>218.75</ele><time>2026-04-19T08:03:39.856Z</time></trkpt><trkpt lat="43.7753274" lon="12.5489697"><ele>223.0</ele><time>2026-04-19T08:03:40.845Z</time></trkpt><trkpt lat="43.7751876" lon="12.5488247"><ele>223.33333333333331</ele><time>2026-04-19T08:03:41.864Z</time></trkpt><trkpt lat="43.7750503" lon="12.548697"><ele>223.66666666666669</ele><time>2026-04-19T08:03:42.844Z</time></trkpt><trkpt lat="43.774924" lon="12.5485724"><ele>224.0</ele><time>2026-04-19T08:03:43.845Z</time></trkpt><trkpt lat="43.7748066" lon="12.5484618"><ele>224.0</ele><time>2026-04-19T08:03:44.846Z</time></trkpt><trkpt lat="43.7747034" lon="12.548376"><ele>224.0</ele><time>2026-04-19T08:03:45.844Z</time></trkpt><trkpt lat="43.774587" lon="12.5483158"><ele>224.0</ele><time>2026-04-19T08:03:46.844Z</time></trkpt><trkpt lat="43.7744588" lon="12.5482564"><ele>224.0</ele><time>2026-04-19T08:03:47.846Z</time></trkpt><trkpt lat="43.774336" lon="12.5481814"><ele>219.75</ele><time>2026-04-19T08:03:48.845Z</time></trkpt><trkpt lat="43.7742028" lon="12.548105"><ele>215.5</ele><time>2026-04-19T08:03:49.845Z</time></trkpt><trkpt lat="43.7740579" lon="12.5480428"><ele>211.25</ele><time>2026-04-19T08:03:50.845Z</time></trkpt><trkpt lat="43.7739212" lon="12.5479935"><ele>207.0</ele><time>2026-04-19T08:03:51.844Z</time></trkpt><trkpt lat="43.7738039" lon="12.5479654"><ele>207.0</ele><time>2026-04-19T08:03:52.847Z</time></trkpt><trkpt lat="43.7736896" lon="12.5479446"><ele>207.0</ele><time>2026-04-19T08:03:53.842Z</time></trkpt><trkpt lat="43.7735785" lon="12.5479267"><ele>207.0</ele><time>2026-04-19T08:03:54.859Z</time></trkpt><trkpt lat="43.7734758" lon="12.5479123"><ele>207.0</ele><time>2026-04-19T08:03:55.85Z</time></trkpt><trkpt lat="43.7733842" lon="12.5479149"><ele>207.0</ele><time>2026-04-19T08:03:56.841Z</time></trkpt><trkpt lat="43.7732861" lon="12.5479152"><ele>206.0</ele><time>2026-04-19T08:03:57.849Z</time></trkpt><trkpt lat="43.773201" lon="12.5479353"><ele>205.0</ele><time>2026-04-19T08:03:58.849Z</time></trkpt><trkpt lat="43.7731025" lon="12.547927"><ele>204.0</ele><time>2026-04-19T08:03:59.86Z</time></trkpt><trkpt lat="43.7729928" lon="12.547944"><ele>203.0</ele><time>2026-04-19T08:04:00.848Z</time></trkpt><trkpt lat="43.7728814" lon="12.547972"><ele>202.0</ele><time>2026-04-19T08:04:01.85Z</time></trkpt><trkpt lat="43.7727725" lon="12.5480078"><ele>200.6</ele><time>2026-04-19T08:04:02.848Z</time></trkpt><trkpt lat="43.7726701" lon="12.5480472"><ele>199.2</ele><time>2026-04-19T08:04:03.849Z</time></trkpt><trkpt lat="43.772577" lon="12.5480567"><ele>197.8</ele><time>2026-04-19T08:04:04.87Z</time></trkpt><trkpt lat="43.7724893" lon="12.5480367"><ele>196.4</ele><time>2026-04-19T08:04:05.849Z</time></trkpt><trkpt lat="43.7724074" lon="12.548022"><ele>195.0</ele><time>2026-04-19T08:04:06.85Z</time></trkpt><trkpt lat="43.7723212" lon="12.5480278"><ele>195.0</ele><time>2026-04-19T08:04:07.849Z</time></trkpt><trkpt lat="43.772235" lon="12.548059"><ele>195.0</ele><time>2026-04-19T08:04:08.858Z</time></trkpt><trkpt lat="43.7721492" lon="12.5481197"><ele>195.0</ele><time>2026-04-19T08:04:09.853Z</time></trkpt><trkpt lat="43.7720633" lon="12.5481986"><ele>195.0</ele><time>2026-04-19T08:04:10.867Z</time></trkpt><trkpt lat="43.7719801" lon="12.5482846"><ele>195.0</ele><time>2026-04-19T08:04:11.854Z</time></trkpt><trkpt lat="43.7718912" lon="12.5483741"><ele>194.0</ele><time>2026-04-19T08:04:12.846Z</time></trkpt><trkpt lat="43.7717891" lon="12.548492"><ele>193.0</ele><time>2026-04-19T08:04:13.842Z</time></trkpt><trkpt lat="43.7716827" lon="12.5486194"><ele>192.0</ele><time>2026-04-19T08:04:14.844Z</time></trkpt><trkpt lat="43.7715719" lon="12.5487358"><ele>191.0</ele><time>2026-04-19T08:04:15.877Z</time></trkpt><trkpt lat="43.7714688" lon="12.548837"><ele>190.25</ele><time>2026-04-19T08:04:16.846Z</time></trkpt><trkpt lat="43.771361" lon="12.5489402"><ele>189.5</ele><time>2026-04-19T08:04:17.895Z</time></trkpt><trkpt lat="43.7712582" lon="12.5490395"><ele>188.75</ele><time>2026-04-19T08:04:18.871Z</time></trkpt><trkpt lat="43.7711523" lon="12.5491344"><ele>188.0</ele><time>2026-04-19T08:04:19.923Z</time></trkpt><trkpt lat="43.7710579" lon="12.5492093"><ele>187.60000000000002</ele><time>2026-04-19T08:04:20.872Z</time></trkpt><trkpt lat="43.7709743" lon="12.5492686"><ele>187.20000000000002</ele><time>2026-04-19T08:04:21.845Z</time></trkpt><trkpt lat="43.7708874" lon="12.5492971"><ele>186.8</ele><time>2026-04-19T08:04:22.845Z</time></trkpt><trkpt lat="43.7707805" lon="12.5492987"><ele>186.4</ele><time>2026-04-19T08:04:23.846Z</time></trkpt><trkpt lat="43.7706439" lon="12.5492965"><ele>186.0</ele><time>2026-04-19T08:04:24.845Z</time></trkpt><trkpt lat="43.7704848" lon="12.549307"><ele>186.0</ele><time>2026-04-19T08:04:25.848Z</time></trkpt><trkpt lat="43.7703567" lon="12.5493136"><ele>186.0</ele><time>2026-04-19T08:04:26.844Z</time></trkpt><trkpt lat="43.7702503" lon="12.54936"><ele>186.0</ele><time>2026-04-19T08:04:27.854Z</time></trkpt><trkpt lat="43.7701604" lon="12.5494519"><ele>186.0</ele><time>2026-04-19T08:04:28.847Z</time></trkpt><trkpt lat="43.7700748" lon="12.5495893"><ele>187.16666666666666</ele><time>2026-04-19T08:04:29.842Z</time></trkpt><trkpt lat="43.770011" lon="12.5496751"><ele>188.33333333333331</ele><time>2026-04-19T08:04:30.847Z</time></trkpt><trkpt lat="43.7699554" lon="12.5497206"><ele>189.5</ele><time>2026-04-19T08:04:31.848Z</time></trkpt><trkpt lat="43.7698934" lon="12.5497358"><ele>190.66666666666666</ele><time>2026-04-19T08:04:32.863Z</time></trkpt><trkpt lat="43.7698538" lon="12.5496484"><ele>191.83333333333331</ele><time>2026-04-19T08:04:33.843Z</time></trkpt><trkpt lat="43.7698323" lon="12.5495168"><ele>193.0</ele><time>2026-04-19T08:04:34.844Z</time></trkpt><trkpt lat="43.7698129" lon="12.5493622"><ele>193.0</ele><time>2026-04-19T08:04:35.848Z</time></trkpt><trkpt lat="43.7697915" lon="12.5491737"><ele>193.0</ele><time>2026-04-19T08:04:36.841Z</time></trkpt><trkpt lat="43.769745" lon="12.5489985"><ele>193.0</ele><time>2026-04-19T08:04:37.858Z</time></trkpt><trkpt lat="43.7696921" lon="12.5488537"><ele>193.0</ele><time>2026-04-19T08:04:38.845Z</time></trkpt><trkpt lat="43.7696225" lon="12.5487324"><ele>198.75</ele><time>2026-04-19T08:04:39.848Z</time></trkpt><trkpt lat="43.7695232" lon="12.5486359"><ele>204.5</ele><time>2026-04-19T08:04:40.843Z</time></trkpt><trkpt lat="43.7694006" lon="12.5485635"><ele>210.25</ele><time>2026-04-19T08:04:41.843Z</time></trkpt><trkpt lat="43.7692546" lon="12.5485203"><ele>216.0</ele><time>2026-04-19T08:04:42.849Z</time></trkpt><trkpt lat="43.7691027" lon="12.548507"><ele>216.0</ele><time>2026-04-19T08:04:43.844Z</time></trkpt><trkpt lat="43.7689676" lon="12.5484797"><ele>216.0</ele><time>2026-04-19T08:04:44.844Z</time></trkpt><trkpt lat="43.7688443" lon="12.5484511"><ele>216.0</ele><time>2026-04-19T08:04:45.842Z</time></trkpt><trkpt lat="43.7687427" lon="12.5483892"><ele>216.0</ele><time>2026-04-19T08:04:46.862Z</time></trkpt><trkpt lat="43.7686529" lon="12.5483143"><ele>216.0</ele><time>2026-04-19T08:04:47.846Z</time></trkpt><trkpt lat="43.7685672" lon="12.5482351"><ele>216.00000000000003</ele><time>2026-04-19T08:04:48.846Z</time></trkpt><trkpt lat="43.7684869" lon="12.5481595"><ele>216.00000000000003</ele><time>2026-04-19T08:04:49.847Z</time></trkpt><trkpt lat="43.7684121" lon="12.5480928"><ele>216.0</ele><time>2026-04-19T08:04:50.846Z</time></trkpt><trkpt lat="43.7683314" lon="12.5480351"><ele>216.0</ele><time>2026-04-19T08:04:51.863Z</time></trkpt><trkpt lat="43.7682511" lon="12.5479816"><ele>214.20000000000002</ele><time>2026-04-19T08:04:52.844Z</time></trkpt><trkpt lat="43.7681658" lon="12.5479292"><ele>212.40000000000003</ele><time>2026-04-19T08:04:53.852Z</time></trkpt><trkpt lat="43.7680765" lon="12.5478812"><ele>210.6</ele><time>2026-04-19T08:04:54.847Z</time></trkpt><trkpt lat="43.7679861" lon="12.5478342"><ele>208.8</ele><time>2026-04-19T08:04:55.845Z</time></trkpt><trkpt lat="43.7678972" lon="12.5477882"><ele>207.0</ele><time>2026-04-19T08:04:56.837Z</time></trkpt><trkpt lat="43.7678275" lon="12.5477346"><ele>207.83333333333334</ele><time>2026-04-19T08:04:57.844Z</time></trkpt><trkpt lat="43.7677438" lon="12.5476266"><ele>208.66666666666669</ele><time>2026-04-19T08:04:59.841Z</time></trkpt><trkpt lat="43.7676852" lon="12.5475478"><ele>209.5</ele><time>2026-04-19T08:05:01.848Z</time></trkpt><trkpt lat="43.7675942" lon="12.5475161"><ele>210.33333333333334</ele><time>2026-04-19T08:05:04.852Z</time></trkpt><trkpt lat="43.7675096" lon="12.5475246"><ele>211.16666666666669</ele><time>2026-04-19T08:05:06.858Z</time></trkpt><trkpt lat="43.7674443" lon="12.5475053"><ele>212.0</ele><time>2026-04-19T08:05:07.84Z</time></trkpt><trkpt lat="43.767366" lon="12.5474614"><ele>212.0</ele><time>2026-04-19T08:05:08.84Z</time></trkpt><trkpt lat="43.767275" lon="12.5474096"><ele>212.0</ele><time>2026-04-19T08:05:09.85Z</time></trkpt><trkpt lat="43.7671761" lon="12.5473696"><ele>212.0</ele><time>2026-04-19T08:05:10.842Z</time></trkpt><trkpt lat="43.7670682" lon="12.5473529"><ele>212.0</ele><time>2026-04-19T08:05:11.874Z</time></trkpt><trkpt lat="43.7669612" lon="12.5473646"><ele>212.0</ele><time>2026-04-19T08:05:12.845Z</time></trkpt><trkpt lat="43.7668556" lon="12.547405"><ele>209.75</ele><time>2026-04-19T08:05:13.846Z</time></trkpt><trkpt lat="43.766751" lon="12.5474496"><ele>207.5</ele><time>2026-04-19T08:05:14.851Z</time></trkpt><trkpt lat="43.7666459" lon="12.5474913"><ele>205.25</ele><time>2026-04-19T08:05:15.843Z</time></trkpt><trkpt lat="43.7665362" lon="12.5475339"><ele>203.0</ele><time>2026-04-19T08:05:16.867Z</time></trkpt><trkpt lat="43.7664239" lon="12.5475854"><ele>203.0</ele><time>2026-04-19T08:05:17.845Z</time></trkpt><trkpt lat="43.7663093" lon="12.5476477"><ele>203.0</ele><time>2026-04-19T08:05:18.842Z</time></trkpt><trkpt lat="43.7661961" lon="12.5477179"><ele>203.0</ele><time>2026-04-19T08:05:19.843Z</time></trkpt><trkpt lat="43.7660862" lon="12.5477948"><ele>203.0</ele><time>2026-04-19T08:05:20.85Z</time></trkpt><trkpt lat="43.7659797" lon="12.5478812"><ele>199.0</ele><time>2026-04-19T08:05:21.844Z</time></trkpt><trkpt lat="43.7658734" lon="12.5479737"><ele>195.0</ele><time>2026-04-19T08:05:22.845Z</time></trkpt><trkpt lat="43.7657623" lon="12.548057"><ele>191.0</ele><time>2026-04-19T08:05:23.865Z</time></trkpt><trkpt lat="43.7656445" lon="12.5481145"><ele>187.0</ele><time>2026-04-19T08:05:24.845Z</time></trkpt><trkpt lat="43.7655177" lon="12.5481492"><ele>187.0</ele><time>2026-04-19T08:05:25.846Z</time></trkpt><trkpt lat="43.7653858" lon="12.5481643"><ele>187.0</ele><time>2026-04-19T08:05:26.848Z</time></trkpt><trkpt lat="43.7652505" lon="12.5481747"><ele>187.0</ele><time>2026-04-19T08:05:27.845Z</time></trkpt><trkpt lat="43.7651135" lon="12.5481892"><ele>187.0</ele><time>2026-04-19T08:05:28.845Z</time></trkpt><trkpt lat="43.7649778" lon="12.5482069"><ele>187.5</ele><time>2026-04-19T08:05:29.847Z</time></trkpt><trkpt lat="43.7648421" lon="12.5482208"><ele>188.0</ele><time>2026-04-19T08:05:30.862Z</time></trkpt><trkpt lat="43.7647083" lon="12.5482174"><ele>188.5</ele><time>2026-04-19T08:05:31.843Z</time></trkpt><trkpt lat="43.7645754" lon="12.5481874"><ele>189.0</ele><time>2026-04-19T08:05:32.844Z</time></trkpt><trkpt lat="43.7644464" lon="12.5481308"><ele>188.5</ele><time>2026-04-19T08:05:33.843Z</time></trkpt><trkpt lat="43.7643228" lon="12.5480454"><ele>188.0</ele><time>2026-04-19T08:05:34.841Z</time></trkpt><trkpt lat="43.7641998" lon="12.5479506"><ele>187.5</ele><time>2026-04-19T08:05:35.874Z</time></trkpt><trkpt lat="43.7640794" lon="12.547858"><ele>187.0</ele><time>2026-04-19T08:05:36.845Z</time></trkpt><trkpt lat="43.763957" lon="12.5477653"><ele>187.0</ele><time>2026-04-19T08:05:37.847Z</time></trkpt><trkpt lat="43.7638352" lon="12.5476737"><ele>187.0</ele><time>2026-04-19T08:05:38.841Z</time></trkpt><trkpt lat="43.7637121" lon="12.5475818"><ele>187.0</ele><time>2026-04-19T08:05:39.84Z</time></trkpt><trkpt lat="43.7635871" lon="12.5474945"><ele>187.0</ele><time>2026-04-19T08:05:40.84Z</time></trkpt><trkpt lat="43.763458" lon="12.5474213"><ele>188.25</ele><time>2026-04-19T08:05:41.84Z</time></trkpt><trkpt lat="43.7633253" lon="12.5473623"><ele>189.5</ele><time>2026-04-19T08:05:42.853Z</time></trkpt><trkpt lat="43.7631946" lon="12.5473143"><ele>190.75</ele><time>2026-04-19T08:05:43.848Z</time></trkpt><trkpt lat="43.7630673" lon="12.5472629"><ele>192.0</ele><time>2026-04-19T08:05:44.846Z</time></trkpt><trkpt lat="43.7629469" lon="12.5471906"><ele>192.0</ele><time>2026-04-19T08:05:45.842Z</time></trkpt><trkpt lat="43.7628356" lon="12.5470899"><ele>192.0</ele><time>2026-04-19T08:05:46.84Z</time></trkpt><trkpt lat="43.7627322" lon="12.5469736"><ele>192.0</ele><time>2026-04-19T08:05:47.839Z</time></trkpt><trkpt lat="43.7626299" lon="12.5468666"><ele>192.0</ele><time>2026-04-19T08:05:48.837Z</time></trkpt><trkpt lat="43.7625271" lon="12.5467858"><ele>194.16666666666666</ele><time>2026-04-19T08:05:49.838Z</time></trkpt><trkpt lat="43.7624312" lon="12.5467358"><ele>196.33333333333331</ele><time>2026-04-19T08:05:50.84Z</time></trkpt><trkpt lat="43.7623539" lon="12.5467096"><ele>198.5</ele><time>2026-04-19T08:05:51.848Z</time></trkpt><trkpt lat="43.7622899" lon="12.546695"><ele>200.66666666666666</ele><time>2026-04-19T08:05:52.843Z</time></trkpt><trkpt lat="43.762209" lon="12.5465931"><ele>202.83333333333331</ele><time>2026-04-19T08:05:54.841Z</time></trkpt><trkpt lat="43.7621877" lon="12.5464776"><ele>205.0</ele><time>2026-04-19T08:05:55.846Z</time></trkpt><trkpt lat="43.7621763" lon="12.5463223"><ele>202.25</ele><time>2026-04-19T08:05:56.844Z</time></trkpt><trkpt lat="43.7621607" lon="12.5461425"><ele>199.5</ele><time>2026-04-19T08:05:57.84Z</time></trkpt><trkpt lat="43.76213" lon="12.5459603"><ele>196.75</ele><time>2026-04-19T08:05:58.842Z</time></trkpt><trkpt lat="43.7620817" lon="12.5457848"><ele>194.0</ele><time>2026-04-19T08:05:59.85Z</time></trkpt><trkpt lat="43.7620088" lon="12.5456073"><ele>194.0</ele><time>2026-04-19T08:06:00.848Z</time></trkpt><trkpt lat="43.7619141" lon="12.5454148"><ele>194.0</ele><time>2026-04-19T08:06:01.843Z</time></trkpt><trkpt lat="43.7618067" lon="12.5452053"><ele>194.0</ele><time>2026-04-19T08:06:02.861Z</time></trkpt><trkpt lat="43.7616961" lon="12.5449906"><ele>196.66666666666669</ele><time>2026-04-19T08:06:03.841Z</time></trkpt><trkpt lat="43.7615823" lon="12.5447708"><ele>199.33333333333331</ele><time>2026-04-19T08:06:04.842Z</time></trkpt><trkpt lat="43.7614732" lon="12.5445602"><ele>202.0</ele><time>2026-04-19T08:06:05.844Z</time></trkpt><trkpt lat="43.761372" lon="12.5443666"><ele>202.0</ele><time>2026-04-19T08:06:06.845Z</time></trkpt><trkpt lat="43.7612753" lon="12.5441855"><ele>202.0</ele><time>2026-04-19T08:06:07.845Z</time></trkpt><trkpt lat="43.7611802" lon="12.5440107"><ele>202.0</ele><time>2026-04-19T08:06:08.842Z</time></trkpt><trkpt lat="43.7610777" lon="12.543824"><ele>202.33333333333331</ele><time>2026-04-19T08:06:09.861Z</time></trkpt><trkpt lat="43.7609743" lon="12.5436331"><ele>202.66666666666669</ele><time>2026-04-19T08:06:10.847Z</time></trkpt><trkpt lat="43.7608724" lon="12.5434445"><ele>203.0</ele><time>2026-04-19T08:06:11.841Z</time></trkpt><trkpt lat="43.7607733" lon="12.5432618"><ele>203.0</ele><time>2026-04-19T08:06:12.843Z</time></trkpt><trkpt lat="43.7606659" lon="12.5430737"><ele>203.0</ele><time>2026-04-19T08:06:13.837Z</time></trkpt><trkpt lat="43.7605516" lon="12.5428808"><ele>203.0</ele><time>2026-04-19T08:06:14.856Z</time></trkpt><trkpt lat="43.7604615" lon="12.5427124"><ele>204.66666666666669</ele><time>2026-04-19T08:06:15.843Z</time></trkpt><trkpt lat="43.7603626" lon="12.5425701"><ele>206.33333333333331</ele><time>2026-04-19T08:06:16.838Z</time></trkpt><trkpt lat="43.7602446" lon="12.5424338"><ele>208.0</ele><time>2026-04-19T08:06:17.839Z</time></trkpt><trkpt lat="43.7600903" lon="12.5423044"><ele>208.0</ele><time>2026-04-19T08:06:18.841Z</time></trkpt><trkpt lat="43.7599205" lon="12.5421513"><ele>208.0</ele><time>2026-04-19T08:06:19.84Z</time></trkpt><trkpt lat="43.7597477" lon="12.542"><ele>208.0</ele><time>2026-04-19T08:06:20.84Z</time></trkpt><trkpt lat="43.7595756" lon="12.5418492"><ele>210.33333333333331</ele><time>2026-04-19T08:06:21.841Z</time></trkpt><trkpt lat="43.7593934" lon="12.5416897"><ele>212.66666666666669</ele><time>2026-04-19T08:06:22.845Z</time></trkpt><trkpt lat="43.7592068" lon="12.5415248"><ele>215.0</ele><time>2026-04-19T08:06:23.841Z</time></trkpt><trkpt lat="43.7590269" lon="12.5413776"><ele>215.0</ele><time>2026-04-19T08:06:24.842Z</time></trkpt><trkpt lat="43.7588626" lon="12.5412467"><ele>215.0</ele><time>2026-04-19T08:06:25.846Z</time></trkpt><trkpt lat="43.758711" lon="12.541121"><ele>215.0</ele><time>2026-04-19T08:06:26.861Z</time></trkpt><trkpt lat="43.758566" lon="12.5410016"><ele>215.66666666666669</ele><time>2026-04-19T08:06:27.851Z</time></trkpt><trkpt lat="43.7584395" lon="12.5408708"><ele>216.33333333333331</ele><time>2026-04-19T08:06:28.869Z</time></trkpt><trkpt lat="43.7583277" lon="12.5407293"><ele>217.0</ele><time>2026-04-19T08:06:29.84Z</time></trkpt><trkpt lat="43.7582322" lon="12.5405701"><ele>217.0</ele><time>2026-04-19T08:06:30.842Z</time></trkpt><trkpt lat="43.7581503" lon="12.5403844"><ele>217.0</ele><time>2026-04-19T08:06:31.837Z</time></trkpt><trkpt lat="43.7580802" lon="12.5401759"><ele>217.0</ele><time>2026-04-19T08:06:32.841Z</time></trkpt><trkpt lat="43.7580153" lon="12.5399489"><ele>213.0</ele><time>2026-04-19T08:06:33.842Z</time></trkpt><trkpt lat="43.7579525" lon="12.5397279"><ele>209.0</ele><time>2026-04-19T08:06:34.842Z</time></trkpt><trkpt lat="43.7578964" lon="12.5395259"><ele>205.0</ele><time>2026-04-19T08:06:35.855Z</time></trkpt><trkpt lat="43.7578485" lon="12.5393325"><ele>202.33333333333331</ele><time>2026-04-19T08:06:36.845Z</time></trkpt><trkpt lat="43.7578096" lon="12.5391254"><ele>199.66666666666669</ele><time>2026-04-19T08:06:37.842Z</time></trkpt><trkpt lat="43.7577825" lon="12.5389074"><ele>197.0</ele><time>2026-04-19T08:06:38.844Z</time></trkpt><trkpt lat="43.7577641" lon="12.5386963"><ele>197.0</ele><time>2026-04-19T08:06:39.844Z</time></trkpt><trkpt lat="43.7577488" lon="12.5385038"><ele>197.0</ele><time>2026-04-19T08:06:40.844Z</time></trkpt><trkpt lat="43.757732" lon="12.5383312"><ele>197.0</ele><time>2026-04-19T08:06:41.863Z</time></trkpt><trkpt lat="43.7577059" lon="12.5381812"><ele>197.0</ele><time>2026-04-19T08:06:42.838Z</time></trkpt><trkpt lat="43.7576719" lon="12.5380449"><ele>198.0</ele><time>2026-04-19T08:06:43.841Z</time></trkpt><trkpt lat="43.7576082" lon="12.5379225"><ele>199.0</ele><time>2026-04-19T08:06:44.842Z</time></trkpt><trkpt lat="43.7575051" lon="12.5378077"><ele>200.0</ele><time>2026-04-19T08:06:45.842Z</time></trkpt><trkpt lat="43.7573843" lon="12.5376883"><ele>201.0</ele><time>2026-04-19T08:06:46.853Z</time></trkpt><trkpt lat="43.7572726" lon="12.537561"><ele>201.5</ele><time>2026-04-19T08:06:47.837Z</time></trkpt><trkpt lat="43.7571669" lon="12.5374498"><ele>202.0</ele><time>2026-04-19T08:06:48.843Z</time></trkpt><trkpt lat="43.7570521" lon="12.5373755"><ele>202.5</ele><time>2026-04-19T08:06:49.844Z</time></trkpt><trkpt lat="43.7569292" lon="12.5373282"><ele>203.0</ele><time>2026-04-19T08:06:50.841Z</time></trkpt><trkpt lat="43.7568003" lon="12.5372928"><ele>203.0</ele><time>2026-04-19T08:06:51.867Z</time></trkpt><trkpt lat="43.7566528" lon="12.5372927"><ele>203.0</ele><time>2026-04-19T08:06:52.845Z</time></trkpt><trkpt lat="43.7564928" lon="12.5372907"><ele>203.0</ele><time>2026-04-19T08:06:53.848Z</time></trkpt><trkpt lat="43.7563283" lon="12.537274"><ele>203.0</ele><time>2026-04-19T08:06:54.844Z</time></trkpt><trkpt lat="43.7561549" lon="12.5372566"><ele>203.0</ele><time>2026-04-19T08:06:55.847Z</time></trkpt><trkpt lat="43.7560044" lon="12.5372413"><ele>203.0</ele><time>2026-04-19T08:06:56.846Z</time></trkpt><trkpt lat="43.7558786" lon="12.5372155"><ele>202.75</ele><time>2026-04-19T08:06:57.84Z</time></trkpt><trkpt lat="43.7557674" lon="12.5371739"><ele>202.5</ele><time>2026-04-19T08:06:58.84Z</time></trkpt><trkpt lat="43.755659" lon="12.5370955"><ele>202.25</ele><time>2026-04-19T08:06:59.849Z</time></trkpt><trkpt lat="43.7555431" lon="12.5369866"><ele>202.0</ele><time>2026-04-19T08:07:00.864Z</time></trkpt><trkpt lat="43.7554282" lon="12.536866"><ele>202.75</ele><time>2026-04-19T08:07:01.847Z</time></trkpt><trkpt lat="43.7553159" lon="12.5367403"><ele>203.5</ele><time>2026-04-19T08:07:02.847Z</time></trkpt><trkpt lat="43.7552213" lon="12.5365946"><ele>204.25</ele><time>2026-04-19T08:07:03.853Z</time></trkpt><trkpt lat="43.7551316" lon="12.5364529"><ele>205.0</ele><time>2026-04-19T08:07:04.842Z</time></trkpt><trkpt lat="43.7550257" lon="12.5363288"><ele>205.0</ele><time>2026-04-19T08:07:05.859Z</time></trkpt><trkpt lat="43.7548886" lon="12.5362242"><ele>205.0</ele><time>2026-04-19T08:07:06.84Z</time></trkpt><trkpt lat="43.7547303" lon="12.5361329"><ele>205.0</ele><time>2026-04-19T08:07:07.839Z</time></trkpt><trkpt lat="43.7545752" lon="12.5360613"><ele>207.25</ele><time>2026-04-19T08:07:08.838Z</time></trkpt><trkpt lat="43.7544279" lon="12.536012"><ele>209.5</ele><time>2026-04-19T08:07:09.845Z</time></trkpt><trkpt lat="43.7542884" lon="12.5359879"><ele>211.75</ele><time>2026-04-19T08:07:10.848Z</time></trkpt><trkpt lat="43.7541381" lon="12.5359945"><ele>214.0</ele><time>2026-04-19T08:07:11.838Z</time></trkpt><trkpt lat="43.7539701" lon="12.5360128"><ele>214.0</ele><time>2026-04-19T08:07:12.869Z</time></trkpt><trkpt lat="43.7538146" lon="12.5360286"><ele>214.0</ele><time>2026-04-19T08:07:13.845Z</time></trkpt><trkpt lat="43.7536811" lon="12.5360305"><ele>214.0</ele><time>2026-04-19T08:07:14.844Z</time></trkpt><trkpt lat="43.7535645" lon="12.5360075"><ele>214.0</ele><time>2026-04-19T08:07:15.844Z</time></trkpt><trkpt lat="43.7534515" lon="12.5359577"><ele>212.5</ele><time>2026-04-19T08:07:16.846Z</time></trkpt><trkpt lat="43.7533342" lon="12.5358771"><ele>211.0</ele><time>2026-04-19T08:07:17.849Z</time></trkpt><trkpt lat="43.7532137" lon="12.535747"><ele>209.5</ele><time>2026-04-19T08:07:18.843Z</time></trkpt><trkpt lat="43.7530956" lon="12.5355988"><ele>208.0</ele><time>2026-04-19T08:07:19.864Z</time></trkpt><trkpt lat="43.7529942" lon="12.5354603"><ele>210.66666666666666</ele><time>2026-04-19T08:07:20.844Z</time></trkpt><trkpt lat="43.7529123" lon="12.5353072"><ele>213.33333333333331</ele><time>2026-04-19T08:07:21.84Z</time></trkpt><trkpt lat="43.752841" lon="12.5351265"><ele>216.0</ele><time>2026-04-19T08:07:22.845Z</time></trkpt><trkpt lat="43.7527694" lon="12.534911"><ele>212.33333333333331</ele><time>2026-04-19T08:07:23.851Z</time></trkpt><trkpt lat="43.7526997" lon="12.5346768"><ele>208.66666666666666</ele><time>2026-04-19T08:07:24.862Z</time></trkpt><trkpt lat="43.7526313" lon="12.5344537"><ele>205.0</ele><time>2026-04-19T08:07:25.848Z</time></trkpt><trkpt lat="43.752551" lon="12.5342226"><ele>205.0</ele><time>2026-04-19T08:07:26.849Z</time></trkpt><trkpt lat="43.7524658" lon="12.5339736"><ele>205.0</ele><time>2026-04-19T08:07:27.847Z</time></trkpt><trkpt lat="43.7523846" lon="12.5337494"><ele>205.0</ele><time>2026-04-19T08:07:28.847Z</time></trkpt><trkpt lat="43.7523163" lon="12.5335688"><ele>206.4</ele><time>2026-04-19T08:07:29.85Z</time></trkpt><trkpt lat="43.7522635" lon="12.5334163"><ele>207.8</ele><time>2026-04-19T08:07:30.851Z</time></trkpt><trkpt lat="43.7522349" lon="12.533276"><ele>209.2</ele><time>2026-04-19T08:07:31.87Z</time></trkpt><trkpt lat="43.7522322" lon="12.5331506"><ele>210.6</ele><time>2026-04-19T08:07:32.847Z</time></trkpt><trkpt lat="43.7522666" lon="12.5330195"><ele>212.0</ele><time>2026-04-19T08:07:33.851Z</time></trkpt><trkpt lat="43.7523141" lon="12.5328871"><ele>213.50000000000003</ele><time>2026-04-19T08:07:34.842Z</time></trkpt><trkpt lat="43.7523609" lon="12.5327612"><ele>215.0</ele><time>2026-04-19T08:07:35.842Z</time></trkpt><trkpt lat="43.7523863" lon="12.5326471"><ele>216.5</ele><time>2026-04-19T08:07:36.847Z</time></trkpt><trkpt lat="43.7523798" lon="12.5325498"><ele>218.0</ele><time>2026-04-19T08:07:37.849Z</time></trkpt><trkpt lat="43.7523509" lon="12.5324693"><ele>219.50000000000003</ele><time>2026-04-19T08:07:38.849Z</time></trkpt><trkpt lat="43.7523051" lon="12.5324019"><ele>221.0</ele><time>2026-04-19T08:07:39.87Z</time></trkpt><trkpt lat="43.7522168" lon="12.5323008"><ele>221.0</ele><time>2026-04-19T08:07:41.852Z</time></trkpt><trkpt lat="43.7523925" lon="12.5323381"><ele>221.0</ele><time>2026-04-19T08:08:00.838Z</time></trkpt><trkpt lat="43.7524972" lon="12.5323966"><ele>221.0</ele><time>2026-04-19T08:08:01.85Z</time></trkpt><trkpt lat="43.7525959" lon="12.5324469"><ele>221.0</ele><time>2026-04-19T08:08:02.848Z</time></trkpt><trkpt lat="43.7527102" lon="12.5324947"><ele>224.75</ele><time>2026-04-19T08:08:03.847Z</time></trkpt><trkpt lat="43.7528362" lon="12.5325323"><ele>228.5</ele><time>2026-04-19T08:08:04.857Z</time></trkpt><trkpt lat="43.7529521" lon="12.5325449"><ele>232.25</ele><time>2026-04-19T08:08:05.844Z</time></trkpt><trkpt lat="43.7530661" lon="12.5325431"><ele>236.0</ele><time>2026-04-19T08:08:06.846Z</time></trkpt><trkpt lat="43.7531778" lon="12.5325081"><ele>236.0</ele><time>2026-04-19T08:08:07.843Z</time></trkpt><trkpt lat="43.7532645" lon="12.5324537"><ele>236.00000000000003</ele><time>2026-04-19T08:08:08.841Z</time></trkpt><trkpt lat="43.7533224" lon="12.5323855"><ele>236.00000000000003</ele><time>2026-04-19T08:08:09.86Z</time></trkpt><trkpt lat="43.7533243" lon="12.5322249"><ele>236.0</ele><time>2026-04-19T08:08:11.841Z</time></trkpt><trkpt lat="43.7532914" lon="12.5321243"><ele>236.0</ele><time>2026-04-19T08:08:12.85Z</time></trkpt><trkpt lat="43.7532344" lon="12.5320157"><ele>237.8</ele><time>2026-04-19T08:08:13.845Z</time></trkpt><trkpt lat="43.7531686" lon="12.5319029"><ele>239.60000000000002</ele><time>2026-04-19T08:08:14.847Z</time></trkpt><trkpt lat="43.7531108" lon="12.5317889"><ele>241.4</ele><time>2026-04-19T08:08:15.866Z</time></trkpt><trkpt lat="43.7530716" lon="12.5316665"><ele>243.2</ele><time>2026-04-19T08:08:16.848Z</time></trkpt><trkpt lat="43.7530397" lon="12.5315487"><ele>245.0</ele><time>2026-04-19T08:08:17.844Z</time></trkpt><trkpt lat="43.7530147" lon="12.5314358"><ele>245.0</ele><time>2026-04-19T08:08:18.843Z</time></trkpt><trkpt lat="43.7529994" lon="12.5313298"><ele>245.0</ele><time>2026-04-19T08:08:19.841Z</time></trkpt><trkpt lat="43.7529775" lon="12.531228"><ele>245.0</ele><time>2026-04-19T08:08:20.841Z</time></trkpt><trkpt lat="43.7529474" lon="12.5311334"><ele>245.0</ele><time>2026-04-19T08:08:21.843Z</time></trkpt><trkpt lat="43.7529003" lon="12.5309967"><ele>245.0</ele><time>2026-04-19T08:08:22.846Z</time></trkpt><trkpt lat="43.752835" lon="12.5308306"><ele>247.0</ele><time>2026-04-19T08:08:23.845Z</time></trkpt><trkpt lat="43.752754" lon="12.5306512"><ele>249.0</ele><time>2026-04-19T08:08:24.844Z</time></trkpt><trkpt lat="43.7526745" lon="12.5304972"><ele>251.0</ele><time>2026-04-19T08:08:25.858Z</time></trkpt><trkpt lat="43.7526027" lon="12.5303635"><ele>253.0</ele><time>2026-04-19T08:08:26.845Z</time></trkpt><trkpt lat="43.7525454" lon="12.5302464"><ele>257.0</ele><time>2026-04-19T08:08:27.849Z</time></trkpt><trkpt lat="43.752511" lon="12.5301658"><ele>261.0</ele><time>2026-04-19T08:08:28.85Z</time></trkpt><trkpt lat="43.7524913" lon="12.5299947"><ele>265.0</ele><time>2026-04-19T08:08:30.847Z</time></trkpt><trkpt lat="43.7525728" lon="12.5298595"><ele>269.0</ele><time>2026-04-19T08:08:32.853Z</time></trkpt><trkpt lat="43.7526251" lon="12.5297704"><ele>273.0</ele><time>2026-04-19T08:08:33.845Z</time></trkpt><trkpt lat="43.7526849" lon="12.5296667"><ele>274.8</ele><time>2026-04-19T08:08:34.845Z</time></trkpt><trkpt lat="43.7527418" lon="12.5295489"><ele>276.6</ele><time>2026-04-19T08:08:35.844Z</time></trkpt><trkpt lat="43.7527901" lon="12.5294221"><ele>278.4</ele><time>2026-04-19T08:08:36.869Z</time></trkpt><trkpt lat="43.7528309" lon="12.5292684"><ele>280.2</ele><time>2026-04-19T08:08:37.85Z</time></trkpt><trkpt lat="43.752867" lon="12.5291058"><ele>282.0</ele><time>2026-04-19T08:08:38.854Z</time></trkpt><trkpt lat="43.7528903" lon="12.5289618"><ele>282.0</ele><time>2026-04-19T08:08:39.849Z</time></trkpt><trkpt lat="43.7529041" lon="12.5288128"><ele>282.0</ele><time>2026-04-19T08:08:40.848Z</time></trkpt><trkpt lat="43.7528924" lon="12.5286422"><ele>282.0</ele><time>2026-04-19T08:08:41.852Z</time></trkpt><trkpt lat="43.7528719" lon="12.5284548"><ele>282.0</ele><time>2026-04-19T08:08:42.856Z</time></trkpt><trkpt lat="43.7528433" lon="12.5282951"><ele>283.4</ele><time>2026-04-19T08:08:43.844Z</time></trkpt><trkpt lat="43.7528183" lon="12.5281624"><ele>284.79999999999995</ele><time>2026-04-19T08:08:44.868Z</time></trkpt><trkpt lat="43.752812" lon="12.5280385"><ele>286.2</ele><time>2026-04-19T08:08:45.845Z</time></trkpt><trkpt lat="43.7528258" lon="12.5279099"><ele>287.59999999999997</ele><time>2026-04-19T08:08:46.845Z</time></trkpt><trkpt lat="43.7528442" lon="12.5277672"><ele>289.0</ele><time>2026-04-19T08:08:47.844Z</time></trkpt><trkpt lat="43.752848" lon="12.5276202"><ele>290.25</ele><time>2026-04-19T08:08:48.849Z</time></trkpt><trkpt lat="43.75285" lon="12.5274412"><ele>291.5</ele><time>2026-04-19T08:08:49.853Z</time></trkpt><trkpt lat="43.7528487" lon="12.5272444"><ele>292.75</ele><time>2026-04-19T08:08:50.847Z</time></trkpt><trkpt lat="43.7528461" lon="12.5270863"><ele>294.0</ele><time>2026-04-19T08:08:51.867Z</time></trkpt><trkpt lat="43.7528394" lon="12.526959"><ele>294.4</ele><time>2026-04-19T08:08:52.85Z</time></trkpt><trkpt lat="43.7528234" lon="12.5268286"><ele>294.79999999999995</ele><time>2026-04-19T08:08:53.847Z</time></trkpt><trkpt lat="43.7527994" lon="12.526685"><ele>295.20000000000005</ele><time>2026-04-19T08:08:54.848Z</time></trkpt><trkpt lat="43.7527513" lon="12.5265356"><ele>295.6</ele><time>2026-04-19T08:08:55.854Z</time></trkpt><trkpt lat="43.7526882" lon="12.5263979"><ele>296.0</ele><time>2026-04-19T08:08:56.849Z</time></trkpt><trkpt lat="43.752634" lon="12.5262853"><ele>302.20000000000005</ele><time>2026-04-19T08:08:57.844Z</time></trkpt><trkpt lat="43.7525919" lon="12.5261793"><ele>308.40000000000003</ele><time>2026-04-19T08:08:58.848Z</time></trkpt><trkpt lat="43.7525644" lon="12.5260633"><ele>314.6</ele><time>2026-04-19T08:08:59.844Z</time></trkpt><trkpt lat="43.7525472" lon="12.525936"><ele>320.8</ele><time>2026-04-19T08:09:00.864Z</time></trkpt><trkpt lat="43.7525325" lon="12.5258058"><ele>327.0</ele><time>2026-04-19T08:09:01.843Z</time></trkpt><trkpt lat="43.7525177" lon="12.5256879"><ele>327.0</ele><time>2026-04-19T08:09:02.843Z</time></trkpt><trkpt lat="43.7525119" lon="12.5255472"><ele>327.0</ele><time>2026-04-19T08:09:04.846Z</time></trkpt><trkpt lat="43.7524938" lon="12.5254499"><ele>327.0</ele><time>2026-04-19T08:09:06.843Z</time></trkpt><trkpt lat="43.7524206" lon="12.525317"><ele>327.0</ele><time>2026-04-19T08:09:08.844Z</time></trkpt><trkpt lat="43.7523744" lon="12.5252318"><ele>327.0</ele><time>2026-04-19T08:09:09.843Z</time></trkpt><trkpt lat="43.7523275" lon="12.5251474"><ele>327.0</ele><time>2026-04-19T08:09:10.849Z</time></trkpt><trkpt lat="43.7522803" lon="12.5250661"><ele>327.5</ele><time>2026-04-19T08:09:11.842Z</time></trkpt><trkpt lat="43.7522305" lon="12.5249816"><ele>328.0</ele><time>2026-04-19T08:09:12.869Z</time></trkpt><trkpt lat="43.752181" lon="12.5248971"><ele>328.5</ele><time>2026-04-19T08:09:13.845Z</time></trkpt><trkpt lat="43.7521285" lon="12.5248168"><ele>329.0</ele><time>2026-04-19T08:09:14.847Z</time></trkpt><trkpt lat="43.7520739" lon="12.5247439"><ele>329.5</ele><time>2026-04-19T08:09:15.846Z</time></trkpt><trkpt lat="43.7520207" lon="12.5246794"><ele>330.0</ele><time>2026-04-19T08:09:16.846Z</time></trkpt><trkpt lat="43.7519653" lon="12.5246248"><ele>330.6666666666667</ele><time>2026-04-19T08:09:17.875Z</time></trkpt><trkpt lat="43.7519133" lon="12.5245498"><ele>331.3333333333333</ele><time>2026-04-19T08:09:18.855Z</time></trkpt><trkpt lat="43.7518566" lon="12.5244656"><ele>332.0</ele><time>2026-04-19T08:09:19.845Z</time></trkpt><trkpt lat="43.751807" lon="12.5243803"><ele>332.66666666666663</ele><time>2026-04-19T08:09:20.847Z</time></trkpt><trkpt lat="43.7517733" lon="12.5242911"><ele>333.3333333333333</ele><time>2026-04-19T08:09:21.842Z</time></trkpt><trkpt lat="43.7517397" lon="12.5241765"><ele>334.0</ele><time>2026-04-19T08:09:22.893Z</time></trkpt><trkpt lat="43.7517119" lon="12.5240682"><ele>334.5</ele><time>2026-04-19T08:09:23.848Z</time></trkpt><trkpt lat="43.7516915" lon="12.5239767"><ele>335.0</ele><time>2026-04-19T08:09:24.844Z</time></trkpt><trkpt lat="43.7516901" lon="12.5238134"><ele>335.5</ele><time>2026-04-19T08:09:26.85Z</time></trkpt><trkpt lat="43.7517268" lon="12.52372"><ele>336.0</ele><time>2026-04-19T08:09:27.844Z</time></trkpt><trkpt lat="43.751754" lon="12.5236132"><ele>336.5</ele><time>2026-04-19T08:09:28.861Z</time></trkpt><trkpt lat="43.7517747" lon="12.5234956"><ele>337.0</ele><time>2026-04-19T08:09:29.844Z</time></trkpt><trkpt lat="43.7517912" lon="12.5233647"><ele>339.8</ele><time>2026-04-19T08:09:30.844Z</time></trkpt><trkpt lat="43.7518055" lon="12.5232255"><ele>342.6</ele><time>2026-04-19T08:09:31.848Z</time></trkpt><trkpt lat="43.7518043" lon="12.5231028"><ele>345.40000000000003</ele><time>2026-04-19T08:09:32.849Z</time></trkpt><trkpt lat="43.7517968" lon="12.5229805"><ele>348.20000000000005</ele><time>2026-04-19T08:09:33.844Z</time></trkpt><trkpt lat="43.7517665" lon="12.5228438"><ele>351.0</ele><time>2026-04-19T08:09:34.873Z</time></trkpt><trkpt lat="43.7517327" lon="12.5226971"><ele>353.5</ele><time>2026-04-19T08:09:35.844Z</time></trkpt><trkpt lat="43.7517018" lon="12.5225481"><ele>356.0</ele><time>2026-04-19T08:09:36.844Z</time></trkpt><trkpt lat="43.7516715" lon="12.5224318"><ele>358.5</ele><time>2026-04-19T08:09:37.844Z</time></trkpt><trkpt lat="43.7516461" lon="12.5223401"><ele>361.0</ele><time>2026-04-19T08:09:38.844Z</time></trkpt><trkpt lat="43.7516026" lon="12.522265"><ele>363.5</ele><time>2026-04-19T08:09:39.845Z</time></trkpt><trkpt lat="43.7515506" lon="12.5222017"><ele>366.0</ele><time>2026-04-19T08:09:40.87Z</time></trkpt><trkpt lat="43.7514842" lon="12.5221389"><ele>366.0</ele><time>2026-04-19T08:09:41.845Z</time></trkpt><trkpt lat="43.7514103" lon="12.5220688"><ele>366.0</ele><time>2026-04-19T08:09:42.846Z</time></trkpt><trkpt lat="43.7513331" lon="12.5219701"><ele>366.0</ele><time>2026-04-19T08:09:43.845Z</time></trkpt><trkpt lat="43.7512578" lon="12.5218507"><ele>366.0</ele><time>2026-04-19T08:09:44.843Z</time></trkpt><trkpt lat="43.7511837" lon="12.5217204"><ele>366.0</ele><time>2026-04-19T08:09:45.845Z</time></trkpt><trkpt lat="43.7511282" lon="12.5216126"><ele>368.6</ele><time>2026-04-19T08:09:46.859Z</time></trkpt><trkpt lat="43.7510939" lon="12.521533"><ele>371.20000000000005</ele><time>2026-04-19T08:09:47.848Z</time></trkpt><trkpt lat="43.7510902" lon="12.5213773"><ele>373.79999999999995</ele><time>2026-04-19T08:09:49.845Z</time></trkpt><trkpt lat="43.7510704" lon="12.5212776"><ele>376.4</ele><time>2026-04-19T08:09:51.844Z</time></trkpt><trkpt lat="43.7510142" lon="12.5211652"><ele>379.0</ele><time>2026-04-19T08:09:53.865Z</time></trkpt><trkpt lat="43.7509337" lon="12.5210282"><ele>383.2</ele><time>2026-04-19T08:09:55.844Z</time></trkpt><trkpt lat="43.7508767" lon="12.520943"><ele>387.4</ele><time>2026-04-19T08:09:56.839Z</time></trkpt><trkpt lat="43.7508023" lon="12.5208404"><ele>391.6</ele><time>2026-04-19T08:09:57.846Z</time></trkpt><trkpt lat="43.7507143" lon="12.5207239"><ele>395.8</ele><time>2026-04-19T08:09:58.846Z</time></trkpt><trkpt lat="43.7506314" lon="12.5206171"><ele>400.0</ele><time>2026-04-19T08:09:59.843Z</time></trkpt><trkpt lat="43.750543" lon="12.5205157"><ele>400.00000000000006</ele><time>2026-04-19T08:10:00.844Z</time></trkpt><trkpt lat="43.7504627" lon="12.5204146"><ele>400.0</ele><time>2026-04-19T08:10:01.848Z</time></trkpt><trkpt lat="43.7503981" lon="12.5203239"><ele>400.0</ele><time>2026-04-19T08:10:02.841Z</time></trkpt><trkpt lat="43.7503443" lon="12.5202411"><ele>400.0</ele><time>2026-04-19T08:10:03.842Z</time></trkpt><trkpt lat="43.7502949" lon="12.5201619"><ele>400.00000000000006</ele><time>2026-04-19T08:10:04.84Z</time></trkpt><trkpt lat="43.7502471" lon="12.5200839"><ele>400.0</ele><time>2026-04-19T08:10:05.84Z</time></trkpt><trkpt lat="43.7502069" lon="12.5200034"><ele>400.83333333333337</ele><time>2026-04-19T08:10:06.84Z</time></trkpt><trkpt lat="43.7501654" lon="12.5198968"><ele>401.6666666666667</ele><time>2026-04-19T08:10:07.844Z</time></trkpt><trkpt lat="43.7501077" lon="12.5197638"><ele>402.5</ele><time>2026-04-19T08:10:08.844Z</time></trkpt><trkpt lat="43.7500597" lon="12.5196357"><ele>403.33333333333337</ele><time>2026-04-19T08:10:09.844Z</time></trkpt><trkpt lat="43.7500233" lon="12.5195335"><ele>404.1666666666667</ele><time>2026-04-19T08:10:10.843Z</time></trkpt><trkpt lat="43.7500042" lon="12.51945"><ele>405.0</ele><time>2026-04-19T08:10:11.837Z</time></trkpt><trkpt lat="43.7499887" lon="12.5193473"><ele>406.0</ele><time>2026-04-19T08:10:12.847Z</time></trkpt><trkpt lat="43.7499801" lon="12.5192211"><ele>407.0</ele><time>2026-04-19T08:10:13.845Z</time></trkpt><trkpt lat="43.7499549" lon="12.5191015"><ele>408.0</ele><time>2026-04-19T08:10:14.863Z</time></trkpt><trkpt lat="43.7499114" lon="12.5189805"><ele>409.0</ele><time>2026-04-19T08:10:15.845Z</time></trkpt><trkpt lat="43.7498695" lon="12.5188369"><ele>410.0</ele><time>2026-04-19T08:10:16.846Z</time></trkpt><trkpt lat="43.7498253" lon="12.5187207"><ele>410.0</ele><time>2026-04-19T08:10:17.844Z</time></trkpt><trkpt lat="43.7497752" lon="12.5186097"><ele>410.0</ele><time>2026-04-19T08:10:18.846Z</time></trkpt><trkpt lat="43.7497265" lon="12.5185196"><ele>410.0</ele><time>2026-04-19T08:10:19.843Z</time></trkpt><trkpt lat="43.7496549" lon="12.5184458"><ele>410.0</ele><time>2026-04-19T08:10:20.841Z</time></trkpt><trkpt lat="43.7495685" lon="12.5183757"><ele>410.0</ele><time>2026-04-19T08:10:21.844Z</time></trkpt><trkpt lat="43.7494755" lon="12.5183098"><ele>410.0</ele><time>2026-04-19T08:10:22.84Z</time></trkpt><trkpt lat="43.7494037" lon="12.5182465"><ele>410.0</ele><time>2026-04-19T08:10:23.84Z</time></trkpt><trkpt lat="43.7493544" lon="12.5181673"><ele>410.0</ele><time>2026-04-19T08:10:24.847Z</time></trkpt><trkpt lat="43.7493052" lon="12.5180464"><ele>410.0</ele><time>2026-04-19T08:10:25.839Z</time></trkpt><trkpt lat="43.7492524" lon="12.5178828"><ele>410.0</ele><time>2026-04-19T08:10:26.861Z</time></trkpt><trkpt lat="43.7492076" lon="12.5177182"><ele>414.6</ele><time>2026-04-19T08:10:27.85Z</time></trkpt><trkpt lat="43.7491665" lon="12.5175892"><ele>419.2</ele><time>2026-04-19T08:10:28.846Z</time></trkpt><trkpt lat="43.7491314" lon="12.5174991"><ele>423.79999999999995</ele><time>2026-04-19T08:10:29.84Z</time></trkpt><trkpt lat="43.7490318" lon="12.5173836"><ele>428.4</ele><time>2026-04-19T08:10:31.85Z</time></trkpt><trkpt lat="43.748957" lon="12.5173171"><ele>433.0</ele><time>2026-04-19T08:10:32.847Z</time></trkpt><trkpt lat="43.7488827" lon="12.5172328"><ele>433.00000000000006</ele><time>2026-04-19T08:10:33.843Z</time></trkpt><trkpt lat="43.7488177" lon="12.5171565"><ele>433.0</ele><time>2026-04-19T08:10:34.842Z</time></trkpt><trkpt lat="43.7487535" lon="12.5170992"><ele>433.0</ele><time>2026-04-19T08:10:35.844Z</time></trkpt><trkpt lat="43.7486796" lon="12.5170549"><ele>433.0</ele><time>2026-04-19T08:10:36.847Z</time></trkpt><trkpt lat="43.7486192" lon="12.5170195"><ele>433.00000000000006</ele><time>2026-04-19T08:10:37.844Z</time></trkpt><trkpt lat="43.7485132" lon="12.5169554"><ele>433.0</ele><time>2026-04-19T08:10:39.845Z</time></trkpt><trkpt lat="43.7483699" lon="12.5169647"><ele>431.83333333333337</ele><time>2026-04-19T08:10:41.84Z</time></trkpt><trkpt lat="43.7482911" lon="12.5169917"><ele>430.6666666666667</ele><time>2026-04-19T08:10:42.846Z</time></trkpt><trkpt lat="43.748227" lon="12.5170089"><ele>429.5</ele><time>2026-04-19T08:10:43.84Z</time></trkpt><trkpt lat="43.7481516" lon="12.5170061"><ele>428.33333333333337</ele><time>2026-04-19T08:10:44.844Z</time></trkpt><trkpt lat="43.7480619" lon="12.5169888"><ele>427.1666666666667</ele><time>2026-04-19T08:10:45.849Z</time></trkpt><trkpt lat="43.7479802" lon="12.5169616"><ele>426.0</ele><time>2026-04-19T08:10:46.844Z</time></trkpt><trkpt lat="43.7479158" lon="12.5169474"><ele>426.0</ele><time>2026-04-19T08:10:47.857Z</time></trkpt><trkpt lat="43.7478332" lon="12.5169478"><ele>426.0</ele><time>2026-04-19T08:10:49.847Z</time></trkpt><trkpt lat="43.7477503" lon="12.5169086"><ele>426.0</ele><time>2026-04-19T08:10:57.938Z</time></trkpt><trkpt lat="43.7477213" lon="12.516793"><ele>426.0</ele><time>2026-04-19T08:10:58.844Z</time></trkpt><trkpt lat="43.747697" lon="12.5167024"><ele>426.0</ele><time>2026-04-19T08:10:59.85Z</time></trkpt><trkpt lat="43.7476532" lon="12.5166176"><ele>426.0</ele><time>2026-04-19T08:11:00.842Z</time></trkpt><trkpt lat="43.7475933" lon="12.5165543"><ele>428.8333333333333</ele><time>2026-04-19T08:11:01.851Z</time></trkpt><trkpt lat="43.7475285" lon="12.5165141"><ele>431.66666666666663</ele><time>2026-04-19T08:11:02.847Z</time></trkpt><trkpt lat="43.7474619" lon="12.5164854"><ele>434.5</ele><time>2026-04-19T08:11:03.845Z</time></trkpt><trkpt lat="43.7473489" lon="12.5164481"><ele>437.3333333333333</ele><time>2026-04-19T08:11:05.849Z</time></trkpt><trkpt lat="43.7472739" lon="12.5164255"><ele>440.16666666666663</ele><time>2026-04-19T08:11:06.879Z</time></trkpt><trkpt lat="43.7471759" lon="12.5164021"><ele>443.0</ele><time>2026-04-19T08:11:07.848Z</time></trkpt><trkpt lat="43.7470697" lon="12.516376"><ele>442.99999999999994</ele><time>2026-04-19T08:11:08.844Z</time></trkpt><trkpt lat="43.7469736" lon="12.516347"><ele>443.0</ele><time>2026-04-19T08:11:09.844Z</time></trkpt><trkpt lat="43.7469044" lon="12.5163117"><ele>443.0</ele><time>2026-04-19T08:11:10.843Z</time></trkpt><trkpt lat="43.7468448" lon="12.5162528"><ele>443.0</ele><time>2026-04-19T08:11:11.861Z</time></trkpt><trkpt lat="43.7467884" lon="12.5161654"><ele>442.99999999999994</ele><time>2026-04-19T08:11:12.842Z</time></trkpt><trkpt lat="43.7467381" lon="12.5160229"><ele>443.0</ele><time>2026-04-19T08:11:13.842Z</time></trkpt><trkpt lat="43.7467099" lon="12.5158676"><ele>447.79999999999995</ele><time>2026-04-19T08:11:14.837Z</time></trkpt><trkpt lat="43.7466945" lon="12.5157293"><ele>452.59999999999997</ele><time>2026-04-19T08:11:15.844Z</time></trkpt><trkpt lat="43.7466868" lon="12.5156094"><ele>457.40000000000003</ele><time>2026-04-19T08:11:16.84Z</time></trkpt><trkpt lat="43.7467048" lon="12.5154792"><ele>462.20000000000005</ele><time>2026-04-19T08:11:17.845Z</time></trkpt><trkpt lat="43.746773" lon="12.5153532"><ele>467.0</ele><time>2026-04-19T08:11:18.842Z</time></trkpt><trkpt lat="43.7468323" lon="12.5152391"><ele>466.99999999999994</ele><time>2026-04-19T08:11:19.845Z</time></trkpt><trkpt lat="43.7468615" lon="12.5151297"><ele>467.0</ele><time>2026-04-19T08:11:20.839Z</time></trkpt><trkpt lat="43.7468697" lon="12.5150401"><ele>467.0</ele><time>2026-04-19T08:11:21.845Z</time></trkpt><trkpt lat="43.7468431" lon="12.5149578"><ele>467.0</ele><time>2026-04-19T08:11:22.84Z</time></trkpt><trkpt lat="43.7467954" lon="12.5148884"><ele>466.99999999999994</ele><time>2026-04-19T08:11:23.84Z</time></trkpt><trkpt lat="43.7467344" lon="12.5148274"><ele>467.0</ele><time>2026-04-19T08:11:24.838Z</time></trkpt><trkpt lat="43.7466422" lon="12.5147812"><ele>467.0</ele><time>2026-04-19T08:11:25.848Z</time></trkpt><trkpt lat="43.7465422" lon="12.5147308"><ele>467.00000000000006</ele><time>2026-04-19T08:11:26.84Z</time></trkpt><trkpt lat="43.7464579" lon="12.5146609"><ele>467.00000000000006</ele><time>2026-04-19T08:11:27.843Z</time></trkpt><trkpt lat="43.7463924" lon="12.514569"><ele>467.0</ele><time>2026-04-19T08:11:28.843Z</time></trkpt><trkpt lat="43.7463557" lon="12.5144655"><ele>467.0</ele><time>2026-04-19T08:11:29.844Z</time></trkpt><trkpt lat="43.7463346" lon="12.5143633"><ele>465.99999999999994</ele><time>2026-04-19T08:11:30.842Z</time></trkpt><trkpt lat="43.7463299" lon="12.5142495"><ele>465.0</ele><time>2026-04-19T08:11:31.842Z</time></trkpt><trkpt lat="43.7463211" lon="12.5141239"><ele>464.0</ele><time>2026-04-19T08:11:32.837Z</time></trkpt><trkpt lat="43.746305" lon="12.514016"><ele>463.0</ele><time>2026-04-19T08:11:33.843Z</time></trkpt><trkpt lat="43.7462856" lon="12.5139294"><ele>461.99999999999994</ele><time>2026-04-19T08:11:34.84Z</time></trkpt><trkpt lat="43.7462785" lon="12.5138282"><ele>461.0</ele><time>2026-04-19T08:11:35.862Z</time></trkpt><trkpt lat="43.7462784" lon="12.5137131"><ele>461.0</ele><time>2026-04-19T08:11:36.844Z</time></trkpt><trkpt lat="43.7462782" lon="12.5135682"><ele>461.0</ele><time>2026-04-19T08:11:37.844Z</time></trkpt><trkpt lat="43.7462788" lon="12.5134346"><ele>461.0</ele><time>2026-04-19T08:11:38.841Z</time></trkpt><trkpt lat="43.7462731" lon="12.5133388"><ele>461.0</ele><time>2026-04-19T08:11:39.848Z</time></trkpt><trkpt lat="43.7462082" lon="12.5132544"><ele>461.0</ele><time>2026-04-19T08:11:41.841Z</time></trkpt><trkpt lat="43.7460952" lon="12.5132502"><ele>464.20000000000005</ele><time>2026-04-19T08:11:43.859Z</time></trkpt><trkpt lat="43.7460233" lon="12.5132983"><ele>467.40000000000003</ele><time>2026-04-19T08:11:44.842Z</time></trkpt><trkpt lat="43.7459401" lon="12.5133597"><ele>470.6</ele><time>2026-04-19T08:11:45.856Z</time></trkpt><trkpt lat="43.7458666" lon="12.5134269"><ele>473.8</ele><time>2026-04-19T08:11:46.844Z</time></trkpt><trkpt lat="43.7458033" lon="12.513485"><ele>477.0</ele><time>2026-04-19T08:11:47.845Z</time></trkpt><trkpt lat="43.7456871" lon="12.5135693"><ele>477.0</ele><time>2026-04-19T08:11:49.842Z</time></trkpt><trkpt lat="43.7455883" lon="12.5135753"><ele>477.0</ele><time>2026-04-19T08:11:50.845Z</time></trkpt><trkpt lat="43.7454534" lon="12.5135918"><ele>477.0</ele><time>2026-04-19T08:11:51.843Z</time></trkpt><trkpt lat="43.7453172" lon="12.5136177"><ele>477.0</ele><time>2026-04-19T08:11:52.843Z</time></trkpt><trkpt lat="43.7451942" lon="12.513634"><ele>477.8</ele><time>2026-04-19T08:11:53.842Z</time></trkpt><trkpt lat="43.745089" lon="12.5136393"><ele>478.6</ele><time>2026-04-19T08:11:54.846Z</time></trkpt><trkpt lat="43.7450073" lon="12.5136326"><ele>479.40000000000003</ele><time>2026-04-19T08:11:55.845Z</time></trkpt><trkpt lat="43.7449399" lon="12.5136095"><ele>480.20000000000005</ele><time>2026-04-19T08:11:56.84Z</time></trkpt><trkpt lat="43.7448197" lon="12.5135707"><ele>481.0</ele><time>2026-04-19T08:11:58.839Z</time></trkpt><trkpt lat="43.7447504" lon="12.5135839"><ele>481.0</ele><time>2026-04-19T08:11:59.844Z</time></trkpt><trkpt lat="43.7446652" lon="12.5136248"><ele>481.0</ele><time>2026-04-19T08:12:00.836Z</time></trkpt><trkpt lat="43.7445666" lon="12.5136724"><ele>481.0</ele><time>2026-04-19T08:12:01.845Z</time></trkpt><trkpt lat="43.7444685" lon="12.5137084"><ele>481.0</ele><time>2026-04-19T08:12:02.842Z</time></trkpt><trkpt lat="43.7443876" lon="12.5137342"><ele>481.0</ele><time>2026-04-19T08:12:03.846Z</time></trkpt><trkpt lat="43.7443132" lon="12.5137464"><ele>482.5</ele><time>2026-04-19T08:12:04.841Z</time></trkpt><trkpt lat="43.7442131" lon="12.5137076"><ele>484.0</ele><time>2026-04-19T08:12:05.845Z</time></trkpt><trkpt lat="43.7440873" lon="12.5136425"><ele>485.5</ele><time>2026-04-19T08:12:06.843Z</time></trkpt><trkpt lat="43.7439735" lon="12.5135864"><ele>487.0</ele><time>2026-04-19T08:12:07.842Z</time></trkpt><trkpt lat="43.7438863" lon="12.5135357"><ele>487.0</ele><time>2026-04-19T08:12:08.847Z</time></trkpt><trkpt lat="43.7438066" lon="12.5134637"><ele>487.00000000000006</ele><time>2026-04-19T08:12:09.859Z</time></trkpt><trkpt lat="43.7437255" lon="12.5133577"><ele>487.00000000000006</ele><time>2026-04-19T08:12:10.842Z</time></trkpt><trkpt lat="43.7436588" lon="12.5132524"><ele>487.0</ele><time>2026-04-19T08:12:11.845Z</time></trkpt><trkpt lat="43.7436044" lon="12.5131575"><ele>487.0</ele><time>2026-04-19T08:12:12.847Z</time></trkpt><trkpt lat="43.7435503" lon="12.5130742"><ele>487.50000000000006</ele><time>2026-04-19T08:12:13.845Z</time></trkpt><trkpt lat="43.7434998" lon="12.5130062"><ele>488.0</ele><time>2026-04-19T08:12:14.844Z</time></trkpt><trkpt lat="43.7434565" lon="12.5129409"><ele>488.5</ele><time>2026-04-19T08:12:15.844Z</time></trkpt><trkpt lat="43.7433901" lon="12.5128095"><ele>489.0</ele><time>2026-04-19T08:12:17.862Z</time></trkpt><trkpt lat="43.7433424" lon="12.5127375"><ele>489.50000000000006</ele><time>2026-04-19T08:12:19.846Z</time></trkpt><trkpt lat="43.7432536" lon="12.5126448"><ele>490.0</ele><time>2026-04-19T08:12:21.845Z</time></trkpt><trkpt lat="43.7432021" lon="12.5125607"><ele>491.00000000000006</ele><time>2026-04-19T08:12:22.869Z</time></trkpt><trkpt lat="43.7431519" lon="12.5124806"><ele>492.0</ele><time>2026-04-19T08:12:23.853Z</time></trkpt><trkpt lat="43.7430455" lon="12.5124128"><ele>493.0</ele><time>2026-04-19T08:12:25.845Z</time></trkpt><trkpt lat="43.7429694" lon="12.5123983"><ele>494.0</ele><time>2026-04-19T08:12:26.843Z</time></trkpt><trkpt lat="43.7428963" lon="12.5123612"><ele>495.00000000000006</ele><time>2026-04-19T08:12:27.86Z</time></trkpt><trkpt lat="43.7428395" lon="12.5123037"><ele>496.0</ele><time>2026-04-19T08:12:28.843Z</time></trkpt><trkpt lat="43.7427852" lon="12.5122448"><ele>496.0</ele><time>2026-04-19T08:12:29.836Z</time></trkpt><trkpt lat="43.7427324" lon="12.5121767"><ele>496.00000000000006</ele><time>2026-04-19T08:12:30.84Z</time></trkpt><trkpt lat="43.7426788" lon="12.5121216"><ele>496.0</ele><time>2026-04-19T08:12:31.84Z</time></trkpt><trkpt lat="43.7426217" lon="12.5120765"><ele>496.0</ele><time>2026-04-19T08:12:32.867Z</time></trkpt><trkpt lat="43.7425644" lon="12.5120365"><ele>496.00000000000006</ele><time>2026-04-19T08:12:33.842Z</time></trkpt><trkpt lat="43.7424975" lon="12.5119983"><ele>496.0</ele><time>2026-04-19T08:12:34.841Z</time></trkpt><trkpt lat="43.7424058" lon="12.5119518"><ele>496.0</ele><time>2026-04-19T08:12:35.838Z</time></trkpt><trkpt lat="43.7423141" lon="12.511906"><ele>495.1666666666667</ele><time>2026-04-19T08:12:36.84Z</time></trkpt><trkpt lat="43.7422325" lon="12.51186"><ele>494.33333333333337</ele><time>2026-04-19T08:12:37.841Z</time></trkpt><trkpt lat="43.7421644" lon="12.5118124"><ele>493.5</ele><time>2026-04-19T08:12:38.838Z</time></trkpt><trkpt lat="43.7421087" lon="12.5117567"><ele>492.66666666666663</ele><time>2026-04-19T08:12:39.869Z</time></trkpt><trkpt lat="43.7420643" lon="12.5116722"><ele>491.8333333333333</ele><time>2026-04-19T08:12:40.844Z</time></trkpt><trkpt lat="43.742026" lon="12.511574"><ele>491.0</ele><time>2026-04-19T08:12:41.841Z</time></trkpt><trkpt lat="43.7419877" lon="12.5114614"><ele>490.99999999999994</ele><time>2026-04-19T08:12:42.846Z</time></trkpt><trkpt lat="43.741953" lon="12.5113611"><ele>491.0</ele><time>2026-04-19T08:12:43.845Z</time></trkpt><trkpt lat="43.7419212" lon="12.5112741"><ele>491.0</ele><time>2026-04-19T08:12:44.871Z</time></trkpt><trkpt lat="43.7418922" lon="12.5111955"><ele>491.0</ele><time>2026-04-19T08:12:45.845Z</time></trkpt><trkpt lat="43.7418472" lon="12.5110588"><ele>490.99999999999994</ele><time>2026-04-19T08:12:47.842Z</time></trkpt><trkpt lat="43.7417851" lon="12.5110227"><ele>491.0</ele><time>2026-04-19T08:18:48.924Z</time></trkpt><trkpt lat="43.7417304" lon="12.5110792"><ele>491.66666666666663</ele><time>2026-04-19T08:18:51.865Z</time></trkpt><trkpt lat="43.7416458" lon="12.5111294"><ele>492.3333333333333</ele><time>2026-04-19T08:18:52.858Z</time></trkpt><trkpt lat="43.7415625" lon="12.5111578"><ele>493.0</ele><time>2026-04-19T08:18:53.845Z</time></trkpt><trkpt lat="43.741487" lon="12.5111867"><ele>493.66666666666663</ele><time>2026-04-19T08:18:54.843Z</time></trkpt><trkpt lat="43.7414119" lon="12.5112342"><ele>494.3333333333333</ele><time>2026-04-19T08:18:55.841Z</time></trkpt><trkpt lat="43.7413377" lon="12.5112963"><ele>495.0</ele><time>2026-04-19T08:18:56.84Z</time></trkpt><trkpt lat="43.741272" lon="12.5113595"><ele>495.0</ele><time>2026-04-19T08:18:57.843Z</time></trkpt><trkpt lat="43.7412282" lon="12.511439"><ele>495.0</ele><time>2026-04-19T08:18:58.842Z</time></trkpt><trkpt lat="43.7411867" lon="12.5115326"><ele>495.0</ele><time>2026-04-19T08:18:59.839Z</time></trkpt><trkpt lat="43.7411607" lon="12.5116657"><ele>495.0</ele><time>2026-04-19T08:19:00.837Z</time></trkpt><trkpt lat="43.7411433" lon="12.5118074"><ele>495.0</ele><time>2026-04-19T08:19:01.837Z</time></trkpt><trkpt lat="43.7411239" lon="12.5119358"><ele>495.0</ele><time>2026-04-19T08:19:02.842Z</time></trkpt><trkpt lat="43.7410947" lon="12.5120354"><ele>495.0</ele><time>2026-04-19T08:19:03.837Z</time></trkpt><trkpt lat="43.741044" lon="12.5121156"><ele>495.0</ele><time>2026-04-19T08:19:04.834Z</time></trkpt><trkpt lat="43.7409564" lon="12.5121835"><ele>495.0</ele><time>2026-04-19T08:19:05.841Z</time></trkpt><trkpt lat="43.740832" lon="12.512245"><ele>495.0</ele><time>2026-04-19T08:19:06.842Z</time></trkpt><trkpt lat="43.740688" lon="12.512329"><ele>493.0</ele><time>2026-04-19T08:19:07.842Z</time></trkpt><trkpt lat="43.7405469" lon="12.5124031"><ele>491.0</ele><time>2026-04-19T08:19:08.84Z</time></trkpt><trkpt lat="43.7404163" lon="12.5124707"><ele>489.0</ele><time>2026-04-19T08:19:09.839Z</time></trkpt><trkpt lat="43.7402959" lon="12.5125438"><ele>487.0</ele><time>2026-04-19T08:19:10.838Z</time></trkpt><trkpt lat="43.7401874" lon="12.5126125"><ele>485.20000000000005</ele><time>2026-04-19T08:19:11.852Z</time></trkpt><trkpt lat="43.7400926" lon="12.5126783"><ele>483.40000000000003</ele><time>2026-04-19T08:19:12.838Z</time></trkpt><trkpt lat="43.7400109" lon="12.5127462"><ele>481.59999999999997</ele><time>2026-04-19T08:19:13.842Z</time></trkpt><trkpt lat="43.7399386" lon="12.5128321"><ele>479.79999999999995</ele><time>2026-04-19T08:19:14.838Z</time></trkpt><trkpt lat="43.7398798" lon="12.5129385"><ele>478.0</ele><time>2026-04-19T08:19:15.841Z</time></trkpt><trkpt lat="43.739845" lon="12.5130675"><ele>478.0</ele><time>2026-04-19T08:19:16.849Z</time></trkpt><trkpt lat="43.7398291" lon="12.5132135"><ele>478.0</ele><time>2026-04-19T08:19:17.843Z</time></trkpt><trkpt lat="43.7398135" lon="12.5133733"><ele>478.0</ele><time>2026-04-19T08:19:18.839Z</time></trkpt><trkpt lat="43.7397974" lon="12.5135483"><ele>478.0</ele><time>2026-04-19T08:19:19.843Z</time></trkpt><trkpt lat="43.7397768" lon="12.5137"><ele>477.79999999999995</ele><time>2026-04-19T08:19:20.841Z</time></trkpt><trkpt lat="43.7397606" lon="12.513833"><ele>477.59999999999997</ele><time>2026-04-19T08:19:21.845Z</time></trkpt><trkpt lat="43.7397429" lon="12.5139496"><ele>477.40000000000003</ele><time>2026-04-19T08:19:22.841Z</time></trkpt><trkpt lat="43.7396832" lon="12.5140527"><ele>477.20000000000005</ele><time>2026-04-19T08:19:23.839Z</time></trkpt><trkpt lat="43.7395745" lon="12.5141349"><ele>477.0</ele><time>2026-04-19T08:19:24.845Z</time></trkpt><trkpt lat="43.7394592" lon="12.5142042"><ele>472.75</ele><time>2026-04-19T08:19:25.844Z</time></trkpt><trkpt lat="43.7393502" lon="12.5142746"><ele>468.5</ele><time>2026-04-19T08:19:26.844Z</time></trkpt><trkpt lat="43.7392462" lon="12.5143694"><ele>464.25</ele><time>2026-04-19T08:19:27.849Z</time></trkpt><trkpt lat="43.7391396" lon="12.5145017"><ele>460.0</ele><time>2026-04-19T08:19:28.844Z</time></trkpt><trkpt lat="43.7390219" lon="12.5146552"><ele>460.0</ele><time>2026-04-19T08:19:29.841Z</time></trkpt><trkpt lat="43.7388839" lon="12.5148292"><ele>460.0</ele><time>2026-04-19T08:19:30.848Z</time></trkpt><trkpt lat="43.738748" lon="12.5149925"><ele>460.0</ele><time>2026-04-19T08:19:31.842Z</time></trkpt><trkpt lat="43.7386126" lon="12.5151462"><ele>454.25</ele><time>2026-04-19T08:19:32.848Z</time></trkpt><trkpt lat="43.7384926" lon="12.5152832"><ele>448.5</ele><time>2026-04-19T08:19:33.842Z</time></trkpt><trkpt lat="43.7383859" lon="12.5154163"><ele>442.75</ele><time>2026-04-19T08:19:34.845Z</time></trkpt><trkpt lat="43.7382928" lon="12.5155392"><ele>437.0</ele><time>2026-04-19T08:19:35.867Z</time></trkpt><trkpt lat="43.738217" lon="12.5156396"><ele>436.99999999999994</ele><time>2026-04-19T08:19:36.838Z</time></trkpt><trkpt lat="43.7381501" lon="12.5157168"><ele>437.0</ele><time>2026-04-19T08:19:37.854Z</time></trkpt><trkpt lat="43.7381041" lon="12.5157832"><ele>437.0</ele><time>2026-04-19T08:19:38.844Z</time></trkpt><trkpt lat="43.7380813" lon="12.5159321"><ele>437.0</ele><time>2026-04-19T08:19:40.845Z</time></trkpt><trkpt lat="43.7381198" lon="12.516002"><ele>436.99999999999994</ele><time>2026-04-19T08:19:41.849Z</time></trkpt><trkpt lat="43.7381829" lon="12.5160443"><ele>437.0</ele><time>2026-04-19T08:19:42.85Z</time></trkpt><trkpt lat="43.7382686" lon="12.5160663"><ele>437.0</ele><time>2026-04-19T08:19:43.842Z</time></trkpt><trkpt lat="43.7383815" lon="12.516077"><ele>437.0</ele><time>2026-04-19T08:19:44.842Z</time></trkpt><trkpt lat="43.7385143" lon="12.5160915"><ele>437.0</ele><time>2026-04-19T08:19:45.844Z</time></trkpt><trkpt lat="43.7386539" lon="12.5160962"><ele>437.0</ele><time>2026-04-19T08:19:46.844Z</time></trkpt><trkpt lat="43.7387799" lon="12.5160964"><ele>437.75</ele><time>2026-04-19T08:19:47.843Z</time></trkpt><trkpt lat="43.7388949" lon="12.5161242"><ele>438.5</ele><time>2026-04-19T08:19:48.842Z</time></trkpt><trkpt lat="43.7390044" lon="12.5161809"><ele>439.25</ele><time>2026-04-19T08:19:49.851Z</time></trkpt><trkpt lat="43.7391092" lon="12.5162312"><ele>440.0</ele><time>2026-04-19T08:19:50.864Z</time></trkpt><trkpt lat="43.7392138" lon="12.5162618"><ele>434.75</ele><time>2026-04-19T08:19:51.84Z</time></trkpt><trkpt lat="43.7393415" lon="12.5162712"><ele>429.5</ele><time>2026-04-19T08:19:52.849Z</time></trkpt><trkpt lat="43.7394888" lon="12.5162637"><ele>424.25</ele><time>2026-04-19T08:19:53.836Z</time></trkpt><trkpt lat="43.7396386" lon="12.5162661"><ele>419.0</ele><time>2026-04-19T08:19:54.84Z</time></trkpt><trkpt lat="43.7397503" lon="12.5162846"><ele>419.0</ele><time>2026-04-19T08:19:55.847Z</time></trkpt><trkpt lat="43.7398388" lon="12.516326"><ele>419.0</ele><time>2026-04-19T08:19:56.838Z</time></trkpt><trkpt lat="43.739924" lon="12.5163933"><ele>419.0</ele><time>2026-04-19T08:19:57.845Z</time></trkpt><trkpt lat="43.7399953" lon="12.5165174"><ele>419.0</ele><time>2026-04-19T08:19:58.838Z</time></trkpt><trkpt lat="43.7400659" lon="12.5166295"><ele>419.0</ele><time>2026-04-19T08:19:59.838Z</time></trkpt><trkpt lat="43.7401477" lon="12.5167031"><ele>417.79999999999995</ele><time>2026-04-19T08:20:00.839Z</time></trkpt><trkpt lat="43.7402272" lon="12.5167452"><ele>416.59999999999997</ele><time>2026-04-19T08:20:01.838Z</time></trkpt><trkpt lat="43.7403055" lon="12.5167526"><ele>415.4</ele><time>2026-04-19T08:20:02.845Z</time></trkpt><trkpt lat="43.740392" lon="12.5167147"><ele>414.2</ele><time>2026-04-19T08:20:03.837Z</time></trkpt><trkpt lat="43.7404969" lon="12.5166435"><ele>413.0</ele><time>2026-04-19T08:20:04.854Z</time></trkpt><trkpt lat="43.7405961" lon="12.516597"><ele>413.0</ele><time>2026-04-19T08:20:05.845Z</time></trkpt><trkpt lat="43.7407138" lon="12.5165746"><ele>413.0</ele><time>2026-04-19T08:20:06.847Z</time></trkpt><trkpt lat="43.7408198" lon="12.5165911"><ele>413.0</ele><time>2026-04-19T08:20:07.838Z</time></trkpt><trkpt lat="43.7409033" lon="12.5165946"><ele>413.0</ele><time>2026-04-19T08:20:08.84Z</time></trkpt><trkpt lat="43.7409728" lon="12.5165617"><ele>413.0</ele><time>2026-04-19T08:20:09.839Z</time></trkpt><trkpt lat="43.7410442" lon="12.5165026"><ele>409.66666666666663</ele><time>2026-04-19T08:20:10.84Z</time></trkpt><trkpt lat="43.7411301" lon="12.5164504"><ele>406.3333333333333</ele><time>2026-04-19T08:20:11.855Z</time></trkpt><trkpt lat="43.7412124" lon="12.5164595"><ele>403.0</ele><time>2026-04-19T08:20:12.842Z</time></trkpt><trkpt lat="43.7412861" lon="12.5164995"><ele>399.66666666666663</ele><time>2026-04-19T08:20:13.842Z</time></trkpt><trkpt lat="43.7413484" lon="12.5165327"><ele>396.3333333333333</ele><time>2026-04-19T08:20:14.843Z</time></trkpt><trkpt lat="43.7414437" lon="12.5164732"><ele>393.0</ele><time>2026-04-19T08:20:16.84Z</time></trkpt><trkpt lat="43.7414946" lon="12.5163794"><ele>393.0</ele><time>2026-04-19T08:20:17.871Z</time></trkpt><trkpt lat="43.7415238" lon="12.5162581"><ele>393.0</ele><time>2026-04-19T08:20:18.842Z</time></trkpt><trkpt lat="43.7415452" lon="12.5161455"><ele>393.0</ele><time>2026-04-19T08:20:19.843Z</time></trkpt><trkpt lat="43.7415678" lon="12.5160573"><ele>393.0</ele><time>2026-04-19T08:20:20.844Z</time></trkpt><trkpt lat="43.7416725" lon="12.515991"><ele>393.0</ele><time>2026-04-19T08:20:22.838Z</time></trkpt><trkpt lat="43.741768" lon="12.5159875"><ele>394.2</ele><time>2026-04-19T08:20:23.84Z</time></trkpt><trkpt lat="43.7418478" lon="12.5159784"><ele>395.4</ele><time>2026-04-19T08:20:24.856Z</time></trkpt><trkpt lat="43.7419061" lon="12.5159191"><ele>396.59999999999997</ele><time>2026-04-19T08:20:25.834Z</time></trkpt><trkpt lat="43.7419769" lon="12.5158304"><ele>397.79999999999995</ele><time>2026-04-19T08:20:26.843Z</time></trkpt><trkpt lat="43.7420704" lon="12.5157299"><ele>399.0</ele><time>2026-04-19T08:20:27.838Z</time></trkpt><trkpt lat="43.7421871" lon="12.5156108"><ele>399.0</ele><time>2026-04-19T08:20:28.841Z</time></trkpt><trkpt lat="43.7423087" lon="12.5155243"><ele>399.0</ele><time>2026-04-19T08:20:29.843Z</time></trkpt><trkpt lat="43.7424185" lon="12.5154635"><ele>399.0</ele><time>2026-04-19T08:20:30.841Z</time></trkpt><trkpt lat="43.7425269" lon="12.5154267"><ele>399.0</ele><time>2026-04-19T08:20:31.841Z</time></trkpt><trkpt lat="43.7426428" lon="12.5153926"><ele>399.2</ele><time>2026-04-19T08:20:32.84Z</time></trkpt><trkpt lat="43.7427577" lon="12.5153877"><ele>399.4</ele><time>2026-04-19T08:20:33.839Z</time></trkpt><trkpt lat="43.7428646" lon="12.5153997"><ele>399.6</ele><time>2026-04-19T08:20:34.842Z</time></trkpt><trkpt lat="43.7429616" lon="12.5154146"><ele>399.8</ele><time>2026-04-19T08:20:35.841Z</time></trkpt><trkpt lat="43.7430473" lon="12.5154638"><ele>400.0</ele><time>2026-04-19T08:20:36.864Z</time></trkpt><trkpt lat="43.7431197" lon="12.5155091"><ele>400.00000000000006</ele><time>2026-04-19T08:20:37.84Z</time></trkpt><trkpt lat="43.7431726" lon="12.5155622"><ele>400.0</ele><time>2026-04-19T08:20:38.844Z</time></trkpt><trkpt lat="43.7432173" lon="12.5156319"><ele>400.0</ele><time>2026-04-19T08:20:39.844Z</time></trkpt><trkpt lat="43.7432638" lon="12.5157117"><ele>400.0</ele><time>2026-04-19T08:20:40.843Z</time></trkpt><trkpt lat="43.7433122" lon="12.5157979"><ele>400.00000000000006</ele><time>2026-04-19T08:20:41.847Z</time></trkpt><trkpt lat="43.743356" lon="12.5158984"><ele>400.0</ele><time>2026-04-19T08:20:42.84Z</time></trkpt><trkpt lat="43.743419" lon="12.5160074"><ele>400.00000000000006</ele><time>2026-04-19T08:20:43.84Z</time></trkpt><trkpt lat="43.7434851" lon="12.5161122"><ele>400.0</ele><time>2026-04-19T08:20:44.84Z</time></trkpt><trkpt lat="43.7435443" lon="12.5162073"><ele>400.0</ele><time>2026-04-19T08:20:45.844Z</time></trkpt><trkpt lat="43.7436015" lon="12.5163052"><ele>400.0</ele><time>2026-04-19T08:20:46.872Z</time></trkpt><trkpt lat="43.7436521" lon="12.5163885"><ele>400.00000000000006</ele><time>2026-04-19T08:20:47.842Z</time></trkpt><trkpt lat="43.7436906" lon="12.5164738"><ele>400.0</ele><time>2026-04-19T08:20:48.848Z</time></trkpt><trkpt lat="43.7437247" lon="12.5165522"><ele>400.8</ele><time>2026-04-19T08:20:49.844Z</time></trkpt><trkpt lat="43.743801" lon="12.5166664"><ele>401.6</ele><time>2026-04-19T08:20:51.856Z</time></trkpt><trkpt lat="43.7438882" lon="12.5167707"><ele>402.4</ele><time>2026-04-19T08:20:53.84Z</time></trkpt><trkpt lat="43.7439324" lon="12.5168344"><ele>403.2</ele><time>2026-04-19T08:20:54.843Z</time></trkpt><trkpt lat="43.7439919" lon="12.5169132"><ele>404.0</ele><time>2026-04-19T08:20:55.841Z</time></trkpt><trkpt lat="43.7440544" lon="12.5169858"><ele>404.0</ele><time>2026-04-19T08:20:56.846Z</time></trkpt><trkpt lat="43.7441083" lon="12.5170451"><ele>404.0</ele><time>2026-04-19T08:20:57.849Z</time></trkpt><trkpt lat="43.744199" lon="12.5171587"><ele>404.0</ele><time>2026-04-19T08:20:59.851Z</time></trkpt><trkpt lat="43.7442565" lon="12.5172973"><ele>404.0</ele><time>2026-04-19T08:21:01.841Z</time></trkpt><trkpt lat="43.7442538" lon="12.5174738"><ele>404.0</ele><time>2026-04-19T08:21:03.853Z</time></trkpt><trkpt lat="43.7443097" lon="12.517621"><ele>404.2</ele><time>2026-04-19T08:21:05.845Z</time></trkpt><trkpt lat="43.7443588" lon="12.5176776"><ele>404.4</ele><time>2026-04-19T08:21:06.841Z</time></trkpt><trkpt lat="43.7444112" lon="12.5177295"><ele>404.6</ele><time>2026-04-19T08:21:07.843Z</time></trkpt><trkpt lat="43.7445014" lon="12.517843"><ele>404.8</ele><time>2026-04-19T08:21:09.84Z</time></trkpt><trkpt lat="43.744565" lon="12.5179756"><ele>405.0</ele><time>2026-04-19T08:21:11.84Z</time></trkpt><trkpt lat="43.7445862" lon="12.518106"><ele>405.0</ele><time>2026-04-19T08:21:13.842Z</time></trkpt><trkpt lat="43.744599" lon="12.518215"><ele>405.0</ele><time>2026-04-19T08:21:15.86Z</time></trkpt><trkpt lat="43.7446092" lon="12.5183282"><ele>405.0</ele><time>2026-04-19T08:21:17.844Z</time></trkpt><trkpt lat="43.7446178" lon="12.5184715"><ele>405.0</ele><time>2026-04-19T08:21:19.841Z</time></trkpt><trkpt lat="43.7445981" lon="12.5186289"><ele>405.0</ele><time>2026-04-19T08:21:21.845Z</time></trkpt><trkpt lat="43.7445606" lon="12.5187655"><ele>400.66666666666663</ele><time>2026-04-19T08:21:23.842Z</time></trkpt><trkpt lat="43.744481" lon="12.5192193"><ele>396.3333333333333</ele><time>2026-04-19T08:21:35.843Z</time></trkpt><trkpt lat="43.7444527" lon="12.5193666"><ele>392.0</ele><time>2026-04-19T08:21:36.844Z</time></trkpt><trkpt lat="43.7444286" lon="12.5194637"><ele>388.6</ele><time>2026-04-19T08:21:37.837Z</time></trkpt><trkpt lat="43.7443818" lon="12.5195939"><ele>385.20000000000005</ele><time>2026-04-19T08:21:39.841Z</time></trkpt><trkpt lat="43.7443335" lon="12.5197136"><ele>381.8</ele><time>2026-04-19T08:21:41.84Z</time></trkpt><trkpt lat="43.7442563" lon="12.5198424"><ele>378.4</ele><time>2026-04-19T08:21:43.841Z</time></trkpt><trkpt lat="43.7441712" lon="12.519954"><ele>375.0</ele><time>2026-04-19T08:21:45.857Z</time></trkpt><trkpt lat="43.744082" lon="12.520072"><ele>373.1666666666667</ele><time>2026-04-19T08:21:47.842Z</time></trkpt><trkpt lat="43.7439937" lon="12.520179"><ele>371.3333333333333</ele><time>2026-04-19T08:21:49.843Z</time></trkpt><trkpt lat="43.743922" lon="12.5202394"><ele>369.5</ele><time>2026-04-19T08:21:51.843Z</time></trkpt><trkpt lat="43.7438534" lon="12.5202403"><ele>367.66666666666663</ele><time>2026-04-19T08:21:53.856Z</time></trkpt><trkpt lat="43.7437969" lon="12.5201892"><ele>365.8333333333333</ele><time>2026-04-19T08:21:56.844Z</time></trkpt><trkpt lat="43.743767" lon="12.5202763"><ele>364.0</ele><time>2026-04-19T08:22:19.912Z</time></trkpt><trkpt lat="43.743837" lon="12.5203222"><ele>364.0</ele><time>2026-04-19T08:22:22.849Z</time></trkpt><trkpt lat="43.7439373" lon="12.5202483"><ele>364.0</ele><time>2026-04-19T08:22:24.842Z</time></trkpt><trkpt lat="43.7440068" lon="12.520174"><ele>364.0</ele><time>2026-04-19T08:22:25.842Z</time></trkpt><trkpt lat="43.7440694" lon="12.5201044"><ele>364.0</ele><time>2026-04-19T08:22:26.841Z</time></trkpt><trkpt lat="43.7441236" lon="12.5200365"><ele>364.0</ele><time>2026-04-19T08:22:27.852Z</time></trkpt><trkpt lat="43.7441691" lon="12.5199721"><ele>364.0</ele><time>2026-04-19T08:22:28.844Z</time></trkpt><trkpt lat="43.7442488" lon="12.5198601"><ele>364.0</ele><time>2026-04-19T08:22:30.842Z</time></trkpt><trkpt lat="43.7443249" lon="12.5197465"><ele>364.0</ele><time>2026-04-19T08:22:32.843Z</time></trkpt><trkpt lat="43.7443825" lon="12.5196146"><ele>364.0</ele><time>2026-04-19T08:22:34.841Z</time></trkpt><trkpt lat="43.7444287" lon="12.5194801"><ele>364.0</ele><time>2026-04-19T08:22:36.839Z</time></trkpt><trkpt lat="43.7444721" lon="12.5193251"><ele>369.6</ele><time>2026-04-19T08:22:38.84Z</time></trkpt><trkpt lat="43.7444879" lon="12.5192376"><ele>375.2</ele><time>2026-04-19T08:22:39.841Z</time></trkpt><trkpt lat="43.7445083" lon="12.5190769"><ele>380.8</ele><time>2026-04-19T08:22:41.844Z</time></trkpt><trkpt lat="43.7445371" lon="12.5189463"><ele>386.40000000000003</ele><time>2026-04-19T08:22:43.841Z</time></trkpt><trkpt lat="43.7445472" lon="12.5188129"><ele>392.0</ele><time>2026-04-19T08:22:45.842Z</time></trkpt><trkpt lat="43.7445689" lon="12.5186856"><ele>394.6</ele><time>2026-04-19T08:22:47.845Z</time></trkpt><trkpt lat="43.7445883" lon="12.5185941"><ele>397.20000000000005</ele><time>2026-04-19T08:22:48.849Z</time></trkpt><trkpt lat="43.744602" lon="12.5185031"><ele>399.8</ele><time>2026-04-19T08:22:49.843Z</time></trkpt><trkpt lat="43.7446039" lon="12.5183396"><ele>402.4</ele><time>2026-04-19T08:22:51.838Z</time></trkpt><trkpt lat="43.7445831" lon="12.5181894"><ele>405.0</ele><time>2026-04-19T08:22:53.84Z</time></trkpt><trkpt lat="43.7445649" lon="12.5180455"><ele>405.0</ele><time>2026-04-19T08:22:55.84Z</time></trkpt><trkpt lat="43.7445464" lon="12.5179597"><ele>405.0</ele><time>2026-04-19T08:23:00.85Z</time></trkpt><trkpt lat="43.7446737" lon="12.5180899"><ele>405.0</ele><time>2026-04-19T08:23:14.842Z</time></trkpt><trkpt lat="43.7447618" lon="12.5182115"><ele>405.0</ele><time>2026-04-19T08:23:15.843Z</time></trkpt><trkpt lat="43.7448395" lon="12.5182994"><ele>405.0</ele><time>2026-04-19T08:23:16.841Z</time></trkpt><trkpt lat="43.7449049" lon="12.5183821"><ele>405.0</ele><time>2026-04-19T08:23:17.837Z</time></trkpt><trkpt lat="43.7450005" lon="12.5184659"><ele>405.0</ele><time>2026-04-19T08:23:18.84Z</time></trkpt><trkpt lat="43.7451059" lon="12.5185588"><ele>405.0</ele><time>2026-04-19T08:23:19.841Z</time></trkpt><trkpt lat="43.7451811" lon="12.518678"><ele>405.0</ele><time>2026-04-19T08:23:20.841Z</time></trkpt><trkpt lat="43.7452374" lon="12.5187919"><ele>405.1666666666667</ele><time>2026-04-19T08:23:21.84Z</time></trkpt><trkpt lat="43.7452891" lon="12.5188812"><ele>405.33333333333337</ele><time>2026-04-19T08:23:22.84Z</time></trkpt><trkpt lat="43.7453386" lon="12.5189413"><ele>405.5</ele><time>2026-04-19T08:23:23.835Z</time></trkpt><trkpt lat="43.7453938" lon="12.518991"><ele>405.6666666666667</ele><time>2026-04-19T08:23:24.844Z</time></trkpt><trkpt lat="43.7454558" lon="12.5190427"><ele>405.83333333333337</ele><time>2026-04-19T08:23:25.833Z</time></trkpt><trkpt lat="43.7455273" lon="12.5190984"><ele>406.0</ele><time>2026-04-19T08:23:26.837Z</time></trkpt><trkpt lat="43.7456367" lon="12.5191166"><ele>406.0</ele><time>2026-04-19T08:23:28.837Z</time></trkpt><trkpt lat="43.7457389" lon="12.5190275"><ele>406.0</ele><time>2026-04-19T08:23:30.838Z</time></trkpt><trkpt lat="43.7458041" lon="12.5189463"><ele>406.0</ele><time>2026-04-19T08:23:31.838Z</time></trkpt><trkpt lat="43.7458713" lon="12.5188382"><ele>406.0</ele><time>2026-04-19T08:23:32.84Z</time></trkpt><trkpt lat="43.7459408" lon="12.5187218"><ele>406.0</ele><time>2026-04-19T08:23:33.836Z</time></trkpt><trkpt lat="43.7460145" lon="12.5186076"><ele>406.8</ele><time>2026-04-19T08:23:34.849Z</time></trkpt><trkpt lat="43.7460882" lon="12.5185237"><ele>407.6</ele><time>2026-04-19T08:23:35.84Z</time></trkpt><trkpt lat="43.7461617" lon="12.5184563"><ele>408.4</ele><time>2026-04-19T08:23:36.838Z</time></trkpt><trkpt lat="43.7462303" lon="12.5183748"><ele>409.2</ele><time>2026-04-19T08:23:37.838Z</time></trkpt><trkpt lat="43.7462874" lon="12.5182782"><ele>410.0</ele><time>2026-04-19T08:23:38.84Z</time></trkpt><trkpt lat="43.7463323" lon="12.5181687"><ele>410.0</ele><time>2026-04-19T08:23:39.843Z</time></trkpt><trkpt lat="43.746367" lon="12.5180415"><ele>410.0</ele><time>2026-04-19T08:23:40.836Z</time></trkpt><trkpt lat="43.7464044" lon="12.5179134"><ele>410.0</ele><time>2026-04-19T08:23:41.853Z</time></trkpt><trkpt lat="43.7464544" lon="12.5178009"><ele>410.0</ele><time>2026-04-19T08:23:42.839Z</time></trkpt><trkpt lat="43.7465115" lon="12.5177052"><ele>410.0</ele><time>2026-04-19T08:23:43.838Z</time></trkpt><trkpt lat="43.7465757" lon="12.5176257"><ele>413.2</ele><time>2026-04-19T08:23:44.837Z</time></trkpt><trkpt lat="43.7466503" lon="12.5175603"><ele>416.4</ele><time>2026-04-19T08:23:45.837Z</time></trkpt><trkpt lat="43.746735" lon="12.5174946"><ele>419.6</ele><time>2026-04-19T08:23:46.837Z</time></trkpt><trkpt lat="43.7468384" lon="12.5174376"><ele>422.8</ele><time>2026-04-19T08:23:47.84Z</time></trkpt><trkpt lat="43.7469467" lon="12.5173914"><ele>426.0</ele><time>2026-04-19T08:23:48.843Z</time></trkpt><trkpt lat="43.74705" lon="12.517349"><ele>426.0</ele><time>2026-04-19T08:23:49.838Z</time></trkpt><trkpt lat="43.7471544" lon="12.5173007"><ele>426.0</ele><time>2026-04-19T08:23:50.854Z</time></trkpt><trkpt lat="43.7472592" lon="12.5172421"><ele>426.0</ele><time>2026-04-19T08:23:51.836Z</time></trkpt><trkpt lat="43.7473659" lon="12.5171859"><ele>426.0</ele><time>2026-04-19T08:23:52.839Z</time></trkpt><trkpt lat="43.74748" lon="12.5171413"><ele>426.0</ele><time>2026-04-19T08:23:53.845Z</time></trkpt><trkpt lat="43.7475829" lon="12.5171108"><ele>426.0</ele><time>2026-04-19T08:23:54.837Z</time></trkpt><trkpt lat="43.7476644" lon="12.5170721"><ele>426.0</ele><time>2026-04-19T08:23:55.857Z</time></trkpt><trkpt lat="43.7477324" lon="12.517028"><ele>426.0</ele><time>2026-04-19T08:23:56.842Z</time></trkpt><trkpt lat="43.7478261" lon="12.5169516"><ele>426.0</ele><time>2026-04-19T08:23:58.852Z</time></trkpt><trkpt lat="43.7478932" lon="12.5169202"><ele>426.0</ele><time>2026-04-19T08:24:00.868Z</time></trkpt><trkpt lat="43.7479632" lon="12.5169571"><ele>426.0</ele><time>2026-04-19T08:24:02.844Z</time></trkpt><trkpt lat="43.748051" lon="12.5169888"><ele>426.0</ele><time>2026-04-19T08:24:04.843Z</time></trkpt><trkpt lat="43.7481223" lon="12.5170098"><ele>426.0</ele><time>2026-04-19T08:24:05.843Z</time></trkpt><trkpt lat="43.7482064" lon="12.5170237"><ele>426.0</ele><time>2026-04-19T08:24:06.842Z</time></trkpt><trkpt lat="43.7482819" lon="12.5170288"><ele>426.0</ele><time>2026-04-19T08:24:07.845Z</time></trkpt><trkpt lat="43.7484016" lon="12.5170001"><ele>426.0</ele><time>2026-04-19T08:24:09.844Z</time></trkpt><trkpt lat="43.7484762" lon="12.5169776"><ele>427.1666666666667</ele><time>2026-04-19T08:24:10.864Z</time></trkpt><trkpt lat="43.7485965" lon="12.5169898"><ele>428.33333333333337</ele><time>2026-04-19T08:24:12.84Z</time></trkpt><trkpt lat="43.7486543" lon="12.5170323"><ele>429.5</ele><time>2026-04-19T08:24:13.841Z</time></trkpt><trkpt lat="43.748712" lon="12.5170865"><ele>430.6666666666667</ele><time>2026-04-19T08:24:14.855Z</time></trkpt><trkpt lat="43.7487692" lon="12.5171345"><ele>431.83333333333337</ele><time>2026-04-19T08:24:15.84Z</time></trkpt><trkpt lat="43.748826" lon="12.517182"><ele>433.0</ele><time>2026-04-19T08:24:16.873Z</time></trkpt><trkpt lat="43.7488874" lon="12.5172422"><ele>433.00000000000006</ele><time>2026-04-19T08:24:17.848Z</time></trkpt><trkpt lat="43.7489469" lon="12.5173281"><ele>433.0</ele><time>2026-04-19T08:24:18.854Z</time></trkpt><trkpt lat="43.749003" lon="12.5174069"><ele>433.0</ele><time>2026-04-19T08:24:19.841Z</time></trkpt><trkpt lat="43.7490596" lon="12.5174626"><ele>433.0</ele><time>2026-04-19T08:24:20.854Z</time></trkpt><trkpt lat="43.7491542" lon="12.5175673"><ele>433.00000000000006</ele><time>2026-04-19T08:24:22.842Z</time></trkpt><trkpt lat="43.7492086" lon="12.5176612"><ele>433.0</ele><time>2026-04-19T08:24:23.859Z</time></trkpt><trkpt lat="43.7492641" lon="12.5177664"><ele>433.0</ele><time>2026-04-19T08:24:24.847Z</time></trkpt><trkpt lat="43.749307" lon="12.5178848"><ele>432.99999999999994</ele><time>2026-04-19T08:24:25.854Z</time></trkpt><trkpt lat="43.7493494" lon="12.5180038"><ele>432.99999999999994</ele><time>2026-04-19T08:24:26.849Z</time></trkpt><trkpt lat="43.7493882" lon="12.5181405"><ele>433.0</ele><time>2026-04-19T08:24:27.844Z</time></trkpt><trkpt lat="43.7494389" lon="12.5182588"><ele>433.0</ele><time>2026-04-19T08:24:28.844Z</time></trkpt><trkpt lat="43.7495048" lon="12.5183403"><ele>428.59999999999997</ele><time>2026-04-19T08:24:29.837Z</time></trkpt><trkpt lat="43.749586" lon="12.5184143"><ele>424.19999999999993</ele><time>2026-04-19T08:24:30.837Z</time></trkpt><trkpt lat="43.7496635" lon="12.5184787"><ele>419.8</ele><time>2026-04-19T08:24:31.846Z</time></trkpt><trkpt lat="43.7497215" lon="12.5185363"><ele>415.4</ele><time>2026-04-19T08:24:32.842Z</time></trkpt><trkpt lat="43.7498137" lon="12.5186643"><ele>411.0</ele><time>2026-04-19T08:24:34.842Z</time></trkpt><trkpt lat="43.7498653" lon="12.5187724"><ele>411.0</ele><time>2026-04-19T08:24:35.845Z</time></trkpt><trkpt lat="43.7499172" lon="12.5188969"><ele>411.0</ele><time>2026-04-19T08:24:36.849Z</time></trkpt><trkpt lat="43.7499619" lon="12.51901"><ele>411.0</ele><time>2026-04-19T08:24:37.842Z</time></trkpt><trkpt lat="43.7499999" lon="12.5191085"><ele>411.0</ele><time>2026-04-19T08:24:38.866Z</time></trkpt><trkpt lat="43.7500257" lon="12.519194"><ele>411.0</ele><time>2026-04-19T08:24:39.844Z</time></trkpt><trkpt lat="43.7500353" lon="12.5192958"><ele>411.0</ele><time>2026-04-19T08:24:40.84Z</time></trkpt><trkpt lat="43.7500406" lon="12.5194061"><ele>411.0</ele><time>2026-04-19T08:24:41.84Z</time></trkpt><trkpt lat="43.7500493" lon="12.519515"><ele>411.0</ele><time>2026-04-19T08:24:42.853Z</time></trkpt><trkpt lat="43.7500765" lon="12.5196267"><ele>411.0</ele><time>2026-04-19T08:24:43.851Z</time></trkpt><trkpt lat="43.7501184" lon="12.5197615"><ele>411.0</ele><time>2026-04-19T08:24:44.867Z</time></trkpt><trkpt lat="43.750162" lon="12.5198898"><ele>411.0</ele><time>2026-04-19T08:24:45.848Z</time></trkpt><trkpt lat="43.7502041" lon="12.5200082"><ele>408.8</ele><time>2026-04-19T08:24:46.844Z</time></trkpt><trkpt lat="43.7502436" lon="12.5201204"><ele>406.6</ele><time>2026-04-19T08:24:47.846Z</time></trkpt><trkpt lat="43.7502826" lon="12.5202145"><ele>404.4</ele><time>2026-04-19T08:24:48.841Z</time></trkpt><trkpt lat="43.7503397" lon="12.520301"><ele>402.2</ele><time>2026-04-19T08:24:49.841Z</time></trkpt><trkpt lat="43.7504116" lon="12.5203981"><ele>400.0</ele><time>2026-04-19T08:24:50.847Z</time></trkpt><trkpt lat="43.7504801" lon="12.5205017"><ele>400.00000000000006</ele><time>2026-04-19T08:24:51.843Z</time></trkpt><trkpt lat="43.7505427" lon="12.5205822"><ele>400.0</ele><time>2026-04-19T08:24:52.865Z</time></trkpt><trkpt lat="43.7506065" lon="12.5206544"><ele>400.0</ele><time>2026-04-19T08:24:53.842Z</time></trkpt><trkpt lat="43.7506724" lon="12.520721"><ele>400.0</ele><time>2026-04-19T08:24:54.848Z</time></trkpt><trkpt lat="43.7507289" lon="12.5207868"><ele>400.00000000000006</ele><time>2026-04-19T08:24:55.84Z</time></trkpt><trkpt lat="43.7507864" lon="12.5208593"><ele>400.0</ele><time>2026-04-19T08:24:56.84Z</time></trkpt><trkpt lat="43.7508486" lon="12.5209362"><ele>400.0</ele><time>2026-04-19T08:24:57.846Z</time></trkpt><trkpt lat="43.7509091" lon="12.5210148"><ele>400.0</ele><time>2026-04-19T08:24:58.847Z</time></trkpt><trkpt lat="43.750956" lon="12.5210739"><ele>400.0</ele><time>2026-04-19T08:24:59.844Z</time></trkpt><trkpt lat="43.7510375" lon="12.5211664"><ele>400.0</ele><time>2026-04-19T08:25:01.847Z</time></trkpt><trkpt lat="43.7511021" lon="12.5212837"><ele>400.0</ele><time>2026-04-19T08:25:03.869Z</time></trkpt><trkpt lat="43.7511417" lon="12.5214016"><ele>395.8</ele><time>2026-04-19T08:25:05.842Z</time></trkpt><trkpt lat="43.7511495" lon="12.5215892"><ele>391.6</ele><time>2026-04-19T08:25:08.853Z</time></trkpt><trkpt lat="43.7511757" lon="12.5216791"><ele>387.4</ele><time>2026-04-19T08:25:09.852Z</time></trkpt><trkpt lat="43.7512245" lon="12.5217695"><ele>383.2</ele><time>2026-04-19T08:25:10.861Z</time></trkpt><trkpt lat="43.7512825" lon="12.5218633"><ele>379.0</ele><time>2026-04-19T08:25:11.851Z</time></trkpt><trkpt lat="43.7513351" lon="12.5219485"><ele>379.0</ele><time>2026-04-19T08:25:12.849Z</time></trkpt><trkpt lat="43.7513836" lon="12.5220323"><ele>379.0</ele><time>2026-04-19T08:25:13.842Z</time></trkpt><trkpt lat="43.7514292" lon="12.5221031"><ele>379.0</ele><time>2026-04-19T08:25:14.843Z</time></trkpt><trkpt lat="43.7515249" lon="12.5222082"><ele>379.0</ele><time>2026-04-19T08:25:16.844Z</time></trkpt><trkpt lat="43.7516144" lon="12.5222907"><ele>379.0</ele><time>2026-04-19T08:25:18.843Z</time></trkpt><trkpt lat="43.7516656" lon="12.5223929"><ele>376.4</ele><time>2026-04-19T08:25:20.845Z</time></trkpt><trkpt lat="43.7517166" lon="12.5225646"><ele>373.79999999999995</ele><time>2026-04-19T08:25:22.841Z</time></trkpt><trkpt lat="43.7517445" lon="12.5226969"><ele>371.20000000000005</ele><time>2026-04-19T08:25:23.842Z</time></trkpt><trkpt lat="43.7517722" lon="12.52283"><ele>368.6</ele><time>2026-04-19T08:25:24.844Z</time></trkpt><trkpt lat="43.7517956" lon="12.5229639"><ele>366.0</ele><time>2026-04-19T08:25:25.839Z</time></trkpt><trkpt lat="43.7518158" lon="12.5231061"><ele>363.0</ele><time>2026-04-19T08:25:26.879Z</time></trkpt><trkpt lat="43.7518227" lon="12.5232361"><ele>360.0</ele><time>2026-04-19T08:25:27.844Z</time></trkpt><trkpt lat="43.7518226" lon="12.5233633"><ele>357.0</ele><time>2026-04-19T08:25:28.845Z</time></trkpt><trkpt lat="43.7517993" lon="12.5234906"><ele>354.0</ele><time>2026-04-19T08:25:29.84Z</time></trkpt><trkpt lat="43.7517751" lon="12.523612"><ele>351.0</ele><time>2026-04-19T08:25:30.849Z</time></trkpt><trkpt lat="43.7517509" lon="12.5237253"><ele>348.6666666666667</ele><time>2026-04-19T08:25:31.847Z</time></trkpt><trkpt lat="43.7517285" lon="12.523831"><ele>346.3333333333333</ele><time>2026-04-19T08:25:32.869Z</time></trkpt><trkpt lat="43.7517075" lon="12.5239236"><ele>344.0</ele><time>2026-04-19T08:25:33.846Z</time></trkpt><trkpt lat="43.7517097" lon="12.5240838"><ele>341.66666666666663</ele><time>2026-04-19T08:25:35.847Z</time></trkpt><trkpt lat="43.7517335" lon="12.5241855"><ele>339.3333333333333</ele><time>2026-04-19T08:25:36.847Z</time></trkpt><trkpt lat="43.751766" lon="12.5242885"><ele>337.0</ele><time>2026-04-19T08:25:37.85Z</time></trkpt><trkpt lat="43.7517997" lon="12.5243768"><ele>337.0</ele><time>2026-04-19T08:25:38.848Z</time></trkpt><trkpt lat="43.7518397" lon="12.52445"><ele>337.0</ele><time>2026-04-19T08:25:39.884Z</time></trkpt><trkpt lat="43.7519215" lon="12.5245579"><ele>337.0</ele><time>2026-04-19T08:25:41.852Z</time></trkpt><trkpt lat="43.7519908" lon="12.5246329"><ele>337.0</ele><time>2026-04-19T08:25:43.85Z</time></trkpt><trkpt lat="43.7520395" lon="12.5247134"><ele>337.0</ele><time>2026-04-19T08:25:45.856Z</time></trkpt><trkpt lat="43.7521317" lon="12.5248458"><ele>335.8333333333333</ele><time>2026-04-19T08:25:47.847Z</time></trkpt><trkpt lat="43.7521961" lon="12.5249394"><ele>334.66666666666663</ele><time>2026-04-19T08:25:49.848Z</time></trkpt><trkpt lat="43.7522066" lon="12.5248532"><ele>333.5</ele><time>2026-04-19T08:25:53.824Z</time></trkpt><trkpt lat="43.7521337" lon="12.524801"><ele>332.3333333333333</ele><time>2026-04-19T08:25:54.852Z</time></trkpt><trkpt lat="43.7520515" lon="12.524749"><ele>331.1666666666667</ele><time>2026-04-19T08:25:55.843Z</time></trkpt><trkpt lat="43.7519703" lon="12.5246949"><ele>330.0</ele><time>2026-04-19T08:25:56.854Z</time></trkpt><trkpt lat="43.7519028" lon="12.5246356"><ele>331.4</ele><time>2026-04-19T08:25:57.844Z</time></trkpt><trkpt lat="43.751838" lon="12.5245626"><ele>332.8</ele><time>2026-04-19T08:25:58.851Z</time></trkpt><trkpt lat="43.7517728" lon="12.5244857"><ele>334.20000000000005</ele><time>2026-04-19T08:25:59.847Z</time></trkpt><trkpt lat="43.7517072" lon="12.5243859"><ele>335.6</ele><time>2026-04-19T08:26:00.842Z</time></trkpt><trkpt lat="43.7516474" lon="12.5242741"><ele>337.0</ele><time>2026-04-19T08:26:01.847Z</time></trkpt><trkpt lat="43.7515951" lon="12.5241726"><ele>337.0</ele><time>2026-04-19T08:26:02.843Z</time></trkpt><trkpt lat="43.751543" lon="12.5240736"><ele>337.0</ele><time>2026-04-19T08:26:03.844Z</time></trkpt><trkpt lat="43.7514975" lon="12.523965"><ele>337.0</ele><time>2026-04-19T08:26:04.84Z</time></trkpt><trkpt lat="43.7514488" lon="12.5238512"><ele>337.0</ele><time>2026-04-19T08:26:05.848Z</time></trkpt><trkpt lat="43.7514001" lon="12.5237439"><ele>337.0</ele><time>2026-04-19T08:26:06.843Z</time></trkpt><trkpt lat="43.7513365" lon="12.5236529"><ele>338.40000000000003</ele><time>2026-04-19T08:26:07.84Z</time></trkpt><trkpt lat="43.7512606" lon="12.5235642"><ele>339.8</ele><time>2026-04-19T08:26:08.844Z</time></trkpt><trkpt lat="43.7511792" lon="12.5234911"><ele>341.2</ele><time>2026-04-19T08:26:09.843Z</time></trkpt><trkpt lat="43.7511146" lon="12.5234361"><ele>342.6</ele><time>2026-04-19T08:26:10.841Z</time></trkpt><trkpt lat="43.7510359" lon="12.5233808"><ele>344.0</ele><time>2026-04-19T08:26:12.845Z</time></trkpt><trkpt lat="43.7509328" lon="12.5233875"><ele>344.0</ele><time>2026-04-19T08:26:14.842Z</time></trkpt><trkpt lat="43.7508653" lon="12.5233952"><ele>344.0</ele><time>2026-04-19T08:26:15.842Z</time></trkpt><trkpt lat="43.7507942" lon="12.5233961"><ele>344.0</ele><time>2026-04-19T08:26:16.846Z</time></trkpt><trkpt lat="43.7507286" lon="12.5233933"><ele>344.0</ele><time>2026-04-19T08:26:17.854Z</time></trkpt><trkpt lat="43.7506122" lon="12.5233897"><ele>344.0</ele><time>2026-04-19T08:26:19.857Z</time></trkpt><trkpt lat="43.7505069" lon="12.523416"><ele>344.0</ele><time>2026-04-19T08:26:21.848Z</time></trkpt><trkpt lat="43.7503995" lon="12.5234812"><ele>344.0</ele><time>2026-04-19T08:26:23.85Z</time></trkpt><trkpt lat="43.7503422" lon="12.5235185"><ele>344.0</ele><time>2026-04-19T08:26:24.85Z</time></trkpt><trkpt lat="43.7502861" lon="12.5235581"><ele>344.0</ele><time>2026-04-19T08:26:25.845Z</time></trkpt><trkpt lat="43.7501945" lon="12.5236151"><ele>344.0</ele><time>2026-04-19T08:26:27.845Z</time></trkpt><trkpt lat="43.7501013" lon="12.5236372"><ele>344.0</ele><time>2026-04-19T08:26:29.847Z</time></trkpt><trkpt lat="43.7499756" lon="12.5236331"><ele>344.0</ele><time>2026-04-19T08:26:31.847Z</time></trkpt><trkpt lat="43.7499066" lon="12.5236393"><ele>344.79999999999995</ele><time>2026-04-19T08:26:32.867Z</time></trkpt><trkpt lat="43.7498042" lon="12.5236705"><ele>345.59999999999997</ele><time>2026-04-19T08:26:34.847Z</time></trkpt><trkpt lat="43.7497294" lon="12.5237474"><ele>346.4</ele><time>2026-04-19T08:26:36.848Z</time></trkpt><trkpt lat="43.749659" lon="12.5239068"><ele>347.2</ele><time>2026-04-19T08:26:38.877Z</time></trkpt><trkpt lat="43.749621" lon="12.5240068"><ele>348.0</ele><time>2026-04-19T08:26:39.85Z</time></trkpt><trkpt lat="43.7495841" lon="12.5240949"><ele>346.6666666666667</ele><time>2026-04-19T08:26:40.85Z</time></trkpt><trkpt lat="43.7495469" lon="12.5241702"><ele>345.3333333333333</ele><time>2026-04-19T08:26:41.845Z</time></trkpt><trkpt lat="43.7495031" lon="12.5242406"><ele>344.0</ele><time>2026-04-19T08:26:42.847Z</time></trkpt><trkpt lat="43.7494488" lon="12.5243089"><ele>342.66666666666663</ele><time>2026-04-19T08:26:43.851Z</time></trkpt><trkpt lat="43.7493901" lon="12.5243796"><ele>341.3333333333333</ele><time>2026-04-19T08:26:44.851Z</time></trkpt><trkpt lat="43.7493355" lon="12.5244632"><ele>340.0</ele><time>2026-04-19T08:26:45.85Z</time></trkpt><trkpt lat="43.7492822" lon="12.5245534"><ele>336.4</ele><time>2026-04-19T08:26:46.864Z</time></trkpt><trkpt lat="43.7492183" lon="12.5246472"><ele>332.8</ele><time>2026-04-19T08:26:47.842Z</time></trkpt><trkpt lat="43.7491441" lon="12.5247388"><ele>329.20000000000005</ele><time>2026-04-19T08:26:48.848Z</time></trkpt><trkpt lat="43.749077" lon="12.5248176"><ele>325.6</ele><time>2026-04-19T08:26:49.846Z</time></trkpt><trkpt lat="43.7489899" lon="12.5248718"><ele>322.0</ele><time>2026-04-19T08:26:51.843Z</time></trkpt><trkpt lat="43.7488659" lon="12.5248928"><ele>322.0</ele><time>2026-04-19T08:26:53.856Z</time></trkpt><trkpt lat="43.748792" lon="12.5249393"><ele>322.0</ele><time>2026-04-19T08:26:54.846Z</time></trkpt><trkpt lat="43.7487134" lon="12.5250003"><ele>322.0</ele><time>2026-04-19T08:26:55.863Z</time></trkpt><trkpt lat="43.7486451" lon="12.5250509"><ele>322.0</ele><time>2026-04-19T08:26:56.85Z</time></trkpt><trkpt lat="43.7485797" lon="12.5250683"><ele>322.0</ele><time>2026-04-19T08:26:57.848Z</time></trkpt><trkpt lat="43.7484994" lon="12.5250695"><ele>322.0</ele><time>2026-04-19T08:26:58.849Z</time></trkpt><trkpt lat="43.7484183" lon="12.5250674"><ele>322.85714285714283</ele><time>2026-04-19T08:26:59.844Z</time></trkpt><trkpt lat="43.7483386" lon="12.5250545"><ele>323.7142857142857</ele><time>2026-04-19T08:27:00.864Z</time></trkpt><trkpt lat="43.7482673" lon="12.5250372"><ele>324.57142857142856</ele><time>2026-04-19T08:27:01.852Z</time></trkpt><trkpt lat="43.7482022" lon="12.5250145"><ele>325.42857142857144</ele><time>2026-04-19T08:27:02.849Z</time></trkpt><trkpt lat="43.7481343" lon="12.5249871"><ele>326.2857142857143</ele><time>2026-04-19T08:27:03.845Z</time></trkpt><trkpt lat="43.7480642" lon="12.5249553"><ele>327.1428571428571</ele><time>2026-04-19T08:27:04.854Z</time></trkpt><trkpt lat="43.7479917" lon="12.5249251"><ele>328.0</ele><time>2026-04-19T08:27:05.85Z</time></trkpt><trkpt lat="43.7479112" lon="12.524898"><ele>328.0</ele><time>2026-04-19T08:27:06.844Z</time></trkpt><trkpt lat="43.7478236" lon="12.5248747"><ele>328.0</ele><time>2026-04-19T08:27:07.852Z</time></trkpt><trkpt lat="43.7477397" lon="12.5248549"><ele>328.0</ele><time>2026-04-19T08:27:08.853Z</time></trkpt><trkpt lat="43.7476665" lon="12.5248392"><ele>328.0</ele><time>2026-04-19T08:27:09.848Z</time></trkpt><trkpt lat="43.7476032" lon="12.5248371"><ele>328.0</ele><time>2026-04-19T08:27:10.853Z</time></trkpt><trkpt lat="43.7474879" lon="12.5248833"><ele>328.0</ele><time>2026-04-19T08:27:12.845Z</time></trkpt><trkpt lat="43.7474264" lon="12.524927"><ele>325.8333333333333</ele><time>2026-04-19T08:27:13.848Z</time></trkpt><trkpt lat="43.7473652" lon="12.5249728"><ele>323.66666666666663</ele><time>2026-04-19T08:27:14.844Z</time></trkpt><trkpt lat="43.747309" lon="12.5250525"><ele>321.5</ele><time>2026-04-19T08:27:15.866Z</time></trkpt><trkpt lat="43.7472549" lon="12.5251439"><ele>319.3333333333333</ele><time>2026-04-19T08:27:16.842Z</time></trkpt><trkpt lat="43.7472128" lon="12.5252442"><ele>317.1666666666667</ele><time>2026-04-19T08:27:17.847Z</time></trkpt><trkpt lat="43.7471819" lon="12.5253459"><ele>315.0</ele><time>2026-04-19T08:27:18.846Z</time></trkpt><trkpt lat="43.747169" lon="12.5254602"><ele>312.8</ele><time>2026-04-19T08:27:19.847Z</time></trkpt><trkpt lat="43.7471793" lon="12.525592"><ele>310.6</ele><time>2026-04-19T08:27:20.841Z</time></trkpt><trkpt lat="43.747207" lon="12.5257267"><ele>308.4</ele><time>2026-04-19T08:27:21.851Z</time></trkpt><trkpt lat="43.7472524" lon="12.5258515"><ele>306.2</ele><time>2026-04-19T08:27:22.846Z</time></trkpt><trkpt lat="43.7473141" lon="12.5259886"><ele>304.0</ele><time>2026-04-19T08:27:23.849Z</time></trkpt><trkpt lat="43.7473947" lon="12.5261338"><ele>301.0</ele><time>2026-04-19T08:27:24.845Z</time></trkpt><trkpt lat="43.7474688" lon="12.5262684"><ele>298.0</ele><time>2026-04-19T08:27:25.844Z</time></trkpt><trkpt lat="43.7475334" lon="12.5263851"><ele>295.0</ele><time>2026-04-19T08:27:26.855Z</time></trkpt><trkpt lat="43.7475846" lon="12.5264858"><ele>292.0</ele><time>2026-04-19T08:27:27.852Z</time></trkpt><trkpt lat="43.7476177" lon="12.5265769"><ele>289.0</ele><time>2026-04-19T08:27:28.846Z</time></trkpt><trkpt lat="43.7476154" lon="12.5267165"><ele>289.0</ele><time>2026-04-19T08:27:30.85Z</time></trkpt><trkpt lat="43.7474869" lon="12.5267911"><ele>289.0</ele><time>2026-04-19T08:27:32.845Z</time></trkpt><trkpt lat="43.7473834" lon="12.5268244"><ele>289.0</ele><time>2026-04-19T08:27:33.845Z</time></trkpt><trkpt lat="43.7472648" lon="12.5268536"><ele>289.0</ele><time>2026-04-19T08:27:34.852Z</time></trkpt><trkpt lat="43.7471489" lon="12.526856"><ele>289.0</ele><time>2026-04-19T08:27:35.848Z</time></trkpt><trkpt lat="43.747041" lon="12.5268382"><ele>289.0</ele><time>2026-04-19T08:27:36.869Z</time></trkpt><trkpt lat="43.7469374" lon="12.5268148"><ele>289.0</ele><time>2026-04-19T08:27:37.848Z</time></trkpt><trkpt lat="43.7468395" lon="12.5267908"><ele>289.0</ele><time>2026-04-19T08:27:38.845Z</time></trkpt><trkpt lat="43.7467513" lon="12.5267708"><ele>289.0</ele><time>2026-04-19T08:27:39.85Z</time></trkpt><trkpt lat="43.7466696" lon="12.5267532"><ele>286.4</ele><time>2026-04-19T08:27:40.845Z</time></trkpt><trkpt lat="43.7465917" lon="12.5267326"><ele>283.79999999999995</ele><time>2026-04-19T08:27:41.848Z</time></trkpt><trkpt lat="43.7465286" lon="12.5267288"><ele>281.20000000000005</ele><time>2026-04-19T08:27:42.841Z</time></trkpt><trkpt lat="43.7464708" lon="12.5268254"><ele>278.6</ele><time>2026-04-19T08:27:44.842Z</time></trkpt><trkpt lat="43.7465154" lon="12.5269808"><ele>276.0</ele><time>2026-04-19T08:27:46.846Z</time></trkpt><trkpt lat="43.7465844" lon="12.5270787"><ele>271.75</ele><time>2026-04-19T08:27:47.846Z</time></trkpt><trkpt lat="43.7466628" lon="12.5272022"><ele>267.5</ele><time>2026-04-19T08:27:48.852Z</time></trkpt><trkpt lat="43.7467359" lon="12.5273395"><ele>263.25</ele><time>2026-04-19T08:27:49.846Z</time></trkpt><trkpt lat="43.7468046" lon="12.5274694"><ele>259.0</ele><time>2026-04-19T08:27:50.865Z</time></trkpt><trkpt lat="43.7468713" lon="12.5275781"><ele>260.8</ele><time>2026-04-19T08:27:51.848Z</time></trkpt><trkpt lat="43.7469507" lon="12.5276713"><ele>262.59999999999997</ele><time>2026-04-19T08:27:52.848Z</time></trkpt><trkpt lat="43.74704" lon="12.5277627"><ele>264.4</ele><time>2026-04-19T08:27:53.847Z</time></trkpt><trkpt lat="43.7471367" lon="12.5278323"><ele>266.2</ele><time>2026-04-19T08:27:54.848Z</time></trkpt><trkpt lat="43.7472274" lon="12.5278912"><ele>268.0</ele><time>2026-04-19T08:27:55.841Z</time></trkpt><trkpt lat="43.7473061" lon="12.5279425"><ele>264.5</ele><time>2026-04-19T08:27:56.849Z</time></trkpt><trkpt lat="43.7473761" lon="12.5279835"><ele>261.0</ele><time>2026-04-19T08:27:57.841Z</time></trkpt><trkpt lat="43.7474467" lon="12.5280235"><ele>257.5</ele><time>2026-04-19T08:27:58.846Z</time></trkpt><trkpt lat="43.747522" lon="12.5280611"><ele>254.0</ele><time>2026-04-19T08:27:59.842Z</time></trkpt><trkpt lat="43.7476032" lon="12.5280948"><ele>250.49999999999997</ele><time>2026-04-19T08:28:00.848Z</time></trkpt><trkpt lat="43.7476821" lon="12.5281182"><ele>247.0</ele><time>2026-04-19T08:28:01.841Z</time></trkpt><trkpt lat="43.7477555" lon="12.5281507"><ele>246.99999999999997</ele><time>2026-04-19T08:28:02.849Z</time></trkpt><trkpt lat="43.7478251" lon="12.5281977"><ele>247.0</ele><time>2026-04-19T08:28:03.852Z</time></trkpt><trkpt lat="43.7478997" lon="12.5282619"><ele>247.0</ele><time>2026-04-19T08:28:04.852Z</time></trkpt><trkpt lat="43.7479793" lon="12.528342"><ele>247.0</ele><time>2026-04-19T08:28:05.848Z</time></trkpt><trkpt lat="43.748056" lon="12.5284216"><ele>246.99999999999997</ele><time>2026-04-19T08:28:06.875Z</time></trkpt><trkpt lat="43.7481083" lon="12.5284878"><ele>247.0</ele><time>2026-04-19T08:28:07.847Z</time></trkpt><trkpt lat="43.7481507" lon="12.5285758"><ele>246.99999999999997</ele><time>2026-04-19T08:28:09.845Z</time></trkpt><trkpt lat="43.7480872" lon="12.5285756"><ele>247.0</ele><time>2026-04-19T08:28:12.851Z</time></trkpt><trkpt lat="43.7480082" lon="12.528478"><ele>247.0</ele><time>2026-04-19T08:28:14.844Z</time></trkpt><trkpt lat="43.7479397" lon="12.5284056"><ele>247.0</ele><time>2026-04-19T08:28:15.845Z</time></trkpt><trkpt lat="43.7478613" lon="12.5283404"><ele>246.99999999999997</ele><time>2026-04-19T08:28:16.864Z</time></trkpt><trkpt lat="43.747771" lon="12.5282888"><ele>247.0</ele><time>2026-04-19T08:28:17.843Z</time></trkpt><trkpt lat="43.7476704" lon="12.5282468"><ele>246.2</ele><time>2026-04-19T08:28:18.849Z</time></trkpt><trkpt lat="43.7475691" lon="12.5282187"><ele>245.39999999999998</ele><time>2026-04-19T08:28:19.846Z</time></trkpt><trkpt lat="43.7474635" lon="12.5282036"><ele>244.60000000000002</ele><time>2026-04-19T08:28:20.842Z</time></trkpt><trkpt lat="43.7473538" lon="12.5281947"><ele>243.8</ele><time>2026-04-19T08:28:21.85Z</time></trkpt><trkpt lat="43.7472435" lon="12.5281836"><ele>243.0</ele><time>2026-04-19T08:28:22.843Z</time></trkpt><trkpt lat="43.7471299" lon="12.5281615"><ele>243.0</ele><time>2026-04-19T08:28:23.846Z</time></trkpt><trkpt lat="43.7470105" lon="12.528121"><ele>243.0</ele><time>2026-04-19T08:28:24.845Z</time></trkpt><trkpt lat="43.7468817" lon="12.5280668"><ele>243.0</ele><time>2026-04-19T08:28:25.841Z</time></trkpt><trkpt lat="43.7467512" lon="12.5279977"><ele>243.0</ele><time>2026-04-19T08:28:26.841Z</time></trkpt><trkpt lat="43.7466269" lon="12.5279111"><ele>247.0</ele><time>2026-04-19T08:28:27.84Z</time></trkpt><trkpt lat="43.7465137" lon="12.5277995"><ele>251.0</ele><time>2026-04-19T08:28:28.846Z</time></trkpt><trkpt lat="43.7464115" lon="12.5276725"><ele>255.0</ele><time>2026-04-19T08:28:29.845Z</time></trkpt><trkpt lat="43.7463114" lon="12.5275573"><ele>259.0</ele><time>2026-04-19T08:28:30.871Z</time></trkpt><trkpt lat="43.7462067" lon="12.5274708"><ele>259.0</ele><time>2026-04-19T08:28:31.843Z</time></trkpt><trkpt lat="43.7460872" lon="12.5274094"><ele>259.0</ele><time>2026-04-19T08:28:32.84Z</time></trkpt><trkpt lat="43.7459619" lon="12.5273864"><ele>259.0</ele><time>2026-04-19T08:28:33.85Z</time></trkpt><trkpt lat="43.7458514" lon="12.5273572"><ele>259.0</ele><time>2026-04-19T08:28:34.848Z</time></trkpt><trkpt lat="43.7457606" lon="12.527312"><ele>257.8</ele><time>2026-04-19T08:28:35.854Z</time></trkpt><trkpt lat="43.7456842" lon="12.5272421"><ele>256.59999999999997</ele><time>2026-04-19T08:28:36.845Z</time></trkpt><trkpt lat="43.7456285" lon="12.5271518"><ele>255.4</ele><time>2026-04-19T08:28:37.84Z</time></trkpt><trkpt lat="43.7456017" lon="12.5270302"><ele>254.2</ele><time>2026-04-19T08:28:38.84Z</time></trkpt><trkpt lat="43.7456007" lon="12.5268963"><ele>253.0</ele><time>2026-04-19T08:28:39.846Z</time></trkpt><trkpt lat="43.7456069" lon="12.5267425"><ele>253.0</ele><time>2026-04-19T08:28:40.839Z</time></trkpt><trkpt lat="43.7456404" lon="12.5265611"><ele>253.0</ele><time>2026-04-19T08:28:41.858Z</time></trkpt><trkpt lat="43.7456716" lon="12.5263953"><ele>253.0</ele><time>2026-04-19T08:28:42.845Z</time></trkpt><trkpt lat="43.7456947" lon="12.5262634"><ele>253.0</ele><time>2026-04-19T08:28:43.844Z</time></trkpt><trkpt lat="43.7456957" lon="12.5261503"><ele>253.0</ele><time>2026-04-19T08:28:44.844Z</time></trkpt><trkpt lat="43.7456557" lon="12.526066"><ele>253.0</ele><time>2026-04-19T08:28:45.836Z</time></trkpt><trkpt lat="43.7455941" lon="12.5260131"><ele>253.0</ele><time>2026-04-19T08:28:46.861Z</time></trkpt><trkpt lat="43.7455119" lon="12.5260415"><ele>253.0</ele><time>2026-04-19T08:28:47.841Z</time></trkpt><trkpt lat="43.745416" lon="12.5261047"><ele>253.0</ele><time>2026-04-19T08:28:48.844Z</time></trkpt><trkpt lat="43.7453182" lon="12.5262454"><ele>253.0</ele><time>2026-04-19T08:28:49.841Z</time></trkpt><trkpt lat="43.7452234" lon="12.5264062"><ele>254.2</ele><time>2026-04-19T08:28:50.837Z</time></trkpt><trkpt lat="43.7451419" lon="12.5265394"><ele>255.4</ele><time>2026-04-19T08:28:51.839Z</time></trkpt><trkpt lat="43.7450713" lon="12.5265807"><ele>256.59999999999997</ele><time>2026-04-19T08:28:52.845Z</time></trkpt><trkpt lat="43.7449647" lon="12.5264756"><ele>257.8</ele><time>2026-04-19T08:28:54.858Z</time></trkpt><trkpt lat="43.7449356" lon="12.5263258"><ele>259.0</ele><time>2026-04-19T08:28:55.842Z</time></trkpt><trkpt lat="43.7448837" lon="12.5261608"><ele>259.0</ele><time>2026-04-19T08:28:56.846Z</time></trkpt><trkpt lat="43.7448091" lon="12.5260145"><ele>259.0</ele><time>2026-04-19T08:28:57.843Z</time></trkpt><trkpt lat="43.7447086" lon="12.5259028"><ele>259.0</ele><time>2026-04-19T08:28:58.84Z</time></trkpt><trkpt lat="43.7445808" lon="12.5258172"><ele>259.0</ele><time>2026-04-19T08:28:59.844Z</time></trkpt><trkpt lat="43.7444225" lon="12.5257424"><ele>252.0</ele><time>2026-04-19T08:29:00.844Z</time></trkpt><trkpt lat="43.7442472" lon="12.525668"><ele>245.0</ele><time>2026-04-19T08:29:01.858Z</time></trkpt><trkpt lat="43.7440884" lon="12.5256025"><ele>238.0</ele><time>2026-04-19T08:29:02.841Z</time></trkpt><trkpt lat="43.743943" lon="12.5255175"><ele>238.0</ele><time>2026-04-19T08:29:03.84Z</time></trkpt><trkpt lat="43.7437895" lon="12.5254044"><ele>238.0</ele><time>2026-04-19T08:29:04.84Z</time></trkpt><trkpt lat="43.7436144" lon="12.5252884"><ele>238.0</ele><time>2026-04-19T08:29:05.841Z</time></trkpt><trkpt lat="43.7434358" lon="12.525194"><ele>242.66666666666666</ele><time>2026-04-19T08:29:06.855Z</time></trkpt><trkpt lat="43.7432691" lon="12.5251298"><ele>247.33333333333331</ele><time>2026-04-19T08:29:07.84Z</time></trkpt><trkpt lat="43.7431079" lon="12.5250974"><ele>252.0</ele><time>2026-04-19T08:29:08.84Z</time></trkpt><trkpt lat="43.7429555" lon="12.5250957"><ele>252.0</ele><time>2026-04-19T08:29:09.844Z</time></trkpt><trkpt lat="43.742806" lon="12.5251098"><ele>252.0</ele><time>2026-04-19T08:29:10.837Z</time></trkpt><trkpt lat="43.7426483" lon="12.5251171"><ele>252.0</ele><time>2026-04-19T08:29:11.858Z</time></trkpt><trkpt lat="43.7424962" lon="12.5251142"><ele>248.33333333333331</ele><time>2026-04-19T08:29:12.85Z</time></trkpt><trkpt lat="43.7423494" lon="12.5250906"><ele>244.66666666666666</ele><time>2026-04-19T08:29:13.841Z</time></trkpt><trkpt lat="43.7421966" lon="12.5250365"><ele>241.0</ele><time>2026-04-19T08:29:14.839Z</time></trkpt><trkpt lat="43.7420479" lon="12.5249699"><ele>241.0</ele><time>2026-04-19T08:29:15.84Z</time></trkpt><trkpt lat="43.741911" lon="12.5249144"><ele>241.0</ele><time>2026-04-19T08:29:16.861Z</time></trkpt><trkpt lat="43.741784" lon="12.5248832"><ele>241.0</ele><time>2026-04-19T08:29:17.847Z</time></trkpt><trkpt lat="43.7416639" lon="12.5248809"><ele>241.0</ele><time>2026-04-19T08:29:18.846Z</time></trkpt><trkpt lat="43.7415562" lon="12.5249099"><ele>238.8</ele><time>2026-04-19T08:29:19.846Z</time></trkpt><trkpt lat="43.7414567" lon="12.5249288"><ele>236.60000000000002</ele><time>2026-04-19T08:29:20.843Z</time></trkpt><trkpt lat="43.7413647" lon="12.5249138"><ele>234.4</ele><time>2026-04-19T08:29:21.848Z</time></trkpt><trkpt lat="43.7412849" lon="12.5248486"><ele>232.2</ele><time>2026-04-19T08:29:22.851Z</time></trkpt><trkpt lat="43.7412163" lon="12.5247294"><ele>230.0</ele><time>2026-04-19T08:29:23.841Z</time></trkpt><trkpt lat="43.7411725" lon="12.5245827"><ele>231.4</ele><time>2026-04-19T08:29:24.868Z</time></trkpt><trkpt lat="43.7411289" lon="12.5244614"><ele>232.8</ele><time>2026-04-19T08:29:25.841Z</time></trkpt><trkpt lat="43.7410636" lon="12.5243849"><ele>234.2</ele><time>2026-04-19T08:29:26.852Z</time></trkpt><trkpt lat="43.7409759" lon="12.524362"><ele>235.6</ele><time>2026-04-19T08:29:27.838Z</time></trkpt><trkpt lat="43.7408803" lon="12.5243856"><ele>237.0</ele><time>2026-04-19T08:29:28.842Z</time></trkpt><trkpt lat="43.7407809" lon="12.5244362"><ele>237.0</ele><time>2026-04-19T08:29:29.844Z</time></trkpt><trkpt lat="43.7406826" lon="12.5244788"><ele>237.0</ele><time>2026-04-19T08:29:30.838Z</time></trkpt><trkpt lat="43.7405849" lon="12.5244382"><ele>237.0</ele><time>2026-04-19T08:29:31.839Z</time></trkpt><trkpt lat="43.7404703" lon="12.5243279"><ele>237.0</ele><time>2026-04-19T08:29:32.847Z</time></trkpt><trkpt lat="43.7403443" lon="12.5241909"><ele>234.66666666666669</ele><time>2026-04-19T08:29:33.84Z</time></trkpt><trkpt lat="43.7402159" lon="12.5240555"><ele>232.33333333333334</ele><time>2026-04-19T08:29:34.862Z</time></trkpt><trkpt lat="43.7400886" lon="12.5239464"><ele>230.0</ele><time>2026-04-19T08:29:35.841Z</time></trkpt><trkpt lat="43.7399469" lon="12.5238633"><ele>230.0</ele><time>2026-04-19T08:29:36.837Z</time></trkpt><trkpt lat="43.7397905" lon="12.5238025"><ele>230.0</ele><time>2026-04-19T08:29:37.841Z</time></trkpt><trkpt lat="43.7396522" lon="12.5237543"><ele>230.0</ele><time>2026-04-19T08:29:38.84Z</time></trkpt><trkpt lat="43.7395417" lon="12.5237005"><ele>230.0</ele><time>2026-04-19T08:29:39.867Z</time></trkpt><trkpt lat="43.7394515" lon="12.523647"><ele>230.2</ele><time>2026-04-19T08:29:40.845Z</time></trkpt><trkpt lat="43.7393737" lon="12.5236553"><ele>230.4</ele><time>2026-04-19T08:29:41.84Z</time></trkpt><trkpt lat="43.7392919" lon="12.5237284"><ele>230.60000000000002</ele><time>2026-04-19T08:29:42.845Z</time></trkpt><trkpt lat="43.7392013" lon="12.5238415"><ele>230.8</ele><time>2026-04-19T08:29:43.838Z</time></trkpt><trkpt lat="43.7390904" lon="12.5239431"><ele>231.0</ele><time>2026-04-19T08:29:44.867Z</time></trkpt><trkpt lat="43.7389688" lon="12.5239667"><ele>231.0</ele><time>2026-04-19T08:29:45.837Z</time></trkpt><trkpt lat="43.7388506" lon="12.5239371"><ele>231.0</ele><time>2026-04-19T08:29:46.844Z</time></trkpt><trkpt lat="43.73873" lon="12.5238705"><ele>231.0</ele><time>2026-04-19T08:29:47.838Z</time></trkpt><trkpt lat="43.7386119" lon="12.5237393"><ele>231.0</ele><time>2026-04-19T08:29:48.839Z</time></trkpt><trkpt lat="43.7384913" lon="12.5235872"><ele>233.25</ele><time>2026-04-19T08:29:49.847Z</time></trkpt><trkpt lat="43.7383879" lon="12.5234397"><ele>235.5</ele><time>2026-04-19T08:29:50.839Z</time></trkpt><trkpt lat="43.7383027" lon="12.5232872"><ele>237.75</ele><time>2026-04-19T08:29:51.858Z</time></trkpt><trkpt lat="43.7382554" lon="12.5231347"><ele>240.0</ele><time>2026-04-19T08:29:52.843Z</time></trkpt><trkpt lat="43.7382308" lon="12.5229551"><ele>243.0</ele><time>2026-04-19T08:29:53.844Z</time></trkpt><trkpt lat="43.738218" lon="12.5227815"><ele>246.0</ele><time>2026-04-19T08:29:54.847Z</time></trkpt><trkpt lat="43.7381954" lon="12.5226417"><ele>249.0</ele><time>2026-04-19T08:29:55.84Z</time></trkpt><trkpt lat="43.738138" lon="12.522527"><ele>252.0</ele><time>2026-04-19T08:29:56.842Z</time></trkpt><trkpt lat="43.7380402" lon="12.5224477"><ele>255.0</ele><time>2026-04-19T08:29:57.837Z</time></trkpt><trkpt lat="43.7379056" lon="12.5224048"><ele>255.0</ele><time>2026-04-19T08:29:58.855Z</time></trkpt><trkpt lat="43.7377627" lon="12.5223904"><ele>255.0</ele><time>2026-04-19T08:29:59.839Z</time></trkpt><trkpt lat="43.7375998" lon="12.5224039"><ele>255.0</ele><time>2026-04-19T08:30:00.84Z</time></trkpt><trkpt lat="43.7374418" lon="12.5224369"><ele>252.5</ele><time>2026-04-19T08:30:01.852Z</time></trkpt><trkpt lat="43.737313" lon="12.5224366"><ele>250.0</ele><time>2026-04-19T08:30:02.841Z</time></trkpt><trkpt lat="43.7372059" lon="12.5223945"><ele>247.5</ele><time>2026-04-19T08:30:03.865Z</time></trkpt><trkpt lat="43.7371178" lon="12.522312"><ele>245.0</ele><time>2026-04-19T08:30:04.841Z</time></trkpt><trkpt lat="43.7370323" lon="12.5221801"><ele>244.0</ele><time>2026-04-19T08:30:05.848Z</time></trkpt><trkpt lat="43.7369484" lon="12.521985"><ele>243.0</ele><time>2026-04-19T08:30:06.841Z</time></trkpt><trkpt lat="43.7368527" lon="12.521831"><ele>242.0</ele><time>2026-04-19T08:30:07.845Z</time></trkpt><trkpt lat="43.7367112" lon="12.5217127"><ele>242.0</ele><time>2026-04-19T08:30:08.841Z</time></trkpt><trkpt lat="43.7365474" lon="12.5216024"><ele>242.0</ele><time>2026-04-19T08:30:09.838Z</time></trkpt><trkpt lat="43.7363953" lon="12.5215118"><ele>242.0</ele><time>2026-04-19T08:30:10.851Z</time></trkpt><trkpt lat="43.7362802" lon="12.5214283"><ele>242.0</ele><time>2026-04-19T08:30:11.835Z</time></trkpt><trkpt lat="43.7361945" lon="12.5213581"><ele>242.0</ele><time>2026-04-19T08:30:12.837Z</time></trkpt><trkpt lat="43.7361482" lon="12.5212789"><ele>242.0</ele><time>2026-04-19T08:30:13.852Z</time></trkpt><trkpt lat="43.7361573" lon="12.5211656"><ele>242.0</ele><time>2026-04-19T08:30:14.838Z</time></trkpt><trkpt lat="43.7361973" lon="12.5210193"><ele>242.0</ele><time>2026-04-19T08:30:15.873Z</time></trkpt><trkpt lat="43.7362319" lon="12.52086"><ele>240.75</ele><time>2026-04-19T08:30:16.841Z</time></trkpt><trkpt lat="43.7362162" lon="12.5206916"><ele>239.5</ele><time>2026-04-19T08:30:17.841Z</time></trkpt><trkpt lat="43.7361525" lon="12.5205366"><ele>238.25</ele><time>2026-04-19T08:30:18.84Z</time></trkpt><trkpt lat="43.73605" lon="12.5204098"><ele>237.0</ele><time>2026-04-19T08:30:19.839Z</time></trkpt><trkpt lat="43.735914" lon="12.5203235"><ele>243.0</ele><time>2026-04-19T08:30:20.844Z</time></trkpt><trkpt lat="43.7357481" lon="12.5202634"><ele>249.0</ele><time>2026-04-19T08:30:21.84Z</time></trkpt><trkpt lat="43.7355892" lon="12.5202048"><ele>255.0</ele><time>2026-04-19T08:30:22.855Z</time></trkpt><trkpt lat="43.7354731" lon="12.5201671"><ele>255.0</ele><time>2026-04-19T08:30:23.838Z</time></trkpt><trkpt lat="43.735364" lon="12.5201608"><ele>255.0</ele><time>2026-04-19T08:30:24.837Z</time></trkpt><trkpt lat="43.7352431" lon="12.5202073"><ele>255.0</ele><time>2026-04-19T08:30:25.841Z</time></trkpt><trkpt lat="43.7351322" lon="12.5203232"><ele>255.0</ele><time>2026-04-19T08:30:26.841Z</time></trkpt><trkpt lat="43.7350327" lon="12.5204507"><ele>250.75</ele><time>2026-04-19T08:30:27.855Z</time></trkpt><trkpt lat="43.7349586" lon="12.5206222"><ele>246.5</ele><time>2026-04-19T08:30:28.842Z</time></trkpt><trkpt lat="43.734893" lon="12.5208223"><ele>242.25</ele><time>2026-04-19T08:30:29.836Z</time></trkpt><trkpt lat="43.7348203" lon="12.5209872"><ele>238.0</ele><time>2026-04-19T08:30:30.84Z</time></trkpt><trkpt lat="43.7347198" lon="12.5211052"><ele>238.0</ele><time>2026-04-19T08:30:31.841Z</time></trkpt><trkpt lat="43.7345952" lon="12.5211765"><ele>238.0</ele><time>2026-04-19T08:30:32.862Z</time></trkpt><trkpt lat="43.7344388" lon="12.5212065"><ele>238.0</ele><time>2026-04-19T08:30:33.842Z</time></trkpt><trkpt lat="43.7342547" lon="12.5212224"><ele>237.0</ele><time>2026-04-19T08:30:34.837Z</time></trkpt><trkpt lat="43.7340653" lon="12.5212266"><ele>236.0</ele><time>2026-04-19T08:30:35.837Z</time></trkpt><trkpt lat="43.733891" lon="12.5212131"><ele>235.0</ele><time>2026-04-19T08:30:36.838Z</time></trkpt><trkpt lat="43.733725" lon="12.5211962"><ele>235.0</ele><time>2026-04-19T08:30:37.837Z</time></trkpt><trkpt lat="43.7335643" lon="12.5211452"><ele>235.0</ele><time>2026-04-19T08:30:38.839Z</time></trkpt><trkpt lat="43.7333923" lon="12.5210485"><ele>235.0</ele><time>2026-04-19T08:30:39.843Z</time></trkpt><trkpt lat="43.7332108" lon="12.5209467"><ele>236.33333333333331</ele><time>2026-04-19T08:30:40.843Z</time></trkpt><trkpt lat="43.7330434" lon="12.520781"><ele>237.66666666666669</ele><time>2026-04-19T08:30:41.847Z</time></trkpt><trkpt lat="43.7328868" lon="12.5206298"><ele>239.0</ele><time>2026-04-19T08:30:42.838Z</time></trkpt><trkpt lat="43.7327499" lon="12.5204765"><ele>241.75</ele><time>2026-04-19T08:30:43.835Z</time></trkpt><trkpt lat="43.7326278" lon="12.5203341"><ele>244.5</ele><time>2026-04-19T08:30:44.836Z</time></trkpt><trkpt lat="43.7325203" lon="12.5201985"><ele>247.25</ele><time>2026-04-19T08:30:45.838Z</time></trkpt><trkpt lat="43.7324267" lon="12.5200592"><ele>250.0</ele><time>2026-04-19T08:30:46.856Z</time></trkpt><trkpt lat="43.7323481" lon="12.5199311"><ele>250.0</ele><time>2026-04-19T08:30:47.837Z</time></trkpt><trkpt lat="43.7322817" lon="12.519819"><ele>250.0</ele><time>2026-04-19T08:30:48.838Z</time></trkpt><trkpt lat="43.73221" lon="12.5197315"><ele>250.0</ele><time>2026-04-19T08:30:49.844Z</time></trkpt><trkpt lat="43.7321302" lon="12.5196611"><ele>250.0</ele><time>2026-04-19T08:30:50.84Z</time></trkpt><trkpt lat="43.7320354" lon="12.5196158"><ele>250.0</ele><time>2026-04-19T08:30:51.841Z</time></trkpt><trkpt lat="43.7319364" lon="12.5195827"><ele>248.99999999999997</ele><time>2026-04-19T08:30:52.845Z</time></trkpt><trkpt lat="43.7318435" lon="12.5195563"><ele>248.0</ele><time>2026-04-19T08:30:53.852Z</time></trkpt><trkpt lat="43.7317726" lon="12.5195"><ele>247.0</ele><time>2026-04-19T08:30:54.839Z</time></trkpt><trkpt lat="43.7317172" lon="12.5194074"><ele>246.0</ele><time>2026-04-19T08:30:55.84Z</time></trkpt><trkpt lat="43.7316884" lon="12.519286"><ele>244.99999999999997</ele><time>2026-04-19T08:30:56.838Z</time></trkpt><trkpt lat="43.7316699" lon="12.5191602"><ele>244.0</ele><time>2026-04-19T08:30:57.84Z</time></trkpt><trkpt lat="43.731653" lon="12.5190373"><ele>243.99999999999997</ele><time>2026-04-19T08:30:58.84Z</time></trkpt><trkpt lat="43.7316335" lon="12.5189222"><ele>244.0</ele><time>2026-04-19T08:30:59.84Z</time></trkpt><trkpt lat="43.7315982" lon="12.5188255"><ele>244.0</ele><time>2026-04-19T08:31:00.842Z</time></trkpt><trkpt lat="43.7315399" lon="12.518757"><ele>244.0</ele><time>2026-04-19T08:31:01.861Z</time></trkpt><trkpt lat="43.7314747" lon="12.5187032"><ele>243.99999999999997</ele><time>2026-04-19T08:31:02.845Z</time></trkpt><trkpt lat="43.7314087" lon="12.5187104"><ele>244.0</ele><time>2026-04-19T08:31:03.844Z</time></trkpt><trkpt lat="43.7313054" lon="12.5187765"><ele>243.99999999999997</ele><time>2026-04-19T08:31:05.844Z</time></trkpt><trkpt lat="43.7312284" lon="12.518821"><ele>244.0</ele><time>2026-04-19T08:31:07.844Z</time></trkpt><trkpt lat="43.7311556" lon="12.5188617"><ele>244.0</ele><time>2026-04-19T08:31:09.848Z</time></trkpt><trkpt lat="43.7310462" lon="12.5189327"><ele>244.0</ele><time>2026-04-19T08:31:11.843Z</time></trkpt><trkpt lat="43.7309786" lon="12.5189685"><ele>243.99999999999997</ele><time>2026-04-19T08:31:12.845Z</time></trkpt><trkpt lat="43.7309115" lon="12.5190012"><ele>244.0</ele><time>2026-04-19T08:31:13.843Z</time></trkpt><trkpt lat="43.7308393" lon="12.5190143"><ele>243.99999999999997</ele><time>2026-04-19T08:31:14.842Z</time></trkpt><trkpt lat="43.7307671" lon="12.5189976"><ele>244.0</ele><time>2026-04-19T08:31:15.845Z</time></trkpt><trkpt lat="43.7307042" lon="12.518945"><ele>243.99999999999997</ele><time>2026-04-19T08:31:16.839Z</time></trkpt><trkpt lat="43.7306577" lon="12.5188688"><ele>243.99999999999997</ele><time>2026-04-19T08:31:17.842Z</time></trkpt><trkpt lat="43.730625" lon="12.5187798"><ele>244.0</ele><time>2026-04-19T08:31:18.844Z</time></trkpt><trkpt lat="43.7305969" lon="12.5186879"><ele>243.99999999999997</ele><time>2026-04-19T08:31:19.841Z</time></trkpt><trkpt lat="43.7305681" lon="12.518598"><ele>243.99999999999997</ele><time>2026-04-19T08:31:20.852Z</time></trkpt><trkpt lat="43.7305355" lon="12.5184966"><ele>245.49999999999997</ele><time>2026-04-19T08:31:21.84Z</time></trkpt><trkpt lat="43.7304962" lon="12.5183989"><ele>247.0</ele><time>2026-04-19T08:31:22.844Z</time></trkpt><trkpt lat="43.730452" lon="12.5183041"><ele>248.5</ele><time>2026-04-19T08:31:23.846Z</time></trkpt><trkpt lat="43.730397" lon="12.5182189"><ele>250.0</ele><time>2026-04-19T08:31:24.84Z</time></trkpt><trkpt lat="43.730344" lon="12.5181317"><ele>251.49999999999997</ele><time>2026-04-19T08:31:25.863Z</time></trkpt><trkpt lat="43.7303069" lon="12.5180289"><ele>253.0</ele><time>2026-04-19T08:31:26.84Z</time></trkpt><trkpt lat="43.7302936" lon="12.5179049"><ele>257.25</ele><time>2026-04-19T08:31:27.84Z</time></trkpt><trkpt lat="43.7302981" lon="12.5177643"><ele>261.5</ele><time>2026-04-19T08:31:28.84Z</time></trkpt><trkpt lat="43.7303255" lon="12.5176113"><ele>265.75</ele><time>2026-04-19T08:31:29.84Z</time></trkpt><trkpt lat="43.7303573" lon="12.5174118"><ele>270.0</ele><time>2026-04-19T08:31:30.84Z</time></trkpt><trkpt lat="43.7303701" lon="12.5172052"><ele>270.6</ele><time>2026-04-19T08:31:31.841Z</time></trkpt><trkpt lat="43.7303538" lon="12.5170077"><ele>271.2</ele><time>2026-04-19T08:31:32.84Z</time></trkpt><trkpt lat="43.7303346" lon="12.516843"><ele>271.8</ele><time>2026-04-19T08:31:33.858Z</time></trkpt><trkpt lat="43.7303351" lon="12.5167285"><ele>272.4</ele><time>2026-04-19T08:31:34.84Z</time></trkpt><trkpt lat="43.7304009" lon="12.5166521"><ele>273.0</ele><time>2026-04-19T08:31:36.839Z</time></trkpt><trkpt lat="43.7304481" lon="12.5167133"><ele>273.0</ele><time>2026-04-19T08:31:37.836Z</time></trkpt><trkpt lat="43.7304788" lon="12.516793"><ele>273.0</ele><time>2026-04-19T08:31:38.842Z</time></trkpt><trkpt lat="43.7304942" lon="12.5168859"><ele>273.0</ele><time>2026-04-19T08:31:39.845Z</time></trkpt><trkpt lat="43.7305059" lon="12.5169762"><ele>273.0</ele><time>2026-04-19T08:31:40.841Z</time></trkpt><trkpt lat="43.7305096" lon="12.5170632"><ele>273.0</ele><time>2026-04-19T08:31:41.868Z</time></trkpt><trkpt lat="43.7305108" lon="12.5172201"><ele>273.0</ele><time>2026-04-19T08:31:43.844Z</time></trkpt><trkpt lat="43.730511" lon="12.5173695"><ele>272.4</ele><time>2026-04-19T08:31:45.841Z</time></trkpt><trkpt lat="43.7305093" lon="12.5175075"><ele>271.8</ele><time>2026-04-19T08:31:47.845Z</time></trkpt><trkpt lat="43.7305075" lon="12.5176323"><ele>271.2</ele><time>2026-04-19T08:31:49.843Z</time></trkpt><trkpt lat="43.7305263" lon="12.5177715"><ele>270.6</ele><time>2026-04-19T08:31:51.859Z</time></trkpt><trkpt lat="43.7306264" lon="12.5178684"><ele>270.0</ele><time>2026-04-19T08:31:53.842Z</time></trkpt><trkpt lat="43.7307075" lon="12.5179009"><ele>268.4</ele><time>2026-04-19T08:31:54.843Z</time></trkpt><trkpt lat="43.7308032" lon="12.5179226"><ele>266.8</ele><time>2026-04-19T08:31:55.838Z</time></trkpt><trkpt lat="43.7309039" lon="12.517934"><ele>265.2</ele><time>2026-04-19T08:31:56.857Z</time></trkpt><trkpt lat="43.7309977" lon="12.517934"><ele>263.6</ele><time>2026-04-19T08:31:57.842Z</time></trkpt><trkpt lat="43.7310774" lon="12.5179056"><ele>262.0</ele><time>2026-04-19T08:31:58.847Z</time></trkpt><trkpt lat="43.7311672" lon="12.5178648"><ele>262.0</ele><time>2026-04-19T08:31:59.841Z</time></trkpt><trkpt lat="43.7312526" lon="12.5178343"><ele>262.0</ele><time>2026-04-19T08:32:00.841Z</time></trkpt><trkpt lat="43.7313443" lon="12.5178441"><ele>262.0</ele><time>2026-04-19T08:32:01.863Z</time></trkpt><trkpt lat="43.7314369" lon="12.517874"><ele>262.0</ele><time>2026-04-19T08:32:02.845Z</time></trkpt><trkpt lat="43.731551" lon="12.5179066"><ele>262.0</ele><time>2026-04-19T08:32:03.848Z</time></trkpt><trkpt lat="43.7316756" lon="12.5179481"><ele>262.0</ele><time>2026-04-19T08:32:04.845Z</time></trkpt><trkpt lat="43.7317921" lon="12.5179912"><ele>262.0</ele><time>2026-04-19T08:32:05.838Z</time></trkpt><trkpt lat="43.7319023" lon="12.5180278"><ele>262.0</ele><time>2026-04-19T08:32:06.859Z</time></trkpt><trkpt lat="43.7320057" lon="12.5180385"><ele>262.0</ele><time>2026-04-19T08:32:07.847Z</time></trkpt><trkpt lat="43.7321032" lon="12.5180257"><ele>262.0</ele><time>2026-04-19T08:32:08.846Z</time></trkpt><trkpt lat="43.7321814" lon="12.5180043"><ele>263.2</ele><time>2026-04-19T08:32:09.844Z</time></trkpt><trkpt lat="43.7322642" lon="12.5179037"><ele>264.4</ele><time>2026-04-19T08:32:11.862Z</time></trkpt><trkpt lat="43.7322203" lon="12.5177792"><ele>265.6</ele><time>2026-04-19T08:32:13.851Z</time></trkpt><trkpt lat="43.7321424" lon="12.5177457"><ele>266.8</ele><time>2026-04-19T08:32:14.844Z</time></trkpt><trkpt lat="43.7320509" lon="12.5177273"><ele>268.0</ele><time>2026-04-19T08:32:15.852Z</time></trkpt><trkpt lat="43.7319461" lon="12.5176951"><ele>272.0</ele><time>2026-04-19T08:32:16.849Z</time></trkpt><trkpt lat="43.7318312" lon="12.5176254"><ele>276.0</ele><time>2026-04-19T08:32:17.845Z</time></trkpt><trkpt lat="43.7317113" lon="12.5175135"><ele>280.0</ele><time>2026-04-19T08:32:18.847Z</time></trkpt><trkpt lat="43.731579" lon="12.5173975"><ele>284.0</ele><time>2026-04-19T08:32:19.848Z</time></trkpt><trkpt lat="43.7314442" lon="12.5173047"><ele>284.0</ele><time>2026-04-19T08:32:20.842Z</time></trkpt><trkpt lat="43.7313171" lon="12.5172298"><ele>284.0</ele><time>2026-04-19T08:32:21.868Z</time></trkpt><trkpt lat="43.7312257" lon="12.5171674"><ele>284.0</ele><time>2026-04-19T08:32:22.85Z</time></trkpt><trkpt lat="43.7311674" lon="12.5171094"><ele>284.0</ele><time>2026-04-19T08:32:23.85Z</time></trkpt><trkpt lat="43.7312037" lon="12.517"><ele>284.0</ele><time>2026-04-19T08:32:25.849Z</time></trkpt><trkpt lat="43.7313456" lon="12.5170476"><ele>284.0</ele><time>2026-04-19T08:32:27.851Z</time></trkpt><trkpt lat="43.7314491" lon="12.5170967"><ele>284.0</ele><time>2026-04-19T08:32:28.841Z</time></trkpt><trkpt lat="43.7315718" lon="12.5171304"><ele>284.0</ele><time>2026-04-19T08:32:29.846Z</time></trkpt><trkpt lat="43.7317149" lon="12.5171416"><ele>284.0</ele><time>2026-04-19T08:32:30.852Z</time></trkpt><trkpt lat="43.7318493" lon="12.5171494"><ele>285.4</ele><time>2026-04-19T08:32:31.853Z</time></trkpt><trkpt lat="43.731934" lon="12.5171541"><ele>286.79999999999995</ele><time>2026-04-19T08:32:32.844Z</time></trkpt><trkpt lat="43.7320234" lon="12.5170927"><ele>288.20000000000005</ele><time>2026-04-19T08:32:34.844Z</time></trkpt><trkpt lat="43.7319829" lon="12.5169781"><ele>289.6</ele><time>2026-04-19T08:32:36.849Z</time></trkpt><trkpt lat="43.7318869" lon="12.5169446"><ele>291.0</ele><time>2026-04-19T08:32:37.845Z</time></trkpt><trkpt lat="43.7317843" lon="12.5169013"><ele>293.0</ele><time>2026-04-19T08:32:38.887Z</time></trkpt><trkpt lat="43.7317013" lon="12.5168359"><ele>295.0</ele><time>2026-04-19T08:32:39.849Z</time></trkpt><trkpt lat="43.7316492" lon="12.5167686"><ele>297.0</ele><time>2026-04-19T08:32:40.848Z</time></trkpt><trkpt lat="43.7316802" lon="12.5166757"><ele>299.0</ele><time>2026-04-19T08:32:42.845Z</time></trkpt><trkpt lat="43.731814" lon="12.5167129"><ele>301.0</ele><time>2026-04-19T08:32:44.853Z</time></trkpt><trkpt lat="43.7319073" lon="12.5167632"><ele>304.25</ele><time>2026-04-19T08:32:45.857Z</time></trkpt><trkpt lat="43.7319989" lon="12.516771"><ele>307.5</ele><time>2026-04-19T08:32:46.85Z</time></trkpt><trkpt lat="43.7320957" lon="12.51676"><ele>310.75</ele><time>2026-04-19T08:32:47.85Z</time></trkpt><trkpt lat="43.7322186" lon="12.5167033"><ele>314.0</ele><time>2026-04-19T08:32:48.853Z</time></trkpt><trkpt lat="43.7323567" lon="12.5166642"><ele>314.0</ele><time>2026-04-19T08:32:49.853Z</time></trkpt><trkpt lat="43.7324991" lon="12.5166765"><ele>314.0</ele><time>2026-04-19T08:32:50.869Z</time></trkpt><trkpt lat="43.7326413" lon="12.5167072"><ele>314.0</ele><time>2026-04-19T08:32:51.848Z</time></trkpt><trkpt lat="43.7327648" lon="12.516781"><ele>314.0</ele><time>2026-04-19T08:32:52.849Z</time></trkpt><trkpt lat="43.732861" lon="12.5168227"><ele>314.0</ele><time>2026-04-19T08:32:53.848Z</time></trkpt><trkpt lat="43.7329256" lon="12.5168412"><ele>314.0</ele><time>2026-04-19T08:32:54.848Z</time></trkpt><trkpt lat="43.7329572" lon="12.5167601"><ele>314.0</ele><time>2026-04-19T08:32:56.848Z</time></trkpt><trkpt lat="43.7328511" lon="12.5166304"><ele>314.0</ele><time>2026-04-19T08:32:58.851Z</time></trkpt><trkpt lat="43.7327715" lon="12.5165619"><ele>314.0</ele><time>2026-04-19T08:32:59.867Z</time></trkpt><trkpt lat="43.7326897" lon="12.5164774"><ele>314.0</ele><time>2026-04-19T08:33:00.844Z</time></trkpt><trkpt lat="43.7325883" lon="12.5163742"><ele>314.0</ele><time>2026-04-19T08:33:01.849Z</time></trkpt><trkpt lat="43.7324964" lon="12.5162972"><ele>314.0</ele><time>2026-04-19T08:33:02.846Z</time></trkpt><trkpt lat="43.7324528" lon="12.5162088"><ele>314.0</ele><time>2026-04-19T08:33:03.85Z</time></trkpt><trkpt lat="43.7325238" lon="12.5160661"><ele>314.0</ele><time>2026-04-19T08:33:05.843Z</time></trkpt><trkpt lat="43.7326144" lon="12.516027"><ele>315.5</ele><time>2026-04-19T08:33:06.854Z</time></trkpt><trkpt lat="43.7327175" lon="12.5159714"><ele>317.0</ele><time>2026-04-19T08:33:07.848Z</time></trkpt><trkpt lat="43.7327927" lon="12.5158749"><ele>318.5</ele><time>2026-04-19T08:33:08.855Z</time></trkpt><trkpt lat="43.7328375" lon="12.5157323"><ele>320.0</ele><time>2026-04-19T08:33:09.841Z</time></trkpt><trkpt lat="43.7328606" lon="12.5155572"><ele>325.25</ele><time>2026-04-19T08:33:10.841Z</time></trkpt><trkpt lat="43.7328984" lon="12.5153867"><ele>330.5</ele><time>2026-04-19T08:33:11.849Z</time></trkpt><trkpt lat="43.7329546" lon="12.5152337"><ele>335.75</ele><time>2026-04-19T08:33:12.847Z</time></trkpt><trkpt lat="43.7330476" lon="12.5151123"><ele>341.0</ele><time>2026-04-19T08:33:13.854Z</time></trkpt><trkpt lat="43.7331512" lon="12.5150086"><ele>341.0</ele><time>2026-04-19T08:33:14.843Z</time></trkpt><trkpt lat="43.733292" lon="12.5149108"><ele>341.0</ele><time>2026-04-19T08:33:15.855Z</time></trkpt><trkpt lat="43.7334517" lon="12.5147885"><ele>341.0</ele><time>2026-04-19T08:33:16.843Z</time></trkpt><trkpt lat="43.7335978" lon="12.514656"><ele>342.25</ele><time>2026-04-19T08:33:17.843Z</time></trkpt><trkpt lat="43.7337176" lon="12.5145418"><ele>343.5</ele><time>2026-04-19T08:33:18.844Z</time></trkpt><trkpt lat="43.733812" lon="12.5144374"><ele>344.75</ele><time>2026-04-19T08:33:19.848Z</time></trkpt><trkpt lat="43.733875" lon="12.5143184"><ele>346.0</ele><time>2026-04-19T08:33:20.842Z</time></trkpt><trkpt lat="43.733914" lon="12.5141882"><ele>346.0</ele><time>2026-04-19T08:33:21.84Z</time></trkpt><trkpt lat="43.7339066" lon="12.5140507"><ele>346.0</ele><time>2026-04-19T08:33:22.842Z</time></trkpt><trkpt lat="43.7338565" lon="12.5139296"><ele>346.0</ele><time>2026-04-19T08:33:23.84Z</time></trkpt><trkpt lat="43.7337878" lon="12.51382"><ele>346.0</ele><time>2026-04-19T08:33:24.841Z</time></trkpt><trkpt lat="43.7336749" lon="12.5137437"><ele>346.0</ele><time>2026-04-19T08:33:25.844Z</time></trkpt><trkpt lat="43.7335349" lon="12.5136733"><ele>350.5</ele><time>2026-04-19T08:33:26.862Z</time></trkpt><trkpt lat="43.7334032" lon="12.513605"><ele>355.0</ele><time>2026-04-19T08:33:27.845Z</time></trkpt><trkpt lat="43.7332961" lon="12.5135243"><ele>359.5</ele><time>2026-04-19T08:33:28.844Z</time></trkpt><trkpt lat="43.7331886" lon="12.5134231"><ele>364.0</ele><time>2026-04-19T08:33:29.841Z</time></trkpt><trkpt lat="43.7330976" lon="12.5132892"><ele>364.0</ele><time>2026-04-19T08:33:30.841Z</time></trkpt><trkpt lat="43.7330386" lon="12.5131578"><ele>364.0</ele><time>2026-04-19T08:33:31.847Z</time></trkpt><trkpt lat="43.7330243" lon="12.5130327"><ele>364.0</ele><time>2026-04-19T08:33:32.841Z</time></trkpt><trkpt lat="43.7330562" lon="12.5129051"><ele>364.0</ele><time>2026-04-19T08:33:33.844Z</time></trkpt><trkpt lat="43.733096" lon="12.5127811"><ele>364.0</ele><time>2026-04-19T08:33:34.875Z</time></trkpt><trkpt lat="43.7331784" lon="12.5126918"><ele>364.0</ele><time>2026-04-19T08:33:35.842Z</time></trkpt><trkpt lat="43.7332954" lon="12.5126025"><ele>364.0</ele><time>2026-04-19T08:33:36.844Z</time></trkpt><trkpt lat="43.733435" lon="12.5125091"><ele>364.0</ele><time>2026-04-19T08:33:37.847Z</time></trkpt><trkpt lat="43.7335855" lon="12.5124184"><ele>365.75</ele><time>2026-04-19T08:33:38.844Z</time></trkpt><trkpt lat="43.7337331" lon="12.5123318"><ele>367.5</ele><time>2026-04-19T08:33:39.841Z</time></trkpt><trkpt lat="43.7338558" lon="12.5122398"><ele>369.25</ele><time>2026-04-19T08:33:40.852Z</time></trkpt><trkpt lat="43.7339531" lon="12.5121305"><ele>371.0</ele><time>2026-04-19T08:33:41.845Z</time></trkpt><trkpt lat="43.7340541" lon="12.5120281"><ele>371.0</ele><time>2026-04-19T08:33:42.842Z</time></trkpt><trkpt lat="43.7341707" lon="12.511934"><ele>371.0</ele><time>2026-04-19T08:33:43.838Z</time></trkpt><trkpt lat="43.7342834" lon="12.5118432"><ele>371.0</ele><time>2026-04-19T08:33:44.838Z</time></trkpt><trkpt lat="43.7343863" lon="12.5117626"><ele>371.0</ele><time>2026-04-19T08:33:45.845Z</time></trkpt><trkpt lat="43.7344825" lon="12.5116873"><ele>374.75</ele><time>2026-04-19T08:33:46.842Z</time></trkpt><trkpt lat="43.7345741" lon="12.511616"><ele>378.5</ele><time>2026-04-19T08:33:47.846Z</time></trkpt><trkpt lat="43.7346828" lon="12.5115661"><ele>382.25</ele><time>2026-04-19T08:33:48.846Z</time></trkpt><trkpt lat="43.7348181" lon="12.5115408"><ele>386.0</ele><time>2026-04-19T08:33:49.849Z</time></trkpt><trkpt lat="43.7349621" lon="12.5115201"><ele>386.0</ele><time>2026-04-19T08:33:50.843Z</time></trkpt><trkpt lat="43.7350942" lon="12.5115106"><ele>386.0</ele><time>2026-04-19T08:33:51.844Z</time></trkpt><trkpt lat="43.7352132" lon="12.5115025"><ele>386.0</ele><time>2026-04-19T08:33:52.844Z</time></trkpt><trkpt lat="43.7353084" lon="12.5114727"><ele>386.0</ele><time>2026-04-19T08:33:53.865Z</time></trkpt><trkpt lat="43.7353917" lon="12.5114207"><ele>386.0</ele><time>2026-04-19T08:33:54.845Z</time></trkpt><trkpt lat="43.7354784" lon="12.511339"><ele>386.25</ele><time>2026-04-19T08:33:55.844Z</time></trkpt><trkpt lat="43.7355723" lon="12.5112445"><ele>386.5</ele><time>2026-04-19T08:33:56.843Z</time></trkpt><trkpt lat="43.7356792" lon="12.5111399"><ele>386.75</ele><time>2026-04-19T08:33:57.847Z</time></trkpt><trkpt lat="43.7357967" lon="12.5110319"><ele>387.0</ele><time>2026-04-19T08:33:58.843Z</time></trkpt><trkpt lat="43.7359054" lon="12.510932"><ele>387.0</ele><time>2026-04-19T08:33:59.845Z</time></trkpt><trkpt lat="43.7359912" lon="12.5108215"><ele>387.0</ele><time>2026-04-19T08:34:00.844Z</time></trkpt><trkpt lat="43.7360685" lon="12.5106851"><ele>387.0</ele><time>2026-04-19T08:34:01.865Z</time></trkpt><trkpt lat="43.7361342" lon="12.5105561"><ele>387.0</ele><time>2026-04-19T08:34:02.845Z</time></trkpt><trkpt lat="43.7361941" lon="12.5104523"><ele>389.6666666666667</ele><time>2026-04-19T08:34:03.844Z</time></trkpt><trkpt lat="43.7362733" lon="12.5104392"><ele>392.33333333333337</ele><time>2026-04-19T08:34:05.846Z</time></trkpt><trkpt lat="43.7363277" lon="12.5105674"><ele>395.0</ele><time>2026-04-19T08:34:07.844Z</time></trkpt><trkpt lat="43.7363518" lon="12.510668"><ele>397.6666666666667</ele><time>2026-04-19T08:34:08.877Z</time></trkpt><trkpt lat="43.7364057" lon="12.5107365"><ele>400.33333333333337</ele><time>2026-04-19T08:34:09.849Z</time></trkpt><trkpt lat="43.7364791" lon="12.5107679"><ele>403.0</ele><time>2026-04-19T08:34:10.844Z</time></trkpt><trkpt lat="43.7365689" lon="12.5107563"><ele>403.0</ele><time>2026-04-19T08:34:11.845Z</time></trkpt><trkpt lat="43.7366625" lon="12.5106958"><ele>403.0</ele><time>2026-04-19T08:34:12.842Z</time></trkpt><trkpt lat="43.7367596" lon="12.5106097"><ele>403.0</ele><time>2026-04-19T08:34:13.848Z</time></trkpt><trkpt lat="43.7368691" lon="12.5104927"><ele>403.0</ele><time>2026-04-19T08:34:14.841Z</time></trkpt><trkpt lat="43.7369994" lon="12.5103453"><ele>409.0</ele><time>2026-04-19T08:34:15.871Z</time></trkpt><trkpt lat="43.7371266" lon="12.5101932"><ele>415.0</ele><time>2026-04-19T08:34:16.853Z</time></trkpt><trkpt lat="43.7372367" lon="12.5100396"><ele>421.0</ele><time>2026-04-19T08:34:17.848Z</time></trkpt><trkpt lat="43.7373383" lon="12.5099094"><ele>421.0</ele><time>2026-04-19T08:34:18.842Z</time></trkpt><trkpt lat="43.7374386" lon="12.5098171"><ele>421.0</ele><time>2026-04-19T08:34:19.848Z</time></trkpt><trkpt lat="43.7375339" lon="12.5097722"><ele>421.0</ele><time>2026-04-19T08:34:20.841Z</time></trkpt><trkpt lat="43.7376051" lon="12.5097633"><ele>421.0</ele><time>2026-04-19T08:34:21.844Z</time></trkpt><trkpt lat="43.7376772" lon="12.5097001"><ele>421.0</ele><time>2026-04-19T08:34:23.849Z</time></trkpt><trkpt lat="43.7376393" lon="12.5096127"><ele>421.00000000000006</ele><time>2026-04-19T08:34:25.847Z</time></trkpt><trkpt lat="43.7375744" lon="12.509611"><ele>421.0</ele><time>2026-04-19T08:34:26.862Z</time></trkpt><trkpt lat="43.7374909" lon="12.5096397"><ele>421.0</ele><time>2026-04-19T08:34:27.845Z</time></trkpt><trkpt lat="43.7373985" lon="12.5096797"><ele>421.0</ele><time>2026-04-19T08:34:28.844Z</time></trkpt><trkpt lat="43.7373206" lon="12.5096994"><ele>421.00000000000006</ele><time>2026-04-19T08:34:29.846Z</time></trkpt><trkpt lat="43.7372394" lon="12.5096353"><ele>421.0</ele><time>2026-04-19T08:34:31.847Z</time></trkpt><trkpt lat="43.737278" lon="12.5094946"><ele>422.0</ele><time>2026-04-19T08:34:33.846Z</time></trkpt><trkpt lat="43.7373402" lon="12.5094037"><ele>423.0</ele><time>2026-04-19T08:34:34.842Z</time></trkpt><trkpt lat="43.7374119" lon="12.5093071"><ele>424.0</ele><time>2026-04-19T08:34:35.844Z</time></trkpt><trkpt lat="43.7374872" lon="12.5092088"><ele>425.0</ele><time>2026-04-19T08:34:36.844Z</time></trkpt><trkpt lat="43.7375696" lon="12.5091227"><ele>426.0</ele><time>2026-04-19T08:34:37.844Z</time></trkpt><trkpt lat="43.7376567" lon="12.5090544"><ele>427.20000000000005</ele><time>2026-04-19T08:34:38.847Z</time></trkpt><trkpt lat="43.7377496" lon="12.5089996"><ele>428.40000000000003</ele><time>2026-04-19T08:34:39.859Z</time></trkpt><trkpt lat="43.737849" lon="12.508949"><ele>429.6</ele><time>2026-04-19T08:34:40.838Z</time></trkpt><trkpt lat="43.7379509" lon="12.5088869"><ele>430.8</ele><time>2026-04-19T08:34:41.845Z</time></trkpt><trkpt lat="43.7380467" lon="12.508796"><ele>432.0</ele><time>2026-04-19T08:34:42.844Z</time></trkpt><trkpt lat="43.7381307" lon="12.5086731"><ele>434.0</ele><time>2026-04-19T08:34:43.841Z</time></trkpt><trkpt lat="43.7382077" lon="12.5085208"><ele>436.0</ele><time>2026-04-19T08:34:44.844Z</time></trkpt><trkpt lat="43.7382863" lon="12.5083464"><ele>438.0</ele><time>2026-04-19T08:34:45.867Z</time></trkpt><trkpt lat="43.7383749" lon="12.5081687"><ele>440.0</ele><time>2026-04-19T08:34:46.838Z</time></trkpt><trkpt lat="43.7384773" lon="12.5079887"><ele>449.66666666666663</ele><time>2026-04-19T08:34:47.847Z</time></trkpt><trkpt lat="43.7385718" lon="12.5078155"><ele>459.33333333333337</ele><time>2026-04-19T08:34:48.853Z</time></trkpt><trkpt lat="43.7386633" lon="12.5076552"><ele>469.0</ele><time>2026-04-19T08:34:49.85Z</time></trkpt><trkpt lat="43.7387653" lon="12.507506"><ele>469.0</ele><time>2026-04-19T08:34:50.867Z</time></trkpt><trkpt lat="43.738862" lon="12.5073673"><ele>469.0</ele><time>2026-04-19T08:34:51.848Z</time></trkpt><trkpt lat="43.738938" lon="12.5072234"><ele>469.0</ele><time>2026-04-19T08:34:52.842Z</time></trkpt><trkpt lat="43.7389913" lon="12.5070688"><ele>469.0</ele><time>2026-04-19T08:34:53.843Z</time></trkpt><trkpt lat="43.7390357" lon="12.5069167"><ele>469.0</ele><time>2026-04-19T08:34:54.85Z</time></trkpt><trkpt lat="43.7390532" lon="12.5067575"><ele>469.0</ele><time>2026-04-19T08:34:55.845Z</time></trkpt><trkpt lat="43.7390542" lon="12.5066023"><ele>469.0</ele><time>2026-04-19T08:34:56.862Z</time></trkpt><trkpt lat="43.7390326" lon="12.5064534"><ele>469.0</ele><time>2026-04-19T08:34:57.853Z</time></trkpt><trkpt lat="43.7389923" lon="12.5063179"><ele>469.0</ele><time>2026-04-19T08:34:58.848Z</time></trkpt><trkpt lat="43.7389506" lon="12.5061909"><ele>468.1666666666667</ele><time>2026-04-19T08:34:59.842Z</time></trkpt><trkpt lat="43.738921" lon="12.5060831"><ele>467.33333333333337</ele><time>2026-04-19T08:35:00.846Z</time></trkpt><trkpt lat="43.7389174" lon="12.5059468"><ele>466.5</ele><time>2026-04-19T08:35:02.851Z</time></trkpt><trkpt lat="43.7388973" lon="12.5058234"><ele>465.66666666666663</ele><time>2026-04-19T08:35:04.849Z</time></trkpt><trkpt lat="43.7388517" lon="12.5057508"><ele>464.8333333333333</ele><time>2026-04-19T08:35:05.855Z</time></trkpt><trkpt lat="43.7387813" lon="12.5056754"><ele>464.0</ele><time>2026-04-19T08:35:06.847Z</time></trkpt><trkpt lat="43.7387029" lon="12.5055948"><ele>464.0</ele><time>2026-04-19T08:35:07.85Z</time></trkpt><trkpt lat="43.7386261" lon="12.5055108"><ele>464.0</ele><time>2026-04-19T08:35:08.845Z</time></trkpt><trkpt lat="43.7385535" lon="12.5054263"><ele>464.0</ele><time>2026-04-19T08:35:09.848Z</time></trkpt><trkpt lat="43.7384782" lon="12.5053477"><ele>464.0</ele><time>2026-04-19T08:35:10.852Z</time></trkpt><trkpt lat="43.7384016" lon="12.5052823"><ele>464.0</ele><time>2026-04-19T08:35:11.85Z</time></trkpt><trkpt lat="43.738323" lon="12.5052196"><ele>466.16666666666663</ele><time>2026-04-19T08:35:12.857Z</time></trkpt><trkpt lat="43.7382429" lon="12.5051588"><ele>468.3333333333333</ele><time>2026-04-19T08:35:13.845Z</time></trkpt><trkpt lat="43.7381638" lon="12.5050965"><ele>470.5</ele><time>2026-04-19T08:35:14.848Z</time></trkpt><trkpt lat="43.7380998" lon="12.5050242"><ele>472.66666666666663</ele><time>2026-04-19T08:35:15.849Z</time></trkpt><trkpt lat="43.7380643" lon="12.5049362"><ele>474.8333333333333</ele><time>2026-04-19T08:35:16.851Z</time></trkpt><trkpt lat="43.738057" lon="12.5048312"><ele>477.0</ele><time>2026-04-19T08:35:17.849Z</time></trkpt><trkpt lat="43.738077" lon="12.5047226"><ele>477.0</ele><time>2026-04-19T08:35:18.863Z</time></trkpt><trkpt lat="43.738119" lon="12.5046201"><ele>477.00000000000006</ele><time>2026-04-19T08:35:19.848Z</time></trkpt><trkpt lat="43.7381714" lon="12.5045136"><ele>477.00000000000006</ele><time>2026-04-19T08:35:20.845Z</time></trkpt><trkpt lat="43.7382086" lon="12.5043943"><ele>477.0</ele><time>2026-04-19T08:35:21.847Z</time></trkpt><trkpt lat="43.7382183" lon="12.5042611"><ele>477.0</ele><time>2026-04-19T08:35:22.841Z</time></trkpt><trkpt lat="43.7382015" lon="12.5041202"><ele>477.20000000000005</ele><time>2026-04-19T08:35:23.871Z</time></trkpt><trkpt lat="43.7381602" lon="12.5039827"><ele>477.40000000000003</ele><time>2026-04-19T08:35:24.85Z</time></trkpt><trkpt lat="43.7381292" lon="12.5038512"><ele>477.59999999999997</ele><time>2026-04-19T08:35:25.845Z</time></trkpt><trkpt lat="43.7381242" lon="12.5037212"><ele>477.79999999999995</ele><time>2026-04-19T08:35:26.849Z</time></trkpt><trkpt lat="43.7381523" lon="12.5035516"><ele>478.0</ele><time>2026-04-19T08:35:27.851Z</time></trkpt><trkpt lat="43.7381733" lon="12.5033668"><ele>478.0</ele><time>2026-04-19T08:35:28.853Z</time></trkpt><trkpt lat="43.7381501" lon="12.5031796"><ele>478.0</ele><time>2026-04-19T08:35:29.847Z</time></trkpt><trkpt lat="43.7380846" lon="12.5029673"><ele>478.0</ele><time>2026-04-19T08:35:30.867Z</time></trkpt><trkpt lat="43.738022" lon="12.5027477"><ele>475.5</ele><time>2026-04-19T08:35:31.84Z</time></trkpt><trkpt lat="43.7379731" lon="12.5025456"><ele>473.0</ele><time>2026-04-19T08:35:32.837Z</time></trkpt><trkpt lat="43.7379591" lon="12.5023748"><ele>470.5</ele><time>2026-04-19T08:35:33.855Z</time></trkpt><trkpt lat="43.7379789" lon="12.5022259"><ele>468.0</ele><time>2026-04-19T08:35:34.849Z</time></trkpt><trkpt lat="43.7380278" lon="12.5020944"><ele>466.0</ele><time>2026-04-19T08:35:35.863Z</time></trkpt><trkpt lat="43.7380953" lon="12.5019394"><ele>464.0</ele><time>2026-04-19T08:35:36.85Z</time></trkpt><trkpt lat="43.738177" lon="12.5017809"><ele>462.0</ele><time>2026-04-19T08:35:37.848Z</time></trkpt><trkpt lat="43.7382351" lon="12.5016087"><ele>460.0</ele><time>2026-04-19T08:35:38.85Z</time></trkpt><trkpt lat="43.7382514" lon="12.501398"><ele>457.6666666666667</ele><time>2026-04-19T08:35:39.841Z</time></trkpt><trkpt lat="43.7382642" lon="12.5011686"><ele>455.33333333333337</ele><time>2026-04-19T08:35:40.87Z</time></trkpt><trkpt lat="43.7382947" lon="12.5009347"><ele>453.0</ele><time>2026-04-19T08:35:41.845Z</time></trkpt><trkpt lat="43.738331" lon="12.5007157"><ele>453.0</ele><time>2026-04-19T08:35:42.849Z</time></trkpt><trkpt lat="43.7383506" lon="12.5005021"><ele>453.0</ele><time>2026-04-19T08:35:43.849Z</time></trkpt><trkpt lat="43.7383436" lon="12.5002875"><ele>453.0</ele><time>2026-04-19T08:35:44.854Z</time></trkpt><trkpt lat="43.738303" lon="12.5000889"><ele>455.33333333333337</ele><time>2026-04-19T08:35:45.844Z</time></trkpt><trkpt lat="43.7382655" lon="12.4999029"><ele>457.6666666666667</ele><time>2026-04-19T08:35:46.845Z</time></trkpt><trkpt lat="43.7382409" lon="12.4997006"><ele>460.0</ele><time>2026-04-19T08:35:47.845Z</time></trkpt><trkpt lat="43.7382307" lon="12.4994718"><ele>463.25</ele><time>2026-04-19T08:35:48.85Z</time></trkpt><trkpt lat="43.7382263" lon="12.499251"><ele>466.5</ele><time>2026-04-19T08:35:49.843Z</time></trkpt><trkpt lat="43.7382184" lon="12.4990627"><ele>469.75</ele><time>2026-04-19T08:35:50.863Z</time></trkpt><trkpt lat="43.7381964" lon="12.4989409"><ele>473.0</ele><time>2026-04-19T08:35:51.844Z</time></trkpt><trkpt lat="43.7381522" lon="12.4988427"><ele>473.0</ele><time>2026-04-19T08:35:52.846Z</time></trkpt><trkpt lat="43.7380742" lon="12.4987772"><ele>473.0</ele><time>2026-04-19T08:35:53.844Z</time></trkpt><trkpt lat="43.7379577" lon="12.4987531"><ele>473.0</ele><time>2026-04-19T08:35:54.843Z</time></trkpt><trkpt lat="43.7378125" lon="12.4987394"><ele>473.0</ele><time>2026-04-19T08:35:55.871Z</time></trkpt><trkpt lat="43.7376795" lon="12.4987308"><ele>473.0</ele><time>2026-04-19T08:35:56.841Z</time></trkpt><trkpt lat="43.7375768" lon="12.4987217"><ele>472.99999999999994</ele><time>2026-04-19T08:35:57.853Z</time></trkpt><trkpt lat="43.7375072" lon="12.4986557"><ele>472.99999999999994</ele><time>2026-04-19T08:35:58.844Z</time></trkpt><trkpt lat="43.7374546" lon="12.4985574"><ele>473.0</ele><time>2026-04-19T08:35:59.845Z</time></trkpt><trkpt lat="43.7374085" lon="12.4983981"><ele>473.0</ele><time>2026-04-19T08:36:00.842Z</time></trkpt><trkpt lat="43.7373524" lon="12.4982146"><ele>473.0</ele><time>2026-04-19T08:36:01.854Z</time></trkpt><trkpt lat="43.7372894" lon="12.498049"><ele>472.99999999999994</ele><time>2026-04-19T08:36:02.847Z</time></trkpt><trkpt lat="43.737215" lon="12.4979207"><ele>472.99999999999994</ele><time>2026-04-19T08:36:03.852Z</time></trkpt><trkpt lat="43.7371372" lon="12.4978354"><ele>473.0</ele><time>2026-04-19T08:36:04.844Z</time></trkpt><trkpt lat="43.7370915" lon="12.4977708"><ele>473.0</ele><time>2026-04-19T08:36:05.847Z</time></trkpt><trkpt lat="43.7371244" lon="12.4976182"><ele>474.59999999999997</ele><time>2026-04-19T08:36:07.846Z</time></trkpt><trkpt lat="43.7371934" lon="12.4975061"><ele>476.19999999999993</ele><time>2026-04-19T08:36:09.847Z</time></trkpt><trkpt lat="43.7372581" lon="12.4974349"><ele>477.8</ele><time>2026-04-19T08:36:13.847Z</time></trkpt><trkpt lat="43.7373137" lon="12.4973537"><ele>479.4</ele><time>2026-04-19T08:36:14.845Z</time></trkpt><trkpt lat="43.7373759" lon="12.4972411"><ele>481.0</ele><time>2026-04-19T08:36:15.857Z</time></trkpt><trkpt lat="43.7374381" lon="12.4971041"><ele>480.75</ele><time>2026-04-19T08:36:16.846Z</time></trkpt><trkpt lat="43.7375007" lon="12.4969606"><ele>480.5</ele><time>2026-04-19T08:36:17.846Z</time></trkpt><trkpt lat="43.737573" lon="12.4967996"><ele>480.25</ele><time>2026-04-19T08:36:18.855Z</time></trkpt><trkpt lat="43.7376554" lon="12.4966487"><ele>480.0</ele><time>2026-04-19T08:36:19.851Z</time></trkpt><trkpt lat="43.7377471" lon="12.4965152"><ele>481.25</ele><time>2026-04-19T08:36:20.873Z</time></trkpt><trkpt lat="43.73786" lon="12.4963992"><ele>482.5</ele><time>2026-04-19T08:36:21.85Z</time></trkpt><trkpt lat="43.7379943" lon="12.496299"><ele>483.75</ele><time>2026-04-19T08:36:22.849Z</time></trkpt><trkpt lat="43.7381308" lon="12.4962118"><ele>485.0</ele><time>2026-04-19T08:36:23.849Z</time></trkpt><trkpt lat="43.7382653" lon="12.4961569"><ele>485.0</ele><time>2026-04-19T08:36:24.845Z</time></trkpt><trkpt lat="43.7383968" lon="12.4961199"><ele>485.0</ele><time>2026-04-19T08:36:25.865Z</time></trkpt><trkpt lat="43.7385175" lon="12.496096"><ele>485.0</ele><time>2026-04-19T08:36:26.849Z</time></trkpt><trkpt lat="43.7386238" lon="12.4960498"><ele>485.0</ele><time>2026-04-19T08:36:27.848Z</time></trkpt><trkpt lat="43.7387251" lon="12.4959692"><ele>481.0</ele><time>2026-04-19T08:36:28.851Z</time></trkpt><trkpt lat="43.7388433" lon="12.495852"><ele>477.0</ele><time>2026-04-19T08:36:29.85Z</time></trkpt><trkpt lat="43.7389872" lon="12.4957083"><ele>473.0</ele><time>2026-04-19T08:36:30.87Z</time></trkpt><trkpt lat="43.7391297" lon="12.4955646"><ele>473.0</ele><time>2026-04-19T08:36:31.849Z</time></trkpt><trkpt lat="43.7392575" lon="12.4954349"><ele>473.0</ele><time>2026-04-19T08:36:32.847Z</time></trkpt><trkpt lat="43.7393763" lon="12.4953422"><ele>473.0</ele><time>2026-04-19T08:36:33.85Z</time></trkpt><trkpt lat="43.7394938" lon="12.4952976"><ele>473.0</ele><time>2026-04-19T08:36:34.84Z</time></trkpt><trkpt lat="43.7396124" lon="12.4953001"><ele>472.25</ele><time>2026-04-19T08:36:35.847Z</time></trkpt><trkpt lat="43.7397284" lon="12.4953601"><ele>471.5</ele><time>2026-04-19T08:36:36.843Z</time></trkpt><trkpt lat="43.7398614" lon="12.4954603"><ele>470.75</ele><time>2026-04-19T08:36:37.862Z</time></trkpt><trkpt lat="43.7400102" lon="12.4955794"><ele>470.0</ele><time>2026-04-19T08:36:38.852Z</time></trkpt><trkpt lat="43.740142" lon="12.4956976"><ele>469.6</ele><time>2026-04-19T08:36:39.861Z</time></trkpt><trkpt lat="43.7402414" lon="12.4958043"><ele>469.2</ele><time>2026-04-19T08:36:40.845Z</time></trkpt><trkpt lat="43.7403244" lon="12.4958944"><ele>468.79999999999995</ele><time>2026-04-19T08:36:41.851Z</time></trkpt><trkpt lat="43.7404039" lon="12.4959482"><ele>468.4</ele><time>2026-04-19T08:36:42.844Z</time></trkpt><trkpt lat="43.7404911" lon="12.4959718"><ele>468.0</ele><time>2026-04-19T08:36:43.844Z</time></trkpt><trkpt lat="43.740589" lon="12.4959693"><ele>468.0</ele><time>2026-04-19T08:36:44.848Z</time></trkpt><trkpt lat="43.7406987" lon="12.4959439"><ele>468.0</ele><time>2026-04-19T08:36:45.848Z</time></trkpt><trkpt lat="43.7408216" lon="12.4959021"><ele>468.0</ele><time>2026-04-19T08:36:46.843Z</time></trkpt><trkpt lat="43.7409685" lon="12.4958702"><ele>468.0</ele><time>2026-04-19T08:36:47.845Z</time></trkpt><trkpt lat="43.7411412" lon="12.4958718"><ele>466.0</ele><time>2026-04-19T08:36:48.845Z</time></trkpt><trkpt lat="43.7413389" lon="12.4958685"><ele>464.0</ele><time>2026-04-19T08:36:49.853Z</time></trkpt><trkpt lat="43.7415379" lon="12.4958523"><ele>462.0</ele><time>2026-04-19T08:36:50.844Z</time></trkpt><trkpt lat="43.7417224" lon="12.4958264"><ele>460.0</ele><time>2026-04-19T08:36:51.868Z</time></trkpt><trkpt lat="43.7419025" lon="12.4957913"><ele>458.0</ele><time>2026-04-19T08:36:52.844Z</time></trkpt><trkpt lat="43.7420812" lon="12.4957364"><ele>456.0</ele><time>2026-04-19T08:36:53.84Z</time></trkpt><trkpt lat="43.7422511" lon="12.4956858"><ele>456.0</ele><time>2026-04-19T08:36:54.846Z</time></trkpt><trkpt lat="43.7423922" lon="12.4956468"><ele>456.0</ele><time>2026-04-19T08:36:55.842Z</time></trkpt><trkpt lat="43.742528" lon="12.4956036"><ele>456.0</ele><time>2026-04-19T08:36:56.844Z</time></trkpt><trkpt lat="43.7426608" lon="12.4955583"><ele>456.0</ele><time>2026-04-19T08:36:57.853Z</time></trkpt><trkpt lat="43.7427786" lon="12.4954948"><ele>454.20000000000005</ele><time>2026-04-19T08:36:58.844Z</time></trkpt><trkpt lat="43.7428671" lon="12.495419"><ele>452.40000000000003</ele><time>2026-04-19T08:36:59.847Z</time></trkpt><trkpt lat="43.7429326" lon="12.4953248"><ele>450.6</ele><time>2026-04-19T08:37:00.843Z</time></trkpt><trkpt lat="43.742969" lon="12.4952133"><ele>448.8</ele><time>2026-04-19T08:37:01.841Z</time></trkpt><trkpt lat="43.7429678" lon="12.4950937"><ele>447.0</ele><time>2026-04-19T08:37:02.843Z</time></trkpt><trkpt lat="43.7429357" lon="12.4949905"><ele>447.0</ele><time>2026-04-19T08:37:03.842Z</time></trkpt><trkpt lat="43.7428699" lon="12.4948918"><ele>447.0</ele><time>2026-04-19T08:37:04.846Z</time></trkpt><trkpt lat="43.7427794" lon="12.4947688"><ele>447.0</ele><time>2026-04-19T08:37:05.848Z</time></trkpt><trkpt lat="43.7426901" lon="12.494628"><ele>447.0</ele><time>2026-04-19T08:37:06.847Z</time></trkpt><trkpt lat="43.7426234" lon="12.4944599"><ele>452.5</ele><time>2026-04-19T08:37:07.862Z</time></trkpt><trkpt lat="43.7425782" lon="12.4942747"><ele>458.0</ele><time>2026-04-19T08:37:08.848Z</time></trkpt><trkpt lat="43.7425679" lon="12.4940527"><ele>463.5</ele><time>2026-04-19T08:37:09.847Z</time></trkpt><trkpt lat="43.7425592" lon="12.4938527"><ele>469.0</ele><time>2026-04-19T08:37:10.851Z</time></trkpt><trkpt lat="43.7425408" lon="12.4936954"><ele>469.0</ele><time>2026-04-19T08:37:11.845Z</time></trkpt><trkpt lat="43.7425015" lon="12.4935658"><ele>469.0</ele><time>2026-04-19T08:37:12.873Z</time></trkpt><trkpt lat="43.7424297" lon="12.4934482"><ele>469.0</ele><time>2026-04-19T08:37:13.845Z</time></trkpt><trkpt lat="43.7423362" lon="12.4933041"><ele>469.0</ele><time>2026-04-19T08:37:14.841Z</time></trkpt><trkpt lat="43.7422516" lon="12.4931463"><ele>469.0</ele><time>2026-04-19T08:37:15.844Z</time></trkpt><trkpt lat="43.7421934" lon="12.4929782"><ele>469.0</ele><time>2026-04-19T08:37:16.844Z</time></trkpt><trkpt lat="43.7421682" lon="12.4927624"><ele>469.0</ele><time>2026-04-19T08:37:17.857Z</time></trkpt><trkpt lat="43.7421588" lon="12.4925249"><ele>469.5</ele><time>2026-04-19T08:37:18.842Z</time></trkpt><trkpt lat="43.7421313" lon="12.4923109"><ele>470.0</ele><time>2026-04-19T08:37:19.848Z</time></trkpt><trkpt lat="43.7421167" lon="12.492132"><ele>470.5</ele><time>2026-04-19T08:37:20.843Z</time></trkpt><trkpt lat="43.7421172" lon="12.4919615"><ele>471.0</ele><time>2026-04-19T08:37:21.844Z</time></trkpt><trkpt lat="43.742142" lon="12.4918069"><ele>474.25</ele><time>2026-04-19T08:37:22.841Z</time></trkpt><trkpt lat="43.7421983" lon="12.4916795"><ele>477.5</ele><time>2026-04-19T08:37:23.841Z</time></trkpt><trkpt lat="43.7423287" lon="12.4915826"><ele>480.75</ele><time>2026-04-19T08:37:24.842Z</time></trkpt><trkpt lat="43.7424704" lon="12.4914893"><ele>484.0</ele><time>2026-04-19T08:37:25.845Z</time></trkpt><trkpt lat="43.742608" lon="12.4914194"><ele>478.79999999999995</ele><time>2026-04-19T08:37:26.84Z</time></trkpt><trkpt lat="43.7427287" lon="12.4913672"><ele>473.59999999999997</ele><time>2026-04-19T08:37:27.847Z</time></trkpt><trkpt lat="43.7428092" lon="12.4913129"><ele>468.4</ele><time>2026-04-19T08:37:28.843Z</time></trkpt><trkpt lat="43.7428492" lon="12.4912322"><ele>463.2</ele><time>2026-04-19T08:37:29.863Z</time></trkpt><trkpt lat="43.7428599" lon="12.4911203"><ele>458.0</ele><time>2026-04-19T08:37:30.845Z</time></trkpt><trkpt lat="43.7428468" lon="12.4909814"><ele>458.0</ele><time>2026-04-19T08:37:31.842Z</time></trkpt><trkpt lat="43.7428065" lon="12.490834"><ele>458.0</ele><time>2026-04-19T08:37:32.846Z</time></trkpt><trkpt lat="43.7427417" lon="12.4907083"><ele>458.0</ele><time>2026-04-19T08:37:33.843Z</time></trkpt><trkpt lat="43.7426584" lon="12.4905873"><ele>458.0</ele><time>2026-04-19T08:37:34.844Z</time></trkpt><trkpt lat="43.7425427" lon="12.4904771"><ele>463.0</ele><time>2026-04-19T08:37:35.848Z</time></trkpt><trkpt lat="43.7424113" lon="12.4903599"><ele>468.0</ele><time>2026-04-19T08:37:36.842Z</time></trkpt><trkpt lat="43.7422931" lon="12.4902568"><ele>473.0</ele><time>2026-04-19T08:37:37.861Z</time></trkpt><trkpt lat="43.7422241" lon="12.4901446"><ele>478.0</ele><time>2026-04-19T08:37:38.839Z</time></trkpt><trkpt lat="43.7421776" lon="12.4900505"><ele>478.00000000000006</ele><time>2026-04-19T08:37:39.844Z</time></trkpt><trkpt lat="43.7421154" lon="12.4899857"><ele>478.0</ele><time>2026-04-19T08:37:40.847Z</time></trkpt><trkpt lat="43.7420276" lon="12.489949"><ele>478.0</ele><time>2026-04-19T08:37:41.842Z</time></trkpt><trkpt lat="43.741922" lon="12.489928"><ele>478.0</ele><time>2026-04-19T08:37:42.842Z</time></trkpt><trkpt lat="43.7418239" lon="12.489911"><ele>478.00000000000006</ele><time>2026-04-19T08:37:43.841Z</time></trkpt><trkpt lat="43.7417561" lon="12.4898783"><ele>478.0</ele><time>2026-04-19T08:37:44.868Z</time></trkpt><trkpt lat="43.7417319" lon="12.4897672"><ele>480.5</ele><time>2026-04-19T08:37:45.844Z</time></trkpt><trkpt lat="43.74173" lon="12.4895903"><ele>483.0</ele><time>2026-04-19T08:37:46.845Z</time></trkpt><trkpt lat="43.7417406" lon="12.4894146"><ele>485.5</ele><time>2026-04-19T08:37:47.844Z</time></trkpt><trkpt lat="43.7417251" lon="12.4892794"><ele>488.0</ele><time>2026-04-19T08:37:48.845Z</time></trkpt><trkpt lat="43.7416749" lon="12.489151"><ele>488.0</ele><time>2026-04-19T08:37:49.864Z</time></trkpt><trkpt lat="43.7415842" lon="12.4890309"><ele>488.0</ele><time>2026-04-19T08:37:50.843Z</time></trkpt><trkpt lat="43.7414556" lon="12.4888896"><ele>488.0</ele><time>2026-04-19T08:37:51.844Z</time></trkpt><trkpt lat="43.7413106" lon="12.4887349"><ele>487.75</ele><time>2026-04-19T08:37:52.846Z</time></trkpt><trkpt lat="43.7411851" lon="12.4885979"><ele>487.5</ele><time>2026-04-19T08:37:53.84Z</time></trkpt><trkpt lat="43.7410715" lon="12.488491"><ele>487.25</ele><time>2026-04-19T08:37:54.854Z</time></trkpt><trkpt lat="43.7409538" lon="12.4884101"><ele>487.0</ele><time>2026-04-19T08:37:55.842Z</time></trkpt><trkpt lat="43.7408098" lon="12.4883266"><ele>487.0</ele><time>2026-04-19T08:37:56.839Z</time></trkpt><trkpt lat="43.740629" lon="12.4882719"><ele>487.0</ele><time>2026-04-19T08:37:57.847Z</time></trkpt><trkpt lat="43.7404668" lon="12.4882034"><ele>487.0</ele><time>2026-04-19T08:37:58.847Z</time></trkpt><trkpt lat="43.7403271" lon="12.4881291"><ele>487.0</ele><time>2026-04-19T08:37:59.864Z</time></trkpt><trkpt lat="43.7402181" lon="12.4880406"><ele>487.0</ele><time>2026-04-19T08:38:00.847Z</time></trkpt><trkpt lat="43.7401389" lon="12.4879213"><ele>487.0</ele><time>2026-04-19T08:38:01.839Z</time></trkpt><trkpt lat="43.7400692" lon="12.4877771"><ele>487.0</ele><time>2026-04-19T08:38:02.843Z</time></trkpt><trkpt lat="43.7399942" lon="12.4875903"><ele>485.5</ele><time>2026-04-19T08:38:03.837Z</time></trkpt><trkpt lat="43.7399047" lon="12.4874043"><ele>484.0</ele><time>2026-04-19T08:38:04.845Z</time></trkpt><trkpt lat="43.7398336" lon="12.4872403"><ele>482.5</ele><time>2026-04-19T08:38:05.844Z</time></trkpt><trkpt lat="43.7397762" lon="12.4870822"><ele>481.0</ele><time>2026-04-19T08:38:06.84Z</time></trkpt><trkpt lat="43.7397555" lon="12.486906"><ele>481.0</ele><time>2026-04-19T08:38:07.869Z</time></trkpt><trkpt lat="43.7397548" lon="12.486731"><ele>481.0</ele><time>2026-04-19T08:38:08.843Z</time></trkpt><trkpt lat="43.7397788" lon="12.4865526"><ele>481.0</ele><time>2026-04-19T08:38:09.844Z</time></trkpt><trkpt lat="43.7398385" lon="12.4863813"><ele>481.0</ele><time>2026-04-19T08:38:10.847Z</time></trkpt><trkpt lat="43.7398779" lon="12.4862305"><ele>481.0</ele><time>2026-04-19T08:38:11.846Z</time></trkpt><trkpt lat="43.7398717" lon="12.4860957"><ele>481.0</ele><time>2026-04-19T08:38:12.843Z</time></trkpt><trkpt lat="43.7398426" lon="12.4859542"><ele>481.0</ele><time>2026-04-19T08:38:13.847Z</time></trkpt><trkpt lat="43.7397988" lon="12.485798"><ele>481.0</ele><time>2026-04-19T08:38:14.845Z</time></trkpt><trkpt lat="43.7397717" lon="12.4856404"><ele>481.0</ele><time>2026-04-19T08:38:15.863Z</time></trkpt><trkpt lat="43.7397895" lon="12.4854742"><ele>482.83333333333337</ele><time>2026-04-19T08:38:16.841Z</time></trkpt><trkpt lat="43.739821" lon="12.4853201"><ele>484.6666666666667</ele><time>2026-04-19T08:38:17.846Z</time></trkpt><trkpt lat="43.7398355" lon="12.4852046"><ele>486.5</ele><time>2026-04-19T08:38:18.844Z</time></trkpt><trkpt lat="43.7397624" lon="12.4851108"><ele>488.33333333333337</ele><time>2026-04-19T08:38:20.844Z</time></trkpt><trkpt lat="43.7396987" lon="12.4851156"><ele>490.1666666666667</ele><time>2026-04-19T08:38:21.849Z</time></trkpt><trkpt lat="43.7396323" lon="12.4851776"><ele>492.0</ele><time>2026-04-19T08:38:22.848Z</time></trkpt><trkpt lat="43.7395537" lon="12.4852604"><ele>492.0</ele><time>2026-04-19T08:38:23.851Z</time></trkpt><trkpt lat="43.7394519" lon="12.4853534"><ele>492.0</ele><time>2026-04-19T08:38:24.863Z</time></trkpt><trkpt lat="43.7393298" lon="12.4854209"><ele>492.0</ele><time>2026-04-19T08:38:25.84Z</time></trkpt><trkpt lat="43.7392044" lon="12.4854484"><ele>492.0</ele><time>2026-04-19T08:38:26.846Z</time></trkpt><trkpt lat="43.7390836" lon="12.4854328"><ele>497.0</ele><time>2026-04-19T08:38:27.841Z</time></trkpt><trkpt lat="43.7389631" lon="12.4853876"><ele>502.00000000000006</ele><time>2026-04-19T08:38:28.842Z</time></trkpt><trkpt lat="43.738849" lon="12.4853398"><ele>507.00000000000006</ele><time>2026-04-19T08:38:29.841Z</time></trkpt><trkpt lat="43.7387565" lon="12.4852798"><ele>512.0</ele><time>2026-04-19T08:38:30.855Z</time></trkpt><trkpt lat="43.7386888" lon="12.4852035"><ele>517.0</ele><time>2026-04-19T08:38:31.844Z</time></trkpt><trkpt lat="43.7386409" lon="12.4850778"><ele>517.0</ele><time>2026-04-19T08:38:32.862Z</time></trkpt><trkpt lat="43.7385974" lon="12.4849134"><ele>517.0</ele><time>2026-04-19T08:38:33.844Z</time></trkpt><trkpt lat="43.7385634" lon="12.4847205"><ele>517.0</ele><time>2026-04-19T08:38:34.84Z</time></trkpt><trkpt lat="43.7385315" lon="12.4845443"><ele>517.0</ele><time>2026-04-19T08:38:35.847Z</time></trkpt><trkpt lat="43.7384932" lon="12.4844011"><ele>519.0</ele><time>2026-04-19T08:38:36.845Z</time></trkpt><trkpt lat="43.7384275" lon="12.4842989"><ele>521.0</ele><time>2026-04-19T08:38:37.854Z</time></trkpt><trkpt lat="43.7383403" lon="12.4842328"><ele>523.0</ele><time>2026-04-19T08:38:38.844Z</time></trkpt><trkpt lat="43.7382896" lon="12.4841581"><ele>525.0</ele><time>2026-04-19T08:38:39.855Z</time></trkpt><trkpt lat="43.7382962" lon="12.4839992"><ele>527.0</ele><time>2026-04-19T08:38:41.86Z</time></trkpt><trkpt lat="43.7383506" lon="12.4839388"><ele>527.0</ele><time>2026-04-19T08:38:42.845Z</time></trkpt><trkpt lat="43.7384578" lon="12.4839423"><ele>527.0</ele><time>2026-04-19T08:38:44.845Z</time></trkpt><trkpt lat="43.7385025" lon="12.4840262"><ele>527.0</ele><time>2026-04-19T08:38:45.846Z</time></trkpt><trkpt lat="43.7385552" lon="12.4841423"><ele>527.0</ele><time>2026-04-19T08:38:46.861Z</time></trkpt><trkpt lat="43.7386274" lon="12.4842606"><ele>527.0</ele><time>2026-04-19T08:38:47.84Z</time></trkpt><trkpt lat="43.7387147" lon="12.4843786"><ele>527.8000000000001</ele><time>2026-04-19T08:38:48.844Z</time></trkpt><trkpt lat="43.7387984" lon="12.4844936"><ele>528.6</ele><time>2026-04-19T08:38:49.847Z</time></trkpt><trkpt lat="43.73886" lon="12.4845757"><ele>529.4000000000001</ele><time>2026-04-19T08:38:50.847Z</time></trkpt><trkpt lat="43.7389174" lon="12.4846257"><ele>530.2</ele><time>2026-04-19T08:38:51.867Z</time></trkpt><trkpt lat="43.739015" lon="12.4846129"><ele>531.0</ele><time>2026-04-19T08:38:53.845Z</time></trkpt><trkpt lat="43.7390353" lon="12.4844267"><ele>531.0</ele><time>2026-04-19T08:38:55.858Z</time></trkpt><trkpt lat="43.7390409" lon="12.4843005"><ele>531.0</ele><time>2026-04-19T08:38:56.842Z</time></trkpt><trkpt lat="43.7390557" lon="12.4841625"><ele>531.0</ele><time>2026-04-19T08:38:57.844Z</time></trkpt><trkpt lat="43.7391158" lon="12.4840242"><ele>531.0</ele><time>2026-04-19T08:38:58.842Z</time></trkpt><trkpt lat="43.7391834" lon="12.4838909"><ele>531.0</ele><time>2026-04-19T08:38:59.846Z</time></trkpt><trkpt lat="43.7392311" lon="12.4837599"><ele>532.6666666666666</ele><time>2026-04-19T08:39:00.844Z</time></trkpt><trkpt lat="43.7392713" lon="12.4836258"><ele>534.3333333333334</ele><time>2026-04-19T08:39:01.862Z</time></trkpt><trkpt lat="43.7392888" lon="12.4834972"><ele>536.0</ele><time>2026-04-19T08:39:02.844Z</time></trkpt><trkpt lat="43.7392951" lon="12.4833784"><ele>537.6666666666667</ele><time>2026-04-19T08:39:03.843Z</time></trkpt><trkpt lat="43.739295" lon="12.4832841"><ele>539.3333333333334</ele><time>2026-04-19T08:39:04.846Z</time></trkpt><trkpt lat="43.7392695" lon="12.4831967"><ele>541.0</ele><time>2026-04-19T08:39:06.842Z</time></trkpt><trkpt lat="43.7391598" lon="12.483083"><ele>541.0</ele><time>2026-04-19T08:39:10.849Z</time></trkpt><trkpt lat="43.7390802" lon="12.4830069"><ele>541.0</ele><time>2026-04-19T08:39:11.849Z</time></trkpt><trkpt lat="43.738999" lon="12.4829143"><ele>541.0</ele><time>2026-04-19T08:39:12.845Z</time></trkpt><trkpt lat="43.7389218" lon="12.4828154"><ele>541.0</ele><time>2026-04-19T08:39:13.85Z</time></trkpt><trkpt lat="43.7388461" lon="12.4827023"><ele>541.0</ele><time>2026-04-19T08:39:14.846Z</time></trkpt><trkpt lat="43.7387891" lon="12.4825768"><ele>544.2</ele><time>2026-04-19T08:39:15.845Z</time></trkpt><trkpt lat="43.7387674" lon="12.4824454"><ele>547.4000000000001</ele><time>2026-04-19T08:39:16.865Z</time></trkpt><trkpt lat="43.7387832" lon="12.4823115"><ele>550.6</ele><time>2026-04-19T08:39:17.84Z</time></trkpt><trkpt lat="43.7388222" lon="12.4821724"><ele>553.8000000000001</ele><time>2026-04-19T08:39:18.844Z</time></trkpt><trkpt lat="43.7388625" lon="12.4820293"><ele>557.0</ele><time>2026-04-19T08:39:19.841Z</time></trkpt><trkpt lat="43.7388884" lon="12.4818774"><ele>558.0</ele><time>2026-04-19T08:39:20.84Z</time></trkpt><trkpt lat="43.738887" lon="12.4817186"><ele>559.0</ele><time>2026-04-19T08:39:21.86Z</time></trkpt><trkpt lat="43.7388597" lon="12.4815658"><ele>560.0</ele><time>2026-04-19T08:39:22.845Z</time></trkpt><trkpt lat="43.7388102" lon="12.481431"><ele>561.0</ele><time>2026-04-19T08:39:23.841Z</time></trkpt><trkpt lat="43.7387472" lon="12.4813206"><ele>562.0</ele><time>2026-04-19T08:39:24.848Z</time></trkpt><trkpt lat="43.7386787" lon="12.4812342"><ele>564.1666666666667</ele><time>2026-04-19T08:39:25.841Z</time></trkpt><trkpt lat="43.738612" lon="12.4811521"><ele>566.3333333333334</ele><time>2026-04-19T08:39:26.859Z</time></trkpt><trkpt lat="43.7385527" lon="12.4810703"><ele>568.5</ele><time>2026-04-19T08:39:27.837Z</time></trkpt><trkpt lat="43.7384981" lon="12.4809845"><ele>570.6666666666666</ele><time>2026-04-19T08:39:28.841Z</time></trkpt><trkpt lat="43.7384397" lon="12.4808913"><ele>572.8333333333333</ele><time>2026-04-19T08:39:29.84Z</time></trkpt><trkpt lat="43.7383725" lon="12.480788"><ele>575.0</ele><time>2026-04-19T08:39:30.839Z</time></trkpt><trkpt lat="43.7383068" lon="12.4806789"><ele>570.6</ele><time>2026-04-19T08:39:31.842Z</time></trkpt><trkpt lat="43.738261" lon="12.4805623"><ele>566.2</ele><time>2026-04-19T08:39:32.842Z</time></trkpt><trkpt lat="43.738244" lon="12.4804241"><ele>561.8</ele><time>2026-04-19T08:39:33.857Z</time></trkpt><trkpt lat="43.738255" lon="12.4802742"><ele>557.4</ele><time>2026-04-19T08:39:34.838Z</time></trkpt><trkpt lat="43.7382829" lon="12.4801098"><ele>553.0</ele><time>2026-04-19T08:39:35.874Z</time></trkpt><trkpt lat="43.7383152" lon="12.4799467"><ele>553.0</ele><time>2026-04-19T08:39:36.843Z</time></trkpt><trkpt lat="43.7383333" lon="12.4797841"><ele>553.0</ele><time>2026-04-19T08:39:37.843Z</time></trkpt><trkpt lat="43.738327" lon="12.4796336"><ele>553.0</ele><time>2026-04-19T08:39:38.847Z</time></trkpt><trkpt lat="43.7382947" lon="12.4795038"><ele>553.0</ele><time>2026-04-19T08:39:39.841Z</time></trkpt><trkpt lat="43.7382302" lon="12.4794001"><ele>553.0</ele><time>2026-04-19T08:39:40.867Z</time></trkpt><trkpt lat="43.7381388" lon="12.479351"><ele>554.6</ele><time>2026-04-19T08:39:41.84Z</time></trkpt><trkpt lat="43.7380386" lon="12.479337"><ele>556.1999999999999</ele><time>2026-04-19T08:39:42.843Z</time></trkpt><trkpt lat="43.7379333" lon="12.4793664"><ele>557.8</ele><time>2026-04-19T08:39:43.842Z</time></trkpt><trkpt lat="43.7378264" lon="12.4794138"><ele>559.4</ele><time>2026-04-19T08:39:44.84Z</time></trkpt><trkpt lat="43.7377107" lon="12.47948"><ele>561.0</ele><time>2026-04-19T08:39:45.863Z</time></trkpt><trkpt lat="43.7375898" lon="12.4795447"><ele>561.0</ele><time>2026-04-19T08:39:46.841Z</time></trkpt><trkpt lat="43.7374624" lon="12.4795958"><ele>561.0</ele><time>2026-04-19T08:39:47.841Z</time></trkpt><trkpt lat="43.7373357" lon="12.4796341"><ele>561.0</ele><time>2026-04-19T08:39:48.84Z</time></trkpt><trkpt lat="43.7372113" lon="12.4796815"><ele>561.0</ele><time>2026-04-19T08:39:49.842Z</time></trkpt><trkpt lat="43.737091" lon="12.4797511"><ele>554.5</ele><time>2026-04-19T08:39:50.843Z</time></trkpt><trkpt lat="43.7369754" lon="12.4798456"><ele>548.0</ele><time>2026-04-19T08:39:51.841Z</time></trkpt><trkpt lat="43.736869" lon="12.4799468"><ele>541.5</ele><time>2026-04-19T08:39:52.844Z</time></trkpt><trkpt lat="43.7367741" lon="12.4800332"><ele>535.0</ele><time>2026-04-19T08:39:53.844Z</time></trkpt><trkpt lat="43.7366885" lon="12.4800902"><ele>535.0</ele><time>2026-04-19T08:39:54.842Z</time></trkpt><trkpt lat="43.7366081" lon="12.4801082"><ele>535.0</ele><time>2026-04-19T08:39:55.841Z</time></trkpt><trkpt lat="43.736535" lon="12.4801026"><ele>535.0</ele><time>2026-04-19T08:39:56.84Z</time></trkpt><trkpt lat="43.7364805" lon="12.4800272"><ele>535.0</ele><time>2026-04-19T08:39:57.845Z</time></trkpt><trkpt lat="43.7364287" lon="12.4799175"><ele>535.0</ele><time>2026-04-19T08:39:58.842Z</time></trkpt><trkpt lat="43.7363878" lon="12.4797628"><ele>535.0</ele><time>2026-04-19T08:39:59.841Z</time></trkpt><trkpt lat="43.7363368" lon="12.4796123"><ele>535.0</ele><time>2026-04-19T08:40:00.844Z</time></trkpt><trkpt lat="43.7362621" lon="12.4794872"><ele>535.0</ele><time>2026-04-19T08:40:01.848Z</time></trkpt><trkpt lat="43.7361696" lon="12.4793816"><ele>535.0</ele><time>2026-04-19T08:40:02.847Z</time></trkpt><trkpt lat="43.7360733" lon="12.4792725"><ele>535.0</ele><time>2026-04-19T08:40:03.88Z</time></trkpt><trkpt lat="43.7359863" lon="12.4791556"><ele>535.0</ele><time>2026-04-19T08:40:04.838Z</time></trkpt><trkpt lat="43.7359007" lon="12.479036"><ele>535.0</ele><time>2026-04-19T08:40:05.84Z</time></trkpt><trkpt lat="43.7358045" lon="12.4789486"><ele>535.0</ele><time>2026-04-19T08:40:06.84Z</time></trkpt><trkpt lat="43.735693" lon="12.4788957"><ele>535.0</ele><time>2026-04-19T08:40:07.841Z</time></trkpt><trkpt lat="43.735571" lon="12.4788768"><ele>535.0</ele><time>2026-04-19T08:40:08.837Z</time></trkpt><trkpt lat="43.7354387" lon="12.4788903"><ele>535.0</ele><time>2026-04-19T08:40:09.842Z</time></trkpt><trkpt lat="43.7353027" lon="12.4789024"><ele>535.0</ele><time>2026-04-19T08:40:10.841Z</time></trkpt><trkpt lat="43.7351649" lon="12.4789017"><ele>535.0</ele><time>2026-04-19T08:40:11.843Z</time></trkpt><trkpt lat="43.7350253" lon="12.478888"><ele>533.0</ele><time>2026-04-19T08:40:12.837Z</time></trkpt><trkpt lat="43.7348862" lon="12.4788655"><ele>531.0</ele><time>2026-04-19T08:40:13.848Z</time></trkpt><trkpt lat="43.734751" lon="12.4788544"><ele>529.0</ele><time>2026-04-19T08:40:14.841Z</time></trkpt><trkpt lat="43.7346195" lon="12.4788738"><ele>527.0</ele><time>2026-04-19T08:40:15.844Z</time></trkpt><trkpt lat="43.7344959" lon="12.4789366"><ele>526.5</ele><time>2026-04-19T08:40:16.844Z</time></trkpt><trkpt lat="43.7343865" lon="12.4790528"><ele>526.0</ele><time>2026-04-19T08:40:17.843Z</time></trkpt><trkpt lat="43.7342841" lon="12.4791573"><ele>525.5</ele><time>2026-04-19T08:40:18.86Z</time></trkpt><trkpt lat="43.7341929" lon="12.4792249"><ele>525.0</ele><time>2026-04-19T08:40:19.842Z</time></trkpt><trkpt lat="43.7340956" lon="12.4792461"><ele>525.0</ele><time>2026-04-19T08:40:20.837Z</time></trkpt><trkpt lat="43.7339966" lon="12.4792269"><ele>525.0</ele><time>2026-04-19T08:40:21.841Z</time></trkpt><trkpt lat="43.7339" lon="12.4791811"><ele>525.0</ele><time>2026-04-19T08:40:22.846Z</time></trkpt><trkpt lat="43.7338151" lon="12.4791069"><ele>525.0</ele><time>2026-04-19T08:40:23.844Z</time></trkpt><trkpt lat="43.7337371" lon="12.4790418"><ele>525.0</ele><time>2026-04-19T08:40:24.864Z</time></trkpt><trkpt lat="43.7336768" lon="12.4789861"><ele>525.0</ele><time>2026-04-19T08:40:25.845Z</time></trkpt><trkpt lat="43.7336047" lon="12.4788799"><ele>525.0</ele><time>2026-04-19T08:40:27.842Z</time></trkpt><trkpt lat="43.7335116" lon="12.4788412"><ele>525.0</ele><time>2026-04-19T08:40:29.842Z</time></trkpt><trkpt lat="43.7333967" lon="12.4788543"><ele>525.0</ele><time>2026-04-19T08:40:31.859Z</time></trkpt><trkpt lat="43.7333317" lon="12.4788115"><ele>525.0</ele><time>2026-04-19T08:40:33.847Z</time></trkpt><trkpt lat="43.7333317" lon="12.4786735"><ele>522.5</ele><time>2026-04-19T08:40:35.856Z</time></trkpt><trkpt lat="43.7333781" lon="12.4785573"><ele>520.0</ele><time>2026-04-19T08:40:36.852Z</time></trkpt><trkpt lat="43.7334166" lon="12.4784014"><ele>517.5</ele><time>2026-04-19T08:40:37.862Z</time></trkpt><trkpt lat="43.7334369" lon="12.4782275"><ele>515.0</ele><time>2026-04-19T08:40:38.844Z</time></trkpt><trkpt lat="43.7334501" lon="12.4780658"><ele>515.0</ele><time>2026-04-19T08:40:39.848Z</time></trkpt><trkpt lat="43.7334831" lon="12.4779469"><ele>515.0</ele><time>2026-04-19T08:40:40.84Z</time></trkpt><trkpt lat="43.7335381" lon="12.4778482"><ele>515.0</ele><time>2026-04-19T08:40:41.847Z</time></trkpt><trkpt lat="43.7336122" lon="12.4777596"><ele>515.0</ele><time>2026-04-19T08:40:42.845Z</time></trkpt><trkpt lat="43.7336976" lon="12.4776647"><ele>515.0</ele><time>2026-04-19T08:40:43.846Z</time></trkpt><trkpt lat="43.7337762" lon="12.4775524"><ele>517.0</ele><time>2026-04-19T08:40:44.844Z</time></trkpt><trkpt lat="43.7338414" lon="12.4774131"><ele>519.0</ele><time>2026-04-19T08:40:45.856Z</time></trkpt><trkpt lat="43.7338862" lon="12.4772749"><ele>521.0</ele><time>2026-04-19T08:40:46.845Z</time></trkpt><trkpt lat="43.7339228" lon="12.477154"><ele>523.0</ele><time>2026-04-19T08:40:47.848Z</time></trkpt><trkpt lat="43.7339663" lon="12.4770416"><ele>525.0</ele><time>2026-04-19T08:40:48.844Z</time></trkpt><trkpt lat="43.7340303" lon="12.4769496"><ele>522.3333333333334</ele><time>2026-04-19T08:40:49.842Z</time></trkpt><trkpt lat="43.7341054" lon="12.4768766"><ele>519.6666666666666</ele><time>2026-04-19T08:40:50.856Z</time></trkpt><trkpt lat="43.7341823" lon="12.4768293"><ele>517.0</ele><time>2026-04-19T08:40:51.84Z</time></trkpt><trkpt lat="43.7342536" lon="12.4768158"><ele>514.3333333333333</ele><time>2026-04-19T08:40:52.838Z</time></trkpt><trkpt lat="43.7343407" lon="12.4768447"><ele>511.66666666666663</ele><time>2026-04-19T08:40:53.843Z</time></trkpt><trkpt lat="43.7344426" lon="12.4769013"><ele>509.0</ele><time>2026-04-19T08:40:54.844Z</time></trkpt><trkpt lat="43.7345423" lon="12.4769374"><ele>509.0</ele><time>2026-04-19T08:40:55.84Z</time></trkpt><trkpt lat="43.7346395" lon="12.4769551"><ele>509.0</ele><time>2026-04-19T08:40:56.861Z</time></trkpt><trkpt lat="43.7347541" lon="12.4769241"><ele>509.0</ele><time>2026-04-19T08:40:57.843Z</time></trkpt><trkpt lat="43.734884" lon="12.4768792"><ele>509.0</ele><time>2026-04-19T08:40:58.844Z</time></trkpt><trkpt lat="43.7350003" lon="12.476837"><ele>508.99999999999994</ele><time>2026-04-19T08:40:59.844Z</time></trkpt><trkpt lat="43.7350935" lon="12.4768041"><ele>509.0</ele><time>2026-04-19T08:41:00.848Z</time></trkpt><trkpt lat="43.7351709" lon="12.4767702"><ele>509.0</ele><time>2026-04-19T08:41:01.859Z</time></trkpt><trkpt lat="43.7352253" lon="12.4767184"><ele>509.0</ele><time>2026-04-19T08:41:02.836Z</time></trkpt><trkpt lat="43.7352592" lon="12.4766224"><ele>508.99999999999994</ele><time>2026-04-19T08:41:03.837Z</time></trkpt><trkpt lat="43.7352727" lon="12.4764733"><ele>509.0</ele><time>2026-04-19T08:41:04.841Z</time></trkpt><trkpt lat="43.7352959" lon="12.4762928"><ele>512.2</ele><time>2026-04-19T08:41:05.842Z</time></trkpt><trkpt lat="43.7353355" lon="12.4761114"><ele>515.4</ele><time>2026-04-19T08:41:06.845Z</time></trkpt><trkpt lat="43.7353696" lon="12.4759533"><ele>518.6</ele><time>2026-04-19T08:41:07.842Z</time></trkpt><trkpt lat="43.735401" lon="12.4758299"><ele>521.8</ele><time>2026-04-19T08:41:08.861Z</time></trkpt><trkpt lat="43.7354348" lon="12.4757262"><ele>525.0</ele><time>2026-04-19T08:41:09.84Z</time></trkpt><trkpt lat="43.7354953" lon="12.4756357"><ele>525.0</ele><time>2026-04-19T08:41:10.843Z</time></trkpt><trkpt lat="43.7355757" lon="12.4755698"><ele>525.0</ele><time>2026-04-19T08:41:11.84Z</time></trkpt><trkpt lat="43.7356635" lon="12.4755117"><ele>525.0</ele><time>2026-04-19T08:41:12.838Z</time></trkpt><trkpt lat="43.7357319" lon="12.4754267"><ele>525.0</ele><time>2026-04-19T08:41:13.837Z</time></trkpt><trkpt lat="43.7357794" lon="12.4753172"><ele>525.0</ele><time>2026-04-19T08:41:14.844Z</time></trkpt><trkpt lat="43.7358198" lon="12.4751984"><ele>525.8</ele><time>2026-04-19T08:41:15.841Z</time></trkpt><trkpt lat="43.7358439" lon="12.475055"><ele>526.6</ele><time>2026-04-19T08:41:16.844Z</time></trkpt><trkpt lat="43.7358367" lon="12.4749102"><ele>527.4</ele><time>2026-04-19T08:41:17.859Z</time></trkpt><trkpt lat="43.735796" lon="12.4747901"><ele>528.2</ele><time>2026-04-19T08:41:18.841Z</time></trkpt><trkpt lat="43.7357287" lon="12.474678"><ele>529.0</ele><time>2026-04-19T08:41:19.839Z</time></trkpt><trkpt lat="43.7356403" lon="12.4745734"><ele>529.0</ele><time>2026-04-19T08:41:20.842Z</time></trkpt><trkpt lat="43.7355218" lon="12.4744933"><ele>529.0</ele><time>2026-04-19T08:41:21.841Z</time></trkpt><trkpt lat="43.735415" lon="12.4744246"><ele>529.0</ele><time>2026-04-19T08:41:22.84Z</time></trkpt><trkpt lat="43.7353354" lon="12.4743579"><ele>529.0</ele><time>2026-04-19T08:41:23.852Z</time></trkpt><trkpt lat="43.7352994" lon="12.4742721"><ele>529.0</ele><time>2026-04-19T08:41:24.845Z</time></trkpt><trkpt lat="43.7352929" lon="12.4741676"><ele>529.0</ele><time>2026-04-19T08:41:25.846Z</time></trkpt><trkpt lat="43.7353171" lon="12.4740381"><ele>529.0</ele><time>2026-04-19T08:41:26.841Z</time></trkpt><trkpt lat="43.7353654" lon="12.4738922"><ele>529.0</ele><time>2026-04-19T08:41:27.841Z</time></trkpt><trkpt lat="43.7354332" lon="12.4737242"><ele>529.0</ele><time>2026-04-19T08:41:28.845Z</time></trkpt><trkpt lat="43.7354995" lon="12.4735513"><ele>528.8</ele><time>2026-04-19T08:41:29.843Z</time></trkpt><trkpt lat="43.7355562" lon="12.4733953"><ele>528.5999999999999</ele><time>2026-04-19T08:41:30.838Z</time></trkpt><trkpt lat="43.7355917" lon="12.4732562"><ele>528.4</ele><time>2026-04-19T08:41:31.837Z</time></trkpt><trkpt lat="43.7356031" lon="12.4731116"><ele>528.1999999999999</ele><time>2026-04-19T08:41:32.839Z</time></trkpt><trkpt lat="43.7356039" lon="12.472969"><ele>528.0</ele><time>2026-04-19T08:41:33.836Z</time></trkpt><trkpt lat="43.7355884" lon="12.472847"><ele>528.3333333333334</ele><time>2026-04-19T08:41:34.855Z</time></trkpt><trkpt lat="43.7355574" lon="12.4727471"><ele>528.6666666666666</ele><time>2026-04-19T08:41:35.84Z</time></trkpt><trkpt lat="43.7355039" lon="12.4726634"><ele>529.0</ele><time>2026-04-19T08:41:36.844Z</time></trkpt><trkpt lat="43.7354505" lon="12.4725893"><ele>529.3333333333333</ele><time>2026-04-19T08:41:37.841Z</time></trkpt><trkpt lat="43.7354031" lon="12.472511"><ele>529.6666666666666</ele><time>2026-04-19T08:41:38.844Z</time></trkpt><trkpt lat="43.7353598" lon="12.4724169"><ele>530.0</ele><time>2026-04-19T08:41:39.839Z</time></trkpt><trkpt lat="43.7353113" lon="12.4723166"><ele>530.0</ele><time>2026-04-19T08:41:40.838Z</time></trkpt><trkpt lat="43.7352525" lon="12.4722212"><ele>530.0</ele><time>2026-04-19T08:41:41.862Z</time></trkpt><trkpt lat="43.735192" lon="12.4721317"><ele>530.0</ele><time>2026-04-19T08:41:42.84Z</time></trkpt><trkpt lat="43.7351364" lon="12.4720469"><ele>530.0</ele><time>2026-04-19T08:41:43.844Z</time></trkpt><trkpt lat="43.735091" lon="12.4719668"><ele>530.0</ele><time>2026-04-19T08:41:44.841Z</time></trkpt><trkpt lat="43.7350604" lon="12.471885"><ele>530.0</ele><time>2026-04-19T08:41:45.843Z</time></trkpt><trkpt lat="43.7350532" lon="12.471797"><ele>524.2</ele><time>2026-04-19T08:41:46.84Z</time></trkpt><trkpt lat="43.735061" lon="12.4716902"><ele>518.4</ele><time>2026-04-19T08:41:47.851Z</time></trkpt><trkpt lat="43.7350763" lon="12.4715543"><ele>512.6</ele><time>2026-04-19T08:41:48.842Z</time></trkpt><trkpt lat="43.7351037" lon="12.4713861"><ele>506.8</ele><time>2026-04-19T08:41:49.842Z</time></trkpt><trkpt lat="43.7351196" lon="12.471205"><ele>501.0</ele><time>2026-04-19T08:41:50.841Z</time></trkpt><trkpt lat="43.7351282" lon="12.4710298"><ele>499.5</ele><time>2026-04-19T08:41:51.843Z</time></trkpt><trkpt lat="43.7351228" lon="12.4708381"><ele>498.0</ele><time>2026-04-19T08:41:52.84Z</time></trkpt><trkpt lat="43.7351107" lon="12.4706511"><ele>496.5</ele><time>2026-04-19T08:41:53.865Z</time></trkpt><trkpt lat="43.7350863" lon="12.4704818"><ele>495.0</ele><time>2026-04-19T08:41:54.842Z</time></trkpt><trkpt lat="43.7350504" lon="12.4703277"><ele>494.0</ele><time>2026-04-19T08:41:55.838Z</time></trkpt><trkpt lat="43.7350144" lon="12.4701886"><ele>493.0</ele><time>2026-04-19T08:41:56.847Z</time></trkpt><trkpt lat="43.7349936" lon="12.4700622"><ele>492.0</ele><time>2026-04-19T08:41:57.846Z</time></trkpt><trkpt lat="43.7349927" lon="12.4699462"><ele>491.0</ele><time>2026-04-19T08:41:58.843Z</time></trkpt><trkpt lat="43.7350112" lon="12.4698255"><ele>490.0</ele><time>2026-04-19T08:41:59.845Z</time></trkpt><trkpt lat="43.735053" lon="12.4697157"><ele>490.0</ele><time>2026-04-19T08:42:00.856Z</time></trkpt><trkpt lat="43.7350997" lon="12.4696114"><ele>490.0</ele><time>2026-04-19T08:42:01.846Z</time></trkpt><trkpt lat="43.7351364" lon="12.4694999"><ele>490.0</ele><time>2026-04-19T08:42:02.841Z</time></trkpt><trkpt lat="43.7351325" lon="12.4693657"><ele>490.0</ele><time>2026-04-19T08:42:03.84Z</time></trkpt><trkpt lat="43.7351121" lon="12.4692199"><ele>490.0</ele><time>2026-04-19T08:42:04.844Z</time></trkpt><trkpt lat="43.735072" lon="12.4690668"><ele>488.4</ele><time>2026-04-19T08:42:05.842Z</time></trkpt><trkpt lat="43.7350182" lon="12.4689157"><ele>486.8</ele><time>2026-04-19T08:42:06.849Z</time></trkpt><trkpt lat="43.7349659" lon="12.4687876"><ele>485.20000000000005</ele><time>2026-04-19T08:42:07.84Z</time></trkpt><trkpt lat="43.7349264" lon="12.4686804"><ele>483.6</ele><time>2026-04-19T08:42:08.844Z</time></trkpt><trkpt lat="43.7349069" lon="12.4685904"><ele>482.0</ele><time>2026-04-19T08:42:09.843Z</time></trkpt><trkpt lat="43.734951" lon="12.4684228"><ele>480.20000000000005</ele><time>2026-04-19T08:42:11.861Z</time></trkpt><trkpt lat="43.7350131" lon="12.4683087"><ele>478.40000000000003</ele><time>2026-04-19T08:42:12.844Z</time></trkpt><trkpt lat="43.7350995" lon="12.4681897"><ele>476.59999999999997</ele><time>2026-04-19T08:42:13.847Z</time></trkpt><trkpt lat="43.7351752" lon="12.4680828"><ele>474.79999999999995</ele><time>2026-04-19T08:42:14.845Z</time></trkpt><trkpt lat="43.7352258" lon="12.4679742"><ele>473.0</ele><time>2026-04-19T08:42:15.84Z</time></trkpt><trkpt lat="43.7352578" lon="12.4678458"><ele>470.25</ele><time>2026-04-19T08:42:16.842Z</time></trkpt><trkpt lat="43.7352626" lon="12.467684"><ele>467.5</ele><time>2026-04-19T08:42:17.841Z</time></trkpt><trkpt lat="43.7352434" lon="12.4674966"><ele>464.75</ele><time>2026-04-19T08:42:18.845Z</time></trkpt><trkpt lat="43.7352213" lon="12.4672969"><ele>462.0</ele><time>2026-04-19T08:42:19.842Z</time></trkpt><trkpt lat="43.735202" lon="12.4671011"><ele>462.0</ele><time>2026-04-19T08:42:20.863Z</time></trkpt><trkpt lat="43.7351847" lon="12.4669133"><ele>462.0</ele><time>2026-04-19T08:42:21.844Z</time></trkpt><trkpt lat="43.7351706" lon="12.4667312"><ele>462.0</ele><time>2026-04-19T08:42:22.842Z</time></trkpt><trkpt lat="43.735158" lon="12.4665674"><ele>462.0</ele><time>2026-04-19T08:42:23.844Z</time></trkpt><trkpt lat="43.7351656" lon="12.4664182"><ele>462.0</ele><time>2026-04-19T08:42:24.844Z</time></trkpt><trkpt lat="43.73519" lon="12.4662863"><ele>462.00000000000006</ele><time>2026-04-19T08:42:25.84Z</time></trkpt><trkpt lat="43.7352296" lon="12.4661658"><ele>462.00000000000006</ele><time>2026-04-19T08:42:26.843Z</time></trkpt><trkpt lat="43.7352839" lon="12.4660408"><ele>462.0</ele><time>2026-04-19T08:42:27.843Z</time></trkpt><trkpt lat="43.7353464" lon="12.4659028"><ele>462.0</ele><time>2026-04-19T08:42:28.844Z</time></trkpt><trkpt lat="43.7354093" lon="12.4657589"><ele>462.25</ele><time>2026-04-19T08:42:29.836Z</time></trkpt><trkpt lat="43.7354567" lon="12.4656"><ele>462.5</ele><time>2026-04-19T08:42:30.842Z</time></trkpt><trkpt lat="43.7355055" lon="12.4654367"><ele>462.75</ele><time>2026-04-19T08:42:31.84Z</time></trkpt><trkpt lat="43.7355614" lon="12.4652705"><ele>463.0</ele><time>2026-04-19T08:42:32.845Z</time></trkpt><trkpt lat="43.7356267" lon="12.4651215"><ele>463.0</ele><time>2026-04-19T08:42:33.841Z</time></trkpt><trkpt lat="43.7356989" lon="12.4649813"><ele>463.0</ele><time>2026-04-19T08:42:34.842Z</time></trkpt><trkpt lat="43.7357667" lon="12.4648434"><ele>463.0</ele><time>2026-04-19T08:42:35.862Z</time></trkpt><trkpt lat="43.7358247" lon="12.4647107"><ele>463.0</ele><time>2026-04-19T08:42:36.84Z</time></trkpt><trkpt lat="43.7358668" lon="12.4645776"><ele>465.2</ele><time>2026-04-19T08:42:37.842Z</time></trkpt><trkpt lat="43.7358891" lon="12.4644289"><ele>467.4</ele><time>2026-04-19T08:42:38.84Z</time></trkpt><trkpt lat="43.7359008" lon="12.4642738"><ele>469.59999999999997</ele><time>2026-04-19T08:42:39.849Z</time></trkpt><trkpt lat="43.735909" lon="12.4641324"><ele>471.79999999999995</ele><time>2026-04-19T08:42:40.874Z</time></trkpt><trkpt lat="43.7359167" lon="12.4640106"><ele>474.0</ele><time>2026-04-19T08:42:41.841Z</time></trkpt><trkpt lat="43.7359245" lon="12.4638965"><ele>472.6</ele><time>2026-04-19T08:42:42.839Z</time></trkpt><trkpt lat="43.7359448" lon="12.4637704"><ele>471.2</ele><time>2026-04-19T08:42:43.841Z</time></trkpt><trkpt lat="43.7359756" lon="12.4636227"><ele>469.80000000000007</ele><time>2026-04-19T08:42:44.842Z</time></trkpt><trkpt lat="43.7360159" lon="12.4634773"><ele>468.40000000000003</ele><time>2026-04-19T08:42:45.852Z</time></trkpt><trkpt lat="43.736035" lon="12.463321"><ele>467.0</ele><time>2026-04-19T08:42:46.847Z</time></trkpt><trkpt lat="43.7360305" lon="12.4631508"><ele>467.0</ele><time>2026-04-19T08:42:47.841Z</time></trkpt><trkpt lat="43.7360174" lon="12.4629854"><ele>467.00000000000006</ele><time>2026-04-19T08:42:48.839Z</time></trkpt><trkpt lat="43.7359966" lon="12.4628421"><ele>467.00000000000006</ele><time>2026-04-19T08:42:49.839Z</time></trkpt><trkpt lat="43.7359723" lon="12.4627187"><ele>467.0</ele><time>2026-04-19T08:42:50.862Z</time></trkpt><trkpt lat="43.7359594" lon="12.4626152"><ele>467.0</ele><time>2026-04-19T08:42:51.841Z</time></trkpt><trkpt lat="43.7359501" lon="12.4625189"><ele>466.16666666666663</ele><time>2026-04-19T08:42:52.839Z</time></trkpt><trkpt lat="43.7359584" lon="12.4623626"><ele>465.3333333333333</ele><time>2026-04-19T08:42:54.846Z</time></trkpt><trkpt lat="43.7359869" lon="12.4622577"><ele>464.5</ele><time>2026-04-19T08:42:56.863Z</time></trkpt><trkpt lat="43.7360222" lon="12.4621831"><ele>463.66666666666663</ele><time>2026-04-19T08:42:58.846Z</time></trkpt><trkpt lat="43.7360641" lon="12.4620871"><ele>462.8333333333333</ele><time>2026-04-19T08:43:00.839Z</time></trkpt><trkpt lat="43.7360918" lon="12.4620071"><ele>462.0</ele><time>2026-04-19T08:43:01.84Z</time></trkpt><trkpt lat="43.7361156" lon="12.4618894"><ele>462.40000000000003</ele><time>2026-04-19T08:43:02.845Z</time></trkpt><trkpt lat="43.7361314" lon="12.4617509"><ele>462.80000000000007</ele><time>2026-04-19T08:43:03.845Z</time></trkpt><trkpt lat="43.736145" lon="12.4616054"><ele>463.2</ele><time>2026-04-19T08:43:04.861Z</time></trkpt><trkpt lat="43.7361472" lon="12.461454"><ele>463.6</ele><time>2026-04-19T08:43:05.846Z</time></trkpt><trkpt lat="43.7361456" lon="12.4613057"><ele>464.0</ele><time>2026-04-19T08:43:06.843Z</time></trkpt><trkpt lat="43.7361411" lon="12.4611752"><ele>464.0</ele><time>2026-04-19T08:43:07.841Z</time></trkpt><trkpt lat="43.7361382" lon="12.4610488"><ele>464.0</ele><time>2026-04-19T08:43:08.836Z</time></trkpt><trkpt lat="43.7361496" lon="12.460924"><ele>464.0</ele><time>2026-04-19T08:43:09.874Z</time></trkpt><trkpt lat="43.7361739" lon="12.4607899"><ele>464.0</ele><time>2026-04-19T08:43:10.838Z</time></trkpt><trkpt lat="43.7362148" lon="12.4606323"><ele>464.0</ele><time>2026-04-19T08:43:11.842Z</time></trkpt><trkpt lat="43.7362616" lon="12.4604779"><ele>460.5</ele><time>2026-04-19T08:43:12.84Z</time></trkpt><trkpt lat="43.7363031" lon="12.4603164"><ele>457.0</ele><time>2026-04-19T08:43:13.842Z</time></trkpt><trkpt lat="43.7363292" lon="12.4601275"><ele>453.5</ele><time>2026-04-19T08:43:14.843Z</time></trkpt><trkpt lat="43.7363473" lon="12.45994"><ele>450.0</ele><time>2026-04-19T08:43:15.855Z</time></trkpt><trkpt lat="43.7363538" lon="12.4597752"><ele>450.0</ele><time>2026-04-19T08:43:16.84Z</time></trkpt><trkpt lat="43.7363609" lon="12.4596182"><ele>450.0</ele><time>2026-04-19T08:43:17.843Z</time></trkpt><trkpt lat="43.7363797" lon="12.4594727"><ele>450.0</ele><time>2026-04-19T08:43:18.844Z</time></trkpt><trkpt lat="43.736406" lon="12.4593362"><ele>450.0</ele><time>2026-04-19T08:43:19.848Z</time></trkpt><trkpt lat="43.7364363" lon="12.4592142"><ele>450.0</ele><time>2026-04-19T08:43:20.846Z</time></trkpt><trkpt lat="43.7364744" lon="12.4590974"><ele>447.0</ele><time>2026-04-19T08:43:21.873Z</time></trkpt><trkpt lat="43.7365109" lon="12.458996"><ele>444.0</ele><time>2026-04-19T08:43:22.843Z</time></trkpt><trkpt lat="43.7365621" lon="12.4589131"><ele>441.0</ele><time>2026-04-19T08:43:23.844Z</time></trkpt><trkpt lat="43.7366366" lon="12.4588283"><ele>438.0</ele><time>2026-04-19T08:43:24.844Z</time></trkpt><trkpt lat="43.7367139" lon="12.4587282"><ele>435.0</ele><time>2026-04-19T08:43:25.841Z</time></trkpt><trkpt lat="43.7367818" lon="12.4586072"><ele>436.6</ele><time>2026-04-19T08:43:26.843Z</time></trkpt><trkpt lat="43.736842" lon="12.4584797"><ele>438.2</ele><time>2026-04-19T08:43:27.844Z</time></trkpt><trkpt lat="43.7369019" lon="12.4583412"><ele>439.79999999999995</ele><time>2026-04-19T08:43:28.845Z</time></trkpt><trkpt lat="43.7369591" lon="12.4581987"><ele>441.4</ele><time>2026-04-19T08:43:29.866Z</time></trkpt><trkpt lat="43.7370088" lon="12.458074"><ele>443.0</ele><time>2026-04-19T08:43:30.844Z</time></trkpt><trkpt lat="43.7370514" lon="12.4579589"><ele>440.16666666666663</ele><time>2026-04-19T08:43:31.84Z</time></trkpt><trkpt lat="43.7370785" lon="12.4578506"><ele>437.3333333333333</ele><time>2026-04-19T08:43:32.842Z</time></trkpt><trkpt lat="43.7370816" lon="12.4577476"><ele>434.5</ele><time>2026-04-19T08:43:33.841Z</time></trkpt><trkpt lat="43.7370654" lon="12.4576444"><ele>431.66666666666663</ele><time>2026-04-19T08:43:34.84Z</time></trkpt><trkpt lat="43.7370425" lon="12.4575417"><ele>428.8333333333333</ele><time>2026-04-19T08:43:35.85Z</time></trkpt><trkpt lat="43.7370248" lon="12.457441"><ele>426.0</ele><time>2026-04-19T08:43:36.841Z</time></trkpt><trkpt lat="43.7370197" lon="12.4573303"><ele>426.0</ele><time>2026-04-19T08:43:37.841Z</time></trkpt><trkpt lat="43.737019" lon="12.4572079"><ele>426.0</ele><time>2026-04-19T08:43:38.839Z</time></trkpt><trkpt lat="43.7370184" lon="12.4570748"><ele>426.0</ele><time>2026-04-19T08:43:39.851Z</time></trkpt><trkpt lat="43.7370203" lon="12.4569577"><ele>426.0</ele><time>2026-04-19T08:43:40.837Z</time></trkpt><trkpt lat="43.737031" lon="12.4568687"><ele>426.0</ele><time>2026-04-19T08:43:41.865Z</time></trkpt><trkpt lat="43.7371001" lon="12.4567843"><ele>426.0</ele><time>2026-04-19T08:43:43.841Z</time></trkpt><trkpt lat="43.7371776" lon="12.456768"><ele>420.75</ele><time>2026-04-19T08:43:44.846Z</time></trkpt><trkpt lat="43.7372927" lon="12.4567846"><ele>415.5</ele><time>2026-04-19T08:43:45.842Z</time></trkpt><trkpt lat="43.7374322" lon="12.4568013"><ele>410.25</ele><time>2026-04-19T08:43:46.865Z</time></trkpt><trkpt lat="43.7375666" lon="12.4568153"><ele>405.0</ele><time>2026-04-19T08:43:47.847Z</time></trkpt><trkpt lat="43.7376758" lon="12.4568341"><ele>408.25</ele><time>2026-04-19T08:43:48.845Z</time></trkpt><trkpt lat="43.7377715" lon="12.456879"><ele>411.5</ele><time>2026-04-19T08:43:49.847Z</time></trkpt><trkpt lat="43.7378643" lon="12.4569757"><ele>414.75</ele><time>2026-04-19T08:43:50.843Z</time></trkpt><trkpt lat="43.7379653" lon="12.4571059"><ele>418.0</ele><time>2026-04-19T08:43:51.858Z</time></trkpt><trkpt lat="43.7380679" lon="12.4572231"><ele>418.0</ele><time>2026-04-19T08:43:52.844Z</time></trkpt><trkpt lat="43.7381729" lon="12.4573089"><ele>418.0</ele><time>2026-04-19T08:43:53.844Z</time></trkpt><trkpt lat="43.7382746" lon="12.4573567"><ele>418.0</ele><time>2026-04-19T08:43:54.846Z</time></trkpt><trkpt lat="43.7383726" lon="12.4573518"><ele>418.0</ele><time>2026-04-19T08:43:55.845Z</time></trkpt><trkpt lat="43.7384719" lon="12.4573373"><ele>418.0</ele><time>2026-04-19T08:43:56.855Z</time></trkpt><trkpt lat="43.7385697" lon="12.4572705"><ele>417.5</ele><time>2026-04-19T08:43:57.845Z</time></trkpt><trkpt lat="43.7386627" lon="12.4571971"><ele>417.0</ele><time>2026-04-19T08:43:58.843Z</time></trkpt><trkpt lat="43.7387631" lon="12.4571456"><ele>416.5</ele><time>2026-04-19T08:43:59.841Z</time></trkpt><trkpt lat="43.7388928" lon="12.4571449"><ele>416.0</ele><time>2026-04-19T08:44:00.843Z</time></trkpt><trkpt lat="43.7390551" lon="12.4571878"><ele>416.0</ele><time>2026-04-19T08:44:01.839Z</time></trkpt><trkpt lat="43.7392309" lon="12.4572265"><ele>416.0</ele><time>2026-04-19T08:44:02.844Z</time></trkpt><trkpt lat="43.7394008" lon="12.4572617"><ele>416.0</ele><time>2026-04-19T08:44:03.862Z</time></trkpt><trkpt lat="43.7395389" lon="12.4572816"><ele>413.0</ele><time>2026-04-19T08:44:04.839Z</time></trkpt><trkpt lat="43.7396526" lon="12.4573093"><ele>410.0</ele><time>2026-04-19T08:44:05.845Z</time></trkpt><trkpt lat="43.7397506" lon="12.4573716"><ele>407.0</ele><time>2026-04-19T08:44:06.845Z</time></trkpt><trkpt lat="43.7398395" lon="12.4574746"><ele>404.0</ele><time>2026-04-19T08:44:07.841Z</time></trkpt><trkpt lat="43.7399353" lon="12.457628"><ele>404.0</ele><time>2026-04-19T08:44:08.849Z</time></trkpt><trkpt lat="43.7400422" lon="12.4577963"><ele>404.0</ele><time>2026-04-19T08:44:09.843Z</time></trkpt><trkpt lat="43.7401551" lon="12.4579525"><ele>404.0</ele><time>2026-04-19T08:44:10.852Z</time></trkpt><trkpt lat="43.7402562" lon="12.4580591"><ele>404.0</ele><time>2026-04-19T08:44:11.847Z</time></trkpt><trkpt lat="43.7403499" lon="12.4581299"><ele>401.79999999999995</ele><time>2026-04-19T08:44:12.843Z</time></trkpt><trkpt lat="43.7404339" lon="12.4581677"><ele>399.59999999999997</ele><time>2026-04-19T08:44:13.844Z</time></trkpt><trkpt lat="43.7405269" lon="12.4581516"><ele>397.4</ele><time>2026-04-19T08:44:14.844Z</time></trkpt><trkpt lat="43.7406354" lon="12.4580965"><ele>395.2</ele><time>2026-04-19T08:44:15.853Z</time></trkpt><trkpt lat="43.7407589" lon="12.4580224"><ele>393.0</ele><time>2026-04-19T08:44:16.84Z</time></trkpt><trkpt lat="43.7408945" lon="12.4579419"><ele>393.0</ele><time>2026-04-19T08:44:17.841Z</time></trkpt><trkpt lat="43.7410259" lon="12.4578535"><ele>393.0</ele><time>2026-04-19T08:44:18.841Z</time></trkpt><trkpt lat="43.7411551" lon="12.4577479"><ele>393.0</ele><time>2026-04-19T08:44:19.844Z</time></trkpt><trkpt lat="43.7412762" lon="12.4576284"><ele>393.0</ele><time>2026-04-19T08:44:20.839Z</time></trkpt><trkpt lat="43.741386" lon="12.457518"><ele>394.2</ele><time>2026-04-19T08:44:21.837Z</time></trkpt><trkpt lat="43.7414828" lon="12.4574385"><ele>395.4</ele><time>2026-04-19T08:44:22.84Z</time></trkpt><trkpt lat="43.7415761" lon="12.4574014"><ele>396.59999999999997</ele><time>2026-04-19T08:44:23.846Z</time></trkpt><trkpt lat="43.7416811" lon="12.4573975"><ele>397.79999999999995</ele><time>2026-04-19T08:44:24.863Z</time></trkpt><trkpt lat="43.7418019" lon="12.4574224"><ele>399.0</ele><time>2026-04-19T08:44:25.845Z</time></trkpt><trkpt lat="43.7419451" lon="12.457476"><ele>394.66666666666663</ele><time>2026-04-19T08:44:26.843Z</time></trkpt><trkpt lat="43.7421174" lon="12.4575737"><ele>390.3333333333333</ele><time>2026-04-19T08:44:27.85Z</time></trkpt><trkpt lat="43.7422947" lon="12.4576573"><ele>386.0</ele><time>2026-04-19T08:44:28.846Z</time></trkpt><trkpt lat="43.7424614" lon="12.4577231"><ele>386.0</ele><time>2026-04-19T08:44:29.87Z</time></trkpt><trkpt lat="43.7426036" lon="12.4577747"><ele>386.0</ele><time>2026-04-19T08:44:30.843Z</time></trkpt><trkpt lat="43.7427234" lon="12.457817"><ele>386.0</ele><time>2026-04-19T08:44:31.843Z</time></trkpt><trkpt lat="43.7428261" lon="12.4578482"><ele>386.0</ele><time>2026-04-19T08:44:32.843Z</time></trkpt><trkpt lat="43.7429139" lon="12.4578604"><ele>385.16666666666663</ele><time>2026-04-19T08:44:33.842Z</time></trkpt><trkpt lat="43.7429873" lon="12.4578518"><ele>384.3333333333333</ele><time>2026-04-19T08:44:34.858Z</time></trkpt><trkpt lat="43.7430465" lon="12.457787"><ele>383.5</ele><time>2026-04-19T08:44:35.837Z</time></trkpt><trkpt lat="43.7430949" lon="12.4577012"><ele>382.66666666666663</ele><time>2026-04-19T08:44:36.842Z</time></trkpt><trkpt lat="43.7431179" lon="12.4576009"><ele>381.8333333333333</ele><time>2026-04-19T08:44:37.837Z</time></trkpt><trkpt lat="43.7431195" lon="12.4575004"><ele>381.0</ele><time>2026-04-19T08:44:38.845Z</time></trkpt><trkpt lat="43.7430879" lon="12.4574073"><ele>381.0</ele><time>2026-04-19T08:44:39.844Z</time></trkpt><trkpt lat="43.7430383" lon="12.457325"><ele>381.0</ele><time>2026-04-19T08:44:40.86Z</time></trkpt><trkpt lat="43.742963" lon="12.4572788"><ele>381.0</ele><time>2026-04-19T08:44:41.843Z</time></trkpt><trkpt lat="43.7428662" lon="12.457245"><ele>381.0</ele><time>2026-04-19T08:44:42.844Z</time></trkpt><trkpt lat="43.7427461" lon="12.4572244"><ele>381.0</ele><time>2026-04-19T08:44:43.84Z</time></trkpt><trkpt lat="43.7426069" lon="12.4572035"><ele>382.66666666666663</ele><time>2026-04-19T08:44:44.844Z</time></trkpt><trkpt lat="43.7424488" lon="12.4571616"><ele>384.3333333333333</ele><time>2026-04-19T08:44:45.85Z</time></trkpt><trkpt lat="43.742293" lon="12.4570914"><ele>386.0</ele><time>2026-04-19T08:44:46.844Z</time></trkpt><trkpt lat="43.7421434" lon="12.4570068"><ele>382.0</ele><time>2026-04-19T08:44:47.839Z</time></trkpt><trkpt lat="43.7419988" lon="12.4568926"><ele>378.0</ele><time>2026-04-19T08:44:48.848Z</time></trkpt><trkpt lat="43.7418604" lon="12.4567427"><ele>374.0</ele><time>2026-04-19T08:44:49.844Z</time></trkpt><trkpt lat="43.7417368" lon="12.4565972"><ele>374.0</ele><time>2026-04-19T08:44:50.84Z</time></trkpt><trkpt lat="43.7416329" lon="12.4564722"><ele>374.0</ele><time>2026-04-19T08:44:51.84Z</time></trkpt><trkpt lat="43.7415501" lon="12.4563632"><ele>374.0</ele><time>2026-04-19T08:44:52.842Z</time></trkpt><trkpt lat="43.7414946" lon="12.4562629"><ele>374.0</ele><time>2026-04-19T08:44:53.851Z</time></trkpt><trkpt lat="43.7414759" lon="12.4561697"><ele>374.0</ele><time>2026-04-19T08:44:54.843Z</time></trkpt><trkpt lat="43.7415567" lon="12.4560413"><ele>371.6</ele><time>2026-04-19T08:44:56.849Z</time></trkpt><trkpt lat="43.7416381" lon="12.4560382"><ele>369.2</ele><time>2026-04-19T08:44:57.843Z</time></trkpt><trkpt lat="43.7417293" lon="12.4560807"><ele>366.8</ele><time>2026-04-19T08:44:58.841Z</time></trkpt><trkpt lat="43.7418169" lon="12.4561608"><ele>364.40000000000003</ele><time>2026-04-19T08:44:59.839Z</time></trkpt><trkpt lat="43.7419063" lon="12.4562754"><ele>362.0</ele><time>2026-04-19T08:45:00.868Z</time></trkpt><trkpt lat="43.7419933" lon="12.4564471"><ele>362.0</ele><time>2026-04-19T08:45:01.845Z</time></trkpt><trkpt lat="43.7420795" lon="12.4565951"><ele>362.0</ele><time>2026-04-19T08:45:02.84Z</time></trkpt><trkpt lat="43.7421852" lon="12.4567"><ele>362.0</ele><time>2026-04-19T08:45:03.841Z</time></trkpt><trkpt lat="43.7422932" lon="12.4567687"><ele>362.0</ele><time>2026-04-19T08:45:04.841Z</time></trkpt><trkpt lat="43.7423985" lon="12.4567982"><ele>362.0</ele><time>2026-04-19T08:45:05.844Z</time></trkpt><trkpt lat="43.7425014" lon="12.4568013"><ele>362.0</ele><time>2026-04-19T08:45:06.84Z</time></trkpt><trkpt lat="43.7426037" lon="12.4567699"><ele>362.0</ele><time>2026-04-19T08:45:07.862Z</time></trkpt><trkpt lat="43.7427026" lon="12.4567106"><ele>362.0</ele><time>2026-04-19T08:45:08.842Z</time></trkpt><trkpt lat="43.7428162" lon="12.456596"><ele>361.6</ele><time>2026-04-19T08:45:09.842Z</time></trkpt><trkpt lat="43.7429328" lon="12.4564956"><ele>361.20000000000005</ele><time>2026-04-19T08:45:10.837Z</time></trkpt><trkpt lat="43.7430425" lon="12.4564143"><ele>360.8</ele><time>2026-04-19T08:45:11.84Z</time></trkpt><trkpt lat="43.7431351" lon="12.4563584"><ele>360.4</ele><time>2026-04-19T08:45:12.842Z</time></trkpt><trkpt lat="43.7432097" lon="12.456341"><ele>360.0</ele><time>2026-04-19T08:45:13.84Z</time></trkpt><trkpt lat="43.7432799" lon="12.4563717"><ele>360.0</ele><time>2026-04-19T08:45:14.862Z</time></trkpt><trkpt lat="43.7433874" lon="12.456452"><ele>360.0</ele><time>2026-04-19T08:45:15.839Z</time></trkpt><trkpt lat="43.7435044" lon="12.4565201"><ele>360.0</ele><time>2026-04-19T08:45:16.838Z</time></trkpt><trkpt lat="43.7436216" lon="12.4565486"><ele>360.0</ele><time>2026-04-19T08:45:17.844Z</time></trkpt><trkpt lat="43.743744" lon="12.456535"><ele>357.6666666666667</ele><time>2026-04-19T08:45:18.844Z</time></trkpt><trkpt lat="43.7438883" lon="12.4564845"><ele>355.33333333333337</ele><time>2026-04-19T08:45:19.842Z</time></trkpt><trkpt lat="43.7440471" lon="12.4564125"><ele>353.0</ele><time>2026-04-19T08:45:20.855Z</time></trkpt><trkpt lat="43.7442086" lon="12.4563318"><ele>349.6666666666667</ele><time>2026-04-19T08:45:21.841Z</time></trkpt><trkpt lat="43.7443667" lon="12.4562501"><ele>346.3333333333333</ele><time>2026-04-19T08:45:22.837Z</time></trkpt><trkpt lat="43.7445171" lon="12.456164"><ele>343.0</ele><time>2026-04-19T08:45:23.843Z</time></trkpt><trkpt lat="43.7446478" lon="12.4560783"><ele>343.0</ele><time>2026-04-19T08:45:24.84Z</time></trkpt><trkpt lat="43.7447608" lon="12.4560057"><ele>343.0</ele><time>2026-04-19T08:45:25.862Z</time></trkpt><trkpt lat="43.7448549" lon="12.4559347"><ele>343.0</ele><time>2026-04-19T08:45:26.843Z</time></trkpt><trkpt lat="43.7449282" lon="12.4558501"><ele>343.0</ele><time>2026-04-19T08:45:27.837Z</time></trkpt><trkpt lat="43.7449862" lon="12.4557506"><ele>343.0</ele><time>2026-04-19T08:45:28.843Z</time></trkpt><trkpt lat="43.7450185" lon="12.4556467"><ele>343.0</ele><time>2026-04-19T08:45:29.84Z</time></trkpt><trkpt lat="43.7450205" lon="12.4555466"><ele>343.0</ele><time>2026-04-19T08:45:30.844Z</time></trkpt><trkpt lat="43.7449888" lon="12.4554613"><ele>343.0</ele><time>2026-04-19T08:45:31.845Z</time></trkpt><trkpt lat="43.7449269" lon="12.4554008"><ele>343.0</ele><time>2026-04-19T08:45:32.866Z</time></trkpt><trkpt lat="43.7448457" lon="12.4553653"><ele>343.0</ele><time>2026-04-19T08:45:33.842Z</time></trkpt><trkpt lat="43.7447622" lon="12.4553662"><ele>343.0</ele><time>2026-04-19T08:45:34.844Z</time></trkpt><trkpt lat="43.7446831" lon="12.4554054"><ele>343.0</ele><time>2026-04-19T08:45:35.841Z</time></trkpt><trkpt lat="43.7446004" lon="12.4554771"><ele>343.0</ele><time>2026-04-19T08:45:36.841Z</time></trkpt><trkpt lat="43.7444969" lon="12.4555726"><ele>343.0</ele><time>2026-04-19T08:45:37.84Z</time></trkpt><trkpt lat="43.7443761" lon="12.455662"><ele>343.0</ele><time>2026-04-19T08:45:38.847Z</time></trkpt><trkpt lat="43.7442461" lon="12.4557316"><ele>339.75</ele><time>2026-04-19T08:45:39.84Z</time></trkpt><trkpt lat="43.7441221" lon="12.4557779"><ele>336.5</ele><time>2026-04-19T08:45:40.84Z</time></trkpt><trkpt lat="43.7440103" lon="12.455807"><ele>333.25</ele><time>2026-04-19T08:45:41.838Z</time></trkpt><trkpt lat="43.7439062" lon="12.4558009"><ele>330.0</ele><time>2026-04-19T08:45:42.844Z</time></trkpt><trkpt lat="43.7437938" lon="12.4557651"><ele>330.0</ele><time>2026-04-19T08:45:43.845Z</time></trkpt><trkpt lat="43.7436758" lon="12.4557288"><ele>330.0</ele><time>2026-04-19T08:45:44.842Z</time></trkpt><trkpt lat="43.7435483" lon="12.4557124"><ele>330.0</ele><time>2026-04-19T08:45:45.847Z</time></trkpt><trkpt lat="43.7434076" lon="12.4557171"><ele>330.0</ele><time>2026-04-19T08:45:46.841Z</time></trkpt><trkpt lat="43.74326" lon="12.4557286"><ele>329.25</ele><time>2026-04-19T08:45:47.849Z</time></trkpt><trkpt lat="43.7431198" lon="12.4557262"><ele>328.5</ele><time>2026-04-19T08:45:48.839Z</time></trkpt><trkpt lat="43.7429753" lon="12.4556957"><ele>327.75</ele><time>2026-04-19T08:45:49.843Z</time></trkpt><trkpt lat="43.7428264" lon="12.4556469"><ele>327.0</ele><time>2026-04-19T08:45:50.84Z</time></trkpt><trkpt lat="43.7426869" lon="12.4555827"><ele>330.6666666666667</ele><time>2026-04-19T08:45:51.842Z</time></trkpt><trkpt lat="43.7425514" lon="12.4555029"><ele>334.33333333333337</ele><time>2026-04-19T08:45:52.839Z</time></trkpt><trkpt lat="43.7424144" lon="12.4553951"><ele>338.0</ele><time>2026-04-19T08:45:53.839Z</time></trkpt><trkpt lat="43.7422901" lon="12.4552805"><ele>332.0</ele><time>2026-04-19T08:45:54.84Z</time></trkpt><trkpt lat="43.7421855" lon="12.4551667"><ele>326.0</ele><time>2026-04-19T08:45:55.845Z</time></trkpt><trkpt lat="43.7420862" lon="12.4550717"><ele>320.0</ele><time>2026-04-19T08:45:56.865Z</time></trkpt><trkpt lat="43.7419789" lon="12.4550022"><ele>314.0</ele><time>2026-04-19T08:45:57.842Z</time></trkpt><trkpt lat="43.7418501" lon="12.4549373"><ele>314.0</ele><time>2026-04-19T08:45:58.841Z</time></trkpt><trkpt lat="43.7417125" lon="12.4548802"><ele>314.0</ele><time>2026-04-19T08:45:59.843Z</time></trkpt><trkpt lat="43.7415866" lon="12.454839"><ele>314.0</ele><time>2026-04-19T08:46:00.842Z</time></trkpt><trkpt lat="43.7414784" lon="12.4548036"><ele>314.0</ele><time>2026-04-19T08:46:01.842Z</time></trkpt><trkpt lat="43.7413828" lon="12.4547571"><ele>314.0</ele><time>2026-04-19T08:46:02.84Z</time></trkpt><trkpt lat="43.7412928" lon="12.4546903"><ele>314.0</ele><time>2026-04-19T08:46:03.838Z</time></trkpt><trkpt lat="43.7412138" lon="12.454578"><ele>314.0</ele><time>2026-04-19T08:46:04.837Z</time></trkpt><trkpt lat="43.7411432" lon="12.4544051"><ele>314.0</ele><time>2026-04-19T08:46:05.857Z</time></trkpt><trkpt lat="43.7410751" lon="12.4542382"><ele>309.25</ele><time>2026-04-19T08:46:06.837Z</time></trkpt><trkpt lat="43.7410047" lon="12.4541023"><ele>304.5</ele><time>2026-04-19T08:46:07.841Z</time></trkpt><trkpt lat="43.7409189" lon="12.4540003"><ele>299.75</ele><time>2026-04-19T08:46:08.837Z</time></trkpt><trkpt lat="43.7407984" lon="12.4539177"><ele>295.0</ele><time>2026-04-19T08:46:09.858Z</time></trkpt><trkpt lat="43.740654" lon="12.4538405"><ele>288.66666666666663</ele><time>2026-04-19T08:46:10.881Z</time></trkpt><trkpt lat="43.7404988" lon="12.4537614"><ele>282.3333333333333</ele><time>2026-04-19T08:46:11.852Z</time></trkpt><trkpt lat="43.7403636" lon="12.4536686"><ele>276.0</ele><time>2026-04-19T08:46:12.862Z</time></trkpt><trkpt lat="43.7402508" lon="12.4535555"><ele>276.75</ele><time>2026-04-19T08:46:13.841Z</time></trkpt><trkpt lat="43.7401526" lon="12.4534172"><ele>277.5</ele><time>2026-04-19T08:46:14.848Z</time></trkpt><trkpt lat="43.7400658" lon="12.4532551"><ele>278.25</ele><time>2026-04-19T08:46:15.843Z</time></trkpt><trkpt lat="43.7399942" lon="12.4530672"><ele>279.0</ele><time>2026-04-19T08:46:16.845Z</time></trkpt><trkpt lat="43.7399345" lon="12.4528713"><ele>279.0</ele><time>2026-04-19T08:46:17.845Z</time></trkpt><trkpt lat="43.7399104" lon="12.4526827"><ele>279.0</ele><time>2026-04-19T08:46:18.85Z</time></trkpt><trkpt lat="43.7399014" lon="12.4525312"><ele>279.0</ele><time>2026-04-19T08:46:19.844Z</time></trkpt><trkpt lat="43.7398693" lon="12.4524082"><ele>279.0</ele><time>2026-04-19T08:46:20.863Z</time></trkpt><trkpt lat="43.7398087" lon="12.452306"><ele>279.0</ele><time>2026-04-19T08:46:21.844Z</time></trkpt><trkpt lat="43.7397233" lon="12.4522335"><ele>279.0</ele><time>2026-04-19T08:46:22.844Z</time></trkpt><trkpt lat="43.7396146" lon="12.4521856"><ele>279.0</ele><time>2026-04-19T08:46:23.847Z</time></trkpt><trkpt lat="43.7394814" lon="12.452143"><ele>279.0</ele><time>2026-04-19T08:46:24.85Z</time></trkpt><trkpt lat="43.7393188" lon="12.4520865"><ele>279.0</ele><time>2026-04-19T08:46:25.845Z</time></trkpt><trkpt lat="43.7391377" lon="12.4520212"><ele>278.3333333333333</ele><time>2026-04-19T08:46:26.865Z</time></trkpt><trkpt lat="43.7389609" lon="12.451959"><ele>277.66666666666663</ele><time>2026-04-19T08:46:27.847Z</time></trkpt><trkpt lat="43.7387953" lon="12.4519015"><ele>277.0</ele><time>2026-04-19T08:46:28.842Z</time></trkpt><trkpt lat="43.7386432" lon="12.4518479"><ele>278.0</ele><time>2026-04-19T08:46:29.846Z</time></trkpt><trkpt lat="43.7384965" lon="12.4517864"><ele>279.0</ele><time>2026-04-19T08:46:30.849Z</time></trkpt><trkpt lat="43.7383503" lon="12.4517111"><ele>280.0</ele><time>2026-04-19T08:46:31.846Z</time></trkpt><trkpt lat="43.7382044" lon="12.4516201"><ele>280.0</ele><time>2026-04-19T08:46:32.863Z</time></trkpt><trkpt lat="43.7380652" lon="12.4515215"><ele>280.0</ele><time>2026-04-19T08:46:33.85Z</time></trkpt><trkpt lat="43.7379298" lon="12.4514249"><ele>280.0</ele><time>2026-04-19T08:46:34.848Z</time></trkpt><trkpt lat="43.7377994" lon="12.4513371"><ele>277.0</ele><time>2026-04-19T08:46:35.845Z</time></trkpt><trkpt lat="43.7376762" lon="12.4512568"><ele>274.0</ele><time>2026-04-19T08:46:36.85Z</time></trkpt><trkpt lat="43.7375671" lon="12.451186"><ele>271.0</ele><time>2026-04-19T08:46:37.881Z</time></trkpt><trkpt lat="43.7374777" lon="12.451127"><ele>268.0</ele><time>2026-04-19T08:46:38.844Z</time></trkpt><trkpt lat="43.7374004" lon="12.4510681"><ele>265.0</ele><time>2026-04-19T08:46:39.858Z</time></trkpt><trkpt lat="43.7373405" lon="12.4510012"><ele>265.0</ele><time>2026-04-19T08:46:40.848Z</time></trkpt><trkpt lat="43.7372878" lon="12.4509255"><ele>265.0</ele><time>2026-04-19T08:46:41.846Z</time></trkpt><trkpt lat="43.7372564" lon="12.45084"><ele>265.0</ele><time>2026-04-19T08:46:42.846Z</time></trkpt><trkpt lat="43.7372352" lon="12.4507504"><ele>265.0</ele><time>2026-04-19T08:46:43.847Z</time></trkpt><trkpt lat="43.7372005" lon="12.4506227"><ele>265.0</ele><time>2026-04-19T08:46:45.845Z</time></trkpt><trkpt lat="43.7371323" lon="12.4505785"><ele>265.0</ele><time>2026-04-19T08:46:47.846Z</time></trkpt><trkpt lat="43.7369933" lon="12.4505926"><ele>265.0</ele><time>2026-04-19T08:46:49.848Z</time></trkpt><trkpt lat="43.7368909" lon="12.4506203"><ele>265.0</ele><time>2026-04-19T08:46:50.853Z</time></trkpt><trkpt lat="43.7367837" lon="12.4506667"><ele>265.0</ele><time>2026-04-19T08:46:51.846Z</time></trkpt><trkpt lat="43.7366669" lon="12.450727"><ele>265.0</ele><time>2026-04-19T08:46:52.844Z</time></trkpt><trkpt lat="43.736546" lon="12.4507967"><ele>264.25</ele><time>2026-04-19T08:46:53.844Z</time></trkpt><trkpt lat="43.7364277" lon="12.4508662"><ele>263.5</ele><time>2026-04-19T08:46:54.848Z</time></trkpt><trkpt lat="43.7363139" lon="12.4509311"><ele>262.75</ele><time>2026-04-19T08:46:55.842Z</time></trkpt><trkpt lat="43.7362037" lon="12.450995"><ele>262.0</ele><time>2026-04-19T08:46:56.858Z</time></trkpt><trkpt lat="43.7360941" lon="12.4510506"><ele>261.5</ele><time>2026-04-19T08:46:57.847Z</time></trkpt><trkpt lat="43.7359853" lon="12.4511121"><ele>261.0</ele><time>2026-04-19T08:46:58.847Z</time></trkpt><trkpt lat="43.7358761" lon="12.4511683"><ele>260.5</ele><time>2026-04-19T08:46:59.851Z</time></trkpt><trkpt lat="43.7357642" lon="12.4512093"><ele>260.0</ele><time>2026-04-19T08:47:00.852Z</time></trkpt><trkpt lat="43.7356499" lon="12.4512346"><ele>260.0</ele><time>2026-04-19T08:47:01.847Z</time></trkpt><trkpt lat="43.7355324" lon="12.4512504"><ele>260.0</ele><time>2026-04-19T08:47:02.875Z</time></trkpt><trkpt lat="43.7354136" lon="12.4512586"><ele>260.0</ele><time>2026-04-19T08:47:03.849Z</time></trkpt><trkpt lat="43.735292" lon="12.451259"><ele>260.0</ele><time>2026-04-19T08:47:04.844Z</time></trkpt><trkpt lat="43.7351745" lon="12.4512544"><ele>259.8</ele><time>2026-04-19T08:47:05.841Z</time></trkpt><trkpt lat="43.7350638" lon="12.4512421"><ele>259.6</ele><time>2026-04-19T08:47:06.844Z</time></trkpt><trkpt lat="43.734964" lon="12.4512218"><ele>259.4</ele><time>2026-04-19T08:47:07.868Z</time></trkpt><trkpt lat="43.7348843" lon="12.4512093"><ele>259.2</ele><time>2026-04-19T08:47:08.844Z</time></trkpt><trkpt lat="43.7348128" lon="12.4512223"><ele>259.0</ele><time>2026-04-19T08:47:09.843Z</time></trkpt><trkpt lat="43.7347311" lon="12.4512592"><ele>259.8</ele><time>2026-04-19T08:47:10.847Z</time></trkpt><trkpt lat="43.7346276" lon="12.4513363"><ele>260.59999999999997</ele><time>2026-04-19T08:47:11.85Z</time></trkpt><trkpt lat="43.734515" lon="12.4514092"><ele>261.4</ele><time>2026-04-19T08:47:12.841Z</time></trkpt><trkpt lat="43.7344172" lon="12.451457"><ele>262.2</ele><time>2026-04-19T08:47:13.879Z</time></trkpt><trkpt lat="43.7343473" lon="12.4514898"><ele>263.0</ele><time>2026-04-19T08:47:14.855Z</time></trkpt><trkpt lat="43.7342716" lon="12.4515562"><ele>263.25</ele><time>2026-04-19T08:47:16.848Z</time></trkpt><trkpt lat="43.7342469" lon="12.4517051"><ele>263.5</ele><time>2026-04-19T08:47:18.856Z</time></trkpt><trkpt lat="43.7342198" lon="12.4518454"><ele>263.75</ele><time>2026-04-19T08:47:20.854Z</time></trkpt><trkpt lat="43.734142" lon="12.4519074"><ele>264.0</ele><time>2026-04-19T08:47:22.854Z</time></trkpt><trkpt lat="43.7339955" lon="12.4518785"><ele>264.0</ele><time>2026-04-19T08:47:24.866Z</time></trkpt><trkpt lat="43.733901" lon="12.4518563"><ele>264.0</ele><time>2026-04-19T08:47:25.847Z</time></trkpt><trkpt lat="43.7338116" lon="12.4518561"><ele>264.0</ele><time>2026-04-19T08:47:26.848Z</time></trkpt><trkpt lat="43.7337249" lon="12.4518765"><ele>264.0</ele><time>2026-04-19T08:47:27.863Z</time></trkpt><trkpt lat="43.7336368" lon="12.4519016"><ele>264.0</ele><time>2026-04-19T08:47:28.858Z</time></trkpt><trkpt lat="43.7335512" lon="12.4519436"><ele>265.6666666666667</ele><time>2026-04-19T08:47:29.846Z</time></trkpt><trkpt lat="43.7334816" lon="12.4519898"><ele>267.3333333333333</ele><time>2026-04-19T08:47:30.866Z</time></trkpt><trkpt lat="43.7334344" lon="12.4520555"><ele>269.0</ele><time>2026-04-19T08:47:31.851Z</time></trkpt><trkpt lat="43.7333831" lon="12.4521553"><ele>270.66666666666663</ele><time>2026-04-19T08:47:32.848Z</time></trkpt><trkpt lat="43.7333309" lon="12.452278"><ele>272.3333333333333</ele><time>2026-04-19T08:47:33.849Z</time></trkpt><trkpt lat="43.7332804" lon="12.4523978"><ele>274.0</ele><time>2026-04-19T08:47:34.85Z</time></trkpt><trkpt lat="43.733233" lon="12.4525102"><ele>275.0</ele><time>2026-04-19T08:47:35.846Z</time></trkpt><trkpt lat="43.7331848" lon="12.4526327"><ele>276.0</ele><time>2026-04-19T08:47:36.848Z</time></trkpt><trkpt lat="43.7331422" lon="12.4527511"><ele>277.0</ele><time>2026-04-19T08:47:37.852Z</time></trkpt><trkpt lat="43.7330893" lon="12.4528207"><ele>278.0</ele><time>2026-04-19T08:47:39.852Z</time></trkpt><trkpt lat="43.7330419" lon="12.4529075"><ele>279.0</ele><time>2026-04-19T08:47:41.858Z</time></trkpt><trkpt lat="43.7329777" lon="12.4529495"><ele>280.0</ele><time>2026-04-19T08:47:42.859Z</time></trkpt><trkpt lat="43.7328987" lon="12.4529902"><ele>281.0</ele><time>2026-04-19T08:47:43.858Z</time></trkpt><trkpt lat="43.7328214" lon="12.453012"><ele>282.0</ele><time>2026-04-19T08:47:44.856Z</time></trkpt><trkpt lat="43.7327511" lon="12.4530212"><ele>283.0</ele><time>2026-04-19T08:47:45.849Z</time></trkpt><trkpt lat="43.7326765" lon="12.4530211"><ele>284.0</ele><time>2026-04-19T08:47:46.848Z</time></trkpt><trkpt lat="43.7325873" lon="12.4530154"><ele>285.0</ele><time>2026-04-19T08:47:47.849Z</time></trkpt><trkpt lat="43.7324975" lon="12.4530189"><ele>286.0</ele><time>2026-04-19T08:47:48.848Z</time></trkpt><trkpt lat="43.732417" lon="12.4530369"><ele>289.8</ele><time>2026-04-19T08:47:49.847Z</time></trkpt><trkpt lat="43.7323518" lon="12.4530565"><ele>293.6</ele><time>2026-04-19T08:47:50.875Z</time></trkpt><trkpt lat="43.7322582" lon="12.4531047"><ele>297.4</ele><time>2026-04-19T08:47:52.852Z</time></trkpt><trkpt lat="43.7321973" lon="12.4531829"><ele>301.2</ele><time>2026-04-19T08:47:54.851Z</time></trkpt><trkpt lat="43.7321086" lon="12.4532379"><ele>305.0</ele><time>2026-04-19T08:47:56.878Z</time></trkpt><trkpt lat="43.7319913" lon="12.4532747"><ele>309.2</ele><time>2026-04-19T08:47:58.853Z</time></trkpt><trkpt lat="43.7318857" lon="12.4533203"><ele>313.4</ele><time>2026-04-19T08:48:00.844Z</time></trkpt><trkpt lat="43.7318174" lon="12.4534236"><ele>317.6</ele><time>2026-04-19T08:48:02.844Z</time></trkpt><trkpt lat="43.7317656" lon="12.4535916"><ele>321.8</ele><time>2026-04-19T08:48:04.854Z</time></trkpt><trkpt lat="43.731734" lon="12.4536984"><ele>326.0</ele><time>2026-04-19T08:48:05.854Z</time></trkpt><trkpt lat="43.7316995" lon="12.4538065"><ele>326.0</ele><time>2026-04-19T08:48:06.849Z</time></trkpt><trkpt lat="43.7316629" lon="12.4539031"><ele>326.0</ele><time>2026-04-19T08:48:07.852Z</time></trkpt><trkpt lat="43.7316278" lon="12.4539848"><ele>326.0</ele><time>2026-04-19T08:48:08.849Z</time></trkpt><trkpt lat="43.731555" lon="12.4541001"><ele>326.0</ele><time>2026-04-19T08:48:10.853Z</time></trkpt><trkpt lat="43.7314671" lon="12.4542001"><ele>326.0</ele><time>2026-04-19T08:48:12.865Z</time></trkpt><trkpt lat="43.7313765" lon="12.4542686"><ele>326.0</ele><time>2026-04-19T08:48:14.852Z</time></trkpt><trkpt lat="43.7313024" lon="12.4542853"><ele>326.0</ele><time>2026-04-19T08:48:16.852Z</time></trkpt><trkpt lat="43.7311842" lon="12.4542884"><ele>326.0</ele><time>2026-04-19T08:48:18.851Z</time></trkpt><trkpt lat="43.7310587" lon="12.4542663"><ele>326.0</ele><time>2026-04-19T08:48:20.85Z</time></trkpt><trkpt lat="43.7309892" lon="12.4542491"><ele>326.0</ele><time>2026-04-19T08:48:21.852Z</time></trkpt><trkpt lat="43.7309189" lon="12.4542336"><ele>329.42857142857144</ele><time>2026-04-19T08:48:22.85Z</time></trkpt><trkpt lat="43.730843" lon="12.4542172"><ele>332.85714285714283</ele><time>2026-04-19T08:48:23.876Z</time></trkpt><trkpt lat="43.73077" lon="12.4542043"><ele>336.2857142857143</ele><time>2026-04-19T08:48:24.846Z</time></trkpt><trkpt lat="43.7307012" lon="12.4542002"><ele>339.7142857142857</ele><time>2026-04-19T08:48:25.849Z</time></trkpt><trkpt lat="43.7306358" lon="12.4541904"><ele>343.1428571428571</ele><time>2026-04-19T08:48:26.844Z</time></trkpt><trkpt lat="43.7305679" lon="12.4541773"><ele>346.57142857142856</ele><time>2026-04-19T08:48:27.848Z</time></trkpt><trkpt lat="43.7304989" lon="12.4541589"><ele>350.0</ele><time>2026-04-19T08:48:28.845Z</time></trkpt><trkpt lat="43.7304296" lon="12.4541361"><ele>350.0</ele><time>2026-04-19T08:48:29.848Z</time></trkpt><trkpt lat="43.7303551" lon="12.4541125"><ele>350.0</ele><time>2026-04-19T08:48:30.85Z</time></trkpt><trkpt lat="43.7302679" lon="12.4540891"><ele>350.0</ele><time>2026-04-19T08:48:31.855Z</time></trkpt><trkpt lat="43.730182" lon="12.4540775"><ele>350.0</ele><time>2026-04-19T08:48:32.848Z</time></trkpt><trkpt lat="43.7301067" lon="12.4540865"><ele>350.0</ele><time>2026-04-19T08:48:33.873Z</time></trkpt><trkpt lat="43.7300322" lon="12.4541162"><ele>350.0</ele><time>2026-04-19T08:48:34.852Z</time></trkpt><trkpt lat="43.729961" lon="12.4541532"><ele>354.33333333333337</ele><time>2026-04-19T08:48:35.848Z</time></trkpt><trkpt lat="43.7299013" lon="12.4541868"><ele>358.6666666666667</ele><time>2026-04-19T08:48:36.846Z</time></trkpt><trkpt lat="43.7298138" lon="12.4542142"><ele>363.0</ele><time>2026-04-19T08:48:38.85Z</time></trkpt><trkpt lat="43.7297417" lon="12.4542185"><ele>367.3333333333333</ele><time>2026-04-19T08:48:41.848Z</time></trkpt><trkpt lat="43.7296849" lon="12.4542869"><ele>371.66666666666663</ele><time>2026-04-19T08:48:45.861Z</time></trkpt><trkpt lat="43.7296631" lon="12.4543808"><ele>376.0</ele><time>2026-04-19T08:48:47.849Z</time></trkpt><trkpt lat="43.7296046" lon="12.4544563"><ele>376.0</ele><time>2026-04-19T08:54:45.913Z</time></trkpt><trkpt lat="43.7296693" lon="12.4543846"><ele>376.0</ele><time>2026-04-19T08:54:53.879Z</time></trkpt><trkpt lat="43.7296987" lon="12.4542838"><ele>376.0</ele><time>2026-04-19T08:54:55.899Z</time></trkpt><trkpt lat="43.7297509" lon="12.4542223"><ele>376.0</ele><time>2026-04-19T08:54:57.866Z</time></trkpt><trkpt lat="43.7298409" lon="12.4542043"><ele>376.0</ele><time>2026-04-19T08:55:00.766Z</time></trkpt><trkpt lat="43.7299154" lon="12.4541872"><ele>376.0</ele><time>2026-04-19T08:55:02.852Z</time></trkpt><trkpt lat="43.7299803" lon="12.4541499"><ele>376.0</ele><time>2026-04-19T08:55:04.902Z</time></trkpt><trkpt lat="43.7300391" lon="12.4541165"><ele>376.0</ele><time>2026-04-19T08:55:06.854Z</time></trkpt><trkpt lat="43.7301" lon="12.4540839"><ele>376.0</ele><time>2026-04-19T08:55:08.902Z</time></trkpt><trkpt lat="43.7301802" lon="12.4540696"><ele>376.0</ele><time>2026-04-19T08:55:11.902Z</time></trkpt><trkpt lat="43.7302578" lon="12.4540883"><ele>376.0</ele><time>2026-04-19T08:55:14.901Z</time></trkpt><trkpt lat="43.7303417" lon="12.4541046"><ele>376.0</ele><time>2026-04-19T08:55:18.922Z</time></trkpt><trkpt lat="43.730397" lon="12.4541545"><ele>376.0</ele><time>2026-04-19T08:55:27.92Z</time></trkpt><trkpt lat="43.7304652" lon="12.4541767"><ele>370.8</ele><time>2026-04-19T08:55:29.844Z</time></trkpt><trkpt lat="43.7305489" lon="12.4542003"><ele>365.6</ele><time>2026-04-19T08:55:31.88Z</time></trkpt><trkpt lat="43.7306369" lon="12.4542238"><ele>360.4</ele><time>2026-04-19T08:55:33.92Z</time></trkpt><trkpt lat="43.7307195" lon="12.4542426"><ele>355.2</ele><time>2026-04-19T08:55:35.848Z</time></trkpt><trkpt lat="43.7308058" lon="12.4542515"><ele>350.0</ele><time>2026-04-19T08:55:37.955Z</time></trkpt><trkpt lat="43.7309181" lon="12.454238"><ele>350.0</ele><time>2026-04-19T08:55:40.393Z</time></trkpt><trkpt lat="43.7310369" lon="12.4542572"><ele>350.0</ele><time>2026-04-19T08:55:42.873Z</time></trkpt><trkpt lat="43.7311349" lon="12.4542899"><ele>350.0</ele><time>2026-04-19T08:55:44.845Z</time></trkpt><trkpt lat="43.7312203" lon="12.4543006"><ele>350.0</ele><time>2026-04-19T08:55:46.866Z</time></trkpt><trkpt lat="43.7313156" lon="12.4543001"><ele>350.0</ele><time>2026-04-19T08:55:48.849Z</time></trkpt><trkpt lat="43.7313999" lon="12.4542651"><ele>345.8</ele><time>2026-04-19T08:55:50.848Z</time></trkpt><trkpt lat="43.7314775" lon="12.4542181"><ele>341.6</ele><time>2026-04-19T08:55:52.845Z</time></trkpt><trkpt lat="43.7315679" lon="12.4540835"><ele>337.4</ele><time>2026-04-19T08:55:55.851Z</time></trkpt><trkpt lat="43.7316242" lon="12.4539867"><ele>333.2</ele><time>2026-04-19T08:55:57.852Z</time></trkpt><trkpt lat="43.7316834" lon="12.4538463"><ele>329.0</ele><time>2026-04-19T08:55:59.856Z</time></trkpt><trkpt lat="43.7317361" lon="12.4537035"><ele>329.0</ele><time>2026-04-19T08:56:01.853Z</time></trkpt><trkpt lat="43.7317804" lon="12.453567"><ele>329.0</ele><time>2026-04-19T08:56:03.852Z</time></trkpt><trkpt lat="43.7318233" lon="12.4534443"><ele>329.0</ele><time>2026-04-19T08:56:05.861Z</time></trkpt><trkpt lat="43.7318709" lon="12.4533408"><ele>329.0</ele><time>2026-04-19T08:56:07.849Z</time></trkpt><trkpt lat="43.7319682" lon="12.4532977"><ele>329.0</ele><time>2026-04-19T08:56:10.87Z</time></trkpt><trkpt lat="43.7320588" lon="12.4532687"><ele>324.2</ele><time>2026-04-19T08:56:12.898Z</time></trkpt><trkpt lat="43.732145" lon="12.4532185"><ele>319.4</ele><time>2026-04-19T08:56:14.846Z</time></trkpt><trkpt lat="43.7322426" lon="12.4531786"><ele>314.6</ele><time>2026-04-19T08:56:16.861Z</time></trkpt><trkpt lat="43.7323199" lon="12.4531217"><ele>309.8</ele><time>2026-04-19T08:56:18.842Z</time></trkpt><trkpt lat="43.7324077" lon="12.4530657"><ele>305.0</ele><time>2026-04-19T08:56:20.857Z</time></trkpt><trkpt lat="43.732516" lon="12.45305"><ele>305.0</ele><time>2026-04-19T08:56:22.848Z</time></trkpt><trkpt lat="43.732579" lon="12.4530501"><ele>305.0</ele><time>2026-04-19T08:56:23.852Z</time></trkpt><trkpt lat="43.7327047" lon="12.4530401"><ele>305.0</ele><time>2026-04-19T08:56:25.861Z</time></trkpt><trkpt lat="43.7328221" lon="12.4530267"><ele>305.0</ele><time>2026-04-19T08:56:27.845Z</time></trkpt><trkpt lat="43.7329302" lon="12.452981"><ele>305.0</ele><time>2026-04-19T08:56:29.848Z</time></trkpt><trkpt lat="43.7330234" lon="12.4529097"><ele>300.83333333333337</ele><time>2026-04-19T08:56:31.848Z</time></trkpt><trkpt lat="43.7331065" lon="12.4528191"><ele>296.6666666666667</ele><time>2026-04-19T08:56:33.848Z</time></trkpt><trkpt lat="43.7331737" lon="12.4526864"><ele>292.5</ele><time>2026-04-19T08:56:35.843Z</time></trkpt><trkpt lat="43.7332097" lon="12.4526035"><ele>288.3333333333333</ele><time>2026-04-19T08:56:36.848Z</time></trkpt><trkpt lat="43.7332495" lon="12.4525115"><ele>284.16666666666663</ele><time>2026-04-19T08:56:37.845Z</time></trkpt><trkpt lat="43.7332901" lon="12.4524191"><ele>280.0</ele><time>2026-04-19T08:56:38.846Z</time></trkpt><trkpt lat="43.7333306" lon="12.4523283"><ele>280.0</ele><time>2026-04-19T08:56:39.846Z</time></trkpt><trkpt lat="43.7333744" lon="12.4522295"><ele>280.0</ele><time>2026-04-19T08:56:40.847Z</time></trkpt><trkpt lat="43.7334165" lon="12.4521344"><ele>280.0</ele><time>2026-04-19T08:56:41.848Z</time></trkpt><trkpt lat="43.733454" lon="12.452055"><ele>280.0</ele><time>2026-04-19T08:56:42.851Z</time></trkpt><trkpt lat="43.7335243" lon="12.4519628"><ele>280.0</ele><time>2026-04-19T08:56:44.865Z</time></trkpt><trkpt lat="43.7336364" lon="12.4519113"><ele>280.0</ele><time>2026-04-19T08:56:46.849Z</time></trkpt><trkpt lat="43.7337106" lon="12.451885"><ele>277.3333333333333</ele><time>2026-04-19T08:56:47.849Z</time></trkpt><trkpt lat="43.7337895" lon="12.4518627"><ele>274.66666666666663</ele><time>2026-04-19T08:56:48.853Z</time></trkpt><trkpt lat="43.7338704" lon="12.4518495"><ele>272.0</ele><time>2026-04-19T08:56:49.843Z</time></trkpt><trkpt lat="43.7339504" lon="12.4518496"><ele>269.3333333333333</ele><time>2026-04-19T08:56:50.861Z</time></trkpt><trkpt lat="43.7340241" lon="12.4518639"><ele>266.6666666666667</ele><time>2026-04-19T08:56:51.844Z</time></trkpt><trkpt lat="43.7340879" lon="12.4518782"><ele>264.0</ele><time>2026-04-19T08:56:52.852Z</time></trkpt><trkpt lat="43.7341877" lon="12.4518532"><ele>264.0</ele><time>2026-04-19T08:56:54.842Z</time></trkpt><trkpt lat="43.7342567" lon="12.4517802"><ele>264.0</ele><time>2026-04-19T08:56:56.843Z</time></trkpt><trkpt lat="43.7342921" lon="12.4516253"><ele>264.0</ele><time>2026-04-19T08:56:58.853Z</time></trkpt><trkpt lat="43.7343272" lon="12.4515448"><ele>264.0</ele><time>2026-04-19T08:56:59.844Z</time></trkpt><trkpt lat="43.7343816" lon="12.4514849"><ele>264.0</ele><time>2026-04-19T08:57:00.848Z</time></trkpt><trkpt lat="43.734451" lon="12.4514494"><ele>264.0</ele><time>2026-04-19T08:57:01.846Z</time></trkpt><trkpt lat="43.7345276" lon="12.4514225"><ele>263.8333333333333</ele><time>2026-04-19T08:57:02.852Z</time></trkpt><trkpt lat="43.7346058" lon="12.4513868"><ele>263.6666666666667</ele><time>2026-04-19T08:57:03.845Z</time></trkpt><trkpt lat="43.7346898" lon="12.4513331"><ele>263.5</ele><time>2026-04-19T08:57:04.843Z</time></trkpt><trkpt lat="43.7347808" lon="12.4512746"><ele>263.33333333333337</ele><time>2026-04-19T08:57:05.84Z</time></trkpt><trkpt lat="43.7348637" lon="12.4512338"><ele>263.1666666666667</ele><time>2026-04-19T08:57:06.847Z</time></trkpt><trkpt lat="43.7349388" lon="12.4512264"><ele>263.0</ele><time>2026-04-19T08:57:07.846Z</time></trkpt><trkpt lat="43.7350307" lon="12.4512432"><ele>262.25</ele><time>2026-04-19T08:57:08.848Z</time></trkpt><trkpt lat="43.7351501" lon="12.4512683"><ele>261.5</ele><time>2026-04-19T08:57:09.84Z</time></trkpt><trkpt lat="43.7352836" lon="12.4512834"><ele>260.75</ele><time>2026-04-19T08:57:10.847Z</time></trkpt><trkpt lat="43.7354215" lon="12.451286"><ele>260.0</ele><time>2026-04-19T08:57:11.848Z</time></trkpt><trkpt lat="43.735561" lon="12.4512757"><ele>260.0</ele><time>2026-04-19T08:57:12.844Z</time></trkpt><trkpt lat="43.735693" lon="12.4512506"><ele>260.0</ele><time>2026-04-19T08:57:13.863Z</time></trkpt><trkpt lat="43.7358106" lon="12.4512138"><ele>260.0</ele><time>2026-04-19T08:57:14.853Z</time></trkpt><trkpt lat="43.7359298" lon="12.4511612"><ele>260.0</ele><time>2026-04-19T08:57:15.85Z</time></trkpt><trkpt lat="43.7360576" lon="12.4510945"><ele>260.6666666666667</ele><time>2026-04-19T08:57:16.841Z</time></trkpt><trkpt lat="43.7361952" lon="12.4510179"><ele>261.3333333333333</ele><time>2026-04-19T08:57:17.846Z</time></trkpt><trkpt lat="43.7363384" lon="12.4509396"><ele>262.0</ele><time>2026-04-19T08:57:18.847Z</time></trkpt><trkpt lat="43.7364872" lon="12.4508574"><ele>262.0</ele><time>2026-04-19T08:57:19.849Z</time></trkpt><trkpt lat="43.7366347" lon="12.4507744"><ele>262.0</ele><time>2026-04-19T08:57:20.846Z</time></trkpt><trkpt lat="43.7367664" lon="12.4507011"><ele>262.0</ele><time>2026-04-19T08:57:21.848Z</time></trkpt><trkpt lat="43.7368816" lon="12.4506396"><ele>262.0</ele><time>2026-04-19T08:57:22.843Z</time></trkpt><trkpt lat="43.7369759" lon="12.4505932"><ele>262.5</ele><time>2026-04-19T08:57:23.847Z</time></trkpt><trkpt lat="43.7370691" lon="12.4505763"><ele>263.0</ele><time>2026-04-19T08:57:24.846Z</time></trkpt><trkpt lat="43.7371423" lon="12.4505706"><ele>263.5</ele><time>2026-04-19T08:57:25.846Z</time></trkpt><trkpt lat="43.7372234" lon="12.4505265"><ele>264.0</ele><time>2026-04-19T08:57:27.844Z</time></trkpt><trkpt lat="43.7372647" lon="12.4503909"><ele>264.5</ele><time>2026-04-19T08:57:29.845Z</time></trkpt><trkpt lat="43.7372546" lon="12.4502872"><ele>265.0</ele><time>2026-04-19T08:57:30.849Z</time></trkpt><trkpt lat="43.737236" lon="12.4501645"><ele>263.6</ele><time>2026-04-19T08:57:31.847Z</time></trkpt><trkpt lat="43.737227" lon="12.4500195"><ele>262.2</ele><time>2026-04-19T08:57:32.846Z</time></trkpt><trkpt lat="43.7372159" lon="12.4498666"><ele>260.8</ele><time>2026-04-19T08:57:33.853Z</time></trkpt><trkpt lat="43.7372051" lon="12.4497085"><ele>259.4</ele><time>2026-04-19T08:57:34.852Z</time></trkpt><trkpt lat="43.7371945" lon="12.4495452"><ele>258.0</ele><time>2026-04-19T08:57:35.873Z</time></trkpt><trkpt lat="43.7371848" lon="12.4493955"><ele>258.0</ele><time>2026-04-19T08:57:36.853Z</time></trkpt><trkpt lat="43.7371688" lon="12.4492651"><ele>258.0</ele><time>2026-04-19T08:57:37.845Z</time></trkpt><trkpt lat="43.7371447" lon="12.4491472"><ele>258.0</ele><time>2026-04-19T08:57:38.849Z</time></trkpt><trkpt lat="43.7370866" lon="12.4490454"><ele>258.0</ele><time>2026-04-19T08:57:39.851Z</time></trkpt><trkpt lat="43.736999" lon="12.448962"><ele>258.0</ele><time>2026-04-19T08:57:40.851Z</time></trkpt><trkpt lat="43.7368938" lon="12.4488785"><ele>258.75</ele><time>2026-04-19T08:57:41.873Z</time></trkpt><trkpt lat="43.7367909" lon="12.4487848"><ele>259.5</ele><time>2026-04-19T08:57:42.846Z</time></trkpt><trkpt lat="43.7366869" lon="12.4486772"><ele>260.25</ele><time>2026-04-19T08:57:43.848Z</time></trkpt><trkpt lat="43.7365805" lon="12.4485655"><ele>261.0</ele><time>2026-04-19T08:57:44.85Z</time></trkpt><trkpt lat="43.7364768" lon="12.4484274"><ele>261.0</ele><time>2026-04-19T08:57:45.858Z</time></trkpt><trkpt lat="43.7363805" lon="12.4482814"><ele>261.0</ele><time>2026-04-19T08:57:46.851Z</time></trkpt><trkpt lat="43.7362889" lon="12.4481332"><ele>261.0</ele><time>2026-04-19T08:57:47.85Z</time></trkpt><trkpt lat="43.7361986" lon="12.4479881"><ele>261.0</ele><time>2026-04-19T08:57:48.859Z</time></trkpt><trkpt lat="43.7361073" lon="12.4478378"><ele>261.0</ele><time>2026-04-19T08:57:49.846Z</time></trkpt><trkpt lat="43.7360084" lon="12.4476772"><ele>261.0</ele><time>2026-04-19T08:57:50.857Z</time></trkpt><trkpt lat="43.7359012" lon="12.4475118"><ele>261.0</ele><time>2026-04-19T08:57:51.851Z</time></trkpt><trkpt lat="43.7357914" lon="12.4473463"><ele>261.0</ele><time>2026-04-19T08:57:52.851Z</time></trkpt><trkpt lat="43.7356874" lon="12.4471764"><ele>261.0</ele><time>2026-04-19T08:57:53.847Z</time></trkpt><trkpt lat="43.7355944" lon="12.4470068"><ele>261.0</ele><time>2026-04-19T08:57:54.852Z</time></trkpt><trkpt lat="43.7355097" lon="12.4468411"><ele>260.6</ele><time>2026-04-19T08:57:55.848Z</time></trkpt><trkpt lat="43.7354309" lon="12.44668"><ele>260.20000000000005</ele><time>2026-04-19T08:57:56.853Z</time></trkpt><trkpt lat="43.7353697" lon="12.4465321"><ele>259.79999999999995</ele><time>2026-04-19T08:57:57.855Z</time></trkpt><trkpt lat="43.7353273" lon="12.4464131"><ele>259.4</ele><time>2026-04-19T08:57:58.846Z</time></trkpt><trkpt lat="43.7352943" lon="12.4463256"><ele>259.0</ele><time>2026-04-19T08:57:59.862Z</time></trkpt><trkpt lat="43.7352167" lon="12.4462078"><ele>261.4</ele><time>2026-04-19T08:58:01.848Z</time></trkpt><trkpt lat="43.735148" lon="12.4461683"><ele>263.79999999999995</ele><time>2026-04-19T08:58:02.848Z</time></trkpt><trkpt lat="43.7350485" lon="12.4461482"><ele>266.20000000000005</ele><time>2026-04-19T08:58:03.851Z</time></trkpt><trkpt lat="43.734923" lon="12.4461444"><ele>268.6</ele><time>2026-04-19T08:58:04.855Z</time></trkpt><trkpt lat="43.7347782" lon="12.4461428"><ele>271.0</ele><time>2026-04-19T08:58:05.854Z</time></trkpt><trkpt lat="43.7346258" lon="12.4461317"><ele>271.0</ele><time>2026-04-19T08:58:06.859Z</time></trkpt><trkpt lat="43.7344735" lon="12.4461129"><ele>271.0</ele><time>2026-04-19T08:58:07.852Z</time></trkpt><trkpt lat="43.7343167" lon="12.4460924"><ele>271.0</ele><time>2026-04-19T08:58:08.852Z</time></trkpt><trkpt lat="43.7341583" lon="12.4460703"><ele>270.3333333333333</ele><time>2026-04-19T08:58:09.848Z</time></trkpt><trkpt lat="43.7340011" lon="12.4460486"><ele>269.6666666666667</ele><time>2026-04-19T08:58:10.85Z</time></trkpt><trkpt lat="43.7338457" lon="12.4460265"><ele>269.0</ele><time>2026-04-19T08:58:11.852Z</time></trkpt><trkpt lat="43.733694" lon="12.446002"><ele>269.25</ele><time>2026-04-19T08:58:12.855Z</time></trkpt><trkpt lat="43.733547" lon="12.4459765"><ele>269.5</ele><time>2026-04-19T08:58:13.853Z</time></trkpt><trkpt lat="43.7334031" lon="12.445955"><ele>269.75</ele><time>2026-04-19T08:58:14.853Z</time></trkpt><trkpt lat="43.7332643" lon="12.4459354"><ele>270.0</ele><time>2026-04-19T08:58:15.845Z</time></trkpt><trkpt lat="43.7331376" lon="12.4459136"><ele>270.0</ele><time>2026-04-19T08:58:16.852Z</time></trkpt><trkpt lat="43.7330297" lon="12.4458972"><ele>270.0</ele><time>2026-04-19T08:58:17.85Z</time></trkpt><trkpt lat="43.7329336" lon="12.4458932"><ele>270.0</ele><time>2026-04-19T08:58:18.851Z</time></trkpt><trkpt lat="43.7328476" lon="12.4459046"><ele>270.0</ele><time>2026-04-19T08:58:19.852Z</time></trkpt><trkpt lat="43.7327767" lon="12.445931"><ele>270.0</ele><time>2026-04-19T08:58:20.844Z</time></trkpt><trkpt lat="43.7326796" lon="12.4459887"><ele>271.0</ele><time>2026-04-19T08:58:22.844Z</time></trkpt><trkpt lat="43.7326011" lon="12.4460125"><ele>272.0</ele><time>2026-04-19T08:58:24.842Z</time></trkpt><trkpt lat="43.7322923" lon="12.4457783"><ele>273.0</ele><time>2026-04-19T09:03:13.852Z</time></trkpt><trkpt lat="43.7321843" lon="12.4456986"><ele>273.0</ele><time>2026-04-19T09:03:14.849Z</time></trkpt><trkpt lat="43.732089" lon="12.4456522"><ele>273.0</ele><time>2026-04-19T09:03:15.852Z</time></trkpt><trkpt lat="43.7319898" lon="12.44562"><ele>273.0</ele><time>2026-04-19T09:03:16.853Z</time></trkpt><trkpt lat="43.7318895" lon="12.4455917"><ele>273.0</ele><time>2026-04-19T09:03:17.857Z</time></trkpt><trkpt lat="43.7318022" lon="12.4455665"><ele>273.0</ele><time>2026-04-19T09:03:18.845Z</time></trkpt><trkpt lat="43.7317311" lon="12.4455444"><ele>273.6</ele><time>2026-04-19T09:03:19.849Z</time></trkpt><trkpt lat="43.7316327" lon="12.4454588"><ele>274.20000000000005</ele><time>2026-04-19T09:03:21.852Z</time></trkpt><trkpt lat="43.7316048" lon="12.4453787"><ele>274.8</ele><time>2026-04-19T09:03:22.845Z</time></trkpt><trkpt lat="43.7315943" lon="12.4452744"><ele>275.40000000000003</ele><time>2026-04-19T09:03:23.849Z</time></trkpt><trkpt lat="43.7316115" lon="12.44515"><ele>276.0</ele><time>2026-04-19T09:03:24.848Z</time></trkpt><trkpt lat="43.7316334" lon="12.4450094"><ele>276.0</ele><time>2026-04-19T09:03:25.845Z</time></trkpt><trkpt lat="43.7316598" lon="12.4448556"><ele>276.0</ele><time>2026-04-19T09:03:26.844Z</time></trkpt><trkpt lat="43.731687" lon="12.4446965"><ele>276.0</ele><time>2026-04-19T09:03:27.85Z</time></trkpt><trkpt lat="43.7317139" lon="12.4445339"><ele>276.0</ele><time>2026-04-19T09:03:28.849Z</time></trkpt><trkpt lat="43.7317418" lon="12.4443676"><ele>276.0</ele><time>2026-04-19T09:03:29.85Z</time></trkpt><trkpt lat="43.7317718" lon="12.4442018"><ele>276.0</ele><time>2026-04-19T09:03:30.849Z</time></trkpt><trkpt lat="43.7318007" lon="12.444035"><ele>276.0</ele><time>2026-04-19T09:03:31.848Z</time></trkpt><trkpt lat="43.7318284" lon="12.4438688"><ele>276.0</ele><time>2026-04-19T09:03:32.849Z</time></trkpt><trkpt lat="43.7318565" lon="12.4437049"><ele>276.0</ele><time>2026-04-19T09:03:33.845Z</time></trkpt><trkpt lat="43.7318854" lon="12.443544"><ele>276.0</ele><time>2026-04-19T09:03:34.845Z</time></trkpt><trkpt lat="43.7319133" lon="12.4433844"><ele>276.0</ele><time>2026-04-19T09:03:35.846Z</time></trkpt><trkpt lat="43.7319381" lon="12.4432237"><ele>276.0</ele><time>2026-04-19T09:03:36.853Z</time></trkpt><trkpt lat="43.7319603" lon="12.4430621"><ele>277.0</ele><time>2026-04-19T09:03:37.849Z</time></trkpt><trkpt lat="43.731984" lon="12.4428991"><ele>278.0</ele><time>2026-04-19T09:03:38.847Z</time></trkpt><trkpt lat="43.7320097" lon="12.4427355"><ele>279.0</ele><time>2026-04-19T09:03:39.853Z</time></trkpt><trkpt lat="43.7320345" lon="12.4425719"><ele>280.0</ele><time>2026-04-19T09:03:40.848Z</time></trkpt><trkpt lat="43.7320586" lon="12.4424076"><ele>280.0</ele><time>2026-04-19T09:03:41.855Z</time></trkpt><trkpt lat="43.7320825" lon="12.4422528"><ele>280.0</ele><time>2026-04-19T09:03:42.847Z</time></trkpt><trkpt lat="43.7321085" lon="12.442114"><ele>280.0</ele><time>2026-04-19T09:03:43.847Z</time></trkpt><trkpt lat="43.7321412" lon="12.4419889"><ele>280.0</ele><time>2026-04-19T09:03:44.845Z</time></trkpt><trkpt lat="43.7321873" lon="12.4418689"><ele>280.0</ele><time>2026-04-19T09:03:45.85Z</time></trkpt><trkpt lat="43.7322503" lon="12.4417588"><ele>281.25</ele><time>2026-04-19T09:03:46.848Z</time></trkpt><trkpt lat="43.7323381" lon="12.4416657"><ele>282.5</ele><time>2026-04-19T09:03:47.845Z</time></trkpt><trkpt lat="43.7324437" lon="12.441592"><ele>283.75</ele><time>2026-04-19T09:03:48.85Z</time></trkpt><trkpt lat="43.7325625" lon="12.4415439"><ele>285.0</ele><time>2026-04-19T09:03:49.843Z</time></trkpt><trkpt lat="43.7326801" lon="12.4415243"><ele>286.2</ele><time>2026-04-19T09:03:50.864Z</time></trkpt><trkpt lat="43.7327809" lon="12.4415503"><ele>287.4</ele><time>2026-04-19T09:03:51.848Z</time></trkpt><trkpt lat="43.7328703" lon="12.4415991"><ele>288.6</ele><time>2026-04-19T09:03:52.845Z</time></trkpt><trkpt lat="43.7329417" lon="12.4416551"><ele>289.8</ele><time>2026-04-19T09:03:53.845Z</time></trkpt><trkpt lat="43.7330356" lon="12.4417102"><ele>291.0</ele><time>2026-04-19T09:03:55.851Z</time></trkpt><trkpt lat="43.7330566" lon="12.4415843"><ele>291.0</ele><time>2026-04-19T09:03:58.859Z</time></trkpt><trkpt lat="43.7329328" lon="12.4414719"><ele>291.0</ele><time>2026-04-19T09:04:00.846Z</time></trkpt><trkpt lat="43.7328441" lon="12.4414036"><ele>291.0</ele><time>2026-04-19T09:04:01.889Z</time></trkpt><trkpt lat="43.7327514" lon="12.4413336"><ele>291.0</ele><time>2026-04-19T09:04:02.846Z</time></trkpt><trkpt lat="43.7326491" lon="12.4412581"><ele>291.75</ele><time>2026-04-19T09:04:03.852Z</time></trkpt><trkpt lat="43.7325393" lon="12.4411812"><ele>292.5</ele><time>2026-04-19T09:04:04.845Z</time></trkpt><trkpt lat="43.7324232" lon="12.4411114"><ele>293.25</ele><time>2026-04-19T09:04:05.845Z</time></trkpt><trkpt lat="43.7323004" lon="12.4410554"><ele>294.0</ele><time>2026-04-19T09:04:06.844Z</time></trkpt><trkpt lat="43.732172" lon="12.441016"><ele>294.0</ele><time>2026-04-19T09:04:07.844Z</time></trkpt><trkpt lat="43.7320436" lon="12.4409958"><ele>294.0</ele><time>2026-04-19T09:04:08.85Z</time></trkpt><trkpt lat="43.7319177" lon="12.4409957"><ele>294.0</ele><time>2026-04-19T09:04:09.85Z</time></trkpt><trkpt lat="43.7317909" lon="12.4410147"><ele>294.0</ele><time>2026-04-19T09:04:10.859Z</time></trkpt><trkpt lat="43.7316635" lon="12.441043"><ele>295.0</ele><time>2026-04-19T09:04:11.852Z</time></trkpt><trkpt lat="43.7315456" lon="12.44109"><ele>296.0</ele><time>2026-04-19T09:04:12.851Z</time></trkpt><trkpt lat="43.7314459" lon="12.4411442"><ele>297.0</ele><time>2026-04-19T09:04:13.85Z</time></trkpt><trkpt lat="43.7313613" lon="12.4412002"><ele>298.0</ele><time>2026-04-19T09:04:14.846Z</time></trkpt><trkpt lat="43.7312847" lon="12.4412608"><ele>299.0</ele><time>2026-04-19T09:04:15.846Z</time></trkpt><trkpt lat="43.7312136" lon="12.4413233"><ele>297.5</ele><time>2026-04-19T09:04:16.848Z</time></trkpt><trkpt lat="43.7311442" lon="12.4413872"><ele>296.0</ele><time>2026-04-19T09:04:17.865Z</time></trkpt><trkpt lat="43.731076" lon="12.4414528"><ele>294.5</ele><time>2026-04-19T09:04:18.848Z</time></trkpt><trkpt lat="43.7310055" lon="12.4415232"><ele>293.0</ele><time>2026-04-19T09:04:19.854Z</time></trkpt><trkpt lat="43.730937" lon="12.4415921"><ele>291.5</ele><time>2026-04-19T09:04:20.846Z</time></trkpt><trkpt lat="43.7308702" lon="12.4416576"><ele>290.0</ele><time>2026-04-19T09:04:21.848Z</time></trkpt><trkpt lat="43.7308035" lon="12.4417159"><ele>290.0</ele><time>2026-04-19T09:04:22.857Z</time></trkpt><trkpt lat="43.7307383" lon="12.4417615"><ele>290.0</ele><time>2026-04-19T09:04:23.851Z</time></trkpt><trkpt lat="43.730676" lon="12.4417872"><ele>290.0</ele><time>2026-04-19T09:04:24.868Z</time></trkpt><trkpt lat="43.7305775" lon="12.4418069"><ele>290.0</ele><time>2026-04-19T09:04:26.852Z</time></trkpt><trkpt lat="43.7305135" lon="12.4418022"><ele>290.0</ele><time>2026-04-19T09:04:28.853Z</time></trkpt><trkpt lat="43.730446" lon="12.4418033"><ele>290.0</ele><time>2026-04-19T09:04:32.881Z</time></trkpt><trkpt lat="43.7303665" lon="12.4417448"><ele>290.0</ele><time>2026-04-19T09:04:34.92Z</time></trkpt><trkpt lat="43.7302927" lon="12.4416886"><ele>290.0</ele><time>2026-04-19T09:04:36.785Z</time></trkpt><trkpt lat="43.7302154" lon="12.4416614"><ele>290.0</ele><time>2026-04-19T09:04:38.88Z</time></trkpt><trkpt lat="43.7301355" lon="12.4416252"><ele>290.0</ele><time>2026-04-19T09:04:41.846Z</time></trkpt><trkpt lat="43.7300683" lon="12.4417169"><ele>290.0</ele><time>2026-04-19T09:12:55.895Z</time></trkpt><trkpt lat="43.7302832" lon="12.4417808"><ele>290.0</ele><time>2026-04-19T09:12:56.869Z</time></trkpt><trkpt lat="43.7304206" lon="12.4418314"><ele>290.0</ele><time>2026-04-19T09:12:57.857Z</time></trkpt><trkpt lat="43.7305275" lon="12.4418454"><ele>290.0</ele><time>2026-04-19T09:12:58.845Z</time></trkpt><trkpt lat="43.7306639" lon="12.4417937"><ele>290.0</ele><time>2026-04-19T09:12:59.854Z</time></trkpt><trkpt lat="43.7307762" lon="12.4417145"><ele>290.0</ele><time>2026-04-19T09:13:00.856Z</time></trkpt><trkpt lat="43.7308843" lon="12.4416219"><ele>290.0</ele><time>2026-04-19T09:13:01.847Z</time></trkpt><trkpt lat="43.7309917" lon="12.4415253"><ele>290.0</ele><time>2026-04-19T09:13:02.848Z</time></trkpt><trkpt lat="43.7311044" lon="12.4414285"><ele>290.0</ele><time>2026-04-19T09:13:03.846Z</time></trkpt><trkpt lat="43.73123" lon="12.4413373"><ele>292.25</ele><time>2026-04-19T09:13:04.853Z</time></trkpt><trkpt lat="43.731356" lon="12.4412492"><ele>294.5</ele><time>2026-04-19T09:13:05.851Z</time></trkpt><trkpt lat="43.7314877" lon="12.4411628"><ele>296.75</ele><time>2026-04-19T09:13:06.858Z</time></trkpt><trkpt lat="43.7316192" lon="12.4410927"><ele>299.0</ele><time>2026-04-19T09:13:07.85Z</time></trkpt><trkpt lat="43.7317578" lon="12.4410384"><ele>297.33333333333337</ele><time>2026-04-19T09:13:08.849Z</time></trkpt><trkpt lat="43.731904" lon="12.4410179"><ele>295.6666666666667</ele><time>2026-04-19T09:13:09.853Z</time></trkpt><trkpt lat="43.7320508" lon="12.4410043"><ele>294.0</ele><time>2026-04-19T09:13:10.848Z</time></trkpt><trkpt lat="43.732208" lon="12.4410385"><ele>294.0</ele><time>2026-04-19T09:13:11.848Z</time></trkpt><trkpt lat="43.7323765" lon="12.4410895"><ele>294.0</ele><time>2026-04-19T09:13:12.848Z</time></trkpt><trkpt lat="43.7325395" lon="12.441179"><ele>294.0</ele><time>2026-04-19T09:13:13.852Z</time></trkpt><trkpt lat="43.7326856" lon="12.44129"><ele>293.25</ele><time>2026-04-19T09:13:14.849Z</time></trkpt><trkpt lat="43.7328085" lon="12.4414006"><ele>292.5</ele><time>2026-04-19T09:13:15.854Z</time></trkpt><trkpt lat="43.7329217" lon="12.441505"><ele>291.75</ele><time>2026-04-19T09:13:16.854Z</time></trkpt><trkpt lat="43.7330349" lon="12.4416118"><ele>291.0</ele><time>2026-04-19T09:13:17.871Z</time></trkpt><trkpt lat="43.7331605" lon="12.4417214"><ele>291.0</ele><time>2026-04-19T09:13:18.844Z</time></trkpt><trkpt lat="43.7333122" lon="12.441847"><ele>291.0</ele><time>2026-04-19T09:13:19.848Z</time></trkpt><trkpt lat="43.7334789" lon="12.4419828"><ele>291.0</ele><time>2026-04-19T09:13:20.846Z</time></trkpt><trkpt lat="43.7336453" lon="12.4421178"><ele>289.3333333333333</ele><time>2026-04-19T09:13:21.852Z</time></trkpt><trkpt lat="43.7338001" lon="12.4422341"><ele>287.66666666666663</ele><time>2026-04-19T09:13:22.845Z</time></trkpt><trkpt lat="43.7339553" lon="12.4423238"><ele>286.0</ele><time>2026-04-19T09:13:23.849Z</time></trkpt><trkpt lat="43.7341162" lon="12.4423905"><ele>286.0</ele><time>2026-04-19T09:13:24.848Z</time></trkpt><trkpt lat="43.734285" lon="12.4424357"><ele>286.0</ele><time>2026-04-19T09:13:25.854Z</time></trkpt><trkpt lat="43.7344685" lon="12.4424626"><ele>286.0</ele><time>2026-04-19T09:13:26.859Z</time></trkpt><trkpt lat="43.734647" lon="12.4424807"><ele>285.66666666666663</ele><time>2026-04-19T09:13:27.853Z</time></trkpt><trkpt lat="43.7348122" lon="12.4425161"><ele>285.3333333333333</ele><time>2026-04-19T09:13:28.852Z</time></trkpt><trkpt lat="43.7349705" lon="12.4425802"><ele>285.0</ele><time>2026-04-19T09:13:29.852Z</time></trkpt><trkpt lat="43.735132" lon="12.442681"><ele>284.0</ele><time>2026-04-19T09:13:30.852Z</time></trkpt><trkpt lat="43.7352957" lon="12.442816"><ele>283.0</ele><time>2026-04-19T09:13:31.861Z</time></trkpt><trkpt lat="43.7354543" lon="12.4429278"><ele>282.0</ele><time>2026-04-19T09:13:32.856Z</time></trkpt><trkpt lat="43.7356061" lon="12.443005"><ele>282.0</ele><time>2026-04-19T09:13:33.851Z</time></trkpt><trkpt lat="43.7357581" lon="12.4430536"><ele>282.0</ele><time>2026-04-19T09:13:34.855Z</time></trkpt><trkpt lat="43.7359151" lon="12.4430766"><ele>282.0</ele><time>2026-04-19T09:13:35.852Z</time></trkpt><trkpt lat="43.7360773" lon="12.4430757"><ele>281.25</ele><time>2026-04-19T09:13:36.854Z</time></trkpt><trkpt lat="43.7362301" lon="12.4430373"><ele>280.5</ele><time>2026-04-19T09:13:37.853Z</time></trkpt><trkpt lat="43.736364" lon="12.4429963"><ele>279.75</ele><time>2026-04-19T09:13:38.857Z</time></trkpt><trkpt lat="43.7364959" lon="12.4429608"><ele>279.0</ele><time>2026-04-19T09:13:39.849Z</time></trkpt><trkpt lat="43.7366466" lon="12.4429275"><ele>282.6666666666667</ele><time>2026-04-19T09:13:40.861Z</time></trkpt><trkpt lat="43.7368116" lon="12.4429026"><ele>286.33333333333337</ele><time>2026-04-19T09:13:41.85Z</time></trkpt><trkpt lat="43.7369802" lon="12.4429041"><ele>290.0</ele><time>2026-04-19T09:13:42.848Z</time></trkpt><trkpt lat="43.7371531" lon="12.4429401"><ele>288.6666666666667</ele><time>2026-04-19T09:13:43.848Z</time></trkpt><trkpt lat="43.7373409" lon="12.4430065"><ele>287.3333333333333</ele><time>2026-04-19T09:13:44.848Z</time></trkpt><trkpt lat="43.7375456" lon="12.4431086"><ele>286.0</ele><time>2026-04-19T09:13:45.864Z</time></trkpt><trkpt lat="43.7377548" lon="12.4432137"><ele>286.0</ele><time>2026-04-19T09:13:46.852Z</time></trkpt><trkpt lat="43.7379607" lon="12.4433195"><ele>286.0</ele><time>2026-04-19T09:13:47.851Z</time></trkpt><trkpt lat="43.7381613" lon="12.4434292"><ele>286.0</ele><time>2026-04-19T09:13:48.851Z</time></trkpt><trkpt lat="43.7383637" lon="12.4435533"><ele>287.66666666666663</ele><time>2026-04-19T09:13:49.849Z</time></trkpt><trkpt lat="43.7385697" lon="12.4436907"><ele>289.3333333333333</ele><time>2026-04-19T09:13:50.864Z</time></trkpt><trkpt lat="43.7387668" lon="12.4438281"><ele>291.0</ele><time>2026-04-19T09:13:51.85Z</time></trkpt><trkpt lat="43.7389529" lon="12.4439552"><ele>288.3333333333333</ele><time>2026-04-19T09:13:52.854Z</time></trkpt><trkpt lat="43.7391267" lon="12.4440708"><ele>285.66666666666663</ele><time>2026-04-19T09:13:53.854Z</time></trkpt><trkpt lat="43.739299" lon="12.4441836"><ele>283.0</ele><time>2026-04-19T09:13:54.847Z</time></trkpt><trkpt lat="43.7394788" lon="12.4443021"><ele>283.0</ele><time>2026-04-19T09:13:55.853Z</time></trkpt><trkpt lat="43.7396598" lon="12.4444266"><ele>283.0</ele><time>2026-04-19T09:13:56.855Z</time></trkpt><trkpt lat="43.7398352" lon="12.4445567"><ele>283.0</ele><time>2026-04-19T09:13:57.851Z</time></trkpt><trkpt lat="43.7400036" lon="12.4446925"><ele>283.66666666666663</ele><time>2026-04-19T09:13:58.862Z</time></trkpt><trkpt lat="43.7401562" lon="12.44483"><ele>284.3333333333333</ele><time>2026-04-19T09:13:59.845Z</time></trkpt><trkpt lat="43.7402942" lon="12.4449712"><ele>285.0</ele><time>2026-04-19T09:14:00.851Z</time></trkpt><trkpt lat="43.7404212" lon="12.445118"><ele>285.0</ele><time>2026-04-19T09:14:01.855Z</time></trkpt><trkpt lat="43.7405393" lon="12.4452689"><ele>285.0</ele><time>2026-04-19T09:14:02.854Z</time></trkpt><trkpt lat="43.7406468" lon="12.445417"><ele>285.0</ele><time>2026-04-19T09:14:03.865Z</time></trkpt><trkpt lat="43.7407443" lon="12.4455542"><ele>283.25</ele><time>2026-04-19T09:14:04.851Z</time></trkpt><trkpt lat="43.7408356" lon="12.4456799"><ele>281.5</ele><time>2026-04-19T09:14:05.851Z</time></trkpt><trkpt lat="43.7409206" lon="12.4457953"><ele>279.75</ele><time>2026-04-19T09:14:06.85Z</time></trkpt><trkpt lat="43.7410006" lon="12.4459063"><ele>278.0</ele><time>2026-04-19T09:14:07.857Z</time></trkpt><trkpt lat="43.7410776" lon="12.4460152"><ele>278.0</ele><time>2026-04-19T09:14:08.851Z</time></trkpt><trkpt lat="43.7411521" lon="12.4461203"><ele>278.0</ele><time>2026-04-19T09:14:09.856Z</time></trkpt><trkpt lat="43.7412216" lon="12.4462179"><ele>278.0</ele><time>2026-04-19T09:14:10.854Z</time></trkpt><trkpt lat="43.7412825" lon="12.4463034"><ele>278.0</ele><time>2026-04-19T09:14:11.858Z</time></trkpt><trkpt lat="43.7413211" lon="12.4463725"><ele>278.0</ele><time>2026-04-19T09:14:12.847Z</time></trkpt><trkpt lat="43.7412915" lon="12.4464689"><ele>278.0</ele><time>2026-04-19T09:14:15.849Z</time></trkpt><trkpt lat="43.7411961" lon="12.446412"><ele>277.83333333333337</ele><time>2026-04-19T09:14:17.845Z</time></trkpt><trkpt lat="43.7411382" lon="12.4463516"><ele>277.6666666666667</ele><time>2026-04-19T09:14:18.849Z</time></trkpt><trkpt lat="43.7410751" lon="12.4462969"><ele>277.5</ele><time>2026-04-19T09:14:19.867Z</time></trkpt><trkpt lat="43.741012" lon="12.4462566"><ele>277.3333333333333</ele><time>2026-04-19T09:14:20.845Z</time></trkpt><trkpt lat="43.7409533" lon="12.4462157"><ele>277.16666666666663</ele><time>2026-04-19T09:14:21.849Z</time></trkpt><trkpt lat="43.7408495" lon="12.4461224"><ele>277.0</ele><time>2026-04-19T09:14:23.847Z</time></trkpt><trkpt lat="43.7407641" lon="12.4460492"><ele>277.0</ele><time>2026-04-19T09:14:25.846Z</time></trkpt><trkpt lat="43.7406777" lon="12.4459174"><ele>277.0</ele><time>2026-04-19T09:14:42.849Z</time></trkpt><trkpt lat="43.7405899" lon="12.4458193"><ele>277.0</ele><time>2026-04-19T09:14:43.863Z</time></trkpt><trkpt lat="43.7405065" lon="12.445741"><ele>277.0</ele><time>2026-04-19T09:14:44.854Z</time></trkpt><trkpt lat="43.7404226" lon="12.4456629"><ele>277.0</ele><time>2026-04-19T09:14:45.852Z</time></trkpt><trkpt lat="43.7403366" lon="12.4455844"><ele>277.0</ele><time>2026-04-19T09:14:46.853Z</time></trkpt><trkpt lat="43.7402493" lon="12.445506"><ele>277.0</ele><time>2026-04-19T09:14:47.851Z</time></trkpt><trkpt lat="43.7401605" lon="12.4454243"><ele>277.0</ele><time>2026-04-19T09:14:48.847Z</time></trkpt><trkpt lat="43.7400679" lon="12.4453395"><ele>277.0</ele><time>2026-04-19T09:14:49.857Z</time></trkpt><trkpt lat="43.7399737" lon="12.4452532"><ele>277.0</ele><time>2026-04-19T09:14:50.848Z</time></trkpt><trkpt lat="43.7398769" lon="12.4451653"><ele>277.25</ele><time>2026-04-19T09:14:51.848Z</time></trkpt><trkpt lat="43.7397789" lon="12.4450775"><ele>277.5</ele><time>2026-04-19T09:14:52.845Z</time></trkpt><trkpt lat="43.7396785" lon="12.4449907"><ele>277.75</ele><time>2026-04-19T09:14:53.852Z</time></trkpt><trkpt lat="43.7395775" lon="12.4449059"><ele>278.0</ele><time>2026-04-19T09:14:54.845Z</time></trkpt><trkpt lat="43.7394737" lon="12.4448215"><ele>278.5</ele><time>2026-04-19T09:14:55.845Z</time></trkpt><trkpt lat="43.7393647" lon="12.4447415"><ele>279.0</ele><time>2026-04-19T09:14:56.848Z</time></trkpt><trkpt lat="43.7392508" lon="12.4446674"><ele>279.5</ele><time>2026-04-19T09:14:57.846Z</time></trkpt><trkpt lat="43.7391323" lon="12.4445988"><ele>280.0</ele><time>2026-04-19T09:14:58.85Z</time></trkpt><trkpt lat="43.7390089" lon="12.4445353"><ele>280.0</ele><time>2026-04-19T09:14:59.842Z</time></trkpt><trkpt lat="43.7388791" lon="12.4444742"><ele>280.0</ele><time>2026-04-19T09:15:00.869Z</time></trkpt><trkpt lat="43.738748" lon="12.4444224"><ele>280.0</ele><time>2026-04-19T09:15:01.845Z</time></trkpt><trkpt lat="43.7386108" lon="12.4443825"><ele>280.0</ele><time>2026-04-19T09:15:02.848Z</time></trkpt><trkpt lat="43.7384707" lon="12.4443552"><ele>278.75</ele><time>2026-04-19T09:15:03.852Z</time></trkpt><trkpt lat="43.7383286" lon="12.4443365"><ele>277.5</ele><time>2026-04-19T09:15:04.852Z</time></trkpt><trkpt lat="43.7381836" lon="12.4443281"><ele>276.25</ele><time>2026-04-19T09:15:05.87Z</time></trkpt><trkpt lat="43.7380395" lon="12.4443309"><ele>275.0</ele><time>2026-04-19T09:15:06.852Z</time></trkpt><trkpt lat="43.7378945" lon="12.4443462"><ele>275.0</ele><time>2026-04-19T09:15:07.843Z</time></trkpt><trkpt lat="43.737751" lon="12.4443753"><ele>275.0</ele><time>2026-04-19T09:15:08.85Z</time></trkpt><trkpt lat="43.73761" lon="12.4444164"><ele>275.0</ele><time>2026-04-19T09:15:09.845Z</time></trkpt><trkpt lat="43.7374686" lon="12.4444693"><ele>275.0</ele><time>2026-04-19T09:15:10.868Z</time></trkpt><trkpt lat="43.7373316" lon="12.4445358"><ele>275.0</ele><time>2026-04-19T09:15:11.844Z</time></trkpt><trkpt lat="43.7371908" lon="12.4446174"><ele>275.0</ele><time>2026-04-19T09:15:12.844Z</time></trkpt><trkpt lat="43.7370469" lon="12.444711"><ele>275.0</ele><time>2026-04-19T09:15:13.845Z</time></trkpt><trkpt lat="43.7369036" lon="12.4448188"><ele>273.33333333333337</ele><time>2026-04-19T09:15:14.845Z</time></trkpt><trkpt lat="43.7367632" lon="12.4449386"><ele>271.6666666666667</ele><time>2026-04-19T09:15:15.845Z</time></trkpt><trkpt lat="43.7366268" lon="12.4450627"><ele>270.0</ele><time>2026-04-19T09:15:16.852Z</time></trkpt><trkpt lat="43.7364915" lon="12.4451845"><ele>270.0</ele><time>2026-04-19T09:15:17.849Z</time></trkpt><trkpt lat="43.7363543" lon="12.4453056"><ele>270.0</ele><time>2026-04-19T09:15:18.845Z</time></trkpt><trkpt lat="43.736214" lon="12.4454293"><ele>270.0</ele><time>2026-04-19T09:15:19.864Z</time></trkpt><trkpt lat="43.7360748" lon="12.4455517"><ele>269.25</ele><time>2026-04-19T09:15:20.853Z</time></trkpt><trkpt lat="43.7359389" lon="12.445671"><ele>268.5</ele><time>2026-04-19T09:15:21.851Z</time></trkpt><trkpt lat="43.7358124" lon="12.44578"><ele>267.75</ele><time>2026-04-19T09:15:22.851Z</time></trkpt><trkpt lat="43.7356955" lon="12.4458707"><ele>267.0</ele><time>2026-04-19T09:15:23.851Z</time></trkpt><trkpt lat="43.7355895" lon="12.4459403"><ele>267.0</ele><time>2026-04-19T09:15:24.853Z</time></trkpt><trkpt lat="43.7354948" lon="12.4459951"><ele>267.0</ele><time>2026-04-19T09:15:25.845Z</time></trkpt><trkpt lat="43.7354094" lon="12.4460486"><ele>267.0</ele><time>2026-04-19T09:15:26.848Z</time></trkpt><trkpt lat="43.7353397" lon="12.4461127"><ele>267.0</ele><time>2026-04-19T09:15:27.844Z</time></trkpt><trkpt lat="43.7352959" lon="12.4461935"><ele>267.0</ele><time>2026-04-19T09:15:28.845Z</time></trkpt><trkpt lat="43.7352818" lon="12.4462901"><ele>267.0</ele><time>2026-04-19T09:15:29.845Z</time></trkpt><trkpt lat="43.7353004" lon="12.4464061"><ele>265.0</ele><time>2026-04-19T09:15:30.859Z</time></trkpt><trkpt lat="43.7353506" lon="12.4465434"><ele>263.0</ele><time>2026-04-19T09:15:31.845Z</time></trkpt><trkpt lat="43.7354165" lon="12.4467016"><ele>261.0</ele><time>2026-04-19T09:15:32.853Z</time></trkpt><trkpt lat="43.7354932" lon="12.4468675"><ele>259.0</ele><time>2026-04-19T09:15:33.859Z</time></trkpt><trkpt lat="43.7355825" lon="12.4470335"><ele>259.66666666666663</ele><time>2026-04-19T09:15:34.853Z</time></trkpt><trkpt lat="43.7356844" lon="12.4472"><ele>260.3333333333333</ele><time>2026-04-19T09:15:35.868Z</time></trkpt><trkpt lat="43.7357943" lon="12.4473653"><ele>261.0</ele><time>2026-04-19T09:15:36.847Z</time></trkpt><trkpt lat="43.7359112" lon="12.4475371"><ele>261.0</ele><time>2026-04-19T09:15:37.854Z</time></trkpt><trkpt lat="43.7360274" lon="12.4477124"><ele>261.0</ele><time>2026-04-19T09:15:38.857Z</time></trkpt><trkpt lat="43.7361398" lon="12.4478869"><ele>261.0</ele><time>2026-04-19T09:15:39.849Z</time></trkpt><trkpt lat="43.7362493" lon="12.4480609"><ele>261.0</ele><time>2026-04-19T09:15:40.871Z</time></trkpt><trkpt lat="43.736353" lon="12.4482273"><ele>261.0</ele><time>2026-04-19T09:15:41.849Z</time></trkpt><trkpt lat="43.7364525" lon="12.4483857"><ele>261.0</ele><time>2026-04-19T09:15:42.851Z</time></trkpt><trkpt lat="43.7365469" lon="12.448525"><ele>261.0</ele><time>2026-04-19T09:15:43.853Z</time></trkpt><trkpt lat="43.7366409" lon="12.4486472"><ele>261.0</ele><time>2026-04-19T09:15:44.857Z</time></trkpt><trkpt lat="43.7367411" lon="12.4487617"><ele>261.0</ele><time>2026-04-19T09:15:45.856Z</time></trkpt><trkpt lat="43.7368399" lon="12.4488655"><ele>261.0</ele><time>2026-04-19T09:15:46.849Z</time></trkpt><trkpt lat="43.7369382" lon="12.448958"><ele>261.0</ele><time>2026-04-19T09:15:47.862Z</time></trkpt><trkpt lat="43.7370273" lon="12.4490419"><ele>260.40000000000003</ele><time>2026-04-19T09:15:48.854Z</time></trkpt><trkpt lat="43.7370986" lon="12.4491278"><ele>259.8</ele><time>2026-04-19T09:15:49.85Z</time></trkpt><trkpt lat="43.737149" lon="12.4492217"><ele>259.20000000000005</ele><time>2026-04-19T09:15:50.842Z</time></trkpt><trkpt lat="43.7371821" lon="12.4493319"><ele>258.6</ele><time>2026-04-19T09:15:51.852Z</time></trkpt><trkpt lat="43.7371963" lon="12.4494828"><ele>258.0</ele><time>2026-04-19T09:15:52.841Z</time></trkpt><trkpt lat="43.7372022" lon="12.4496729"><ele>258.0</ele><time>2026-04-19T09:15:53.847Z</time></trkpt><trkpt lat="43.7372082" lon="12.4498682"><ele>258.0</ele><time>2026-04-19T09:15:54.845Z</time></trkpt><trkpt lat="43.7372173" lon="12.4500379"><ele>258.0</ele><time>2026-04-19T09:15:55.852Z</time></trkpt><trkpt lat="43.7372262" lon="12.4501838"><ele>258.0</ele><time>2026-04-19T09:15:56.869Z</time></trkpt><trkpt lat="43.7372324" lon="12.4503063"><ele>258.0</ele><time>2026-04-19T09:15:57.845Z</time></trkpt><trkpt lat="43.7372361" lon="12.4504042"><ele>258.0</ele><time>2026-04-19T09:15:58.845Z</time></trkpt><trkpt lat="43.7372464" lon="12.450525"><ele>258.0</ele><time>2026-04-19T09:16:00.847Z</time></trkpt><trkpt lat="43.7373206" lon="12.4505643"><ele>258.0</ele><time>2026-04-19T09:16:08.881Z</time></trkpt><trkpt lat="43.7374928" lon="12.450546"><ele>258.0</ele><time>2026-04-19T09:16:20.88Z</time></trkpt><trkpt lat="43.737569" lon="12.45053"><ele>258.6666666666667</ele><time>2026-04-19T09:16:21.859Z</time></trkpt><trkpt lat="43.7376295" lon="12.4505579"><ele>259.3333333333333</ele><time>2026-04-19T09:16:28.86Z</time></trkpt><trkpt lat="43.7376865" lon="12.4506019"><ele>260.0</ele><time>2026-04-19T09:16:35.883Z</time></trkpt><trkpt lat="43.7377451" lon="12.4506429"><ele>260.66666666666663</ele><time>2026-04-19T09:16:39.86Z</time></trkpt><trkpt lat="43.7376224" lon="12.4505643"><ele>261.3333333333333</ele><time>2026-04-19T09:17:09.858Z</time></trkpt><trkpt lat="43.7375641" lon="12.4505306"><ele>262.0</ele><time>2026-04-19T09:17:10.853Z</time></trkpt><trkpt lat="43.7374548" lon="12.4505107"><ele>262.5</ele><time>2026-04-19T09:17:12.848Z</time></trkpt><trkpt lat="43.7373846" lon="12.450531"><ele>263.0</ele><time>2026-04-19T09:17:13.849Z</time></trkpt><trkpt lat="43.7372752" lon="12.4505249"><ele>263.5</ele><time>2026-04-19T09:17:15.851Z</time></trkpt><trkpt lat="43.7372317" lon="12.450434"><ele>264.0</ele><time>2026-04-19T09:17:17.852Z</time></trkpt><trkpt lat="43.7372287" lon="12.4503408"><ele>264.5</ele><time>2026-04-19T09:17:18.855Z</time></trkpt><trkpt lat="43.7372276" lon="12.4502299"><ele>265.0</ele><time>2026-04-19T09:17:19.849Z</time></trkpt><trkpt lat="43.7372253" lon="12.4501004"><ele>263.6</ele><time>2026-04-19T09:17:20.849Z</time></trkpt><trkpt lat="43.7372203" lon="12.4499712"><ele>262.2</ele><time>2026-04-19T09:17:21.856Z</time></trkpt><trkpt lat="43.7372108" lon="12.449844"><ele>260.8</ele><time>2026-04-19T09:17:22.848Z</time></trkpt><trkpt lat="43.7372007" lon="12.4497152"><ele>259.4</ele><time>2026-04-19T09:17:23.845Z</time></trkpt><trkpt lat="43.7371907" lon="12.4495853"><ele>258.0</ele><time>2026-04-19T09:17:24.848Z</time></trkpt><trkpt lat="43.7371843" lon="12.449459"><ele>258.0</ele><time>2026-04-19T09:17:25.851Z</time></trkpt><trkpt lat="43.7371757" lon="12.4493402"><ele>258.0</ele><time>2026-04-19T09:17:26.85Z</time></trkpt><trkpt lat="43.73716" lon="12.4492328"><ele>258.0</ele><time>2026-04-19T09:17:27.849Z</time></trkpt><trkpt lat="43.7371265" lon="12.4491426"><ele>258.0</ele><time>2026-04-19T09:17:28.862Z</time></trkpt><trkpt lat="43.7370757" lon="12.4490655"><ele>258.0</ele><time>2026-04-19T09:17:29.853Z</time></trkpt><trkpt lat="43.7370134" lon="12.4489951"><ele>258.0</ele><time>2026-04-19T09:17:30.851Z</time></trkpt><trkpt lat="43.7369423" lon="12.4489315"><ele>258.4</ele><time>2026-04-19T09:17:31.848Z</time></trkpt><trkpt lat="43.7368665" lon="12.4488684"><ele>258.8</ele><time>2026-04-19T09:17:32.854Z</time></trkpt><trkpt lat="43.7367888" lon="12.4487998"><ele>259.2</ele><time>2026-04-19T09:17:33.849Z</time></trkpt><trkpt lat="43.7367112" lon="12.44872"><ele>259.6</ele><time>2026-04-19T09:17:34.854Z</time></trkpt><trkpt lat="43.7366358" lon="12.4486308"><ele>260.0</ele><time>2026-04-19T09:17:35.848Z</time></trkpt><trkpt lat="43.7365626" lon="12.4485338"><ele>260.2</ele><time>2026-04-19T09:17:36.853Z</time></trkpt><trkpt lat="43.7364936" lon="12.4484316"><ele>260.4</ele><time>2026-04-19T09:17:37.852Z</time></trkpt><trkpt lat="43.7364271" lon="12.4483259"><ele>260.6</ele><time>2026-04-19T09:17:38.844Z</time></trkpt><trkpt lat="43.7363619" lon="12.4482129"><ele>260.8</ele><time>2026-04-19T09:17:39.856Z</time></trkpt><trkpt lat="43.7362956" lon="12.4480997"><ele>261.0</ele><time>2026-04-19T09:17:40.856Z</time></trkpt><trkpt lat="43.7362277" lon="12.4479909"><ele>261.0</ele><time>2026-04-19T09:17:41.849Z</time></trkpt><trkpt lat="43.7361569" lon="12.4478855"><ele>261.0</ele><time>2026-04-19T09:17:42.843Z</time></trkpt><trkpt lat="43.7360841" lon="12.4477758"><ele>261.0</ele><time>2026-04-19T09:17:43.852Z</time></trkpt><trkpt lat="43.7360104" lon="12.4476618"><ele>261.0</ele><time>2026-04-19T09:17:44.845Z</time></trkpt><trkpt lat="43.7359341" lon="12.4475468"><ele>261.0</ele><time>2026-04-19T09:17:45.854Z</time></trkpt><trkpt lat="43.7358575" lon="12.4474325"><ele>261.0</ele><time>2026-04-19T09:17:46.852Z</time></trkpt><trkpt lat="43.7357819" lon="12.4473168"><ele>261.0</ele><time>2026-04-19T09:17:47.85Z</time></trkpt><trkpt lat="43.7357074" lon="12.4471989"><ele>261.0</ele><time>2026-04-19T09:17:48.85Z</time></trkpt><trkpt lat="43.735633" lon="12.4470793"><ele>261.0</ele><time>2026-04-19T09:17:49.851Z</time></trkpt><trkpt lat="43.7355621" lon="12.4469573"><ele>260.6</ele><time>2026-04-19T09:17:50.848Z</time></trkpt><trkpt lat="43.7354982" lon="12.4468331"><ele>260.20000000000005</ele><time>2026-04-19T09:17:51.847Z</time></trkpt><trkpt lat="43.7354429" lon="12.4467068"><ele>259.79999999999995</ele><time>2026-04-19T09:17:52.845Z</time></trkpt><trkpt lat="43.7353949" lon="12.4465839"><ele>259.4</ele><time>2026-04-19T09:17:53.863Z</time></trkpt><trkpt lat="43.735357" lon="12.4464742"><ele>259.0</ele><time>2026-04-19T09:17:54.856Z</time></trkpt><trkpt lat="43.7353289" lon="12.4463803"><ele>260.3333333333333</ele><time>2026-04-19T09:17:55.846Z</time></trkpt><trkpt lat="43.735296" lon="12.4462516"><ele>261.66666666666663</ele><time>2026-04-19T09:17:57.849Z</time></trkpt><trkpt lat="43.7352874" lon="12.4461639"><ele>263.0</ele><time>2026-04-19T09:18:01.85Z</time></trkpt><trkpt lat="43.7353354" lon="12.4460514"><ele>264.3333333333333</ele><time>2026-04-19T09:18:03.845Z</time></trkpt><trkpt lat="43.7353757" lon="12.4459591"><ele>265.6666666666667</ele><time>2026-04-19T09:18:04.847Z</time></trkpt><trkpt lat="43.7354171" lon="12.4458408"><ele>267.0</ele><time>2026-04-19T09:18:05.855Z</time></trkpt><trkpt lat="43.7354534" lon="12.4457115"><ele>267.0</ele><time>2026-04-19T09:18:06.85Z</time></trkpt><trkpt lat="43.7354867" lon="12.4455784"><ele>267.0</ele><time>2026-04-19T09:18:07.849Z</time></trkpt><trkpt lat="43.7355206" lon="12.4454399"><ele>267.0</ele><time>2026-04-19T09:18:08.841Z</time></trkpt><trkpt lat="43.7355559" lon="12.4452926"><ele>267.0</ele><time>2026-04-19T09:18:09.848Z</time></trkpt><trkpt lat="43.7355943" lon="12.4451412"><ele>267.0</ele><time>2026-04-19T09:18:10.85Z</time></trkpt><trkpt lat="43.7356346" lon="12.4449912"><ele>268.6</ele><time>2026-04-19T09:18:11.848Z</time></trkpt><trkpt lat="43.7356725" lon="12.4448437"><ele>270.2</ele><time>2026-04-19T09:18:12.86Z</time></trkpt><trkpt lat="43.735708" lon="12.4447013"><ele>271.8</ele><time>2026-04-19T09:18:13.845Z</time></trkpt><trkpt lat="43.7357434" lon="12.4445567"><ele>273.4</ele><time>2026-04-19T09:18:14.853Z</time></trkpt><trkpt lat="43.7357818" lon="12.4444101"><ele>275.0</ele><time>2026-04-19T09:18:15.852Z</time></trkpt><trkpt lat="43.735824" lon="12.4442622"><ele>275.5</ele><time>2026-04-19T09:18:16.852Z</time></trkpt><trkpt lat="43.735868" lon="12.4441133"><ele>276.0</ele><time>2026-04-19T09:18:17.848Z</time></trkpt><trkpt lat="43.735912" lon="12.4439662"><ele>276.5</ele><time>2026-04-19T09:18:18.847Z</time></trkpt><trkpt lat="43.7359539" lon="12.4438208"><ele>277.0</ele><time>2026-04-19T09:18:19.849Z</time></trkpt><trkpt lat="43.735994" lon="12.4436779"><ele>277.4</ele><time>2026-04-19T09:18:20.853Z</time></trkpt><trkpt lat="43.7360337" lon="12.4435409"><ele>277.79999999999995</ele><time>2026-04-19T09:18:21.852Z</time></trkpt><trkpt lat="43.7360741" lon="12.4434114"><ele>278.2</ele><time>2026-04-19T09:18:22.848Z</time></trkpt><trkpt lat="43.7361201" lon="12.4432912"><ele>278.59999999999997</ele><time>2026-04-19T09:18:23.863Z</time></trkpt><trkpt lat="43.7361743" lon="12.4431889"><ele>279.0</ele><time>2026-04-19T09:18:24.847Z</time></trkpt><trkpt lat="43.7362305" lon="12.4431148"><ele>279.0</ele><time>2026-04-19T09:18:25.843Z</time></trkpt><trkpt lat="43.7362958" lon="12.4430524"><ele>279.0</ele><time>2026-04-19T09:18:27.846Z</time></trkpt><trkpt lat="43.7362525" lon="12.4429789"><ele>279.0</ele><time>2026-04-19T09:18:31.849Z</time></trkpt><trkpt lat="43.7361149" lon="12.4430085"><ele>279.0</ele><time>2026-04-19T09:18:33.854Z</time></trkpt><trkpt lat="43.7360312" lon="12.4430198"><ele>279.0</ele><time>2026-04-19T09:18:34.865Z</time></trkpt><trkpt lat="43.7359455" lon="12.4430245"><ele>279.59999999999997</ele><time>2026-04-19T09:18:35.854Z</time></trkpt><trkpt lat="43.7358541" lon="12.4430185"><ele>280.2</ele><time>2026-04-19T09:18:36.852Z</time></trkpt><trkpt lat="43.7357549" lon="12.4429982"><ele>280.79999999999995</ele><time>2026-04-19T09:18:37.85Z</time></trkpt><trkpt lat="43.7356506" lon="12.4429638"><ele>281.4</ele><time>2026-04-19T09:18:38.854Z</time></trkpt><trkpt lat="43.7355453" lon="12.442916"><ele>282.0</ele><time>2026-04-19T09:18:39.857Z</time></trkpt><trkpt lat="43.7354417" lon="12.442858"><ele>282.75</ele><time>2026-04-19T09:18:40.846Z</time></trkpt><trkpt lat="43.7353378" lon="12.4427927"><ele>283.5</ele><time>2026-04-19T09:18:41.847Z</time></trkpt><trkpt lat="43.7352339" lon="12.4427199"><ele>284.25</ele><time>2026-04-19T09:18:42.849Z</time></trkpt><trkpt lat="43.7351304" lon="12.4426445"><ele>285.0</ele><time>2026-04-19T09:18:43.85Z</time></trkpt><trkpt lat="43.7350233" lon="12.4425718"><ele>285.0</ele><time>2026-04-19T09:18:44.864Z</time></trkpt><trkpt lat="43.734913" lon="12.4425087"><ele>285.0</ele><time>2026-04-19T09:18:45.854Z</time></trkpt><trkpt lat="43.7347967" lon="12.4424601"><ele>285.0</ele><time>2026-04-19T09:18:46.852Z</time></trkpt><trkpt lat="43.7346769" lon="12.4424296"><ele>285.0</ele><time>2026-04-19T09:18:47.858Z</time></trkpt><trkpt lat="43.7345552" lon="12.4424168"><ele>285.0</ele><time>2026-04-19T09:18:48.854Z</time></trkpt><trkpt lat="43.7344314" lon="12.4424079"><ele>285.0</ele><time>2026-04-19T09:18:49.86Z</time></trkpt><trkpt lat="43.734308" lon="12.4423927"><ele>285.0</ele><time>2026-04-19T09:18:50.854Z</time></trkpt><trkpt lat="43.7341829" lon="12.442366"><ele>285.0</ele><time>2026-04-19T09:18:51.853Z</time></trkpt><trkpt lat="43.7340564" lon="12.442326"><ele>285.25</ele><time>2026-04-19T09:18:52.849Z</time></trkpt><trkpt lat="43.7339292" lon="12.4422714"><ele>285.5</ele><time>2026-04-19T09:18:53.845Z</time></trkpt><trkpt lat="43.7338064" lon="12.4421992"><ele>285.75</ele><time>2026-04-19T09:18:54.848Z</time></trkpt><trkpt lat="43.7336888" lon="12.442112"><ele>286.0</ele><time>2026-04-19T09:18:55.845Z</time></trkpt><trkpt lat="43.733575" lon="12.4420202"><ele>287.25</ele><time>2026-04-19T09:18:56.865Z</time></trkpt><trkpt lat="43.7334655" lon="12.4419267"><ele>288.5</ele><time>2026-04-19T09:18:57.853Z</time></trkpt><trkpt lat="43.7333555" lon="12.4418297"><ele>289.75</ele><time>2026-04-19T09:18:58.848Z</time></trkpt><trkpt lat="43.7332454" lon="12.4417375"><ele>291.0</ele><time>2026-04-19T09:18:59.846Z</time></trkpt><trkpt lat="43.7331357" lon="12.4416515"><ele>291.0</ele><time>2026-04-19T09:19:00.857Z</time></trkpt><trkpt lat="43.7330287" lon="12.4415675"><ele>291.0</ele><time>2026-04-19T09:19:01.851Z</time></trkpt><trkpt lat="43.7329236" lon="12.4414818"><ele>291.0</ele><time>2026-04-19T09:19:02.853Z</time></trkpt><trkpt lat="43.7328189" lon="12.4413935"><ele>291.0</ele><time>2026-04-19T09:19:03.868Z</time></trkpt><trkpt lat="43.7327138" lon="12.4413061"><ele>291.75</ele><time>2026-04-19T09:19:04.852Z</time></trkpt><trkpt lat="43.732604" lon="12.4412224"><ele>292.5</ele><time>2026-04-19T09:19:05.853Z</time></trkpt><trkpt lat="43.7324902" lon="12.4411474"><ele>293.25</ele><time>2026-04-19T09:19:06.852Z</time></trkpt><trkpt lat="43.7323725" lon="12.4410857"><ele>294.0</ele><time>2026-04-19T09:19:07.844Z</time></trkpt><trkpt lat="43.7322516" lon="12.4410369"><ele>294.0</ele><time>2026-04-19T09:19:08.864Z</time></trkpt><trkpt lat="43.7321312" lon="12.441004"><ele>294.0</ele><time>2026-04-19T09:19:09.845Z</time></trkpt><trkpt lat="43.7320129" lon="12.4409895"><ele>294.0</ele><time>2026-04-19T09:19:10.85Z</time></trkpt><trkpt lat="43.731905" lon="12.4409928"><ele>294.0</ele><time>2026-04-19T09:19:11.843Z</time></trkpt><trkpt lat="43.7318084" lon="12.4410087"><ele>294.0</ele><time>2026-04-19T09:19:12.846Z</time></trkpt><trkpt lat="43.7317119" lon="12.4410393"><ele>295.25</ele><time>2026-04-19T09:19:13.847Z</time></trkpt><trkpt lat="43.7316087" lon="12.4410847"><ele>296.5</ele><time>2026-04-19T09:19:14.846Z</time></trkpt><trkpt lat="43.7315007" lon="12.4411434"><ele>297.75</ele><time>2026-04-19T09:19:15.847Z</time></trkpt><trkpt lat="43.7313896" lon="12.4412157"><ele>299.0</ele><time>2026-04-19T09:19:16.866Z</time></trkpt><trkpt lat="43.7312778" lon="12.4412997"><ele>296.75</ele><time>2026-04-19T09:19:17.856Z</time></trkpt><trkpt lat="43.7311673" lon="12.4413935"><ele>294.5</ele><time>2026-04-19T09:19:18.848Z</time></trkpt><trkpt lat="43.7310621" lon="12.4414899"><ele>292.25</ele><time>2026-04-19T09:19:19.851Z</time></trkpt><trkpt lat="43.7309653" lon="12.441583"><ele>290.0</ele><time>2026-04-19T09:19:20.853Z</time></trkpt><trkpt lat="43.7308772" lon="12.4416679"><ele>290.0</ele><time>2026-04-19T09:19:21.853Z</time></trkpt><trkpt lat="43.7307957" lon="12.4417376"><ele>290.0</ele><time>2026-04-19T09:19:22.849Z</time></trkpt><trkpt lat="43.7307146" lon="12.4417894"><ele>290.0</ele><time>2026-04-19T09:19:23.868Z</time></trkpt><trkpt lat="43.7306322" lon="12.4418198"><ele>290.0</ele><time>2026-04-19T09:19:24.844Z</time></trkpt><trkpt lat="43.7305472" lon="12.4418446"><ele>290.0</ele><time>2026-04-19T09:19:25.848Z</time></trkpt><trkpt lat="43.7304688" lon="12.4418396"><ele>290.0</ele><time>2026-04-19T09:19:26.853Z</time></trkpt><trkpt lat="43.7303984" lon="12.4418081"><ele>290.0</ele><time>2026-04-19T09:19:27.849Z</time></trkpt><trkpt lat="43.7303349" lon="12.4417649"><ele>290.0</ele><time>2026-04-19T09:19:28.866Z</time></trkpt><trkpt lat="43.7302769" lon="12.4417223"><ele>290.0</ele><time>2026-04-19T09:19:29.85Z</time></trkpt><trkpt lat="43.7301806" lon="12.4416623"><ele>290.0</ele><time>2026-04-19T09:19:31.844Z</time></trkpt><trkpt lat="43.7301178" lon="12.4416691"><ele>290.0</ele><time>2026-04-19T09:28:35.845Z</time></trkpt><trkpt lat="43.7302991" lon="12.4417841"><ele>290.0</ele><time>2026-04-19T09:47:24.865Z</time></trkpt><trkpt lat="43.7304351" lon="12.441835"><ele>290.0</ele><time>2026-04-19T09:47:25.866Z</time></trkpt><trkpt lat="43.7305332" lon="12.4418597"><ele>290.0</ele><time>2026-04-19T09:47:26.855Z</time></trkpt><trkpt lat="43.7306149" lon="12.4418561"><ele>290.0</ele><time>2026-04-19T09:47:27.854Z</time></trkpt><trkpt lat="43.7306911" lon="12.4418289"><ele>290.0</ele><time>2026-04-19T09:47:28.871Z</time></trkpt><trkpt lat="43.7307638" lon="12.4417774"><ele>290.0</ele><time>2026-04-19T09:47:29.851Z</time></trkpt><trkpt lat="43.7308361" lon="12.4417171"><ele>290.0</ele><time>2026-04-19T09:47:30.865Z</time></trkpt><trkpt lat="43.7309046" lon="12.44165"><ele>290.0</ele><time>2026-04-19T09:47:31.851Z</time></trkpt><trkpt lat="43.7309728" lon="12.4415827"><ele>290.0</ele><time>2026-04-19T09:47:32.851Z</time></trkpt><trkpt lat="43.7310416" lon="12.4415174"><ele>290.0</ele><time>2026-04-19T09:47:33.853Z</time></trkpt><trkpt lat="43.731114" lon="12.441455"><ele>290.0</ele><time>2026-04-19T09:47:34.853Z</time></trkpt><trkpt lat="43.7311908" lon="12.4413904"><ele>289.2</ele><time>2026-04-19T09:47:35.853Z</time></trkpt><trkpt lat="43.7312717" lon="12.4413251"><ele>288.4</ele><time>2026-04-19T09:47:36.855Z</time></trkpt><trkpt lat="43.7313553" lon="12.4412602"><ele>287.6</ele><time>2026-04-19T09:47:37.856Z</time></trkpt><trkpt lat="43.7314427" lon="12.4411992"><ele>286.8</ele><time>2026-04-19T09:47:38.858Z</time></trkpt><trkpt lat="43.731533" lon="12.4411445"><ele>286.0</ele><time>2026-04-19T09:47:39.852Z</time></trkpt><trkpt lat="43.73163" lon="12.4410948"><ele>287.6</ele><time>2026-04-19T09:47:40.872Z</time></trkpt><trkpt lat="43.7317311" lon="12.4410555"><ele>289.20000000000005</ele><time>2026-04-19T09:47:41.85Z</time></trkpt><trkpt lat="43.7318348" lon="12.4410317"><ele>290.79999999999995</ele><time>2026-04-19T09:47:42.854Z</time></trkpt><trkpt lat="43.7319383" lon="12.4410241"><ele>292.4</ele><time>2026-04-19T09:47:43.849Z</time></trkpt><trkpt lat="43.7320434" lon="12.4410287"><ele>294.0</ele><time>2026-04-19T09:47:44.853Z</time></trkpt><trkpt lat="43.7321507" lon="12.4410444"><ele>294.0</ele><time>2026-04-19T09:47:45.852Z</time></trkpt><trkpt lat="43.7322601" lon="12.4410736"><ele>294.0</ele><time>2026-04-19T09:47:46.853Z</time></trkpt><trkpt lat="43.7323682" lon="12.4411207"><ele>294.0</ele><time>2026-04-19T09:47:47.856Z</time></trkpt><trkpt lat="43.732474" lon="12.4411833"><ele>294.0</ele><time>2026-04-19T09:47:48.854Z</time></trkpt><trkpt lat="43.7325777" lon="12.4412552"><ele>293.4</ele><time>2026-04-19T09:47:49.856Z</time></trkpt><trkpt lat="43.7326778" lon="12.4413288"><ele>292.79999999999995</ele><time>2026-04-19T09:47:50.856Z</time></trkpt><trkpt lat="43.7327701" lon="12.4413966"><ele>292.20000000000005</ele><time>2026-04-19T09:47:51.855Z</time></trkpt><trkpt lat="43.7328517" lon="12.4414576"><ele>291.6</ele><time>2026-04-19T09:47:52.86Z</time></trkpt><trkpt lat="43.732922" lon="12.4415124"><ele>291.0</ele><time>2026-04-19T09:47:53.855Z</time></trkpt><trkpt lat="43.7329797" lon="12.4415611"><ele>291.0</ele><time>2026-04-19T09:47:54.846Z</time></trkpt><trkpt lat="43.7330332" lon="12.4416476"><ele>291.0</ele><time>2026-04-19T09:47:56.859Z</time></trkpt><trkpt lat="43.7329568" lon="12.4416963"><ele>291.0</ele><time>2026-04-19T09:47:59.851Z</time></trkpt><trkpt lat="43.7328606" lon="12.4416063"><ele>291.0</ele><time>2026-04-19T09:48:01.848Z</time></trkpt><trkpt lat="43.7327953" lon="12.4415535"><ele>291.0</ele><time>2026-04-19T09:48:02.85Z</time></trkpt><trkpt lat="43.732717" lon="12.4415191"><ele>291.0</ele><time>2026-04-19T09:48:03.866Z</time></trkpt><trkpt lat="43.7326313" lon="12.4415131"><ele>289.8</ele><time>2026-04-19T09:48:04.854Z</time></trkpt><trkpt lat="43.7325379" lon="12.4415304"><ele>288.6</ele><time>2026-04-19T09:48:05.853Z</time></trkpt><trkpt lat="43.7324404" lon="12.4415694"><ele>287.4</ele><time>2026-04-19T09:48:06.853Z</time></trkpt><trkpt lat="43.7323446" lon="12.44163"><ele>286.2</ele><time>2026-04-19T09:48:07.853Z</time></trkpt><trkpt lat="43.7322552" lon="12.4417076"><ele>285.0</ele><time>2026-04-19T09:48:08.855Z</time></trkpt><trkpt lat="43.7321793" lon="12.4417973"><ele>285.0</ele><time>2026-04-19T09:48:09.849Z</time></trkpt><trkpt lat="43.7321172" lon="12.4418976"><ele>285.0</ele><time>2026-04-19T09:48:10.853Z</time></trkpt><trkpt lat="43.732068" lon="12.4420111"><ele>285.0</ele><time>2026-04-19T09:48:11.849Z</time></trkpt><trkpt lat="43.7320335" lon="12.4421393"><ele>285.0</ele><time>2026-04-19T09:48:12.865Z</time></trkpt><trkpt lat="43.7320117" lon="12.442275"><ele>285.0</ele><time>2026-04-19T09:48:13.848Z</time></trkpt><trkpt lat="43.7319936" lon="12.4424149"><ele>284.0</ele><time>2026-04-19T09:48:14.852Z</time></trkpt><trkpt lat="43.731976" lon="12.4425541"><ele>283.0</ele><time>2026-04-19T09:48:15.849Z</time></trkpt><trkpt lat="43.7319545" lon="12.4426918"><ele>282.0</ele><time>2026-04-19T09:48:16.849Z</time></trkpt><trkpt lat="43.7319287" lon="12.4428278"><ele>281.0</ele><time>2026-04-19T09:48:17.847Z</time></trkpt><trkpt lat="43.7319006" lon="12.4429614"><ele>280.0</ele><time>2026-04-19T09:48:18.851Z</time></trkpt><trkpt lat="43.7318761" lon="12.4430947"><ele>279.2</ele><time>2026-04-19T09:48:19.855Z</time></trkpt><trkpt lat="43.7318554" lon="12.4432264"><ele>278.4</ele><time>2026-04-19T09:48:20.849Z</time></trkpt><trkpt lat="43.7318362" lon="12.4433595"><ele>277.6</ele><time>2026-04-19T09:48:21.844Z</time></trkpt><trkpt lat="43.7318161" lon="12.4434938"><ele>276.8</ele><time>2026-04-19T09:48:22.847Z</time></trkpt><trkpt lat="43.7317955" lon="12.443629"><ele>276.0</ele><time>2026-04-19T09:48:23.849Z</time></trkpt><trkpt lat="43.7317754" lon="12.4437656"><ele>276.2</ele><time>2026-04-19T09:48:24.85Z</time></trkpt><trkpt lat="43.731755" lon="12.4439026"><ele>276.40000000000003</ele><time>2026-04-19T09:48:25.848Z</time></trkpt><trkpt lat="43.7317342" lon="12.4440384"><ele>276.6</ele><time>2026-04-19T09:48:26.844Z</time></trkpt><trkpt lat="43.7317145" lon="12.4441738"><ele>276.8</ele><time>2026-04-19T09:48:27.88Z</time></trkpt><trkpt lat="43.7316959" lon="12.444302"><ele>277.0</ele><time>2026-04-19T09:48:28.846Z</time></trkpt><trkpt lat="43.7316759" lon="12.4444308"><ele>277.0</ele><time>2026-04-19T09:48:29.852Z</time></trkpt><trkpt lat="43.7316565" lon="12.4445573"><ele>277.0</ele><time>2026-04-19T09:48:30.851Z</time></trkpt><trkpt lat="43.7316394" lon="12.4446831"><ele>277.0</ele><time>2026-04-19T09:48:31.854Z</time></trkpt><trkpt lat="43.7316236" lon="12.4448029"><ele>277.0</ele><time>2026-04-19T09:48:32.862Z</time></trkpt><trkpt lat="43.7316076" lon="12.444903"><ele>277.0</ele><time>2026-04-19T09:48:33.851Z</time></trkpt><trkpt lat="43.7315892" lon="12.4450007"><ele>277.0</ele><time>2026-04-19T09:48:34.85Z</time></trkpt><trkpt lat="43.7315732" lon="12.445088"><ele>276.75</ele><time>2026-04-19T09:48:35.851Z</time></trkpt><trkpt lat="43.7315436" lon="12.4452465"><ele>276.5</ele><time>2026-04-19T09:48:37.862Z</time></trkpt><trkpt lat="43.7315194" lon="12.4453796"><ele>276.25</ele><time>2026-04-19T09:48:39.857Z</time></trkpt><trkpt lat="43.731505" lon="12.4454785"><ele>276.0</ele><time>2026-04-19T09:48:42.879Z</time></trkpt><trkpt lat="43.7316563" lon="12.4455814"><ele>275.6666666666667</ele><time>2026-04-19T09:48:51.856Z</time></trkpt><trkpt lat="43.7317335" lon="12.4456029"><ele>275.3333333333333</ele><time>2026-04-19T09:48:52.847Z</time></trkpt><trkpt lat="43.7318112" lon="12.4456189"><ele>275.0</ele><time>2026-04-19T09:48:53.842Z</time></trkpt><trkpt lat="43.731889" lon="12.4456386"><ele>274.66666666666663</ele><time>2026-04-19T09:48:54.852Z</time></trkpt><trkpt lat="43.7319658" lon="12.445663"><ele>274.3333333333333</ele><time>2026-04-19T09:48:55.851Z</time></trkpt><trkpt lat="43.7320426" lon="12.4456882"><ele>274.0</ele><time>2026-04-19T09:48:56.845Z</time></trkpt><trkpt lat="43.732119" lon="12.4457102"><ele>273.8333333333333</ele><time>2026-04-19T09:48:57.859Z</time></trkpt><trkpt lat="43.7321942" lon="12.4457305"><ele>273.66666666666663</ele><time>2026-04-19T09:48:58.849Z</time></trkpt><trkpt lat="43.7322738" lon="12.4457526"><ele>273.5</ele><time>2026-04-19T09:48:59.841Z</time></trkpt><trkpt lat="43.7323613" lon="12.4457771"><ele>273.3333333333333</ele><time>2026-04-19T09:49:00.853Z</time></trkpt><trkpt lat="43.7324538" lon="12.4458036"><ele>273.1666666666667</ele><time>2026-04-19T09:49:01.849Z</time></trkpt><trkpt lat="43.7325504" lon="12.4458306"><ele>273.0</ele><time>2026-04-19T09:49:02.861Z</time></trkpt><trkpt lat="43.7326472" lon="12.4458545"><ele>272.4</ele><time>2026-04-19T09:49:03.848Z</time></trkpt><trkpt lat="43.7327451" lon="12.4458756"><ele>271.8</ele><time>2026-04-19T09:49:04.85Z</time></trkpt><trkpt lat="43.7328413" lon="12.4458956"><ele>271.2</ele><time>2026-04-19T09:49:05.843Z</time></trkpt><trkpt lat="43.7329363" lon="12.4459178"><ele>270.6</ele><time>2026-04-19T09:49:06.853Z</time></trkpt><trkpt lat="43.7330315" lon="12.4459395"><ele>270.0</ele><time>2026-04-19T09:49:07.846Z</time></trkpt><trkpt lat="43.733131" lon="12.4459599"><ele>270.0</ele><time>2026-04-19T09:49:08.846Z</time></trkpt><trkpt lat="43.7332345" lon="12.4459785"><ele>270.0</ele><time>2026-04-19T09:49:09.846Z</time></trkpt><trkpt lat="43.7333387" lon="12.4459961"><ele>270.0</ele><time>2026-04-19T09:49:10.841Z</time></trkpt><trkpt lat="43.7334454" lon="12.4460157"><ele>270.0</ele><time>2026-04-19T09:49:11.854Z</time></trkpt><trkpt lat="43.7335555" lon="12.4460354"><ele>270.0</ele><time>2026-04-19T09:49:12.844Z</time></trkpt><trkpt lat="43.7336697" lon="12.446054"><ele>269.75</ele><time>2026-04-19T09:49:13.85Z</time></trkpt><trkpt lat="43.7337858" lon="12.446073"><ele>269.5</ele><time>2026-04-19T09:49:14.846Z</time></trkpt><trkpt lat="43.7339036" lon="12.4460948"><ele>269.25</ele><time>2026-04-19T09:49:15.846Z</time></trkpt><trkpt lat="43.7340223" lon="12.4461171"><ele>269.0</ele><time>2026-04-19T09:49:16.876Z</time></trkpt><trkpt lat="43.7341421" lon="12.4461395"><ele>269.0</ele><time>2026-04-19T09:49:17.849Z</time></trkpt><trkpt lat="43.7342638" lon="12.4461605"><ele>269.0</ele><time>2026-04-19T09:49:18.85Z</time></trkpt><trkpt lat="43.7343851" lon="12.4461772"><ele>269.0</ele><time>2026-04-19T09:49:19.85Z</time></trkpt><trkpt lat="43.7345044" lon="12.44619"><ele>269.0</ele><time>2026-04-19T09:49:20.842Z</time></trkpt><trkpt lat="43.7346222" lon="12.4462009"><ele>269.4</ele><time>2026-04-19T09:49:21.846Z</time></trkpt><trkpt lat="43.734736" lon="12.446208"><ele>269.79999999999995</ele><time>2026-04-19T09:49:22.842Z</time></trkpt><trkpt lat="43.734846" lon="12.4462136"><ele>270.20000000000005</ele><time>2026-04-19T09:49:23.871Z</time></trkpt><trkpt lat="43.7349468" lon="12.4462188"><ele>270.6</ele><time>2026-04-19T09:49:24.844Z</time></trkpt><trkpt lat="43.7350417" lon="12.4462252"><ele>271.0</ele><time>2026-04-19T09:49:25.845Z</time></trkpt><trkpt lat="43.7351275" lon="12.4462329"><ele>271.0</ele><time>2026-04-19T09:49:26.846Z</time></trkpt><trkpt lat="43.7352002" lon="12.4462638"><ele>271.0</ele><time>2026-04-19T09:49:27.846Z</time></trkpt><trkpt lat="43.7352593" lon="12.4463161"><ele>271.0</ele><time>2026-04-19T09:49:28.842Z</time></trkpt><trkpt lat="43.7352995" lon="12.4463924"><ele>271.0</ele><time>2026-04-19T09:49:29.858Z</time></trkpt><trkpt lat="43.7353289" lon="12.4464774"><ele>271.0</ele><time>2026-04-19T09:49:30.843Z</time></trkpt><trkpt lat="43.7353573" lon="12.4465672"><ele>271.0</ele><time>2026-04-19T09:49:31.844Z</time></trkpt><trkpt lat="43.7353871" lon="12.4466578"><ele>271.0</ele><time>2026-04-19T09:49:32.847Z</time></trkpt><trkpt lat="43.7354205" lon="12.4467467"><ele>269.57142857142856</ele><time>2026-04-19T09:49:33.841Z</time></trkpt><trkpt lat="43.7354563" lon="12.4468337"><ele>268.14285714285717</ele><time>2026-04-19T09:49:34.845Z</time></trkpt><trkpt lat="43.7354964" lon="12.4469165"><ele>266.7142857142857</ele><time>2026-04-19T09:49:35.844Z</time></trkpt><trkpt lat="43.7355404" lon="12.4469959"><ele>265.2857142857143</ele><time>2026-04-19T09:49:36.845Z</time></trkpt><trkpt lat="43.7355855" lon="12.4470728"><ele>263.85714285714283</ele><time>2026-04-19T09:49:37.845Z</time></trkpt><trkpt lat="43.7356311" lon="12.4471461"><ele>262.42857142857144</ele><time>2026-04-19T09:49:38.847Z</time></trkpt><trkpt lat="43.7356777" lon="12.4472194"><ele>261.0</ele><time>2026-04-19T09:49:39.842Z</time></trkpt><trkpt lat="43.7357276" lon="12.4472954"><ele>261.0</ele><time>2026-04-19T09:49:40.861Z</time></trkpt><trkpt lat="43.7357773" lon="12.4473717"><ele>261.0</ele><time>2026-04-19T09:49:41.844Z</time></trkpt><trkpt lat="43.7358281" lon="12.4474516"><ele>261.0</ele><time>2026-04-19T09:49:42.844Z</time></trkpt><trkpt lat="43.7358794" lon="12.4475316"><ele>261.0</ele><time>2026-04-19T09:49:43.841Z</time></trkpt><trkpt lat="43.7359316" lon="12.4476116"><ele>261.0</ele><time>2026-04-19T09:49:44.846Z</time></trkpt><trkpt lat="43.7359852" lon="12.4476908"><ele>261.0</ele><time>2026-04-19T09:49:45.847Z</time></trkpt><trkpt lat="43.7360403" lon="12.4477679"><ele>261.0</ele><time>2026-04-19T09:49:46.841Z</time></trkpt><trkpt lat="43.7360957" lon="12.4478463"><ele>261.0</ele><time>2026-04-19T09:49:47.852Z</time></trkpt><trkpt lat="43.7361491" lon="12.4479269"><ele>261.0</ele><time>2026-04-19T09:49:48.841Z</time></trkpt><trkpt lat="43.7362008" lon="12.4480106"><ele>261.0</ele><time>2026-04-19T09:49:49.842Z</time></trkpt><trkpt lat="43.7362514" lon="12.4480946"><ele>261.0</ele><time>2026-04-19T09:49:50.841Z</time></trkpt><trkpt lat="43.7363032" lon="12.4481755"><ele>261.0</ele><time>2026-04-19T09:49:51.841Z</time></trkpt><trkpt lat="43.7363546" lon="12.4482524"><ele>261.0</ele><time>2026-04-19T09:49:52.841Z</time></trkpt><trkpt lat="43.736403" lon="12.448328"><ele>261.0</ele><time>2026-04-19T09:49:53.847Z</time></trkpt><trkpt lat="43.736448" lon="12.4484031"><ele>261.0</ele><time>2026-04-19T09:49:54.845Z</time></trkpt><trkpt lat="43.736493" lon="12.4484776"><ele>261.0</ele><time>2026-04-19T09:49:55.843Z</time></trkpt><trkpt lat="43.7365421" lon="12.4485485"><ele>261.0</ele><time>2026-04-19T09:49:56.844Z</time></trkpt><trkpt lat="43.7365952" lon="12.4486146"><ele>261.0</ele><time>2026-04-19T09:49:57.842Z</time></trkpt><trkpt lat="43.7366502" lon="12.4486778"><ele>261.0</ele><time>2026-04-19T09:49:58.86Z</time></trkpt><trkpt lat="43.7367049" lon="12.4487386"><ele>260.8571428571429</ele><time>2026-04-19T09:49:59.841Z</time></trkpt><trkpt lat="43.7367611" lon="12.4487986"><ele>260.7142857142857</ele><time>2026-04-19T09:50:00.846Z</time></trkpt><trkpt lat="43.7368191" lon="12.4488545"><ele>260.57142857142856</ele><time>2026-04-19T09:50:01.842Z</time></trkpt><trkpt lat="43.7368776" lon="12.4489099"><ele>260.42857142857144</ele><time>2026-04-19T09:50:02.843Z</time></trkpt><trkpt lat="43.7369354" lon="12.4489654"><ele>260.2857142857143</ele><time>2026-04-19T09:50:03.85Z</time></trkpt><trkpt lat="43.7369931" lon="12.4490225"><ele>260.14285714285717</ele><time>2026-04-19T09:50:04.843Z</time></trkpt><trkpt lat="43.7370489" lon="12.4490804"><ele>260.0</ele><time>2026-04-19T09:50:05.85Z</time></trkpt><trkpt lat="43.7371002" lon="12.4491372"><ele>259.6666666666667</ele><time>2026-04-19T09:50:06.848Z</time></trkpt><trkpt lat="43.7371383" lon="12.449214"><ele>259.33333333333337</ele><time>2026-04-19T09:50:07.842Z</time></trkpt><trkpt lat="43.7371632" lon="12.4493035"><ele>259.0</ele><time>2026-04-19T09:50:08.858Z</time></trkpt><trkpt lat="43.7371821" lon="12.4493968"><ele>258.6666666666667</ele><time>2026-04-19T09:50:09.848Z</time></trkpt><trkpt lat="43.7371868" lon="12.4495059"><ele>258.3333333333333</ele><time>2026-04-19T09:50:10.849Z</time></trkpt><trkpt lat="43.7371901" lon="12.4496272"><ele>258.0</ele><time>2026-04-19T09:50:11.842Z</time></trkpt><trkpt lat="43.7371971" lon="12.4497548"><ele>258.0</ele><time>2026-04-19T09:50:12.844Z</time></trkpt><trkpt lat="43.7372054" lon="12.4498875"><ele>258.0</ele><time>2026-04-19T09:50:13.84Z</time></trkpt><trkpt lat="43.7372128" lon="12.4500195"><ele>258.0</ele><time>2026-04-19T09:50:14.842Z</time></trkpt><trkpt lat="43.7372201" lon="12.4501497"><ele>258.0</ele><time>2026-04-19T09:50:15.849Z</time></trkpt><trkpt lat="43.7372255" lon="12.4502648"><ele>258.0</ele><time>2026-04-19T09:50:16.85Z</time></trkpt><trkpt lat="43.7372314" lon="12.4503638"><ele>258.0</ele><time>2026-04-19T09:50:17.863Z</time></trkpt><trkpt lat="43.7372511" lon="12.4505016"><ele>259.4</ele><time>2026-04-19T09:50:19.85Z</time></trkpt><trkpt lat="43.7373157" lon="12.4505544"><ele>260.8</ele><time>2026-04-19T09:50:21.847Z</time></trkpt><trkpt lat="43.7374184" lon="12.4505436"><ele>262.2</ele><time>2026-04-19T09:50:23.845Z</time></trkpt><trkpt lat="43.7375384" lon="12.4505208"><ele>263.6</ele><time>2026-04-19T09:50:25.846Z</time></trkpt><trkpt lat="43.7376275" lon="12.4505642"><ele>265.0</ele><time>2026-04-19T09:50:27.848Z</time></trkpt><trkpt lat="43.7377039" lon="12.4506421"><ele>264.4</ele><time>2026-04-19T09:50:29.844Z</time></trkpt><trkpt lat="43.7377831" lon="12.4507064"><ele>263.8</ele><time>2026-04-19T09:50:31.843Z</time></trkpt><trkpt lat="43.7378636" lon="12.4507297"><ele>263.2</ele><time>2026-04-19T09:50:34.799Z</time></trkpt><trkpt lat="43.7379469" lon="12.4507462"><ele>262.6</ele><time>2026-04-19T09:50:37.75Z</time></trkpt><trkpt lat="43.738005" lon="12.450661"><ele>262.0</ele><time>2026-04-19T09:50:39.855Z</time></trkpt><trkpt lat="43.7378801" lon="12.4506738"><ele>262.0</ele><time>2026-04-19T09:50:42.867Z</time></trkpt><trkpt lat="43.7377949" lon="12.4506989"><ele>262.0</ele><time>2026-04-19T09:50:45.867Z</time></trkpt><trkpt lat="43.7377315" lon="12.4506607"><ele>262.0</ele><time>2026-04-19T09:50:47.907Z</time></trkpt><trkpt lat="43.7376697" lon="12.4505975"><ele>262.0</ele><time>2026-04-19T09:50:50.853Z</time></trkpt><trkpt lat="43.7376242" lon="12.45053"><ele>262.0</ele><time>2026-04-19T09:50:53.847Z</time></trkpt><trkpt lat="43.7376844" lon="12.4504602"><ele>262.0</ele><time>2026-04-19T09:50:57.848Z</time></trkpt><trkpt lat="43.737755" lon="12.4504768"><ele>262.0</ele><time>2026-04-19T09:50:59.849Z</time></trkpt><trkpt lat="43.73782" lon="12.4504689"><ele>262.0</ele><time>2026-04-19T09:51:30.86Z</time></trkpt><trkpt lat="43.7379261" lon="12.4504651"><ele>262.0</ele><time>2026-04-19T09:51:31.856Z</time></trkpt><trkpt lat="43.7380291" lon="12.4504755"><ele>262.0</ele><time>2026-04-19T09:51:32.848Z</time></trkpt><trkpt lat="43.73813" lon="12.4505018"><ele>262.0</ele><time>2026-04-19T09:51:33.846Z</time></trkpt><trkpt lat="43.7382326" lon="12.4505329"><ele>262.0</ele><time>2026-04-19T09:51:34.847Z</time></trkpt><trkpt lat="43.7383369" lon="12.4505564"><ele>262.0</ele><time>2026-04-19T09:51:35.841Z</time></trkpt><trkpt lat="43.7384458" lon="12.4505627"><ele>262.0</ele><time>2026-04-19T09:51:36.84Z</time></trkpt><trkpt lat="43.7385627" lon="12.4505577"><ele>262.0</ele><time>2026-04-19T09:51:37.845Z</time></trkpt><trkpt lat="43.7386755" lon="12.450561"><ele>262.0</ele><time>2026-04-19T09:51:38.848Z</time></trkpt><trkpt lat="43.7387872" lon="12.4505694"><ele>262.0</ele><time>2026-04-19T09:51:39.847Z</time></trkpt><trkpt lat="43.7389226" lon="12.4506312"><ele>262.0</ele><time>2026-04-19T09:51:40.838Z</time></trkpt><trkpt lat="43.7390634" lon="12.4506983"><ele>262.0</ele><time>2026-04-19T09:51:41.839Z</time></trkpt><trkpt lat="43.7392081" lon="12.4507597"><ele>262.0</ele><time>2026-04-19T09:51:42.848Z</time></trkpt><trkpt lat="43.7393645" lon="12.4508194"><ele>261.3333333333333</ele><time>2026-04-19T09:51:43.843Z</time></trkpt><trkpt lat="43.7395364" lon="12.4508615"><ele>260.6666666666667</ele><time>2026-04-19T09:51:44.84Z</time></trkpt><trkpt lat="43.7396967" lon="12.4508932"><ele>260.0</ele><time>2026-04-19T09:51:45.841Z</time></trkpt><trkpt lat="43.7398377" lon="12.4509163"><ele>260.0</ele><time>2026-04-19T09:51:46.844Z</time></trkpt><trkpt lat="43.7399492" lon="12.4509528"><ele>260.0</ele><time>2026-04-19T09:51:47.845Z</time></trkpt><trkpt lat="43.7400506" lon="12.4510196"><ele>260.0</ele><time>2026-04-19T09:51:48.843Z</time></trkpt><trkpt lat="43.7401596" lon="12.4511202"><ele>260.0</ele><time>2026-04-19T09:51:49.845Z</time></trkpt><trkpt lat="43.7402948" lon="12.4512217"><ele>259.75</ele><time>2026-04-19T09:51:50.843Z</time></trkpt><trkpt lat="43.740432" lon="12.4513058"><ele>259.5</ele><time>2026-04-19T09:51:51.843Z</time></trkpt><trkpt lat="43.7405611" lon="12.4513533"><ele>259.25</ele><time>2026-04-19T09:51:52.846Z</time></trkpt><trkpt lat="43.7406709" lon="12.4513878"><ele>259.0</ele><time>2026-04-19T09:51:53.846Z</time></trkpt><trkpt lat="43.7407784" lon="12.4513831"><ele>259.0</ele><time>2026-04-19T09:51:54.837Z</time></trkpt><trkpt lat="43.7408768" lon="12.4513557"><ele>259.0</ele><time>2026-04-19T09:51:55.861Z</time></trkpt><trkpt lat="43.7409614" lon="12.4512704"><ele>259.0</ele><time>2026-04-19T09:51:56.842Z</time></trkpt><trkpt lat="43.7410237" lon="12.451217"><ele>259.0</ele><time>2026-04-19T09:51:57.841Z</time></trkpt><trkpt lat="43.7410901" lon="12.4512032"><ele>259.0</ele><time>2026-04-19T09:51:58.841Z</time></trkpt><trkpt lat="43.7411775" lon="12.4511973"><ele>259.0</ele><time>2026-04-19T09:51:59.845Z</time></trkpt><trkpt lat="43.7412919" lon="12.451209"><ele>258.5</ele><time>2026-04-19T09:52:00.856Z</time></trkpt><trkpt lat="43.7414131" lon="12.4512076"><ele>258.0</ele><time>2026-04-19T09:52:01.841Z</time></trkpt><trkpt lat="43.7415463" lon="12.4511935"><ele>257.5</ele><time>2026-04-19T09:52:02.849Z</time></trkpt><trkpt lat="43.7416685" lon="12.4511771"><ele>257.0</ele><time>2026-04-19T09:52:03.838Z</time></trkpt><trkpt lat="43.7417738" lon="12.4511702"><ele>257.0</ele><time>2026-04-19T09:52:04.845Z</time></trkpt><trkpt lat="43.7418904" lon="12.451201"><ele>257.0</ele><time>2026-04-19T09:52:05.844Z</time></trkpt><trkpt lat="43.7419966" lon="12.4512327"><ele>257.0</ele><time>2026-04-19T09:52:06.84Z</time></trkpt><trkpt lat="43.7420692" lon="12.451277"><ele>257.0</ele><time>2026-04-19T09:52:07.843Z</time></trkpt><trkpt lat="43.7421509" lon="12.4513144"><ele>257.0</ele><time>2026-04-19T09:52:09.844Z</time></trkpt><trkpt lat="43.7422174" lon="12.4513289"><ele>257.0</ele><time>2026-04-19T09:52:16.873Z</time></trkpt><trkpt lat="43.742286" lon="12.4513506"><ele>257.0</ele><time>2026-04-19T09:52:26.853Z</time></trkpt><trkpt lat="43.7421441" lon="12.451291"><ele>257.0</ele><time>2026-04-19T09:52:31.846Z</time></trkpt><trkpt lat="43.7420292" lon="12.4512549"><ele>257.0</ele><time>2026-04-19T09:52:32.886Z</time></trkpt><trkpt lat="43.741909" lon="12.451214"><ele>257.0</ele><time>2026-04-19T09:52:33.845Z</time></trkpt><trkpt lat="43.7417847" lon="12.4511763"><ele>257.0</ele><time>2026-04-19T09:52:34.846Z</time></trkpt><trkpt lat="43.7416714" lon="12.4511581"><ele>257.0</ele><time>2026-04-19T09:52:35.846Z</time></trkpt><trkpt lat="43.7415567" lon="12.45117"><ele>257.0</ele><time>2026-04-19T09:52:36.845Z</time></trkpt><trkpt lat="43.7414341" lon="12.4511934"><ele>257.0</ele><time>2026-04-19T09:52:37.869Z</time></trkpt><trkpt lat="43.741318" lon="12.4512051"><ele>257.0</ele><time>2026-04-19T09:52:38.85Z</time></trkpt><trkpt lat="43.7412088" lon="12.4511922"><ele>257.0</ele><time>2026-04-19T09:52:39.843Z</time></trkpt><trkpt lat="43.7411117" lon="12.4511792"><ele>257.0</ele><time>2026-04-19T09:52:40.839Z</time></trkpt><trkpt lat="43.7410356" lon="12.4511751"><ele>257.0</ele><time>2026-04-19T09:52:41.839Z</time></trkpt><trkpt lat="43.7409605" lon="12.4511944"><ele>257.0</ele><time>2026-04-19T09:52:42.845Z</time></trkpt><trkpt lat="43.7408643" lon="12.4512531"><ele>257.0</ele><time>2026-04-19T09:52:43.841Z</time></trkpt><trkpt lat="43.7407631" lon="12.4513255"><ele>257.0</ele><time>2026-04-19T09:52:44.843Z</time></trkpt><trkpt lat="43.7406714" lon="12.4513539"><ele>257.0</ele><time>2026-04-19T09:52:45.849Z</time></trkpt><trkpt lat="43.7405581" lon="12.4513352"><ele>257.0</ele><time>2026-04-19T09:52:46.837Z</time></trkpt><trkpt lat="43.7404362" lon="12.4512978"><ele>257.0</ele><time>2026-04-19T09:52:47.844Z</time></trkpt><trkpt lat="43.7403171" lon="12.4512278"><ele>257.0</ele><time>2026-04-19T09:52:48.838Z</time></trkpt><trkpt lat="43.7402009" lon="12.4511363"><ele>257.0</ele><time>2026-04-19T09:52:49.842Z</time></trkpt><trkpt lat="43.7400969" lon="12.4510345"><ele>257.0</ele><time>2026-04-19T09:52:50.847Z</time></trkpt><trkpt lat="43.7399977" lon="12.450955"><ele>257.75</ele><time>2026-04-19T09:52:51.854Z</time></trkpt><trkpt lat="43.7398979" lon="12.4508989"><ele>258.5</ele><time>2026-04-19T09:52:52.845Z</time></trkpt><trkpt lat="43.7397891" lon="12.4508563"><ele>259.25</ele><time>2026-04-19T09:52:53.844Z</time></trkpt><trkpt lat="43.7396501" lon="12.4508336"><ele>260.0</ele><time>2026-04-19T09:52:54.841Z</time></trkpt><trkpt lat="43.7394933" lon="12.4508153"><ele>260.5</ele><time>2026-04-19T09:52:55.84Z</time></trkpt><trkpt lat="43.7393308" lon="12.4507921"><ele>261.0</ele><time>2026-04-19T09:52:56.843Z</time></trkpt><trkpt lat="43.7391818" lon="12.4507635"><ele>261.5</ele><time>2026-04-19T09:52:57.845Z</time></trkpt><trkpt lat="43.7390539" lon="12.4507254"><ele>262.0</ele><time>2026-04-19T09:52:58.863Z</time></trkpt><trkpt lat="43.7389175" lon="12.4506679"><ele>262.0</ele><time>2026-04-19T09:52:59.843Z</time></trkpt><trkpt lat="43.7387919" lon="12.4506015"><ele>262.0</ele><time>2026-04-19T09:53:00.851Z</time></trkpt><trkpt lat="43.738686" lon="12.4505483"><ele>262.0</ele><time>2026-04-19T09:53:01.852Z</time></trkpt><trkpt lat="43.7385776" lon="12.4505188"><ele>262.0</ele><time>2026-04-19T09:53:02.848Z</time></trkpt><trkpt lat="43.7384551" lon="12.4505244"><ele>262.0</ele><time>2026-04-19T09:53:03.85Z</time></trkpt><trkpt lat="43.738326" lon="12.4505237"><ele>262.0</ele><time>2026-04-19T09:53:04.848Z</time></trkpt><trkpt lat="43.7381987" lon="12.4505109"><ele>262.0</ele><time>2026-04-19T09:53:05.846Z</time></trkpt><trkpt lat="43.7380731" lon="12.4504785"><ele>262.0</ele><time>2026-04-19T09:53:06.844Z</time></trkpt><trkpt lat="43.7379376" lon="12.4504592"><ele>262.0</ele><time>2026-04-19T09:53:07.862Z</time></trkpt><trkpt lat="43.7377979" lon="12.4504612"><ele>262.0</ele><time>2026-04-19T09:53:08.844Z</time></trkpt><trkpt lat="43.7376445" lon="12.4504829"><ele>262.0</ele><time>2026-04-19T09:53:09.851Z</time></trkpt><trkpt lat="43.7375093" lon="12.4505041"><ele>262.0</ele><time>2026-04-19T09:53:10.842Z</time></trkpt><trkpt lat="43.7374021" lon="12.4505236"><ele>262.6</ele><time>2026-04-19T09:53:11.841Z</time></trkpt><trkpt lat="43.7373271" lon="12.4505328"><ele>263.2</ele><time>2026-04-19T09:53:12.847Z</time></trkpt><trkpt lat="43.7372464" lon="12.4504814"><ele>263.8</ele><time>2026-04-19T09:53:14.851Z</time></trkpt><trkpt lat="43.7372171" lon="12.4503201"><ele>264.4</ele><time>2026-04-19T09:53:16.85Z</time></trkpt><trkpt lat="43.737218" lon="12.4501833"><ele>265.0</ele><time>2026-04-19T09:53:17.844Z</time></trkpt><trkpt lat="43.7372144" lon="12.4500263"><ele>263.6</ele><time>2026-04-19T09:53:18.847Z</time></trkpt><trkpt lat="43.737204" lon="12.4498675"><ele>262.2</ele><time>2026-04-19T09:53:19.84Z</time></trkpt><trkpt lat="43.7371914" lon="12.4497122"><ele>260.8</ele><time>2026-04-19T09:53:20.844Z</time></trkpt><trkpt lat="43.7371821" lon="12.449566"><ele>259.4</ele><time>2026-04-19T09:53:21.853Z</time></trkpt><trkpt lat="43.7371757" lon="12.4494372"><ele>258.0</ele><time>2026-04-19T09:53:22.849Z</time></trkpt><trkpt lat="43.7371667" lon="12.449316"><ele>257.99999999999994</ele><time>2026-04-19T09:53:23.856Z</time></trkpt><trkpt lat="43.7371441" lon="12.4492058"><ele>258.0</ele><time>2026-04-19T09:53:24.84Z</time></trkpt><trkpt lat="43.7371077" lon="12.4491151"><ele>258.0</ele><time>2026-04-19T09:53:25.842Z</time></trkpt><trkpt lat="43.7370561" lon="12.4490482"><ele>258.0</ele><time>2026-04-19T09:53:26.844Z</time></trkpt><trkpt lat="43.7370033" lon="12.4489938"><ele>258.0</ele><time>2026-04-19T09:53:27.847Z</time></trkpt><trkpt lat="43.7369475" lon="12.4489472"><ele>257.99999999999994</ele><time>2026-04-19T09:53:28.855Z</time></trkpt><trkpt lat="43.7368869" lon="12.4488948"><ele>258.0</ele><time>2026-04-19T09:53:29.841Z</time></trkpt><trkpt lat="43.7368193" lon="12.4488327"><ele>258.6</ele><time>2026-04-19T09:53:30.84Z</time></trkpt><trkpt lat="43.7367498" lon="12.4487665"><ele>259.20000000000005</ele><time>2026-04-19T09:53:31.842Z</time></trkpt><trkpt lat="43.7366784" lon="12.4486894"><ele>259.8</ele><time>2026-04-19T09:53:32.848Z</time></trkpt><trkpt lat="43.7366018" lon="12.4486055"><ele>260.40000000000003</ele><time>2026-04-19T09:53:33.842Z</time></trkpt><trkpt lat="43.7365237" lon="12.4484977"><ele>261.0</ele><time>2026-04-19T09:53:34.865Z</time></trkpt><trkpt lat="43.7364447" lon="12.4483705"><ele>261.0</ele><time>2026-04-19T09:53:35.85Z</time></trkpt><trkpt lat="43.7363589" lon="12.4482341"><ele>261.0</ele><time>2026-04-19T09:53:36.847Z</time></trkpt><trkpt lat="43.7362722" lon="12.4480835"><ele>261.0</ele><time>2026-04-19T09:53:37.842Z</time></trkpt><trkpt lat="43.7361802" lon="12.4479218"><ele>261.0</ele><time>2026-04-19T09:53:38.84Z</time></trkpt><trkpt lat="43.7360792" lon="12.4477552"><ele>261.0</ele><time>2026-04-19T09:53:39.851Z</time></trkpt><trkpt lat="43.7359701" lon="12.4475881"><ele>261.0</ele><time>2026-04-19T09:53:40.841Z</time></trkpt><trkpt lat="43.7358569" lon="12.4474236"><ele>261.0</ele><time>2026-04-19T09:53:41.846Z</time></trkpt><trkpt lat="43.7357471" lon="12.4472588"><ele>260.5</ele><time>2026-04-19T09:53:42.841Z</time></trkpt><trkpt lat="43.7356458" lon="12.4470922"><ele>260.0</ele><time>2026-04-19T09:53:43.854Z</time></trkpt><trkpt lat="43.7355535" lon="12.4469279"><ele>259.5</ele><time>2026-04-19T09:53:44.843Z</time></trkpt><trkpt lat="43.7354734" lon="12.4467676"><ele>259.0</ele><time>2026-04-19T09:53:45.845Z</time></trkpt><trkpt lat="43.7354104" lon="12.4466206"><ele>259.0</ele><time>2026-04-19T09:53:46.85Z</time></trkpt><trkpt lat="43.735364" lon="12.4464924"><ele>259.0</ele><time>2026-04-19T09:53:47.852Z</time></trkpt><trkpt lat="43.7353338" lon="12.4463892"><ele>259.0</ele><time>2026-04-19T09:53:48.846Z</time></trkpt><trkpt lat="43.7353193" lon="12.4463027"><ele>259.0</ele><time>2026-04-19T09:53:49.869Z</time></trkpt><trkpt lat="43.735343" lon="12.4461599"><ele>259.0</ele><time>2026-04-19T09:53:51.841Z</time></trkpt><trkpt lat="43.7353943" lon="12.446099"><ele>259.0</ele><time>2026-04-19T09:53:52.85Z</time></trkpt><trkpt lat="43.7354659" lon="12.4460527"><ele>260.3333333333333</ele><time>2026-04-19T09:53:53.855Z</time></trkpt><trkpt lat="43.7355485" lon="12.4460175"><ele>261.66666666666663</ele><time>2026-04-19T09:53:54.847Z</time></trkpt><trkpt lat="43.735631" lon="12.4459758"><ele>263.0</ele><time>2026-04-19T09:53:55.853Z</time></trkpt><trkpt lat="43.7357069" lon="12.4459232"><ele>264.3333333333333</ele><time>2026-04-19T09:53:56.842Z</time></trkpt><trkpt lat="43.7357753" lon="12.445871"><ele>265.6666666666667</ele><time>2026-04-19T09:53:57.844Z</time></trkpt><trkpt lat="43.7358365" lon="12.4458231"><ele>267.0</ele><time>2026-04-19T09:53:58.85Z</time></trkpt><trkpt lat="43.7358912" lon="12.4457796"><ele>267.0</ele><time>2026-04-19T09:53:59.848Z</time></trkpt><trkpt lat="43.7359835" lon="12.4457048"><ele>267.0</ele><time>2026-04-19T09:54:01.842Z</time></trkpt><trkpt lat="43.73605" lon="12.445647"><ele>267.0</ele><time>2026-04-19T09:54:03.842Z</time></trkpt><trkpt lat="43.7361251" lon="12.4455873"><ele>267.0</ele><time>2026-04-19T09:54:06.849Z</time></trkpt><trkpt lat="43.7361776" lon="12.4455391"><ele>267.0</ele><time>2026-04-19T09:54:27.853Z</time></trkpt><trkpt lat="43.7362953" lon="12.4454015"><ele>267.75</ele><time>2026-04-19T09:56:36.857Z</time></trkpt><trkpt lat="43.7363989" lon="12.4452896"><ele>268.5</ele><time>2026-04-19T09:56:37.85Z</time></trkpt><trkpt lat="43.736517" lon="12.4451863"><ele>269.25</ele><time>2026-04-19T09:56:38.849Z</time></trkpt><trkpt lat="43.7366434" lon="12.4450796"><ele>270.0</ele><time>2026-04-19T09:56:39.848Z</time></trkpt><trkpt lat="43.7367736" lon="12.4449673"><ele>268.6666666666667</ele><time>2026-04-19T09:56:40.85Z</time></trkpt><trkpt lat="43.7369042" lon="12.4448536"><ele>267.33333333333337</ele><time>2026-04-19T09:56:41.846Z</time></trkpt><trkpt lat="43.7370417" lon="12.4447439"><ele>266.0</ele><time>2026-04-19T09:56:42.844Z</time></trkpt><trkpt lat="43.7371893" lon="12.444643"><ele>269.0</ele><time>2026-04-19T09:56:43.865Z</time></trkpt><trkpt lat="43.7373448" lon="12.444557"><ele>272.0</ele><time>2026-04-19T09:56:44.849Z</time></trkpt><trkpt lat="43.737509" lon="12.4444838"><ele>275.0</ele><time>2026-04-19T09:56:45.853Z</time></trkpt><trkpt lat="43.7376764" lon="12.4444249"><ele>275.0</ele><time>2026-04-19T09:56:46.848Z</time></trkpt><trkpt lat="43.7378462" lon="12.4443821"><ele>275.0</ele><time>2026-04-19T09:56:47.848Z</time></trkpt><trkpt lat="43.738018" lon="12.4443611"><ele>275.0</ele><time>2026-04-19T09:56:48.846Z</time></trkpt><trkpt lat="43.7381931" lon="12.4443582"><ele>275.0</ele><time>2026-04-19T09:56:49.845Z</time></trkpt><trkpt lat="43.7383704" lon="12.4443698"><ele>275.0</ele><time>2026-04-19T09:56:50.848Z</time></trkpt><trkpt lat="43.7385446" lon="12.4443962"><ele>275.0</ele><time>2026-04-19T09:56:51.848Z</time></trkpt><trkpt lat="43.7387123" lon="12.4444385"><ele>276.6666666666667</ele><time>2026-04-19T09:56:52.847Z</time></trkpt><trkpt lat="43.7388743" lon="12.4444962"><ele>278.3333333333333</ele><time>2026-04-19T09:56:53.849Z</time></trkpt><trkpt lat="43.7390325" lon="12.4445701"><ele>280.0</ele><time>2026-04-19T09:56:54.861Z</time></trkpt><trkpt lat="43.7391861" lon="12.444657"><ele>279.3333333333333</ele><time>2026-04-19T09:56:55.846Z</time></trkpt><trkpt lat="43.7393385" lon="12.4447564"><ele>278.6666666666667</ele><time>2026-04-19T09:56:56.851Z</time></trkpt><trkpt lat="43.7394887" lon="12.4448661"><ele>278.0</ele><time>2026-04-19T09:56:57.849Z</time></trkpt><trkpt lat="43.7396387" lon="12.4449847"><ele>278.0</ele><time>2026-04-19T09:56:58.847Z</time></trkpt><trkpt lat="43.7397925" lon="12.4451198"><ele>278.0</ele><time>2026-04-19T09:56:59.87Z</time></trkpt><trkpt lat="43.7399518" lon="12.4452603"><ele>278.0</ele><time>2026-04-19T09:57:00.848Z</time></trkpt><trkpt lat="43.7401199" lon="12.4454134"><ele>277.6666666666667</ele><time>2026-04-19T09:57:01.849Z</time></trkpt><trkpt lat="43.7402855" lon="12.4455715"><ele>277.3333333333333</ele><time>2026-04-19T09:57:02.848Z</time></trkpt><trkpt lat="43.7404504" lon="12.4457287"><ele>277.0</ele><time>2026-04-19T09:57:03.852Z</time></trkpt><trkpt lat="43.7406134" lon="12.4458875"><ele>277.0</ele><time>2026-04-19T09:57:04.846Z</time></trkpt><trkpt lat="43.7407773" lon="12.4460511"><ele>277.0</ele><time>2026-04-19T09:57:05.848Z</time></trkpt><trkpt lat="43.7409464" lon="12.4462157"><ele>277.0</ele><time>2026-04-19T09:57:06.851Z</time></trkpt><trkpt lat="43.7411208" lon="12.4463797"><ele>276.0</ele><time>2026-04-19T09:57:07.85Z</time></trkpt><trkpt lat="43.7412994" lon="12.4465456"><ele>275.0</ele><time>2026-04-19T09:57:08.845Z</time></trkpt><trkpt lat="43.7414809" lon="12.4467141"><ele>274.0</ele><time>2026-04-19T09:57:09.845Z</time></trkpt><trkpt lat="43.7416621" lon="12.4468843"><ele>274.0</ele><time>2026-04-19T09:57:10.848Z</time></trkpt><trkpt lat="43.7418427" lon="12.4470511"><ele>274.0</ele><time>2026-04-19T09:57:11.841Z</time></trkpt><trkpt lat="43.7420232" lon="12.4472125"><ele>274.0</ele><time>2026-04-19T09:57:12.859Z</time></trkpt><trkpt lat="43.7421987" lon="12.4473608"><ele>275.66666666666663</ele><time>2026-04-19T09:57:13.846Z</time></trkpt><trkpt lat="43.7423743" lon="12.4474942"><ele>277.3333333333333</ele><time>2026-04-19T09:57:14.848Z</time></trkpt><trkpt lat="43.7425513" lon="12.447609"><ele>279.0</ele><time>2026-04-19T09:57:15.846Z</time></trkpt><trkpt lat="43.742733" lon="12.447706"><ele>279.0</ele><time>2026-04-19T09:57:16.85Z</time></trkpt><trkpt lat="43.7429187" lon="12.4477866"><ele>279.0</ele><time>2026-04-19T09:57:17.848Z</time></trkpt><trkpt lat="43.743111" lon="12.4478487"><ele>279.0</ele><time>2026-04-19T09:57:18.846Z</time></trkpt><trkpt lat="43.7433097" lon="12.4478896"><ele>279.0</ele><time>2026-04-19T09:57:19.845Z</time></trkpt><trkpt lat="43.7435128" lon="12.4479125"><ele>279.0</ele><time>2026-04-19T09:57:20.852Z</time></trkpt><trkpt lat="43.7437172" lon="12.4479227"><ele>279.0</ele><time>2026-04-19T09:57:21.849Z</time></trkpt><trkpt lat="43.7439236" lon="12.4479241"><ele>280.3333333333333</ele><time>2026-04-19T09:57:22.846Z</time></trkpt><trkpt lat="43.7441311" lon="12.4479194"><ele>281.66666666666663</ele><time>2026-04-19T09:57:23.852Z</time></trkpt><trkpt lat="43.7443371" lon="12.4479123"><ele>283.0</ele><time>2026-04-19T09:57:24.845Z</time></trkpt><trkpt lat="43.7445433" lon="12.4479029"><ele>284.66666666666663</ele><time>2026-04-19T09:57:25.854Z</time></trkpt><trkpt lat="43.7447468" lon="12.4478916"><ele>286.3333333333333</ele><time>2026-04-19T09:57:26.846Z</time></trkpt><trkpt lat="43.7449527" lon="12.4478764"><ele>288.0</ele><time>2026-04-19T09:57:27.874Z</time></trkpt><trkpt lat="43.745154" lon="12.4478579"><ele>289.0</ele><time>2026-04-19T09:57:28.847Z</time></trkpt><trkpt lat="43.7453586" lon="12.4478389"><ele>290.0</ele><time>2026-04-19T09:57:29.849Z</time></trkpt><trkpt lat="43.7455626" lon="12.4478232"><ele>291.0</ele><time>2026-04-19T09:57:30.849Z</time></trkpt><trkpt lat="43.7457676" lon="12.4478139"><ele>291.0</ele><time>2026-04-19T09:57:31.851Z</time></trkpt><trkpt lat="43.7459722" lon="12.4478103"><ele>291.0</ele><time>2026-04-19T09:57:32.847Z</time></trkpt><trkpt lat="43.7461782" lon="12.4478087"><ele>291.0</ele><time>2026-04-19T09:57:33.847Z</time></trkpt><trkpt lat="43.7463862" lon="12.4478059"><ele>290.0</ele><time>2026-04-19T09:57:34.862Z</time></trkpt><trkpt lat="43.7465924" lon="12.4478023"><ele>289.0</ele><time>2026-04-19T09:57:35.845Z</time></trkpt><trkpt lat="43.7468009" lon="12.4477988"><ele>288.0</ele><time>2026-04-19T09:57:36.853Z</time></trkpt><trkpt lat="43.7470081" lon="12.4477984"><ele>288.0</ele><time>2026-04-19T09:57:37.85Z</time></trkpt><trkpt lat="43.7472144" lon="12.4478038"><ele>288.0</ele><time>2026-04-19T09:57:38.848Z</time></trkpt><trkpt lat="43.7474183" lon="12.4478183"><ele>288.0</ele><time>2026-04-19T09:57:39.847Z</time></trkpt><trkpt lat="43.7476201" lon="12.4478479"><ele>288.0</ele><time>2026-04-19T09:57:40.852Z</time></trkpt><trkpt lat="43.7478184" lon="12.4478947"><ele>288.0</ele><time>2026-04-19T09:57:41.849Z</time></trkpt><trkpt lat="43.7480138" lon="12.4479602"><ele>288.0</ele><time>2026-04-19T09:57:42.847Z</time></trkpt><trkpt lat="43.7482066" lon="12.4480407"><ele>286.0</ele><time>2026-04-19T09:57:43.855Z</time></trkpt><trkpt lat="43.7483955" lon="12.4481331"><ele>284.0</ele><time>2026-04-19T09:57:44.856Z</time></trkpt><trkpt lat="43.7485815" lon="12.4482331"><ele>282.0</ele><time>2026-04-19T09:57:45.875Z</time></trkpt><trkpt lat="43.7487623" lon="12.4483334"><ele>281.6666666666667</ele><time>2026-04-19T09:57:46.854Z</time></trkpt><trkpt lat="43.7489434" lon="12.4484353"><ele>281.33333333333337</ele><time>2026-04-19T09:57:47.85Z</time></trkpt><trkpt lat="43.7491176" lon="12.4485363"><ele>281.0</ele><time>2026-04-19T09:57:48.853Z</time></trkpt><trkpt lat="43.7492811" lon="12.4486324"><ele>281.5</ele><time>2026-04-19T09:57:49.851Z</time></trkpt><trkpt lat="43.7494373" lon="12.4487218"><ele>282.0</ele><time>2026-04-19T09:57:50.852Z</time></trkpt><trkpt lat="43.74957" lon="12.4487991"><ele>282.5</ele><time>2026-04-19T09:57:51.853Z</time></trkpt><trkpt lat="43.7496856" lon="12.4488671"><ele>283.0</ele><time>2026-04-19T09:57:52.842Z</time></trkpt><trkpt lat="43.7497938" lon="12.448929"><ele>281.75</ele><time>2026-04-19T09:57:53.849Z</time></trkpt><trkpt lat="43.7498989" lon="12.4489866"><ele>280.5</ele><time>2026-04-19T09:57:54.851Z</time></trkpt><trkpt lat="43.7500036" lon="12.4490394"><ele>279.25</ele><time>2026-04-19T09:57:55.85Z</time></trkpt><trkpt lat="43.7501163" lon="12.4490867"><ele>278.0</ele><time>2026-04-19T09:57:56.848Z</time></trkpt><trkpt lat="43.7502394" lon="12.449128"><ele>278.0</ele><time>2026-04-19T09:57:57.847Z</time></trkpt><trkpt lat="43.7503697" lon="12.4491619"><ele>278.0</ele><time>2026-04-19T09:57:58.844Z</time></trkpt><trkpt lat="43.7504965" lon="12.4491901"><ele>278.0</ele><time>2026-04-19T09:57:59.851Z</time></trkpt><trkpt lat="43.7506103" lon="12.4492142"><ele>278.0</ele><time>2026-04-19T09:58:00.844Z</time></trkpt><trkpt lat="43.7507117" lon="12.4492346"><ele>278.0</ele><time>2026-04-19T09:58:01.85Z</time></trkpt><trkpt lat="43.7508002" lon="12.4492492"><ele>278.0</ele><time>2026-04-19T09:58:02.852Z</time></trkpt><trkpt lat="43.7508736" lon="12.4492602"><ele>278.0</ele><time>2026-04-19T09:58:03.849Z</time></trkpt><trkpt lat="43.7509651" lon="12.4493053"><ele>278.0</ele><time>2026-04-19T09:58:05.864Z</time></trkpt><trkpt lat="43.7509834" lon="12.4494223"><ele>278.0</ele><time>2026-04-19T09:58:07.857Z</time></trkpt><trkpt lat="43.750957" lon="12.4495519"><ele>278.0</ele><time>2026-04-19T09:58:08.858Z</time></trkpt><trkpt lat="43.7509181" lon="12.4497098"><ele>277.5</ele><time>2026-04-19T09:58:09.85Z</time></trkpt><trkpt lat="43.7508728" lon="12.4498688"><ele>277.0</ele><time>2026-04-19T09:58:10.847Z</time></trkpt><trkpt lat="43.7508259" lon="12.4500213"><ele>276.5</ele><time>2026-04-19T09:58:11.852Z</time></trkpt><trkpt lat="43.7507806" lon="12.4501673"><ele>276.0</ele><time>2026-04-19T09:58:12.845Z</time></trkpt><trkpt lat="43.7507304" lon="12.4502943"><ele>276.0</ele><time>2026-04-19T09:58:13.848Z</time></trkpt><trkpt lat="43.7506755" lon="12.4504048"><ele>276.0</ele><time>2026-04-19T09:58:14.853Z</time></trkpt><trkpt lat="43.7506092" lon="12.450506"><ele>276.0</ele><time>2026-04-19T09:58:15.852Z</time></trkpt><trkpt lat="43.750527" lon="12.4506007"><ele>276.0</ele><time>2026-04-19T09:58:16.863Z</time></trkpt><trkpt lat="43.750425" lon="12.4506931"><ele>276.0</ele><time>2026-04-19T09:58:17.85Z</time></trkpt><trkpt lat="43.7503139" lon="12.4507858"><ele>275.40000000000003</ele><time>2026-04-19T09:58:18.847Z</time></trkpt><trkpt lat="43.7502133" lon="12.450873"><ele>274.8</ele><time>2026-04-19T09:58:19.85Z</time></trkpt><trkpt lat="43.750128" lon="12.4509552"><ele>274.20000000000005</ele><time>2026-04-19T09:58:20.85Z</time></trkpt><trkpt lat="43.7500542" lon="12.4510335"><ele>273.6</ele><time>2026-04-19T09:58:21.845Z</time></trkpt><trkpt lat="43.7499864" lon="12.4511094"><ele>273.0</ele><time>2026-04-19T09:58:22.85Z</time></trkpt><trkpt lat="43.749924" lon="12.4511831"><ele>273.0</ele><time>2026-04-19T09:58:23.847Z</time></trkpt><trkpt lat="43.7498664" lon="12.4512558"><ele>273.0</ele><time>2026-04-19T09:58:24.847Z</time></trkpt><trkpt lat="43.7498148" lon="12.4513283"><ele>273.0</ele><time>2026-04-19T09:58:25.85Z</time></trkpt><trkpt lat="43.7497721" lon="12.4514005"><ele>273.0</ele><time>2026-04-19T09:58:26.845Z</time></trkpt><trkpt lat="43.749738" lon="12.4514754"><ele>273.0</ele><time>2026-04-19T09:58:27.865Z</time></trkpt><trkpt lat="43.7497096" lon="12.451555"><ele>273.0</ele><time>2026-04-19T09:58:28.85Z</time></trkpt><trkpt lat="43.7496827" lon="12.4516352"><ele>273.0</ele><time>2026-04-19T09:58:29.849Z</time></trkpt><trkpt lat="43.7496433" lon="12.4517314"><ele>269.25</ele><time>2026-04-19T09:58:30.856Z</time></trkpt><trkpt lat="43.7495884" lon="12.4518423"><ele>265.5</ele><time>2026-04-19T09:58:31.854Z</time></trkpt><trkpt lat="43.7495296" lon="12.4519717"><ele>261.75</ele><time>2026-04-19T09:58:32.845Z</time></trkpt><trkpt lat="43.7494763" lon="12.4521241"><ele>258.0</ele><time>2026-04-19T09:58:33.859Z</time></trkpt><trkpt lat="43.7494329" lon="12.4522795"><ele>255.75</ele><time>2026-04-19T09:58:34.849Z</time></trkpt><trkpt lat="43.7494132" lon="12.4524397"><ele>253.5</ele><time>2026-04-19T09:58:35.846Z</time></trkpt><trkpt lat="43.7494046" lon="12.452605"><ele>251.25</ele><time>2026-04-19T09:58:36.848Z</time></trkpt><trkpt lat="43.7494039" lon="12.4527685"><ele>249.0</ele><time>2026-04-19T09:58:37.845Z</time></trkpt><trkpt lat="43.7493993" lon="12.4529306"><ele>248.6</ele><time>2026-04-19T09:58:38.86Z</time></trkpt><trkpt lat="43.7493916" lon="12.4530866"><ele>248.2</ele><time>2026-04-19T09:58:39.849Z</time></trkpt><trkpt lat="43.7493954" lon="12.4532324"><ele>247.79999999999998</ele><time>2026-04-19T09:58:40.849Z</time></trkpt><trkpt lat="43.7494169" lon="12.4533605"><ele>247.39999999999998</ele><time>2026-04-19T09:58:41.852Z</time></trkpt><trkpt lat="43.7494689" lon="12.4534817"><ele>247.0</ele><time>2026-04-19T09:58:42.849Z</time></trkpt><trkpt lat="43.7495667" lon="12.4535829"><ele>247.0</ele><time>2026-04-19T09:58:43.85Z</time></trkpt><trkpt lat="43.7496891" lon="12.453662"><ele>247.0</ele><time>2026-04-19T09:58:44.844Z</time></trkpt><trkpt lat="43.7498185" lon="12.453723"><ele>247.0</ele><time>2026-04-19T09:58:45.861Z</time></trkpt><trkpt lat="43.7499505" lon="12.4537562"><ele>247.0</ele><time>2026-04-19T09:58:46.846Z</time></trkpt><trkpt lat="43.7500944" lon="12.4537695"><ele>247.0</ele><time>2026-04-19T09:58:47.849Z</time></trkpt><trkpt lat="43.7502573" lon="12.4537662"><ele>247.0</ele><time>2026-04-19T09:58:48.849Z</time></trkpt><trkpt lat="43.750429" lon="12.4537557"><ele>247.0</ele><time>2026-04-19T09:58:49.846Z</time></trkpt><trkpt lat="43.7505976" lon="12.4537473"><ele>247.0</ele><time>2026-04-19T09:58:50.844Z</time></trkpt><trkpt lat="43.7507526" lon="12.4537456"><ele>247.0</ele><time>2026-04-19T09:58:51.855Z</time></trkpt><trkpt lat="43.750892" lon="12.4537488"><ele>247.0</ele><time>2026-04-19T09:58:52.851Z</time></trkpt><trkpt lat="43.7510279" lon="12.4537699"><ele>247.0</ele><time>2026-04-19T09:58:53.862Z</time></trkpt><trkpt lat="43.751166" lon="12.4538106"><ele>247.75</ele><time>2026-04-19T09:58:54.849Z</time></trkpt><trkpt lat="43.7513074" lon="12.4538633"><ele>248.5</ele><time>2026-04-19T09:58:55.848Z</time></trkpt><trkpt lat="43.7514423" lon="12.4539167"><ele>249.25</ele><time>2026-04-19T09:58:56.846Z</time></trkpt><trkpt lat="43.7515539" lon="12.4539619"><ele>250.0</ele><time>2026-04-19T09:58:57.852Z</time></trkpt><trkpt lat="43.7516425" lon="12.4540148"><ele>250.0</ele><time>2026-04-19T09:58:58.849Z</time></trkpt><trkpt lat="43.7517181" lon="12.4540847"><ele>250.0</ele><time>2026-04-19T09:58:59.871Z</time></trkpt><trkpt lat="43.7517848" lon="12.4541768"><ele>250.0</ele><time>2026-04-19T09:59:00.847Z</time></trkpt><trkpt lat="43.751836" lon="12.4543048"><ele>250.0</ele><time>2026-04-19T09:59:01.845Z</time></trkpt><trkpt lat="43.7518832" lon="12.4544627"><ele>250.0</ele><time>2026-04-19T09:59:02.847Z</time></trkpt><trkpt lat="43.7519191" lon="12.4546293"><ele>252.25</ele><time>2026-04-19T09:59:03.848Z</time></trkpt><trkpt lat="43.7519401" lon="12.4547908"><ele>254.5</ele><time>2026-04-19T09:59:04.845Z</time></trkpt><trkpt lat="43.7519616" lon="12.4549577"><ele>256.75</ele><time>2026-04-19T09:59:05.855Z</time></trkpt><trkpt lat="43.751971" lon="12.4551257"><ele>259.0</ele><time>2026-04-19T09:59:06.85Z</time></trkpt><trkpt lat="43.7519856" lon="12.4552867"><ele>259.0</ele><time>2026-04-19T09:59:07.849Z</time></trkpt><trkpt lat="43.7520308" lon="12.4554417"><ele>259.0</ele><time>2026-04-19T09:59:08.849Z</time></trkpt><trkpt lat="43.7520839" lon="12.4555758"><ele>259.0</ele><time>2026-04-19T09:59:09.845Z</time></trkpt><trkpt lat="43.7521338" lon="12.4556912"><ele>259.0</ele><time>2026-04-19T09:59:10.868Z</time></trkpt><trkpt lat="43.7521575" lon="12.4558235"><ele>259.0</ele><time>2026-04-19T09:59:11.845Z</time></trkpt><trkpt lat="43.7521642" lon="12.4559891"><ele>260.8</ele><time>2026-04-19T09:59:12.853Z</time></trkpt><trkpt lat="43.7521631" lon="12.4561222"><ele>262.59999999999997</ele><time>2026-04-19T09:59:13.847Z</time></trkpt><trkpt lat="43.7521499" lon="12.4562262"><ele>264.4</ele><time>2026-04-19T09:59:14.846Z</time></trkpt><trkpt lat="43.7520381" lon="12.4563281"><ele>266.2</ele><time>2026-04-19T09:59:16.858Z</time></trkpt><trkpt lat="43.7519568" lon="12.4563817"><ele>268.0</ele><time>2026-04-19T09:59:17.854Z</time></trkpt><trkpt lat="43.7518753" lon="12.4564735"><ele>270.0</ele><time>2026-04-19T09:59:18.844Z</time></trkpt><trkpt lat="43.7517967" lon="12.4566063"><ele>272.0</ele><time>2026-04-19T09:59:19.863Z</time></trkpt><trkpt lat="43.7517348" lon="12.4567614"><ele>274.0</ele><time>2026-04-19T09:59:20.846Z</time></trkpt><trkpt lat="43.7516811" lon="12.4569087"><ele>276.0</ele><time>2026-04-19T09:59:21.853Z</time></trkpt><trkpt lat="43.7516537" lon="12.4570346"><ele>278.6</ele><time>2026-04-19T09:59:22.849Z</time></trkpt><trkpt lat="43.7516568" lon="12.457129"><ele>281.20000000000005</ele><time>2026-04-19T09:59:23.85Z</time></trkpt><trkpt lat="43.7516884" lon="12.4572284"><ele>283.79999999999995</ele><time>2026-04-19T09:59:24.848Z</time></trkpt><trkpt lat="43.7517583" lon="12.4573167"><ele>286.4</ele><time>2026-04-19T09:59:25.848Z</time></trkpt><trkpt lat="43.7518436" lon="12.4574137"><ele>289.0</ele><time>2026-04-19T09:59:26.852Z</time></trkpt><trkpt lat="43.7519262" lon="12.4575159"><ele>289.25</ele><time>2026-04-19T09:59:27.846Z</time></trkpt><trkpt lat="43.7519848" lon="12.4576304"><ele>289.5</ele><time>2026-04-19T09:59:28.842Z</time></trkpt><trkpt lat="43.7520346" lon="12.4577714"><ele>289.75</ele><time>2026-04-19T09:59:29.849Z</time></trkpt><trkpt lat="43.7520976" lon="12.4579285"><ele>290.0</ele><time>2026-04-19T09:59:30.854Z</time></trkpt><trkpt lat="43.7521675" lon="12.4580681"><ele>291.75</ele><time>2026-04-19T09:59:31.851Z</time></trkpt><trkpt lat="43.7522189" lon="12.4582306"><ele>293.5</ele><time>2026-04-19T09:59:32.849Z</time></trkpt><trkpt lat="43.7522644" lon="12.4583967"><ele>295.25</ele><time>2026-04-19T09:59:33.848Z</time></trkpt><trkpt lat="43.752293" lon="12.4585581"><ele>297.0</ele><time>2026-04-19T09:59:34.859Z</time></trkpt><trkpt lat="43.7523016" lon="12.4587142"><ele>299.75</ele><time>2026-04-19T09:59:35.848Z</time></trkpt><trkpt lat="43.7523071" lon="12.4588683"><ele>302.5</ele><time>2026-04-19T09:59:36.845Z</time></trkpt><trkpt lat="43.7523267" lon="12.4590278"><ele>305.25</ele><time>2026-04-19T09:59:37.848Z</time></trkpt><trkpt lat="43.7523682" lon="12.459194"><ele>308.0</ele><time>2026-04-19T09:59:38.843Z</time></trkpt><trkpt lat="43.7524247" lon="12.4593701"><ele>308.0</ele><time>2026-04-19T09:59:39.862Z</time></trkpt><trkpt lat="43.7524808" lon="12.4595366"><ele>308.0</ele><time>2026-04-19T09:59:40.85Z</time></trkpt><trkpt lat="43.752531" lon="12.4596694"><ele>308.0</ele><time>2026-04-19T09:59:41.849Z</time></trkpt><trkpt lat="43.7525637" lon="12.4597539"><ele>308.0</ele><time>2026-04-19T09:59:42.843Z</time></trkpt><trkpt lat="43.7526029" lon="12.4598448"><ele>308.0</ele><time>2026-04-19T09:59:44.858Z</time></trkpt><trkpt lat="43.7527131" lon="12.4598348"><ele>309.5</ele><time>2026-04-19T09:59:47.854Z</time></trkpt><trkpt lat="43.7528188" lon="12.4597694"><ele>311.0</ele><time>2026-04-19T09:59:49.849Z</time></trkpt><trkpt lat="43.752884" lon="12.4597541"><ele>312.5</ele><time>2026-04-19T09:59:50.848Z</time></trkpt><trkpt lat="43.7529626" lon="12.4597532"><ele>314.0</ele><time>2026-04-19T09:59:51.845Z</time></trkpt><trkpt lat="43.7530413" lon="12.4597546"><ele>315.5</ele><time>2026-04-19T09:59:52.867Z</time></trkpt><trkpt lat="43.7531118" lon="12.4597619"><ele>317.0</ele><time>2026-04-19T09:59:53.845Z</time></trkpt><trkpt lat="43.753187" lon="12.4597741"><ele>317.0</ele><time>2026-04-19T09:59:54.842Z</time></trkpt><trkpt lat="43.7532548" lon="12.4597926"><ele>317.0</ele><time>2026-04-19T09:59:55.848Z</time></trkpt><trkpt lat="43.7533206" lon="12.459815"><ele>317.0</ele><time>2026-04-19T09:59:56.845Z</time></trkpt><trkpt lat="43.7533817" lon="12.4598398"><ele>317.0</ele><time>2026-04-19T09:59:57.851Z</time></trkpt><trkpt lat="43.7534494" lon="12.4598424"><ele>317.0</ele><time>2026-04-19T09:59:58.85Z</time></trkpt><trkpt lat="43.7535231" lon="12.4598316"><ele>317.0</ele><time>2026-04-19T09:59:59.858Z</time></trkpt><trkpt lat="43.7536084" lon="12.4597918"><ele>317.0</ele><time>2026-04-19T10:00:00.848Z</time></trkpt><trkpt lat="43.753677" lon="12.459749"><ele>320.0</ele><time>2026-04-19T10:00:01.848Z</time></trkpt><trkpt lat="43.7537356" lon="12.4597114"><ele>323.0</ele><time>2026-04-19T10:00:02.845Z</time></trkpt><trkpt lat="43.7537868" lon="12.4596579"><ele>326.0</ele><time>2026-04-19T10:00:03.845Z</time></trkpt><trkpt lat="43.7538351" lon="12.4595908"><ele>329.0</ele><time>2026-04-19T10:00:04.846Z</time></trkpt><trkpt lat="43.7538827" lon="12.4594451"><ele>332.0</ele><time>2026-04-19T10:00:06.846Z</time></trkpt><trkpt lat="43.7538712" lon="12.4592948"><ele>335.0</ele><time>2026-04-19T10:00:08.849Z</time></trkpt><trkpt lat="43.75386" lon="12.4591469"><ele>335.5</ele><time>2026-04-19T10:00:10.855Z</time></trkpt><trkpt lat="43.7538595" lon="12.4590534"><ele>336.0</ele><time>2026-04-19T10:00:11.843Z</time></trkpt><trkpt lat="43.7538658" lon="12.4589486"><ele>336.5</ele><time>2026-04-19T10:00:12.845Z</time></trkpt><trkpt lat="43.7538765" lon="12.4588486"><ele>337.0</ele><time>2026-04-19T10:00:13.847Z</time></trkpt><trkpt lat="43.7538989" lon="12.4587515"><ele>337.5</ele><time>2026-04-19T10:00:14.853Z</time></trkpt><trkpt lat="43.7539195" lon="12.458657"><ele>338.0</ele><time>2026-04-19T10:00:15.857Z</time></trkpt><trkpt lat="43.7539608" lon="12.4585276"><ele>338.42857142857144</ele><time>2026-04-19T10:00:17.844Z</time></trkpt><trkpt lat="43.7539724" lon="12.4584203"><ele>338.85714285714283</ele><time>2026-04-19T10:00:19.859Z</time></trkpt><trkpt lat="43.7539594" lon="12.4583327"><ele>339.2857142857143</ele><time>2026-04-19T10:00:20.851Z</time></trkpt><trkpt lat="43.7539404" lon="12.4582422"><ele>339.7142857142857</ele><time>2026-04-19T10:00:21.854Z</time></trkpt><trkpt lat="43.7539159" lon="12.4581486"><ele>340.14285714285717</ele><time>2026-04-19T10:00:22.851Z</time></trkpt><trkpt lat="43.7538885" lon="12.4580545"><ele>340.57142857142856</ele><time>2026-04-19T10:00:23.856Z</time></trkpt><trkpt lat="43.753867" lon="12.4579461"><ele>341.0</ele><time>2026-04-19T10:00:24.857Z</time></trkpt><trkpt lat="43.7538492" lon="12.457839"><ele>341.0</ele><time>2026-04-19T10:00:25.853Z</time></trkpt><trkpt lat="43.7538859" lon="12.4577265"><ele>341.0</ele><time>2026-04-19T10:00:27.853Z</time></trkpt><trkpt lat="43.7539827" lon="12.4577616"><ele>341.0</ele><time>2026-04-19T10:00:29.864Z</time></trkpt><trkpt lat="43.7540521" lon="12.4578098"><ele>341.0</ele><time>2026-04-19T10:00:31.926Z</time></trkpt><trkpt lat="43.7541291" lon="12.4579237"><ele>341.0</ele><time>2026-04-19T10:00:33.853Z</time></trkpt><trkpt lat="43.7541994" lon="12.4580022"><ele>341.0</ele><time>2026-04-19T10:00:34.853Z</time></trkpt><trkpt lat="43.7542752" lon="12.458084"><ele>341.0</ele><time>2026-04-19T10:00:35.849Z</time></trkpt><trkpt lat="43.7543366" lon="12.4581534"><ele>341.0</ele><time>2026-04-19T10:00:36.849Z</time></trkpt><trkpt lat="43.7543995" lon="12.4582277"><ele>341.0</ele><time>2026-04-19T10:00:37.851Z</time></trkpt><trkpt lat="43.7544551" lon="12.4583132"><ele>341.0</ele><time>2026-04-19T10:00:38.855Z</time></trkpt><trkpt lat="43.7545123" lon="12.4584369"><ele>341.0</ele><time>2026-04-19T10:00:40.862Z</time></trkpt><trkpt lat="43.7545771" lon="12.4585959"><ele>342.33333333333337</ele><time>2026-04-19T10:00:42.846Z</time></trkpt><trkpt lat="43.754618" lon="12.4586985"><ele>343.6666666666667</ele><time>2026-04-19T10:00:43.853Z</time></trkpt><trkpt lat="43.7546502" lon="12.458798"><ele>345.0</ele><time>2026-04-19T10:00:44.844Z</time></trkpt><trkpt lat="43.7546879" lon="12.4589068"><ele>346.3333333333333</ele><time>2026-04-19T10:00:45.879Z</time></trkpt><trkpt lat="43.754726" lon="12.4589847"><ele>347.66666666666663</ele><time>2026-04-19T10:00:46.847Z</time></trkpt><trkpt lat="43.75477" lon="12.4590535"><ele>349.0</ele><time>2026-04-19T10:00:48.851Z</time></trkpt><trkpt lat="43.7548544" lon="12.4592414"><ele>347.79999999999995</ele><time>2026-04-19T10:00:58.848Z</time></trkpt><trkpt lat="43.7550047" lon="12.4593593"><ele>346.59999999999997</ele><time>2026-04-19T10:01:02.853Z</time></trkpt><trkpt lat="43.7550736" lon="12.4594088"><ele>345.4</ele><time>2026-04-19T10:01:03.847Z</time></trkpt><trkpt lat="43.7551507" lon="12.4594919"><ele>344.2</ele><time>2026-04-19T10:01:06.855Z</time></trkpt><trkpt lat="43.7552044" lon="12.4595535"><ele>343.0</ele><time>2026-04-19T10:01:07.851Z</time></trkpt><trkpt lat="43.7552939" lon="12.4596441"><ele>346.79999999999995</ele><time>2026-04-19T10:01:08.853Z</time></trkpt><trkpt lat="43.7553866" lon="12.4597335"><ele>350.6</ele><time>2026-04-19T10:01:09.849Z</time></trkpt><trkpt lat="43.7554681" lon="12.4598148"><ele>354.4</ele><time>2026-04-19T10:01:10.853Z</time></trkpt><trkpt lat="43.7555323" lon="12.4598878"><ele>358.20000000000005</ele><time>2026-04-19T10:01:11.849Z</time></trkpt><trkpt lat="43.7555924" lon="12.4599558"><ele>362.0</ele><time>2026-04-19T10:01:12.865Z</time></trkpt><trkpt lat="43.7556548" lon="12.4600217"><ele>362.0</ele><time>2026-04-19T10:01:13.852Z</time></trkpt><trkpt lat="43.7557142" lon="12.4600832"><ele>362.0</ele><time>2026-04-19T10:01:14.851Z</time></trkpt><trkpt lat="43.7557931" lon="12.460226"><ele>362.0</ele><time>2026-04-19T10:01:16.85Z</time></trkpt><trkpt lat="43.7558278" lon="12.4603107"><ele>362.0</ele><time>2026-04-19T10:01:17.853Z</time></trkpt><trkpt lat="43.7558664" lon="12.4604067"><ele>362.0</ele><time>2026-04-19T10:01:19.854Z</time></trkpt><trkpt lat="43.7558812" lon="12.4605722"><ele>364.8</ele><time>2026-04-19T10:01:22.85Z</time></trkpt><trkpt lat="43.7558771" lon="12.4607052"><ele>367.6</ele><time>2026-04-19T10:01:23.86Z</time></trkpt><trkpt lat="43.7558685" lon="12.4608612"><ele>370.40000000000003</ele><time>2026-04-19T10:01:24.853Z</time></trkpt><trkpt lat="43.7558573" lon="12.4610068"><ele>373.20000000000005</ele><time>2026-04-19T10:01:25.854Z</time></trkpt><trkpt lat="43.7558416" lon="12.4611198"><ele>376.0</ele><time>2026-04-19T10:01:26.849Z</time></trkpt><trkpt lat="43.7558299" lon="12.4612342"><ele>378.3333333333333</ele><time>2026-04-19T10:01:27.852Z</time></trkpt><trkpt lat="43.7558303" lon="12.461354"><ele>380.66666666666663</ele><time>2026-04-19T10:01:28.847Z</time></trkpt><trkpt lat="43.7558234" lon="12.4614729"><ele>383.0</ele><time>2026-04-19T10:01:29.855Z</time></trkpt><trkpt lat="43.7557925" lon="12.4615763"><ele>385.3333333333333</ele><time>2026-04-19T10:01:30.849Z</time></trkpt><trkpt lat="43.7557439" lon="12.4616724"><ele>387.6666666666667</ele><time>2026-04-19T10:01:31.856Z</time></trkpt><trkpt lat="43.7556753" lon="12.4617624"><ele>390.0</ele><time>2026-04-19T10:01:32.852Z</time></trkpt><trkpt lat="43.7555868" lon="12.4618418"><ele>390.0</ele><time>2026-04-19T10:01:33.903Z</time></trkpt><trkpt lat="43.7555109" lon="12.4619078"><ele>390.0</ele><time>2026-04-19T10:01:34.867Z</time></trkpt><trkpt lat="43.7554646" lon="12.4619681"><ele>390.0</ele><time>2026-04-19T10:01:35.872Z</time></trkpt><trkpt lat="43.755458" lon="12.4621079"><ele>390.0</ele><time>2026-04-19T10:01:37.856Z</time></trkpt><trkpt lat="43.7554866" lon="12.4621987"><ele>390.0</ele><time>2026-04-19T10:01:38.855Z</time></trkpt><trkpt lat="43.7555353" lon="12.4622975"><ele>390.0</ele><time>2026-04-19T10:01:39.856Z</time></trkpt><trkpt lat="43.7555908" lon="12.4624079"><ele>391.0</ele><time>2026-04-19T10:01:40.851Z</time></trkpt><trkpt lat="43.7556143" lon="12.4625135"><ele>392.0</ele><time>2026-04-19T10:01:41.854Z</time></trkpt><trkpt lat="43.7556125" lon="12.4626569"><ele>393.0</ele><time>2026-04-19T10:01:43.871Z</time></trkpt><trkpt lat="43.7556123" lon="12.4627525"><ele>394.0</ele><time>2026-04-19T10:01:46.85Z</time></trkpt><trkpt lat="43.7555875" lon="12.4628354"><ele>395.0</ele><time>2026-04-19T10:01:48.854Z</time></trkpt><trkpt lat="43.7555396" lon="12.4629167"><ele>396.0</ele><time>2026-04-19T10:01:49.859Z</time></trkpt><trkpt lat="43.7554862" lon="12.4630194"><ele>396.0</ele><time>2026-04-19T10:01:50.864Z</time></trkpt><trkpt lat="43.7554313" lon="12.4631153"><ele>396.0</ele><time>2026-04-19T10:01:51.852Z</time></trkpt><trkpt lat="43.7553824" lon="12.4631959"><ele>396.0</ele><time>2026-04-19T10:01:52.858Z</time></trkpt><trkpt lat="43.7553308" lon="12.4633646"><ele>396.0</ele><time>2026-04-19T10:01:54.85Z</time></trkpt><trkpt lat="43.7553038" lon="12.4634685"><ele>396.0</ele><time>2026-04-19T10:01:55.862Z</time></trkpt><trkpt lat="43.7552592" lon="12.46356"><ele>396.0</ele><time>2026-04-19T10:01:56.859Z</time></trkpt><trkpt lat="43.7552149" lon="12.4636912"><ele>396.0</ele><time>2026-04-19T10:01:58.86Z</time></trkpt><trkpt lat="43.7552541" lon="12.4638438"><ele>396.0</ele><time>2026-04-19T10:02:00.856Z</time></trkpt><trkpt lat="43.7553056" lon="12.463935"><ele>396.0</ele><time>2026-04-19T10:02:02.855Z</time></trkpt><trkpt lat="43.7553649" lon="12.4638911"><ele>396.0</ele><time>2026-04-19T10:02:04.858Z</time></trkpt><trkpt lat="43.7554468" lon="12.463758"><ele>396.0</ele><time>2026-04-19T10:02:06.856Z</time></trkpt><trkpt lat="43.7555042" lon="12.4636417"><ele>396.0</ele><time>2026-04-19T10:02:07.851Z</time></trkpt><trkpt lat="43.7555687" lon="12.4635173"><ele>396.0</ele><time>2026-04-19T10:02:08.852Z</time></trkpt><trkpt lat="43.7556224" lon="12.463415"><ele>396.0</ele><time>2026-04-19T10:02:09.856Z</time></trkpt><trkpt lat="43.7556795" lon="12.4633638"><ele>396.0</ele><time>2026-04-19T10:02:10.856Z</time></trkpt><trkpt lat="43.7557985" lon="12.4633994"><ele>396.0</ele><time>2026-04-19T10:02:12.854Z</time></trkpt><trkpt lat="43.7558582" lon="12.4634878"><ele>396.0</ele><time>2026-04-19T10:02:13.875Z</time></trkpt><trkpt lat="43.7558921" lon="12.4636297"><ele>396.0</ele><time>2026-04-19T10:02:14.854Z</time></trkpt><trkpt lat="43.7558999" lon="12.4637856"><ele>396.0</ele><time>2026-04-19T10:02:15.845Z</time></trkpt><trkpt lat="43.7558902" lon="12.4639592"><ele>396.0</ele><time>2026-04-19T10:02:16.856Z</time></trkpt><trkpt lat="43.7558545" lon="12.4641406"><ele>397.33333333333337</ele><time>2026-04-19T10:02:17.85Z</time></trkpt><trkpt lat="43.7557921" lon="12.464355"><ele>398.6666666666667</ele><time>2026-04-19T10:02:18.871Z</time></trkpt><trkpt lat="43.7557188" lon="12.4645785"><ele>400.0</ele><time>2026-04-19T10:02:19.849Z</time></trkpt><trkpt lat="43.7556406" lon="12.4647804"><ele>400.33333333333337</ele><time>2026-04-19T10:02:20.849Z</time></trkpt><trkpt lat="43.7555578" lon="12.4649635"><ele>400.66666666666663</ele><time>2026-04-19T10:02:21.853Z</time></trkpt><trkpt lat="43.7554648" lon="12.4651389"><ele>401.0</ele><time>2026-04-19T10:02:22.846Z</time></trkpt><trkpt lat="43.7553578" lon="12.4653046"><ele>398.3333333333333</ele><time>2026-04-19T10:02:23.849Z</time></trkpt><trkpt lat="43.7552362" lon="12.4654533"><ele>395.66666666666663</ele><time>2026-04-19T10:02:24.853Z</time></trkpt><trkpt lat="43.7551019" lon="12.4655887"><ele>393.0</ele><time>2026-04-19T10:02:25.858Z</time></trkpt><trkpt lat="43.7549667" lon="12.4657039"><ele>398.33333333333337</ele><time>2026-04-19T10:02:26.853Z</time></trkpt><trkpt lat="43.7548328" lon="12.4657989"><ele>403.6666666666667</ele><time>2026-04-19T10:02:27.854Z</time></trkpt><trkpt lat="43.7546931" lon="12.4658815"><ele>409.0</ele><time>2026-04-19T10:02:28.87Z</time></trkpt><trkpt lat="43.7545489" lon="12.4659545"><ele>409.0</ele><time>2026-04-19T10:02:29.853Z</time></trkpt><trkpt lat="43.7543963" lon="12.4660282"><ele>409.0</ele><time>2026-04-19T10:02:30.855Z</time></trkpt><trkpt lat="43.7542393" lon="12.4661098"><ele>409.0</ele><time>2026-04-19T10:02:31.853Z</time></trkpt><trkpt lat="43.7540803" lon="12.4661961"><ele>411.6666666666667</ele><time>2026-04-19T10:02:32.854Z</time></trkpt><trkpt lat="43.7539228" lon="12.4662779"><ele>414.33333333333337</ele><time>2026-04-19T10:02:33.852Z</time></trkpt><trkpt lat="43.7537687" lon="12.4663524"><ele>417.0</ele><time>2026-04-19T10:02:34.854Z</time></trkpt><trkpt lat="43.7536148" lon="12.4664234"><ele>422.0</ele><time>2026-04-19T10:02:35.854Z</time></trkpt><trkpt lat="43.7534557" lon="12.4664904"><ele>427.0</ele><time>2026-04-19T10:02:36.85Z</time></trkpt><trkpt lat="43.753293" lon="12.4665495"><ele>432.0</ele><time>2026-04-19T10:02:37.848Z</time></trkpt><trkpt lat="43.7531234" lon="12.4666002"><ele>432.0</ele><time>2026-04-19T10:02:38.857Z</time></trkpt><trkpt lat="43.7529632" lon="12.4666322"><ele>432.0</ele><time>2026-04-19T10:02:39.846Z</time></trkpt><trkpt lat="43.7528008" lon="12.4666541"><ele>432.0</ele><time>2026-04-19T10:02:40.855Z</time></trkpt><trkpt lat="43.7526473" lon="12.4666696"><ele>434.5</ele><time>2026-04-19T10:02:41.856Z</time></trkpt><trkpt lat="43.7525169" lon="12.4666832"><ele>437.0</ele><time>2026-04-19T10:02:42.851Z</time></trkpt><trkpt lat="43.7524041" lon="12.4667039"><ele>439.5</ele><time>2026-04-19T10:02:43.874Z</time></trkpt><trkpt lat="43.7522997" lon="12.466748"><ele>442.0</ele><time>2026-04-19T10:02:44.851Z</time></trkpt><trkpt lat="43.7521795" lon="12.4668258"><ele>442.0</ele><time>2026-04-19T10:02:45.851Z</time></trkpt><trkpt lat="43.7520369" lon="12.4669236"><ele>442.0</ele><time>2026-04-19T10:02:46.85Z</time></trkpt><trkpt lat="43.7518769" lon="12.4670222"><ele>442.0</ele><time>2026-04-19T10:02:47.855Z</time></trkpt><trkpt lat="43.7517298" lon="12.4670933"><ele>441.0</ele><time>2026-04-19T10:02:48.853Z</time></trkpt><trkpt lat="43.7515801" lon="12.4671495"><ele>440.0</ele><time>2026-04-19T10:02:49.857Z</time></trkpt><trkpt lat="43.7514107" lon="12.4671934"><ele>439.0</ele><time>2026-04-19T10:02:50.848Z</time></trkpt><trkpt lat="43.7512358" lon="12.467238"><ele>439.0</ele><time>2026-04-19T10:02:51.852Z</time></trkpt><trkpt lat="43.7510701" lon="12.4672976"><ele>439.0</ele><time>2026-04-19T10:02:52.853Z</time></trkpt><trkpt lat="43.7508984" lon="12.4673845"><ele>439.0</ele><time>2026-04-19T10:02:53.855Z</time></trkpt><trkpt lat="43.7507466" lon="12.4675044"><ele>439.0</ele><time>2026-04-19T10:02:54.851Z</time></trkpt><trkpt lat="43.7506145" lon="12.4676315"><ele>439.0</ele><time>2026-04-19T10:02:55.854Z</time></trkpt><trkpt lat="43.7505083" lon="12.4677557"><ele>439.0</ele><time>2026-04-19T10:02:56.846Z</time></trkpt><trkpt lat="43.7504277" lon="12.4678848"><ele>439.0</ele><time>2026-04-19T10:02:57.855Z</time></trkpt><trkpt lat="43.7503657" lon="12.4680334"><ele>439.0</ele><time>2026-04-19T10:02:58.848Z</time></trkpt><trkpt lat="43.7503244" lon="12.4682298"><ele>439.0</ele><time>2026-04-19T10:02:59.858Z</time></trkpt><trkpt lat="43.7502917" lon="12.4684599"><ele>439.0</ele><time>2026-04-19T10:03:00.857Z</time></trkpt><trkpt lat="43.7502559" lon="12.4686783"><ele>441.0</ele><time>2026-04-19T10:03:01.853Z</time></trkpt><trkpt lat="43.7502145" lon="12.4688602"><ele>443.0</ele><time>2026-04-19T10:03:02.849Z</time></trkpt><trkpt lat="43.750167" lon="12.4690252"><ele>445.0</ele><time>2026-04-19T10:03:03.849Z</time></trkpt><trkpt lat="43.7501085" lon="12.469186"><ele>447.0</ele><time>2026-04-19T10:03:04.85Z</time></trkpt><trkpt lat="43.7500458" lon="12.4693295"><ele>447.0</ele><time>2026-04-19T10:03:05.855Z</time></trkpt><trkpt lat="43.7499858" lon="12.4694448"><ele>447.0</ele><time>2026-04-19T10:03:06.859Z</time></trkpt><trkpt lat="43.7499142" lon="12.4695554"><ele>447.0</ele><time>2026-04-19T10:03:07.863Z</time></trkpt><trkpt lat="43.7498129" lon="12.4696915"><ele>447.0</ele><time>2026-04-19T10:03:08.851Z</time></trkpt><trkpt lat="43.7496922" lon="12.4698455"><ele>445.33333333333337</ele><time>2026-04-19T10:03:09.843Z</time></trkpt><trkpt lat="43.7495602" lon="12.4700065"><ele>443.6666666666667</ele><time>2026-04-19T10:03:10.857Z</time></trkpt><trkpt lat="43.7494158" lon="12.4701754"><ele>442.0</ele><time>2026-04-19T10:03:11.857Z</time></trkpt><trkpt lat="43.7492675" lon="12.4703496"><ele>439.33333333333337</ele><time>2026-04-19T10:03:12.855Z</time></trkpt><trkpt lat="43.7491224" lon="12.4705294"><ele>436.66666666666663</ele><time>2026-04-19T10:03:13.856Z</time></trkpt><trkpt lat="43.7489867" lon="12.4706973"><ele>434.0</ele><time>2026-04-19T10:03:14.851Z</time></trkpt><trkpt lat="43.7488616" lon="12.4708453"><ele>434.0</ele><time>2026-04-19T10:03:15.851Z</time></trkpt><trkpt lat="43.7487506" lon="12.4709699"><ele>434.0</ele><time>2026-04-19T10:03:16.853Z</time></trkpt><trkpt lat="43.7486526" lon="12.4710657"><ele>434.0</ele><time>2026-04-19T10:03:17.856Z</time></trkpt><trkpt lat="43.7485569" lon="12.4711394"><ele>434.0</ele><time>2026-04-19T10:03:18.848Z</time></trkpt><trkpt lat="43.7484499" lon="12.4711782"><ele>435.0</ele><time>2026-04-19T10:03:19.862Z</time></trkpt><trkpt lat="43.7483173" lon="12.4712057"><ele>436.0</ele><time>2026-04-19T10:03:20.848Z</time></trkpt><trkpt lat="43.7481727" lon="12.4712364"><ele>437.0</ele><time>2026-04-19T10:03:21.855Z</time></trkpt><trkpt lat="43.7480415" lon="12.4712729"><ele>438.0</ele><time>2026-04-19T10:03:22.854Z</time></trkpt><trkpt lat="43.7479244" lon="12.4713129"><ele>439.0</ele><time>2026-04-19T10:03:23.849Z</time></trkpt><trkpt lat="43.7478106" lon="12.4713613"><ele>440.0</ele><time>2026-04-19T10:03:24.867Z</time></trkpt><trkpt lat="43.747697" lon="12.4714218"><ele>441.0</ele><time>2026-04-19T10:03:25.848Z</time></trkpt><trkpt lat="43.7475875" lon="12.4714911"><ele>442.0</ele><time>2026-04-19T10:03:26.851Z</time></trkpt><trkpt lat="43.7474849" lon="12.4715805"><ele>444.0</ele><time>2026-04-19T10:03:27.852Z</time></trkpt><trkpt lat="43.7473797" lon="12.4716796"><ele>446.0</ele><time>2026-04-19T10:03:28.852Z</time></trkpt><trkpt lat="43.7472788" lon="12.4718037"><ele>448.0</ele><time>2026-04-19T10:03:29.855Z</time></trkpt><trkpt lat="43.7471905" lon="12.4719436"><ele>450.0</ele><time>2026-04-19T10:03:30.854Z</time></trkpt><trkpt lat="43.7471226" lon="12.4720754"><ele>453.0</ele><time>2026-04-19T10:03:31.856Z</time></trkpt><trkpt lat="43.7470704" lon="12.4722148"><ele>456.0</ele><time>2026-04-19T10:03:32.857Z</time></trkpt><trkpt lat="43.7470306" lon="12.4723576"><ele>459.0</ele><time>2026-04-19T10:03:33.871Z</time></trkpt><trkpt lat="43.7469839" lon="12.4724756"><ele>462.0</ele><time>2026-04-19T10:03:34.857Z</time></trkpt><trkpt lat="43.7469157" lon="12.4725833"><ele>465.0</ele><time>2026-04-19T10:03:35.856Z</time></trkpt><trkpt lat="43.7468554" lon="12.4726857"><ele>465.0</ele><time>2026-04-19T10:03:36.849Z</time></trkpt><trkpt lat="43.7468239" lon="12.4728232"><ele>465.0</ele><time>2026-04-19T10:03:37.848Z</time></trkpt><trkpt lat="43.7468068" lon="12.4730068"><ele>465.0</ele><time>2026-04-19T10:03:38.854Z</time></trkpt><trkpt lat="43.7467804" lon="12.473201"><ele>465.0</ele><time>2026-04-19T10:03:39.862Z</time></trkpt><trkpt lat="43.746746" lon="12.4733455"><ele>466.0</ele><time>2026-04-19T10:03:40.848Z</time></trkpt><trkpt lat="43.7467011" lon="12.4734672"><ele>467.0</ele><time>2026-04-19T10:03:41.855Z</time></trkpt><trkpt lat="43.7466469" lon="12.4735779"><ele>468.0</ele><time>2026-04-19T10:03:42.854Z</time></trkpt><trkpt lat="43.7465742" lon="12.4737006"><ele>469.0</ele><time>2026-04-19T10:03:43.851Z</time></trkpt><trkpt lat="43.7464824" lon="12.4738457"><ele>470.0</ele><time>2026-04-19T10:03:44.862Z</time></trkpt><trkpt lat="43.7463982" lon="12.4739806"><ele>470.0</ele><time>2026-04-19T10:03:45.854Z</time></trkpt><trkpt lat="43.7463241" lon="12.4740629"><ele>470.0</ele><time>2026-04-19T10:03:46.854Z</time></trkpt><trkpt lat="43.7462445" lon="12.4740797"><ele>470.0</ele><time>2026-04-19T10:03:47.848Z</time></trkpt><trkpt lat="43.746158" lon="12.4740147"><ele>470.0</ele><time>2026-04-19T10:03:48.852Z</time></trkpt><trkpt lat="43.746043" lon="12.4739418"><ele>470.0</ele><time>2026-04-19T10:03:49.848Z</time></trkpt><trkpt lat="43.7459145" lon="12.4738549"><ele>472.75</ele><time>2026-04-19T10:03:50.853Z</time></trkpt><trkpt lat="43.7457781" lon="12.473802"><ele>475.5</ele><time>2026-04-19T10:03:51.852Z</time></trkpt><trkpt lat="43.7456473" lon="12.4737704"><ele>478.25</ele><time>2026-04-19T10:03:52.853Z</time></trkpt><trkpt lat="43.7455136" lon="12.4737738"><ele>481.0</ele><time>2026-04-19T10:03:53.855Z</time></trkpt><trkpt lat="43.7453996" lon="12.4737718"><ele>481.00000000000006</ele><time>2026-04-19T10:03:54.851Z</time></trkpt><trkpt lat="43.7453203" lon="12.473775"><ele>481.0</ele><time>2026-04-19T10:03:55.853Z</time></trkpt><trkpt lat="43.7452587" lon="12.4738002"><ele>481.0</ele><time>2026-04-19T10:03:56.852Z</time></trkpt><trkpt lat="43.745225" lon="12.4738827"><ele>481.0</ele><time>2026-04-19T10:03:57.851Z</time></trkpt><trkpt lat="43.7451933" lon="12.4740002"><ele>481.00000000000006</ele><time>2026-04-19T10:03:58.849Z</time></trkpt><trkpt lat="43.7451571" lon="12.4741566"><ele>481.0</ele><time>2026-04-19T10:03:59.847Z</time></trkpt><trkpt lat="43.7451128" lon="12.4742974"><ele>483.4</ele><time>2026-04-19T10:04:00.851Z</time></trkpt><trkpt lat="43.7450723" lon="12.4743897"><ele>485.8</ele><time>2026-04-19T10:04:01.85Z</time></trkpt><trkpt lat="43.7450021" lon="12.4744178"><ele>488.19999999999993</ele><time>2026-04-19T10:04:02.861Z</time></trkpt><trkpt lat="43.7449103" lon="12.4744389"><ele>490.59999999999997</ele><time>2026-04-19T10:04:03.851Z</time></trkpt><trkpt lat="43.7447837" lon="12.4744627"><ele>493.0</ele><time>2026-04-19T10:04:04.849Z</time></trkpt><trkpt lat="43.7446705" lon="12.4745103"><ele>493.0</ele><time>2026-04-19T10:04:05.846Z</time></trkpt><trkpt lat="43.7445795" lon="12.4745689"><ele>492.99999999999994</ele><time>2026-04-19T10:04:06.849Z</time></trkpt><trkpt lat="43.7445045" lon="12.4746067"><ele>492.99999999999994</ele><time>2026-04-19T10:04:07.848Z</time></trkpt><trkpt lat="43.7443973" lon="12.4746388"><ele>493.0</ele><time>2026-04-19T10:04:09.853Z</time></trkpt><trkpt lat="43.7443047" lon="12.4746885"><ele>493.0</ele><time>2026-04-19T10:04:11.857Z</time></trkpt><trkpt lat="43.7442525" lon="12.474739"><ele>490.59999999999997</ele><time>2026-04-19T10:04:12.853Z</time></trkpt><trkpt lat="43.7441864" lon="12.4748073"><ele>488.19999999999993</ele><time>2026-04-19T10:04:13.85Z</time></trkpt><trkpt lat="43.7440953" lon="12.4748934"><ele>485.8</ele><time>2026-04-19T10:04:14.869Z</time></trkpt><trkpt lat="43.7439919" lon="12.4749907"><ele>483.4</ele><time>2026-04-19T10:04:15.846Z</time></trkpt><trkpt lat="43.7438925" lon="12.4750911"><ele>481.0</ele><time>2026-04-19T10:04:16.853Z</time></trkpt><trkpt lat="43.7438108" lon="12.4751917"><ele>481.0</ele><time>2026-04-19T10:04:17.853Z</time></trkpt><trkpt lat="43.743743" lon="12.4752936"><ele>481.0</ele><time>2026-04-19T10:04:18.852Z</time></trkpt><trkpt lat="43.7436843" lon="12.4754012"><ele>481.0</ele><time>2026-04-19T10:04:19.851Z</time></trkpt><trkpt lat="43.7436348" lon="12.4755127"><ele>481.0</ele><time>2026-04-19T10:04:20.855Z</time></trkpt><trkpt lat="43.7435914" lon="12.4756091"><ele>481.0</ele><time>2026-04-19T10:04:21.852Z</time></trkpt><trkpt lat="43.7435375" lon="12.4756879"><ele>479.50000000000006</ele><time>2026-04-19T10:04:22.85Z</time></trkpt><trkpt lat="43.7434723" lon="12.4757549"><ele>478.0</ele><time>2026-04-19T10:04:23.867Z</time></trkpt><trkpt lat="43.7433989" lon="12.4758075"><ele>476.5</ele><time>2026-04-19T10:04:24.85Z</time></trkpt><trkpt lat="43.7433177" lon="12.4758581"><ele>475.0</ele><time>2026-04-19T10:04:25.849Z</time></trkpt><trkpt lat="43.7432268" lon="12.4759084"><ele>473.50000000000006</ele><time>2026-04-19T10:04:26.854Z</time></trkpt><trkpt lat="43.7431547" lon="12.475979"><ele>472.0</ele><time>2026-04-19T10:04:27.857Z</time></trkpt><trkpt lat="43.7430628" lon="12.4760663"><ele>472.0</ele><time>2026-04-19T10:04:28.849Z</time></trkpt><trkpt lat="43.7429672" lon="12.4761402"><ele>472.00000000000006</ele><time>2026-04-19T10:04:29.876Z</time></trkpt><trkpt lat="43.7428743" lon="12.4762034"><ele>472.00000000000006</ele><time>2026-04-19T10:04:30.855Z</time></trkpt><trkpt lat="43.7427952" lon="12.4762506"><ele>472.0</ele><time>2026-04-19T10:04:31.852Z</time></trkpt><trkpt lat="43.7427276" lon="12.4763813"><ele>472.0</ele><time>2026-04-19T10:04:33.864Z</time></trkpt><trkpt lat="43.7427249" lon="12.4765621"><ele>472.33333333333337</ele><time>2026-04-19T10:04:35.869Z</time></trkpt><trkpt lat="43.7427271" lon="12.4766641"><ele>472.6666666666667</ele><time>2026-04-19T10:04:36.853Z</time></trkpt><trkpt lat="43.7427224" lon="12.4767616"><ele>473.0</ele><time>2026-04-19T10:04:37.854Z</time></trkpt><trkpt lat="43.7427017" lon="12.4769211"><ele>473.33333333333337</ele><time>2026-04-19T10:04:39.858Z</time></trkpt><trkpt lat="43.7426717" lon="12.4770447"><ele>473.6666666666667</ele><time>2026-04-19T10:04:41.853Z</time></trkpt><trkpt lat="43.7426577" lon="12.4771299"><ele>474.0</ele><time>2026-04-19T10:04:43.853Z</time></trkpt><trkpt lat="43.7426684" lon="12.4772356"><ele>474.0</ele><time>2026-04-19T10:04:46.851Z</time></trkpt><trkpt lat="43.7426771" lon="12.4773713"><ele>474.0</ele><time>2026-04-19T10:04:48.856Z</time></trkpt><trkpt lat="43.7426812" lon="12.4774658"><ele>474.0</ele><time>2026-04-19T10:04:51.851Z</time></trkpt><trkpt lat="43.7427106" lon="12.47764"><ele>474.0</ele><time>2026-04-19T10:04:52.855Z</time></trkpt><trkpt lat="43.7427438" lon="12.4777772"><ele>474.0</ele><time>2026-04-19T10:04:54.855Z</time></trkpt><trkpt lat="43.7427846" lon="12.4778506"><ele>473.1666666666667</ele><time>2026-04-19T10:04:55.85Z</time></trkpt><trkpt lat="43.7428465" lon="12.477921"><ele>472.33333333333337</ele><time>2026-04-19T10:04:56.857Z</time></trkpt><trkpt lat="43.74292" lon="12.4779714"><ele>471.5</ele><time>2026-04-19T10:04:57.852Z</time></trkpt><trkpt lat="43.7429938" lon="12.4780141"><ele>470.6666666666667</ele><time>2026-04-19T10:04:58.846Z</time></trkpt><trkpt lat="43.7430822" lon="12.4780379"><ele>469.83333333333337</ele><time>2026-04-19T10:04:59.853Z</time></trkpt><trkpt lat="43.7431642" lon="12.4780734"><ele>469.0</ele><time>2026-04-19T10:05:00.852Z</time></trkpt><trkpt lat="43.7432565" lon="12.4781411"><ele>469.00000000000006</ele><time>2026-04-19T10:05:01.847Z</time></trkpt><trkpt lat="43.7433489" lon="12.4782135"><ele>469.0</ele><time>2026-04-19T10:05:02.87Z</time></trkpt><trkpt lat="43.7434112" lon="12.478289"><ele>469.0</ele><time>2026-04-19T10:05:03.851Z</time></trkpt><trkpt lat="43.7434578" lon="12.4783648"><ele>469.0</ele><time>2026-04-19T10:05:04.859Z</time></trkpt><trkpt lat="43.7434812" lon="12.4784621"><ele>469.00000000000006</ele><time>2026-04-19T10:05:05.856Z</time></trkpt><trkpt lat="43.7434924" lon="12.478591"><ele>469.0</ele><time>2026-04-19T10:05:06.851Z</time></trkpt><trkpt lat="43.7434712" lon="12.4787542"><ele>473.0</ele><time>2026-04-19T10:05:07.848Z</time></trkpt><trkpt lat="43.7434424" lon="12.4789445"><ele>477.0</ele><time>2026-04-19T10:05:08.855Z</time></trkpt><trkpt lat="43.7434326" lon="12.4790992"><ele>481.0</ele><time>2026-04-19T10:05:09.848Z</time></trkpt><trkpt lat="43.7434403" lon="12.4792001"><ele>485.0</ele><time>2026-04-19T10:05:10.853Z</time></trkpt><trkpt lat="43.7434435" lon="12.4792941"><ele>489.0</ele><time>2026-04-19T10:05:11.841Z</time></trkpt><trkpt lat="43.7434589" lon="12.4794021"><ele>489.0</ele><time>2026-04-19T10:05:12.851Z</time></trkpt><trkpt lat="43.743485" lon="12.4794951"><ele>489.0</ele><time>2026-04-19T10:05:13.849Z</time></trkpt><trkpt lat="43.7435344" lon="12.4795885"><ele>489.0</ele><time>2026-04-19T10:05:14.856Z</time></trkpt><trkpt lat="43.7435885" lon="12.4796606"><ele>489.0</ele><time>2026-04-19T10:05:15.859Z</time></trkpt><trkpt lat="43.7436833" lon="12.4797673"><ele>489.0</ele><time>2026-04-19T10:05:17.857Z</time></trkpt><trkpt lat="43.7437247" lon="12.4798497"><ele>489.0</ele><time>2026-04-19T10:05:18.85Z</time></trkpt><trkpt lat="43.7437586" lon="12.4799481"><ele>489.4</ele><time>2026-04-19T10:05:19.854Z</time></trkpt><trkpt lat="43.7437865" lon="12.4800396"><ele>489.79999999999995</ele><time>2026-04-19T10:05:20.853Z</time></trkpt><trkpt lat="43.7438312" lon="12.4801819"><ele>490.20000000000005</ele><time>2026-04-19T10:05:22.855Z</time></trkpt><trkpt lat="43.7438934" lon="12.4802878"><ele>490.6</ele><time>2026-04-19T10:05:24.854Z</time></trkpt><trkpt lat="43.743993" lon="12.4803761"><ele>491.0</ele><time>2026-04-19T10:05:26.856Z</time></trkpt><trkpt lat="43.7441165" lon="12.4803915"><ele>490.99999999999994</ele><time>2026-04-19T10:05:28.852Z</time></trkpt><trkpt lat="43.7441958" lon="12.4803767"><ele>491.0</ele><time>2026-04-19T10:05:29.869Z</time></trkpt><trkpt lat="43.7442843" lon="12.4803512"><ele>491.0</ele><time>2026-04-19T10:05:30.854Z</time></trkpt><trkpt lat="43.7443797" lon="12.4803165"><ele>491.0</ele><time>2026-04-19T10:05:31.852Z</time></trkpt><trkpt lat="43.7444688" lon="12.4802869"><ele>490.99999999999994</ele><time>2026-04-19T10:05:32.849Z</time></trkpt><trkpt lat="43.7445494" lon="12.4802647"><ele>491.0</ele><time>2026-04-19T10:05:33.847Z</time></trkpt><trkpt lat="43.744629" lon="12.4802576"><ele>491.4</ele><time>2026-04-19T10:05:34.852Z</time></trkpt><trkpt lat="43.744705" lon="12.4802747"><ele>491.8</ele><time>2026-04-19T10:05:35.849Z</time></trkpt><trkpt lat="43.7447795" lon="12.4803167"><ele>492.19999999999993</ele><time>2026-04-19T10:05:36.871Z</time></trkpt><trkpt lat="43.7448621" lon="12.480382"><ele>492.59999999999997</ele><time>2026-04-19T10:05:37.858Z</time></trkpt><trkpt lat="43.7449548" lon="12.480456"><ele>493.0</ele><time>2026-04-19T10:05:38.853Z</time></trkpt><trkpt lat="43.745052" lon="12.4805314"><ele>493.59999999999997</ele><time>2026-04-19T10:05:39.857Z</time></trkpt><trkpt lat="43.7451509" lon="12.4806078"><ele>494.19999999999993</ele><time>2026-04-19T10:05:40.856Z</time></trkpt><trkpt lat="43.7452438" lon="12.4806754"><ele>494.8</ele><time>2026-04-19T10:05:41.875Z</time></trkpt><trkpt lat="43.7453271" lon="12.480726"><ele>495.4</ele><time>2026-04-19T10:05:42.849Z</time></trkpt><trkpt lat="43.7454106" lon="12.480777"><ele>496.0</ele><time>2026-04-19T10:05:43.853Z</time></trkpt><trkpt lat="43.7454963" lon="12.480849"><ele>496.0</ele><time>2026-04-19T10:05:44.855Z</time></trkpt><trkpt lat="43.7455824" lon="12.4809401"><ele>496.0</ele><time>2026-04-19T10:05:45.856Z</time></trkpt><trkpt lat="43.7456698" lon="12.4810372"><ele>496.0</ele><time>2026-04-19T10:05:46.86Z</time></trkpt><trkpt lat="43.7457575" lon="12.481137"><ele>496.0</ele><time>2026-04-19T10:05:47.856Z</time></trkpt><trkpt lat="43.7458352" lon="12.4812274"><ele>496.0</ele><time>2026-04-19T10:05:48.854Z</time></trkpt><trkpt lat="43.7458952" lon="12.4813022"><ele>497.00000000000006</ele><time>2026-04-19T10:05:49.854Z</time></trkpt><trkpt lat="43.7459419" lon="12.4813741"><ele>498.0</ele><time>2026-04-19T10:05:50.85Z</time></trkpt><trkpt lat="43.7459869" lon="12.4814571"><ele>499.0</ele><time>2026-04-19T10:05:51.854Z</time></trkpt><trkpt lat="43.7460331" lon="12.4815442"><ele>500.0</ele><time>2026-04-19T10:05:52.85Z</time></trkpt><trkpt lat="43.7460781" lon="12.4816302"><ele>501.00000000000006</ele><time>2026-04-19T10:05:53.855Z</time></trkpt><trkpt lat="43.7461202" lon="12.4817204"><ele>502.0</ele><time>2026-04-19T10:05:54.858Z</time></trkpt><trkpt lat="43.7461566" lon="12.4818116"><ele>502.00000000000006</ele><time>2026-04-19T10:05:55.852Z</time></trkpt><trkpt lat="43.7461851" lon="12.4818915"><ele>502.0</ele><time>2026-04-19T10:05:56.855Z</time></trkpt><trkpt lat="43.7462257" lon="12.4820539"><ele>502.0</ele><time>2026-04-19T10:05:58.885Z</time></trkpt><trkpt lat="43.7462256" lon="12.4821412"><ele>502.0</ele><time>2026-04-19T10:05:59.85Z</time></trkpt><trkpt lat="43.7462254" lon="12.4822331"><ele>502.00000000000006</ele><time>2026-04-19T10:06:00.847Z</time></trkpt><trkpt lat="43.7462266" lon="12.4823457"><ele>502.0</ele><time>2026-04-19T10:06:01.848Z</time></trkpt><trkpt lat="43.7462247" lon="12.4824716"><ele>504.83333333333337</ele><time>2026-04-19T10:06:02.849Z</time></trkpt><trkpt lat="43.7462275" lon="12.4825942"><ele>507.6666666666667</ele><time>2026-04-19T10:06:03.848Z</time></trkpt><trkpt lat="43.7462465" lon="12.482702"><ele>510.5</ele><time>2026-04-19T10:06:04.848Z</time></trkpt><trkpt lat="43.746263" lon="12.4827989"><ele>513.3333333333334</ele><time>2026-04-19T10:06:05.856Z</time></trkpt><trkpt lat="43.746275" lon="12.4829349"><ele>516.1666666666666</ele><time>2026-04-19T10:06:07.849Z</time></trkpt><trkpt lat="43.746281" lon="12.4830469"><ele>519.0</ele><time>2026-04-19T10:06:09.853Z</time></trkpt><trkpt lat="43.746285" lon="12.4831508"><ele>519.0</ele><time>2026-04-19T10:06:11.861Z</time></trkpt><trkpt lat="43.7462875" lon="12.4832527"><ele>519.0</ele><time>2026-04-19T10:06:13.87Z</time></trkpt><trkpt lat="43.7462965" lon="12.4834033"><ele>519.0</ele><time>2026-04-19T10:06:15.847Z</time></trkpt><trkpt lat="43.7462972" lon="12.4835108"><ele>519.0</ele><time>2026-04-19T10:06:16.853Z</time></trkpt><trkpt lat="43.7463031" lon="12.4836205"><ele>519.0</ele><time>2026-04-19T10:06:17.844Z</time></trkpt><trkpt lat="43.7463267" lon="12.4837216"><ele>519.0</ele><time>2026-04-19T10:06:18.845Z</time></trkpt><trkpt lat="43.7463751" lon="12.4838078"><ele>519.0</ele><time>2026-04-19T10:06:19.852Z</time></trkpt><trkpt lat="43.746452" lon="12.483885"><ele>519.0</ele><time>2026-04-19T10:06:20.851Z</time></trkpt><trkpt lat="43.7465458" lon="12.4839606"><ele>519.0</ele><time>2026-04-19T10:06:21.867Z</time></trkpt><trkpt lat="43.7466516" lon="12.4840328"><ele>519.0</ele><time>2026-04-19T10:06:22.851Z</time></trkpt><trkpt lat="43.7467614" lon="12.4841083"><ele>519.0</ele><time>2026-04-19T10:06:23.845Z</time></trkpt><trkpt lat="43.7468645" lon="12.4841807"><ele>521.75</ele><time>2026-04-19T10:06:24.853Z</time></trkpt><trkpt lat="43.7469543" lon="12.4842563"><ele>524.5</ele><time>2026-04-19T10:06:25.856Z</time></trkpt><trkpt lat="43.747035" lon="12.4843504"><ele>527.25</ele><time>2026-04-19T10:06:26.852Z</time></trkpt><trkpt lat="43.747106" lon="12.4844838"><ele>530.0</ele><time>2026-04-19T10:06:27.864Z</time></trkpt><trkpt lat="43.7471741" lon="12.4846591"><ele>530.0</ele><time>2026-04-19T10:06:28.853Z</time></trkpt><trkpt lat="43.7472526" lon="12.4848518"><ele>530.0</ele><time>2026-04-19T10:06:29.853Z</time></trkpt><trkpt lat="43.7473442" lon="12.4850287"><ele>530.0</ele><time>2026-04-19T10:06:30.847Z</time></trkpt><trkpt lat="43.7474389" lon="12.4851819"><ele>530.0</ele><time>2026-04-19T10:06:31.847Z</time></trkpt><trkpt lat="43.747517" lon="12.485325"><ele>530.0</ele><time>2026-04-19T10:06:32.874Z</time></trkpt><trkpt lat="43.7475639" lon="12.485464"><ele>530.0</ele><time>2026-04-19T10:06:33.856Z</time></trkpt><trkpt lat="43.7475799" lon="12.4856089"><ele>530.0</ele><time>2026-04-19T10:06:34.854Z</time></trkpt><trkpt lat="43.747555" lon="12.4857506"><ele>527.25</ele><time>2026-04-19T10:06:35.845Z</time></trkpt><trkpt lat="43.7474951" lon="12.4858896"><ele>524.5</ele><time>2026-04-19T10:06:36.849Z</time></trkpt><trkpt lat="43.7474139" lon="12.486041"><ele>521.75</ele><time>2026-04-19T10:06:37.845Z</time></trkpt><trkpt lat="43.7473224" lon="12.4861915"><ele>519.0</ele><time>2026-04-19T10:06:38.847Z</time></trkpt><trkpt lat="43.7472337" lon="12.486324"><ele>518.8</ele><time>2026-04-19T10:06:39.858Z</time></trkpt><trkpt lat="43.7471615" lon="12.4864423"><ele>518.5999999999999</ele><time>2026-04-19T10:06:40.852Z</time></trkpt><trkpt lat="43.7471156" lon="12.4865569"><ele>518.4</ele><time>2026-04-19T10:06:41.852Z</time></trkpt><trkpt lat="43.7471024" lon="12.48667"><ele>518.1999999999999</ele><time>2026-04-19T10:06:42.851Z</time></trkpt><trkpt lat="43.7471256" lon="12.4867762"><ele>518.0</ele><time>2026-04-19T10:06:43.856Z</time></trkpt><trkpt lat="43.7471826" lon="12.4868622"><ele>518.0</ele><time>2026-04-19T10:06:44.852Z</time></trkpt><trkpt lat="43.7472652" lon="12.4869249"><ele>518.0</ele><time>2026-04-19T10:06:45.863Z</time></trkpt><trkpt lat="43.7473751" lon="12.4869619"><ele>518.0</ele><time>2026-04-19T10:06:46.853Z</time></trkpt><trkpt lat="43.7474918" lon="12.4870054"><ele>518.0</ele><time>2026-04-19T10:06:47.849Z</time></trkpt><trkpt lat="43.7476073" lon="12.4870683"><ele>513.6</ele><time>2026-04-19T10:06:48.855Z</time></trkpt><trkpt lat="43.7477102" lon="12.4871506"><ele>509.19999999999993</ele><time>2026-04-19T10:06:49.854Z</time></trkpt><trkpt lat="43.7477978" lon="12.487232"><ele>504.8</ele><time>2026-04-19T10:06:50.862Z</time></trkpt><trkpt lat="43.7478858" lon="12.4872904"><ele>500.4</ele><time>2026-04-19T10:06:51.853Z</time></trkpt><trkpt lat="43.7479865" lon="12.4873076"><ele>496.0</ele><time>2026-04-19T10:06:52.85Z</time></trkpt><trkpt lat="43.7480922" lon="12.487306"><ele>496.0</ele><time>2026-04-19T10:06:53.855Z</time></trkpt><trkpt lat="43.7482002" lon="12.4872488"><ele>496.0</ele><time>2026-04-19T10:06:54.853Z</time></trkpt><trkpt lat="43.7483194" lon="12.4871848"><ele>496.0</ele><time>2026-04-19T10:06:55.848Z</time></trkpt><trkpt lat="43.7484594" lon="12.4871257"><ele>496.0</ele><time>2026-04-19T10:06:56.872Z</time></trkpt><trkpt lat="43.748608" lon="12.4870805"><ele>506.33333333333337</ele><time>2026-04-19T10:06:57.852Z</time></trkpt><trkpt lat="43.7487677" lon="12.4870539"><ele>516.6666666666666</ele><time>2026-04-19T10:06:58.843Z</time></trkpt><trkpt lat="43.7489339" lon="12.4870368"><ele>527.0</ele><time>2026-04-19T10:06:59.843Z</time></trkpt><trkpt lat="43.749103" lon="12.4870318"><ele>527.0</ele><time>2026-04-19T10:07:00.848Z</time></trkpt><trkpt lat="43.7492638" lon="12.4870385"><ele>527.0</ele><time>2026-04-19T10:07:01.84Z</time></trkpt><trkpt lat="43.7494048" lon="12.487049"><ele>527.0</ele><time>2026-04-19T10:07:02.851Z</time></trkpt><trkpt lat="43.7495206" lon="12.4870715"><ele>527.0</ele><time>2026-04-19T10:07:03.849Z</time></trkpt><trkpt lat="43.7496192" lon="12.4871073"><ele>526.6</ele><time>2026-04-19T10:07:04.85Z</time></trkpt><trkpt lat="43.7497079" lon="12.4871491"><ele>526.2</ele><time>2026-04-19T10:07:05.857Z</time></trkpt><trkpt lat="43.749796" lon="12.4871657"><ele>525.8</ele><time>2026-04-19T10:07:06.846Z</time></trkpt><trkpt lat="43.7498862" lon="12.487143"><ele>525.4</ele><time>2026-04-19T10:07:07.872Z</time></trkpt><trkpt lat="43.7499608" lon="12.487066"><ele>525.0</ele><time>2026-04-19T10:07:08.848Z</time></trkpt><trkpt lat="43.7500297" lon="12.4869745"><ele>525.0</ele><time>2026-04-19T10:07:09.852Z</time></trkpt><trkpt lat="43.7500763" lon="12.4868828"><ele>525.0</ele><time>2026-04-19T10:07:10.854Z</time></trkpt><trkpt lat="43.7501285" lon="12.4867941"><ele>525.0</ele><time>2026-04-19T10:07:12.848Z</time></trkpt><trkpt lat="43.7501897" lon="12.4867321"><ele>525.0</ele><time>2026-04-19T10:07:16.853Z</time></trkpt><trkpt lat="43.750308" lon="12.4866931"><ele>525.0</ele><time>2026-04-19T10:07:18.849Z</time></trkpt><trkpt lat="43.7504007" lon="12.4866907"><ele>521.6</ele><time>2026-04-19T10:07:19.848Z</time></trkpt><trkpt lat="43.7505" lon="12.4867057"><ele>518.2</ele><time>2026-04-19T10:07:20.863Z</time></trkpt><trkpt lat="43.7506054" lon="12.4867246"><ele>514.8</ele><time>2026-04-19T10:07:21.847Z</time></trkpt><trkpt lat="43.7507181" lon="12.4867325"><ele>511.4</ele><time>2026-04-19T10:07:22.848Z</time></trkpt><trkpt lat="43.7508351" lon="12.4867083"><ele>508.0</ele><time>2026-04-19T10:07:23.849Z</time></trkpt><trkpt lat="43.7509517" lon="12.486655"><ele>504.75</ele><time>2026-04-19T10:07:24.853Z</time></trkpt><trkpt lat="43.751072" lon="12.4865791"><ele>501.5</ele><time>2026-04-19T10:07:25.866Z</time></trkpt><trkpt lat="43.7511853" lon="12.4864931"><ele>498.25</ele><time>2026-04-19T10:07:26.851Z</time></trkpt><trkpt lat="43.7512955" lon="12.4864102"><ele>495.0</ele><time>2026-04-19T10:07:27.848Z</time></trkpt><trkpt lat="43.7513999" lon="12.4863427"><ele>495.0</ele><time>2026-04-19T10:07:28.848Z</time></trkpt><trkpt lat="43.7514996" lon="12.4863008"><ele>495.0</ele><time>2026-04-19T10:07:29.859Z</time></trkpt><trkpt lat="43.7516025" lon="12.4862891"><ele>495.0</ele><time>2026-04-19T10:07:30.848Z</time></trkpt><trkpt lat="43.7517129" lon="12.4862968"><ele>495.0</ele><time>2026-04-19T10:07:31.845Z</time></trkpt><trkpt lat="43.7518338" lon="12.4863194"><ele>495.0</ele><time>2026-04-19T10:07:32.849Z</time></trkpt><trkpt lat="43.7519616" lon="12.4863635"><ele>496.0</ele><time>2026-04-19T10:07:33.851Z</time></trkpt><trkpt lat="43.7520897" lon="12.4864544"><ele>497.0</ele><time>2026-04-19T10:07:34.867Z</time></trkpt><trkpt lat="43.7522197" lon="12.4865587"><ele>498.0</ele><time>2026-04-19T10:07:35.849Z</time></trkpt><trkpt lat="43.7523509" lon="12.486701"><ele>498.0</ele><time>2026-04-19T10:07:36.844Z</time></trkpt><trkpt lat="43.752489" lon="12.4868341"><ele>498.0</ele><time>2026-04-19T10:07:37.845Z</time></trkpt><trkpt lat="43.7526336" lon="12.4869349"><ele>498.0</ele><time>2026-04-19T10:07:38.85Z</time></trkpt><trkpt lat="43.7527751" lon="12.4870099"><ele>499.5</ele><time>2026-04-19T10:07:39.853Z</time></trkpt><trkpt lat="43.7529078" lon="12.4870672"><ele>501.0</ele><time>2026-04-19T10:07:40.87Z</time></trkpt><trkpt lat="43.7530252" lon="12.4871217"><ele>502.5</ele><time>2026-04-19T10:07:41.849Z</time></trkpt><trkpt lat="43.7531168" lon="12.4872137"><ele>504.0</ele><time>2026-04-19T10:07:42.847Z</time></trkpt><trkpt lat="43.7531879" lon="12.4873434"><ele>504.0</ele><time>2026-04-19T10:07:43.851Z</time></trkpt><trkpt lat="43.7532424" lon="12.4875225"><ele>504.0</ele><time>2026-04-19T10:07:44.846Z</time></trkpt><trkpt lat="43.7533016" lon="12.4877033"><ele>504.0</ele><time>2026-04-19T10:07:45.844Z</time></trkpt><trkpt lat="43.7533727" lon="12.4878591"><ele>504.0</ele><time>2026-04-19T10:07:46.851Z</time></trkpt><trkpt lat="43.7534562" lon="12.4879891"><ele>509.5</ele><time>2026-04-19T10:07:47.853Z</time></trkpt><trkpt lat="43.7535634" lon="12.4880753"><ele>515.0</ele><time>2026-04-19T10:07:48.846Z</time></trkpt><trkpt lat="43.7536907" lon="12.4881246"><ele>520.5</ele><time>2026-04-19T10:07:49.875Z</time></trkpt><trkpt lat="43.7538233" lon="12.4881479"><ele>526.0</ele><time>2026-04-19T10:07:50.849Z</time></trkpt><trkpt lat="43.7539695" lon="12.4881066"><ele>526.0</ele><time>2026-04-19T10:07:51.852Z</time></trkpt><trkpt lat="43.7541232" lon="12.4880371"><ele>526.0</ele><time>2026-04-19T10:07:52.85Z</time></trkpt><trkpt lat="43.7542815" lon="12.4879661"><ele>526.0</ele><time>2026-04-19T10:07:53.852Z</time></trkpt><trkpt lat="43.754426" lon="12.4879166"><ele>521.5</ele><time>2026-04-19T10:07:54.845Z</time></trkpt><trkpt lat="43.7545558" lon="12.4879126"><ele>517.0</ele><time>2026-04-19T10:07:55.851Z</time></trkpt><trkpt lat="43.7546718" lon="12.4879618"><ele>512.5</ele><time>2026-04-19T10:07:56.852Z</time></trkpt><trkpt lat="43.754781" lon="12.4880577"><ele>508.0</ele><time>2026-04-19T10:07:57.855Z</time></trkpt><trkpt lat="43.7548721" lon="12.4882026"><ele>508.0</ele><time>2026-04-19T10:07:58.872Z</time></trkpt><trkpt lat="43.7549386" lon="12.4883544"><ele>508.0</ele><time>2026-04-19T10:07:59.852Z</time></trkpt><trkpt lat="43.7549751" lon="12.4885236"><ele>508.0</ele><time>2026-04-19T10:08:00.853Z</time></trkpt><trkpt lat="43.7549885" lon="12.488709"><ele>508.0</ele><time>2026-04-19T10:08:01.852Z</time></trkpt><trkpt lat="43.7549771" lon="12.4888952"><ele>511.5</ele><time>2026-04-19T10:08:02.853Z</time></trkpt><trkpt lat="43.7549801" lon="12.4890655"><ele>515.0</ele><time>2026-04-19T10:08:03.863Z</time></trkpt><trkpt lat="43.7550061" lon="12.4892172"><ele>518.5</ele><time>2026-04-19T10:08:04.849Z</time></trkpt><trkpt lat="43.7550683" lon="12.4893557"><ele>522.0</ele><time>2026-04-19T10:08:05.85Z</time></trkpt><trkpt lat="43.7551514" lon="12.4894794"><ele>518.25</ele><time>2026-04-19T10:08:06.848Z</time></trkpt><trkpt lat="43.7552493" lon="12.4895925"><ele>514.5</ele><time>2026-04-19T10:08:07.853Z</time></trkpt><trkpt lat="43.7553574" lon="12.4896912"><ele>510.75</ele><time>2026-04-19T10:08:08.852Z</time></trkpt><trkpt lat="43.7554711" lon="12.4897689"><ele>507.0</ele><time>2026-04-19T10:08:09.853Z</time></trkpt><trkpt lat="43.7555892" lon="12.4898237"><ele>507.0</ele><time>2026-04-19T10:08:10.854Z</time></trkpt><trkpt lat="43.7557093" lon="12.4898619"><ele>507.0</ele><time>2026-04-19T10:08:11.853Z</time></trkpt><trkpt lat="43.7558342" lon="12.4898887"><ele>507.0</ele><time>2026-04-19T10:08:12.86Z</time></trkpt><trkpt lat="43.7559686" lon="12.4899131"><ele>507.0</ele><time>2026-04-19T10:08:13.858Z</time></trkpt><trkpt lat="43.7561156" lon="12.4899462"><ele>509.66666666666663</ele><time>2026-04-19T10:08:14.853Z</time></trkpt><trkpt lat="43.7562731" lon="12.4899848"><ele>512.3333333333333</ele><time>2026-04-19T10:08:15.86Z</time></trkpt><trkpt lat="43.7564345" lon="12.4900329"><ele>515.0</ele><time>2026-04-19T10:08:16.852Z</time></trkpt><trkpt lat="43.7565948" lon="12.4901047"><ele>515.0</ele><time>2026-04-19T10:08:17.871Z</time></trkpt><trkpt lat="43.7567439" lon="12.4901899"><ele>515.0</ele><time>2026-04-19T10:08:18.851Z</time></trkpt><trkpt lat="43.7568879" lon="12.4902811"><ele>515.0</ele><time>2026-04-19T10:08:19.854Z</time></trkpt><trkpt lat="43.7570207" lon="12.4903783"><ele>516.75</ele><time>2026-04-19T10:08:20.853Z</time></trkpt><trkpt lat="43.7571361" lon="12.4904947"><ele>518.5</ele><time>2026-04-19T10:08:21.857Z</time></trkpt><trkpt lat="43.7572335" lon="12.4906459"><ele>520.25</ele><time>2026-04-19T10:08:22.852Z</time></trkpt><trkpt lat="43.7573101" lon="12.4908241"><ele>522.0</ele><time>2026-04-19T10:08:23.854Z</time></trkpt><trkpt lat="43.7573606" lon="12.4910349"><ele>522.0</ele><time>2026-04-19T10:08:24.856Z</time></trkpt><trkpt lat="43.7573839" lon="12.4912541"><ele>522.0</ele><time>2026-04-19T10:08:25.868Z</time></trkpt><trkpt lat="43.757391" lon="12.4914592"><ele>522.0</ele><time>2026-04-19T10:08:26.858Z</time></trkpt><trkpt lat="43.7574089" lon="12.491643"><ele>522.0</ele><time>2026-04-19T10:08:27.86Z</time></trkpt><trkpt lat="43.7574471" lon="12.4918019"><ele>518.8000000000001</ele><time>2026-04-19T10:08:28.857Z</time></trkpt><trkpt lat="43.7575035" lon="12.4919371"><ele>515.6</ele><time>2026-04-19T10:08:29.853Z</time></trkpt><trkpt lat="43.7575764" lon="12.4920408"><ele>512.4000000000001</ele><time>2026-04-19T10:08:30.846Z</time></trkpt><trkpt lat="43.7576593" lon="12.4921092"><ele>509.20000000000005</ele><time>2026-04-19T10:08:31.851Z</time></trkpt><trkpt lat="43.7577471" lon="12.4921419"><ele>506.0</ele><time>2026-04-19T10:08:32.849Z</time></trkpt><trkpt lat="43.7578337" lon="12.4921429"><ele>506.4</ele><time>2026-04-19T10:08:33.85Z</time></trkpt><trkpt lat="43.757922" lon="12.4921186"><ele>506.8</ele><time>2026-04-19T10:08:34.853Z</time></trkpt><trkpt lat="43.758015" lon="12.4920756"><ele>507.19999999999993</ele><time>2026-04-19T10:08:35.851Z</time></trkpt><trkpt lat="43.7581206" lon="12.4920115"><ele>507.59999999999997</ele><time>2026-04-19T10:08:36.853Z</time></trkpt><trkpt lat="43.758232" lon="12.4919348"><ele>508.0</ele><time>2026-04-19T10:08:37.86Z</time></trkpt><trkpt lat="43.7583596" lon="12.4918698"><ele>508.0</ele><time>2026-04-19T10:08:38.852Z</time></trkpt><trkpt lat="43.7585043" lon="12.4918189"><ele>508.0</ele><time>2026-04-19T10:08:39.885Z</time></trkpt><trkpt lat="43.7586514" lon="12.4917948"><ele>508.0</ele><time>2026-04-19T10:08:40.852Z</time></trkpt><trkpt lat="43.7588074" lon="12.4917961"><ele>504.5</ele><time>2026-04-19T10:08:41.865Z</time></trkpt><trkpt lat="43.7589591" lon="12.4918228"><ele>501.0</ele><time>2026-04-19T10:08:42.856Z</time></trkpt><trkpt lat="43.7591045" lon="12.491873"><ele>497.5</ele><time>2026-04-19T10:08:43.85Z</time></trkpt><trkpt lat="43.7592401" lon="12.4919484"><ele>494.0</ele><time>2026-04-19T10:08:44.851Z</time></trkpt><trkpt lat="43.759367" lon="12.4920503"><ele>493.0</ele><time>2026-04-19T10:08:45.844Z</time></trkpt><trkpt lat="43.7594851" lon="12.4921788"><ele>492.0</ele><time>2026-04-19T10:08:46.852Z</time></trkpt><trkpt lat="43.7595971" lon="12.4923209"><ele>491.0</ele><time>2026-04-19T10:08:47.848Z</time></trkpt><trkpt lat="43.7597094" lon="12.4924794"><ele>491.0</ele><time>2026-04-19T10:08:48.898Z</time></trkpt><trkpt lat="43.7598185" lon="12.4926415"><ele>491.0</ele><time>2026-04-19T10:08:49.853Z</time></trkpt><trkpt lat="43.7599283" lon="12.4928114"><ele>491.0</ele><time>2026-04-19T10:08:50.86Z</time></trkpt><trkpt lat="43.7600161" lon="12.4929834"><ele>492.0</ele><time>2026-04-19T10:08:51.855Z</time></trkpt><trkpt lat="43.7600747" lon="12.4931631"><ele>493.0</ele><time>2026-04-19T10:08:52.857Z</time></trkpt><trkpt lat="43.7601086" lon="12.4933484"><ele>494.0</ele><time>2026-04-19T10:08:53.85Z</time></trkpt><trkpt lat="43.7601331" lon="12.4935256"><ele>495.0</ele><time>2026-04-19T10:08:54.853Z</time></trkpt><trkpt lat="43.7601581" lon="12.4936788"><ele>495.8</ele><time>2026-04-19T10:08:55.856Z</time></trkpt><trkpt lat="43.7602008" lon="12.4938057"><ele>496.6</ele><time>2026-04-19T10:08:56.859Z</time></trkpt><trkpt lat="43.7602662" lon="12.4939126"><ele>497.4</ele><time>2026-04-19T10:08:57.854Z</time></trkpt><trkpt lat="43.7603511" lon="12.4940029"><ele>498.2</ele><time>2026-04-19T10:08:58.864Z</time></trkpt><trkpt lat="43.7604602" lon="12.4940792"><ele>499.0</ele><time>2026-04-19T10:08:59.854Z</time></trkpt><trkpt lat="43.760582" lon="12.494151"><ele>499.0</ele><time>2026-04-19T10:09:00.852Z</time></trkpt><trkpt lat="43.7607133" lon="12.4942296"><ele>499.0</ele><time>2026-04-19T10:09:01.854Z</time></trkpt><trkpt lat="43.7608459" lon="12.4943133"><ele>499.0</ele><time>2026-04-19T10:09:02.855Z</time></trkpt><trkpt lat="43.7609776" lon="12.4944071"><ele>499.0</ele><time>2026-04-19T10:09:03.87Z</time></trkpt><trkpt lat="43.7611093" lon="12.4945153"><ele>499.6666666666667</ele><time>2026-04-19T10:09:04.849Z</time></trkpt><trkpt lat="43.761241" lon="12.4946397"><ele>500.33333333333337</ele><time>2026-04-19T10:09:05.849Z</time></trkpt><trkpt lat="43.7613663" lon="12.4947668"><ele>501.0</ele><time>2026-04-19T10:09:06.857Z</time></trkpt><trkpt lat="43.7614837" lon="12.49488"><ele>501.0</ele><time>2026-04-19T10:09:07.859Z</time></trkpt><trkpt lat="43.7616004" lon="12.4949648"><ele>501.0</ele><time>2026-04-19T10:09:08.856Z</time></trkpt><trkpt lat="43.7617265" lon="12.4950151"><ele>501.0</ele><time>2026-04-19T10:09:09.857Z</time></trkpt><trkpt lat="43.7618628" lon="12.4950301"><ele>501.0</ele><time>2026-04-19T10:09:10.874Z</time></trkpt><trkpt lat="43.7619966" lon="12.4950253"><ele>501.6</ele><time>2026-04-19T10:09:11.855Z</time></trkpt><trkpt lat="43.7621272" lon="12.4950094"><ele>502.20000000000005</ele><time>2026-04-19T10:09:12.857Z</time></trkpt><trkpt lat="43.7622361" lon="12.4950181"><ele>502.79999999999995</ele><time>2026-04-19T10:09:13.852Z</time></trkpt><trkpt lat="43.7623176" lon="12.4950656"><ele>503.4</ele><time>2026-04-19T10:09:14.852Z</time></trkpt><trkpt lat="43.7623874" lon="12.4951515"><ele>504.0</ele><time>2026-04-19T10:09:15.852Z</time></trkpt><trkpt lat="43.7624404" lon="12.4952711"><ele>504.0</ele><time>2026-04-19T10:09:16.847Z</time></trkpt><trkpt lat="43.7624895" lon="12.4954004"><ele>504.0</ele><time>2026-04-19T10:09:17.868Z</time></trkpt><trkpt lat="43.7625531" lon="12.4955072"><ele>504.0</ele><time>2026-04-19T10:09:18.853Z</time></trkpt><trkpt lat="43.7626356" lon="12.4955832"><ele>504.0</ele><time>2026-04-19T10:09:19.852Z</time></trkpt><trkpt lat="43.762734" lon="12.4956303"><ele>504.0</ele><time>2026-04-19T10:09:20.855Z</time></trkpt><trkpt lat="43.7628452" lon="12.4956586"><ele>509.25</ele><time>2026-04-19T10:09:21.849Z</time></trkpt><trkpt lat="43.7629659" lon="12.4956807"><ele>514.5</ele><time>2026-04-19T10:09:22.855Z</time></trkpt><trkpt lat="43.7630894" lon="12.4957182"><ele>519.75</ele><time>2026-04-19T10:09:23.858Z</time></trkpt><trkpt lat="43.7632104" lon="12.4957701"><ele>525.0</ele><time>2026-04-19T10:09:24.851Z</time></trkpt><trkpt lat="43.7633287" lon="12.4958303"><ele>525.0</ele><time>2026-04-19T10:09:25.883Z</time></trkpt><trkpt lat="43.7634388" lon="12.495888"><ele>525.0</ele><time>2026-04-19T10:09:26.855Z</time></trkpt><trkpt lat="43.7635423" lon="12.4959496"><ele>525.0</ele><time>2026-04-19T10:09:27.851Z</time></trkpt><trkpt lat="43.7636416" lon="12.4960097"><ele>525.0</ele><time>2026-04-19T10:09:28.852Z</time></trkpt><trkpt lat="43.7637419" lon="12.4960772"><ele>524.25</ele><time>2026-04-19T10:09:29.853Z</time></trkpt><trkpt lat="43.7638498" lon="12.4961636"><ele>523.5</ele><time>2026-04-19T10:09:30.855Z</time></trkpt><trkpt lat="43.7639556" lon="12.4962601"><ele>522.75</ele><time>2026-04-19T10:09:31.858Z</time></trkpt><trkpt lat="43.7640525" lon="12.496354"><ele>522.0</ele><time>2026-04-19T10:09:32.858Z</time></trkpt><trkpt lat="43.7641406" lon="12.496457"><ele>525.0</ele><time>2026-04-19T10:09:33.854Z</time></trkpt><trkpt lat="43.764219" lon="12.496553"><ele>528.0</ele><time>2026-04-19T10:09:34.848Z</time></trkpt><trkpt lat="43.7642834" lon="12.4966446"><ele>531.0</ele><time>2026-04-19T10:09:35.852Z</time></trkpt><trkpt lat="43.7643308" lon="12.4967528"><ele>534.0</ele><time>2026-04-19T10:09:36.849Z</time></trkpt><trkpt lat="43.7643609" lon="12.4968846"><ele>537.0</ele><time>2026-04-19T10:09:37.853Z</time></trkpt><trkpt lat="43.7643658" lon="12.4970416"><ele>529.75</ele><time>2026-04-19T10:09:38.861Z</time></trkpt><trkpt lat="43.7643659" lon="12.4972065"><ele>522.5</ele><time>2026-04-19T10:09:39.855Z</time></trkpt><trkpt lat="43.7643774" lon="12.4973752"><ele>515.25</ele><time>2026-04-19T10:09:40.876Z</time></trkpt><trkpt lat="43.7644086" lon="12.4975373"><ele>508.0</ele><time>2026-04-19T10:09:41.853Z</time></trkpt><trkpt lat="43.7644598" lon="12.4976973"><ele>508.0</ele><time>2026-04-19T10:09:42.851Z</time></trkpt><trkpt lat="43.7645311" lon="12.4978598"><ele>508.0</ele><time>2026-04-19T10:09:43.85Z</time></trkpt><trkpt lat="43.7646137" lon="12.4980221"><ele>508.0</ele><time>2026-04-19T10:09:44.856Z</time></trkpt><trkpt lat="43.7647022" lon="12.4981887"><ele>508.0</ele><time>2026-04-19T10:09:45.849Z</time></trkpt><trkpt lat="43.764791" lon="12.4983635"><ele>511.5</ele><time>2026-04-19T10:09:46.849Z</time></trkpt><trkpt lat="43.764875" lon="12.4985373"><ele>515.0</ele><time>2026-04-19T10:09:47.852Z</time></trkpt><trkpt lat="43.7649556" lon="12.4987114"><ele>518.5</ele><time>2026-04-19T10:09:48.85Z</time></trkpt><trkpt lat="43.7650367" lon="12.4988788"><ele>522.0</ele><time>2026-04-19T10:09:49.845Z</time></trkpt><trkpt lat="43.7651229" lon="12.499036"><ele>515.5</ele><time>2026-04-19T10:09:50.858Z</time></trkpt><trkpt lat="43.7652161" lon="12.4991722"><ele>509.0</ele><time>2026-04-19T10:09:51.844Z</time></trkpt><trkpt lat="43.7653074" lon="12.4993006"><ele>502.5</ele><time>2026-04-19T10:09:52.845Z</time></trkpt><trkpt lat="43.7653896" lon="12.4994309"><ele>496.0</ele><time>2026-04-19T10:09:53.844Z</time></trkpt><trkpt lat="43.7654572" lon="12.4995737"><ele>499.0</ele><time>2026-04-19T10:09:54.848Z</time></trkpt><trkpt lat="43.7655083" lon="12.4997263"><ele>502.0</ele><time>2026-04-19T10:09:55.844Z</time></trkpt><trkpt lat="43.765545" lon="12.4998838"><ele>505.0</ele><time>2026-04-19T10:09:56.851Z</time></trkpt><trkpt lat="43.7655777" lon="12.5000429"><ele>508.0</ele><time>2026-04-19T10:09:57.844Z</time></trkpt><trkpt lat="43.7656143" lon="12.5002114"><ele>508.0</ele><time>2026-04-19T10:09:58.854Z</time></trkpt><trkpt lat="43.7656611" lon="12.5003856"><ele>508.0</ele><time>2026-04-19T10:09:59.85Z</time></trkpt><trkpt lat="43.7657202" lon="12.5005645"><ele>508.0</ele><time>2026-04-19T10:10:00.851Z</time></trkpt><trkpt lat="43.765786" lon="12.5007384"><ele>508.0</ele><time>2026-04-19T10:10:01.855Z</time></trkpt><trkpt lat="43.7658554" lon="12.5009007"><ele>507.25</ele><time>2026-04-19T10:10:02.851Z</time></trkpt><trkpt lat="43.7659249" lon="12.5010513"><ele>506.5</ele><time>2026-04-19T10:10:03.864Z</time></trkpt><trkpt lat="43.7660013" lon="12.5011811"><ele>505.75</ele><time>2026-04-19T10:10:04.851Z</time></trkpt><trkpt lat="43.7660893" lon="12.5012894"><ele>505.0</ele><time>2026-04-19T10:10:05.851Z</time></trkpt><trkpt lat="43.766185" lon="12.5013783"><ele>506.4</ele><time>2026-04-19T10:10:06.855Z</time></trkpt><trkpt lat="43.766269" lon="12.5014704"><ele>507.8</ele><time>2026-04-19T10:10:07.849Z</time></trkpt><trkpt lat="43.766339" lon="12.5015772"><ele>509.20000000000005</ele><time>2026-04-19T10:10:08.869Z</time></trkpt><trkpt lat="43.76636" lon="12.5017137"><ele>510.6</ele><time>2026-04-19T10:10:09.848Z</time></trkpt><trkpt lat="43.7663529" lon="12.5018723"><ele>512.0</ele><time>2026-04-19T10:10:10.847Z</time></trkpt><trkpt lat="43.766322" lon="12.5020462"><ele>510.5</ele><time>2026-04-19T10:10:11.853Z</time></trkpt><trkpt lat="43.7662719" lon="12.5022288"><ele>509.0</ele><time>2026-04-19T10:10:12.847Z</time></trkpt><trkpt lat="43.7662047" lon="12.5023879"><ele>507.5</ele><time>2026-04-19T10:10:13.868Z</time></trkpt><trkpt lat="43.7661517" lon="12.5025181"><ele>506.0</ele><time>2026-04-19T10:10:14.849Z</time></trkpt><trkpt lat="43.7661352" lon="12.5026416"><ele>506.0</ele><time>2026-04-19T10:10:15.849Z</time></trkpt><trkpt lat="43.7661483" lon="12.5027569"><ele>506.0</ele><time>2026-04-19T10:10:16.857Z</time></trkpt><trkpt lat="43.7661967" lon="12.5028585"><ele>506.0</ele><time>2026-04-19T10:10:17.853Z</time></trkpt><trkpt lat="43.7662759" lon="12.5029541"><ele>506.0</ele><time>2026-04-19T10:10:18.848Z</time></trkpt><trkpt lat="43.7663547" lon="12.5030465"><ele>506.0</ele><time>2026-04-19T10:10:19.869Z</time></trkpt><trkpt lat="43.7664278" lon="12.5031413"><ele>502.4</ele><time>2026-04-19T10:10:20.853Z</time></trkpt><trkpt lat="43.7664961" lon="12.5032514"><ele>498.8</ele><time>2026-04-19T10:10:21.85Z</time></trkpt><trkpt lat="43.766555" lon="12.5033773"><ele>495.19999999999993</ele><time>2026-04-19T10:10:22.846Z</time></trkpt><trkpt lat="43.7666019" lon="12.5035206"><ele>491.59999999999997</ele><time>2026-04-19T10:10:23.844Z</time></trkpt><trkpt lat="43.7666409" lon="12.5036693"><ele>488.0</ele><time>2026-04-19T10:10:24.849Z</time></trkpt><trkpt lat="43.7666634" lon="12.5038324"><ele>484.2</ele><time>2026-04-19T10:10:25.851Z</time></trkpt><trkpt lat="43.7666779" lon="12.5039696"><ele>480.4</ele><time>2026-04-19T10:10:26.854Z</time></trkpt><trkpt lat="43.7666981" lon="12.504098"><ele>476.59999999999997</ele><time>2026-04-19T10:10:27.862Z</time></trkpt><trkpt lat="43.7667285" lon="12.5041847"><ele>472.79999999999995</ele><time>2026-04-19T10:10:28.847Z</time></trkpt><trkpt lat="43.7667887" lon="12.5042796"><ele>469.0</ele><time>2026-04-19T10:10:30.85Z</time></trkpt><trkpt lat="43.7667439" lon="12.5040935"><ele>469.0</ele><time>2026-04-19T10:11:19.867Z</time></trkpt><trkpt lat="43.7667119" lon="12.5039699"><ele>469.0</ele><time>2026-04-19T10:11:20.848Z</time></trkpt><trkpt lat="43.7666943" lon="12.5038381"><ele>469.0</ele><time>2026-04-19T10:11:21.871Z</time></trkpt><trkpt lat="43.7666733" lon="12.5037015"><ele>469.0</ele><time>2026-04-19T10:11:22.843Z</time></trkpt><trkpt lat="43.7666412" lon="12.5035554"><ele>469.0</ele><time>2026-04-19T10:11:23.858Z</time></trkpt><trkpt lat="43.7666061" lon="12.5034132"><ele>473.75</ele><time>2026-04-19T10:11:24.845Z</time></trkpt><trkpt lat="43.7665486" lon="12.5032769"><ele>478.5</ele><time>2026-04-19T10:11:25.849Z</time></trkpt><trkpt lat="43.7664736" lon="12.5031482"><ele>483.25</ele><time>2026-04-19T10:11:26.853Z</time></trkpt><trkpt lat="43.766378" lon="12.5030112"><ele>488.0</ele><time>2026-04-19T10:11:27.852Z</time></trkpt><trkpt lat="43.7662804" lon="12.5028897"><ele>491.59999999999997</ele><time>2026-04-19T10:11:28.846Z</time></trkpt><trkpt lat="43.7661974" lon="12.5027652"><ele>495.19999999999993</ele><time>2026-04-19T10:11:29.853Z</time></trkpt><trkpt lat="43.7661592" lon="12.5026365"><ele>498.8</ele><time>2026-04-19T10:11:30.844Z</time></trkpt><trkpt lat="43.7661633" lon="12.5025178"><ele>502.4</ele><time>2026-04-19T10:11:31.844Z</time></trkpt><trkpt lat="43.7661956" lon="12.5023926"><ele>506.0</ele><time>2026-04-19T10:11:32.856Z</time></trkpt><trkpt lat="43.7662401" lon="12.5022437"><ele>507.5</ele><time>2026-04-19T10:11:33.852Z</time></trkpt><trkpt lat="43.7662894" lon="12.5020786"><ele>509.0</ele><time>2026-04-19T10:11:34.861Z</time></trkpt><trkpt lat="43.7663304" lon="12.5019159"><ele>510.5</ele><time>2026-04-19T10:11:35.85Z</time></trkpt><trkpt lat="43.7663609" lon="12.5017626"><ele>512.0</ele><time>2026-04-19T10:11:36.853Z</time></trkpt><trkpt lat="43.7663574" lon="12.5016165"><ele>512.0</ele><time>2026-04-19T10:11:37.849Z</time></trkpt><trkpt lat="43.7663248" lon="12.5014948"><ele>512.0</ele><time>2026-04-19T10:11:38.85Z</time></trkpt><trkpt lat="43.7662619" lon="12.5013908"><ele>512.0</ele><time>2026-04-19T10:11:39.856Z</time></trkpt><trkpt lat="43.7661673" lon="12.5013005"><ele>512.0</ele><time>2026-04-19T10:11:40.855Z</time></trkpt><trkpt lat="43.76607" lon="12.5012095"><ele>512.0</ele><time>2026-04-19T10:11:41.852Z</time></trkpt><trkpt lat="43.7659808" lon="12.5011031"><ele>510.6</ele><time>2026-04-19T10:11:42.848Z</time></trkpt><trkpt lat="43.7659164" lon="12.5009781"><ele>509.20000000000005</ele><time>2026-04-19T10:11:43.847Z</time></trkpt><trkpt lat="43.7658608" lon="12.5008725"><ele>507.8</ele><time>2026-04-19T10:11:44.854Z</time></trkpt><trkpt lat="43.7658195" lon="12.5007888"><ele>506.4</ele><time>2026-04-19T10:11:45.849Z</time></trkpt><trkpt lat="43.7657867" lon="12.5006641"><ele>505.0</ele><time>2026-04-19T10:11:47.848Z</time></trkpt><trkpt lat="43.7658523" lon="12.500601"><ele>505.0</ele><time>2026-04-19T10:11:50.853Z</time></trkpt><trkpt lat="43.7659729" lon="12.5006677"><ele>505.0</ele><time>2026-04-19T10:11:52.863Z</time></trkpt><trkpt lat="43.7660498" lon="12.5007235"><ele>505.0</ele><time>2026-04-19T10:11:53.86Z</time></trkpt><trkpt lat="43.7661326" lon="12.5007881"><ele>505.0</ele><time>2026-04-19T10:11:54.852Z</time></trkpt><trkpt lat="43.7662128" lon="12.5008727"><ele>505.0</ele><time>2026-04-19T10:11:55.853Z</time></trkpt><trkpt lat="43.7662773" lon="12.5009559"><ele>506.4</ele><time>2026-04-19T10:11:56.857Z</time></trkpt><trkpt lat="43.7663322" lon="12.5010303"><ele>507.8</ele><time>2026-04-19T10:11:57.854Z</time></trkpt><trkpt lat="43.7663926" lon="12.501113"><ele>509.20000000000005</ele><time>2026-04-19T10:11:58.849Z</time></trkpt><trkpt lat="43.7664623" lon="12.501207"><ele>510.6</ele><time>2026-04-19T10:11:59.862Z</time></trkpt><trkpt lat="43.7665329" lon="12.5012959"><ele>512.0</ele><time>2026-04-19T10:12:00.849Z</time></trkpt><trkpt lat="43.7666162" lon="12.5013682"><ele>512.0</ele><time>2026-04-19T10:12:01.849Z</time></trkpt><trkpt lat="43.7667233" lon="12.5013969"><ele>512.0</ele><time>2026-04-19T10:12:02.852Z</time></trkpt><trkpt lat="43.7668445" lon="12.5013743"><ele>512.0</ele><time>2026-04-19T10:12:03.854Z</time></trkpt><trkpt lat="43.7669532" lon="12.5013381"><ele>512.0</ele><time>2026-04-19T10:12:04.855Z</time></trkpt><trkpt lat="43.767047" lon="12.5013133"><ele>512.0</ele><time>2026-04-19T10:12:05.855Z</time></trkpt><trkpt lat="43.7671371" lon="12.5013185"><ele>512.4</ele><time>2026-04-19T10:12:06.864Z</time></trkpt><trkpt lat="43.7672305" lon="12.5013552"><ele>512.8000000000001</ele><time>2026-04-19T10:12:07.852Z</time></trkpt><trkpt lat="43.7673211" lon="12.501398"><ele>513.2</ele><time>2026-04-19T10:12:08.852Z</time></trkpt><trkpt lat="43.7674209" lon="12.5014141"><ele>513.6</ele><time>2026-04-19T10:12:09.847Z</time></trkpt><trkpt lat="43.7675255" lon="12.501395"><ele>514.0</ele><time>2026-04-19T10:12:10.849Z</time></trkpt><trkpt lat="43.7676429" lon="12.50134"><ele>511.2</ele><time>2026-04-19T10:12:11.849Z</time></trkpt><trkpt lat="43.7677688" lon="12.5012806"><ele>508.4</ele><time>2026-04-19T10:12:12.852Z</time></trkpt><trkpt lat="43.767888" lon="12.5012453"><ele>505.6</ele><time>2026-04-19T10:12:13.852Z</time></trkpt><trkpt lat="43.7679866" lon="12.5012395"><ele>502.8</ele><time>2026-04-19T10:12:14.87Z</time></trkpt><trkpt lat="43.7680754" lon="12.5012575"><ele>500.0</ele><time>2026-04-19T10:12:15.86Z</time></trkpt><trkpt lat="43.7681545" lon="12.5012977"><ele>500.0</ele><time>2026-04-19T10:12:16.854Z</time></trkpt><trkpt lat="43.7682127" lon="12.5013609"><ele>500.0</ele><time>2026-04-19T10:12:17.854Z</time></trkpt><trkpt lat="43.7682537" lon="12.5014567"><ele>500.0</ele><time>2026-04-19T10:12:18.857Z</time></trkpt><trkpt lat="43.7682755" lon="12.5015996"><ele>500.0</ele><time>2026-04-19T10:12:19.85Z</time></trkpt><trkpt lat="43.7682942" lon="12.5017812"><ele>500.0</ele><time>2026-04-19T10:12:20.856Z</time></trkpt><trkpt lat="43.7682928" lon="12.5019877"><ele>499.25</ele><time>2026-04-19T10:12:21.849Z</time></trkpt><trkpt lat="43.7682808" lon="12.5021944"><ele>498.5</ele><time>2026-04-19T10:12:22.845Z</time></trkpt><trkpt lat="43.7682804" lon="12.5023709"><ele>497.75</ele><time>2026-04-19T10:12:23.848Z</time></trkpt><trkpt lat="43.7682931" lon="12.50253"><ele>497.0</ele><time>2026-04-19T10:12:24.845Z</time></trkpt><trkpt lat="43.7683256" lon="12.5026789"><ele>497.0</ele><time>2026-04-19T10:12:25.868Z</time></trkpt><trkpt lat="43.7683654" lon="12.5028156"><ele>497.0</ele><time>2026-04-19T10:12:26.849Z</time></trkpt><trkpt lat="43.7684363" lon="12.502953"><ele>497.0</ele><time>2026-04-19T10:12:27.849Z</time></trkpt><trkpt lat="43.7685168" lon="12.5030754"><ele>497.0</ele><time>2026-04-19T10:12:28.847Z</time></trkpt><trkpt lat="43.7685885" lon="12.5031852"><ele>495.5</ele><time>2026-04-19T10:12:29.851Z</time></trkpt><trkpt lat="43.7686497" lon="12.503274"><ele>494.0</ele><time>2026-04-19T10:12:30.849Z</time></trkpt><trkpt lat="43.7687187" lon="12.5033677"><ele>492.5</ele><time>2026-04-19T10:12:32.856Z</time></trkpt><trkpt lat="43.7688738" lon="12.5034751"><ele>491.0</ele><time>2026-04-19T10:12:54.857Z</time></trkpt><trkpt lat="43.7689592" lon="12.5035193"><ele>490.99999999999994</ele><time>2026-04-19T10:12:55.853Z</time></trkpt><trkpt lat="43.769034" lon="12.5035596"><ele>491.0</ele><time>2026-04-19T10:12:56.855Z</time></trkpt><trkpt lat="43.7691041" lon="12.5035852"><ele>491.0</ele><time>2026-04-19T10:12:57.854Z</time></trkpt><trkpt lat="43.7691757" lon="12.5036072"><ele>491.0</ele><time>2026-04-19T10:12:58.851Z</time></trkpt><trkpt lat="43.7692581" lon="12.5036249"><ele>490.99999999999994</ele><time>2026-04-19T10:12:59.85Z</time></trkpt><trkpt lat="43.7693518" lon="12.5036409"><ele>491.0</ele><time>2026-04-19T10:13:00.852Z</time></trkpt><trkpt lat="43.7694467" lon="12.5036546"><ele>490.99999999999994</ele><time>2026-04-19T10:13:01.854Z</time></trkpt><trkpt lat="43.7695339" lon="12.5036592"><ele>491.0</ele><time>2026-04-19T10:13:02.855Z</time></trkpt><trkpt lat="43.7696198" lon="12.5036595"><ele>491.0</ele><time>2026-04-19T10:13:03.853Z</time></trkpt><trkpt lat="43.7697041" lon="12.5036632"><ele>491.0</ele><time>2026-04-19T10:13:04.85Z</time></trkpt><trkpt lat="43.7697775" lon="12.5036797"><ele>490.99999999999994</ele><time>2026-04-19T10:13:05.854Z</time></trkpt><trkpt lat="43.7698469" lon="12.503713"><ele>491.0</ele><time>2026-04-19T10:13:06.853Z</time></trkpt><trkpt lat="43.7699285" lon="12.5037789"><ele>491.0</ele><time>2026-04-19T10:13:07.854Z</time></trkpt><trkpt lat="43.7700075" lon="12.5038466"><ele>491.0</ele><time>2026-04-19T10:13:08.846Z</time></trkpt><trkpt lat="43.7700783" lon="12.503904"><ele>491.0</ele><time>2026-04-19T10:13:09.845Z</time></trkpt><trkpt lat="43.7701589" lon="12.5039535"><ele>491.0</ele><time>2026-04-19T10:13:10.848Z</time></trkpt><trkpt lat="43.7702497" lon="12.5039928"><ele>491.0</ele><time>2026-04-19T10:13:11.852Z</time></trkpt><trkpt lat="43.7703399" lon="12.5040269"><ele>490.66666666666663</ele><time>2026-04-19T10:13:12.858Z</time></trkpt><trkpt lat="43.7704207" lon="12.504064"><ele>490.3333333333333</ele><time>2026-04-19T10:13:13.857Z</time></trkpt><trkpt lat="43.7704905" lon="12.5041073"><ele>490.0</ele><time>2026-04-19T10:13:14.889Z</time></trkpt><trkpt lat="43.7705548" lon="12.5041598"><ele>489.66666666666663</ele><time>2026-04-19T10:13:15.854Z</time></trkpt><trkpt lat="43.7706301" lon="12.5042329"><ele>489.3333333333333</ele><time>2026-04-19T10:13:16.859Z</time></trkpt><trkpt lat="43.7707145" lon="12.5043224"><ele>489.0</ele><time>2026-04-19T10:13:17.855Z</time></trkpt><trkpt lat="43.7707929" lon="12.5044007"><ele>489.0</ele><time>2026-04-19T10:13:18.852Z</time></trkpt><trkpt lat="43.7708611" lon="12.5044622"><ele>489.0</ele><time>2026-04-19T10:13:19.851Z</time></trkpt><trkpt lat="43.7709214" lon="12.5044995"><ele>489.0</ele><time>2026-04-19T10:13:20.852Z</time></trkpt><trkpt lat="43.7710381" lon="12.504544"><ele>489.0</ele><time>2026-04-19T10:13:22.851Z</time></trkpt><trkpt lat="43.7711013" lon="12.5045564"><ele>489.0</ele><time>2026-04-19T10:13:23.866Z</time></trkpt><trkpt lat="43.7711669" lon="12.5045692"><ele>489.0</ele><time>2026-04-19T10:13:24.852Z</time></trkpt><trkpt lat="43.7712342" lon="12.5045882"><ele>488.3333333333333</ele><time>2026-04-19T10:13:25.849Z</time></trkpt><trkpt lat="43.7713004" lon="12.5046072"><ele>487.66666666666663</ele><time>2026-04-19T10:13:26.858Z</time></trkpt><trkpt lat="43.7713715" lon="12.5046295"><ele>487.0</ele><time>2026-04-19T10:13:27.849Z</time></trkpt><trkpt lat="43.7714444" lon="12.5046517"><ele>486.3333333333333</ele><time>2026-04-19T10:13:28.871Z</time></trkpt><trkpt lat="43.7715127" lon="12.5046704"><ele>485.66666666666663</ele><time>2026-04-19T10:13:29.848Z</time></trkpt><trkpt lat="43.7715916" lon="12.5046836"><ele>485.0</ele><time>2026-04-19T10:13:30.847Z</time></trkpt><trkpt lat="43.7716848" lon="12.5046935"><ele>485.0</ele><time>2026-04-19T10:13:31.852Z</time></trkpt><trkpt lat="43.7717889" lon="12.5046979"><ele>485.0</ele><time>2026-04-19T10:13:32.85Z</time></trkpt><trkpt lat="43.7718888" lon="12.5047004"><ele>485.0</ele><time>2026-04-19T10:13:33.845Z</time></trkpt><trkpt lat="43.7719697" lon="12.5047044"><ele>485.0</ele><time>2026-04-19T10:13:34.87Z</time></trkpt><trkpt lat="43.7720698" lon="12.5047166"><ele>485.0</ele><time>2026-04-19T10:13:36.856Z</time></trkpt><trkpt lat="43.7721535" lon="12.5047487"><ele>486.99999999999994</ele><time>2026-04-19T10:13:38.855Z</time></trkpt><trkpt lat="43.7722586" lon="12.5047948"><ele>489.0</ele><time>2026-04-19T10:13:40.856Z</time></trkpt><trkpt lat="43.7723771" lon="12.5048454"><ele>491.0</ele><time>2026-04-19T10:13:42.852Z</time></trkpt><trkpt lat="43.7724382" lon="12.5048813"><ele>493.0</ele><time>2026-04-19T10:13:43.852Z</time></trkpt><trkpt lat="43.7724997" lon="12.5049328"><ele>494.99999999999994</ele><time>2026-04-19T10:13:44.856Z</time></trkpt><trkpt lat="43.7725629" lon="12.5049889"><ele>497.0</ele><time>2026-04-19T10:13:45.849Z</time></trkpt><trkpt lat="43.7726236" lon="12.50503"><ele>496.16666666666663</ele><time>2026-04-19T10:13:46.869Z</time></trkpt><trkpt lat="43.7727528" lon="12.5050603"><ele>495.3333333333333</ele><time>2026-04-19T10:13:48.854Z</time></trkpt><trkpt lat="43.772828" lon="12.5050625"><ele>494.5</ele><time>2026-04-19T10:13:49.856Z</time></trkpt><trkpt lat="43.7729092" lon="12.505043"><ele>493.66666666666663</ele><time>2026-04-19T10:13:50.849Z</time></trkpt><trkpt lat="43.7729761" lon="12.5050232"><ele>492.8333333333333</ele><time>2026-04-19T10:13:51.873Z</time></trkpt><trkpt lat="43.7730502" lon="12.5049876"><ele>492.0</ele><time>2026-04-19T10:13:53.846Z</time></trkpt><trkpt lat="43.7731228" lon="12.5049411"><ele>492.0</ele><time>2026-04-19T10:13:55.86Z</time></trkpt><trkpt lat="43.7731959" lon="12.5049058"><ele>492.0</ele><time>2026-04-19T10:13:56.849Z</time></trkpt><trkpt lat="43.7732806" lon="12.504868"><ele>492.0</ele><time>2026-04-19T10:13:57.856Z</time></trkpt><trkpt lat="43.7733602" lon="12.504832"><ele>492.0</ele><time>2026-04-19T10:13:58.851Z</time></trkpt><trkpt lat="43.773441" lon="12.5047967"><ele>492.0</ele><time>2026-04-19T10:13:59.847Z</time></trkpt><trkpt lat="43.7735194" lon="12.5047611"><ele>492.0</ele><time>2026-04-19T10:14:00.848Z</time></trkpt><trkpt lat="43.7735966" lon="12.5047278"><ele>492.20000000000005</ele><time>2026-04-19T10:14:01.852Z</time></trkpt><trkpt lat="43.7736757" lon="12.5046952"><ele>492.40000000000003</ele><time>2026-04-19T10:14:02.852Z</time></trkpt><trkpt lat="43.7737556" lon="12.5046587"><ele>492.59999999999997</ele><time>2026-04-19T10:14:03.847Z</time></trkpt><trkpt lat="43.7738391" lon="12.5046162"><ele>492.79999999999995</ele><time>2026-04-19T10:14:04.842Z</time></trkpt><trkpt lat="43.7739343" lon="12.5045617"><ele>493.0</ele><time>2026-04-19T10:14:05.846Z</time></trkpt><trkpt lat="43.7740291" lon="12.5045072"><ele>493.4</ele><time>2026-04-19T10:14:06.847Z</time></trkpt><trkpt lat="43.7741178" lon="12.5044549"><ele>493.79999999999995</ele><time>2026-04-19T10:14:07.842Z</time></trkpt><trkpt lat="43.7742039" lon="12.5044018"><ele>494.2</ele><time>2026-04-19T10:14:08.842Z</time></trkpt><trkpt lat="43.7742774" lon="12.504327"><ele>494.6</ele><time>2026-04-19T10:14:09.844Z</time></trkpt><trkpt lat="43.7743351" lon="12.504237"><ele>495.0</ele><time>2026-04-19T10:14:10.848Z</time></trkpt><trkpt lat="43.7743701" lon="12.5041353"><ele>495.0</ele><time>2026-04-19T10:14:11.849Z</time></trkpt><trkpt lat="43.7744025" lon="12.5040213"><ele>495.0</ele><time>2026-04-19T10:14:12.852Z</time></trkpt><trkpt lat="43.7744279" lon="12.5039104"><ele>495.0</ele><time>2026-04-19T10:14:13.852Z</time></trkpt><trkpt lat="43.7744407" lon="12.5038035"><ele>495.0</ele><time>2026-04-19T10:14:14.857Z</time></trkpt><trkpt lat="43.7744501" lon="12.5037153"><ele>495.0</ele><time>2026-04-19T10:14:15.841Z</time></trkpt><trkpt lat="43.7745013" lon="12.5036361"><ele>495.0</ele><time>2026-04-19T10:14:17.847Z</time></trkpt><trkpt lat="43.7746101" lon="12.5035935"><ele>488.2</ele><time>2026-04-19T10:14:19.846Z</time></trkpt><trkpt lat="43.7746871" lon="12.5035783"><ele>481.4</ele><time>2026-04-19T10:14:20.847Z</time></trkpt><trkpt lat="43.7747844" lon="12.503557"><ele>474.6</ele><time>2026-04-19T10:14:21.841Z</time></trkpt><trkpt lat="43.7748962" lon="12.5035364"><ele>467.8</ele><time>2026-04-19T10:14:22.848Z</time></trkpt><trkpt lat="43.7750012" lon="12.5035238"><ele>461.0</ele><time>2026-04-19T10:14:23.847Z</time></trkpt><trkpt lat="43.7750907" lon="12.5035232"><ele>460.99999999999994</ele><time>2026-04-19T10:14:24.84Z</time></trkpt><trkpt lat="43.7751762" lon="12.5035298"><ele>461.0</ele><time>2026-04-19T10:14:25.842Z</time></trkpt><trkpt lat="43.7752577" lon="12.5035494"><ele>461.0</ele><time>2026-04-19T10:14:26.845Z</time></trkpt><trkpt lat="43.7753257" lon="12.5035742"><ele>461.0</ele><time>2026-04-19T10:14:27.842Z</time></trkpt><trkpt lat="43.77539" lon="12.5035903"><ele>460.99999999999994</ele><time>2026-04-19T10:14:28.842Z</time></trkpt><trkpt lat="43.7755174" lon="12.5035206"><ele>461.0</ele><time>2026-04-19T10:14:30.849Z</time></trkpt><trkpt lat="43.7755945" lon="12.5034578"><ele>462.20000000000005</ele><time>2026-04-19T10:14:31.86Z</time></trkpt><trkpt lat="43.7756691" lon="12.5033944"><ele>463.40000000000003</ele><time>2026-04-19T10:14:32.845Z</time></trkpt><trkpt lat="43.7757345" lon="12.5033041"><ele>464.6</ele><time>2026-04-19T10:14:33.844Z</time></trkpt><trkpt lat="43.7757666" lon="12.5032054"><ele>465.8</ele><time>2026-04-19T10:14:34.845Z</time></trkpt><trkpt lat="43.7757964" lon="12.5030729"><ele>467.0</ele><time>2026-04-19T10:14:35.845Z</time></trkpt><trkpt lat="43.7758258" lon="12.5029273"><ele>463.40000000000003</ele><time>2026-04-19T10:14:36.846Z</time></trkpt><trkpt lat="43.775841" lon="12.5027841"><ele>459.80000000000007</ele><time>2026-04-19T10:14:37.847Z</time></trkpt><trkpt lat="43.7758528" lon="12.5026551"><ele>456.2</ele><time>2026-04-19T10:14:38.848Z</time></trkpt><trkpt lat="43.7758712" lon="12.5025432"><ele>452.6</ele><time>2026-04-19T10:14:39.846Z</time></trkpt><trkpt lat="43.7759081" lon="12.5024344"><ele>449.0</ele><time>2026-04-19T10:14:40.871Z</time></trkpt><trkpt lat="43.7759593" lon="12.5023155"><ele>449.0</ele><time>2026-04-19T10:14:41.847Z</time></trkpt><trkpt lat="43.7760124" lon="12.5022047"><ele>448.99999999999994</ele><time>2026-04-19T10:14:42.844Z</time></trkpt><trkpt lat="43.7760598" lon="12.5021219"><ele>449.0</ele><time>2026-04-19T10:14:43.841Z</time></trkpt><trkpt lat="43.7761033" lon="12.5020499"><ele>449.0</ele><time>2026-04-19T10:14:44.843Z</time></trkpt><trkpt lat="43.7761493" lon="12.5019813"><ele>448.99999999999994</ele><time>2026-04-19T10:14:45.84Z</time></trkpt><trkpt lat="43.7762025" lon="12.5019173"><ele>449.0</ele><time>2026-04-19T10:14:46.848Z</time></trkpt><trkpt lat="43.7762605" lon="12.501869"><ele>449.0</ele><time>2026-04-19T10:14:47.843Z</time></trkpt><trkpt lat="43.7763206" lon="12.501834"><ele>447.1428571428571</ele><time>2026-04-19T10:14:48.868Z</time></trkpt><trkpt lat="43.776389" lon="12.5018105"><ele>445.2857142857142</ele><time>2026-04-19T10:14:49.847Z</time></trkpt><trkpt lat="43.7764657" lon="12.5017945"><ele>443.42857142857144</ele><time>2026-04-19T10:14:50.847Z</time></trkpt><trkpt lat="43.7765432" lon="12.5017889"><ele>441.57142857142856</ele><time>2026-04-19T10:14:51.845Z</time></trkpt><trkpt lat="43.7766207" lon="12.5017882"><ele>439.7142857142857</ele><time>2026-04-19T10:14:52.844Z</time></trkpt><trkpt lat="43.7766933" lon="12.5017884"><ele>437.8571428571429</ele><time>2026-04-19T10:14:53.848Z</time></trkpt><trkpt lat="43.7767595" lon="12.5017734"><ele>436.0</ele><time>2026-04-19T10:14:54.844Z</time></trkpt><trkpt lat="43.7768224" lon="12.5017498"><ele>433.1666666666667</ele><time>2026-04-19T10:14:55.865Z</time></trkpt><trkpt lat="43.7768837" lon="12.5017264"><ele>430.33333333333337</ele><time>2026-04-19T10:14:56.845Z</time></trkpt><trkpt lat="43.7769473" lon="12.5017112"><ele>427.5</ele><time>2026-04-19T10:14:57.849Z</time></trkpt><trkpt lat="43.777069" lon="12.5016909"><ele>424.66666666666663</ele><time>2026-04-19T10:14:59.844Z</time></trkpt><trkpt lat="43.7771712" lon="12.5016925"><ele>421.8333333333333</ele><time>2026-04-19T10:15:01.845Z</time></trkpt><trkpt lat="43.7772608" lon="12.5017232"><ele>419.0</ele><time>2026-04-19T10:15:03.85Z</time></trkpt><trkpt lat="43.7773477" lon="12.5017671"><ele>418.99999999999994</ele><time>2026-04-19T10:15:05.848Z</time></trkpt><trkpt lat="43.7774233" lon="12.5018274"><ele>419.0</ele><time>2026-04-19T10:15:07.844Z</time></trkpt><trkpt lat="43.7774654" lon="12.5019031"><ele>419.0</ele><time>2026-04-19T10:15:10.875Z</time></trkpt><trkpt lat="43.777482" lon="12.5019903"><ele>419.0</ele><time>2026-04-19T10:15:11.855Z</time></trkpt><trkpt lat="43.7775011" lon="12.5020903"><ele>418.99999999999994</ele><time>2026-04-19T10:15:12.845Z</time></trkpt><trkpt lat="43.7775173" lon="12.5022154"><ele>419.0</ele><time>2026-04-19T10:15:13.85Z</time></trkpt><trkpt lat="43.7775236" lon="12.5023453"><ele>420.6</ele><time>2026-04-19T10:15:14.845Z</time></trkpt><trkpt lat="43.777522" lon="12.5024784"><ele>422.2</ele><time>2026-04-19T10:15:15.844Z</time></trkpt><trkpt lat="43.7775153" lon="12.5026252"><ele>423.80000000000007</ele><time>2026-04-19T10:15:16.84Z</time></trkpt><trkpt lat="43.7775041" lon="12.5027835"><ele>425.40000000000003</ele><time>2026-04-19T10:15:17.851Z</time></trkpt><trkpt lat="43.7774868" lon="12.5029404"><ele>427.0</ele><time>2026-04-19T10:15:18.847Z</time></trkpt><trkpt lat="43.7774578" lon="12.5030956"><ele>428.0</ele><time>2026-04-19T10:15:19.883Z</time></trkpt><trkpt lat="43.7774166" lon="12.5032449"><ele>429.0</ele><time>2026-04-19T10:15:20.847Z</time></trkpt><trkpt lat="43.77737" lon="12.5033972"><ele>430.0</ele><time>2026-04-19T10:15:21.845Z</time></trkpt><trkpt lat="43.7773243" lon="12.5035473"><ele>431.0</ele><time>2026-04-19T10:15:22.85Z</time></trkpt><trkpt lat="43.7772863" lon="12.5036926"><ele>432.0</ele><time>2026-04-19T10:15:23.846Z</time></trkpt><trkpt lat="43.7772875" lon="12.5038543"><ele>433.0</ele><time>2026-04-19T10:15:24.847Z</time></trkpt><trkpt lat="43.7772971" lon="12.5040316"><ele>434.0</ele><time>2026-04-19T10:15:25.845Z</time></trkpt><trkpt lat="43.7772991" lon="12.5042271"><ele>435.0</ele><time>2026-04-19T10:15:26.852Z</time></trkpt><trkpt lat="43.7772923" lon="12.5044132"><ele>435.0</ele><time>2026-04-19T10:15:27.846Z</time></trkpt><trkpt lat="43.7772842" lon="12.5045712"><ele>435.0</ele><time>2026-04-19T10:15:28.862Z</time></trkpt><trkpt lat="43.7772829" lon="12.5047149"><ele>435.0</ele><time>2026-04-19T10:15:29.848Z</time></trkpt><trkpt lat="43.7772857" lon="12.5048547"><ele>435.0</ele><time>2026-04-19T10:15:30.845Z</time></trkpt><trkpt lat="43.7773169" lon="12.5049969"><ele>435.0</ele><time>2026-04-19T10:15:31.85Z</time></trkpt><trkpt lat="43.7773722" lon="12.5051521"><ele>435.25</ele><time>2026-04-19T10:15:32.842Z</time></trkpt><trkpt lat="43.777426" lon="12.5053265"><ele>435.5</ele><time>2026-04-19T10:15:33.865Z</time></trkpt><trkpt lat="43.7774672" lon="12.5055105"><ele>435.75</ele><time>2026-04-19T10:15:34.848Z</time></trkpt><trkpt lat="43.777496" lon="12.5056908"><ele>436.0</ele><time>2026-04-19T10:15:35.845Z</time></trkpt><trkpt lat="43.7775202" lon="12.5058484"><ele>436.33333333333337</ele><time>2026-04-19T10:15:36.854Z</time></trkpt><trkpt lat="43.7775406" lon="12.5059786"><ele>436.6666666666667</ele><time>2026-04-19T10:15:37.846Z</time></trkpt><trkpt lat="43.7775576" lon="12.5060845"><ele>437.0</ele><time>2026-04-19T10:15:38.849Z</time></trkpt><trkpt lat="43.7775709" lon="12.5061711"><ele>437.33333333333337</ele><time>2026-04-19T10:15:39.845Z</time></trkpt><trkpt lat="43.7775984" lon="12.5062822"><ele>437.6666666666667</ele><time>2026-04-19T10:15:41.851Z</time></trkpt><trkpt lat="43.7776631" lon="12.5063216"><ele>438.0</ele><time>2026-04-19T10:15:43.857Z</time></trkpt><trkpt lat="43.777731" lon="12.5063167"><ele>432.59999999999997</ele><time>2026-04-19T10:15:44.847Z</time></trkpt><trkpt lat="43.7778144" lon="12.5063056"><ele>427.19999999999993</ele><time>2026-04-19T10:15:45.845Z</time></trkpt><trkpt lat="43.7779246" lon="12.5063046"><ele>421.8</ele><time>2026-04-19T10:15:46.856Z</time></trkpt><trkpt lat="43.7780431" lon="12.5063177"><ele>416.4</ele><time>2026-04-19T10:15:47.847Z</time></trkpt><trkpt lat="43.7781535" lon="12.5063357"><ele>411.0</ele><time>2026-04-19T10:15:48.848Z</time></trkpt><trkpt lat="43.7782456" lon="12.5063404"><ele>411.0</ele><time>2026-04-19T10:15:49.85Z</time></trkpt><trkpt lat="43.7783266" lon="12.5063204"><ele>411.0</ele><time>2026-04-19T10:15:50.848Z</time></trkpt><trkpt lat="43.7783888" lon="12.5062609"><ele>411.0</ele><time>2026-04-19T10:15:51.865Z</time></trkpt><trkpt lat="43.7784267" lon="12.5061545"><ele>411.0</ele><time>2026-04-19T10:15:52.848Z</time></trkpt><trkpt lat="43.7784427" lon="12.5060286"><ele>411.0</ele><time>2026-04-19T10:15:53.85Z</time></trkpt><trkpt lat="43.7784416" lon="12.5059008"><ele>411.0</ele><time>2026-04-19T10:15:54.848Z</time></trkpt><trkpt lat="43.7784452" lon="12.5057752"><ele>411.0</ele><time>2026-04-19T10:15:55.848Z</time></trkpt><trkpt lat="43.7784653" lon="12.5056474"><ele>411.0</ele><time>2026-04-19T10:15:56.854Z</time></trkpt><trkpt lat="43.7785019" lon="12.5055338"><ele>411.0</ele><time>2026-04-19T10:15:57.858Z</time></trkpt><trkpt lat="43.7785517" lon="12.5054409"><ele>411.0</ele><time>2026-04-19T10:15:58.848Z</time></trkpt><trkpt lat="43.7786087" lon="12.505366"><ele>411.0</ele><time>2026-04-19T10:15:59.862Z</time></trkpt><trkpt lat="43.7786634" lon="12.5053146"><ele>411.0</ele><time>2026-04-19T10:16:00.854Z</time></trkpt><trkpt lat="43.7787462" lon="12.5052996"><ele>411.0</ele><time>2026-04-19T10:16:02.85Z</time></trkpt><trkpt lat="43.778765" lon="12.5053875"><ele>411.0</ele><time>2026-04-19T10:16:04.875Z</time></trkpt><trkpt lat="43.7787154" lon="12.5054754"><ele>411.0</ele><time>2026-04-19T10:16:06.853Z</time></trkpt><trkpt lat="43.7786683" lon="12.5055361"><ele>411.0</ele><time>2026-04-19T10:16:09.853Z</time></trkpt><trkpt lat="43.7786225" lon="12.5056203"><ele>411.0</ele><time>2026-04-19T10:16:26.851Z</time></trkpt><trkpt lat="43.778588" lon="12.5057462"><ele>411.0</ele><time>2026-04-19T10:16:27.864Z</time></trkpt><trkpt lat="43.7785598" lon="12.5058909"><ele>408.8</ele><time>2026-04-19T10:16:28.847Z</time></trkpt><trkpt lat="43.7785594" lon="12.5060478"><ele>406.6</ele><time>2026-04-19T10:16:29.849Z</time></trkpt><trkpt lat="43.7785826" lon="12.5062064"><ele>404.4</ele><time>2026-04-19T10:16:30.852Z</time></trkpt><trkpt lat="43.7786083" lon="12.5063517"><ele>402.2</ele><time>2026-04-19T10:16:31.853Z</time></trkpt><trkpt lat="43.7786197" lon="12.5064643"><ele>400.0</ele><time>2026-04-19T10:16:32.847Z</time></trkpt><trkpt lat="43.7786024" lon="12.5065571"><ele>402.2</ele><time>2026-04-19T10:16:33.86Z</time></trkpt><trkpt lat="43.7785215" lon="12.5066307"><ele>404.4</ele><time>2026-04-19T10:16:34.844Z</time></trkpt><trkpt lat="43.7784184" lon="12.5066953"><ele>406.6</ele><time>2026-04-19T10:16:35.845Z</time></trkpt><trkpt lat="43.7783005" lon="12.5067235"><ele>408.8</ele><time>2026-04-19T10:16:36.853Z</time></trkpt><trkpt lat="43.7781882" lon="12.506748"><ele>411.0</ele><time>2026-04-19T10:16:37.848Z</time></trkpt><trkpt lat="43.7780866" lon="12.5068021"><ele>411.0</ele><time>2026-04-19T10:16:38.864Z</time></trkpt><trkpt lat="43.7780054" lon="12.5069034"><ele>411.0</ele><time>2026-04-19T10:16:39.842Z</time></trkpt><trkpt lat="43.7779507" lon="12.507052"><ele>411.0</ele><time>2026-04-19T10:16:40.851Z</time></trkpt><trkpt lat="43.7779175" lon="12.5072263"><ele>411.0</ele><time>2026-04-19T10:16:41.848Z</time></trkpt><trkpt lat="43.7778961" lon="12.5074083"><ele>406.25</ele><time>2026-04-19T10:16:42.85Z</time></trkpt><trkpt lat="43.7778937" lon="12.5075846"><ele>401.5</ele><time>2026-04-19T10:16:43.85Z</time></trkpt><trkpt lat="43.7779152" lon="12.5077754"><ele>396.75</ele><time>2026-04-19T10:16:44.85Z</time></trkpt><trkpt lat="43.7779471" lon="12.5079741"><ele>392.0</ele><time>2026-04-19T10:16:45.848Z</time></trkpt><trkpt lat="43.7779783" lon="12.5081739"><ele>391.25</ele><time>2026-04-19T10:16:46.848Z</time></trkpt><trkpt lat="43.7780019" lon="12.5083688"><ele>390.5</ele><time>2026-04-19T10:16:47.848Z</time></trkpt><trkpt lat="43.7780163" lon="12.5085532"><ele>389.75</ele><time>2026-04-19T10:16:48.848Z</time></trkpt><trkpt lat="43.7780208" lon="12.5087219"><ele>389.0</ele><time>2026-04-19T10:16:49.844Z</time></trkpt><trkpt lat="43.7780239" lon="12.5088779"><ele>390.6</ele><time>2026-04-19T10:16:50.861Z</time></trkpt><trkpt lat="43.7780422" lon="12.5090149"><ele>392.2</ele><time>2026-04-19T10:16:51.848Z</time></trkpt><trkpt lat="43.7780913" lon="12.5091302"><ele>393.8</ele><time>2026-04-19T10:16:52.847Z</time></trkpt><trkpt lat="43.7781686" lon="12.5092218"><ele>395.40000000000003</ele><time>2026-04-19T10:16:53.848Z</time></trkpt><trkpt lat="43.7782678" lon="12.5092955"><ele>397.0</ele><time>2026-04-19T10:16:54.845Z</time></trkpt><trkpt lat="43.7783834" lon="12.5093545"><ele>397.0</ele><time>2026-04-19T10:16:55.851Z</time></trkpt><trkpt lat="43.778509" lon="12.5094003"><ele>397.0</ele><time>2026-04-19T10:16:56.85Z</time></trkpt><trkpt lat="43.7786417" lon="12.509435"><ele>397.0</ele><time>2026-04-19T10:16:57.847Z</time></trkpt><trkpt lat="43.7787735" lon="12.5094782"><ele>397.0</ele><time>2026-04-19T10:16:58.855Z</time></trkpt><trkpt lat="43.7788906" lon="12.509542"><ele>396.0</ele><time>2026-04-19T10:16:59.843Z</time></trkpt><trkpt lat="43.7789956" lon="12.5096312"><ele>395.0</ele><time>2026-04-19T10:17:00.842Z</time></trkpt><trkpt lat="43.7790873" lon="12.5097591"><ele>394.0</ele><time>2026-04-19T10:17:01.844Z</time></trkpt><trkpt lat="43.7791726" lon="12.5099094"><ele>393.0</ele><time>2026-04-19T10:17:02.841Z</time></trkpt><trkpt lat="43.7792396" lon="12.5100849"><ele>393.0</ele><time>2026-04-19T10:17:03.864Z</time></trkpt><trkpt lat="43.7792955" lon="12.5102605"><ele>393.0</ele><time>2026-04-19T10:17:04.844Z</time></trkpt><trkpt lat="43.7793463" lon="12.5104253"><ele>393.0</ele><time>2026-04-19T10:17:05.851Z</time></trkpt><trkpt lat="43.7793945" lon="12.5105749"><ele>393.0</ele><time>2026-04-19T10:17:06.849Z</time></trkpt><trkpt lat="43.779442" lon="12.5107157"><ele>391.4</ele><time>2026-04-19T10:17:07.85Z</time></trkpt><trkpt lat="43.7794873" lon="12.5108551"><ele>389.79999999999995</ele><time>2026-04-19T10:17:08.886Z</time></trkpt><trkpt lat="43.7795301" lon="12.5109876"><ele>388.2</ele><time>2026-04-19T10:17:09.852Z</time></trkpt><trkpt lat="43.7795753" lon="12.5111302"><ele>386.6</ele><time>2026-04-19T10:17:10.849Z</time></trkpt><trkpt lat="43.7796241" lon="12.5112829"><ele>385.0</ele><time>2026-04-19T10:17:11.847Z</time></trkpt><trkpt lat="43.7796728" lon="12.5114336"><ele>385.0</ele><time>2026-04-19T10:17:12.851Z</time></trkpt><trkpt lat="43.779723" lon="12.5115792"><ele>385.0</ele><time>2026-04-19T10:17:13.847Z</time></trkpt><trkpt lat="43.7797717" lon="12.5117254"><ele>385.0</ele><time>2026-04-19T10:17:14.851Z</time></trkpt><trkpt lat="43.7798459" lon="12.5118567"><ele>385.0</ele><time>2026-04-19T10:17:15.848Z</time></trkpt><trkpt lat="43.7799284" lon="12.5119834"><ele>383.25</ele><time>2026-04-19T10:17:16.855Z</time></trkpt><trkpt lat="43.780009" lon="12.5121143"><ele>381.5</ele><time>2026-04-19T10:17:17.847Z</time></trkpt><trkpt lat="43.7800882" lon="12.5122517"><ele>379.75</ele><time>2026-04-19T10:17:18.847Z</time></trkpt><trkpt lat="43.7801707" lon="12.5123867"><ele>378.0</ele><time>2026-04-19T10:17:19.85Z</time></trkpt><trkpt lat="43.780255" lon="12.5125171"><ele>378.5</ele><time>2026-04-19T10:17:20.852Z</time></trkpt><trkpt lat="43.7803434" lon="12.5126407"><ele>379.0</ele><time>2026-04-19T10:17:21.845Z</time></trkpt><trkpt lat="43.7804314" lon="12.5127548"><ele>379.5</ele><time>2026-04-19T10:17:22.844Z</time></trkpt><trkpt lat="43.7805131" lon="12.5128579"><ele>380.0</ele><time>2026-04-19T10:17:23.848Z</time></trkpt><trkpt lat="43.7805679" lon="12.5129675"><ele>380.0</ele><time>2026-04-19T10:17:24.842Z</time></trkpt><trkpt lat="43.780595" lon="12.5131048"><ele>380.0</ele><time>2026-04-19T10:17:25.87Z</time></trkpt><trkpt lat="43.7806117" lon="12.5132597"><ele>380.0</ele><time>2026-04-19T10:17:26.849Z</time></trkpt><trkpt lat="43.7806467" lon="12.5134277"><ele>380.0</ele><time>2026-04-19T10:17:27.849Z</time></trkpt><trkpt lat="43.7806977" lon="12.5135916"><ele>380.0</ele><time>2026-04-19T10:17:28.851Z</time></trkpt><trkpt lat="43.7807917" lon="12.5137186"><ele>380.0</ele><time>2026-04-19T10:17:29.85Z</time></trkpt><trkpt lat="43.7809149" lon="12.5138152"><ele>380.0</ele><time>2026-04-19T10:17:30.871Z</time></trkpt><trkpt lat="43.7810604" lon="12.5138684"><ele>380.0</ele><time>2026-04-19T10:17:31.85Z</time></trkpt><trkpt lat="43.7812057" lon="12.5139252"><ele>380.75</ele><time>2026-04-19T10:17:32.847Z</time></trkpt><trkpt lat="43.7813479" lon="12.5139797"><ele>381.5</ele><time>2026-04-19T10:17:33.85Z</time></trkpt><trkpt lat="43.7814899" lon="12.5140374"><ele>382.25</ele><time>2026-04-19T10:17:34.843Z</time></trkpt><trkpt lat="43.7816364" lon="12.5140916"><ele>383.0</ele><time>2026-04-19T10:17:35.879Z</time></trkpt><trkpt lat="43.781779" lon="12.5141448"><ele>380.0</ele><time>2026-04-19T10:17:36.852Z</time></trkpt><trkpt lat="43.7819252" lon="12.5141979"><ele>377.0</ele><time>2026-04-19T10:17:37.845Z</time></trkpt><trkpt lat="43.7820746" lon="12.5142368"><ele>374.0</ele><time>2026-04-19T10:17:38.846Z</time></trkpt><trkpt lat="43.7822276" lon="12.5142538"><ele>374.0</ele><time>2026-04-19T10:17:39.846Z</time></trkpt><trkpt lat="43.7823829" lon="12.5142449"><ele>374.0</ele><time>2026-04-19T10:17:40.849Z</time></trkpt><trkpt lat="43.7825401" lon="12.5142253"><ele>374.0</ele><time>2026-04-19T10:17:41.845Z</time></trkpt><trkpt lat="43.7827032" lon="12.514202"><ele>373.6666666666667</ele><time>2026-04-19T10:17:42.865Z</time></trkpt><trkpt lat="43.7828676" lon="12.5141789"><ele>373.3333333333333</ele><time>2026-04-19T10:17:43.851Z</time></trkpt><trkpt lat="43.7830367" lon="12.5141548"><ele>373.0</ele><time>2026-04-19T10:17:44.845Z</time></trkpt><trkpt lat="43.783203" lon="12.514128"><ele>373.0</ele><time>2026-04-19T10:17:45.848Z</time></trkpt><trkpt lat="43.7833586" lon="12.5141049"><ele>373.0</ele><time>2026-04-19T10:17:46.846Z</time></trkpt><trkpt lat="43.783498" lon="12.5141132"><ele>373.0</ele><time>2026-04-19T10:17:47.852Z</time></trkpt><trkpt lat="43.7836451" lon="12.5141517"><ele>373.0</ele><time>2026-04-19T10:17:48.848Z</time></trkpt><trkpt lat="43.7838036" lon="12.5142293"><ele>368.66666666666663</ele><time>2026-04-19T10:17:49.871Z</time></trkpt><trkpt lat="43.7839629" lon="12.5143261"><ele>364.3333333333333</ele><time>2026-04-19T10:17:50.852Z</time></trkpt><trkpt lat="43.7841245" lon="12.5144242"><ele>360.0</ele><time>2026-04-19T10:17:51.849Z</time></trkpt><trkpt lat="43.7842871" lon="12.5145172"><ele>360.6666666666667</ele><time>2026-04-19T10:17:52.853Z</time></trkpt><trkpt lat="43.7844443" lon="12.5146104"><ele>361.33333333333337</ele><time>2026-04-19T10:17:53.852Z</time></trkpt><trkpt lat="43.7845925" lon="12.5146977"><ele>362.0</ele><time>2026-04-19T10:17:54.87Z</time></trkpt><trkpt lat="43.7847222" lon="12.5147703"><ele>362.0</ele><time>2026-04-19T10:17:55.849Z</time></trkpt><trkpt lat="43.7848424" lon="12.5148236"><ele>362.0</ele><time>2026-04-19T10:17:56.855Z</time></trkpt><trkpt lat="43.7849546" lon="12.5148439"><ele>362.0</ele><time>2026-04-19T10:17:57.857Z</time></trkpt><trkpt lat="43.7850654" lon="12.5148194"><ele>362.0</ele><time>2026-04-19T10:17:58.855Z</time></trkpt><trkpt lat="43.7851611" lon="12.5147384"><ele>366.0</ele><time>2026-04-19T10:17:59.852Z</time></trkpt><trkpt lat="43.7852376" lon="12.5146298"><ele>370.0</ele><time>2026-04-19T10:18:00.852Z</time></trkpt><trkpt lat="43.7853031" lon="12.514496"><ele>374.0</ele><time>2026-04-19T10:18:01.86Z</time></trkpt><trkpt lat="43.7853699" lon="12.5143501"><ele>378.0</ele><time>2026-04-19T10:18:02.85Z</time></trkpt><trkpt lat="43.7854516" lon="12.514206"><ele>378.5</ele><time>2026-04-19T10:18:03.852Z</time></trkpt><trkpt lat="43.7855572" lon="12.51408"><ele>379.0</ele><time>2026-04-19T10:18:04.849Z</time></trkpt><trkpt lat="43.7856705" lon="12.5139746"><ele>379.5</ele><time>2026-04-19T10:18:05.845Z</time></trkpt><trkpt lat="43.7857861" lon="12.5139007"><ele>380.0</ele><time>2026-04-19T10:18:06.852Z</time></trkpt><trkpt lat="43.7859008" lon="12.5138546"><ele>378.0</ele><time>2026-04-19T10:18:07.847Z</time></trkpt><trkpt lat="43.7860149" lon="12.5138383"><ele>376.0</ele><time>2026-04-19T10:18:08.868Z</time></trkpt><trkpt lat="43.7861467" lon="12.5138644"><ele>374.0</ele><time>2026-04-19T10:18:09.847Z</time></trkpt><trkpt lat="43.7862889" lon="12.5138959"><ele>372.0</ele><time>2026-04-19T10:18:10.848Z</time></trkpt><trkpt lat="43.7864353" lon="12.5139425"><ele>372.0</ele><time>2026-04-19T10:18:11.848Z</time></trkpt><trkpt lat="43.7865781" lon="12.5139969"><ele>372.0</ele><time>2026-04-19T10:18:12.845Z</time></trkpt><trkpt lat="43.7867143" lon="12.5140559"><ele>372.0</ele><time>2026-04-19T10:18:13.846Z</time></trkpt><trkpt lat="43.7868503" lon="12.5141299"><ele>372.0</ele><time>2026-04-19T10:18:14.856Z</time></trkpt><trkpt lat="43.7869811" lon="12.5142238"><ele>368.25</ele><time>2026-04-19T10:18:15.853Z</time></trkpt><trkpt lat="43.7871135" lon="12.514316"><ele>364.5</ele><time>2026-04-19T10:18:16.873Z</time></trkpt><trkpt lat="43.787252" lon="12.5143699"><ele>360.75</ele><time>2026-04-19T10:18:17.848Z</time></trkpt><trkpt lat="43.7874006" lon="12.5143973"><ele>357.0</ele><time>2026-04-19T10:18:18.852Z</time></trkpt><trkpt lat="43.7875536" lon="12.5143846"><ele>355.0</ele><time>2026-04-19T10:18:19.854Z</time></trkpt><trkpt lat="43.7877037" lon="12.5143547"><ele>353.0</ele><time>2026-04-19T10:18:20.854Z</time></trkpt><trkpt lat="43.7878395" lon="12.5142977"><ele>351.0</ele><time>2026-04-19T10:18:21.854Z</time></trkpt><trkpt lat="43.7879718" lon="12.5142098"><ele>349.0</ele><time>2026-04-19T10:18:22.853Z</time></trkpt><trkpt lat="43.7880996" lon="12.5140932"><ele>349.0</ele><time>2026-04-19T10:18:23.852Z</time></trkpt><trkpt lat="43.7882243" lon="12.5139517"><ele>349.0</ele><time>2026-04-19T10:18:24.877Z</time></trkpt><trkpt lat="43.7883458" lon="12.5138125"><ele>349.0</ele><time>2026-04-19T10:18:25.855Z</time></trkpt><trkpt lat="43.7884671" lon="12.5136851"><ele>347.75</ele><time>2026-04-19T10:18:26.856Z</time></trkpt><trkpt lat="43.7885822" lon="12.5135923"><ele>346.5</ele><time>2026-04-19T10:18:27.852Z</time></trkpt><trkpt lat="43.7887087" lon="12.5135379"><ele>345.25</ele><time>2026-04-19T10:18:28.852Z</time></trkpt><trkpt lat="43.7888524" lon="12.5135149"><ele>344.0</ele><time>2026-04-19T10:18:29.854Z</time></trkpt><trkpt lat="43.7890104" lon="12.5135119"><ele>344.0</ele><time>2026-04-19T10:18:30.849Z</time></trkpt><trkpt lat="43.7891797" lon="12.5135142"><ele>344.0</ele><time>2026-04-19T10:18:31.876Z</time></trkpt><trkpt lat="43.7893497" lon="12.5135133"><ele>344.0</ele><time>2026-04-19T10:18:32.854Z</time></trkpt><trkpt lat="43.7895225" lon="12.5135093"><ele>344.0</ele><time>2026-04-19T10:18:33.858Z</time></trkpt><trkpt lat="43.7896945" lon="12.5135043"><ele>344.0</ele><time>2026-04-19T10:18:34.851Z</time></trkpt><trkpt lat="43.789864" lon="12.5135069"><ele>344.0</ele><time>2026-04-19T10:18:35.854Z</time></trkpt><trkpt lat="43.7900345" lon="12.5135297"><ele>348.0</ele><time>2026-04-19T10:18:36.852Z</time></trkpt><trkpt lat="43.7902065" lon="12.5135728"><ele>352.0</ele><time>2026-04-19T10:18:37.856Z</time></trkpt><trkpt lat="43.7903652" lon="12.5136197"><ele>356.0</ele><time>2026-04-19T10:18:38.853Z</time></trkpt><trkpt lat="43.7905074" lon="12.5136632"><ele>356.0</ele><time>2026-04-19T10:18:39.852Z</time></trkpt><trkpt lat="43.7906349" lon="12.5136993"><ele>356.0</ele><time>2026-04-19T10:18:40.854Z</time></trkpt><trkpt lat="43.7907542" lon="12.5137144"><ele>356.0</ele><time>2026-04-19T10:18:41.853Z</time></trkpt><trkpt lat="43.7908675" lon="12.5136962"><ele>356.0</ele><time>2026-04-19T10:18:42.872Z</time></trkpt><trkpt lat="43.7909682" lon="12.5136389"><ele>355.0</ele><time>2026-04-19T10:18:43.85Z</time></trkpt><trkpt lat="43.7910525" lon="12.5135443"><ele>354.0</ele><time>2026-04-19T10:18:44.85Z</time></trkpt><trkpt lat="43.7911208" lon="12.5134235"><ele>353.0</ele><time>2026-04-19T10:18:45.864Z</time></trkpt><trkpt lat="43.7911833" lon="12.5132875"><ele>352.0</ele><time>2026-04-19T10:18:46.854Z</time></trkpt><trkpt lat="43.7912537" lon="12.5131417"><ele>352.0</ele><time>2026-04-19T10:18:47.872Z</time></trkpt><trkpt lat="43.7913297" lon="12.51299"><ele>352.0</ele><time>2026-04-19T10:18:48.849Z</time></trkpt><trkpt lat="43.7914068" lon="12.5128318"><ele>352.0</ele><time>2026-04-19T10:18:49.851Z</time></trkpt><trkpt lat="43.7914782" lon="12.51268"><ele>352.0</ele><time>2026-04-19T10:18:50.847Z</time></trkpt><trkpt lat="43.7915438" lon="12.5125405"><ele>354.0</ele><time>2026-04-19T10:18:51.849Z</time></trkpt><trkpt lat="43.7916072" lon="12.5124025"><ele>356.0</ele><time>2026-04-19T10:18:52.852Z</time></trkpt><trkpt lat="43.7916752" lon="12.5122579"><ele>358.0</ele><time>2026-04-19T10:18:53.849Z</time></trkpt><trkpt lat="43.7917524" lon="12.512111"><ele>360.0</ele><time>2026-04-19T10:18:54.862Z</time></trkpt><trkpt lat="43.7918404" lon="12.5119773"><ele>360.0</ele><time>2026-04-19T10:18:55.848Z</time></trkpt><trkpt lat="43.7919413" lon="12.5118688"><ele>360.0</ele><time>2026-04-19T10:18:56.855Z</time></trkpt><trkpt lat="43.7920493" lon="12.5117927"><ele>360.0</ele><time>2026-04-19T10:18:57.851Z</time></trkpt><trkpt lat="43.7921627" lon="12.5117446"><ele>360.0</ele><time>2026-04-19T10:18:58.854Z</time></trkpt><trkpt lat="43.7922839" lon="12.5117232"><ele>360.0</ele><time>2026-04-19T10:18:59.846Z</time></trkpt><trkpt lat="43.7924122" lon="12.5117211"><ele>360.0</ele><time>2026-04-19T10:19:00.852Z</time></trkpt><trkpt lat="43.7925464" lon="12.5117244"><ele>360.0</ele><time>2026-04-19T10:19:01.854Z</time></trkpt><trkpt lat="43.7926853" lon="12.511725"><ele>360.0</ele><time>2026-04-19T10:19:02.848Z</time></trkpt><trkpt lat="43.7928289" lon="12.5117256"><ele>358.5</ele><time>2026-04-19T10:19:03.869Z</time></trkpt><trkpt lat="43.7929666" lon="12.5117351"><ele>357.0</ele><time>2026-04-19T10:19:04.853Z</time></trkpt><trkpt lat="43.7930994" lon="12.5117577"><ele>355.5</ele><time>2026-04-19T10:19:05.856Z</time></trkpt><trkpt lat="43.7932277" lon="12.511795"><ele>354.0</ele><time>2026-04-19T10:19:06.845Z</time></trkpt><trkpt lat="43.7933618" lon="12.5118455"><ele>354.0</ele><time>2026-04-19T10:19:07.853Z</time></trkpt><trkpt lat="43.793503" lon="12.511902"><ele>354.0</ele><time>2026-04-19T10:19:08.847Z</time></trkpt><trkpt lat="43.7936476" lon="12.5119598"><ele>354.0</ele><time>2026-04-19T10:19:09.849Z</time></trkpt><trkpt lat="43.7937909" lon="12.5120132"><ele>354.0</ele><time>2026-04-19T10:19:10.856Z</time></trkpt><trkpt lat="43.7939297" lon="12.5120635"><ele>352.0</ele><time>2026-04-19T10:19:11.853Z</time></trkpt><trkpt lat="43.7940668" lon="12.5121118"><ele>350.0</ele><time>2026-04-19T10:19:12.871Z</time></trkpt><trkpt lat="43.7942011" lon="12.5121538"><ele>348.0</ele><time>2026-04-19T10:19:13.849Z</time></trkpt><trkpt lat="43.7943362" lon="12.5121848"><ele>346.0</ele><time>2026-04-19T10:19:14.854Z</time></trkpt><trkpt lat="43.7944723" lon="12.5121946"><ele>344.5</ele><time>2026-04-19T10:19:15.85Z</time></trkpt><trkpt lat="43.7946129" lon="12.5121809"><ele>343.0</ele><time>2026-04-19T10:19:16.848Z</time></trkpt><trkpt lat="43.7947584" lon="12.5121496"><ele>341.5</ele><time>2026-04-19T10:19:17.852Z</time></trkpt><trkpt lat="43.794907" lon="12.5121111"><ele>340.0</ele><time>2026-04-19T10:19:18.85Z</time></trkpt><trkpt lat="43.7950558" lon="12.512077"><ele>341.3333333333333</ele><time>2026-04-19T10:19:19.869Z</time></trkpt><trkpt lat="43.7952012" lon="12.5120471"><ele>342.6666666666667</ele><time>2026-04-19T10:19:20.849Z</time></trkpt><trkpt lat="43.7953549" lon="12.5120154"><ele>344.0</ele><time>2026-04-19T10:19:21.853Z</time></trkpt><trkpt lat="43.7955154" lon="12.5119768"><ele>344.0</ele><time>2026-04-19T10:19:22.85Z</time></trkpt><trkpt lat="43.7956742" lon="12.5119352"><ele>344.0</ele><time>2026-04-19T10:19:23.855Z</time></trkpt><trkpt lat="43.7958244" lon="12.5118975"><ele>344.0</ele><time>2026-04-19T10:19:24.848Z</time></trkpt><trkpt lat="43.7959747" lon="12.5118576"><ele>346.0</ele><time>2026-04-19T10:19:25.853Z</time></trkpt><trkpt lat="43.7961384" lon="12.5118125"><ele>348.0</ele><time>2026-04-19T10:19:26.852Z</time></trkpt><trkpt lat="43.7962996" lon="12.511768"><ele>350.0</ele><time>2026-04-19T10:19:27.855Z</time></trkpt><trkpt lat="43.7964359" lon="12.5117316"><ele>350.0</ele><time>2026-04-19T10:19:28.849Z</time></trkpt><trkpt lat="43.7965458" lon="12.5117073"><ele>350.0</ele><time>2026-04-19T10:19:29.862Z</time></trkpt><trkpt lat="43.79664" lon="12.5116947"><ele>350.0</ele><time>2026-04-19T10:19:30.85Z</time></trkpt><trkpt lat="43.7967236" lon="12.5117162"><ele>350.0</ele><time>2026-04-19T10:19:31.848Z</time></trkpt><trkpt lat="43.796791" lon="12.511777"><ele>350.0</ele><time>2026-04-19T10:19:32.849Z</time></trkpt><trkpt lat="43.796841" lon="12.5118871"><ele>348.75</ele><time>2026-04-19T10:19:33.849Z</time></trkpt><trkpt lat="43.7968825" lon="12.5120313"><ele>347.5</ele><time>2026-04-19T10:19:34.853Z</time></trkpt><trkpt lat="43.7969218" lon="12.5122134"><ele>346.25</ele><time>2026-04-19T10:19:35.86Z</time></trkpt><trkpt lat="43.7969535" lon="12.5124082"><ele>345.0</ele><time>2026-04-19T10:19:36.848Z</time></trkpt><trkpt lat="43.796988" lon="12.5126137"><ele>345.0</ele><time>2026-04-19T10:19:37.851Z</time></trkpt><trkpt lat="43.7970308" lon="12.5128397"><ele>345.0</ele><time>2026-04-19T10:19:38.844Z</time></trkpt><trkpt lat="43.7970833" lon="12.513084"><ele>345.0</ele><time>2026-04-19T10:19:39.848Z</time></trkpt><trkpt lat="43.7971272" lon="12.5133166"><ele>349.0</ele><time>2026-04-19T10:19:40.854Z</time></trkpt><trkpt lat="43.7971547" lon="12.5135404"><ele>353.0</ele><time>2026-04-19T10:19:41.846Z</time></trkpt><trkpt lat="43.7971738" lon="12.5137697"><ele>357.0</ele><time>2026-04-19T10:19:42.852Z</time></trkpt><trkpt lat="43.797164" lon="12.5139853"><ele>356.75</ele><time>2026-04-19T10:19:43.873Z</time></trkpt><trkpt lat="43.7971462" lon="12.5141661"><ele>356.5</ele><time>2026-04-19T10:19:44.849Z</time></trkpt><trkpt lat="43.7971429" lon="12.5143251"><ele>356.25</ele><time>2026-04-19T10:19:45.854Z</time></trkpt><trkpt lat="43.797159" lon="12.5144693"><ele>356.0</ele><time>2026-04-19T10:19:46.856Z</time></trkpt><trkpt lat="43.7971998" lon="12.5146011"><ele>356.0</ele><time>2026-04-19T10:19:47.855Z</time></trkpt><trkpt lat="43.7972664" lon="12.5147389"><ele>356.0</ele><time>2026-04-19T10:19:48.87Z</time></trkpt><trkpt lat="43.7973644" lon="12.514902"><ele>356.0</ele><time>2026-04-19T10:19:49.845Z</time></trkpt><trkpt lat="43.7974764" lon="12.515069"><ele>356.0</ele><time>2026-04-19T10:19:50.853Z</time></trkpt><trkpt lat="43.7975733" lon="12.5152292"><ele>356.0</ele><time>2026-04-19T10:19:51.851Z</time></trkpt><trkpt lat="43.7976499" lon="12.5153967"><ele>356.0</ele><time>2026-04-19T10:19:52.854Z</time></trkpt><trkpt lat="43.7977046" lon="12.5155838"><ele>356.0</ele><time>2026-04-19T10:19:53.85Z</time></trkpt><trkpt lat="43.7977395" lon="12.5157888"><ele>356.0</ele><time>2026-04-19T10:19:54.848Z</time></trkpt><trkpt lat="43.7977506" lon="12.5160151"><ele>356.6666666666667</ele><time>2026-04-19T10:19:55.85Z</time></trkpt><trkpt lat="43.7977546" lon="12.516251"><ele>357.3333333333333</ele><time>2026-04-19T10:19:56.852Z</time></trkpt><trkpt lat="43.7977668" lon="12.5164756"><ele>358.0</ele><time>2026-04-19T10:19:57.851Z</time></trkpt><trkpt lat="43.7977859" lon="12.5167015"><ele>358.0</ele><time>2026-04-19T10:19:58.849Z</time></trkpt><trkpt lat="43.7978157" lon="12.5169561"><ele>358.0</ele><time>2026-04-19T10:19:59.861Z</time></trkpt><trkpt lat="43.7978381" lon="12.5172074"><ele>358.0</ele><time>2026-04-19T10:20:00.848Z</time></trkpt><trkpt lat="43.7978519" lon="12.517437"><ele>356.4</ele><time>2026-04-19T10:20:01.845Z</time></trkpt><trkpt lat="43.7978559" lon="12.5176269"><ele>354.79999999999995</ele><time>2026-04-19T10:20:02.843Z</time></trkpt><trkpt lat="43.797861" lon="12.5177769"><ele>353.2</ele><time>2026-04-19T10:20:03.854Z</time></trkpt><trkpt lat="43.7978802" lon="12.517902"><ele>351.6</ele><time>2026-04-19T10:20:04.855Z</time></trkpt><trkpt lat="43.7979271" lon="12.5180042"><ele>350.0</ele><time>2026-04-19T10:20:05.855Z</time></trkpt><trkpt lat="43.7979975" lon="12.5180798"><ele>346.25</ele><time>2026-04-19T10:20:06.849Z</time></trkpt><trkpt lat="43.7980914" lon="12.5181273"><ele>342.5</ele><time>2026-04-19T10:20:07.865Z</time></trkpt><trkpt lat="43.7982094" lon="12.5181439"><ele>338.75</ele><time>2026-04-19T10:20:08.848Z</time></trkpt><trkpt lat="43.79835" lon="12.5181369"><ele>335.0</ele><time>2026-04-19T10:20:09.849Z</time></trkpt><trkpt lat="43.7984896" lon="12.5181145"><ele>331.0</ele><time>2026-04-19T10:20:10.856Z</time></trkpt><trkpt lat="43.7986165" lon="12.5180734"><ele>327.0</ele><time>2026-04-19T10:20:11.855Z</time></trkpt><trkpt lat="43.7987565" lon="12.5180063"><ele>323.0</ele><time>2026-04-19T10:20:12.876Z</time></trkpt><trkpt lat="43.7989164" lon="12.5179119"><ele>324.6666666666667</ele><time>2026-04-19T10:20:13.855Z</time></trkpt><trkpt lat="43.7990927" lon="12.517803"><ele>326.3333333333333</ele><time>2026-04-19T10:20:14.854Z</time></trkpt><trkpt lat="43.7992464" lon="12.5177071"><ele>328.0</ele><time>2026-04-19T10:20:15.856Z</time></trkpt><trkpt lat="43.7993938" lon="12.5176287"><ele>328.0</ele><time>2026-04-19T10:20:16.849Z</time></trkpt><trkpt lat="43.7995469" lon="12.5175742"><ele>328.0</ele><time>2026-04-19T10:20:17.87Z</time></trkpt><trkpt lat="43.799699" lon="12.5175296"><ele>328.0</ele><time>2026-04-19T10:20:18.848Z</time></trkpt><trkpt lat="43.7998517" lon="12.517507"><ele>328.0</ele><time>2026-04-19T10:20:19.856Z</time></trkpt><trkpt lat="43.7999968" lon="12.5174888"><ele>328.0</ele><time>2026-04-19T10:20:20.856Z</time></trkpt><trkpt lat="43.8001319" lon="12.5174749"><ele>328.0</ele><time>2026-04-19T10:20:21.849Z</time></trkpt><trkpt lat="43.8002605" lon="12.5174779"><ele>328.0</ele><time>2026-04-19T10:20:22.872Z</time></trkpt><trkpt lat="43.800378" lon="12.5174989"><ele>328.0</ele><time>2026-04-19T10:20:23.853Z</time></trkpt><trkpt lat="43.8004922" lon="12.5175506"><ele>328.0</ele><time>2026-04-19T10:20:24.849Z</time></trkpt><trkpt lat="43.8006126" lon="12.5176498"><ele>328.0</ele><time>2026-04-19T10:20:25.848Z</time></trkpt><trkpt lat="43.8007325" lon="12.5177669"><ele>328.0</ele><time>2026-04-19T10:20:26.851Z</time></trkpt><trkpt lat="43.8008465" lon="12.5178828"><ele>326.75</ele><time>2026-04-19T10:20:27.847Z</time></trkpt><trkpt lat="43.8009443" lon="12.5179924"><ele>325.5</ele><time>2026-04-19T10:20:28.848Z</time></trkpt><trkpt lat="43.8010256" lon="12.5181224"><ele>324.25</ele><time>2026-04-19T10:20:29.845Z</time></trkpt><trkpt lat="43.8010953" lon="12.518257"><ele>323.0</ele><time>2026-04-19T10:20:30.849Z</time></trkpt><trkpt lat="43.8011809" lon="12.5183744"><ele>323.0</ele><time>2026-04-19T10:20:31.852Z</time></trkpt><trkpt lat="43.8012942" lon="12.518484"><ele>323.0</ele><time>2026-04-19T10:20:32.847Z</time></trkpt><trkpt lat="43.8014322" lon="12.5185861"><ele>323.0</ele><time>2026-04-19T10:20:33.858Z</time></trkpt><trkpt lat="43.801594" lon="12.5186883"><ele>319.33333333333337</ele><time>2026-04-19T10:20:34.856Z</time></trkpt><trkpt lat="43.8017609" lon="12.5187937"><ele>315.6666666666667</ele><time>2026-04-19T10:20:35.854Z</time></trkpt><trkpt lat="43.801914" lon="12.518897"><ele>312.0</ele><time>2026-04-19T10:20:36.849Z</time></trkpt><trkpt lat="43.8020484" lon="12.5190033"><ele>312.0</ele><time>2026-04-19T10:20:37.85Z</time></trkpt><trkpt lat="43.8021612" lon="12.5191269"><ele>312.0</ele><time>2026-04-19T10:20:38.855Z</time></trkpt><trkpt lat="43.8022513" lon="12.5192597"><ele>312.0</ele><time>2026-04-19T10:20:39.849Z</time></trkpt><trkpt lat="43.8023233" lon="12.5193865"><ele>312.0</ele><time>2026-04-19T10:20:40.852Z</time></trkpt><trkpt lat="43.8023869" lon="12.5194906"><ele>310.1666666666667</ele><time>2026-04-19T10:20:41.849Z</time></trkpt><trkpt lat="43.8024554" lon="12.5195744"><ele>308.3333333333333</ele><time>2026-04-19T10:20:42.853Z</time></trkpt><trkpt lat="43.8025293" lon="12.519633"><ele>306.5</ele><time>2026-04-19T10:20:43.855Z</time></trkpt><trkpt lat="43.802606" lon="12.5196576"><ele>304.66666666666663</ele><time>2026-04-19T10:20:44.856Z</time></trkpt><trkpt lat="43.8026811" lon="12.5196467"><ele>302.8333333333333</ele><time>2026-04-19T10:20:45.85Z</time></trkpt><trkpt lat="43.8027597" lon="12.5196011"><ele>301.0</ele><time>2026-04-19T10:20:46.852Z</time></trkpt><trkpt lat="43.8028608" lon="12.5195132"><ele>300.0</ele><time>2026-04-19T10:20:47.848Z</time></trkpt><trkpt lat="43.8029904" lon="12.519412"><ele>299.0</ele><time>2026-04-19T10:20:48.871Z</time></trkpt><trkpt lat="43.8031307" lon="12.5193107"><ele>298.0</ele><time>2026-04-19T10:20:49.857Z</time></trkpt><trkpt lat="43.8032625" lon="12.519213"><ele>298.0</ele><time>2026-04-19T10:20:50.85Z</time></trkpt><trkpt lat="43.8033825" lon="12.5191221"><ele>298.0</ele><time>2026-04-19T10:20:51.856Z</time></trkpt><trkpt lat="43.8034986" lon="12.5190318"><ele>298.0</ele><time>2026-04-19T10:20:52.852Z</time></trkpt><trkpt lat="43.8036088" lon="12.5189564"><ele>298.0</ele><time>2026-04-19T10:20:53.872Z</time></trkpt><trkpt lat="43.8037003" lon="12.518897"><ele>295.5</ele><time>2026-04-19T10:20:54.854Z</time></trkpt><trkpt lat="43.8037797" lon="12.518859"><ele>293.0</ele><time>2026-04-19T10:20:55.855Z</time></trkpt><trkpt lat="43.8038493" lon="12.5188591"><ele>290.5</ele><time>2026-04-19T10:20:56.855Z</time></trkpt><trkpt lat="43.8039244" lon="12.5188995"><ele>288.0</ele><time>2026-04-19T10:20:57.86Z</time></trkpt><trkpt lat="43.8039473" lon="12.5190009"><ele>285.5</ele><time>2026-04-19T10:20:58.855Z</time></trkpt><trkpt lat="43.8039487" lon="12.5191491"><ele>283.0</ele><time>2026-04-19T10:20:59.848Z</time></trkpt><trkpt lat="43.803941" lon="12.5193311"><ele>283.0</ele><time>2026-04-19T10:21:00.852Z</time></trkpt><trkpt lat="43.8039264" lon="12.519541"><ele>283.0</ele><time>2026-04-19T10:21:01.852Z</time></trkpt><trkpt lat="43.8039156" lon="12.5197402"><ele>283.0</ele><time>2026-04-19T10:21:02.849Z</time></trkpt><trkpt lat="43.803909" lon="12.5199062"><ele>283.0</ele><time>2026-04-19T10:21:03.849Z</time></trkpt><trkpt lat="43.803913" lon="12.5200453"><ele>281.66666666666663</ele><time>2026-04-19T10:21:04.85Z</time></trkpt><trkpt lat="43.8039274" lon="12.5201564"><ele>280.3333333333333</ele><time>2026-04-19T10:21:05.853Z</time></trkpt><trkpt lat="43.8039656" lon="12.5202415"><ele>279.0</ele><time>2026-04-19T10:21:06.876Z</time></trkpt><trkpt lat="43.8040202" lon="12.5202914"><ele>277.6666666666667</ele><time>2026-04-19T10:21:07.857Z</time></trkpt><trkpt lat="43.8040922" lon="12.5202967"><ele>276.33333333333337</ele><time>2026-04-19T10:21:08.85Z</time></trkpt><trkpt lat="43.8041712" lon="12.5202797"><ele>275.0</ele><time>2026-04-19T10:21:09.856Z</time></trkpt><trkpt lat="43.8042629" lon="12.5202162"><ele>271.25</ele><time>2026-04-19T10:21:10.849Z</time></trkpt><trkpt lat="43.8043764" lon="12.5201334"><ele>267.5</ele><time>2026-04-19T10:21:11.87Z</time></trkpt><trkpt lat="43.8045013" lon="12.5200515"><ele>263.75</ele><time>2026-04-19T10:21:12.848Z</time></trkpt><trkpt lat="43.8046326" lon="12.5199744"><ele>260.0</ele><time>2026-04-19T10:21:13.857Z</time></trkpt><trkpt lat="43.8047391" lon="12.5199155"><ele>260.0</ele><time>2026-04-19T10:21:14.854Z</time></trkpt><trkpt lat="43.804835" lon="12.5198714"><ele>260.0</ele><time>2026-04-19T10:21:15.856Z</time></trkpt><trkpt lat="43.8049186" lon="12.519857"><ele>260.0</ele><time>2026-04-19T10:21:16.852Z</time></trkpt><trkpt lat="43.8049932" lon="12.5198835"><ele>260.0</ele><time>2026-04-19T10:21:17.857Z</time></trkpt><trkpt lat="43.8050586" lon="12.5199444"><ele>260.0</ele><time>2026-04-19T10:21:18.852Z</time></trkpt><trkpt lat="43.8051303" lon="12.5200446"><ele>260.0</ele><time>2026-04-19T10:21:19.872Z</time></trkpt><trkpt lat="43.8051925" lon="12.5201565"><ele>259.2</ele><time>2026-04-19T10:21:20.852Z</time></trkpt><trkpt lat="43.8052306" lon="12.5202635"><ele>258.4</ele><time>2026-04-19T10:21:21.85Z</time></trkpt><trkpt lat="43.8052523" lon="12.5203702"><ele>257.6</ele><time>2026-04-19T10:21:22.851Z</time></trkpt><trkpt lat="43.8052276" lon="12.520503"><ele>256.8</ele><time>2026-04-19T10:21:23.849Z</time></trkpt><trkpt lat="43.8051687" lon="12.5206616"><ele>256.0</ele><time>2026-04-19T10:21:24.848Z</time></trkpt><trkpt lat="43.8051254" lon="12.5208002"><ele>255.99999999999997</ele><time>2026-04-19T10:21:25.855Z</time></trkpt><trkpt lat="43.8050753" lon="12.5209139"><ele>256.0</ele><time>2026-04-19T10:21:26.866Z</time></trkpt><trkpt lat="43.8050533" lon="12.5210094"><ele>256.0</ele><time>2026-04-19T10:21:27.848Z</time></trkpt><trkpt lat="43.8051064" lon="12.5211398"><ele>256.0</ele><time>2026-04-19T10:21:29.85Z</time></trkpt><trkpt lat="43.8051682" lon="12.5211675"><ele>255.99999999999997</ele><time>2026-04-19T10:21:30.854Z</time></trkpt><trkpt lat="43.8052463" lon="12.5211703"><ele>256.0</ele><time>2026-04-19T10:21:31.853Z</time></trkpt><trkpt lat="43.8053466" lon="12.5211476"><ele>253.5</ele><time>2026-04-19T10:21:32.867Z</time></trkpt><trkpt lat="43.8054674" lon="12.5211151"><ele>251.0</ele><time>2026-04-19T10:21:33.851Z</time></trkpt><trkpt lat="43.8056029" lon="12.5210793"><ele>248.5</ele><time>2026-04-19T10:21:34.856Z</time></trkpt><trkpt lat="43.8057525" lon="12.521045"><ele>246.0</ele><time>2026-04-19T10:21:35.85Z</time></trkpt><trkpt lat="43.8058919" lon="12.5210204"><ele>243.0</ele><time>2026-04-19T10:21:36.855Z</time></trkpt><trkpt lat="43.8060175" lon="12.5210024"><ele>240.00000000000003</ele><time>2026-04-19T10:21:37.852Z</time></trkpt><trkpt lat="43.8061324" lon="12.520988"><ele>237.00000000000003</ele><time>2026-04-19T10:21:38.853Z</time></trkpt><trkpt lat="43.8062173" lon="12.5209852"><ele>234.0</ele><time>2026-04-19T10:21:39.848Z</time></trkpt><trkpt lat="43.8062865" lon="12.5209986"><ele>231.0</ele><time>2026-04-19T10:21:40.853Z</time></trkpt><trkpt lat="43.8063673" lon="12.5211132"><ele>230.60000000000002</ele><time>2026-04-19T10:21:42.853Z</time></trkpt><trkpt lat="43.8063859" lon="12.5212351"><ele>230.20000000000002</ele><time>2026-04-19T10:21:43.855Z</time></trkpt><trkpt lat="43.8063928" lon="12.5213964"><ele>229.79999999999998</ele><time>2026-04-19T10:21:44.847Z</time></trkpt><trkpt lat="43.8063995" lon="12.5215558"><ele>229.39999999999998</ele><time>2026-04-19T10:21:45.855Z</time></trkpt><trkpt lat="43.8063866" lon="12.5216758"><ele>229.0</ele><time>2026-04-19T10:21:46.859Z</time></trkpt><trkpt lat="43.8063585" lon="12.5217865"><ele>229.0</ele><time>2026-04-19T10:21:47.851Z</time></trkpt><trkpt lat="43.8062933" lon="12.5219099"><ele>228.99999999999997</ele><time>2026-04-19T10:21:48.849Z</time></trkpt><trkpt lat="43.806216" lon="12.5220377"><ele>228.99999999999997</ele><time>2026-04-19T10:21:49.853Z</time></trkpt><trkpt lat="43.8061657" lon="12.5221451"><ele>229.0</ele><time>2026-04-19T10:21:50.855Z</time></trkpt><trkpt lat="43.8061218" lon="12.5222376"><ele>229.0</ele><time>2026-04-19T10:21:51.853Z</time></trkpt><trkpt lat="43.8060961" lon="12.5223251"><ele>227.79999999999998</ele><time>2026-04-19T10:21:52.878Z</time></trkpt><trkpt lat="43.8061202" lon="12.5224104"><ele>226.59999999999997</ele><time>2026-04-19T10:21:53.849Z</time></trkpt><trkpt lat="43.8061809" lon="12.5225022"><ele>225.4</ele><time>2026-04-19T10:21:54.853Z</time></trkpt><trkpt lat="43.8062654" lon="12.5226045"><ele>224.2</ele><time>2026-04-19T10:21:55.853Z</time></trkpt><trkpt lat="43.8063716" lon="12.5227205"><ele>223.0</ele><time>2026-04-19T10:21:56.857Z</time></trkpt><trkpt lat="43.8064837" lon="12.5228531"><ele>222.0</ele><time>2026-04-19T10:21:57.889Z</time></trkpt><trkpt lat="43.8065865" lon="12.5229806"><ele>221.0</ele><time>2026-04-19T10:21:58.851Z</time></trkpt><trkpt lat="43.8066846" lon="12.5231014"><ele>220.0</ele><time>2026-04-19T10:21:59.853Z</time></trkpt><trkpt lat="43.8067693" lon="12.5232034"><ele>219.0</ele><time>2026-04-19T10:22:00.853Z</time></trkpt><trkpt lat="43.8068513" lon="12.5232839"><ele>216.39999999999998</ele><time>2026-04-19T10:22:01.853Z</time></trkpt><trkpt lat="43.8069312" lon="12.5233414"><ele>213.79999999999998</ele><time>2026-04-19T10:22:02.866Z</time></trkpt><trkpt lat="43.8070141" lon="12.5233801"><ele>211.2</ele><time>2026-04-19T10:22:03.849Z</time></trkpt><trkpt lat="43.8071073" lon="12.5234011"><ele>208.60000000000002</ele><time>2026-04-19T10:22:04.846Z</time></trkpt><trkpt lat="43.8072061" lon="12.5234021"><ele>206.0</ele><time>2026-04-19T10:22:05.848Z</time></trkpt><trkpt lat="43.8072975" lon="12.5233829"><ele>206.0</ele><time>2026-04-19T10:22:06.845Z</time></trkpt><trkpt lat="43.8073758" lon="12.523344"><ele>206.0</ele><time>2026-04-19T10:22:07.844Z</time></trkpt><trkpt lat="43.8074399" lon="12.523283"><ele>206.0</ele><time>2026-04-19T10:22:08.85Z</time></trkpt><trkpt lat="43.8075082" lon="12.523199"><ele>206.0</ele><time>2026-04-19T10:22:09.848Z</time></trkpt><trkpt lat="43.8075938" lon="12.5230943"><ele>206.0</ele><time>2026-04-19T10:22:10.851Z</time></trkpt><trkpt lat="43.807684" lon="12.5229861"><ele>202.5</ele><time>2026-04-19T10:22:11.848Z</time></trkpt><trkpt lat="43.8077563" lon="12.5228831"><ele>199.0</ele><time>2026-04-19T10:22:12.851Z</time></trkpt><trkpt lat="43.8078193" lon="12.5227668"><ele>195.5</ele><time>2026-04-19T10:22:13.868Z</time></trkpt><trkpt lat="43.8078797" lon="12.5226254"><ele>192.0</ele><time>2026-04-19T10:22:14.852Z</time></trkpt><trkpt lat="43.8079469" lon="12.5224517"><ele>192.0</ele><time>2026-04-19T10:22:15.849Z</time></trkpt><trkpt lat="43.8080115" lon="12.5222639"><ele>192.0</ele><time>2026-04-19T10:22:16.849Z</time></trkpt><trkpt lat="43.8080713" lon="12.5220745"><ele>192.0</ele><time>2026-04-19T10:22:17.849Z</time></trkpt><trkpt lat="43.8081234" lon="12.5218843"><ele>192.0</ele><time>2026-04-19T10:22:18.854Z</time></trkpt><trkpt lat="43.8081649" lon="12.5216924"><ele>191.66666666666666</ele><time>2026-04-19T10:22:19.855Z</time></trkpt><trkpt lat="43.8082097" lon="12.5214822"><ele>191.33333333333331</ele><time>2026-04-19T10:22:20.868Z</time></trkpt><trkpt lat="43.8082571" lon="12.5212689"><ele>191.0</ele><time>2026-04-19T10:22:21.849Z</time></trkpt><trkpt lat="43.8083108" lon="12.521065"><ele>189.75</ele><time>2026-04-19T10:22:22.851Z</time></trkpt><trkpt lat="43.8083584" lon="12.5208738"><ele>188.5</ele><time>2026-04-19T10:22:23.852Z</time></trkpt><trkpt lat="43.8084008" lon="12.5207057"><ele>187.25</ele><time>2026-04-19T10:22:24.852Z</time></trkpt><trkpt lat="43.8084445" lon="12.5205456"><ele>186.0</ele><time>2026-04-19T10:22:25.852Z</time></trkpt><trkpt lat="43.8084851" lon="12.520386"><ele>183.5</ele><time>2026-04-19T10:22:26.857Z</time></trkpt><trkpt lat="43.8085213" lon="12.5202257"><ele>181.0</ele><time>2026-04-19T10:22:27.846Z</time></trkpt><trkpt lat="43.8085532" lon="12.5200563"><ele>178.5</ele><time>2026-04-19T10:22:28.85Z</time></trkpt><trkpt lat="43.8085896" lon="12.5198677"><ele>176.0</ele><time>2026-04-19T10:22:29.855Z</time></trkpt><trkpt lat="43.8086281" lon="12.5196953"><ele>173.75</ele><time>2026-04-19T10:22:30.848Z</time></trkpt><trkpt lat="43.8086618" lon="12.5195242"><ele>171.5</ele><time>2026-04-19T10:22:31.875Z</time></trkpt><trkpt lat="43.808696" lon="12.5193525"><ele>169.25</ele><time>2026-04-19T10:22:32.855Z</time></trkpt><trkpt lat="43.8087254" lon="12.5191308"><ele>167.0</ele><time>2026-04-19T10:22:33.858Z</time></trkpt><trkpt lat="43.8087499" lon="12.5189122"><ele>167.25</ele><time>2026-04-19T10:22:34.849Z</time></trkpt><trkpt lat="43.8087716" lon="12.518714"><ele>167.5</ele><time>2026-04-19T10:22:35.855Z</time></trkpt><trkpt lat="43.8087941" lon="12.5185381"><ele>167.75</ele><time>2026-04-19T10:22:36.855Z</time></trkpt><trkpt lat="43.8088232" lon="12.5183773"><ele>168.0</ele><time>2026-04-19T10:22:37.858Z</time></trkpt><trkpt lat="43.8088727" lon="12.518229"><ele>168.0</ele><time>2026-04-19T10:22:38.856Z</time></trkpt><trkpt lat="43.8089506" lon="12.5180921"><ele>168.0</ele><time>2026-04-19T10:22:39.869Z</time></trkpt><trkpt lat="43.8090509" lon="12.5179571"><ele>168.0</ele><time>2026-04-19T10:22:40.848Z</time></trkpt><trkpt lat="43.8091678" lon="12.5178002"><ele>168.0</ele><time>2026-04-19T10:22:41.85Z</time></trkpt><trkpt lat="43.8092961" lon="12.5176268"><ele>167.0</ele><time>2026-04-19T10:22:42.85Z</time></trkpt><trkpt lat="43.8094326" lon="12.5174402"><ele>166.0</ele><time>2026-04-19T10:22:43.854Z</time></trkpt><trkpt lat="43.8095823" lon="12.5172285"><ele>165.0</ele><time>2026-04-19T10:22:44.853Z</time></trkpt><trkpt lat="43.8097359" lon="12.5170173"><ele>165.0</ele><time>2026-04-19T10:22:45.852Z</time></trkpt><trkpt lat="43.8098776" lon="12.5168222"><ele>165.0</ele><time>2026-04-19T10:22:46.869Z</time></trkpt><trkpt lat="43.810004" lon="12.5166495"><ele>165.0</ele><time>2026-04-19T10:22:47.858Z</time></trkpt><trkpt lat="43.8101163" lon="12.5164967"><ele>165.2</ele><time>2026-04-19T10:22:48.852Z</time></trkpt><trkpt lat="43.8102147" lon="12.5163649"><ele>165.4</ele><time>2026-04-19T10:22:49.849Z</time></trkpt><trkpt lat="43.8102963" lon="12.5162505"><ele>165.60000000000002</ele><time>2026-04-19T10:22:50.855Z</time></trkpt><trkpt lat="43.810351" lon="12.5161469"><ele>165.8</ele><time>2026-04-19T10:22:51.852Z</time></trkpt><trkpt lat="43.8103738" lon="12.5160498"><ele>166.0</ele><time>2026-04-19T10:22:52.853Z</time></trkpt><trkpt lat="43.8103643" lon="12.5159583"><ele>166.0</ele><time>2026-04-19T10:22:53.85Z</time></trkpt><trkpt lat="43.8103184" lon="12.5158701"><ele>166.0</ele><time>2026-04-19T10:22:54.852Z</time></trkpt><trkpt lat="43.8102506" lon="12.5157751"><ele>166.0</ele><time>2026-04-19T10:22:55.851Z</time></trkpt><trkpt lat="43.8101555" lon="12.5156513"><ele>166.0</ele><time>2026-04-19T10:22:56.852Z</time></trkpt><trkpt lat="43.8100433" lon="12.5154936"><ele>166.33333333333334</ele><time>2026-04-19T10:22:57.853Z</time></trkpt><trkpt lat="43.809922" lon="12.5153136"><ele>166.66666666666666</ele><time>2026-04-19T10:22:58.849Z</time></trkpt><trkpt lat="43.8097933" lon="12.5151208"><ele>167.0</ele><time>2026-04-19T10:22:59.871Z</time></trkpt><trkpt lat="43.809661" lon="12.5149229"><ele>167.0</ele><time>2026-04-19T10:23:00.856Z</time></trkpt><trkpt lat="43.8095235" lon="12.5147203"><ele>167.0</ele><time>2026-04-19T10:23:01.852Z</time></trkpt><trkpt lat="43.809386" lon="12.5145196"><ele>167.0</ele><time>2026-04-19T10:23:02.849Z</time></trkpt><trkpt lat="43.8092531" lon="12.5143199"><ele>167.0</ele><time>2026-04-19T10:23:03.854Z</time></trkpt><trkpt lat="43.809119" lon="12.5141149"><ele>167.0</ele><time>2026-04-19T10:23:04.849Z</time></trkpt><trkpt lat="43.8089743" lon="12.5138978"><ele>167.0</ele><time>2026-04-19T10:23:05.872Z</time></trkpt><trkpt lat="43.8088324" lon="12.5136839"><ele>167.0</ele><time>2026-04-19T10:23:06.85Z</time></trkpt><trkpt lat="43.8087039" lon="12.5134909"><ele>167.0</ele><time>2026-04-19T10:23:07.852Z</time></trkpt><trkpt lat="43.8086012" lon="12.5133433"><ele>167.0</ele><time>2026-04-19T10:23:08.854Z</time></trkpt><trkpt lat="43.8085202" lon="12.5132395"><ele>167.0</ele><time>2026-04-19T10:23:09.845Z</time></trkpt><trkpt lat="43.808452" lon="12.5131622"><ele>167.2</ele><time>2026-04-19T10:23:10.874Z</time></trkpt><trkpt lat="43.808403" lon="12.5130968"><ele>167.39999999999998</ele><time>2026-04-19T10:23:11.845Z</time></trkpt><trkpt lat="43.8083799" lon="12.5129559"><ele>167.60000000000002</ele><time>2026-04-19T10:23:13.851Z</time></trkpt><trkpt lat="43.8084348" lon="12.5128106"><ele>167.8</ele><time>2026-04-19T10:23:15.869Z</time></trkpt><trkpt lat="43.808493" lon="12.512717"><ele>168.0</ele><time>2026-04-19T10:23:16.851Z</time></trkpt><trkpt lat="43.8085456" lon="12.5126096"><ele>168.0</ele><time>2026-04-19T10:23:17.849Z</time></trkpt><trkpt lat="43.8085994" lon="12.5124916"><ele>168.0</ele><time>2026-04-19T10:23:18.855Z</time></trkpt><trkpt lat="43.8086594" lon="12.5123695"><ele>168.0</ele><time>2026-04-19T10:23:19.852Z</time></trkpt><trkpt lat="43.8087252" lon="12.5122286"><ele>168.0</ele><time>2026-04-19T10:23:20.875Z</time></trkpt><trkpt lat="43.8087944" lon="12.5120748"><ele>168.75</ele><time>2026-04-19T10:23:21.85Z</time></trkpt><trkpt lat="43.8088689" lon="12.5119081"><ele>169.5</ele><time>2026-04-19T10:23:22.855Z</time></trkpt><trkpt lat="43.808947" lon="12.5117353"><ele>170.25</ele><time>2026-04-19T10:23:23.851Z</time></trkpt><trkpt lat="43.8090312" lon="12.5115541"><ele>171.0</ele><time>2026-04-19T10:23:24.85Z</time></trkpt><trkpt lat="43.8091143" lon="12.5113746"><ele>170.75</ele><time>2026-04-19T10:23:25.852Z</time></trkpt><trkpt lat="43.8091965" lon="12.5111999"><ele>170.5</ele><time>2026-04-19T10:23:26.86Z</time></trkpt><trkpt lat="43.8092761" lon="12.5110276"><ele>170.25</ele><time>2026-04-19T10:23:27.848Z</time></trkpt><trkpt lat="43.8093552" lon="12.5108555"><ele>170.0</ele><time>2026-04-19T10:23:28.85Z</time></trkpt><trkpt lat="43.8094298" lon="12.5106892"><ele>170.0</ele><time>2026-04-19T10:23:29.872Z</time></trkpt><trkpt lat="43.8094959" lon="12.5105389"><ele>170.0</ele><time>2026-04-19T10:23:30.851Z</time></trkpt><trkpt lat="43.8095595" lon="12.5104022"><ele>170.0</ele><time>2026-04-19T10:23:31.849Z</time></trkpt><trkpt lat="43.8096184" lon="12.5102755"><ele>170.0</ele><time>2026-04-19T10:23:32.851Z</time></trkpt><trkpt lat="43.8096745" lon="12.5101496"><ele>171.0</ele><time>2026-04-19T10:23:33.857Z</time></trkpt><trkpt lat="43.8097301" lon="12.5100258"><ele>172.0</ele><time>2026-04-19T10:23:34.848Z</time></trkpt><trkpt lat="43.8097785" lon="12.5099227"><ele>173.0</ele><time>2026-04-19T10:23:35.867Z</time></trkpt><trkpt lat="43.8098384" lon="12.5098375"><ele>174.0</ele><time>2026-04-19T10:23:37.851Z</time></trkpt><trkpt lat="43.8099033" lon="12.5098591"><ele>175.0</ele><time>2026-04-19T10:23:39.852Z</time></trkpt><trkpt lat="43.8099738" lon="12.509909"><ele>176.0</ele><time>2026-04-19T10:23:40.844Z</time></trkpt><trkpt lat="43.8100681" lon="12.5099943"><ele>175.25</ele><time>2026-04-19T10:23:41.844Z</time></trkpt><trkpt lat="43.8101768" lon="12.5101028"><ele>174.5</ele><time>2026-04-19T10:23:42.847Z</time></trkpt><trkpt lat="43.8102918" lon="12.5102115"><ele>173.75</ele><time>2026-04-19T10:23:43.848Z</time></trkpt><trkpt lat="43.8104158" lon="12.5103221"><ele>173.0</ele><time>2026-04-19T10:23:44.866Z</time></trkpt><trkpt lat="43.8105461" lon="12.5104342"><ele>173.0</ele><time>2026-04-19T10:23:45.848Z</time></trkpt><trkpt lat="43.8106838" lon="12.5105471"><ele>173.0</ele><time>2026-04-19T10:23:46.849Z</time></trkpt><trkpt lat="43.8108217" lon="12.5106554"><ele>173.0</ele><time>2026-04-19T10:23:47.85Z</time></trkpt><trkpt lat="43.8109521" lon="12.5107506"><ele>173.2</ele><time>2026-04-19T10:23:48.849Z</time></trkpt><trkpt lat="43.8110746" lon="12.51083"><ele>173.4</ele><time>2026-04-19T10:23:49.858Z</time></trkpt><trkpt lat="43.8111877" lon="12.5108972"><ele>173.6</ele><time>2026-04-19T10:23:50.847Z</time></trkpt><trkpt lat="43.8112866" lon="12.5109421"><ele>173.79999999999998</ele><time>2026-04-19T10:23:51.846Z</time></trkpt><trkpt lat="43.8113663" lon="12.5109641"><ele>174.0</ele><time>2026-04-19T10:23:52.849Z</time></trkpt><trkpt lat="43.8114538" lon="12.5109274"><ele>174.0</ele><time>2026-04-19T10:23:54.848Z</time></trkpt><trkpt lat="43.8114446" lon="12.5108175"><ele>174.0</ele><time>2026-04-19T10:23:56.852Z</time></trkpt><trkpt lat="43.8113559" lon="12.5106928"><ele>174.0</ele><time>2026-04-19T10:23:58.851Z</time></trkpt><trkpt lat="43.8112943" lon="12.5106385"><ele>174.0</ele><time>2026-04-19T10:23:59.875Z</time></trkpt><trkpt lat="43.8112402" lon="12.5105906"><ele>174.0</ele><time>2026-04-19T10:24:00.846Z</time></trkpt><trkpt lat="43.8111794" lon="12.5105405"><ele>174.0</ele><time>2026-04-19T10:24:01.851Z</time></trkpt><trkpt lat="43.8111089" lon="12.5104744"><ele>175.25</ele><time>2026-04-19T10:24:02.848Z</time></trkpt><trkpt lat="43.8110248" lon="12.5103796"><ele>176.5</ele><time>2026-04-19T10:24:03.848Z</time></trkpt><trkpt lat="43.8109458" lon="12.5102819"><ele>177.75</ele><time>2026-04-19T10:24:04.857Z</time></trkpt><trkpt lat="43.810862" lon="12.5101715"><ele>179.0</ele><time>2026-04-19T10:24:05.848Z</time></trkpt><trkpt lat="43.8107585" lon="12.5100444"><ele>181.0</ele><time>2026-04-19T10:24:06.897Z</time></trkpt><trkpt lat="43.8106545" lon="12.5099071"><ele>183.0</ele><time>2026-04-19T10:24:07.848Z</time></trkpt><trkpt lat="43.8105287" lon="12.5097679"><ele>185.0</ele><time>2026-04-19T10:24:08.852Z</time></trkpt><trkpt lat="43.8103958" lon="12.5096264"><ele>185.66666666666666</ele><time>2026-04-19T10:24:09.847Z</time></trkpt><trkpt lat="43.8102714" lon="12.5094868"><ele>186.33333333333334</ele><time>2026-04-19T10:24:10.848Z</time></trkpt><trkpt lat="43.8101581" lon="12.5093496"><ele>187.0</ele><time>2026-04-19T10:24:11.849Z</time></trkpt><trkpt lat="43.8100572" lon="12.5092083"><ele>187.0</ele><time>2026-04-19T10:24:12.848Z</time></trkpt><trkpt lat="43.8099759" lon="12.5090343"><ele>187.0</ele><time>2026-04-19T10:24:13.849Z</time></trkpt><trkpt lat="43.8098939" lon="12.5088549"><ele>187.0</ele><time>2026-04-19T10:24:14.844Z</time></trkpt><trkpt lat="43.8098069" lon="12.5086891"><ele>189.5</ele><time>2026-04-19T10:24:15.852Z</time></trkpt><trkpt lat="43.8097091" lon="12.5085509"><ele>192.0</ele><time>2026-04-19T10:24:16.849Z</time></trkpt><trkpt lat="43.8096027" lon="12.5084265"><ele>194.5</ele><time>2026-04-19T10:24:17.865Z</time></trkpt><trkpt lat="43.8095084" lon="12.5083183"><ele>197.0</ele><time>2026-04-19T10:24:18.849Z</time></trkpt><trkpt lat="43.8094311" lon="12.5082221"><ele>197.0</ele><time>2026-04-19T10:24:19.848Z</time></trkpt><trkpt lat="43.8093939" lon="12.5081158"><ele>197.0</ele><time>2026-04-19T10:24:20.853Z</time></trkpt><trkpt lat="43.8093802" lon="12.5079889"><ele>197.0</ele><time>2026-04-19T10:24:21.849Z</time></trkpt><trkpt lat="43.8094048" lon="12.507841"><ele>197.0</ele><time>2026-04-19T10:24:22.874Z</time></trkpt><trkpt lat="43.8094565" lon="12.5076618"><ele>197.0</ele><time>2026-04-19T10:24:23.845Z</time></trkpt><trkpt lat="43.8095102" lon="12.5074497"><ele>198.33333333333334</ele><time>2026-04-19T10:24:24.849Z</time></trkpt><trkpt lat="43.8095647" lon="12.5072292"><ele>199.66666666666669</ele><time>2026-04-19T10:24:25.856Z</time></trkpt><trkpt lat="43.8096228" lon="12.5069796"><ele>201.0</ele><time>2026-04-19T10:24:26.859Z</time></trkpt><trkpt lat="43.8096757" lon="12.5067315"><ele>201.66666666666669</ele><time>2026-04-19T10:24:27.87Z</time></trkpt><trkpt lat="43.8097244" lon="12.5065159"><ele>202.33333333333334</ele><time>2026-04-19T10:24:28.85Z</time></trkpt><trkpt lat="43.809767" lon="12.5063059"><ele>203.0</ele><time>2026-04-19T10:24:29.849Z</time></trkpt><trkpt lat="43.8098035" lon="12.5061074"><ele>203.4</ele><time>2026-04-19T10:24:30.85Z</time></trkpt><trkpt lat="43.8098365" lon="12.5059209"><ele>203.8</ele><time>2026-04-19T10:24:31.848Z</time></trkpt><trkpt lat="43.809863" lon="12.5057547"><ele>204.2</ele><time>2026-04-19T10:24:32.869Z</time></trkpt><trkpt lat="43.8098851" lon="12.5056231"><ele>204.6</ele><time>2026-04-19T10:24:33.851Z</time></trkpt><trkpt lat="43.8099047" lon="12.505525"><ele>205.0</ele><time>2026-04-19T10:24:34.849Z</time></trkpt><trkpt lat="43.8099665" lon="12.5054326"><ele>205.0</ele><time>2026-04-19T10:24:36.85Z</time></trkpt><trkpt lat="43.8100429" lon="12.5054337"><ele>205.0</ele><time>2026-04-19T10:24:37.856Z</time></trkpt><trkpt lat="43.810142" lon="12.5054721"><ele>205.0</ele><time>2026-04-19T10:24:38.849Z</time></trkpt><trkpt lat="43.8102611" lon="12.5055309"><ele>205.0</ele><time>2026-04-19T10:24:39.866Z</time></trkpt><trkpt lat="43.8103855" lon="12.5055885"><ele>205.0</ele><time>2026-04-19T10:24:40.848Z</time></trkpt><trkpt lat="43.8105064" lon="12.5056405"><ele>205.6</ele><time>2026-04-19T10:24:41.849Z</time></trkpt><trkpt lat="43.8106268" lon="12.5056885"><ele>206.2</ele><time>2026-04-19T10:24:42.848Z</time></trkpt><trkpt lat="43.8107366" lon="12.5057355"><ele>206.8</ele><time>2026-04-19T10:24:43.848Z</time></trkpt><trkpt lat="43.8108332" lon="12.5057636"><ele>207.4</ele><time>2026-04-19T10:24:44.848Z</time></trkpt><trkpt lat="43.8109259" lon="12.5057618"><ele>208.0</ele><time>2026-04-19T10:24:45.847Z</time></trkpt><trkpt lat="43.8110275" lon="12.5057217"><ele>202.0</ele><time>2026-04-19T10:24:46.848Z</time></trkpt><trkpt lat="43.8111456" lon="12.5056253"><ele>196.0</ele><time>2026-04-19T10:24:47.845Z</time></trkpt><trkpt lat="43.8112859" lon="12.5054873"><ele>190.0</ele><time>2026-04-19T10:24:48.845Z</time></trkpt><trkpt lat="43.811432" lon="12.5053392"><ele>190.0</ele><time>2026-04-19T10:24:49.847Z</time></trkpt><trkpt lat="43.8115653" lon="12.5051983"><ele>190.0</ele><time>2026-04-19T10:24:50.854Z</time></trkpt><trkpt lat="43.8116906" lon="12.5050539"><ele>190.0</ele><time>2026-04-19T10:24:51.847Z</time></trkpt><trkpt lat="43.8118065" lon="12.5049072"><ele>187.66666666666669</ele><time>2026-04-19T10:24:52.845Z</time></trkpt><trkpt lat="43.8119237" lon="12.5047704"><ele>185.33333333333334</ele><time>2026-04-19T10:24:53.872Z</time></trkpt><trkpt lat="43.8120469" lon="12.5046635"><ele>183.0</ele><time>2026-04-19T10:24:54.845Z</time></trkpt><trkpt lat="43.8121989" lon="12.5045772"><ele>183.0</ele><time>2026-04-19T10:24:55.848Z</time></trkpt><trkpt lat="43.8123741" lon="12.5044991"><ele>183.0</ele><time>2026-04-19T10:24:56.848Z</time></trkpt><trkpt lat="43.812544" lon="12.5044152"><ele>183.0</ele><time>2026-04-19T10:24:57.849Z</time></trkpt><trkpt lat="43.8127006" lon="12.5043196"><ele>182.33333333333334</ele><time>2026-04-19T10:24:58.865Z</time></trkpt><trkpt lat="43.8128379" lon="12.5041913"><ele>181.66666666666669</ele><time>2026-04-19T10:24:59.848Z</time></trkpt><trkpt lat="43.8129817" lon="12.5040271"><ele>181.0</ele><time>2026-04-19T10:25:00.855Z</time></trkpt><trkpt lat="43.81313" lon="12.5038574"><ele>181.0</ele><time>2026-04-19T10:25:01.857Z</time></trkpt><trkpt lat="43.8132652" lon="12.503699"><ele>181.0</ele><time>2026-04-19T10:25:02.853Z</time></trkpt><trkpt lat="43.8133801" lon="12.5035513"><ele>181.0</ele><time>2026-04-19T10:25:03.864Z</time></trkpt><trkpt lat="43.8134869" lon="12.5034083"><ele>181.0</ele><time>2026-04-19T10:25:04.851Z</time></trkpt><trkpt lat="43.8135911" lon="12.5032625"><ele>181.0</ele><time>2026-04-19T10:25:05.846Z</time></trkpt><trkpt lat="43.8136966" lon="12.5031086"><ele>181.0</ele><time>2026-04-19T10:25:06.851Z</time></trkpt><trkpt lat="43.813799" lon="12.5029541"><ele>181.0</ele><time>2026-04-19T10:25:07.854Z</time></trkpt><trkpt lat="43.8138984" lon="12.5028205"><ele>181.0</ele><time>2026-04-19T10:25:08.855Z</time></trkpt><trkpt lat="43.8140091" lon="12.5027112"><ele>181.0</ele><time>2026-04-19T10:25:09.876Z</time></trkpt><trkpt lat="43.8141307" lon="12.5026292"><ele>181.0</ele><time>2026-04-19T10:25:10.851Z</time></trkpt><trkpt lat="43.8142489" lon="12.5025554"><ele>182.20000000000002</ele><time>2026-04-19T10:25:11.851Z</time></trkpt><trkpt lat="43.8143497" lon="12.5024988"><ele>183.4</ele><time>2026-04-19T10:25:12.848Z</time></trkpt><trkpt lat="43.8144241" lon="12.5024254"><ele>184.6</ele><time>2026-04-19T10:25:13.848Z</time></trkpt><trkpt lat="43.81448" lon="12.5023105"><ele>185.8</ele><time>2026-04-19T10:25:14.848Z</time></trkpt><trkpt lat="43.8145132" lon="12.5021667"><ele>187.0</ele><time>2026-04-19T10:25:15.848Z</time></trkpt><trkpt lat="43.8145342" lon="12.5020026"><ele>187.0</ele><time>2026-04-19T10:25:16.849Z</time></trkpt><trkpt lat="43.81455" lon="12.5018329"><ele>187.0</ele><time>2026-04-19T10:25:17.847Z</time></trkpt><trkpt lat="43.8145653" lon="12.5016636"><ele>187.0</ele><time>2026-04-19T10:25:18.849Z</time></trkpt><trkpt lat="43.8145793" lon="12.5014907"><ele>187.0</ele><time>2026-04-19T10:25:19.852Z</time></trkpt><trkpt lat="43.8145963" lon="12.5013038"><ele>186.66666666666669</ele><time>2026-04-19T10:25:20.873Z</time></trkpt><trkpt lat="43.8146157" lon="12.5010984"><ele>186.33333333333334</ele><time>2026-04-19T10:25:21.854Z</time></trkpt><trkpt lat="43.8146355" lon="12.5008791"><ele>186.0</ele><time>2026-04-19T10:25:22.851Z</time></trkpt><trkpt lat="43.8146533" lon="12.500659"><ele>186.0</ele><time>2026-04-19T10:25:23.847Z</time></trkpt><trkpt lat="43.8146697" lon="12.5004487"><ele>186.0</ele><time>2026-04-19T10:25:24.846Z</time></trkpt><trkpt lat="43.8146918" lon="12.5002658"><ele>186.0</ele><time>2026-04-19T10:25:25.845Z</time></trkpt><trkpt lat="43.8147308" lon="12.5001131"><ele>186.0</ele><time>2026-04-19T10:25:26.852Z</time></trkpt><trkpt lat="43.8147948" lon="12.4999905"><ele>185.75</ele><time>2026-04-19T10:25:27.845Z</time></trkpt><trkpt lat="43.8148836" lon="12.4998879"><ele>185.5</ele><time>2026-04-19T10:25:28.847Z</time></trkpt><trkpt lat="43.81499" lon="12.4997969"><ele>185.25</ele><time>2026-04-19T10:25:29.846Z</time></trkpt><trkpt lat="43.8151042" lon="12.4997285"><ele>185.0</ele><time>2026-04-19T10:25:30.85Z</time></trkpt><trkpt lat="43.8152054" lon="12.4996646"><ele>185.16666666666666</ele><time>2026-04-19T10:25:31.849Z</time></trkpt><trkpt lat="43.8152879" lon="12.4996036"><ele>185.33333333333331</ele><time>2026-04-19T10:25:32.849Z</time></trkpt><trkpt lat="43.8153521" lon="12.4995424"><ele>185.5</ele><time>2026-04-19T10:25:33.866Z</time></trkpt><trkpt lat="43.8154321" lon="12.499436"><ele>185.66666666666666</ele><time>2026-04-19T10:25:35.851Z</time></trkpt><trkpt lat="43.8155068" lon="12.4993635"><ele>185.83333333333334</ele><time>2026-04-19T10:25:40.845Z</time></trkpt><trkpt lat="43.8155713" lon="12.4993474"><ele>186.0</ele><time>2026-04-19T10:25:42.916Z</time></trkpt><trkpt lat="43.8156706" lon="12.4993713"><ele>186.0</ele><time>2026-04-19T10:25:44.867Z</time></trkpt><trkpt lat="43.8157417" lon="12.4993814"><ele>186.0</ele><time>2026-04-19T10:25:45.844Z</time></trkpt><trkpt lat="43.8158376" lon="12.4993958"><ele>186.0</ele><time>2026-04-19T10:25:46.862Z</time></trkpt><trkpt lat="43.8159186" lon="12.4994006"><ele>186.0</ele><time>2026-04-19T10:25:47.85Z</time></trkpt><trkpt lat="43.8159912" lon="12.4994064"><ele>186.0</ele><time>2026-04-19T10:25:48.845Z</time></trkpt><trkpt lat="43.8160872" lon="12.4994147"><ele>186.0</ele><time>2026-04-19T10:25:49.852Z</time></trkpt><trkpt lat="43.8162058" lon="12.4994199"><ele>190.25</ele><time>2026-04-19T10:25:50.848Z</time></trkpt><trkpt lat="43.816342" lon="12.4994242"><ele>194.5</ele><time>2026-04-19T10:25:51.846Z</time></trkpt><trkpt lat="43.8164626" lon="12.4994223"><ele>198.75</ele><time>2026-04-19T10:25:52.87Z</time></trkpt><trkpt lat="43.8165717" lon="12.4994233"><ele>203.0</ele><time>2026-04-19T10:25:53.847Z</time></trkpt><trkpt lat="43.8166927" lon="12.4994136"><ele>203.0</ele><time>2026-04-19T10:25:54.849Z</time></trkpt><trkpt lat="43.8168107" lon="12.4994188"><ele>203.0</ele><time>2026-04-19T10:25:55.848Z</time></trkpt><trkpt lat="43.8168943" lon="12.4994318"><ele>203.0</ele><time>2026-04-19T10:25:56.848Z</time></trkpt><trkpt lat="43.8170003" lon="12.4993636"><ele>203.0</ele><time>2026-04-19T10:25:58.848Z</time></trkpt><trkpt lat="43.817056" lon="12.4992895"><ele>203.0</ele><time>2026-04-19T10:25:59.855Z</time></trkpt><trkpt lat="43.8171191" lon="12.4991929"><ele>207.16666666666669</ele><time>2026-04-19T10:26:00.848Z</time></trkpt><trkpt lat="43.817181" lon="12.4990792"><ele>211.33333333333334</ele><time>2026-04-19T10:26:01.85Z</time></trkpt><trkpt lat="43.8172457" lon="12.4989874"><ele>215.5</ele><time>2026-04-19T10:26:02.848Z</time></trkpt><trkpt lat="43.817311" lon="12.4989143"><ele>219.66666666666669</ele><time>2026-04-19T10:26:03.856Z</time></trkpt><trkpt lat="43.817381" lon="12.4988701"><ele>223.83333333333334</ele><time>2026-04-19T10:26:04.848Z</time></trkpt><trkpt lat="43.8174689" lon="12.498847"><ele>228.0</ele><time>2026-04-19T10:26:05.854Z</time></trkpt><trkpt lat="43.8175821" lon="12.498813"><ele>232.8</ele><time>2026-04-19T10:26:06.848Z</time></trkpt><trkpt lat="43.8176887" lon="12.4987541"><ele>237.60000000000002</ele><time>2026-04-19T10:26:07.851Z</time></trkpt><trkpt lat="43.8177799" lon="12.4986882"><ele>242.39999999999998</ele><time>2026-04-19T10:26:08.848Z</time></trkpt><trkpt lat="43.8178528" lon="12.498645"><ele>247.2</ele><time>2026-04-19T10:26:09.851Z</time></trkpt><trkpt lat="43.8179502" lon="12.4985946"><ele>252.0</ele><time>2026-04-19T10:26:11.848Z</time></trkpt><trkpt lat="43.8180926" lon="12.4985483"><ele>253.6</ele><time>2026-04-19T10:26:13.851Z</time></trkpt><trkpt lat="43.8181989" lon="12.4985245"><ele>255.2</ele><time>2026-04-19T10:26:14.848Z</time></trkpt><trkpt lat="43.8183091" lon="12.4984899"><ele>256.8</ele><time>2026-04-19T10:26:15.846Z</time></trkpt><trkpt lat="43.8184006" lon="12.4984457"><ele>258.4</ele><time>2026-04-19T10:26:16.86Z</time></trkpt><trkpt lat="43.8184532" lon="12.4983596"><ele>260.0</ele><time>2026-04-19T10:26:17.849Z</time></trkpt><trkpt lat="43.8184798" lon="12.4982238"><ele>261.2</ele><time>2026-04-19T10:26:18.846Z</time></trkpt><trkpt lat="43.8185106" lon="12.4980621"><ele>262.4</ele><time>2026-04-19T10:26:19.853Z</time></trkpt><trkpt lat="43.8185464" lon="12.4978941"><ele>263.6</ele><time>2026-04-19T10:26:20.85Z</time></trkpt><trkpt lat="43.8185814" lon="12.4977476"><ele>264.8</ele><time>2026-04-19T10:26:21.87Z</time></trkpt><trkpt lat="43.8186082" lon="12.4976625"><ele>266.0</ele><time>2026-04-19T10:26:22.85Z</time></trkpt><trkpt lat="43.8187167" lon="12.4976753"><ele>266.0</ele><time>2026-04-19T10:26:25.852Z</time></trkpt><trkpt lat="43.8188026" lon="12.4977293"><ele>266.0</ele><time>2026-04-19T10:26:26.879Z</time></trkpt><trkpt lat="43.8189097" lon="12.4977923"><ele>266.0</ele><time>2026-04-19T10:26:27.85Z</time></trkpt><trkpt lat="43.8190256" lon="12.4978615"><ele>266.0</ele><time>2026-04-19T10:26:28.846Z</time></trkpt><trkpt lat="43.8191381" lon="12.497934"><ele>267.25</ele><time>2026-04-19T10:26:29.847Z</time></trkpt><trkpt lat="43.819241" lon="12.4979987"><ele>268.5</ele><time>2026-04-19T10:26:30.852Z</time></trkpt><trkpt lat="43.8193501" lon="12.4980687"><ele>269.75</ele><time>2026-04-19T10:26:31.847Z</time></trkpt><trkpt lat="43.819473" lon="12.498147"><ele>271.0</ele><time>2026-04-19T10:26:32.848Z</time></trkpt><trkpt lat="43.8196063" lon="12.4982243"><ele>274.5</ele><time>2026-04-19T10:26:33.848Z</time></trkpt><trkpt lat="43.8197205" lon="12.49829"><ele>278.0</ele><time>2026-04-19T10:26:34.867Z</time></trkpt><trkpt lat="43.8198072" lon="12.4983242"><ele>281.5</ele><time>2026-04-19T10:26:35.848Z</time></trkpt><trkpt lat="43.8198754" lon="12.4983163"><ele>285.0</ele><time>2026-04-19T10:26:36.85Z</time></trkpt><trkpt lat="43.8199407" lon="12.4982876"><ele>288.5</ele><time>2026-04-19T10:26:37.847Z</time></trkpt><trkpt lat="43.8200194" lon="12.4982429"><ele>292.0</ele><time>2026-04-19T10:26:38.851Z</time></trkpt><trkpt lat="43.8200937" lon="12.4982077"><ele>296.0</ele><time>2026-04-19T10:26:39.849Z</time></trkpt><trkpt lat="43.8201721" lon="12.4982058"><ele>300.0</ele><time>2026-04-19T10:26:40.852Z</time></trkpt><trkpt lat="43.8202655" lon="12.4982195"><ele>304.0</ele><time>2026-04-19T10:26:41.848Z</time></trkpt><trkpt lat="43.8203697" lon="12.4982326"><ele>308.0</ele><time>2026-04-19T10:26:42.844Z</time></trkpt><trkpt lat="43.820465" lon="12.4982158"><ele>312.0</ele><time>2026-04-19T10:26:43.845Z</time></trkpt><trkpt lat="43.8205415" lon="12.4981981"><ele>312.0</ele><time>2026-04-19T10:26:44.848Z</time></trkpt><trkpt lat="43.8206182" lon="12.4982153"><ele>312.0</ele><time>2026-04-19T10:26:45.859Z</time></trkpt><trkpt lat="43.8207175" lon="12.4982648"><ele>312.0</ele><time>2026-04-19T10:26:46.852Z</time></trkpt><trkpt lat="43.8208236" lon="12.4983155"><ele>312.0</ele><time>2026-04-19T10:26:47.844Z</time></trkpt><trkpt lat="43.8209099" lon="12.4983508"><ele>312.0</ele><time>2026-04-19T10:26:48.85Z</time></trkpt><trkpt lat="43.8209942" lon="12.4983724"><ele>314.4</ele><time>2026-04-19T10:26:49.848Z</time></trkpt><trkpt lat="43.8210896" lon="12.4983852"><ele>316.79999999999995</ele><time>2026-04-19T10:26:50.86Z</time></trkpt><trkpt lat="43.8211859" lon="12.4983919"><ele>319.2</ele><time>2026-04-19T10:26:51.851Z</time></trkpt><trkpt lat="43.8213071" lon="12.4983973"><ele>321.59999999999997</ele><time>2026-04-19T10:26:52.855Z</time></trkpt><trkpt lat="43.8214257" lon="12.49841"><ele>324.0</ele><time>2026-04-19T10:26:53.855Z</time></trkpt><trkpt lat="43.8215224" lon="12.4984252"><ele>324.0</ele><time>2026-04-19T10:26:54.852Z</time></trkpt><trkpt lat="43.8215882" lon="12.4984229"><ele>324.0</ele><time>2026-04-19T10:26:55.854Z</time></trkpt><trkpt lat="43.8216835" lon="12.4984066"><ele>324.0</ele><time>2026-04-19T10:26:57.852Z</time></trkpt><trkpt lat="43.8217432" lon="12.4985467"><ele>324.0</ele><time>2026-04-19T10:26:59.846Z</time></trkpt><trkpt lat="43.821773" lon="12.4986699"><ele>324.0</ele><time>2026-04-19T10:27:00.847Z</time></trkpt><trkpt lat="43.8218003" lon="12.4987832"><ele>323.0</ele><time>2026-04-19T10:27:01.846Z</time></trkpt><trkpt lat="43.8218342" lon="12.49887"><ele>322.0</ele><time>2026-04-19T10:27:02.882Z</time></trkpt><trkpt lat="43.821891" lon="12.49896"><ele>321.0</ele><time>2026-04-19T10:27:03.847Z</time></trkpt><trkpt lat="43.8219664" lon="12.4990527"><ele>320.0</ele><time>2026-04-19T10:27:04.845Z</time></trkpt><trkpt lat="43.8220428" lon="12.4991295"><ele>319.0</ele><time>2026-04-19T10:27:05.854Z</time></trkpt><trkpt lat="43.8221192" lon="12.4992144"><ele>319.0</ele><time>2026-04-19T10:27:06.849Z</time></trkpt><trkpt lat="43.8221859" lon="12.4993167"><ele>319.0</ele><time>2026-04-19T10:27:07.864Z</time></trkpt><trkpt lat="43.8222455" lon="12.4994422"><ele>319.0</ele><time>2026-04-19T10:27:08.847Z</time></trkpt><trkpt lat="43.8223025" lon="12.4995565"><ele>319.0</ele><time>2026-04-19T10:27:09.852Z</time></trkpt><trkpt lat="43.8223552" lon="12.4996427"><ele>319.0</ele><time>2026-04-19T10:27:10.848Z</time></trkpt><trkpt lat="43.8224366" lon="12.4997033"><ele>321.25</ele><time>2026-04-19T10:27:11.848Z</time></trkpt><trkpt lat="43.8225393" lon="12.4997981"><ele>323.5</ele><time>2026-04-19T10:27:12.85Z</time></trkpt><trkpt lat="43.8226542" lon="12.4999109"><ele>325.75</ele><time>2026-04-19T10:27:13.852Z</time></trkpt><trkpt lat="43.8227846" lon="12.5000489"><ele>328.0</ele><time>2026-04-19T10:27:14.873Z</time></trkpt><trkpt lat="43.8229126" lon="12.500199"><ele>329.0</ele><time>2026-04-19T10:27:15.855Z</time></trkpt><trkpt lat="43.8230173" lon="12.500329"><ele>330.0</ele><time>2026-04-19T10:27:16.851Z</time></trkpt><trkpt lat="43.8230862" lon="12.5004262"><ele>331.0</ele><time>2026-04-19T10:27:17.843Z</time></trkpt><trkpt lat="43.8231333" lon="12.5005136"><ele>332.0</ele><time>2026-04-19T10:27:18.851Z</time></trkpt><trkpt lat="43.8231764" lon="12.5006247"><ele>333.0</ele><time>2026-04-19T10:27:19.854Z</time></trkpt><trkpt lat="43.8232011" lon="12.5007727"><ele>336.3333333333333</ele><time>2026-04-19T10:27:20.851Z</time></trkpt><trkpt lat="43.8232267" lon="12.5009805"><ele>339.66666666666663</ele><time>2026-04-19T10:27:21.858Z</time></trkpt><trkpt lat="43.8232667" lon="12.5011973"><ele>343.0</ele><time>2026-04-19T10:27:22.856Z</time></trkpt><trkpt lat="43.8233164" lon="12.501387"><ele>343.0</ele><time>2026-04-19T10:27:23.849Z</time></trkpt><trkpt lat="43.8233695" lon="12.5015527"><ele>343.0</ele><time>2026-04-19T10:27:24.843Z</time></trkpt><trkpt lat="43.8234339" lon="12.5016602"><ele>343.0</ele><time>2026-04-19T10:27:25.85Z</time></trkpt><trkpt lat="43.823514" lon="12.5017363"><ele>343.0</ele><time>2026-04-19T10:27:26.849Z</time></trkpt><trkpt lat="43.8236008" lon="12.5017914"><ele>343.0</ele><time>2026-04-19T10:27:27.848Z</time></trkpt><trkpt lat="43.8237132" lon="12.5018448"><ele>344.0</ele><time>2026-04-19T10:27:28.878Z</time></trkpt><trkpt lat="43.8238485" lon="12.5018879"><ele>345.0</ele><time>2026-04-19T10:27:29.855Z</time></trkpt><trkpt lat="43.8239762" lon="12.5019344"><ele>346.0</ele><time>2026-04-19T10:27:30.856Z</time></trkpt><trkpt lat="43.8240918" lon="12.5019904"><ele>347.0</ele><time>2026-04-19T10:27:31.844Z</time></trkpt><trkpt lat="43.8241968" lon="12.5020737"><ele>347.75</ele><time>2026-04-19T10:27:32.85Z</time></trkpt><trkpt lat="43.8242976" lon="12.502186"><ele>348.5</ele><time>2026-04-19T10:27:33.846Z</time></trkpt><trkpt lat="43.8244014" lon="12.5023226"><ele>349.25</ele><time>2026-04-19T10:27:34.855Z</time></trkpt><trkpt lat="43.8245025" lon="12.5024756"><ele>350.0</ele><time>2026-04-19T10:27:35.849Z</time></trkpt><trkpt lat="43.8245972" lon="12.5026351"><ele>353.5</ele><time>2026-04-19T10:27:36.85Z</time></trkpt><trkpt lat="43.8246773" lon="12.5027769"><ele>357.0</ele><time>2026-04-19T10:27:37.852Z</time></trkpt><trkpt lat="43.8247447" lon="12.502904"><ele>360.5</ele><time>2026-04-19T10:27:38.858Z</time></trkpt><trkpt lat="43.8248081" lon="12.5030289"><ele>364.0</ele><time>2026-04-19T10:27:39.873Z</time></trkpt><trkpt lat="43.8248704" lon="12.5031535"><ele>366.2</ele><time>2026-04-19T10:27:40.855Z</time></trkpt><trkpt lat="43.8249157" lon="12.5032656"><ele>368.4</ele><time>2026-04-19T10:27:41.852Z</time></trkpt><trkpt lat="43.8249485" lon="12.5033723"><ele>370.6</ele><time>2026-04-19T10:27:42.855Z</time></trkpt><trkpt lat="43.8249602" lon="12.503525"><ele>372.8</ele><time>2026-04-19T10:27:43.852Z</time></trkpt><trkpt lat="43.8249904" lon="12.503665"><ele>375.0</ele><time>2026-04-19T10:27:44.869Z</time></trkpt><trkpt lat="43.8250195" lon="12.5037747"><ele>375.0</ele><time>2026-04-19T10:27:45.852Z</time></trkpt><trkpt lat="43.8250602" lon="12.5038586"><ele>375.0</ele><time>2026-04-19T10:27:46.854Z</time></trkpt><trkpt lat="43.8250994" lon="12.5039451"><ele>375.0</ele><time>2026-04-19T10:27:47.855Z</time></trkpt><trkpt lat="43.8251331" lon="12.5040223"><ele>375.0</ele><time>2026-04-19T10:27:48.85Z</time></trkpt><trkpt lat="43.825215" lon="12.5041053"><ele>375.0</ele><time>2026-04-19T10:27:50.857Z</time></trkpt><trkpt lat="43.8252868" lon="12.5042234"><ele>375.0</ele><time>2026-04-19T10:27:52.852Z</time></trkpt><trkpt lat="43.8253102" lon="12.5043175"><ele>375.0</ele><time>2026-04-19T10:27:53.847Z</time></trkpt><trkpt lat="43.8253243" lon="12.5044333"><ele>375.0</ele><time>2026-04-19T10:27:54.852Z</time></trkpt><trkpt lat="43.8253339" lon="12.5045716"><ele>375.0</ele><time>2026-04-19T10:27:55.853Z</time></trkpt><trkpt lat="43.8253488" lon="12.5046959"><ele>375.0</ele><time>2026-04-19T10:27:56.848Z</time></trkpt><trkpt lat="43.825383" lon="12.5047862"><ele>375.0</ele><time>2026-04-19T10:27:57.862Z</time></trkpt><trkpt lat="43.825444" lon="12.5048807"><ele>375.0</ele><time>2026-04-19T10:27:58.849Z</time></trkpt><trkpt lat="43.825519" lon="12.5050102"><ele>378.0</ele><time>2026-04-19T10:27:59.849Z</time></trkpt><trkpt lat="43.8255893" lon="12.5051535"><ele>381.0</ele><time>2026-04-19T10:28:00.854Z</time></trkpt><trkpt lat="43.8256448" lon="12.5053082"><ele>384.0</ele><time>2026-04-19T10:28:01.85Z</time></trkpt><trkpt lat="43.8257067" lon="12.5054666"><ele>387.0</ele><time>2026-04-19T10:28:02.863Z</time></trkpt><trkpt lat="43.8257707" lon="12.5056388"><ele>388.40000000000003</ele><time>2026-04-19T10:28:03.852Z</time></trkpt><trkpt lat="43.8258221" lon="12.5057926"><ele>389.8</ele><time>2026-04-19T10:28:04.849Z</time></trkpt><trkpt lat="43.8258524" lon="12.5059204"><ele>391.2</ele><time>2026-04-19T10:28:05.853Z</time></trkpt><trkpt lat="43.8258847" lon="12.5060259"><ele>392.6</ele><time>2026-04-19T10:28:06.854Z</time></trkpt><trkpt lat="43.8259421" lon="12.5061114"><ele>394.0</ele><time>2026-04-19T10:28:07.865Z</time></trkpt><trkpt lat="43.8260228" lon="12.5061848"><ele>395.75</ele><time>2026-04-19T10:28:08.855Z</time></trkpt><trkpt lat="43.8261355" lon="12.5062502"><ele>397.5</ele><time>2026-04-19T10:28:09.849Z</time></trkpt><trkpt lat="43.8262367" lon="12.5063237"><ele>399.25</ele><time>2026-04-19T10:28:10.852Z</time></trkpt><trkpt lat="43.8263332" lon="12.5064003"><ele>401.0</ele><time>2026-04-19T10:28:11.853Z</time></trkpt><trkpt lat="43.8264183" lon="12.5064946"><ele>401.0</ele><time>2026-04-19T10:28:12.849Z</time></trkpt><trkpt lat="43.8264886" lon="12.506573"><ele>401.0</ele><time>2026-04-19T10:28:13.85Z</time></trkpt><trkpt lat="43.8265613" lon="12.506632"><ele>401.0</ele><time>2026-04-19T10:28:14.856Z</time></trkpt><trkpt lat="43.8266404" lon="12.5066788"><ele>401.0</ele><time>2026-04-19T10:28:15.853Z</time></trkpt><trkpt lat="43.8267329" lon="12.5067389"><ele>401.0</ele><time>2026-04-19T10:28:16.869Z</time></trkpt><trkpt lat="43.8268412" lon="12.5068182"><ele>404.75</ele><time>2026-04-19T10:28:17.852Z</time></trkpt><trkpt lat="43.8269604" lon="12.5069144"><ele>408.5</ele><time>2026-04-19T10:28:18.849Z</time></trkpt><trkpt lat="43.8270696" lon="12.5070114"><ele>412.25</ele><time>2026-04-19T10:28:19.85Z</time></trkpt><trkpt lat="43.8271707" lon="12.507098"><ele>416.0</ele><time>2026-04-19T10:28:20.853Z</time></trkpt><trkpt lat="43.8272598" lon="12.5071655"><ele>416.3333333333333</ele><time>2026-04-19T10:28:21.848Z</time></trkpt><trkpt lat="43.8273439" lon="12.5072058"><ele>416.66666666666663</ele><time>2026-04-19T10:28:22.87Z</time></trkpt><trkpt lat="43.8274343" lon="12.5072383"><ele>417.0</ele><time>2026-04-19T10:28:23.846Z</time></trkpt><trkpt lat="43.8275289" lon="12.5072547"><ele>417.33333333333337</ele><time>2026-04-19T10:28:24.854Z</time></trkpt><trkpt lat="43.8276046" lon="12.507271"><ele>417.6666666666667</ele><time>2026-04-19T10:28:25.849Z</time></trkpt><trkpt lat="43.8276951" lon="12.5073015"><ele>418.0</ele><time>2026-04-19T10:28:26.848Z</time></trkpt><trkpt lat="43.8277964" lon="12.5073387"><ele>419.79999999999995</ele><time>2026-04-19T10:28:27.849Z</time></trkpt><trkpt lat="43.8279034" lon="12.5073807"><ele>421.6</ele><time>2026-04-19T10:28:28.849Z</time></trkpt><trkpt lat="43.8280175" lon="12.507439"><ele>423.40000000000003</ele><time>2026-04-19T10:28:29.869Z</time></trkpt><trkpt lat="43.8281225" lon="12.5075073"><ele>425.20000000000005</ele><time>2026-04-19T10:28:30.85Z</time></trkpt><trkpt lat="43.8281993" lon="12.5075811"><ele>427.0</ele><time>2026-04-19T10:28:31.844Z</time></trkpt><trkpt lat="43.8282528" lon="12.5076468"><ele>427.00000000000006</ele><time>2026-04-19T10:28:32.849Z</time></trkpt><trkpt lat="43.8283013" lon="12.5077448"><ele>427.0</ele><time>2026-04-19T10:28:34.856Z</time></trkpt><trkpt lat="43.8283336" lon="12.5078318"><ele>427.0</ele><time>2026-04-19T10:28:35.865Z</time></trkpt><trkpt lat="43.8283724" lon="12.5079162"><ele>427.0</ele><time>2026-04-19T10:28:36.857Z</time></trkpt><trkpt lat="43.8284143" lon="12.5079831"><ele>427.00000000000006</ele><time>2026-04-19T10:28:37.856Z</time></trkpt><trkpt lat="43.8284761" lon="12.5080994"><ele>427.0</ele><time>2026-04-19T10:28:39.853Z</time></trkpt><trkpt lat="43.8285195" lon="12.508266"><ele>426.6</ele><time>2026-04-19T10:28:41.848Z</time></trkpt><trkpt lat="43.8285092" lon="12.5083848"><ele>426.20000000000005</ele><time>2026-04-19T10:28:42.85Z</time></trkpt><trkpt lat="43.8284831" lon="12.5085245"><ele>425.8</ele><time>2026-04-19T10:28:43.853Z</time></trkpt><trkpt lat="43.8284483" lon="12.508681"><ele>425.4</ele><time>2026-04-19T10:28:44.851Z</time></trkpt><trkpt lat="43.8284333" lon="12.5088248"><ele>425.0</ele><time>2026-04-19T10:28:45.855Z</time></trkpt><trkpt lat="43.8284495" lon="12.5089774"><ele>423.4</ele><time>2026-04-19T10:28:46.844Z</time></trkpt><trkpt lat="43.8284855" lon="12.5091354"><ele>421.8</ele><time>2026-04-19T10:28:47.867Z</time></trkpt><trkpt lat="43.8285129" lon="12.5092561"><ele>420.20000000000005</ele><time>2026-04-19T10:28:48.859Z</time></trkpt><trkpt lat="43.8285299" lon="12.5093452"><ele>418.6</ele><time>2026-04-19T10:28:49.848Z</time></trkpt><trkpt lat="43.8285251" lon="12.5094983"><ele>417.0</ele><time>2026-04-19T10:28:51.848Z</time></trkpt><trkpt lat="43.8285024" lon="12.5095989"><ele>417.40000000000003</ele><time>2026-04-19T10:28:52.864Z</time></trkpt><trkpt lat="43.8284773" lon="12.5097143"><ele>417.8</ele><time>2026-04-19T10:28:53.855Z</time></trkpt><trkpt lat="43.82846" lon="12.5098347"><ele>418.2</ele><time>2026-04-19T10:28:54.855Z</time></trkpt><trkpt lat="43.8284545" lon="12.5099774"><ele>418.6</ele><time>2026-04-19T10:28:55.85Z</time></trkpt><trkpt lat="43.828446" lon="12.5101213"><ele>419.0</ele><time>2026-04-19T10:28:56.849Z</time></trkpt><trkpt lat="43.8284401" lon="12.5102547"><ele>419.0</ele><time>2026-04-19T10:28:57.868Z</time></trkpt><trkpt lat="43.8284257" lon="12.510379"><ele>419.0</ele><time>2026-04-19T10:28:58.846Z</time></trkpt><trkpt lat="43.8284108" lon="12.5105151"><ele>419.0</ele><time>2026-04-19T10:28:59.851Z</time></trkpt><trkpt lat="43.8283869" lon="12.5106479"><ele>419.0</ele><time>2026-04-19T10:29:00.855Z</time></trkpt><trkpt lat="43.8283536" lon="12.5107611"><ele>419.0</ele><time>2026-04-19T10:29:01.848Z</time></trkpt><trkpt lat="43.8283158" lon="12.5108653"><ele>417.99999999999994</ele><time>2026-04-19T10:29:02.872Z</time></trkpt><trkpt lat="43.8282699" lon="12.5109806"><ele>417.0</ele><time>2026-04-19T10:29:03.848Z</time></trkpt><trkpt lat="43.8282373" lon="12.51113"><ele>416.0</ele><time>2026-04-19T10:29:04.85Z</time></trkpt><trkpt lat="43.8282219" lon="12.5112492"><ele>415.0</ele><time>2026-04-19T10:29:05.852Z</time></trkpt><trkpt lat="43.8282171" lon="12.5113428"><ele>413.99999999999994</ele><time>2026-04-19T10:29:06.849Z</time></trkpt><trkpt lat="43.8282195" lon="12.5114409"><ele>413.0</ele><time>2026-04-19T10:29:07.853Z</time></trkpt><trkpt lat="43.8282324" lon="12.5115497"><ele>411.59999999999997</ele><time>2026-04-19T10:29:08.873Z</time></trkpt><trkpt lat="43.8282464" lon="12.5116633"><ele>410.2</ele><time>2026-04-19T10:29:09.852Z</time></trkpt><trkpt lat="43.8282519" lon="12.5117889"><ele>408.8</ele><time>2026-04-19T10:29:10.851Z</time></trkpt><trkpt lat="43.8282439" lon="12.5119251"><ele>407.4</ele><time>2026-04-19T10:29:11.849Z</time></trkpt><trkpt lat="43.8282287" lon="12.5120615"><ele>406.0</ele><time>2026-04-19T10:29:12.854Z</time></trkpt><trkpt lat="43.8282147" lon="12.5121956"><ele>404.8</ele><time>2026-04-19T10:29:13.866Z</time></trkpt><trkpt lat="43.8282027" lon="12.5123358"><ele>403.6</ele><time>2026-04-19T10:29:14.856Z</time></trkpt><trkpt lat="43.8281931" lon="12.5124738"><ele>402.4</ele><time>2026-04-19T10:29:15.852Z</time></trkpt><trkpt lat="43.8281768" lon="12.5126054"><ele>401.2</ele><time>2026-04-19T10:29:16.845Z</time></trkpt><trkpt lat="43.8281488" lon="12.512745"><ele>400.0</ele><time>2026-04-19T10:29:17.849Z</time></trkpt><trkpt lat="43.8281157" lon="12.5128778"><ele>398.6</ele><time>2026-04-19T10:29:18.853Z</time></trkpt><trkpt lat="43.8280839" lon="12.5129842"><ele>397.2</ele><time>2026-04-19T10:29:19.858Z</time></trkpt><trkpt lat="43.8280533" lon="12.5131292"><ele>395.79999999999995</ele><time>2026-04-19T10:29:21.861Z</time></trkpt><trkpt lat="43.828055" lon="12.5132929"><ele>394.4</ele><time>2026-04-19T10:29:23.854Z</time></trkpt><trkpt lat="43.8280556" lon="12.5133989"><ele>393.0</ele><time>2026-04-19T10:29:24.851Z</time></trkpt><trkpt lat="43.8280562" lon="12.5135078"><ele>393.0</ele><time>2026-04-19T10:29:25.858Z</time></trkpt><trkpt lat="43.828057" lon="12.5136106"><ele>393.0</ele><time>2026-04-19T10:29:26.85Z</time></trkpt><trkpt lat="43.8280589" lon="12.5137019"><ele>393.0</ele><time>2026-04-19T10:29:27.85Z</time></trkpt><trkpt lat="43.8280657" lon="12.5138379"><ele>393.0</ele><time>2026-04-19T10:29:29.849Z</time></trkpt><trkpt lat="43.8280879" lon="12.5139586"><ele>393.0</ele><time>2026-04-19T10:29:31.844Z</time></trkpt><trkpt lat="43.8281434" lon="12.5140827"><ele>393.0</ele><time>2026-04-19T10:29:33.85Z</time></trkpt><trkpt lat="43.8281842" lon="12.5141505"><ele>393.00000000000006</ele><time>2026-04-19T10:29:34.858Z</time></trkpt><trkpt lat="43.8282306" lon="12.514222"><ele>393.0</ele><time>2026-04-19T10:29:35.854Z</time></trkpt><trkpt lat="43.8282821" lon="12.5142937"><ele>393.0</ele><time>2026-04-19T10:29:36.865Z</time></trkpt><trkpt lat="43.8283347" lon="12.5143623"><ele>393.0</ele><time>2026-04-19T10:29:37.846Z</time></trkpt><trkpt lat="43.8283865" lon="12.5144275"><ele>393.0</ele><time>2026-04-19T10:29:38.852Z</time></trkpt><trkpt lat="43.8284371" lon="12.5144866"><ele>393.00000000000006</ele><time>2026-04-19T10:29:39.852Z</time></trkpt><trkpt lat="43.8284874" lon="12.5145437"><ele>393.0</ele><time>2026-04-19T10:29:40.849Z</time></trkpt><trkpt lat="43.8285379" lon="12.5146042"><ele>389.1666666666667</ele><time>2026-04-19T10:29:41.874Z</time></trkpt><trkpt lat="43.8285912" lon="12.5146743"><ele>385.3333333333333</ele><time>2026-04-19T10:29:42.85Z</time></trkpt><trkpt lat="43.828644" lon="12.5147502"><ele>381.5</ele><time>2026-04-19T10:29:43.853Z</time></trkpt><trkpt lat="43.8286901" lon="12.5148238"><ele>377.66666666666663</ele><time>2026-04-19T10:29:44.855Z</time></trkpt><trkpt lat="43.8287318" lon="12.514893"><ele>373.8333333333333</ele><time>2026-04-19T10:29:45.853Z</time></trkpt><trkpt lat="43.8288096" lon="12.5150177"><ele>370.0</ele><time>2026-04-19T10:29:47.85Z</time></trkpt><trkpt lat="43.8288898" lon="12.5151325"><ele>370.0</ele><time>2026-04-19T10:29:49.85Z</time></trkpt><trkpt lat="43.8289335" lon="12.5151962"><ele>370.0</ele><time>2026-04-19T10:29:50.853Z</time></trkpt><trkpt lat="43.8289787" lon="12.5152768"><ele>370.0</ele><time>2026-04-19T10:29:51.848Z</time></trkpt><trkpt lat="43.8290192" lon="12.5153724"><ele>370.0</ele><time>2026-04-19T10:29:52.852Z</time></trkpt><trkpt lat="43.8290531" lon="12.5154792"><ele>370.0</ele><time>2026-04-19T10:29:53.847Z</time></trkpt><trkpt lat="43.8290786" lon="12.5155947"><ele>370.0</ele><time>2026-04-19T10:29:54.852Z</time></trkpt><trkpt lat="43.8290987" lon="12.5157123"><ele>369.0</ele><time>2026-04-19T10:29:55.851Z</time></trkpt><trkpt lat="43.8291147" lon="12.5158126"><ele>368.0</ele><time>2026-04-19T10:29:56.85Z</time></trkpt><trkpt lat="43.8291446" lon="12.5159445"><ele>367.0</ele><time>2026-04-19T10:29:58.852Z</time></trkpt><trkpt lat="43.8291927" lon="12.516073"><ele>366.0</ele><time>2026-04-19T10:30:00.848Z</time></trkpt><trkpt lat="43.8292309" lon="12.5161674"><ele>365.0</ele><time>2026-04-19T10:30:01.851Z</time></trkpt><trkpt lat="43.8292666" lon="12.5162596"><ele>364.0</ele><time>2026-04-19T10:30:02.876Z</time></trkpt><trkpt lat="43.8292991" lon="12.516345"><ele>361.0</ele><time>2026-04-19T10:30:03.85Z</time></trkpt><trkpt lat="43.8293336" lon="12.516429"><ele>358.0</ele><time>2026-04-19T10:30:04.854Z</time></trkpt><trkpt lat="43.8293689" lon="12.5165067"><ele>355.0</ele><time>2026-04-19T10:30:05.849Z</time></trkpt><trkpt lat="43.8294029" lon="12.5165804"><ele>352.0</ele><time>2026-04-19T10:30:06.845Z</time></trkpt><trkpt lat="43.8294418" lon="12.516658"><ele>349.0</ele><time>2026-04-19T10:30:07.845Z</time></trkpt><trkpt lat="43.8294814" lon="12.5167356"><ele>346.0</ele><time>2026-04-19T10:30:08.847Z</time></trkpt><trkpt lat="43.8295217" lon="12.5168169"><ele>343.0</ele><time>2026-04-19T10:30:09.88Z</time></trkpt><trkpt lat="43.8295585" lon="12.5169003"><ele>343.0</ele><time>2026-04-19T10:30:10.848Z</time></trkpt><trkpt lat="43.8295936" lon="12.516993"><ele>343.0</ele><time>2026-04-19T10:30:11.845Z</time></trkpt><trkpt lat="43.8296246" lon="12.5170923"><ele>343.0</ele><time>2026-04-19T10:30:12.845Z</time></trkpt><trkpt lat="43.8296492" lon="12.5171895"><ele>343.0</ele><time>2026-04-19T10:30:13.852Z</time></trkpt><trkpt lat="43.82967" lon="12.5172797"><ele>343.0</ele><time>2026-04-19T10:30:14.852Z</time></trkpt><trkpt lat="43.8297107" lon="12.5174319"><ele>343.0</ele><time>2026-04-19T10:30:16.849Z</time></trkpt><trkpt lat="43.8297499" lon="12.5175338"><ele>341.79999999999995</ele><time>2026-04-19T10:30:18.85Z</time></trkpt><trkpt lat="43.8297897" lon="12.5176159"><ele>340.6</ele><time>2026-04-19T10:30:22.847Z</time></trkpt><trkpt lat="43.8298747" lon="12.5178093"><ele>339.4</ele><time>2026-04-19T10:30:38.882Z</time></trkpt><trkpt lat="43.8299227" lon="12.5179131"><ele>338.20000000000005</ele><time>2026-04-19T10:30:39.788Z</time></trkpt><trkpt lat="43.8299555" lon="12.5179919"><ele>337.0</ele><time>2026-04-19T10:30:41.446Z</time></trkpt><trkpt lat="43.8300391" lon="12.5181162"><ele>334.66666666666663</ele><time>2026-04-19T10:30:43.848Z</time></trkpt><trkpt lat="43.830093" lon="12.5181898"><ele>332.3333333333333</ele><time>2026-04-19T10:30:44.844Z</time></trkpt><trkpt lat="43.8301839" lon="12.5183003"><ele>330.0</ele><time>2026-04-19T10:30:46.847Z</time></trkpt><trkpt lat="43.8302355" lon="12.5183543"><ele>327.6666666666667</ele><time>2026-04-19T10:30:47.849Z</time></trkpt><trkpt lat="43.8302879" lon="12.5184066"><ele>325.33333333333337</ele><time>2026-04-19T10:30:48.846Z</time></trkpt><trkpt lat="43.8303746" lon="12.5185077"><ele>323.0</ele><time>2026-04-19T10:30:50.847Z</time></trkpt><trkpt lat="43.830439" lon="12.5186063"><ele>319.33333333333337</ele><time>2026-04-19T10:30:52.852Z</time></trkpt><trkpt lat="43.8304878" lon="12.5186937"><ele>315.6666666666667</ele><time>2026-04-19T10:30:54.855Z</time></trkpt><trkpt lat="43.8305362" lon="12.5187769"><ele>312.0</ele><time>2026-04-19T10:30:56.846Z</time></trkpt><trkpt lat="43.8305985" lon="12.5188496"><ele>308.3333333333333</ele><time>2026-04-19T10:30:58.848Z</time></trkpt><trkpt lat="43.8306493" lon="12.5189175"><ele>304.66666666666663</ele><time>2026-04-19T10:31:00.85Z</time></trkpt><trkpt lat="43.8307227" lon="12.5189912"><ele>301.0</ele><time>2026-04-19T10:31:02.873Z</time></trkpt><trkpt lat="43.8307836" lon="12.5190665"><ele>297.8</ele><time>2026-04-19T10:31:04.912Z</time></trkpt><trkpt lat="43.8308293" lon="12.5191438"><ele>294.6</ele><time>2026-04-19T10:31:06.893Z</time></trkpt><trkpt lat="43.8308924" lon="12.5192219"><ele>291.4</ele><time>2026-04-19T10:31:08.933Z</time></trkpt><trkpt lat="43.8309688" lon="12.5193175"><ele>288.2</ele><time>2026-04-19T10:31:10.849Z</time></trkpt><trkpt lat="43.8310455" lon="12.5194273"><ele>285.0</ele><time>2026-04-19T10:31:13.879Z</time></trkpt><trkpt lat="43.831104" lon="12.5195039"><ele>280.0</ele><time>2026-04-19T10:31:15.902Z</time></trkpt><trkpt lat="43.8311456" lon="12.5195758"><ele>275.0</ele><time>2026-04-19T10:31:17.851Z</time></trkpt><trkpt lat="43.8311743" lon="12.5196697"><ele>270.0</ele><time>2026-04-19T10:31:19.861Z</time></trkpt><trkpt lat="43.8311925" lon="12.5197591"><ele>265.0</ele><time>2026-04-19T10:31:21.758Z</time></trkpt><trkpt lat="43.8312704" lon="12.5198392"><ele>260.0</ele><time>2026-04-19T10:31:23.852Z</time></trkpt><trkpt lat="43.8313449" lon="12.5199147"><ele>255.0</ele><time>2026-04-19T10:31:25.853Z</time></trkpt><trkpt lat="43.8314272" lon="12.5199761"><ele>255.0</ele><time>2026-04-19T10:31:27.853Z</time></trkpt><trkpt lat="43.8315317" lon="12.5200277"><ele>255.0</ele><time>2026-04-19T10:31:29.849Z</time></trkpt><trkpt lat="43.8316354" lon="12.5201103"><ele>255.0</ele><time>2026-04-19T10:31:31.842Z</time></trkpt><trkpt lat="43.8317148" lon="12.5202224"><ele>255.0</ele><time>2026-04-19T10:31:33.844Z</time></trkpt><trkpt lat="43.8317741" lon="12.5203547"><ele>253.16666666666666</ele><time>2026-04-19T10:31:35.888Z</time></trkpt><trkpt lat="43.8318517" lon="12.5204957"><ele>251.33333333333331</ele><time>2026-04-19T10:31:37.849Z</time></trkpt><trkpt lat="43.8318933" lon="12.5205653"><ele>249.5</ele><time>2026-04-19T10:31:38.848Z</time></trkpt><trkpt lat="43.8319348" lon="12.5206344"><ele>247.66666666666666</ele><time>2026-04-19T10:31:39.849Z</time></trkpt><trkpt lat="43.8319801" lon="12.5207057"><ele>245.83333333333331</ele><time>2026-04-19T10:31:40.861Z</time></trkpt><trkpt lat="43.8320245" lon="12.5207677"><ele>244.0</ele><time>2026-04-19T10:31:41.853Z</time></trkpt><trkpt lat="43.832107" lon="12.5208317"><ele>244.0</ele><time>2026-04-19T10:31:43.848Z</time></trkpt><trkpt lat="43.8321915" lon="12.5209243"><ele>243.99999999999997</ele><time>2026-04-19T10:31:46.851Z</time></trkpt><trkpt lat="43.8322537" lon="12.521021"><ele>243.99999999999997</ele><time>2026-04-19T10:31:48.848Z</time></trkpt><trkpt lat="43.8323071" lon="12.5211817"><ele>244.0</ele><time>2026-04-19T10:31:52.847Z</time></trkpt><trkpt lat="43.8322878" lon="12.5212912"><ele>244.0</ele><time>2026-04-19T10:31:53.85Z</time></trkpt><trkpt lat="43.8322303" lon="12.5214199"><ele>244.5</ele><time>2026-04-19T10:31:54.86Z</time></trkpt><trkpt lat="43.8321694" lon="12.5215564"><ele>245.0</ele><time>2026-04-19T10:31:55.848Z</time></trkpt><trkpt lat="43.8320975" lon="12.5217041"><ele>245.5</ele><time>2026-04-19T10:31:56.857Z</time></trkpt><trkpt lat="43.8320276" lon="12.521864"><ele>246.0</ele><time>2026-04-19T10:31:57.848Z</time></trkpt><trkpt lat="43.8319587" lon="12.5220318"><ele>246.0</ele><time>2026-04-19T10:31:58.852Z</time></trkpt><trkpt lat="43.831895" lon="12.5221958"><ele>246.0</ele><time>2026-04-19T10:31:59.852Z</time></trkpt><trkpt lat="43.8318384" lon="12.5223421"><ele>246.0</ele><time>2026-04-19T10:32:00.849Z</time></trkpt><trkpt lat="43.8318042" lon="12.5224793"><ele>246.0</ele><time>2026-04-19T10:32:01.853Z</time></trkpt><trkpt lat="43.8317857" lon="12.5226259"><ele>246.0</ele><time>2026-04-19T10:32:02.854Z</time></trkpt><trkpt lat="43.8317759" lon="12.5227927"><ele>246.0</ele><time>2026-04-19T10:32:03.861Z</time></trkpt><trkpt lat="43.831767" lon="12.5229922"><ele>246.0</ele><time>2026-04-19T10:32:04.845Z</time></trkpt><trkpt lat="43.8317549" lon="12.5231943"><ele>246.0</ele><time>2026-04-19T10:32:05.851Z</time></trkpt><trkpt lat="43.8317387" lon="12.5233612"><ele>248.8</ele><time>2026-04-19T10:32:06.851Z</time></trkpt><trkpt lat="43.8317266" lon="12.5234876"><ele>251.60000000000002</ele><time>2026-04-19T10:32:07.85Z</time></trkpt><trkpt lat="43.8317283" lon="12.523584"><ele>254.4</ele><time>2026-04-19T10:32:08.864Z</time></trkpt><trkpt lat="43.8317963" lon="12.5237168"><ele>257.2</ele><time>2026-04-19T10:32:10.847Z</time></trkpt><trkpt lat="43.8318683" lon="12.5237691"><ele>260.0</ele><time>2026-04-19T10:32:11.845Z</time></trkpt><trkpt lat="43.8319553" lon="12.5238259"><ele>261.6</ele><time>2026-04-19T10:32:12.848Z</time></trkpt><trkpt lat="43.8320464" lon="12.5239168"><ele>263.2</ele><time>2026-04-19T10:32:13.847Z</time></trkpt><trkpt lat="43.8321218" lon="12.524019"><ele>264.8</ele><time>2026-04-19T10:32:14.857Z</time></trkpt><trkpt lat="43.8321626" lon="12.5241294"><ele>266.4</ele><time>2026-04-19T10:32:15.848Z</time></trkpt><trkpt lat="43.8321744" lon="12.5242701"><ele>268.0</ele><time>2026-04-19T10:32:16.852Z</time></trkpt><trkpt lat="43.8321547" lon="12.52444"><ele>270.75</ele><time>2026-04-19T10:32:17.851Z</time></trkpt><trkpt lat="43.832132" lon="12.5246334"><ele>273.5</ele><time>2026-04-19T10:32:18.853Z</time></trkpt><trkpt lat="43.8321127" lon="12.5248197"><ele>276.25</ele><time>2026-04-19T10:32:19.851Z</time></trkpt><trkpt lat="43.8320994" lon="12.524996"><ele>279.0</ele><time>2026-04-19T10:32:20.85Z</time></trkpt><trkpt lat="43.8320882" lon="12.525166"><ele>279.0</ele><time>2026-04-19T10:32:21.85Z</time></trkpt><trkpt lat="43.8320793" lon="12.5253305"><ele>279.0</ele><time>2026-04-19T10:32:22.85Z</time></trkpt><trkpt lat="43.8320726" lon="12.5254959"><ele>279.0</ele><time>2026-04-19T10:32:23.853Z</time></trkpt><trkpt lat="43.832068" lon="12.5256649"><ele>279.0</ele><time>2026-04-19T10:32:24.845Z</time></trkpt><trkpt lat="43.8320667" lon="12.5258335"><ele>281.8</ele><time>2026-04-19T10:32:25.851Z</time></trkpt><trkpt lat="43.83207" lon="12.5260009"><ele>284.59999999999997</ele><time>2026-04-19T10:32:26.854Z</time></trkpt><trkpt lat="43.8320728" lon="12.5261549"><ele>287.4</ele><time>2026-04-19T10:32:27.848Z</time></trkpt><trkpt lat="43.8320724" lon="12.5262899"><ele>290.2</ele><time>2026-04-19T10:32:28.861Z</time></trkpt><trkpt lat="43.832054" lon="12.5263828"><ele>293.0</ele><time>2026-04-19T10:32:29.849Z</time></trkpt><trkpt lat="43.8319368" lon="12.5264533"><ele>296.5</ele><time>2026-04-19T10:32:31.85Z</time></trkpt><trkpt lat="43.8318349" lon="12.5264518"><ele>300.0</ele><time>2026-04-19T10:32:32.853Z</time></trkpt><trkpt lat="43.8317187" lon="12.5264485"><ele>303.5</ele><time>2026-04-19T10:32:33.848Z</time></trkpt><trkpt lat="43.8315905" lon="12.5264518"><ele>307.0</ele><time>2026-04-19T10:32:34.854Z</time></trkpt><trkpt lat="43.8314595" lon="12.5264513"><ele>308.25</ele><time>2026-04-19T10:32:35.846Z</time></trkpt><trkpt lat="43.8313307" lon="12.5264384"><ele>309.5</ele><time>2026-04-19T10:32:36.849Z</time></trkpt><trkpt lat="43.8312003" lon="12.5264048"><ele>310.75</ele><time>2026-04-19T10:32:37.846Z</time></trkpt><trkpt lat="43.8310683" lon="12.5263607"><ele>312.0</ele><time>2026-04-19T10:32:38.851Z</time></trkpt><trkpt lat="43.8309401" lon="12.5263222"><ele>315.5</ele><time>2026-04-19T10:32:39.849Z</time></trkpt><trkpt lat="43.8308141" lon="12.5262967"><ele>319.0</ele><time>2026-04-19T10:32:40.849Z</time></trkpt><trkpt lat="43.8306882" lon="12.5262882"><ele>322.5</ele><time>2026-04-19T10:32:41.857Z</time></trkpt><trkpt lat="43.8305733" lon="12.5262949"><ele>326.0</ele><time>2026-04-19T10:32:42.852Z</time></trkpt><trkpt lat="43.8304833" lon="12.5263249"><ele>326.0</ele><time>2026-04-19T10:32:43.852Z</time></trkpt><trkpt lat="43.830413" lon="12.52637"><ele>326.0</ele><time>2026-04-19T10:32:44.848Z</time></trkpt><trkpt lat="43.8303744" lon="12.5264589"><ele>326.0</ele><time>2026-04-19T10:32:45.845Z</time></trkpt><trkpt lat="43.8303516" lon="12.5265837"><ele>326.0</ele><time>2026-04-19T10:32:46.852Z</time></trkpt><trkpt lat="43.8303364" lon="12.526738"><ele>326.0</ele><time>2026-04-19T10:32:47.854Z</time></trkpt><trkpt lat="43.830337" lon="12.5268829"><ele>326.0</ele><time>2026-04-19T10:32:48.854Z</time></trkpt><trkpt lat="43.8303596" lon="12.527008"><ele>326.0</ele><time>2026-04-19T10:32:49.866Z</time></trkpt><trkpt lat="43.8304171" lon="12.5271173"><ele>326.0</ele><time>2026-04-19T10:32:50.855Z</time></trkpt><trkpt lat="43.8304877" lon="12.5272235"><ele>326.0</ele><time>2026-04-19T10:32:51.853Z</time></trkpt><trkpt lat="43.8305677" lon="12.5273517"><ele>326.0</ele><time>2026-04-19T10:32:52.849Z</time></trkpt><trkpt lat="43.8306586" lon="12.5275046"><ele>328.6</ele><time>2026-04-19T10:32:53.853Z</time></trkpt><trkpt lat="43.830744" lon="12.5276659"><ele>331.20000000000005</ele><time>2026-04-19T10:32:54.853Z</time></trkpt><trkpt lat="43.830809" lon="12.5278109"><ele>333.79999999999995</ele><time>2026-04-19T10:32:55.868Z</time></trkpt><trkpt lat="43.8308425" lon="12.5279264"><ele>336.4</ele><time>2026-04-19T10:32:56.848Z</time></trkpt><trkpt lat="43.8308441" lon="12.5280247"><ele>339.0</ele><time>2026-04-19T10:32:57.856Z</time></trkpt><trkpt lat="43.8308211" lon="12.52811"><ele>342.6</ele><time>2026-04-19T10:32:58.849Z</time></trkpt><trkpt lat="43.8307617" lon="12.5281694"><ele>346.2</ele><time>2026-04-19T10:32:59.856Z</time></trkpt><trkpt lat="43.8306686" lon="12.5282387"><ele>349.8</ele><time>2026-04-19T10:33:00.852Z</time></trkpt><trkpt lat="43.8305851" lon="12.5283168"><ele>353.40000000000003</ele><time>2026-04-19T10:33:01.849Z</time></trkpt><trkpt lat="43.8305125" lon="12.5284068"><ele>357.0</ele><time>2026-04-19T10:33:02.853Z</time></trkpt><trkpt lat="43.8304719" lon="12.5285425"><ele>357.0</ele><time>2026-04-19T10:33:03.851Z</time></trkpt><trkpt lat="43.8304509" lon="12.5286913"><ele>357.0</ele><time>2026-04-19T10:33:04.848Z</time></trkpt><trkpt lat="43.8304387" lon="12.5288245"><ele>357.0</ele><time>2026-04-19T10:33:05.852Z</time></trkpt><trkpt lat="43.8304357" lon="12.5289156"><ele>357.0</ele><time>2026-04-19T10:33:06.849Z</time></trkpt><trkpt lat="43.8304602" lon="12.529019"><ele>357.0</ele><time>2026-04-19T10:33:08.85Z</time></trkpt><trkpt lat="43.8305805" lon="12.5290682"><ele>357.5</ele><time>2026-04-19T10:33:10.861Z</time></trkpt><trkpt lat="43.8306701" lon="12.5291007"><ele>358.0</ele><time>2026-04-19T10:33:11.852Z</time></trkpt><trkpt lat="43.8307692" lon="12.5291571"><ele>358.5</ele><time>2026-04-19T10:33:12.86Z</time></trkpt><trkpt lat="43.8308708" lon="12.5292347"><ele>359.0</ele><time>2026-04-19T10:33:13.853Z</time></trkpt><trkpt lat="43.8309845" lon="12.5293461"><ele>359.0</ele><time>2026-04-19T10:33:14.849Z</time></trkpt><trkpt lat="43.8311091" lon="12.5294805"><ele>359.0</ele><time>2026-04-19T10:33:15.849Z</time></trkpt><trkpt lat="43.8312356" lon="12.5296315"><ele>359.0</ele><time>2026-04-19T10:33:16.857Z</time></trkpt><trkpt lat="43.8313643" lon="12.5297848"><ele>362.5</ele><time>2026-04-19T10:33:17.847Z</time></trkpt><trkpt lat="43.8314906" lon="12.5299326"><ele>366.0</ele><time>2026-04-19T10:33:18.85Z</time></trkpt><trkpt lat="43.831602" lon="12.5300594"><ele>369.5</ele><time>2026-04-19T10:33:19.848Z</time></trkpt><trkpt lat="43.8316976" lon="12.5301731"><ele>373.0</ele><time>2026-04-19T10:33:20.848Z</time></trkpt><trkpt lat="43.8317663" lon="12.5302872"><ele>373.0</ele><time>2026-04-19T10:33:21.86Z</time></trkpt><trkpt lat="43.8318066" lon="12.5304009"><ele>373.0</ele><time>2026-04-19T10:33:22.856Z</time></trkpt><trkpt lat="43.831821" lon="12.5305363"><ele>373.0</ele><time>2026-04-19T10:33:23.873Z</time></trkpt><trkpt lat="43.8318355" lon="12.5306668"><ele>373.0</ele><time>2026-04-19T10:33:24.847Z</time></trkpt><trkpt lat="43.8318526" lon="12.5308276"><ele>373.0</ele><time>2026-04-19T10:33:25.854Z</time></trkpt><trkpt lat="43.8318953" lon="12.5309906"><ele>373.0</ele><time>2026-04-19T10:33:26.856Z</time></trkpt><trkpt lat="43.8319594" lon="12.5311412"><ele>373.0</ele><time>2026-04-19T10:33:27.856Z</time></trkpt><trkpt lat="43.8320346" lon="12.5312671"><ele>373.0</ele><time>2026-04-19T10:33:28.868Z</time></trkpt><trkpt lat="43.8320934" lon="12.5313654"><ele>373.0</ele><time>2026-04-19T10:33:29.853Z</time></trkpt><trkpt lat="43.8321482" lon="12.5314554"><ele>373.0</ele><time>2026-04-19T10:33:31.853Z</time></trkpt><trkpt lat="43.8322191" lon="12.5315764"><ele>375.16666666666663</ele><time>2026-04-19T10:33:34.862Z</time></trkpt><trkpt lat="43.8322647" lon="12.5316369"><ele>377.3333333333333</ele><time>2026-04-19T10:33:35.852Z</time></trkpt><trkpt lat="43.8323141" lon="12.5316955"><ele>379.5</ele><time>2026-04-19T10:33:36.869Z</time></trkpt><trkpt lat="43.8323675" lon="12.5317566"><ele>381.66666666666663</ele><time>2026-04-19T10:33:37.849Z</time></trkpt><trkpt lat="43.8324408" lon="12.5318339"><ele>383.8333333333333</ele><time>2026-04-19T10:33:38.856Z</time></trkpt><trkpt lat="43.832525" lon="12.5319204"><ele>386.0</ele><time>2026-04-19T10:33:39.86Z</time></trkpt><trkpt lat="43.8326208" lon="12.5320144"><ele>390.0</ele><time>2026-04-19T10:33:40.859Z</time></trkpt><trkpt lat="43.832731" lon="12.532118"><ele>394.0</ele><time>2026-04-19T10:33:41.866Z</time></trkpt><trkpt lat="43.8328435" lon="12.5322265"><ele>398.0</ele><time>2026-04-19T10:33:42.849Z</time></trkpt><trkpt lat="43.832947" lon="12.5323367"><ele>402.0</ele><time>2026-04-19T10:33:43.861Z</time></trkpt><trkpt lat="43.833024" lon="12.5324245"><ele>402.0</ele><time>2026-04-19T10:33:44.854Z</time></trkpt><trkpt lat="43.8330787" lon="12.5324785"><ele>402.0</ele><time>2026-04-19T10:33:45.856Z</time></trkpt><trkpt lat="43.8331409" lon="12.5325071"><ele>402.0</ele><time>2026-04-19T10:33:47.853Z</time></trkpt><trkpt lat="43.8332305" lon="12.5325542"><ele>402.0</ele><time>2026-04-19T10:33:49.864Z</time></trkpt><trkpt lat="43.8333006" lon="12.5326678"><ele>402.0</ele><time>2026-04-19T10:33:51.852Z</time></trkpt><trkpt lat="43.8333355" lon="12.5327599"><ele>402.0</ele><time>2026-04-19T10:33:52.852Z</time></trkpt><trkpt lat="43.8333689" lon="12.5328452"><ele>404.0</ele><time>2026-04-19T10:33:53.85Z</time></trkpt><trkpt lat="43.8334477" lon="12.5329333"><ele>406.0</ele><time>2026-04-19T10:33:55.849Z</time></trkpt><trkpt lat="43.8335501" lon="12.5330467"><ele>408.0</ele><time>2026-04-19T10:33:57.857Z</time></trkpt><trkpt lat="43.8336189" lon="12.5331758"><ele>410.0</ele><time>2026-04-19T10:33:59.871Z</time></trkpt><trkpt lat="43.8337383" lon="12.5332325"><ele>412.3333333333333</ele><time>2026-04-19T10:34:01.847Z</time></trkpt><trkpt lat="43.8338289" lon="12.5332502"><ele>414.66666666666663</ele><time>2026-04-19T10:34:02.856Z</time></trkpt><trkpt lat="43.8339225" lon="12.5332715"><ele>417.0</ele><time>2026-04-19T10:34:03.847Z</time></trkpt><trkpt lat="43.8340077" lon="12.5332977"><ele>419.33333333333337</ele><time>2026-04-19T10:34:04.858Z</time></trkpt><trkpt lat="43.8340851" lon="12.5333337"><ele>421.6666666666667</ele><time>2026-04-19T10:34:05.848Z</time></trkpt><trkpt lat="43.8341628" lon="12.5334"><ele>424.0</ele><time>2026-04-19T10:34:06.85Z</time></trkpt><trkpt lat="43.8342492" lon="12.5334742"><ele>424.7142857142857</ele><time>2026-04-19T10:34:07.851Z</time></trkpt><trkpt lat="43.8343275" lon="12.5335324"><ele>425.4285714285714</ele><time>2026-04-19T10:34:08.849Z</time></trkpt><trkpt lat="43.8343894" lon="12.5335794"><ele>426.1428571428571</ele><time>2026-04-19T10:34:09.853Z</time></trkpt><trkpt lat="43.8344405" lon="12.5336363"><ele>426.8571428571429</ele><time>2026-04-19T10:34:10.852Z</time></trkpt><trkpt lat="43.8344979" lon="12.5336996"><ele>427.57142857142856</ele><time>2026-04-19T10:34:11.851Z</time></trkpt><trkpt lat="43.8345472" lon="12.5337689"><ele>428.2857142857143</ele><time>2026-04-19T10:34:12.856Z</time></trkpt><trkpt lat="43.8345995" lon="12.5338503"><ele>429.0</ele><time>2026-04-19T10:34:13.853Z</time></trkpt><trkpt lat="43.8346487" lon="12.53393"><ele>432.4</ele><time>2026-04-19T10:34:14.85Z</time></trkpt><trkpt lat="43.8347" lon="12.5339957"><ele>435.79999999999995</ele><time>2026-04-19T10:34:15.852Z</time></trkpt><trkpt lat="43.8347561" lon="12.5340667"><ele>439.20000000000005</ele><time>2026-04-19T10:34:16.849Z</time></trkpt><trkpt lat="43.8348294" lon="12.5341646"><ele>442.6</ele><time>2026-04-19T10:34:17.851Z</time></trkpt><trkpt lat="43.8349077" lon="12.5342795"><ele>446.0</ele><time>2026-04-19T10:34:18.85Z</time></trkpt><trkpt lat="43.8349613" lon="12.5343913"><ele>445.99999999999994</ele><time>2026-04-19T10:34:19.862Z</time></trkpt><trkpt lat="43.8349914" lon="12.5344825"><ele>446.0</ele><time>2026-04-19T10:34:20.852Z</time></trkpt><trkpt lat="43.8349894" lon="12.5345753"><ele>446.0</ele><time>2026-04-19T10:34:21.862Z</time></trkpt><trkpt lat="43.8349578" lon="12.5346664"><ele>446.0</ele><time>2026-04-19T10:34:22.849Z</time></trkpt><trkpt lat="43.8349574" lon="12.5348217"><ele>445.99999999999994</ele><time>2026-04-19T10:34:24.853Z</time></trkpt><trkpt lat="43.8349988" lon="12.5348984"><ele>446.0</ele><time>2026-04-19T10:34:25.847Z</time></trkpt><trkpt lat="43.8350559" lon="12.5349894"><ele>448.75</ele><time>2026-04-19T10:34:26.866Z</time></trkpt><trkpt lat="43.8351144" lon="12.5351106"><ele>451.5</ele><time>2026-04-19T10:34:27.852Z</time></trkpt><trkpt lat="43.8351756" lon="12.5352541"><ele>454.25</ele><time>2026-04-19T10:34:28.851Z</time></trkpt><trkpt lat="43.8352425" lon="12.5353917"><ele>457.0</ele><time>2026-04-19T10:34:29.853Z</time></trkpt><trkpt lat="43.8353191" lon="12.5355308"><ele>461.6</ele><time>2026-04-19T10:34:30.848Z</time></trkpt><trkpt lat="43.8354057" lon="12.5356704"><ele>466.20000000000005</ele><time>2026-04-19T10:34:31.861Z</time></trkpt><trkpt lat="43.8354823" lon="12.5358149"><ele>470.8</ele><time>2026-04-19T10:34:32.851Z</time></trkpt><trkpt lat="43.835535" lon="12.5359214"><ele>475.4</ele><time>2026-04-19T10:34:33.848Z</time></trkpt><trkpt lat="43.8355754" lon="12.5359963"><ele>480.0</ele><time>2026-04-19T10:34:34.849Z</time></trkpt><trkpt lat="43.8356624" lon="12.5361057"><ele>480.0</ele><time>2026-04-19T10:34:36.847Z</time></trkpt><trkpt lat="43.8357605" lon="12.5361778"><ele>480.0</ele><time>2026-04-19T10:34:38.843Z</time></trkpt><trkpt lat="43.8358198" lon="12.536218"><ele>480.0</ele><time>2026-04-19T10:34:39.847Z</time></trkpt><trkpt lat="43.8359259" lon="12.5363129"><ele>480.0</ele><time>2026-04-19T10:34:41.856Z</time></trkpt><trkpt lat="43.8359978" lon="12.5363571"><ele>480.0</ele><time>2026-04-19T10:34:42.843Z</time></trkpt><trkpt lat="43.8360662" lon="12.5363982"><ele>484.8</ele><time>2026-04-19T10:34:43.856Z</time></trkpt><trkpt lat="43.8361689" lon="12.5364195"><ele>489.6</ele><time>2026-04-19T10:34:45.849Z</time></trkpt><trkpt lat="43.8362671" lon="12.5363317"><ele>494.4</ele><time>2026-04-19T10:34:47.851Z</time></trkpt><trkpt lat="43.8363944" lon="12.5362743"><ele>499.2</ele><time>2026-04-19T10:34:49.858Z</time></trkpt><trkpt lat="43.8364746" lon="12.5362535"><ele>504.0</ele><time>2026-04-19T10:34:50.848Z</time></trkpt><trkpt lat="43.8365769" lon="12.5362278"><ele>504.3333333333333</ele><time>2026-04-19T10:34:51.849Z</time></trkpt><trkpt lat="43.8366684" lon="12.5361879"><ele>504.66666666666663</ele><time>2026-04-19T10:34:52.845Z</time></trkpt><trkpt lat="43.8367373" lon="12.5361364"><ele>505.0</ele><time>2026-04-19T10:34:53.851Z</time></trkpt><trkpt lat="43.8367942" lon="12.5360749"><ele>505.3333333333333</ele><time>2026-04-19T10:34:54.854Z</time></trkpt><trkpt lat="43.8368448" lon="12.5360013"><ele>505.66666666666663</ele><time>2026-04-19T10:34:55.852Z</time></trkpt><trkpt lat="43.836896" lon="12.5359418"><ele>506.0</ele><time>2026-04-19T10:34:56.848Z</time></trkpt><trkpt lat="43.8370083" lon="12.5359101"><ele>506.0</ele><time>2026-04-19T10:34:58.846Z</time></trkpt><trkpt lat="43.8370886" lon="12.5359149"><ele>506.0</ele><time>2026-04-19T10:34:59.85Z</time></trkpt><trkpt lat="43.8371747" lon="12.5359224"><ele>506.0</ele><time>2026-04-19T10:35:00.846Z</time></trkpt><trkpt lat="43.8372604" lon="12.5359307"><ele>506.0</ele><time>2026-04-19T10:35:01.86Z</time></trkpt><trkpt lat="43.8373314" lon="12.5359501"><ele>506.0</ele><time>2026-04-19T10:35:02.848Z</time></trkpt><trkpt lat="43.8374496" lon="12.5360131"><ele>505.99999999999994</ele><time>2026-04-19T10:35:04.851Z</time></trkpt><trkpt lat="43.8375197" lon="12.5360532"><ele>506.0</ele><time>2026-04-19T10:35:05.85Z</time></trkpt><trkpt lat="43.8375886" lon="12.5360914"><ele>506.0</ele><time>2026-04-19T10:35:06.861Z</time></trkpt><trkpt lat="43.8376577" lon="12.5361315"><ele>506.0</ele><time>2026-04-19T10:35:07.847Z</time></trkpt><trkpt lat="43.8377272" lon="12.5361735"><ele>505.99999999999994</ele><time>2026-04-19T10:35:08.851Z</time></trkpt><trkpt lat="43.8377987" lon="12.5362242"><ele>506.0</ele><time>2026-04-19T10:35:09.851Z</time></trkpt><trkpt lat="43.837874" lon="12.5362774"><ele>511.99999999999994</ele><time>2026-04-19T10:35:10.85Z</time></trkpt><trkpt lat="43.8379499" lon="12.5363226"><ele>518.0</ele><time>2026-04-19T10:35:11.85Z</time></trkpt><trkpt lat="43.8380154" lon="12.5363585"><ele>524.0</ele><time>2026-04-19T10:35:12.852Z</time></trkpt><trkpt lat="43.838131" lon="12.5363343"><ele>530.0</ele><time>2026-04-19T10:35:14.856Z</time></trkpt><trkpt lat="43.8382042" lon="12.5362982"><ele>536.0</ele><time>2026-04-19T10:35:15.844Z</time></trkpt><trkpt lat="43.8382796" lon="12.5362611"><ele>542.0</ele><time>2026-04-19T10:35:16.852Z</time></trkpt><trkpt lat="43.8383519" lon="12.5362449"><ele>542.0</ele><time>2026-04-19T10:35:17.845Z</time></trkpt><trkpt lat="43.8384191" lon="12.5362453"><ele>542.0</ele><time>2026-04-19T10:35:18.849Z</time></trkpt><trkpt lat="43.8384856" lon="12.5362745"><ele>542.0</ele><time>2026-04-19T10:35:19.851Z</time></trkpt><trkpt lat="43.8385517" lon="12.5363099"><ele>542.0</ele><time>2026-04-19T10:35:20.842Z</time></trkpt><trkpt lat="43.8386561" lon="12.5362772"><ele>542.0</ele><time>2026-04-19T10:35:22.844Z</time></trkpt><trkpt lat="43.8387114" lon="12.5362125"><ele>542.0</ele><time>2026-04-19T10:35:23.849Z</time></trkpt><trkpt lat="43.8387682" lon="12.5361424"><ele>539.4</ele><time>2026-04-19T10:35:24.85Z</time></trkpt><trkpt lat="43.8388185" lon="12.5360897"><ele>536.8000000000001</ele><time>2026-04-19T10:35:25.848Z</time></trkpt><trkpt lat="43.8388945" lon="12.536029"><ele>534.2</ele><time>2026-04-19T10:35:27.85Z</time></trkpt><trkpt lat="43.8389915" lon="12.53602"><ele>531.6</ele><time>2026-04-19T10:35:30.845Z</time></trkpt><trkpt lat="43.8390655" lon="12.536002"><ele>529.0</ele><time>2026-04-19T10:35:32.853Z</time></trkpt><trkpt lat="43.8388705" lon="12.5360311"><ele>529.0</ele><time>2026-04-19T10:37:40.856Z</time></trkpt><trkpt lat="43.8387953" lon="12.53605"><ele>529.0</ele><time>2026-04-19T10:37:41.858Z</time></trkpt><trkpt lat="43.8386939" lon="12.5361671"><ele>529.0</ele><time>2026-04-19T10:37:43.849Z</time></trkpt><trkpt lat="43.8386427" lon="12.536224"><ele>529.0</ele><time>2026-04-19T10:37:44.853Z</time></trkpt><trkpt lat="43.8385657" lon="12.5362869"><ele>529.0</ele><time>2026-04-19T10:37:46.855Z</time></trkpt><trkpt lat="43.8385005" lon="12.5362728"><ele>529.0</ele><time>2026-04-19T10:37:48.852Z</time></trkpt><trkpt lat="43.8384274" lon="12.5362436"><ele>531.1666666666667</ele><time>2026-04-19T10:37:50.857Z</time></trkpt><trkpt lat="43.8383463" lon="12.5362313"><ele>533.3333333333334</ele><time>2026-04-19T10:37:52.859Z</time></trkpt><trkpt lat="43.8382785" lon="12.536256"><ele>535.5</ele><time>2026-04-19T10:37:54.855Z</time></trkpt><trkpt lat="43.8381725" lon="12.5363004"><ele>537.6666666666666</ele><time>2026-04-19T10:37:56.85Z</time></trkpt><trkpt lat="43.8381098" lon="12.5363276"><ele>539.8333333333333</ele><time>2026-04-19T10:37:57.85Z</time></trkpt><trkpt lat="43.8380053" lon="12.5363396"><ele>542.0</ele><time>2026-04-19T10:37:59.85Z</time></trkpt><trkpt lat="43.8379194" lon="12.536312"><ele>542.0</ele><time>2026-04-19T10:38:01.857Z</time></trkpt><trkpt lat="43.8378152" lon="12.536237"><ele>542.0</ele><time>2026-04-19T10:38:03.853Z</time></trkpt><trkpt lat="43.837711" lon="12.5361752"><ele>542.0</ele><time>2026-04-19T10:38:05.853Z</time></trkpt><trkpt lat="43.8376003" lon="12.5361113"><ele>542.0</ele><time>2026-04-19T10:38:07.858Z</time></trkpt><trkpt lat="43.8375053" lon="12.5360577"><ele>536.0</ele><time>2026-04-19T10:38:09.851Z</time></trkpt><trkpt lat="43.8374262" lon="12.5360516"><ele>530.0</ele><time>2026-04-19T10:38:12.874Z</time></trkpt><trkpt lat="43.8373673" lon="12.5360183"><ele>524.0</ele><time>2026-04-19T10:38:13.962Z</time></trkpt><trkpt lat="43.8373188" lon="12.5359615"><ele>518.0</ele><time>2026-04-19T10:38:14.914Z</time></trkpt><trkpt lat="43.8372223" lon="12.5359372"><ele>511.99999999999994</ele><time>2026-04-19T10:38:16.957Z</time></trkpt><trkpt lat="43.8371204" lon="12.5359258"><ele>506.0</ele><time>2026-04-19T10:38:18.855Z</time></trkpt><trkpt lat="43.8370557" lon="12.5359299"><ele>505.99999999999994</ele><time>2026-04-19T10:38:19.851Z</time></trkpt><trkpt lat="43.8369439" lon="12.5359302"><ele>506.0</ele><time>2026-04-19T10:38:21.85Z</time></trkpt><trkpt lat="43.8368597" lon="12.5359603"><ele>506.0</ele><time>2026-04-19T10:38:23.859Z</time></trkpt><trkpt lat="43.8368015" lon="12.5360271"><ele>506.0</ele><time>2026-04-19T10:38:25.862Z</time></trkpt><trkpt lat="43.8367467" lon="12.5361037"><ele>505.99999999999994</ele><time>2026-04-19T10:38:27.85Z</time></trkpt><trkpt lat="43.8366957" lon="12.5361615"><ele>506.0</ele><time>2026-04-19T10:38:29.85Z</time></trkpt><trkpt lat="43.8366158" lon="12.5362135"><ele>505.66666666666663</ele><time>2026-04-19T10:38:31.875Z</time></trkpt><trkpt lat="43.836515" lon="12.5362496"><ele>505.3333333333333</ele><time>2026-04-19T10:38:33.854Z</time></trkpt><trkpt lat="43.8364485" lon="12.5362657"><ele>505.0</ele><time>2026-04-19T10:38:35.858Z</time></trkpt><trkpt lat="43.8363707" lon="12.5362937"><ele>504.66666666666663</ele><time>2026-04-19T10:39:28.85Z</time></trkpt><trkpt lat="43.8362999" lon="12.5363168"><ele>504.3333333333333</ele><time>2026-04-19T10:39:31.91Z</time></trkpt><trkpt lat="43.8362135" lon="12.53636"><ele>504.0</ele><time>2026-04-19T10:47:32.891Z</time></trkpt><trkpt lat="43.8361256" lon="12.5364248"><ele>504.0</ele><time>2026-04-19T10:47:35.875Z</time></trkpt><trkpt lat="43.836073" lon="12.5365023"><ele>504.0</ele><time>2026-04-19T10:47:37.8Z</time></trkpt><trkpt lat="43.8360131" lon="12.5366246"><ele>504.0</ele><time>2026-04-19T10:47:39.854Z</time></trkpt><trkpt lat="43.8359651" lon="12.536712"><ele>504.0</ele><time>2026-04-19T10:47:40.848Z</time></trkpt><trkpt lat="43.8358977" lon="12.5367908"><ele>504.0</ele><time>2026-04-19T10:47:41.854Z</time></trkpt><trkpt lat="43.8358241" lon="12.5368582"><ele>504.0</ele><time>2026-04-19T10:47:42.856Z</time></trkpt><trkpt lat="43.8357607" lon="12.5369102"><ele>502.3333333333333</ele><time>2026-04-19T10:47:43.857Z</time></trkpt><trkpt lat="43.8357009" lon="12.536953"><ele>500.66666666666663</ele><time>2026-04-19T10:47:44.854Z</time></trkpt><trkpt lat="43.835641" lon="12.5369943"><ele>499.0</ele><time>2026-04-19T10:47:45.857Z</time></trkpt><trkpt lat="43.8355327" lon="12.5370625"><ele>497.3333333333333</ele><time>2026-04-19T10:47:47.853Z</time></trkpt><trkpt lat="43.8354327" lon="12.5371229"><ele>495.66666666666663</ele><time>2026-04-19T10:47:49.855Z</time></trkpt><trkpt lat="43.8353707" lon="12.537161"><ele>494.0</ele><time>2026-04-19T10:47:51.849Z</time></trkpt><trkpt lat="43.8353183" lon="12.5372487"><ele>494.0</ele><time>2026-04-19T10:47:54.856Z</time></trkpt><trkpt lat="43.8352642" lon="12.5373457"><ele>494.0</ele><time>2026-04-19T10:47:56.856Z</time></trkpt><trkpt lat="43.8351884" lon="12.5374633"><ele>494.0</ele><time>2026-04-19T10:47:58.857Z</time></trkpt><trkpt lat="43.8351031" lon="12.5375633"><ele>494.0</ele><time>2026-04-19T10:48:00.855Z</time></trkpt><trkpt lat="43.835018" lon="12.5375995"><ele>494.0</ele><time>2026-04-19T10:48:02.853Z</time></trkpt><trkpt lat="43.8349137" lon="12.5375927"><ele>491.16666666666663</ele><time>2026-04-19T10:48:05.864Z</time></trkpt><trkpt lat="43.8348488" lon="12.5375697"><ele>488.3333333333333</ele><time>2026-04-19T10:48:07.862Z</time></trkpt><trkpt lat="43.8347845" lon="12.537514"><ele>485.5</ele><time>2026-04-19T10:48:10.868Z</time></trkpt><trkpt lat="43.8347166" lon="12.5374796"><ele>482.66666666666663</ele><time>2026-04-19T10:48:14.891Z</time></trkpt><trkpt lat="43.8346962" lon="12.5375686"><ele>479.8333333333333</ele><time>2026-04-19T10:48:19.931Z</time></trkpt><trkpt lat="43.8347674" lon="12.5376042"><ele>477.0</ele><time>2026-04-19T10:48:42.888Z</time></trkpt><trkpt lat="43.8348439" lon="12.5376887"><ele>477.0</ele><time>2026-04-19T10:48:45.912Z</time></trkpt><trkpt lat="43.8349717" lon="12.5376205"><ele>477.0</ele><time>2026-04-19T10:48:46.861Z</time></trkpt><trkpt lat="43.8350451" lon="12.5375882"><ele>477.0</ele><time>2026-04-19T10:48:47.854Z</time></trkpt><trkpt lat="43.8351275" lon="12.5375427"><ele>477.0</ele><time>2026-04-19T10:48:49.866Z</time></trkpt><trkpt lat="43.8351778" lon="12.537486"><ele>477.0</ele><time>2026-04-19T10:48:50.854Z</time></trkpt><trkpt lat="43.8352254" lon="12.5374169"><ele>477.0</ele><time>2026-04-19T10:48:51.857Z</time></trkpt><trkpt lat="43.8352731" lon="12.5373381"><ele>478.6666666666667</ele><time>2026-04-19T10:48:52.858Z</time></trkpt><trkpt lat="43.8353197" lon="12.5372551"><ele>480.33333333333337</ele><time>2026-04-19T10:48:53.857Z</time></trkpt><trkpt lat="43.8353603" lon="12.5371854"><ele>482.0</ele><time>2026-04-19T10:48:54.859Z</time></trkpt><trkpt lat="43.835432" lon="12.5371132"><ele>483.6666666666667</ele><time>2026-04-19T10:48:56.859Z</time></trkpt><trkpt lat="43.8355602" lon="12.5370439"><ele>485.33333333333337</ele><time>2026-04-19T10:48:58.871Z</time></trkpt><trkpt lat="43.8356319" lon="12.5370043"><ele>487.0</ele><time>2026-04-19T10:48:59.854Z</time></trkpt><trkpt lat="43.8356973" lon="12.5369613"><ele>487.00000000000006</ele><time>2026-04-19T10:49:00.855Z</time></trkpt><trkpt lat="43.8357734" lon="12.5369119"><ele>487.0</ele><time>2026-04-19T10:49:01.857Z</time></trkpt><trkpt lat="43.8358475" lon="12.5368652"><ele>487.0</ele><time>2026-04-19T10:49:02.855Z</time></trkpt><trkpt lat="43.8359134" lon="12.5368217"><ele>487.0</ele><time>2026-04-19T10:49:03.857Z</time></trkpt><trkpt lat="43.8360165" lon="12.53673"><ele>487.00000000000006</ele><time>2026-04-19T10:49:05.87Z</time></trkpt><trkpt lat="43.8360562" lon="12.5366603"><ele>487.0</ele><time>2026-04-19T10:49:06.848Z</time></trkpt><trkpt lat="43.8361058" lon="12.5365186"><ele>487.0</ele><time>2026-04-19T10:49:08.85Z</time></trkpt><trkpt lat="43.8360791" lon="12.5364239"><ele>487.00000000000006</ele><time>2026-04-19T10:49:11.871Z</time></trkpt><trkpt lat="43.8359941" lon="12.5363615"><ele>487.00000000000006</ele><time>2026-04-19T10:49:13.855Z</time></trkpt><trkpt lat="43.8359381" lon="12.5363203"><ele>487.0</ele><time>2026-04-19T10:49:14.859Z</time></trkpt><trkpt lat="43.8358589" lon="12.5362552"><ele>487.0</ele><time>2026-04-19T10:49:16.857Z</time></trkpt><trkpt lat="43.8356895" lon="12.5361302"><ele>485.6</ele><time>2026-04-19T10:49:20.856Z</time></trkpt><trkpt lat="43.8355934" lon="12.53602"><ele>484.20000000000005</ele><time>2026-04-19T10:49:22.856Z</time></trkpt><trkpt lat="43.8355381" lon="12.5359229"><ele>482.8</ele><time>2026-04-19T10:49:23.856Z</time></trkpt><trkpt lat="43.8354773" lon="12.5358089"><ele>481.4</ele><time>2026-04-19T10:49:24.86Z</time></trkpt><trkpt lat="43.8354201" lon="12.5357002"><ele>480.0</ele><time>2026-04-19T10:49:25.852Z</time></trkpt><trkpt lat="43.8353628" lon="12.5355974"><ele>480.0</ele><time>2026-04-19T10:49:26.858Z</time></trkpt><trkpt lat="43.835304" lon="12.5354967"><ele>480.0</ele><time>2026-04-19T10:49:27.858Z</time></trkpt><trkpt lat="43.835245" lon="12.5353935"><ele>480.0</ele><time>2026-04-19T10:49:28.852Z</time></trkpt><trkpt lat="43.8351811" lon="12.5352798"><ele>480.0</ele><time>2026-04-19T10:49:29.851Z</time></trkpt><trkpt lat="43.8351279" lon="12.53515"><ele>480.0</ele><time>2026-04-19T10:49:30.858Z</time></trkpt><trkpt lat="43.8350811" lon="12.5350335"><ele>475.4</ele><time>2026-04-19T10:49:31.858Z</time></trkpt><trkpt lat="43.8350382" lon="12.5349288"><ele>470.8</ele><time>2026-04-19T10:49:32.857Z</time></trkpt><trkpt lat="43.8349921" lon="12.5348535"><ele>466.20000000000005</ele><time>2026-04-19T10:49:33.856Z</time></trkpt><trkpt lat="43.834927" lon="12.5347291"><ele>461.6</ele><time>2026-04-19T10:49:35.868Z</time></trkpt><trkpt lat="43.8349461" lon="12.5346093"><ele>457.0</ele><time>2026-04-19T10:49:37.864Z</time></trkpt><trkpt lat="43.8349726" lon="12.5344737"><ele>455.1666666666667</ele><time>2026-04-19T10:49:39.854Z</time></trkpt><trkpt lat="43.8349328" lon="12.5343351"><ele>453.33333333333337</ele><time>2026-04-19T10:49:41.857Z</time></trkpt><trkpt lat="43.8348934" lon="12.5342492"><ele>451.5</ele><time>2026-04-19T10:49:42.857Z</time></trkpt><trkpt lat="43.8348319" lon="12.534163"><ele>449.66666666666663</ele><time>2026-04-19T10:49:43.872Z</time></trkpt><trkpt lat="43.8347655" lon="12.5340865"><ele>447.8333333333333</ele><time>2026-04-19T10:49:44.854Z</time></trkpt><trkpt lat="43.8347061" lon="12.5340245"><ele>446.0</ele><time>2026-04-19T10:49:45.858Z</time></trkpt><trkpt lat="43.8346152" lon="12.5339132"><ele>446.0</ele><time>2026-04-19T10:49:47.847Z</time></trkpt><trkpt lat="43.8345433" lon="12.5338029"><ele>446.0</ele><time>2026-04-19T10:49:49.853Z</time></trkpt><trkpt lat="43.8344795" lon="12.5336937"><ele>446.0</ele><time>2026-04-19T10:49:51.851Z</time></trkpt><trkpt lat="43.834394" lon="12.5336099"><ele>446.0</ele><time>2026-04-19T10:49:53.881Z</time></trkpt><trkpt lat="43.8343063" lon="12.5335244"><ele>446.0</ele><time>2026-04-19T10:49:55.86Z</time></trkpt><trkpt lat="43.8342009" lon="12.5334544"><ele>441.6</ele><time>2026-04-19T10:49:57.853Z</time></trkpt><trkpt lat="43.8340942" lon="12.5333764"><ele>437.20000000000005</ele><time>2026-04-19T10:49:59.859Z</time></trkpt><trkpt lat="43.8339787" lon="12.5333037"><ele>432.79999999999995</ele><time>2026-04-19T10:50:01.857Z</time></trkpt><trkpt lat="43.8339132" lon="12.533273"><ele>428.4</ele><time>2026-04-19T10:50:02.86Z</time></trkpt><trkpt lat="43.8338368" lon="12.5332541"><ele>424.0</ele><time>2026-04-19T10:50:03.856Z</time></trkpt><trkpt lat="43.8337599" lon="12.5332347"><ele>424.00000000000006</ele><time>2026-04-19T10:50:04.853Z</time></trkpt><trkpt lat="43.8336951" lon="12.5332105"><ele>424.0</ele><time>2026-04-19T10:50:05.855Z</time></trkpt><trkpt lat="43.8335943" lon="12.5331527"><ele>424.0</ele><time>2026-04-19T10:50:07.858Z</time></trkpt><trkpt lat="43.833534" lon="12.5330879"><ele>424.0</ele><time>2026-04-19T10:50:09.858Z</time></trkpt><trkpt lat="43.8335043" lon="12.5329959"><ele>424.00000000000006</ele><time>2026-04-19T10:50:11.852Z</time></trkpt><trkpt lat="43.8334446" lon="12.5329114"><ele>424.0</ele><time>2026-04-19T10:50:13.851Z</time></trkpt><trkpt lat="43.8333669" lon="12.5328552"><ele>420.33333333333337</ele><time>2026-04-19T10:50:16.885Z</time></trkpt><trkpt lat="43.8333209" lon="12.5327445"><ele>416.6666666666667</ele><time>2026-04-19T10:50:17.853Z</time></trkpt><trkpt lat="43.8332742" lon="12.5326547"><ele>413.0</ele><time>2026-04-19T10:50:18.859Z</time></trkpt><trkpt lat="43.8332336" lon="12.5325795"><ele>409.33333333333337</ele><time>2026-04-19T10:50:19.852Z</time></trkpt><trkpt lat="43.8331651" lon="12.5324902"><ele>405.6666666666667</ele><time>2026-04-19T10:50:21.851Z</time></trkpt><trkpt lat="43.8330948" lon="12.5325409"><ele>402.0</ele><time>2026-04-19T10:50:25.863Z</time></trkpt><trkpt lat="43.833109" lon="12.5326657"><ele>402.0</ele><time>2026-04-19T10:50:27.864Z</time></trkpt><trkpt lat="43.8331351" lon="12.5327565"><ele>402.0</ele><time>2026-04-19T10:50:28.853Z</time></trkpt><trkpt lat="43.833162" lon="12.5328492"><ele>402.0</ele><time>2026-04-19T10:50:29.852Z</time></trkpt><trkpt lat="43.8331885" lon="12.5329419"><ele>402.0</ele><time>2026-04-19T10:50:30.854Z</time></trkpt><trkpt lat="43.8332245" lon="12.5330436"><ele>402.0</ele><time>2026-04-19T10:50:31.858Z</time></trkpt><trkpt lat="43.8332774" lon="12.5331611"><ele>402.0</ele><time>2026-04-19T10:50:32.847Z</time></trkpt><trkpt lat="43.8333445" lon="12.5332896"><ele>404.0</ele><time>2026-04-19T10:50:33.857Z</time></trkpt><trkpt lat="43.8334198" lon="12.5334298"><ele>406.0</ele><time>2026-04-19T10:50:34.857Z</time></trkpt><trkpt lat="43.8335012" lon="12.5335801"><ele>408.0</ele><time>2026-04-19T10:50:35.856Z</time></trkpt><trkpt lat="43.8335828" lon="12.5337402"><ele>410.0</ele><time>2026-04-19T10:50:36.859Z</time></trkpt><trkpt lat="43.8336553" lon="12.5339108"><ele>415.0</ele><time>2026-04-19T10:50:37.849Z</time></trkpt><trkpt lat="43.833715" lon="12.5340956"><ele>420.0</ele><time>2026-04-19T10:50:38.874Z</time></trkpt><trkpt lat="43.8337548" lon="12.5342918"><ele>425.0</ele><time>2026-04-19T10:50:39.86Z</time></trkpt><trkpt lat="43.8337907" lon="12.5344965"><ele>430.0</ele><time>2026-04-19T10:50:40.856Z</time></trkpt><trkpt lat="43.8338027" lon="12.5347095"><ele>430.6666666666667</ele><time>2026-04-19T10:50:41.853Z</time></trkpt><trkpt lat="43.8338082" lon="12.5349297"><ele>431.33333333333337</ele><time>2026-04-19T10:50:42.857Z</time></trkpt><trkpt lat="43.8338113" lon="12.5351439"><ele>432.0</ele><time>2026-04-19T10:50:43.858Z</time></trkpt><trkpt lat="43.8338149" lon="12.5353337"><ele>433.5</ele><time>2026-04-19T10:50:44.855Z</time></trkpt><trkpt lat="43.8338111" lon="12.5355203"><ele>435.0</ele><time>2026-04-19T10:50:45.855Z</time></trkpt><trkpt lat="43.833806" lon="12.5357252"><ele>436.5</ele><time>2026-04-19T10:50:46.853Z</time></trkpt><trkpt lat="43.8338044" lon="12.5359336"><ele>438.0</ele><time>2026-04-19T10:50:47.852Z</time></trkpt><trkpt lat="43.8338071" lon="12.5361301"><ele>440.0</ele><time>2026-04-19T10:50:48.86Z</time></trkpt><trkpt lat="43.8338148" lon="12.536305"><ele>441.99999999999994</ele><time>2026-04-19T10:50:49.854Z</time></trkpt><trkpt lat="43.8338205" lon="12.5364557"><ele>443.99999999999994</ele><time>2026-04-19T10:50:50.86Z</time></trkpt><trkpt lat="43.8337913" lon="12.5365922"><ele>446.0</ele><time>2026-04-19T10:50:51.855Z</time></trkpt><trkpt lat="43.8337424" lon="12.5367302"><ele>448.0</ele><time>2026-04-19T10:50:52.853Z</time></trkpt><trkpt lat="43.8336839" lon="12.5368856"><ele>448.0</ele><time>2026-04-19T10:50:53.849Z</time></trkpt><trkpt lat="43.8336281" lon="12.5370325"><ele>447.99999999999994</ele><time>2026-04-19T10:50:54.856Z</time></trkpt><trkpt lat="43.8335744" lon="12.5371416"><ele>447.99999999999994</ele><time>2026-04-19T10:50:55.85Z</time></trkpt><trkpt lat="43.8334968" lon="12.5372073"><ele>448.0</ele><time>2026-04-19T10:50:56.857Z</time></trkpt><trkpt lat="43.8333932" lon="12.5372316"><ele>448.0</ele><time>2026-04-19T10:50:57.858Z</time></trkpt><trkpt lat="43.8332675" lon="12.5372252"><ele>447.25</ele><time>2026-04-19T10:50:58.855Z</time></trkpt><trkpt lat="43.8331287" lon="12.5372061"><ele>446.5</ele><time>2026-04-19T10:50:59.854Z</time></trkpt><trkpt lat="43.8330024" lon="12.5371794"><ele>445.75</ele><time>2026-04-19T10:51:00.857Z</time></trkpt><trkpt lat="43.8329005" lon="12.5371399"><ele>445.0</ele><time>2026-04-19T10:51:01.864Z</time></trkpt><trkpt lat="43.8328341" lon="12.5370705"><ele>444.83333333333337</ele><time>2026-04-19T10:51:02.856Z</time></trkpt><trkpt lat="43.8327991" lon="12.5369633"><ele>444.6666666666667</ele><time>2026-04-19T10:51:03.872Z</time></trkpt><trkpt lat="43.8327659" lon="12.5368649"><ele>444.5</ele><time>2026-04-19T10:51:04.854Z</time></trkpt><trkpt lat="43.8327194" lon="12.5367784"><ele>444.33333333333337</ele><time>2026-04-19T10:51:05.857Z</time></trkpt><trkpt lat="43.8326301" lon="12.5367367"><ele>444.1666666666667</ele><time>2026-04-19T10:51:06.858Z</time></trkpt><trkpt lat="43.8325199" lon="12.5367129"><ele>444.0</ele><time>2026-04-19T10:51:07.853Z</time></trkpt><trkpt lat="43.8324201" lon="12.5367123"><ele>444.0</ele><time>2026-04-19T10:51:08.868Z</time></trkpt><trkpt lat="43.8323341" lon="12.5367495"><ele>444.0</ele><time>2026-04-19T10:51:09.86Z</time></trkpt><trkpt lat="43.8322601" lon="12.5368373"><ele>444.0</ele><time>2026-04-19T10:51:10.857Z</time></trkpt><trkpt lat="43.8321847" lon="12.5369626"><ele>444.0</ele><time>2026-04-19T10:51:11.864Z</time></trkpt><trkpt lat="43.8320913" lon="12.5370987"><ele>444.0</ele><time>2026-04-19T10:51:12.853Z</time></trkpt><trkpt lat="43.8319678" lon="12.5372101"><ele>446.75</ele><time>2026-04-19T10:51:13.862Z</time></trkpt><trkpt lat="43.8318387" lon="12.5372866"><ele>449.5</ele><time>2026-04-19T10:51:14.852Z</time></trkpt><trkpt lat="43.8317189" lon="12.5373381"><ele>452.25</ele><time>2026-04-19T10:51:15.854Z</time></trkpt><trkpt lat="43.8316191" lon="12.537406"><ele>455.0</ele><time>2026-04-19T10:51:16.85Z</time></trkpt><trkpt lat="43.831539" lon="12.5375074"><ele>456.5</ele><time>2026-04-19T10:51:17.854Z</time></trkpt><trkpt lat="43.8314884" lon="12.5376351"><ele>458.0</ele><time>2026-04-19T10:51:18.854Z</time></trkpt><trkpt lat="43.831471" lon="12.537785"><ele>459.5</ele><time>2026-04-19T10:51:19.858Z</time></trkpt><trkpt lat="43.8314712" lon="12.5379445"><ele>461.0</ele><time>2026-04-19T10:51:20.87Z</time></trkpt><trkpt lat="43.8315218" lon="12.5381256"><ele>464.3333333333333</ele><time>2026-04-19T10:51:21.863Z</time></trkpt><trkpt lat="43.8315869" lon="12.5383162"><ele>467.66666666666663</ele><time>2026-04-19T10:51:22.859Z</time></trkpt><trkpt lat="43.8316689" lon="12.5384962"><ele>471.0</ele><time>2026-04-19T10:51:23.859Z</time></trkpt><trkpt lat="43.8317661" lon="12.5386742"><ele>473.33333333333337</ele><time>2026-04-19T10:51:24.859Z</time></trkpt><trkpt lat="43.8318662" lon="12.5388434"><ele>475.6666666666667</ele><time>2026-04-19T10:51:25.858Z</time></trkpt><trkpt lat="43.8319672" lon="12.539006"><ele>478.0</ele><time>2026-04-19T10:51:26.872Z</time></trkpt><trkpt lat="43.8320712" lon="12.5391731"><ele>478.0</ele><time>2026-04-19T10:51:27.853Z</time></trkpt><trkpt lat="43.8321705" lon="12.5393461"><ele>478.0</ele><time>2026-04-19T10:51:28.855Z</time></trkpt><trkpt lat="43.8322575" lon="12.5395227"><ele>478.0</ele><time>2026-04-19T10:51:29.858Z</time></trkpt><trkpt lat="43.8323331" lon="12.5397051"><ele>480.75</ele><time>2026-04-19T10:51:30.857Z</time></trkpt><trkpt lat="43.8324012" lon="12.5398952"><ele>483.5</ele><time>2026-04-19T10:51:31.861Z</time></trkpt><trkpt lat="43.8324608" lon="12.540078"><ele>486.25</ele><time>2026-04-19T10:51:32.855Z</time></trkpt><trkpt lat="43.8325106" lon="12.5402397"><ele>489.0</ele><time>2026-04-19T10:51:33.858Z</time></trkpt><trkpt lat="43.8325448" lon="12.5403814"><ele>490.0</ele><time>2026-04-19T10:51:34.857Z</time></trkpt><trkpt lat="43.8325576" lon="12.5405184"><ele>491.0</ele><time>2026-04-19T10:51:35.855Z</time></trkpt><trkpt lat="43.8325477" lon="12.5406749"><ele>492.0</ele><time>2026-04-19T10:51:36.856Z</time></trkpt><trkpt lat="43.8325071" lon="12.5408511"><ele>493.0</ele><time>2026-04-19T10:51:37.853Z</time></trkpt><trkpt lat="43.8324548" lon="12.5410358"><ele>496.0</ele><time>2026-04-19T10:51:38.866Z</time></trkpt><trkpt lat="43.8324074" lon="12.5412165"><ele>499.0</ele><time>2026-04-19T10:51:39.854Z</time></trkpt><trkpt lat="43.8323745" lon="12.5413992"><ele>502.0</ele><time>2026-04-19T10:51:40.859Z</time></trkpt><trkpt lat="43.8323559" lon="12.541589"><ele>505.0</ele><time>2026-04-19T10:51:41.856Z</time></trkpt><trkpt lat="43.8323516" lon="12.5417887"><ele>505.0</ele><time>2026-04-19T10:51:42.861Z</time></trkpt><trkpt lat="43.8323515" lon="12.542001"><ele>505.0</ele><time>2026-04-19T10:51:43.853Z</time></trkpt><trkpt lat="43.8323455" lon="12.5422186"><ele>505.0</ele><time>2026-04-19T10:51:44.857Z</time></trkpt><trkpt lat="43.8323317" lon="12.5424185"><ele>506.8</ele><time>2026-04-19T10:51:45.858Z</time></trkpt><trkpt lat="43.8323139" lon="12.5425984"><ele>508.6</ele><time>2026-04-19T10:51:46.855Z</time></trkpt><trkpt lat="43.8323049" lon="12.5427464"><ele>510.4</ele><time>2026-04-19T10:51:47.871Z</time></trkpt><trkpt lat="43.8323095" lon="12.5428623"><ele>512.2</ele><time>2026-04-19T10:51:48.857Z</time></trkpt><trkpt lat="43.8323495" lon="12.5429459"><ele>514.0</ele><time>2026-04-19T10:51:49.862Z</time></trkpt><trkpt lat="43.8324101" lon="12.5430023"><ele>515.6</ele><time>2026-04-19T10:51:50.86Z</time></trkpt><trkpt lat="43.8324854" lon="12.5430076"><ele>517.2</ele><time>2026-04-19T10:51:51.863Z</time></trkpt><trkpt lat="43.8325611" lon="12.5429598"><ele>518.8000000000001</ele><time>2026-04-19T10:51:52.853Z</time></trkpt><trkpt lat="43.8326415" lon="12.5428756"><ele>520.4</ele><time>2026-04-19T10:51:53.857Z</time></trkpt><trkpt lat="43.8327125" lon="12.5427224"><ele>522.0</ele><time>2026-04-19T10:51:54.859Z</time></trkpt><trkpt lat="43.832788" lon="12.54256"><ele>523.0</ele><time>2026-04-19T10:51:55.859Z</time></trkpt><trkpt lat="43.832864" lon="12.5424107"><ele>524.0</ele><time>2026-04-19T10:51:56.865Z</time></trkpt><trkpt lat="43.8329381" lon="12.5422796"><ele>525.0</ele><time>2026-04-19T10:51:57.858Z</time></trkpt><trkpt lat="43.8330099" lon="12.5421572"><ele>526.0</ele><time>2026-04-19T10:51:58.86Z</time></trkpt><trkpt lat="43.8330802" lon="12.5420345"><ele>526.0</ele><time>2026-04-19T10:51:59.855Z</time></trkpt><trkpt lat="43.8331514" lon="12.5419105"><ele>526.0</ele><time>2026-04-19T10:52:00.849Z</time></trkpt><trkpt lat="43.833226" lon="12.5417814"><ele>526.0</ele><time>2026-04-19T10:52:01.856Z</time></trkpt><trkpt lat="43.8333055" lon="12.5416511"><ele>526.0</ele><time>2026-04-19T10:52:02.859Z</time></trkpt><trkpt lat="43.8333877" lon="12.5415365"><ele>526.0</ele><time>2026-04-19T10:52:03.877Z</time></trkpt><trkpt lat="43.8334714" lon="12.541446"><ele>526.0</ele><time>2026-04-19T10:52:04.859Z</time></trkpt><trkpt lat="43.8335557" lon="12.5413918"><ele>526.0</ele><time>2026-04-19T10:52:05.864Z</time></trkpt><trkpt lat="43.8336277" lon="12.5413902"><ele>526.0</ele><time>2026-04-19T10:52:06.863Z</time></trkpt><trkpt lat="43.8336734" lon="12.5414611"><ele>526.0</ele><time>2026-04-19T10:52:07.868Z</time></trkpt><trkpt lat="43.8336493" lon="12.5415945"><ele>526.0</ele><time>2026-04-19T10:52:09.851Z</time></trkpt><trkpt lat="43.8335893" lon="12.5416563"><ele>526.0</ele><time>2026-04-19T10:52:10.853Z</time></trkpt><trkpt lat="43.8335191" lon="12.5417358"><ele>526.0</ele><time>2026-04-19T10:52:11.852Z</time></trkpt><trkpt lat="43.8334636" lon="12.5418394"><ele>526.0</ele><time>2026-04-19T10:52:12.872Z</time></trkpt><trkpt lat="43.8334223" lon="12.5419714"><ele>526.0</ele><time>2026-04-19T10:52:13.864Z</time></trkpt><trkpt lat="43.8333822" lon="12.5421112"><ele>526.0</ele><time>2026-04-19T10:52:14.856Z</time></trkpt><trkpt lat="43.8333435" lon="12.5422717"><ele>530.25</ele><time>2026-04-19T10:52:15.856Z</time></trkpt><trkpt lat="43.8333015" lon="12.5424441"><ele>534.5</ele><time>2026-04-19T10:52:16.853Z</time></trkpt><trkpt lat="43.8332604" lon="12.5426089"><ele>538.75</ele><time>2026-04-19T10:52:17.866Z</time></trkpt><trkpt lat="43.8332177" lon="12.5427643"><ele>543.0</ele><time>2026-04-19T10:52:18.859Z</time></trkpt><trkpt lat="43.8331692" lon="12.5429218"><ele>546.25</ele><time>2026-04-19T10:52:19.853Z</time></trkpt><trkpt lat="43.8331145" lon="12.5430896"><ele>549.5</ele><time>2026-04-19T10:52:20.858Z</time></trkpt><trkpt lat="43.8330528" lon="12.5432742"><ele>552.75</ele><time>2026-04-19T10:52:21.86Z</time></trkpt><trkpt lat="43.8329822" lon="12.5434607"><ele>556.0</ele><time>2026-04-19T10:52:22.856Z</time></trkpt><trkpt lat="43.8329079" lon="12.5436488"><ele>558.0</ele><time>2026-04-19T10:52:23.864Z</time></trkpt><trkpt lat="43.8328415" lon="12.5438349"><ele>560.0</ele><time>2026-04-19T10:52:24.855Z</time></trkpt><trkpt lat="43.8327655" lon="12.544004"><ele>562.0</ele><time>2026-04-19T10:52:25.87Z</time></trkpt><trkpt lat="43.8326838" lon="12.5441562"><ele>564.0</ele><time>2026-04-19T10:52:26.859Z</time></trkpt><trkpt lat="43.8326025" lon="12.5442988"><ele>562.25</ele><time>2026-04-19T10:52:27.854Z</time></trkpt><trkpt lat="43.8325323" lon="12.5444434"><ele>560.5</ele><time>2026-04-19T10:52:28.858Z</time></trkpt><trkpt lat="43.8324796" lon="12.5446022"><ele>558.75</ele><time>2026-04-19T10:52:29.853Z</time></trkpt><trkpt lat="43.8324389" lon="12.5447625"><ele>557.0</ele><time>2026-04-19T10:52:30.868Z</time></trkpt><trkpt lat="43.8324053" lon="12.5449162"><ele>557.0</ele><time>2026-04-19T10:52:31.867Z</time></trkpt><trkpt lat="43.8323775" lon="12.5450675"><ele>557.0</ele><time>2026-04-19T10:52:32.854Z</time></trkpt><trkpt lat="43.8323588" lon="12.5452258"><ele>557.0</ele><time>2026-04-19T10:52:33.859Z</time></trkpt><trkpt lat="43.8323495" lon="12.5453748"><ele>557.0</ele><time>2026-04-19T10:52:34.862Z</time></trkpt><trkpt lat="43.8323471" lon="12.5454876"><ele>557.0</ele><time>2026-04-19T10:52:35.862Z</time></trkpt><trkpt lat="43.8323639" lon="12.5455948"><ele>557.0</ele><time>2026-04-19T10:52:37.857Z</time></trkpt><trkpt lat="43.8324608" lon="12.5455679"><ele>557.0</ele><time>2026-04-19T10:52:41.865Z</time></trkpt><trkpt lat="43.8325145" lon="12.5454925"><ele>557.0</ele><time>2026-04-19T10:52:42.862Z</time></trkpt><trkpt lat="43.8325698" lon="12.5453701"><ele>557.0</ele><time>2026-04-19T10:52:43.863Z</time></trkpt><trkpt lat="43.832633" lon="12.5452407"><ele>557.0</ele><time>2026-04-19T10:52:44.868Z</time></trkpt><trkpt lat="43.8327046" lon="12.5450949"><ele>558.5</ele><time>2026-04-19T10:52:45.863Z</time></trkpt><trkpt lat="43.8327766" lon="12.5449403"><ele>560.0</ele><time>2026-04-19T10:52:46.864Z</time></trkpt><trkpt lat="43.8328529" lon="12.5447787"><ele>561.5</ele><time>2026-04-19T10:52:47.864Z</time></trkpt><trkpt lat="43.8329313" lon="12.5446125"><ele>563.0</ele><time>2026-04-19T10:52:48.855Z</time></trkpt><trkpt lat="43.8330184" lon="12.5444381"><ele>563.3333333333333</ele><time>2026-04-19T10:52:49.863Z</time></trkpt><trkpt lat="43.8331171" lon="12.5442641"><ele>563.6666666666666</ele><time>2026-04-19T10:52:50.859Z</time></trkpt><trkpt lat="43.8332261" lon="12.5440947"><ele>564.0</ele><time>2026-04-19T10:52:51.863Z</time></trkpt><trkpt lat="43.8333373" lon="12.5439393"><ele>564.0</ele><time>2026-04-19T10:52:52.874Z</time></trkpt><trkpt lat="43.8334481" lon="12.5437923"><ele>564.0</ele><time>2026-04-19T10:52:53.868Z</time></trkpt><trkpt lat="43.8335606" lon="12.5436438"><ele>564.0</ele><time>2026-04-19T10:52:54.859Z</time></trkpt><trkpt lat="43.8336708" lon="12.543494"><ele>568.6666666666666</ele><time>2026-04-19T10:52:55.86Z</time></trkpt><trkpt lat="43.8337807" lon="12.5433459"><ele>573.3333333333333</ele><time>2026-04-19T10:52:56.865Z</time></trkpt><trkpt lat="43.8338903" lon="12.5432001"><ele>578.0</ele><time>2026-04-19T10:52:57.864Z</time></trkpt><trkpt lat="43.8340069" lon="12.5430666"><ele>578.0</ele><time>2026-04-19T10:52:58.86Z</time></trkpt><trkpt lat="43.8341354" lon="12.5429578"><ele>578.0</ele><time>2026-04-19T10:52:59.876Z</time></trkpt><trkpt lat="43.8342736" lon="12.5428854"><ele>578.0</ele><time>2026-04-19T10:53:00.863Z</time></trkpt><trkpt lat="43.8344228" lon="12.542866"><ele>578.0</ele><time>2026-04-19T10:53:01.86Z</time></trkpt><trkpt lat="43.8345735" lon="12.5428727"><ele>582.0</ele><time>2026-04-19T10:53:02.855Z</time></trkpt><trkpt lat="43.8347234" lon="12.5428959"><ele>586.0</ele><time>2026-04-19T10:53:03.861Z</time></trkpt><trkpt lat="43.834868" lon="12.5429467"><ele>590.0</ele><time>2026-04-19T10:53:04.86Z</time></trkpt><trkpt lat="43.8350143" lon="12.5430014"><ele>590.0</ele><time>2026-04-19T10:53:05.86Z</time></trkpt><trkpt lat="43.8351566" lon="12.5430593"><ele>590.0</ele><time>2026-04-19T10:53:06.863Z</time></trkpt><trkpt lat="43.8352978" lon="12.5431049"><ele>590.0</ele><time>2026-04-19T10:53:07.858Z</time></trkpt><trkpt lat="43.8354299" lon="12.5431247"><ele>590.0</ele><time>2026-04-19T10:53:08.877Z</time></trkpt><trkpt lat="43.8355574" lon="12.5431101"><ele>590.0</ele><time>2026-04-19T10:53:09.863Z</time></trkpt><trkpt lat="43.8356863" lon="12.5430672"><ele>590.0</ele><time>2026-04-19T10:53:10.854Z</time></trkpt><trkpt lat="43.8358152" lon="12.542992"><ele>590.0</ele><time>2026-04-19T10:53:11.856Z</time></trkpt><trkpt lat="43.8359414" lon="12.5429116"><ele>590.0</ele><time>2026-04-19T10:53:12.852Z</time></trkpt><trkpt lat="43.8360541" lon="12.5428469"><ele>593.1666666666666</ele><time>2026-04-19T10:53:13.872Z</time></trkpt><trkpt lat="43.8361452" lon="12.5427869"><ele>596.3333333333333</ele><time>2026-04-19T10:53:14.858Z</time></trkpt><trkpt lat="43.8362094" lon="12.5427174"><ele>599.5</ele><time>2026-04-19T10:53:15.86Z</time></trkpt><trkpt lat="43.8362485" lon="12.5426322"><ele>602.6666666666666</ele><time>2026-04-19T10:53:16.85Z</time></trkpt><trkpt lat="43.8362575" lon="12.5425434"><ele>605.8333333333334</ele><time>2026-04-19T10:53:17.857Z</time></trkpt><trkpt lat="43.8362291" lon="12.5424631"><ele>609.0</ele><time>2026-04-19T10:53:18.858Z</time></trkpt><trkpt lat="43.8361715" lon="12.5424025"><ele>609.0</ele><time>2026-04-19T10:53:19.85Z</time></trkpt><trkpt lat="43.8360702" lon="12.5423876"><ele>609.0</ele><time>2026-04-19T10:53:20.861Z</time></trkpt><trkpt lat="43.8359625" lon="12.5424085"><ele>609.0</ele><time>2026-04-19T10:53:21.862Z</time></trkpt><trkpt lat="43.8358477" lon="12.5424697"><ele>609.0</ele><time>2026-04-19T10:53:22.862Z</time></trkpt><trkpt lat="43.8357381" lon="12.5425565"><ele>608.0</ele><time>2026-04-19T10:53:23.862Z</time></trkpt><trkpt lat="43.8356448" lon="12.5426538"><ele>607.0</ele><time>2026-04-19T10:53:24.858Z</time></trkpt><trkpt lat="43.8355557" lon="12.5427314"><ele>606.0</ele><time>2026-04-19T10:53:25.878Z</time></trkpt><trkpt lat="43.8354783" lon="12.5427493"><ele>605.0</ele><time>2026-04-19T10:53:26.852Z</time></trkpt><trkpt lat="43.8353979" lon="12.5427554"><ele>604.0</ele><time>2026-04-19T10:53:27.866Z</time></trkpt><trkpt lat="43.835364" lon="12.5426549"><ele>604.0</ele><time>2026-04-19T10:53:28.857Z</time></trkpt><trkpt lat="43.8353704" lon="12.542538"><ele>604.0</ele><time>2026-04-19T10:53:29.856Z</time></trkpt><trkpt lat="43.8354103" lon="12.542408"><ele>604.0</ele><time>2026-04-19T10:53:30.857Z</time></trkpt><trkpt lat="43.8354863" lon="12.5422889"><ele>604.0</ele><time>2026-04-19T10:53:31.854Z</time></trkpt><trkpt lat="43.8355845" lon="12.5421718"><ele>604.0</ele><time>2026-04-19T10:53:32.861Z</time></trkpt><trkpt lat="43.835698" lon="12.5420668"><ele>602.5</ele><time>2026-04-19T10:53:33.857Z</time></trkpt><trkpt lat="43.8358219" lon="12.5419764"><ele>601.0</ele><time>2026-04-19T10:53:34.881Z</time></trkpt><trkpt lat="43.8359564" lon="12.5419043"><ele>599.5</ele><time>2026-04-19T10:53:35.863Z</time></trkpt><trkpt lat="43.8361005" lon="12.5418411"><ele>598.0</ele><time>2026-04-19T10:53:36.862Z</time></trkpt><trkpt lat="43.8362513" lon="12.5417911"><ele>603.6666666666667</ele><time>2026-04-19T10:53:37.855Z</time></trkpt><trkpt lat="43.8364005" lon="12.5417521"><ele>609.3333333333334</ele><time>2026-04-19T10:53:38.861Z</time></trkpt><trkpt lat="43.8365452" lon="12.541719"><ele>615.0</ele><time>2026-04-19T10:53:39.852Z</time></trkpt><trkpt lat="43.8367019" lon="12.5416879"><ele>614.6666666666666</ele><time>2026-04-19T10:53:40.863Z</time></trkpt><trkpt lat="43.8368644" lon="12.5416556"><ele>614.3333333333333</ele><time>2026-04-19T10:53:41.857Z</time></trkpt><trkpt lat="43.8370355" lon="12.5416173"><ele>614.0</ele><time>2026-04-19T10:53:42.862Z</time></trkpt><trkpt lat="43.8372076" lon="12.5415724"><ele>614.0</ele><time>2026-04-19T10:53:43.857Z</time></trkpt><trkpt lat="43.8373795" lon="12.5415295"><ele>614.0</ele><time>2026-04-19T10:53:44.862Z</time></trkpt><trkpt lat="43.8375252" lon="12.5414727"><ele>614.0</ele><time>2026-04-19T10:53:45.853Z</time></trkpt><trkpt lat="43.8376585" lon="12.5414138"><ele>614.6</ele><time>2026-04-19T10:53:46.861Z</time></trkpt><trkpt lat="43.8377738" lon="12.5413442"><ele>615.2</ele><time>2026-04-19T10:53:47.861Z</time></trkpt><trkpt lat="43.8378695" lon="12.5412561"><ele>615.8000000000001</ele><time>2026-04-19T10:53:48.863Z</time></trkpt><trkpt lat="43.8379486" lon="12.5411631"><ele>616.4</ele><time>2026-04-19T10:53:49.882Z</time></trkpt><trkpt lat="43.8379982" lon="12.5410684"><ele>617.0</ele><time>2026-04-19T10:53:50.865Z</time></trkpt><trkpt lat="43.8380173" lon="12.5409728"><ele>617.0</ele><time>2026-04-19T10:53:51.858Z</time></trkpt><trkpt lat="43.8380068" lon="12.540883"><ele>617.0</ele><time>2026-04-19T10:53:52.856Z</time></trkpt><trkpt lat="43.837982" lon="12.5407953"><ele>617.0</ele><time>2026-04-19T10:53:53.861Z</time></trkpt><trkpt lat="43.8379503" lon="12.540686"><ele>617.0</ele><time>2026-04-19T10:53:54.857Z</time></trkpt><trkpt lat="43.8379074" lon="12.5405574"><ele>617.0</ele><time>2026-04-19T10:53:55.856Z</time></trkpt><trkpt lat="43.8378644" lon="12.5404511"><ele>617.0</ele><time>2026-04-19T10:53:56.86Z</time></trkpt><trkpt lat="43.837845" lon="12.5403539"><ele>617.6</ele><time>2026-04-19T10:53:57.86Z</time></trkpt><trkpt lat="43.8378597" lon="12.5401987"><ele>618.2</ele><time>2026-04-19T10:53:59.854Z</time></trkpt><trkpt lat="43.8379426" lon="12.5401006"><ele>618.8</ele><time>2026-04-19T10:54:01.859Z</time></trkpt><trkpt lat="43.8380097" lon="12.5400687"><ele>619.4</ele><time>2026-04-19T10:54:02.858Z</time></trkpt><trkpt lat="43.8380834" lon="12.5400014"><ele>620.0</ele><time>2026-04-19T10:54:03.874Z</time></trkpt><trkpt lat="43.8381474" lon="12.5398997"><ele>620.0</ele><time>2026-04-19T10:54:04.86Z</time></trkpt><trkpt lat="43.8382195" lon="12.5397989"><ele>620.0</ele><time>2026-04-19T10:54:05.862Z</time></trkpt><trkpt lat="43.8382871" lon="12.5397063"><ele>620.0</ele><time>2026-04-19T10:54:06.862Z</time></trkpt><trkpt lat="43.8383505" lon="12.539614"><ele>620.0</ele><time>2026-04-19T10:54:07.866Z</time></trkpt><trkpt lat="43.8384129" lon="12.5395037"><ele>620.0</ele><time>2026-04-19T10:54:08.854Z</time></trkpt><trkpt lat="43.8384712" lon="12.5394127"><ele>619.8333333333333</ele><time>2026-04-19T10:54:09.861Z</time></trkpt><trkpt lat="43.8385322" lon="12.5393397"><ele>619.6666666666666</ele><time>2026-04-19T10:54:10.859Z</time></trkpt><trkpt lat="43.838604" lon="12.5392793"><ele>619.5</ele><time>2026-04-19T10:54:11.858Z</time></trkpt><trkpt lat="43.8386649" lon="12.5392265"><ele>619.3333333333334</ele><time>2026-04-19T10:54:12.857Z</time></trkpt><trkpt lat="43.8387606" lon="12.5391481"><ele>619.1666666666667</ele><time>2026-04-19T10:54:14.903Z</time></trkpt><trkpt lat="43.8388336" lon="12.539096"><ele>619.0</ele><time>2026-04-19T10:54:16.862Z</time></trkpt><trkpt lat="43.8388967" lon="12.5390934"><ele>619.0</ele><time>2026-04-19T10:54:19.863Z</time></trkpt><trkpt lat="43.8389909" lon="12.5390727"><ele>619.0</ele><time>2026-04-19T10:55:39.86Z</time></trkpt><trkpt lat="43.8391525" lon="12.5389094"><ele>619.0</ele><time>2026-04-19T10:55:43.87Z</time></trkpt><trkpt lat="43.8392548" lon="12.5388387"><ele>619.0</ele><time>2026-04-19T10:55:44.86Z</time></trkpt><trkpt lat="43.8393339" lon="12.5387861"><ele>617.2</ele><time>2026-04-19T10:55:45.862Z</time></trkpt><trkpt lat="43.8393982" lon="12.5387436"><ele>615.4</ele><time>2026-04-19T10:55:46.86Z</time></trkpt><trkpt lat="43.8395201" lon="12.5387097"><ele>613.6</ele><time>2026-04-19T10:55:48.862Z</time></trkpt><trkpt lat="43.8395867" lon="12.5387112"><ele>611.8</ele><time>2026-04-19T10:55:49.86Z</time></trkpt><trkpt lat="43.839707" lon="12.5387397"><ele>610.0</ele><time>2026-04-19T10:55:51.874Z</time></trkpt><trkpt lat="43.8398135" lon="12.5387507"><ele>610.0</ele><time>2026-04-19T10:55:53.861Z</time></trkpt><trkpt lat="43.839919" lon="12.5387476"><ele>610.0</ele><time>2026-04-19T10:55:55.862Z</time></trkpt><trkpt lat="43.8400203" lon="12.5387514"><ele>610.0</ele><time>2026-04-19T10:55:57.862Z</time></trkpt><trkpt lat="43.8400958" lon="12.53882"><ele>610.0</ele><time>2026-04-19T10:55:59.857Z</time></trkpt><trkpt lat="43.8401597" lon="12.5389454"><ele>610.0</ele><time>2026-04-19T10:56:01.86Z</time></trkpt><trkpt lat="43.8401758" lon="12.5390512"><ele>607.4</ele><time>2026-04-19T10:56:03.857Z</time></trkpt><trkpt lat="43.8402433" lon="12.5391698"><ele>604.8</ele><time>2026-04-19T10:56:06.86Z</time></trkpt><trkpt lat="43.8403451" lon="12.5392626"><ele>602.2</ele><time>2026-04-19T10:56:08.854Z</time></trkpt><trkpt lat="43.840374" lon="12.5393415"><ele>599.6</ele><time>2026-04-19T10:56:09.858Z</time></trkpt><trkpt lat="43.8403661" lon="12.539503"><ele>597.0</ele><time>2026-04-19T10:56:11.859Z</time></trkpt><trkpt lat="43.8403326" lon="12.5395895"><ele>596.4</ele><time>2026-04-19T10:56:12.869Z</time></trkpt><trkpt lat="43.8402815" lon="12.539692"><ele>595.8000000000001</ele><time>2026-04-19T10:56:13.858Z</time></trkpt><trkpt lat="43.8402234" lon="12.5398038"><ele>595.2</ele><time>2026-04-19T10:56:14.858Z</time></trkpt><trkpt lat="43.840166" lon="12.5399121"><ele>594.6</ele><time>2026-04-19T10:56:15.86Z</time></trkpt><trkpt lat="43.8401195" lon="12.5400148"><ele>594.0</ele><time>2026-04-19T10:56:16.858Z</time></trkpt><trkpt lat="43.8400971" lon="12.5401171"><ele>595.3333333333334</ele><time>2026-04-19T10:56:17.856Z</time></trkpt><trkpt lat="43.8400992" lon="12.5402301"><ele>596.6666666666666</ele><time>2026-04-19T10:56:18.853Z</time></trkpt><trkpt lat="43.8401318" lon="12.5403313"><ele>598.0</ele><time>2026-04-19T10:56:19.855Z</time></trkpt><trkpt lat="43.8401986" lon="12.5404071"><ele>599.3333333333333</ele><time>2026-04-19T10:56:20.861Z</time></trkpt><trkpt lat="43.8402895" lon="12.5404395"><ele>600.6666666666666</ele><time>2026-04-19T10:56:21.862Z</time></trkpt><trkpt lat="43.8403887" lon="12.5404288"><ele>602.0</ele><time>2026-04-19T10:56:22.863Z</time></trkpt><trkpt lat="43.8404966" lon="12.5403851"><ele>600.0</ele><time>2026-04-19T10:56:23.861Z</time></trkpt><trkpt lat="43.8406047" lon="12.5403136"><ele>598.0</ele><time>2026-04-19T10:56:24.861Z</time></trkpt><trkpt lat="43.8407152" lon="12.5402319"><ele>596.0</ele><time>2026-04-19T10:56:25.856Z</time></trkpt><trkpt lat="43.8408191" lon="12.5401236"><ele>594.0</ele><time>2026-04-19T10:56:26.855Z</time></trkpt><trkpt lat="43.8409152" lon="12.5400037"><ele>590.0</ele><time>2026-04-19T10:56:27.862Z</time></trkpt><trkpt lat="43.8409912" lon="12.5398677"><ele>586.0</ele><time>2026-04-19T10:56:28.857Z</time></trkpt><trkpt lat="43.8410429" lon="12.5397154"><ele>582.0</ele><time>2026-04-19T10:56:29.877Z</time></trkpt><trkpt lat="43.8410822" lon="12.5395522"><ele>578.0</ele><time>2026-04-19T10:56:30.86Z</time></trkpt><trkpt lat="43.8410757" lon="12.5393542"><ele>576.3333333333333</ele><time>2026-04-19T10:56:31.864Z</time></trkpt><trkpt lat="43.8410555" lon="12.5391382"><ele>574.6666666666666</ele><time>2026-04-19T10:56:32.856Z</time></trkpt><trkpt lat="43.84103" lon="12.5388974"><ele>573.0</ele><time>2026-04-19T10:56:33.862Z</time></trkpt><trkpt lat="43.8410069" lon="12.5386271"><ele>573.0</ele><time>2026-04-19T10:56:34.859Z</time></trkpt><trkpt lat="43.8409867" lon="12.5383366"><ele>573.0</ele><time>2026-04-19T10:56:35.862Z</time></trkpt><trkpt lat="43.840967" lon="12.5380327"><ele>573.0</ele><time>2026-04-19T10:56:36.86Z</time></trkpt><trkpt lat="43.8409481" lon="12.5377425"><ele>576.3333333333334</ele><time>2026-04-19T10:56:37.862Z</time></trkpt><trkpt lat="43.8409247" lon="12.5374849"><ele>579.6666666666667</ele><time>2026-04-19T10:56:38.861Z</time></trkpt><trkpt lat="43.8408941" lon="12.5372517"><ele>583.0</ele><time>2026-04-19T10:56:39.859Z</time></trkpt><trkpt lat="43.8408569" lon="12.5370379"><ele>583.0</ele><time>2026-04-19T10:56:40.877Z</time></trkpt><trkpt lat="43.8408154" lon="12.5368446"><ele>583.0</ele><time>2026-04-19T10:56:41.863Z</time></trkpt><trkpt lat="43.8407706" lon="12.5366566"><ele>583.0</ele><time>2026-04-19T10:56:42.856Z</time></trkpt><trkpt lat="43.8407263" lon="12.5364659"><ele>583.0</ele><time>2026-04-19T10:56:43.858Z</time></trkpt><trkpt lat="43.8406886" lon="12.5362799"><ele>580.5</ele><time>2026-04-19T10:56:44.857Z</time></trkpt><trkpt lat="43.8406656" lon="12.536104"><ele>578.0</ele><time>2026-04-19T10:56:45.859Z</time></trkpt><trkpt lat="43.8406642" lon="12.535936"><ele>575.5</ele><time>2026-04-19T10:56:46.86Z</time></trkpt><trkpt lat="43.8406742" lon="12.5357689"><ele>573.0</ele><time>2026-04-19T10:56:47.861Z</time></trkpt><trkpt lat="43.8407197" lon="12.535615"><ele>573.0</ele><time>2026-04-19T10:56:48.856Z</time></trkpt><trkpt lat="43.840795" lon="12.5354634"><ele>573.0</ele><time>2026-04-19T10:56:49.856Z</time></trkpt><trkpt lat="43.840892" lon="12.5353226"><ele>573.0</ele><time>2026-04-19T10:56:50.861Z</time></trkpt><trkpt lat="43.841003" lon="12.5351939"><ele>573.0</ele><time>2026-04-19T10:56:51.861Z</time></trkpt><trkpt lat="43.8411235" lon="12.5350675"><ele>571.25</ele><time>2026-04-19T10:56:52.863Z</time></trkpt><trkpt lat="43.8412494" lon="12.5349477"><ele>569.5</ele><time>2026-04-19T10:56:53.861Z</time></trkpt><trkpt lat="43.8413679" lon="12.5348319"><ele>567.75</ele><time>2026-04-19T10:56:54.857Z</time></trkpt><trkpt lat="43.8414825" lon="12.5347186"><ele>566.0</ele><time>2026-04-19T10:56:55.857Z</time></trkpt><trkpt lat="43.8415945" lon="12.5346096"><ele>565.25</ele><time>2026-04-19T10:56:56.855Z</time></trkpt><trkpt lat="43.8417058" lon="12.5345037"><ele>564.5</ele><time>2026-04-19T10:56:57.861Z</time></trkpt><trkpt lat="43.8418166" lon="12.5344002"><ele>563.75</ele><time>2026-04-19T10:56:58.86Z</time></trkpt><trkpt lat="43.8419241" lon="12.5342956"><ele>563.0</ele><time>2026-04-19T10:56:59.858Z</time></trkpt><trkpt lat="43.8420281" lon="12.5341876"><ele>564.25</ele><time>2026-04-19T10:57:00.875Z</time></trkpt><trkpt lat="43.8421276" lon="12.5340765"><ele>565.5</ele><time>2026-04-19T10:57:01.86Z</time></trkpt><trkpt lat="43.8422255" lon="12.5339582"><ele>566.75</ele><time>2026-04-19T10:57:02.856Z</time></trkpt><trkpt lat="43.8423213" lon="12.5338284"><ele>568.0</ele><time>2026-04-19T10:57:03.859Z</time></trkpt><trkpt lat="43.842416" lon="12.5336887"><ele>568.0</ele><time>2026-04-19T10:57:04.859Z</time></trkpt><trkpt lat="43.8425073" lon="12.5335386"><ele>568.0</ele><time>2026-04-19T10:57:05.856Z</time></trkpt><trkpt lat="43.8425942" lon="12.5333766"><ele>568.0</ele><time>2026-04-19T10:57:06.861Z</time></trkpt><trkpt lat="43.8426698" lon="12.533208"><ele>568.0</ele><time>2026-04-19T10:57:07.859Z</time></trkpt><trkpt lat="43.8427325" lon="12.533039"><ele>570.25</ele><time>2026-04-19T10:57:08.854Z</time></trkpt><trkpt lat="43.8427915" lon="12.5328732"><ele>572.5</ele><time>2026-04-19T10:57:09.86Z</time></trkpt><trkpt lat="43.8428534" lon="12.5327088"><ele>574.75</ele><time>2026-04-19T10:57:10.858Z</time></trkpt><trkpt lat="43.8429256" lon="12.532543"><ele>577.0</ele><time>2026-04-19T10:57:11.873Z</time></trkpt><trkpt lat="43.8430095" lon="12.5323855"><ele>577.0</ele><time>2026-04-19T10:57:12.86Z</time></trkpt><trkpt lat="43.8431054" lon="12.5322377"><ele>577.0</ele><time>2026-04-19T10:57:13.857Z</time></trkpt><trkpt lat="43.8432101" lon="12.5320929"><ele>577.0</ele><time>2026-04-19T10:57:14.86Z</time></trkpt><trkpt lat="43.8433221" lon="12.5319478"><ele>577.0</ele><time>2026-04-19T10:57:15.859Z</time></trkpt><trkpt lat="43.8434388" lon="12.5317986"><ele>570.0</ele><time>2026-04-19T10:57:16.871Z</time></trkpt><trkpt lat="43.8435541" lon="12.5316479"><ele>563.0</ele><time>2026-04-19T10:57:17.857Z</time></trkpt><trkpt lat="43.8436698" lon="12.5314958"><ele>556.0</ele><time>2026-04-19T10:57:18.853Z</time></trkpt><trkpt lat="43.8437835" lon="12.5313464"><ele>552.25</ele><time>2026-04-19T10:57:19.86Z</time></trkpt><trkpt lat="43.843895" lon="12.5312036"><ele>548.5</ele><time>2026-04-19T10:57:20.859Z</time></trkpt><trkpt lat="43.8440076" lon="12.5310726"><ele>544.75</ele><time>2026-04-19T10:57:21.876Z</time></trkpt><trkpt lat="43.8441227" lon="12.5309605"><ele>541.0</ele><time>2026-04-19T10:57:22.855Z</time></trkpt><trkpt lat="43.8442486" lon="12.5308626"><ele>540.5</ele><time>2026-04-19T10:57:23.861Z</time></trkpt><trkpt lat="43.8443842" lon="12.5307831"><ele>540.0</ele><time>2026-04-19T10:57:24.857Z</time></trkpt><trkpt lat="43.844526" lon="12.5307181"><ele>539.5</ele><time>2026-04-19T10:57:25.859Z</time></trkpt><trkpt lat="43.8446713" lon="12.5306601"><ele>539.0</ele><time>2026-04-19T10:57:26.857Z</time></trkpt><trkpt lat="43.844821" lon="12.5306047"><ele>539.0</ele><time>2026-04-19T10:57:27.858Z</time></trkpt><trkpt lat="43.8449753" lon="12.5305488"><ele>539.0</ele><time>2026-04-19T10:57:28.86Z</time></trkpt><trkpt lat="43.8451338" lon="12.5304904"><ele>539.0</ele><time>2026-04-19T10:57:29.854Z</time></trkpt><trkpt lat="43.8452965" lon="12.5304267"><ele>538.6666666666666</ele><time>2026-04-19T10:57:30.858Z</time></trkpt><trkpt lat="43.8454621" lon="12.5303629"><ele>538.3333333333334</ele><time>2026-04-19T10:57:31.857Z</time></trkpt><trkpt lat="43.8456294" lon="12.5303007"><ele>538.0</ele><time>2026-04-19T10:57:32.86Z</time></trkpt><trkpt lat="43.8457962" lon="12.5302397"><ele>535.3333333333334</ele><time>2026-04-19T10:57:33.853Z</time></trkpt><trkpt lat="43.8459647" lon="12.5301761"><ele>532.6666666666666</ele><time>2026-04-19T10:57:34.876Z</time></trkpt><trkpt lat="43.8461292" lon="12.5301127"><ele>530.0</ele><time>2026-04-19T10:57:35.859Z</time></trkpt><trkpt lat="43.8462944" lon="12.5300485"><ele>530.0</ele><time>2026-04-19T10:57:36.858Z</time></trkpt><trkpt lat="43.8464569" lon="12.5299854"><ele>530.0</ele><time>2026-04-19T10:57:37.859Z</time></trkpt><trkpt lat="43.8466133" lon="12.5299233"><ele>530.0</ele><time>2026-04-19T10:57:38.858Z</time></trkpt><trkpt lat="43.8467621" lon="12.5298614"><ele>528.25</ele><time>2026-04-19T10:57:39.859Z</time></trkpt><trkpt lat="43.8469014" lon="12.5297987"><ele>526.5</ele><time>2026-04-19T10:57:40.873Z</time></trkpt><trkpt lat="43.8470282" lon="12.5297269"><ele>524.75</ele><time>2026-04-19T10:57:41.857Z</time></trkpt><trkpt lat="43.8471452" lon="12.52964"><ele>523.0</ele><time>2026-04-19T10:57:42.858Z</time></trkpt><trkpt lat="43.8472486" lon="12.5295359"><ele>523.0</ele><time>2026-04-19T10:57:43.857Z</time></trkpt><trkpt lat="43.8473375" lon="12.5294128"><ele>523.0</ele><time>2026-04-19T10:57:44.86Z</time></trkpt><trkpt lat="43.8474091" lon="12.5292653"><ele>523.0</ele><time>2026-04-19T10:57:45.858Z</time></trkpt><trkpt lat="43.8474666" lon="12.5290992"><ele>523.0</ele><time>2026-04-19T10:57:46.859Z</time></trkpt><trkpt lat="43.847518" lon="12.5289198"><ele>523.0</ele><time>2026-04-19T10:57:47.865Z</time></trkpt><trkpt lat="43.8475697" lon="12.5287336"><ele>523.0</ele><time>2026-04-19T10:57:48.856Z</time></trkpt><trkpt lat="43.8476216" lon="12.5285472"><ele>523.0</ele><time>2026-04-19T10:57:49.862Z</time></trkpt><trkpt lat="43.8476643" lon="12.5283663"><ele>523.0</ele><time>2026-04-19T10:57:50.854Z</time></trkpt><trkpt lat="43.847691" lon="12.5281863"><ele>517.5</ele><time>2026-04-19T10:57:51.856Z</time></trkpt><trkpt lat="43.8476977" lon="12.528006"><ele>512.0</ele><time>2026-04-19T10:57:52.853Z</time></trkpt><trkpt lat="43.8476875" lon="12.5278211"><ele>506.5</ele><time>2026-04-19T10:57:53.859Z</time></trkpt><trkpt lat="43.8476665" lon="12.5276359"><ele>501.0</ele><time>2026-04-19T10:57:54.866Z</time></trkpt><trkpt lat="43.8476402" lon="12.5274572"><ele>502.5</ele><time>2026-04-19T10:57:55.853Z</time></trkpt><trkpt lat="43.8476123" lon="12.5272824"><ele>504.0</ele><time>2026-04-19T10:57:56.863Z</time></trkpt><trkpt lat="43.8475922" lon="12.5271161"><ele>505.5</ele><time>2026-04-19T10:57:57.854Z</time></trkpt><trkpt lat="43.8475896" lon="12.5269553"><ele>507.0</ele><time>2026-04-19T10:57:58.859Z</time></trkpt><trkpt lat="43.8476081" lon="12.5268037"><ele>506.20000000000005</ele><time>2026-04-19T10:57:59.86Z</time></trkpt><trkpt lat="43.8476466" lon="12.5266648"><ele>505.40000000000003</ele><time>2026-04-19T10:58:00.866Z</time></trkpt><trkpt lat="43.8477093" lon="12.5265459"><ele>504.59999999999997</ele><time>2026-04-19T10:58:01.86Z</time></trkpt><trkpt lat="43.8477929" lon="12.5264468"><ele>503.79999999999995</ele><time>2026-04-19T10:58:02.861Z</time></trkpt><trkpt lat="43.8478932" lon="12.5263693"><ele>503.0</ele><time>2026-04-19T10:58:03.861Z</time></trkpt><trkpt lat="43.8480048" lon="12.5263158"><ele>503.0</ele><time>2026-04-19T10:58:04.86Z</time></trkpt><trkpt lat="43.848122" lon="12.5262943"><ele>503.0</ele><time>2026-04-19T10:58:05.859Z</time></trkpt><trkpt lat="43.8482338" lon="12.5263221"><ele>503.0</ele><time>2026-04-19T10:58:06.852Z</time></trkpt><trkpt lat="43.8483388" lon="12.5263778"><ele>503.0</ele><time>2026-04-19T10:58:07.879Z</time></trkpt><trkpt lat="43.8484424" lon="12.526457"><ele>502.0</ele><time>2026-04-19T10:58:08.858Z</time></trkpt><trkpt lat="43.8485496" lon="12.5265573"><ele>501.0</ele><time>2026-04-19T10:58:09.86Z</time></trkpt><trkpt lat="43.8486601" lon="12.5266715"><ele>500.0</ele><time>2026-04-19T10:58:10.857Z</time></trkpt><trkpt lat="43.8487735" lon="12.5267955"><ele>499.0</ele><time>2026-04-19T10:58:11.856Z</time></trkpt><trkpt lat="43.8488902" lon="12.5269213"><ele>499.0</ele><time>2026-04-19T10:58:12.858Z</time></trkpt><trkpt lat="43.8490071" lon="12.5270447"><ele>499.0</ele><time>2026-04-19T10:58:13.854Z</time></trkpt><trkpt lat="43.8491238" lon="12.5271691"><ele>499.0</ele><time>2026-04-19T10:58:14.875Z</time></trkpt><trkpt lat="43.8492372" lon="12.527294"><ele>499.0</ele><time>2026-04-19T10:58:15.861Z</time></trkpt><trkpt lat="43.849352" lon="12.5274208"><ele>495.75</ele><time>2026-04-19T10:58:16.858Z</time></trkpt><trkpt lat="43.8494677" lon="12.5275488"><ele>492.5</ele><time>2026-04-19T10:58:17.857Z</time></trkpt><trkpt lat="43.8495807" lon="12.527675"><ele>489.25</ele><time>2026-04-19T10:58:18.855Z</time></trkpt><trkpt lat="43.8496905" lon="12.527795"><ele>486.0</ele><time>2026-04-19T10:58:19.855Z</time></trkpt><trkpt lat="43.8497946" lon="12.52791"><ele>484.25</ele><time>2026-04-19T10:58:20.855Z</time></trkpt><trkpt lat="43.8498981" lon="12.5280145"><ele>482.5</ele><time>2026-04-19T10:58:21.858Z</time></trkpt><trkpt lat="43.8500092" lon="12.5280991"><ele>480.75</ele><time>2026-04-19T10:58:22.857Z</time></trkpt><trkpt lat="43.8501261" lon="12.5281569"><ele>479.0</ele><time>2026-04-19T10:58:23.855Z</time></trkpt><trkpt lat="43.8502429" lon="12.5281913"><ele>477.6</ele><time>2026-04-19T10:58:24.879Z</time></trkpt><trkpt lat="43.8503523" lon="12.5281929"><ele>476.2</ele><time>2026-04-19T10:58:25.854Z</time></trkpt><trkpt lat="43.8504583" lon="12.5281862"><ele>474.80000000000007</ele><time>2026-04-19T10:58:26.854Z</time></trkpt><trkpt lat="43.8505534" lon="12.5281291"><ele>473.40000000000003</ele><time>2026-04-19T10:58:27.855Z</time></trkpt><trkpt lat="43.85062" lon="12.5280365"><ele>472.0</ele><time>2026-04-19T10:58:28.855Z</time></trkpt><trkpt lat="43.850656" lon="12.5279148"><ele>471.20000000000005</ele><time>2026-04-19T10:58:29.856Z</time></trkpt><trkpt lat="43.8506572" lon="12.5277787"><ele>470.40000000000003</ele><time>2026-04-19T10:58:30.854Z</time></trkpt><trkpt lat="43.8506342" lon="12.5276318"><ele>469.59999999999997</ele><time>2026-04-19T10:58:31.857Z</time></trkpt><trkpt lat="43.8505934" lon="12.5274832"><ele>468.79999999999995</ele><time>2026-04-19T10:58:32.856Z</time></trkpt><trkpt lat="43.8505408" lon="12.5273281"><ele>468.0</ele><time>2026-04-19T10:58:33.888Z</time></trkpt><trkpt lat="43.8504859" lon="12.5271736"><ele>466.75</ele><time>2026-04-19T10:58:34.859Z</time></trkpt><trkpt lat="43.850423" lon="12.5270138"><ele>465.5</ele><time>2026-04-19T10:58:35.856Z</time></trkpt><trkpt lat="43.8503556" lon="12.5268558"><ele>464.25</ele><time>2026-04-19T10:58:36.853Z</time></trkpt><trkpt lat="43.8502905" lon="12.5266923"><ele>463.0</ele><time>2026-04-19T10:58:37.857Z</time></trkpt><trkpt lat="43.8502413" lon="12.5265223"><ele>463.0</ele><time>2026-04-19T10:58:38.852Z</time></trkpt><trkpt lat="43.8502096" lon="12.5263547"><ele>462.99999999999994</ele><time>2026-04-19T10:58:39.853Z</time></trkpt><trkpt lat="43.8501852" lon="12.5261956"><ele>462.99999999999994</ele><time>2026-04-19T10:58:40.855Z</time></trkpt><trkpt lat="43.8501601" lon="12.5260533"><ele>463.0</ele><time>2026-04-19T10:58:41.858Z</time></trkpt><trkpt lat="43.8501365" lon="12.5259441"><ele>463.0</ele><time>2026-04-19T10:58:42.855Z</time></trkpt><trkpt lat="43.8501006" lon="12.525815"><ele>462.83333333333337</ele><time>2026-04-19T10:58:44.857Z</time></trkpt><trkpt lat="43.8501316" lon="12.5257312"><ele>462.6666666666667</ele><time>2026-04-19T10:58:47.869Z</time></trkpt><trkpt lat="43.8502009" lon="12.5257394"><ele>462.5</ele><time>2026-04-19T10:58:49.857Z</time></trkpt><trkpt lat="43.8503131" lon="12.5258089"><ele>462.33333333333337</ele><time>2026-04-19T10:58:51.859Z</time></trkpt><trkpt lat="43.8503876" lon="12.525868"><ele>462.1666666666667</ele><time>2026-04-19T10:58:52.877Z</time></trkpt><trkpt lat="43.850471" lon="12.5259206"><ele>462.0</ele><time>2026-04-19T10:58:53.856Z</time></trkpt><trkpt lat="43.8505511" lon="12.5259551"><ele>462.0</ele><time>2026-04-19T10:58:54.856Z</time></trkpt><trkpt lat="43.8506359" lon="12.5259528"><ele>462.00000000000006</ele><time>2026-04-19T10:58:55.855Z</time></trkpt><trkpt lat="43.8507265" lon="12.5259238"><ele>462.00000000000006</ele><time>2026-04-19T10:58:56.851Z</time></trkpt><trkpt lat="43.8508266" lon="12.5258949"><ele>462.0</ele><time>2026-04-19T10:58:57.874Z</time></trkpt><trkpt lat="43.8509383" lon="12.5258601"><ele>462.0</ele><time>2026-04-19T10:58:58.858Z</time></trkpt><trkpt lat="43.8510539" lon="12.5258248"><ele>460.0</ele><time>2026-04-19T10:58:59.851Z</time></trkpt><trkpt lat="43.8511616" lon="12.5257924"><ele>458.00000000000006</ele><time>2026-04-19T10:59:00.856Z</time></trkpt><trkpt lat="43.8512648" lon="12.5257644"><ele>456.00000000000006</ele><time>2026-04-19T10:59:01.854Z</time></trkpt><trkpt lat="43.8513679" lon="12.5257479"><ele>454.0</ele><time>2026-04-19T10:59:02.858Z</time></trkpt><trkpt lat="43.8514847" lon="12.5257491"><ele>452.0</ele><time>2026-04-19T10:59:03.862Z</time></trkpt><trkpt lat="43.8516089" lon="12.52576"><ele>452.0</ele><time>2026-04-19T10:59:04.858Z</time></trkpt><trkpt lat="43.8517282" lon="12.5257782"><ele>452.0</ele><time>2026-04-19T10:59:05.857Z</time></trkpt><trkpt lat="43.8518419" lon="12.5258077"><ele>452.0</ele><time>2026-04-19T10:59:06.861Z</time></trkpt><trkpt lat="43.8519517" lon="12.5258563"><ele>452.0</ele><time>2026-04-19T10:59:07.856Z</time></trkpt><trkpt lat="43.8520702" lon="12.5259171"><ele>451.40000000000003</ele><time>2026-04-19T10:59:08.881Z</time></trkpt><trkpt lat="43.8521837" lon="12.5259952"><ele>450.80000000000007</ele><time>2026-04-19T10:59:09.856Z</time></trkpt><trkpt lat="43.852288" lon="12.5260681"><ele>450.2</ele><time>2026-04-19T10:59:10.851Z</time></trkpt><trkpt lat="43.8523814" lon="12.526123"><ele>449.6</ele><time>2026-04-19T10:59:11.86Z</time></trkpt><trkpt lat="43.8524635" lon="12.5261641"><ele>449.0</ele><time>2026-04-19T10:59:12.856Z</time></trkpt><trkpt lat="43.8525384" lon="12.5261995"><ele>447.4</ele><time>2026-04-19T10:59:13.873Z</time></trkpt><trkpt lat="43.8526142" lon="12.5262358"><ele>445.79999999999995</ele><time>2026-04-19T10:59:14.855Z</time></trkpt><trkpt lat="43.8527011" lon="12.5262762"><ele>444.20000000000005</ele><time>2026-04-19T10:59:15.855Z</time></trkpt><trkpt lat="43.8528006" lon="12.5263185"><ele>442.6</ele><time>2026-04-19T10:59:16.853Z</time></trkpt><trkpt lat="43.8529062" lon="12.5263651"><ele>441.0</ele><time>2026-04-19T10:59:17.859Z</time></trkpt><trkpt lat="43.853015" lon="12.5264126"><ele>439.20000000000005</ele><time>2026-04-19T10:59:18.861Z</time></trkpt><trkpt lat="43.8531219" lon="12.5264598"><ele>437.40000000000003</ele><time>2026-04-19T10:59:19.859Z</time></trkpt><trkpt lat="43.8532226" lon="12.5265062"><ele>435.6</ele><time>2026-04-19T10:59:20.882Z</time></trkpt><trkpt lat="43.8533122" lon="12.5265517"><ele>433.8</ele><time>2026-04-19T10:59:21.858Z</time></trkpt><trkpt lat="43.8533944" lon="12.5266022"><ele>432.0</ele><time>2026-04-19T10:59:22.854Z</time></trkpt><trkpt lat="43.8534667" lon="12.5266618"><ele>427.8</ele><time>2026-04-19T10:59:23.86Z</time></trkpt><trkpt lat="43.8535293" lon="12.5267306"><ele>423.6</ele><time>2026-04-19T10:59:24.856Z</time></trkpt><trkpt lat="43.8535885" lon="12.5268141"><ele>419.40000000000003</ele><time>2026-04-19T10:59:25.877Z</time></trkpt><trkpt lat="43.8536516" lon="12.5269171"><ele>415.20000000000005</ele><time>2026-04-19T10:59:26.863Z</time></trkpt><trkpt lat="43.8537147" lon="12.5270289"><ele>411.0</ele><time>2026-04-19T10:59:27.858Z</time></trkpt><trkpt lat="43.853775" lon="12.5271331"><ele>410.6666666666667</ele><time>2026-04-19T10:59:28.859Z</time></trkpt><trkpt lat="43.8538303" lon="12.5272198"><ele>410.33333333333337</ele><time>2026-04-19T10:59:29.858Z</time></trkpt><trkpt lat="43.8538848" lon="12.5272978"><ele>410.0</ele><time>2026-04-19T10:59:30.86Z</time></trkpt><trkpt lat="43.8539388" lon="12.527365"><ele>409.6666666666667</ele><time>2026-04-19T10:59:31.859Z</time></trkpt><trkpt lat="43.8539938" lon="12.5274306"><ele>409.33333333333337</ele><time>2026-04-19T10:59:32.883Z</time></trkpt><trkpt lat="43.8540545" lon="12.5274963"><ele>409.0</ele><time>2026-04-19T10:59:33.853Z</time></trkpt><trkpt lat="43.8541208" lon="12.5275626"><ele>409.00000000000006</ele><time>2026-04-19T10:59:34.857Z</time></trkpt><trkpt lat="43.8541902" lon="12.5276257"><ele>409.0</ele><time>2026-04-19T10:59:35.857Z</time></trkpt><trkpt lat="43.8542563" lon="12.527687"><ele>409.0</ele><time>2026-04-19T10:59:36.858Z</time></trkpt><trkpt lat="43.8543223" lon="12.5277506"><ele>409.0</ele><time>2026-04-19T10:59:37.856Z</time></trkpt><trkpt lat="43.8543911" lon="12.5278091"><ele>409.00000000000006</ele><time>2026-04-19T10:59:38.896Z</time></trkpt><trkpt lat="43.8544592" lon="12.5278667"><ele>409.0</ele><time>2026-04-19T10:59:39.85Z</time></trkpt><trkpt lat="43.8545288" lon="12.5279238"><ele>406.00000000000006</ele><time>2026-04-19T10:59:40.85Z</time></trkpt><trkpt lat="43.8545986" lon="12.5279814"><ele>403.0</ele><time>2026-04-19T10:59:41.858Z</time></trkpt><trkpt lat="43.8546675" lon="12.5280393"><ele>400.0</ele><time>2026-04-19T10:59:42.85Z</time></trkpt><trkpt lat="43.8547364" lon="12.5280977"><ele>397.0</ele><time>2026-04-19T10:59:43.863Z</time></trkpt><trkpt lat="43.8548023" lon="12.5281547"><ele>394.00000000000006</ele><time>2026-04-19T10:59:44.85Z</time></trkpt><trkpt lat="43.8548677" lon="12.5282091"><ele>391.0</ele><time>2026-04-19T10:59:45.85Z</time></trkpt><trkpt lat="43.8549301" lon="12.5282566"><ele>391.0</ele><time>2026-04-19T10:59:46.85Z</time></trkpt><trkpt lat="43.855031" lon="12.5283373"><ele>391.0</ele><time>2026-04-19T10:59:48.858Z</time></trkpt><trkpt lat="43.8551146" lon="12.528421"><ele>391.0</ele><time>2026-04-19T10:59:50.854Z</time></trkpt><trkpt lat="43.855204" lon="12.5285185"><ele>391.0</ele><time>2026-04-19T10:59:52.855Z</time></trkpt><trkpt lat="43.8552823" lon="12.5286084"><ele>391.0</ele><time>2026-04-19T10:59:54.854Z</time></trkpt><trkpt lat="43.8553192" lon="12.5287038"><ele>386.0</ele><time>2026-04-19T10:59:57.869Z</time></trkpt><trkpt lat="43.8553676" lon="12.528854"><ele>381.0</ele><time>2026-04-19T11:00:00.851Z</time></trkpt><trkpt lat="43.8554227" lon="12.528972"><ele>376.0</ele><time>2026-04-19T11:00:02.876Z</time></trkpt><trkpt lat="43.8554973" lon="12.5290751"><ele>371.0</ele><time>2026-04-19T11:00:04.855Z</time></trkpt><trkpt lat="43.855589" lon="12.5291809"><ele>366.0</ele><time>2026-04-19T11:00:06.853Z</time></trkpt><trkpt lat="43.8556845" lon="12.5292942"><ele>366.0</ele><time>2026-04-19T11:00:08.853Z</time></trkpt><trkpt lat="43.8557316" lon="12.5293615"><ele>366.0</ele><time>2026-04-19T11:00:09.849Z</time></trkpt><trkpt lat="43.8557814" lon="12.5294384"><ele>366.0</ele><time>2026-04-19T11:00:10.855Z</time></trkpt><trkpt lat="43.8558267" lon="12.5295161"><ele>366.0</ele><time>2026-04-19T11:00:11.852Z</time></trkpt><trkpt lat="43.8558635" lon="12.5295895"><ele>366.0</ele><time>2026-04-19T11:00:12.851Z</time></trkpt><trkpt lat="43.855928" lon="12.5297201"><ele>366.0</ele><time>2026-04-19T11:00:14.851Z</time></trkpt><trkpt lat="43.8559696" lon="12.5298316"><ele>360.8</ele><time>2026-04-19T11:00:16.851Z</time></trkpt><trkpt lat="43.8559964" lon="12.5299542"><ele>355.6</ele><time>2026-04-19T11:00:20.852Z</time></trkpt><trkpt lat="43.8560332" lon="12.5301283"><ele>350.4</ele><time>2026-04-19T11:00:24.864Z</time></trkpt><trkpt lat="43.8560769" lon="12.5302585"><ele>345.2</ele><time>2026-04-19T11:00:26.854Z</time></trkpt><trkpt lat="43.8561392" lon="12.5304047"><ele>340.0</ele><time>2026-04-19T11:00:28.855Z</time></trkpt><trkpt lat="43.8562061" lon="12.5305385"><ele>339.3333333333333</ele><time>2026-04-19T11:00:30.855Z</time></trkpt><trkpt lat="43.8562876" lon="12.5306765"><ele>338.66666666666663</ele><time>2026-04-19T11:00:32.85Z</time></trkpt><trkpt lat="43.8563307" lon="12.5307447"><ele>338.0</ele><time>2026-04-19T11:00:33.853Z</time></trkpt><trkpt lat="43.8563993" lon="12.5308578"><ele>337.3333333333333</ele><time>2026-04-19T11:00:35.865Z</time></trkpt><trkpt lat="43.8564337" lon="12.5309402"><ele>336.6666666666667</ele><time>2026-04-19T11:00:38.863Z</time></trkpt><trkpt lat="43.8563938" lon="12.5310366"><ele>336.0</ele><time>2026-04-19T11:00:47.763Z</time></trkpt><trkpt lat="43.8563333" lon="12.5310634"><ele>336.0</ele><time>2026-04-19T11:00:51.947Z</time></trkpt><trkpt lat="43.8562811" lon="12.5311163"><ele>336.0</ele><time>2026-04-19T11:00:57.837Z</time></trkpt><trkpt lat="43.8563395" lon="12.5311999"><ele>336.0</ele><time>2026-04-19T11:01:35.856Z</time></trkpt><trkpt lat="43.8563239" lon="12.5313004"><ele>336.0</ele><time>2026-04-19T11:01:39.893Z</time></trkpt><trkpt lat="43.8562909" lon="12.5313906"><ele>336.0</ele><time>2026-04-19T11:01:42.933Z</time></trkpt><trkpt lat="43.8563997" lon="12.531455"><ele>336.0</ele><time>2026-04-19T11:01:44.826Z</time></trkpt><trkpt lat="43.8564648" lon="12.5314806"><ele>335.6</ele><time>2026-04-19T11:01:45.855Z</time></trkpt><trkpt lat="43.8565349" lon="12.5315693"><ele>335.20000000000005</ele><time>2026-04-19T11:02:31.852Z</time></trkpt><trkpt lat="43.8566134" lon="12.5316886"><ele>334.79999999999995</ele><time>2026-04-19T11:02:34.887Z</time></trkpt><trkpt lat="43.8566541" lon="12.5317641"><ele>334.4</ele><time>2026-04-19T11:02:35.851Z</time></trkpt><trkpt lat="43.8566471" lon="12.5319066"><ele>334.0</ele><time>2026-04-19T11:02:38.848Z</time></trkpt><trkpt lat="43.8566068" lon="12.5320323"><ele>334.16666666666663</ele><time>2026-04-19T11:02:39.851Z</time></trkpt><trkpt lat="43.8565673" lon="12.5321395"><ele>334.3333333333333</ele><time>2026-04-19T11:02:40.847Z</time></trkpt><trkpt lat="43.8565395" lon="12.5322205"><ele>334.5</ele><time>2026-04-19T11:02:41.846Z</time></trkpt><trkpt lat="43.8565118" lon="12.5323381"><ele>334.6666666666667</ele><time>2026-04-19T11:02:43.852Z</time></trkpt><trkpt lat="43.8565058" lon="12.5324549"><ele>334.83333333333337</ele><time>2026-04-19T11:02:46.845Z</time></trkpt><trkpt lat="43.8565118" lon="12.5325561"><ele>335.0</ele><time>2026-04-19T11:02:49.868Z</time></trkpt><trkpt lat="43.8565143" lon="12.532674"><ele>334.99999999999994</ele><time>2026-04-19T11:02:52.865Z</time></trkpt><trkpt lat="43.8565375" lon="12.532762"><ele>335.0</ele><time>2026-04-19T11:02:54.918Z</time></trkpt><trkpt lat="43.8565815" lon="12.5328368"><ele>335.0</ele><time>2026-04-19T11:02:56.865Z</time></trkpt><trkpt lat="43.856655" lon="12.5328474"><ele>335.0</ele><time>2026-04-19T11:02:58.887Z</time></trkpt><trkpt lat="43.8567237" lon="12.5328508"><ele>335.0</ele><time>2026-04-19T11:02:59.852Z</time></trkpt><trkpt lat="43.8567881" lon="12.5328779"><ele>334.99999999999994</ele><time>2026-04-19T11:03:00.857Z</time></trkpt><trkpt lat="43.8568496" lon="12.5329138"><ele>335.0</ele><time>2026-04-19T11:03:01.855Z</time></trkpt><trkpt lat="43.8569088" lon="12.5329515"><ele>337.0</ele><time>2026-04-19T11:03:02.852Z</time></trkpt><trkpt lat="43.8569667" lon="12.5329877"><ele>339.0</ele><time>2026-04-19T11:03:03.851Z</time></trkpt><trkpt lat="43.8570524" lon="12.5330792"><ele>341.0</ele><time>2026-04-19T11:03:05.854Z</time></trkpt><trkpt lat="43.8570375" lon="12.5331894"><ele>343.0</ele><time>2026-04-19T11:03:07.854Z</time></trkpt><trkpt lat="43.856939" lon="12.5333123"><ele>345.0</ele><time>2026-04-19T11:03:09.852Z</time></trkpt><trkpt lat="43.856879" lon="12.5333899"><ele>345.0</ele><time>2026-04-19T11:03:10.853Z</time></trkpt><trkpt lat="43.8568209" lon="12.5334806"><ele>345.0</ele><time>2026-04-19T11:03:11.851Z</time></trkpt><trkpt lat="43.8567653" lon="12.5335723"><ele>345.0</ele><time>2026-04-19T11:03:12.852Z</time></trkpt><trkpt lat="43.856719" lon="12.5336492"><ele>345.0</ele><time>2026-04-19T11:03:13.85Z</time></trkpt><trkpt lat="43.8566792" lon="12.533717"><ele>345.0</ele><time>2026-04-19T11:03:14.853Z</time></trkpt><trkpt lat="43.8566296" lon="12.5337972"><ele>345.0</ele><time>2026-04-19T11:03:15.854Z</time></trkpt><trkpt lat="43.8565782" lon="12.5338836"><ele>344.5</ele><time>2026-04-19T11:03:16.854Z</time></trkpt><trkpt lat="43.8565285" lon="12.5339628"><ele>344.0</ele><time>2026-04-19T11:03:17.856Z</time></trkpt><trkpt lat="43.856478" lon="12.5340398"><ele>343.5</ele><time>2026-04-19T11:03:18.852Z</time></trkpt><trkpt lat="43.8564324" lon="12.53411"><ele>343.0</ele><time>2026-04-19T11:03:19.887Z</time></trkpt><trkpt lat="43.8563627" lon="12.5342273"><ele>342.5</ele><time>2026-04-19T11:03:21.856Z</time></trkpt><trkpt lat="43.8563145" lon="12.5343026"><ele>342.0</ele><time>2026-04-19T11:03:22.849Z</time></trkpt><trkpt lat="43.8562596" lon="12.5343874"><ele>342.0</ele><time>2026-04-19T11:03:23.856Z</time></trkpt><trkpt lat="43.8562043" lon="12.5344593"><ele>342.0</ele><time>2026-04-19T11:03:24.853Z</time></trkpt><trkpt lat="43.8561553" lon="12.5345275"><ele>342.0</ele><time>2026-04-19T11:03:25.851Z</time></trkpt><trkpt lat="43.8561061" lon="12.5346042"><ele>342.0</ele><time>2026-04-19T11:03:26.884Z</time></trkpt><trkpt lat="43.8560537" lon="12.5346883"><ele>342.0</ele><time>2026-04-19T11:03:27.851Z</time></trkpt><trkpt lat="43.8560052" lon="12.5347795"><ele>342.0</ele><time>2026-04-19T11:03:28.853Z</time></trkpt><trkpt lat="43.8559617" lon="12.5348741"><ele>342.8</ele><time>2026-04-19T11:03:29.856Z</time></trkpt><trkpt lat="43.8559247" lon="12.5349592"><ele>343.6</ele><time>2026-04-19T11:03:30.856Z</time></trkpt><trkpt lat="43.8558881" lon="12.5351004"><ele>344.40000000000003</ele><time>2026-04-19T11:03:32.871Z</time></trkpt><trkpt lat="43.8559171" lon="12.5352134"><ele>345.20000000000005</ele><time>2026-04-19T11:03:35.863Z</time></trkpt><trkpt lat="43.8559681" lon="12.5353513"><ele>346.0</ele><time>2026-04-19T11:03:37.851Z</time></trkpt><trkpt lat="43.8560097" lon="12.5354585"><ele>347.75</ele><time>2026-04-19T11:03:38.878Z</time></trkpt><trkpt lat="43.8560416" lon="12.5355991"><ele>349.5</ele><time>2026-04-19T11:03:39.853Z</time></trkpt><trkpt lat="43.8560684" lon="12.53577"><ele>351.25</ele><time>2026-04-19T11:03:40.846Z</time></trkpt><trkpt lat="43.8560893" lon="12.5359557"><ele>353.0</ele><time>2026-04-19T11:03:41.854Z</time></trkpt><trkpt lat="43.8561075" lon="12.5361316"><ele>351.4</ele><time>2026-04-19T11:03:42.847Z</time></trkpt><trkpt lat="43.8561244" lon="12.536285"><ele>349.79999999999995</ele><time>2026-04-19T11:03:43.87Z</time></trkpt><trkpt lat="43.8561198" lon="12.5363881"><ele>348.2</ele><time>2026-04-19T11:03:44.854Z</time></trkpt><trkpt lat="43.8560515" lon="12.5365094"><ele>346.6</ele><time>2026-04-19T11:03:46.851Z</time></trkpt><trkpt lat="43.8559854" lon="12.5365656"><ele>345.0</ele><time>2026-04-19T11:03:47.854Z</time></trkpt><trkpt lat="43.855917" lon="12.5366354"><ele>345.0</ele><time>2026-04-19T11:03:48.853Z</time></trkpt><trkpt lat="43.8558484" lon="12.536715"><ele>345.0</ele><time>2026-04-19T11:03:49.854Z</time></trkpt><trkpt lat="43.8557766" lon="12.5368011"><ele>345.0</ele><time>2026-04-19T11:03:50.877Z</time></trkpt><trkpt lat="43.8557172" lon="12.5368764"><ele>345.0</ele><time>2026-04-19T11:03:51.854Z</time></trkpt><trkpt lat="43.8556806" lon="12.5369488"><ele>345.0</ele><time>2026-04-19T11:03:52.852Z</time></trkpt><trkpt lat="43.8556474" lon="12.5370254"><ele>345.0</ele><time>2026-04-19T11:03:53.853Z</time></trkpt><trkpt lat="43.8556222" lon="12.5371226"><ele>346.1666666666667</ele><time>2026-04-19T11:03:54.856Z</time></trkpt><trkpt lat="43.8556064" lon="12.5372339"><ele>347.3333333333333</ele><time>2026-04-19T11:03:55.851Z</time></trkpt><trkpt lat="43.8556156" lon="12.5373403"><ele>348.5</ele><time>2026-04-19T11:03:56.857Z</time></trkpt><trkpt lat="43.8556407" lon="12.5374439"><ele>349.66666666666663</ele><time>2026-04-19T11:03:57.869Z</time></trkpt><trkpt lat="43.8556545" lon="12.5375526"><ele>350.8333333333333</ele><time>2026-04-19T11:03:58.854Z</time></trkpt><trkpt lat="43.8556563" lon="12.5376928"><ele>352.0</ele><time>2026-04-19T11:03:59.857Z</time></trkpt><trkpt lat="43.8556523" lon="12.5378517"><ele>353.8</ele><time>2026-04-19T11:04:00.852Z</time></trkpt><trkpt lat="43.8556456" lon="12.5380043"><ele>355.6</ele><time>2026-04-19T11:04:01.848Z</time></trkpt><trkpt lat="43.855632" lon="12.5381688"><ele>357.40000000000003</ele><time>2026-04-19T11:04:02.851Z</time></trkpt><trkpt lat="43.8556211" lon="12.5383283"><ele>359.20000000000005</ele><time>2026-04-19T11:04:03.85Z</time></trkpt><trkpt lat="43.855616" lon="12.5384683"><ele>361.0</ele><time>2026-04-19T11:04:04.874Z</time></trkpt><trkpt lat="43.8556175" lon="12.5386105"><ele>361.4</ele><time>2026-04-19T11:04:05.856Z</time></trkpt><trkpt lat="43.8556343" lon="12.538762"><ele>361.8</ele><time>2026-04-19T11:04:06.855Z</time></trkpt><trkpt lat="43.8556487" lon="12.5389154"><ele>362.2</ele><time>2026-04-19T11:04:07.857Z</time></trkpt><trkpt lat="43.8556542" lon="12.5390584"><ele>362.59999999999997</ele><time>2026-04-19T11:04:08.854Z</time></trkpt><trkpt lat="43.8556441" lon="12.5391755"><ele>363.0</ele><time>2026-04-19T11:04:09.854Z</time></trkpt><trkpt lat="43.8556228" lon="12.5392747"><ele>363.0</ele><time>2026-04-19T11:04:10.858Z</time></trkpt><trkpt lat="43.8556003" lon="12.5393652"><ele>363.0</ele><time>2026-04-19T11:04:11.852Z</time></trkpt><trkpt lat="43.8555941" lon="12.5395173"><ele>363.0</ele><time>2026-04-19T11:04:13.856Z</time></trkpt><trkpt lat="43.8556372" lon="12.5396533"><ele>363.0</ele><time>2026-04-19T11:04:15.856Z</time></trkpt><trkpt lat="43.8556915" lon="12.5395794"><ele>363.0</ele><time>2026-04-19T11:04:30.965Z</time></trkpt><trkpt lat="43.8558188" lon="12.539684"><ele>361.79999999999995</ele><time>2026-04-19T11:04:32.347Z</time></trkpt><trkpt lat="43.8559048" lon="12.5398319"><ele>360.6</ele><time>2026-04-19T11:04:33.85Z</time></trkpt><trkpt lat="43.8559436" lon="12.5399272"><ele>359.4</ele><time>2026-04-19T11:04:34.858Z</time></trkpt><trkpt lat="43.8559725" lon="12.540015"><ele>358.20000000000005</ele><time>2026-04-19T11:04:35.853Z</time></trkpt><trkpt lat="43.8559913" lon="12.5401765"><ele>357.0</ele><time>2026-04-19T11:04:37.856Z</time></trkpt><trkpt lat="43.8559879" lon="12.5402712"><ele>358.20000000000005</ele><time>2026-04-19T11:04:38.851Z</time></trkpt><trkpt lat="43.8559907" lon="12.540388"><ele>359.4</ele><time>2026-04-19T11:04:39.856Z</time></trkpt><trkpt lat="43.8560054" lon="12.5405223"><ele>360.6</ele><time>2026-04-19T11:04:40.855Z</time></trkpt><trkpt lat="43.856025" lon="12.5406668"><ele>361.79999999999995</ele><time>2026-04-19T11:04:41.885Z</time></trkpt><trkpt lat="43.8560419" lon="12.5407932"><ele>363.0</ele><time>2026-04-19T11:04:42.853Z</time></trkpt><trkpt lat="43.8560539" lon="12.5408963"><ele>363.0</ele><time>2026-04-19T11:04:43.856Z</time></trkpt><trkpt lat="43.8560287" lon="12.541052"><ele>363.0</ele><time>2026-04-19T11:04:45.847Z</time></trkpt><trkpt lat="43.8559484" lon="12.5411279"><ele>363.0</ele><time>2026-04-19T11:04:46.85Z</time></trkpt><trkpt lat="43.8558554" lon="12.5412057"><ele>363.0</ele><time>2026-04-19T11:04:47.853Z</time></trkpt><trkpt lat="43.8557581" lon="12.5412773"><ele>363.0</ele><time>2026-04-19T11:04:48.853Z</time></trkpt><trkpt lat="43.8556612" lon="12.5413668"><ele>358.75</ele><time>2026-04-19T11:04:49.865Z</time></trkpt><trkpt lat="43.8555681" lon="12.5414801"><ele>354.5</ele><time>2026-04-19T11:04:50.855Z</time></trkpt><trkpt lat="43.8554947" lon="12.5416424"><ele>350.25</ele><time>2026-04-19T11:04:51.854Z</time></trkpt><trkpt lat="43.8554332" lon="12.5418109"><ele>346.0</ele><time>2026-04-19T11:04:52.848Z</time></trkpt><trkpt lat="43.8553743" lon="12.5419723"><ele>346.25</ele><time>2026-04-19T11:04:53.855Z</time></trkpt><trkpt lat="43.855308" lon="12.5421173"><ele>346.5</ele><time>2026-04-19T11:04:54.847Z</time></trkpt><trkpt lat="43.8552266" lon="12.5422429"><ele>346.75</ele><time>2026-04-19T11:04:55.853Z</time></trkpt><trkpt lat="43.8551155" lon="12.5423396"><ele>347.0</ele><time>2026-04-19T11:04:56.852Z</time></trkpt><trkpt lat="43.8549749" lon="12.5424149"><ele>339.6666666666667</ele><time>2026-04-19T11:04:57.85Z</time></trkpt><trkpt lat="43.8548055" lon="12.5424867"><ele>332.3333333333333</ele><time>2026-04-19T11:04:58.858Z</time></trkpt><trkpt lat="43.8546108" lon="12.5425583"><ele>325.0</ele><time>2026-04-19T11:04:59.855Z</time></trkpt><trkpt lat="43.8544157" lon="12.5426442"><ele>322.3333333333333</ele><time>2026-04-19T11:05:00.872Z</time></trkpt><trkpt lat="43.854235" lon="12.542739"><ele>319.6666666666667</ele><time>2026-04-19T11:05:01.856Z</time></trkpt><trkpt lat="43.8540654" lon="12.5428403"><ele>317.0</ele><time>2026-04-19T11:05:02.852Z</time></trkpt><trkpt lat="43.8539096" lon="12.5429404"><ele>317.0</ele><time>2026-04-19T11:05:03.85Z</time></trkpt><trkpt lat="43.8537713" lon="12.5430385"><ele>317.0</ele><time>2026-04-19T11:05:04.852Z</time></trkpt><trkpt lat="43.8536502" lon="12.5431271"><ele>317.0</ele><time>2026-04-19T11:05:05.848Z</time></trkpt><trkpt lat="43.8535338" lon="12.543199"><ele>317.0</ele><time>2026-04-19T11:05:06.87Z</time></trkpt><trkpt lat="43.8534222" lon="12.5432113"><ele>315.75</ele><time>2026-04-19T11:05:07.853Z</time></trkpt><trkpt lat="43.8532993" lon="12.543187"><ele>314.5</ele><time>2026-04-19T11:05:08.853Z</time></trkpt><trkpt lat="43.8531823" lon="12.543168"><ele>313.25</ele><time>2026-04-19T11:05:09.851Z</time></trkpt><trkpt lat="43.8530623" lon="12.5431669"><ele>312.0</ele><time>2026-04-19T11:05:10.859Z</time></trkpt><trkpt lat="43.8529494" lon="12.5432055"><ele>312.0</ele><time>2026-04-19T11:05:11.853Z</time></trkpt><trkpt lat="43.8528413" lon="12.5432943"><ele>312.0</ele><time>2026-04-19T11:05:12.853Z</time></trkpt><trkpt lat="43.8527335" lon="12.5434277"><ele>312.0</ele><time>2026-04-19T11:05:13.855Z</time></trkpt><trkpt lat="43.8526411" lon="12.5435963"><ele>312.0</ele><time>2026-04-19T11:05:14.85Z</time></trkpt><trkpt lat="43.8525668" lon="12.543816"><ele>312.3333333333333</ele><time>2026-04-19T11:05:15.878Z</time></trkpt><trkpt lat="43.8524973" lon="12.5440585"><ele>312.66666666666663</ele><time>2026-04-19T11:05:16.852Z</time></trkpt><trkpt lat="43.8524235" lon="12.5443059"><ele>313.0</ele><time>2026-04-19T11:05:17.851Z</time></trkpt><trkpt lat="43.8523532" lon="12.5445268"><ele>312.3333333333333</ele><time>2026-04-19T11:05:18.852Z</time></trkpt><trkpt lat="43.852288" lon="12.5447244"><ele>311.6666666666667</ele><time>2026-04-19T11:05:19.854Z</time></trkpt><trkpt lat="43.852225" lon="12.5449135"><ele>311.0</ele><time>2026-04-19T11:05:20.851Z</time></trkpt><trkpt lat="43.8521622" lon="12.5451025"><ele>311.0</ele><time>2026-04-19T11:05:21.849Z</time></trkpt><trkpt lat="43.8520898" lon="12.5452797"><ele>311.0</ele><time>2026-04-19T11:05:22.868Z</time></trkpt><trkpt lat="43.8519952" lon="12.5454368"><ele>311.0</ele><time>2026-04-19T11:05:23.855Z</time></trkpt><trkpt lat="43.8518777" lon="12.5455797"><ele>311.33333333333337</ele><time>2026-04-19T11:05:24.854Z</time></trkpt><trkpt lat="43.8517359" lon="12.5457006"><ele>311.6666666666667</ele><time>2026-04-19T11:05:25.855Z</time></trkpt><trkpt lat="43.8515845" lon="12.5458201"><ele>312.0</ele><time>2026-04-19T11:05:26.854Z</time></trkpt><trkpt lat="43.8514466" lon="12.5459267"><ele>312.0</ele><time>2026-04-19T11:05:27.865Z</time></trkpt><trkpt lat="43.8513283" lon="12.5460042"><ele>312.0</ele><time>2026-04-19T11:05:28.856Z</time></trkpt><trkpt lat="43.8512167" lon="12.5460429"><ele>312.0</ele><time>2026-04-19T11:05:29.853Z</time></trkpt><trkpt lat="43.8511064" lon="12.5460176"><ele>312.0</ele><time>2026-04-19T11:05:30.857Z</time></trkpt><trkpt lat="43.8509983" lon="12.5459721"><ele>314.0</ele><time>2026-04-19T11:05:31.856Z</time></trkpt><trkpt lat="43.8509058" lon="12.545931"><ele>316.0</ele><time>2026-04-19T11:05:32.874Z</time></trkpt><trkpt lat="43.8508102" lon="12.5458902"><ele>318.0</ele><time>2026-04-19T11:05:34.85Z</time></trkpt><trkpt lat="43.8507162" lon="12.5459238"><ele>320.0</ele><time>2026-04-19T11:05:36.851Z</time></trkpt><trkpt lat="43.8506501" lon="12.5460019"><ele>322.0</ele><time>2026-04-19T11:05:37.854Z</time></trkpt><trkpt lat="43.8505746" lon="12.5461195"><ele>319.75</ele><time>2026-04-19T11:05:38.853Z</time></trkpt><trkpt lat="43.8504835" lon="12.5462529"><ele>317.5</ele><time>2026-04-19T11:05:39.855Z</time></trkpt><trkpt lat="43.850382" lon="12.5463937"><ele>315.25</ele><time>2026-04-19T11:05:40.856Z</time></trkpt><trkpt lat="43.850276" lon="12.5465466"><ele>313.0</ele><time>2026-04-19T11:05:41.856Z</time></trkpt><trkpt lat="43.8501829" lon="12.5467075"><ele>313.5</ele><time>2026-04-19T11:05:42.87Z</time></trkpt><trkpt lat="43.8501096" lon="12.5468775"><ele>314.0</ele><time>2026-04-19T11:05:43.855Z</time></trkpt><trkpt lat="43.8500559" lon="12.5470636"><ele>314.5</ele><time>2026-04-19T11:05:44.852Z</time></trkpt><trkpt lat="43.8500107" lon="12.54726"><ele>315.0</ele><time>2026-04-19T11:05:45.852Z</time></trkpt><trkpt lat="43.8499594" lon="12.5474569"><ele>313.25</ele><time>2026-04-19T11:05:46.849Z</time></trkpt><trkpt lat="43.8498981" lon="12.5476511"><ele>311.5</ele><time>2026-04-19T11:05:47.858Z</time></trkpt><trkpt lat="43.8498226" lon="12.5478169"><ele>309.75</ele><time>2026-04-19T11:05:48.854Z</time></trkpt><trkpt lat="43.8497404" lon="12.5479753"><ele>308.0</ele><time>2026-04-19T11:05:49.863Z</time></trkpt><trkpt lat="43.8496357" lon="12.5481203"><ele>307.25</ele><time>2026-04-19T11:05:50.852Z</time></trkpt><trkpt lat="43.849522" lon="12.5482547"><ele>306.5</ele><time>2026-04-19T11:05:51.854Z</time></trkpt><trkpt lat="43.849422" lon="12.5483789"><ele>305.75</ele><time>2026-04-19T11:05:52.852Z</time></trkpt><trkpt lat="43.8493407" lon="12.5485202"><ele>305.0</ele><time>2026-04-19T11:05:53.854Z</time></trkpt><trkpt lat="43.8492795" lon="12.5486766"><ele>305.2</ele><time>2026-04-19T11:05:54.859Z</time></trkpt><trkpt lat="43.8492468" lon="12.5488333"><ele>305.4</ele><time>2026-04-19T11:05:55.853Z</time></trkpt><trkpt lat="43.8492365" lon="12.5489816"><ele>305.6</ele><time>2026-04-19T11:05:56.853Z</time></trkpt><trkpt lat="43.849236" lon="12.5491186"><ele>305.8</ele><time>2026-04-19T11:05:57.852Z</time></trkpt><trkpt lat="43.8492329" lon="12.549254"><ele>306.0</ele><time>2026-04-19T11:05:58.847Z</time></trkpt><trkpt lat="43.8492265" lon="12.5494111"><ele>304.25</ele><time>2026-04-19T11:05:59.854Z</time></trkpt><trkpt lat="43.8492178" lon="12.549596"><ele>302.5</ele><time>2026-04-19T11:06:00.855Z</time></trkpt><trkpt lat="43.8492101" lon="12.5497825"><ele>300.75</ele><time>2026-04-19T11:06:01.857Z</time></trkpt><trkpt lat="43.8491977" lon="12.549953"><ele>299.0</ele><time>2026-04-19T11:06:02.85Z</time></trkpt><trkpt lat="43.8491727" lon="12.5501001"><ele>299.0</ele><time>2026-04-19T11:06:03.865Z</time></trkpt><trkpt lat="43.8491428" lon="12.5502399"><ele>299.0</ele><time>2026-04-19T11:06:04.849Z</time></trkpt><trkpt lat="43.8490866" lon="12.5503779"><ele>299.0</ele><time>2026-04-19T11:06:05.854Z</time></trkpt><trkpt lat="43.849014" lon="12.5505085"><ele>299.0</ele><time>2026-04-19T11:06:06.858Z</time></trkpt><trkpt lat="43.8489024" lon="12.5506529"><ele>296.6666666666667</ele><time>2026-04-19T11:06:07.85Z</time></trkpt><trkpt lat="43.8487671" lon="12.5508121"><ele>294.3333333333333</ele><time>2026-04-19T11:06:08.871Z</time></trkpt><trkpt lat="43.8486506" lon="12.5509666"><ele>292.0</ele><time>2026-04-19T11:06:09.852Z</time></trkpt><trkpt lat="43.8485653" lon="12.5511161"><ele>289.5</ele><time>2026-04-19T11:06:10.855Z</time></trkpt><trkpt lat="43.8485109" lon="12.5512661"><ele>287.0</ele><time>2026-04-19T11:06:11.856Z</time></trkpt><trkpt lat="43.8484858" lon="12.5514181"><ele>284.5</ele><time>2026-04-19T11:06:12.856Z</time></trkpt><trkpt lat="43.8484854" lon="12.5515718"><ele>282.0</ele><time>2026-04-19T11:06:13.862Z</time></trkpt><trkpt lat="43.8484992" lon="12.5517426"><ele>282.0</ele><time>2026-04-19T11:06:14.855Z</time></trkpt><trkpt lat="43.8485222" lon="12.551942"><ele>282.0</ele><time>2026-04-19T11:06:15.856Z</time></trkpt><trkpt lat="43.8485709" lon="12.5521785"><ele>282.0</ele><time>2026-04-19T11:06:16.848Z</time></trkpt><trkpt lat="43.8486135" lon="12.5523869"><ele>281.6</ele><time>2026-04-19T11:06:17.853Z</time></trkpt><trkpt lat="43.8486428" lon="12.5525565"><ele>281.2</ele><time>2026-04-19T11:06:18.853Z</time></trkpt><trkpt lat="43.8486511" lon="12.5527032"><ele>280.8</ele><time>2026-04-19T11:06:19.852Z</time></trkpt><trkpt lat="43.848632" lon="12.5528333"><ele>280.4</ele><time>2026-04-19T11:06:20.853Z</time></trkpt><trkpt lat="43.8485676" lon="12.5529527"><ele>280.0</ele><time>2026-04-19T11:06:21.852Z</time></trkpt><trkpt lat="43.8484728" lon="12.5530807"><ele>280.25</ele><time>2026-04-19T11:06:22.852Z</time></trkpt><trkpt lat="43.8483662" lon="12.5532182"><ele>280.5</ele><time>2026-04-19T11:06:23.856Z</time></trkpt><trkpt lat="43.8482519" lon="12.5533522"><ele>280.75</ele><time>2026-04-19T11:06:24.855Z</time></trkpt><trkpt lat="43.8481496" lon="12.5534653"><ele>281.0</ele><time>2026-04-19T11:06:25.854Z</time></trkpt><trkpt lat="43.8480666" lon="12.5535812"><ele>279.0</ele><time>2026-04-19T11:06:26.876Z</time></trkpt><trkpt lat="43.8480041" lon="12.553733"><ele>277.0</ele><time>2026-04-19T11:06:27.853Z</time></trkpt><trkpt lat="43.8479475" lon="12.5539044"><ele>275.0</ele><time>2026-04-19T11:06:28.857Z</time></trkpt><trkpt lat="43.8478794" lon="12.5540644"><ele>273.0</ele><time>2026-04-19T11:06:29.853Z</time></trkpt><trkpt lat="43.8477993" lon="12.5542047"><ele>273.0</ele><time>2026-04-19T11:06:30.853Z</time></trkpt><trkpt lat="43.8477075" lon="12.5543226"><ele>273.0</ele><time>2026-04-19T11:06:31.853Z</time></trkpt><trkpt lat="43.8476257" lon="12.5544325"><ele>273.0</ele><time>2026-04-19T11:06:32.852Z</time></trkpt><trkpt lat="43.8475609" lon="12.5545531"><ele>273.0</ele><time>2026-04-19T11:06:33.854Z</time></trkpt><trkpt lat="43.8475066" lon="12.5547073"><ele>272.5</ele><time>2026-04-19T11:06:34.853Z</time></trkpt><trkpt lat="43.8474575" lon="12.5548957"><ele>272.0</ele><time>2026-04-19T11:06:35.854Z</time></trkpt><trkpt lat="43.8474034" lon="12.5550812"><ele>271.5</ele><time>2026-04-19T11:06:36.852Z</time></trkpt><trkpt lat="43.8473477" lon="12.5552536"><ele>271.0</ele><time>2026-04-19T11:06:37.85Z</time></trkpt><trkpt lat="43.8472961" lon="12.5554184"><ele>270.0</ele><time>2026-04-19T11:06:38.855Z</time></trkpt><trkpt lat="43.8472583" lon="12.5555802"><ele>269.0</ele><time>2026-04-19T11:06:39.854Z</time></trkpt><trkpt lat="43.8472407" lon="12.5557557"><ele>268.0</ele><time>2026-04-19T11:06:40.863Z</time></trkpt><trkpt lat="43.8472348" lon="12.5559397"><ele>267.0</ele><time>2026-04-19T11:06:41.852Z</time></trkpt><trkpt lat="43.8472313" lon="12.5561159"><ele>266.75</ele><time>2026-04-19T11:06:42.852Z</time></trkpt><trkpt lat="43.8472164" lon="12.5562749"><ele>266.5</ele><time>2026-04-19T11:06:43.861Z</time></trkpt><trkpt lat="43.8471721" lon="12.5564311"><ele>266.25</ele><time>2026-04-19T11:06:44.857Z</time></trkpt><trkpt lat="43.8471016" lon="12.5565856"><ele>266.0</ele><time>2026-04-19T11:06:45.856Z</time></trkpt><trkpt lat="43.8470253" lon="12.5567345"><ele>266.0</ele><time>2026-04-19T11:06:46.855Z</time></trkpt><trkpt lat="43.8469293" lon="12.5568672"><ele>266.0</ele><time>2026-04-19T11:06:47.857Z</time></trkpt><trkpt lat="43.8468046" lon="12.5569734"><ele>266.0</ele><time>2026-04-19T11:06:48.855Z</time></trkpt><trkpt lat="43.8466792" lon="12.5570817"><ele>266.0</ele><time>2026-04-19T11:06:49.848Z</time></trkpt><trkpt lat="43.8465738" lon="12.5571999"><ele>265.75</ele><time>2026-04-19T11:06:50.854Z</time></trkpt><trkpt lat="43.8464867" lon="12.5573342"><ele>265.5</ele><time>2026-04-19T11:06:51.857Z</time></trkpt><trkpt lat="43.8464169" lon="12.5574986"><ele>265.25</ele><time>2026-04-19T11:06:52.854Z</time></trkpt><trkpt lat="43.8463494" lon="12.5576803"><ele>265.0</ele><time>2026-04-19T11:06:53.848Z</time></trkpt><trkpt lat="43.846279" lon="12.5578732"><ele>261.0</ele><time>2026-04-19T11:06:54.868Z</time></trkpt><trkpt lat="43.8462043" lon="12.5580573"><ele>257.0</ele><time>2026-04-19T11:06:55.853Z</time></trkpt><trkpt lat="43.8461241" lon="12.5582521"><ele>253.0</ele><time>2026-04-19T11:06:56.854Z</time></trkpt><trkpt lat="43.8460443" lon="12.5584502"><ele>253.0</ele><time>2026-04-19T11:06:57.855Z</time></trkpt><trkpt lat="43.8459758" lon="12.5586522"><ele>253.0</ele><time>2026-04-19T11:06:58.857Z</time></trkpt><trkpt lat="43.8459129" lon="12.5588464"><ele>253.0</ele><time>2026-04-19T11:06:59.848Z</time></trkpt><trkpt lat="43.8458672" lon="12.5590358"><ele>253.75</ele><time>2026-04-19T11:07:00.866Z</time></trkpt><trkpt lat="43.8458365" lon="12.5592275"><ele>254.5</ele><time>2026-04-19T11:07:01.854Z</time></trkpt><trkpt lat="43.8458125" lon="12.5594359"><ele>255.25</ele><time>2026-04-19T11:07:02.857Z</time></trkpt><trkpt lat="43.8457924" lon="12.559647"><ele>256.0</ele><time>2026-04-19T11:07:03.852Z</time></trkpt><trkpt lat="43.8457766" lon="12.5598465"><ele>256.0</ele><time>2026-04-19T11:07:04.857Z</time></trkpt><trkpt lat="43.8457671" lon="12.5600396"><ele>256.0</ele><time>2026-04-19T11:07:05.857Z</time></trkpt><trkpt lat="43.8457672" lon="12.5602319"><ele>256.0</ele><time>2026-04-19T11:07:06.855Z</time></trkpt><trkpt lat="43.8457729" lon="12.5604275"><ele>256.0</ele><time>2026-04-19T11:07:07.857Z</time></trkpt><trkpt lat="43.8457797" lon="12.5606163"><ele>255.75</ele><time>2026-04-19T11:07:08.853Z</time></trkpt><trkpt lat="43.8457871" lon="12.5607965"><ele>255.5</ele><time>2026-04-19T11:07:09.854Z</time></trkpt><trkpt lat="43.8457894" lon="12.5609681"><ele>255.25</ele><time>2026-04-19T11:07:10.853Z</time></trkpt><trkpt lat="43.8457816" lon="12.5611506"><ele>255.0</ele><time>2026-04-19T11:07:11.854Z</time></trkpt><trkpt lat="43.8457574" lon="12.5613383"><ele>254.25</ele><time>2026-04-19T11:07:12.857Z</time></trkpt><trkpt lat="43.8457369" lon="12.5615344"><ele>253.5</ele><time>2026-04-19T11:07:13.852Z</time></trkpt><trkpt lat="43.845723" lon="12.561727"><ele>252.75</ele><time>2026-04-19T11:07:14.85Z</time></trkpt><trkpt lat="43.8457231" lon="12.5619257"><ele>252.0</ele><time>2026-04-19T11:07:15.867Z</time></trkpt><trkpt lat="43.8457472" lon="12.5621253"><ele>250.5</ele><time>2026-04-19T11:07:16.849Z</time></trkpt><trkpt lat="43.8457828" lon="12.562322"><ele>249.0</ele><time>2026-04-19T11:07:17.856Z</time></trkpt><trkpt lat="43.8458188" lon="12.5624913"><ele>247.5</ele><time>2026-04-19T11:07:18.854Z</time></trkpt><trkpt lat="43.8458273" lon="12.5626329"><ele>246.0</ele><time>2026-04-19T11:07:19.853Z</time></trkpt><trkpt lat="43.8458097" lon="12.5627693"><ele>244.75</ele><time>2026-04-19T11:07:20.852Z</time></trkpt><trkpt lat="43.8457604" lon="12.5629253"><ele>243.5</ele><time>2026-04-19T11:07:21.852Z</time></trkpt><trkpt lat="43.8456952" lon="12.5631214"><ele>242.25</ele><time>2026-04-19T11:07:22.848Z</time></trkpt><trkpt lat="43.8456229" lon="12.5633317"><ele>241.0</ele><time>2026-04-19T11:07:23.85Z</time></trkpt><trkpt lat="43.8455548" lon="12.5635297"><ele>240.75</ele><time>2026-04-19T11:07:24.851Z</time></trkpt><trkpt lat="43.8454935" lon="12.5637199"><ele>240.5</ele><time>2026-04-19T11:07:25.857Z</time></trkpt><trkpt lat="43.8454395" lon="12.5639084"><ele>240.25</ele><time>2026-04-19T11:07:26.857Z</time></trkpt><trkpt lat="43.8453916" lon="12.5640827"><ele>240.0</ele><time>2026-04-19T11:07:27.868Z</time></trkpt><trkpt lat="43.8453659" lon="12.5642297"><ele>240.0</ele><time>2026-04-19T11:07:28.856Z</time></trkpt><trkpt lat="43.8453621" lon="12.5643657"><ele>240.0</ele><time>2026-04-19T11:07:29.852Z</time></trkpt><trkpt lat="43.8453933" lon="12.5644895"><ele>240.0</ele><time>2026-04-19T11:07:30.855Z</time></trkpt><trkpt lat="43.8454566" lon="12.5645963"><ele>240.0</ele><time>2026-04-19T11:07:31.862Z</time></trkpt><trkpt lat="43.8455317" lon="12.5646932"><ele>240.0</ele><time>2026-04-19T11:07:32.848Z</time></trkpt><trkpt lat="43.8456343" lon="12.5647739"><ele>239.0</ele><time>2026-04-19T11:07:33.865Z</time></trkpt><trkpt lat="43.8457323" lon="12.564841"><ele>238.0</ele><time>2026-04-19T11:07:34.848Z</time></trkpt><trkpt lat="43.8457963" lon="12.5649009"><ele>237.0</ele><time>2026-04-19T11:07:35.852Z</time></trkpt><trkpt lat="43.8458852" lon="12.5649447"><ele>236.0</ele><time>2026-04-19T11:07:37.854Z</time></trkpt><trkpt lat="43.8459479" lon="12.5649741"><ele>235.0</ele><time>2026-04-19T11:07:38.849Z</time></trkpt><trkpt lat="43.8460376" lon="12.5650427"><ele>234.0</ele><time>2026-04-19T11:07:39.864Z</time></trkpt><trkpt lat="43.8461411" lon="12.5651538"><ele>234.0</ele><time>2026-04-19T11:07:40.849Z</time></trkpt><trkpt lat="43.8462635" lon="12.565318"><ele>234.0</ele><time>2026-04-19T11:07:41.853Z</time></trkpt><trkpt lat="43.8464" lon="12.5655057"><ele>234.0</ele><time>2026-04-19T11:07:42.853Z</time></trkpt><trkpt lat="43.8465512" lon="12.5656983"><ele>232.0</ele><time>2026-04-19T11:07:43.853Z</time></trkpt><trkpt lat="43.8466895" lon="12.5658649"><ele>230.0</ele><time>2026-04-19T11:07:44.855Z</time></trkpt><trkpt lat="43.8468132" lon="12.5660186"><ele>228.0</ele><time>2026-04-19T11:07:45.869Z</time></trkpt><trkpt lat="43.8469242" lon="12.5661647"><ele>228.75</ele><time>2026-04-19T11:07:46.854Z</time></trkpt><trkpt lat="43.8470263" lon="12.5663109"><ele>229.5</ele><time>2026-04-19T11:07:47.854Z</time></trkpt><trkpt lat="43.8471176" lon="12.5664409"><ele>230.25</ele><time>2026-04-19T11:07:48.853Z</time></trkpt><trkpt lat="43.8472001" lon="12.5665399"><ele>231.0</ele><time>2026-04-19T11:07:49.851Z</time></trkpt><trkpt lat="43.8472795" lon="12.5666024"><ele>231.0</ele><time>2026-04-19T11:07:50.856Z</time></trkpt><trkpt lat="43.8473586" lon="12.5666462"><ele>231.00000000000003</ele><time>2026-04-19T11:07:51.85Z</time></trkpt><trkpt lat="43.8474482" lon="12.5666258"><ele>231.00000000000003</ele><time>2026-04-19T11:07:52.853Z</time></trkpt><trkpt lat="43.8475475" lon="12.5665449"><ele>231.0</ele><time>2026-04-19T11:07:53.85Z</time></trkpt><trkpt lat="43.8476512" lon="12.5664333"><ele>231.0</ele><time>2026-04-19T11:07:54.854Z</time></trkpt><trkpt lat="43.8477657" lon="12.5662948"><ele>230.5</ele><time>2026-04-19T11:07:55.853Z</time></trkpt><trkpt lat="43.8478679" lon="12.5661885"><ele>230.0</ele><time>2026-04-19T11:07:56.857Z</time></trkpt><trkpt lat="43.8479527" lon="12.5661098"><ele>229.5</ele><time>2026-04-19T11:07:57.853Z</time></trkpt><trkpt lat="43.8480238" lon="12.5660543"><ele>229.0</ele><time>2026-04-19T11:07:58.853Z</time></trkpt><trkpt lat="43.848156" lon="12.5661171"><ele>227.79999999999998</ele><time>2026-04-19T11:08:00.857Z</time></trkpt><trkpt lat="43.8482251" lon="12.5662197"><ele>226.59999999999997</ele><time>2026-04-19T11:08:01.853Z</time></trkpt><trkpt lat="43.8482789" lon="12.5663646"><ele>225.4</ele><time>2026-04-19T11:08:02.849Z</time></trkpt><trkpt lat="43.8483218" lon="12.5664964"><ele>224.2</ele><time>2026-04-19T11:08:03.85Z</time></trkpt><trkpt lat="43.8483613" lon="12.5665966"><ele>223.0</ele><time>2026-04-19T11:08:04.855Z</time></trkpt><trkpt lat="43.8483989" lon="12.5666827"><ele>223.0</ele><time>2026-04-19T11:08:05.855Z</time></trkpt><trkpt lat="43.8484342" lon="12.56676"><ele>223.0</ele><time>2026-04-19T11:08:06.867Z</time></trkpt><trkpt lat="43.8484693" lon="12.5668426"><ele>223.0</ele><time>2026-04-19T11:08:07.85Z</time></trkpt><trkpt lat="43.8485153" lon="12.5669516"><ele>223.0</ele><time>2026-04-19T11:08:08.847Z</time></trkpt><trkpt lat="43.8485781" lon="12.5670927"><ele>223.0</ele><time>2026-04-19T11:08:09.853Z</time></trkpt><trkpt lat="43.8486531" lon="12.5672637"><ele>223.66666666666666</ele><time>2026-04-19T11:08:10.855Z</time></trkpt><trkpt lat="43.8487343" lon="12.5674526"><ele>224.33333333333331</ele><time>2026-04-19T11:08:11.857Z</time></trkpt><trkpt lat="43.8488169" lon="12.5676443"><ele>225.0</ele><time>2026-04-19T11:08:12.868Z</time></trkpt><trkpt lat="43.8488974" lon="12.5678302"><ele>222.66666666666669</ele><time>2026-04-19T11:08:13.855Z</time></trkpt><trkpt lat="43.8489795" lon="12.5680145"><ele>220.33333333333334</ele><time>2026-04-19T11:08:14.853Z</time></trkpt><trkpt lat="43.8490585" lon="12.5681972"><ele>218.0</ele><time>2026-04-19T11:08:15.848Z</time></trkpt><trkpt lat="43.8491385" lon="12.5683738"><ele>218.0</ele><time>2026-04-19T11:08:16.848Z</time></trkpt><trkpt lat="43.8492152" lon="12.5685501"><ele>218.0</ele><time>2026-04-19T11:08:17.851Z</time></trkpt><trkpt lat="43.8492907" lon="12.5687241"><ele>218.0</ele><time>2026-04-19T11:08:18.856Z</time></trkpt><trkpt lat="43.8493658" lon="12.568906"><ele>218.0</ele><time>2026-04-19T11:08:19.856Z</time></trkpt><trkpt lat="43.8494399" lon="12.5690885"><ele>218.75</ele><time>2026-04-19T11:08:20.855Z</time></trkpt><trkpt lat="43.8495136" lon="12.5692673"><ele>219.5</ele><time>2026-04-19T11:08:21.858Z</time></trkpt><trkpt lat="43.8495799" lon="12.5694511"><ele>220.25</ele><time>2026-04-19T11:08:22.861Z</time></trkpt><trkpt lat="43.8496435" lon="12.5696333"><ele>221.0</ele><time>2026-04-19T11:08:23.855Z</time></trkpt><trkpt lat="43.8497069" lon="12.5698165"><ele>218.75</ele><time>2026-04-19T11:08:24.849Z</time></trkpt><trkpt lat="43.8497686" lon="12.5700014"><ele>216.5</ele><time>2026-04-19T11:08:25.856Z</time></trkpt><trkpt lat="43.8498287" lon="12.5701829"><ele>214.25</ele><time>2026-04-19T11:08:26.854Z</time></trkpt><trkpt lat="43.8498888" lon="12.5703622"><ele>212.0</ele><time>2026-04-19T11:08:27.87Z</time></trkpt><trkpt lat="43.8499522" lon="12.5705398"><ele>211.0</ele><time>2026-04-19T11:08:28.848Z</time></trkpt><trkpt lat="43.8500197" lon="12.5707263"><ele>210.0</ele><time>2026-04-19T11:08:29.853Z</time></trkpt><trkpt lat="43.8500872" lon="12.5709235"><ele>209.0</ele><time>2026-04-19T11:08:30.853Z</time></trkpt><trkpt lat="43.8501551" lon="12.5711243"><ele>210.33333333333334</ele><time>2026-04-19T11:08:31.86Z</time></trkpt><trkpt lat="43.8502218" lon="12.5713235"><ele>211.66666666666669</ele><time>2026-04-19T11:08:32.854Z</time></trkpt><trkpt lat="43.850286" lon="12.5715211"><ele>213.0</ele><time>2026-04-19T11:08:33.861Z</time></trkpt><trkpt lat="43.8503502" lon="12.5717112"><ele>213.0</ele><time>2026-04-19T11:08:34.848Z</time></trkpt><trkpt lat="43.850415" lon="12.5718968"><ele>213.0</ele><time>2026-04-19T11:08:35.855Z</time></trkpt><trkpt lat="43.8504765" lon="12.5720769"><ele>213.0</ele><time>2026-04-19T11:08:36.85Z</time></trkpt><trkpt lat="43.8505362" lon="12.5722546"><ele>213.0</ele><time>2026-04-19T11:08:37.854Z</time></trkpt><trkpt lat="43.8505934" lon="12.5724252"><ele>212.5</ele><time>2026-04-19T11:08:38.85Z</time></trkpt><trkpt lat="43.8506494" lon="12.5725887"><ele>212.0</ele><time>2026-04-19T11:08:39.854Z</time></trkpt><trkpt lat="43.8507051" lon="12.5727535"><ele>211.5</ele><time>2026-04-19T11:08:40.86Z</time></trkpt><trkpt lat="43.8507608" lon="12.5729214"><ele>211.0</ele><time>2026-04-19T11:08:41.848Z</time></trkpt><trkpt lat="43.8508263" lon="12.5731011"><ele>209.66666666666666</ele><time>2026-04-19T11:08:42.866Z</time></trkpt><trkpt lat="43.8509045" lon="12.5732919"><ele>208.33333333333331</ele><time>2026-04-19T11:08:43.853Z</time></trkpt><trkpt lat="43.8509881" lon="12.5734884"><ele>207.0</ele><time>2026-04-19T11:08:44.854Z</time></trkpt><trkpt lat="43.8510695" lon="12.5736723"><ele>206.33333333333331</ele><time>2026-04-19T11:08:45.848Z</time></trkpt><trkpt lat="43.851152" lon="12.5738476"><ele>205.66666666666666</ele><time>2026-04-19T11:08:46.849Z</time></trkpt><trkpt lat="43.8512391" lon="12.5740182"><ele>205.0</ele><time>2026-04-19T11:08:47.849Z</time></trkpt><trkpt lat="43.8513318" lon="12.5741826"><ele>205.0</ele><time>2026-04-19T11:08:48.857Z</time></trkpt><trkpt lat="43.8514335" lon="12.5743425"><ele>205.0</ele><time>2026-04-19T11:08:49.861Z</time></trkpt><trkpt lat="43.8515435" lon="12.5745061"><ele>205.0</ele><time>2026-04-19T11:08:50.852Z</time></trkpt><trkpt lat="43.8516565" lon="12.5746634"><ele>205.0</ele><time>2026-04-19T11:08:51.856Z</time></trkpt><trkpt lat="43.8517656" lon="12.5748032"><ele>205.0</ele><time>2026-04-19T11:08:52.856Z</time></trkpt><trkpt lat="43.8518781" lon="12.5749225"><ele>205.0</ele><time>2026-04-19T11:08:53.869Z</time></trkpt><trkpt lat="43.8519987" lon="12.5750223"><ele>205.0</ele><time>2026-04-19T11:08:54.85Z</time></trkpt><trkpt lat="43.8521342" lon="12.5751129"><ele>204.25</ele><time>2026-04-19T11:08:55.857Z</time></trkpt><trkpt lat="43.8522712" lon="12.5752032"><ele>203.5</ele><time>2026-04-19T11:08:56.854Z</time></trkpt><trkpt lat="43.8523892" lon="12.5753097"><ele>202.75</ele><time>2026-04-19T11:08:57.851Z</time></trkpt><trkpt lat="43.8524912" lon="12.5754376"><ele>202.0</ele><time>2026-04-19T11:08:58.856Z</time></trkpt><trkpt lat="43.8525631" lon="12.5756032"><ele>206.33333333333331</ele><time>2026-04-19T11:08:59.853Z</time></trkpt><trkpt lat="43.8526452" lon="12.575785"><ele>210.66666666666669</ele><time>2026-04-19T11:09:00.87Z</time></trkpt><trkpt lat="43.8527389" lon="12.5759755"><ele>215.0</ele><time>2026-04-19T11:09:01.855Z</time></trkpt><trkpt lat="43.8528422" lon="12.5761694"><ele>209.66666666666669</ele><time>2026-04-19T11:09:02.856Z</time></trkpt><trkpt lat="43.8529455" lon="12.576361"><ele>204.33333333333331</ele><time>2026-04-19T11:09:03.851Z</time></trkpt><trkpt lat="43.8530498" lon="12.5765498"><ele>199.0</ele><time>2026-04-19T11:09:04.857Z</time></trkpt><trkpt lat="43.8531506" lon="12.5767299"><ele>199.0</ele><time>2026-04-19T11:09:05.856Z</time></trkpt><trkpt lat="43.8532468" lon="12.5769029"><ele>199.0</ele><time>2026-04-19T11:09:06.849Z</time></trkpt><trkpt lat="43.85334" lon="12.5770679"><ele>199.0</ele><time>2026-04-19T11:09:07.87Z</time></trkpt><trkpt lat="43.8534275" lon="12.577223"><ele>199.5</ele><time>2026-04-19T11:09:08.849Z</time></trkpt><trkpt lat="43.8535114" lon="12.5773786"><ele>200.0</ele><time>2026-04-19T11:09:09.857Z</time></trkpt><trkpt lat="43.8535866" lon="12.5775234"><ele>200.5</ele><time>2026-04-19T11:09:10.848Z</time></trkpt><trkpt lat="43.8536547" lon="12.5776546"><ele>201.0</ele><time>2026-04-19T11:09:11.853Z</time></trkpt><trkpt lat="43.8537221" lon="12.5777867"><ele>198.25</ele><time>2026-04-19T11:09:12.855Z</time></trkpt><trkpt lat="43.8537962" lon="12.5779245"><ele>195.5</ele><time>2026-04-19T11:09:13.849Z</time></trkpt><trkpt lat="43.8538762" lon="12.5780718"><ele>192.75</ele><time>2026-04-19T11:09:14.861Z</time></trkpt><trkpt lat="43.8539632" lon="12.5782286"><ele>190.0</ele><time>2026-04-19T11:09:15.848Z</time></trkpt><trkpt lat="43.8540635" lon="12.5783923"><ele>190.0</ele><time>2026-04-19T11:09:16.85Z</time></trkpt><trkpt lat="43.854174" lon="12.5785494"><ele>190.0</ele><time>2026-04-19T11:09:17.853Z</time></trkpt><trkpt lat="43.8542926" lon="12.5786989"><ele>190.0</ele><time>2026-04-19T11:09:18.846Z</time></trkpt><trkpt lat="43.8544179" lon="12.5788458"><ele>190.0</ele><time>2026-04-19T11:09:19.852Z</time></trkpt><trkpt lat="43.8545575" lon="12.5790029"><ele>190.0</ele><time>2026-04-19T11:09:20.873Z</time></trkpt><trkpt lat="43.8546996" lon="12.5791622"><ele>190.0</ele><time>2026-04-19T11:09:21.847Z</time></trkpt><trkpt lat="43.8548393" lon="12.5793197"><ele>190.0</ele><time>2026-04-19T11:09:22.85Z</time></trkpt><trkpt lat="43.8549682" lon="12.5794726"><ele>190.0</ele><time>2026-04-19T11:09:23.847Z</time></trkpt><trkpt lat="43.8550854" lon="12.5796132"><ele>190.0</ele><time>2026-04-19T11:09:24.851Z</time></trkpt><trkpt lat="43.8551974" lon="12.5797525"><ele>190.0</ele><time>2026-04-19T11:09:25.853Z</time></trkpt><trkpt lat="43.855314" lon="12.579882"><ele>190.0</ele><time>2026-04-19T11:09:26.863Z</time></trkpt><trkpt lat="43.8554449" lon="12.5799928"><ele>190.0</ele><time>2026-04-19T11:09:27.858Z</time></trkpt><trkpt lat="43.8555971" lon="12.5800855"><ele>190.0</ele><time>2026-04-19T11:09:28.851Z</time></trkpt><trkpt lat="43.8557519" lon="12.5801607"><ele>190.0</ele><time>2026-04-19T11:09:29.855Z</time></trkpt><trkpt lat="43.8559027" lon="12.5802285"><ele>190.0</ele><time>2026-04-19T11:09:30.852Z</time></trkpt><trkpt lat="43.8560526" lon="12.5803005"><ele>187.66666666666669</ele><time>2026-04-19T11:09:31.847Z</time></trkpt><trkpt lat="43.8562077" lon="12.5803684"><ele>185.33333333333334</ele><time>2026-04-19T11:09:32.861Z</time></trkpt><trkpt lat="43.8563607" lon="12.5804277"><ele>183.0</ele><time>2026-04-19T11:09:33.853Z</time></trkpt><trkpt lat="43.8565184" lon="12.5804989"><ele>183.0</ele><time>2026-04-19T11:09:34.853Z</time></trkpt><trkpt lat="43.8566712" lon="12.5805717"><ele>183.0</ele><time>2026-04-19T11:09:35.844Z</time></trkpt><trkpt lat="43.8568135" lon="12.5806419"><ele>183.0</ele><time>2026-04-19T11:09:36.852Z</time></trkpt><trkpt lat="43.8569443" lon="12.5807132"><ele>182.25</ele><time>2026-04-19T11:09:37.847Z</time></trkpt><trkpt lat="43.8570619" lon="12.5807843"><ele>181.5</ele><time>2026-04-19T11:09:38.855Z</time></trkpt><trkpt lat="43.8571646" lon="12.5808873"><ele>180.75</ele><time>2026-04-19T11:09:39.846Z</time></trkpt><trkpt lat="43.8572522" lon="12.5810312"><ele>180.0</ele><time>2026-04-19T11:09:40.845Z</time></trkpt><trkpt lat="43.8573298" lon="12.5811962"><ele>180.0</ele><time>2026-04-19T11:09:41.853Z</time></trkpt><trkpt lat="43.8574236" lon="12.5813799"><ele>180.0</ele><time>2026-04-19T11:09:42.85Z</time></trkpt><trkpt lat="43.857535" lon="12.5815482"><ele>180.0</ele><time>2026-04-19T11:09:43.849Z</time></trkpt><trkpt lat="43.8576627" lon="12.5817033"><ele>179.33333333333334</ele><time>2026-04-19T11:09:44.862Z</time></trkpt><trkpt lat="43.8577876" lon="12.5818541"><ele>178.66666666666669</ele><time>2026-04-19T11:09:45.847Z</time></trkpt><trkpt lat="43.8579118" lon="12.5820035"><ele>178.0</ele><time>2026-04-19T11:09:46.851Z</time></trkpt><trkpt lat="43.8580274" lon="12.5821448"><ele>178.0</ele><time>2026-04-19T11:09:47.846Z</time></trkpt><trkpt lat="43.8581365" lon="12.5822787"><ele>178.0</ele><time>2026-04-19T11:09:48.855Z</time></trkpt><trkpt lat="43.8582414" lon="12.5824136"><ele>178.0</ele><time>2026-04-19T11:09:49.852Z</time></trkpt><trkpt lat="43.8583511" lon="12.5825523"><ele>178.0</ele><time>2026-04-19T11:09:50.865Z</time></trkpt><trkpt lat="43.8584633" lon="12.5826924"><ele>177.75</ele><time>2026-04-19T11:09:51.847Z</time></trkpt><trkpt lat="43.8585767" lon="12.5828257"><ele>177.5</ele><time>2026-04-19T11:09:52.851Z</time></trkpt><trkpt lat="43.858679" lon="12.5829462"><ele>177.25</ele><time>2026-04-19T11:09:53.856Z</time></trkpt><trkpt lat="43.8587683" lon="12.5830538"><ele>177.0</ele><time>2026-04-19T11:09:54.851Z</time></trkpt><trkpt lat="43.8588565" lon="12.5831587"><ele>177.0</ele><time>2026-04-19T11:09:55.867Z</time></trkpt><trkpt lat="43.8589509" lon="12.5832704"><ele>177.0</ele><time>2026-04-19T11:09:56.852Z</time></trkpt><trkpt lat="43.859059" lon="12.5833991"><ele>177.0</ele><time>2026-04-19T11:09:57.854Z</time></trkpt><trkpt lat="43.8591785" lon="12.5835423"><ele>177.0</ele><time>2026-04-19T11:09:58.851Z</time></trkpt><trkpt lat="43.8593088" lon="12.5836956"><ele>175.33333333333334</ele><time>2026-04-19T11:09:59.854Z</time></trkpt><trkpt lat="43.8594425" lon="12.5838553"><ele>173.66666666666669</ele><time>2026-04-19T11:10:00.85Z</time></trkpt><trkpt lat="43.8595771" lon="12.5840156"><ele>172.0</ele><time>2026-04-19T11:10:01.849Z</time></trkpt><trkpt lat="43.8597095" lon="12.5841724"><ele>172.0</ele><time>2026-04-19T11:10:02.85Z</time></trkpt><trkpt lat="43.8598392" lon="12.584322"><ele>172.0</ele><time>2026-04-19T11:10:03.846Z</time></trkpt><trkpt lat="43.8599721" lon="12.5844627"><ele>172.0</ele><time>2026-04-19T11:10:04.848Z</time></trkpt><trkpt lat="43.8601083" lon="12.5845921"><ele>170.33333333333334</ele><time>2026-04-19T11:10:05.852Z</time></trkpt><trkpt lat="43.8602485" lon="12.5847077"><ele>168.66666666666666</ele><time>2026-04-19T11:10:06.848Z</time></trkpt><trkpt lat="43.8603887" lon="12.5848143"><ele>167.0</ele><time>2026-04-19T11:10:07.864Z</time></trkpt><trkpt lat="43.860524" lon="12.5849113"><ele>167.0</ele><time>2026-04-19T11:10:08.854Z</time></trkpt><trkpt lat="43.860664" lon="12.5850071"><ele>167.0</ele><time>2026-04-19T11:10:09.848Z</time></trkpt><trkpt lat="43.8608097" lon="12.5851034"><ele>167.0</ele><time>2026-04-19T11:10:10.846Z</time></trkpt><trkpt lat="43.8609509" lon="12.5851974"><ele>167.25</ele><time>2026-04-19T11:10:11.851Z</time></trkpt><trkpt lat="43.8610864" lon="12.5852863"><ele>167.5</ele><time>2026-04-19T11:10:12.843Z</time></trkpt><trkpt lat="43.8612138" lon="12.5853748"><ele>167.75</ele><time>2026-04-19T11:10:13.864Z</time></trkpt><trkpt lat="43.8613356" lon="12.5854527"><ele>168.0</ele><time>2026-04-19T11:10:14.848Z</time></trkpt><trkpt lat="43.8614511" lon="12.5855221"><ele>168.0</ele><time>2026-04-19T11:10:15.847Z</time></trkpt><trkpt lat="43.8615513" lon="12.5855845"><ele>168.0</ele><time>2026-04-19T11:10:16.849Z</time></trkpt><trkpt lat="43.861644" lon="12.5856476"><ele>168.0</ele><time>2026-04-19T11:10:17.846Z</time></trkpt><trkpt lat="43.8617374" lon="12.5857009"><ele>168.0</ele><time>2026-04-19T11:10:18.853Z</time></trkpt><trkpt lat="43.861836" lon="12.5857501"><ele>168.0</ele><time>2026-04-19T11:10:19.849Z</time></trkpt><trkpt lat="43.8619418" lon="12.5857984"><ele>168.0</ele><time>2026-04-19T11:10:20.863Z</time></trkpt><trkpt lat="43.8620494" lon="12.5858487"><ele>168.0</ele><time>2026-04-19T11:10:21.857Z</time></trkpt><trkpt lat="43.8621601" lon="12.5859116"><ele>168.0</ele><time>2026-04-19T11:10:22.851Z</time></trkpt><trkpt lat="43.8622777" lon="12.5859837"><ele>168.0</ele><time>2026-04-19T11:10:23.851Z</time></trkpt><trkpt lat="43.8624018" lon="12.5860522"><ele>168.0</ele><time>2026-04-19T11:10:24.854Z</time></trkpt><trkpt lat="43.8625425" lon="12.5861366"><ele>168.0</ele><time>2026-04-19T11:10:25.847Z</time></trkpt><trkpt lat="43.8627065" lon="12.5862237"><ele>168.0</ele><time>2026-04-19T11:10:26.846Z</time></trkpt><trkpt lat="43.8628679" lon="12.5863033"><ele>166.33333333333334</ele><time>2026-04-19T11:10:27.849Z</time></trkpt><trkpt lat="43.8630231" lon="12.5863781"><ele>164.66666666666669</ele><time>2026-04-19T11:10:28.853Z</time></trkpt><trkpt lat="43.8631803" lon="12.5864541"><ele>163.0</ele><time>2026-04-19T11:10:29.85Z</time></trkpt><trkpt lat="43.8633455" lon="12.5865301"><ele>163.66666666666669</ele><time>2026-04-19T11:10:30.853Z</time></trkpt><trkpt lat="43.8635112" lon="12.586604"><ele>164.33333333333334</ele><time>2026-04-19T11:10:31.862Z</time></trkpt><trkpt lat="43.8636675" lon="12.5866736"><ele>165.0</ele><time>2026-04-19T11:10:32.852Z</time></trkpt><trkpt lat="43.8638182" lon="12.5867388"><ele>165.0</ele><time>2026-04-19T11:10:33.851Z</time></trkpt><trkpt lat="43.863974" lon="12.5867879"><ele>165.0</ele><time>2026-04-19T11:10:34.848Z</time></trkpt><trkpt lat="43.8641123" lon="12.5868227"><ele>165.0</ele><time>2026-04-19T11:10:35.852Z</time></trkpt><trkpt lat="43.8642351" lon="12.586846"><ele>165.0</ele><time>2026-04-19T11:10:36.853Z</time></trkpt><trkpt lat="43.8643368" lon="12.5868693"><ele>163.8</ele><time>2026-04-19T11:10:37.848Z</time></trkpt><trkpt lat="43.8644246" lon="12.5869139"><ele>162.6</ele><time>2026-04-19T11:10:38.875Z</time></trkpt><trkpt lat="43.864499" lon="12.5869786"><ele>161.4</ele><time>2026-04-19T11:10:39.852Z</time></trkpt><trkpt lat="43.8645686" lon="12.5870627"><ele>160.2</ele><time>2026-04-19T11:10:40.854Z</time></trkpt><trkpt lat="43.864642" lon="12.5871672"><ele>159.0</ele><time>2026-04-19T11:10:41.85Z</time></trkpt><trkpt lat="43.8647318" lon="12.5873016"><ele>159.0</ele><time>2026-04-19T11:10:42.858Z</time></trkpt><trkpt lat="43.8648253" lon="12.5874322"><ele>159.0</ele><time>2026-04-19T11:10:43.862Z</time></trkpt><trkpt lat="43.8649" lon="12.5875415"><ele>159.0</ele><time>2026-04-19T11:10:44.852Z</time></trkpt><trkpt lat="43.8649519" lon="12.5876413"><ele>159.0</ele><time>2026-04-19T11:10:45.887Z</time></trkpt><trkpt lat="43.8649796" lon="12.5877331"><ele>159.0</ele><time>2026-04-19T11:10:46.845Z</time></trkpt><trkpt lat="43.8649848" lon="12.5878454"><ele>158.2</ele><time>2026-04-19T11:10:47.853Z</time></trkpt><trkpt lat="43.8649785" lon="12.5879931"><ele>157.4</ele><time>2026-04-19T11:10:48.853Z</time></trkpt><trkpt lat="43.8649764" lon="12.5881581"><ele>156.6</ele><time>2026-04-19T11:10:49.85Z</time></trkpt><trkpt lat="43.8649687" lon="12.5883051"><ele>155.8</ele><time>2026-04-19T11:10:50.848Z</time></trkpt><trkpt lat="43.8649434" lon="12.5884352"><ele>155.0</ele><time>2026-04-19T11:10:51.849Z</time></trkpt><trkpt lat="43.8648989" lon="12.5885744"><ele>155.5</ele><time>2026-04-19T11:10:52.859Z</time></trkpt><trkpt lat="43.8648493" lon="12.5887506"><ele>156.0</ele><time>2026-04-19T11:10:53.852Z</time></trkpt><trkpt lat="43.86481" lon="12.5889591"><ele>156.5</ele><time>2026-04-19T11:10:54.853Z</time></trkpt><trkpt lat="43.864783" lon="12.5891602"><ele>157.0</ele><time>2026-04-19T11:10:55.844Z</time></trkpt><trkpt lat="43.8647597" lon="12.5893361"><ele>157.0</ele><time>2026-04-19T11:10:56.852Z</time></trkpt><trkpt lat="43.8647473" lon="12.5894748"><ele>157.0</ele><time>2026-04-19T11:10:57.848Z</time></trkpt><trkpt lat="43.8647346" lon="12.5895932"><ele>157.0</ele><time>2026-04-19T11:10:58.845Z</time></trkpt><trkpt lat="43.8647406" lon="12.5896967"><ele>157.0</ele><time>2026-04-19T11:10:59.861Z</time></trkpt><trkpt lat="43.8647656" lon="12.5898101"><ele>157.0</ele><time>2026-04-19T11:11:00.851Z</time></trkpt><trkpt lat="43.8648425" lon="12.5899492"><ele>156.75</ele><time>2026-04-19T11:11:01.85Z</time></trkpt><trkpt lat="43.8649413" lon="12.5901178"><ele>156.5</ele><time>2026-04-19T11:11:02.852Z</time></trkpt><trkpt lat="43.8650347" lon="12.590295"><ele>156.25</ele><time>2026-04-19T11:11:03.858Z</time></trkpt><trkpt lat="43.8651142" lon="12.5904278"><ele>156.0</ele><time>2026-04-19T11:11:04.843Z</time></trkpt><trkpt lat="43.8651954" lon="12.5905272"><ele>156.0</ele><time>2026-04-19T11:11:05.848Z</time></trkpt><trkpt lat="43.8652663" lon="12.5906052"><ele>156.0</ele><time>2026-04-19T11:11:06.85Z</time></trkpt><trkpt lat="43.8653232" lon="12.5906613"><ele>156.0</ele><time>2026-04-19T11:11:07.851Z</time></trkpt><trkpt lat="43.8654061" lon="12.5907404"><ele>156.0</ele><time>2026-04-19T11:11:09.85Z</time></trkpt><trkpt lat="43.8654832" lon="12.5907166"><ele>156.0</ele><time>2026-04-19T11:11:12.857Z</time></trkpt><trkpt lat="43.86554" lon="12.5905738"><ele>156.0</ele><time>2026-04-19T11:11:14.85Z</time></trkpt><trkpt lat="43.8655734" lon="12.5904644"><ele>156.0</ele><time>2026-04-19T11:11:15.85Z</time></trkpt><trkpt lat="43.8656058" lon="12.5903323"><ele>156.0</ele><time>2026-04-19T11:11:16.851Z</time></trkpt><trkpt lat="43.8656367" lon="12.5901851"><ele>156.0</ele><time>2026-04-19T11:11:17.85Z</time></trkpt><trkpt lat="43.8656721" lon="12.5900561"><ele>156.0</ele><time>2026-04-19T11:11:18.854Z</time></trkpt><trkpt lat="43.8657264" lon="12.5899506"><ele>155.66666666666666</ele><time>2026-04-19T11:11:19.858Z</time></trkpt><trkpt lat="43.8657883" lon="12.5898612"><ele>155.33333333333334</ele><time>2026-04-19T11:11:20.85Z</time></trkpt><trkpt lat="43.865865" lon="12.5897742"><ele>155.0</ele><time>2026-04-19T11:11:21.864Z</time></trkpt><trkpt lat="43.8659366" lon="12.5896812"><ele>154.66666666666669</ele><time>2026-04-19T11:11:22.85Z</time></trkpt><trkpt lat="43.8659994" lon="12.5896033"><ele>154.33333333333334</ele><time>2026-04-19T11:11:23.847Z</time></trkpt><trkpt lat="43.8660594" lon="12.5895437"><ele>154.0</ele><time>2026-04-19T11:11:24.846Z</time></trkpt><trkpt lat="43.8661237" lon="12.5895361"><ele>153.6</ele><time>2026-04-19T11:11:25.845Z</time></trkpt><trkpt lat="43.8661995" lon="12.589562"><ele>153.2</ele><time>2026-04-19T11:11:26.854Z</time></trkpt><trkpt lat="43.8662827" lon="12.5896139"><ele>152.79999999999998</ele><time>2026-04-19T11:11:27.85Z</time></trkpt><trkpt lat="43.8663772" lon="12.5896471"><ele>152.4</ele><time>2026-04-19T11:11:28.86Z</time></trkpt><trkpt lat="43.8664405" lon="12.5896582"><ele>152.0</ele><time>2026-04-19T11:11:29.848Z</time></trkpt><trkpt lat="43.8665556" lon="12.5897326"><ele>152.0</ele><time>2026-04-19T11:11:31.847Z</time></trkpt><trkpt lat="43.8666075" lon="12.5897933"><ele>152.0</ele><time>2026-04-19T11:11:32.847Z</time></trkpt><trkpt lat="43.8667333" lon="12.5898146"><ele>152.0</ele><time>2026-04-19T11:11:34.848Z</time></trkpt><trkpt lat="43.8668153" lon="12.5898208"><ele>152.0</ele><time>2026-04-19T11:11:35.864Z</time></trkpt><trkpt lat="43.8669196" lon="12.5898336"><ele>152.0</ele><time>2026-04-19T11:11:36.846Z</time></trkpt><trkpt lat="43.8670336" lon="12.5898511"><ele>152.4</ele><time>2026-04-19T11:11:37.844Z</time></trkpt><trkpt lat="43.8671386" lon="12.5898651"><ele>152.79999999999998</ele><time>2026-04-19T11:11:38.85Z</time></trkpt><trkpt lat="43.8672377" lon="12.5898945"><ele>153.2</ele><time>2026-04-19T11:11:39.848Z</time></trkpt><trkpt lat="43.8673435" lon="12.5899482"><ele>153.6</ele><time>2026-04-19T11:11:40.86Z</time></trkpt><trkpt lat="43.8674494" lon="12.590008"><ele>154.0</ele><time>2026-04-19T11:11:41.845Z</time></trkpt><trkpt lat="43.8675529" lon="12.5900648"><ele>154.0</ele><time>2026-04-19T11:11:42.844Z</time></trkpt><trkpt lat="43.8676523" lon="12.5901273"><ele>154.0</ele><time>2026-04-19T11:11:43.848Z</time></trkpt><trkpt lat="43.8677451" lon="12.5901838"><ele>154.0</ele><time>2026-04-19T11:11:44.848Z</time></trkpt><trkpt lat="43.8678207" lon="12.5902277"><ele>154.0</ele><time>2026-04-19T11:11:45.849Z</time></trkpt><trkpt lat="43.8678841" lon="12.5902503"><ele>154.0</ele><time>2026-04-19T11:11:46.848Z</time></trkpt><trkpt lat="43.8680171" lon="12.5902432"><ele>154.0</ele><time>2026-04-19T11:11:48.849Z</time></trkpt><trkpt lat="43.8681141" lon="12.5902327"><ele>154.0</ele><time>2026-04-19T11:11:49.848Z</time></trkpt><trkpt lat="43.8682082" lon="12.5902303"><ele>154.0</ele><time>2026-04-19T11:11:50.847Z</time></trkpt><trkpt lat="43.8683084" lon="12.5902335"><ele>154.0</ele><time>2026-04-19T11:11:51.847Z</time></trkpt><trkpt lat="43.8683925" lon="12.5902339"><ele>154.0</ele><time>2026-04-19T11:11:52.853Z</time></trkpt><trkpt lat="43.8685083" lon="12.590266"><ele>154.16666666666669</ele><time>2026-04-19T11:11:54.852Z</time></trkpt><trkpt lat="43.8685657" lon="12.5903297"><ele>154.33333333333334</ele><time>2026-04-19T11:11:55.848Z</time></trkpt><trkpt lat="43.8686238" lon="12.5903997"><ele>154.5</ele><time>2026-04-19T11:11:56.863Z</time></trkpt><trkpt lat="43.8687226" lon="12.590405"><ele>154.66666666666666</ele><time>2026-04-19T11:11:58.85Z</time></trkpt><trkpt lat="43.8688107" lon="12.5902925"><ele>154.83333333333331</ele><time>2026-04-19T11:12:00.857Z</time></trkpt><trkpt lat="43.8688818" lon="12.5902685"><ele>155.0</ele><time>2026-04-19T11:12:01.854Z</time></trkpt><trkpt lat="43.8689592" lon="12.5902741"><ele>155.0</ele><time>2026-04-19T11:12:02.858Z</time></trkpt><trkpt lat="43.8690348" lon="12.5903023"><ele>155.0</ele><time>2026-04-19T11:12:03.847Z</time></trkpt><trkpt lat="43.8691003" lon="12.5903424"><ele>155.0</ele><time>2026-04-19T11:12:04.843Z</time></trkpt><trkpt lat="43.8691642" lon="12.5903969"><ele>155.0</ele><time>2026-04-19T11:12:06.847Z</time></trkpt><trkpt lat="43.8692647" lon="12.5904158"><ele>155.0</ele><time>2026-04-19T11:12:09.854Z</time></trkpt><trkpt lat="43.8693399" lon="12.5903989"><ele>155.0</ele><time>2026-04-19T11:12:12.932Z</time></trkpt><trkpt lat="43.8694026" lon="12.5904914"><ele>154.57142857142858</ele><time>2026-04-19T11:12:14.847Z</time></trkpt><trkpt lat="43.869452" lon="12.5905718"><ele>154.14285714285714</ele><time>2026-04-19T11:12:16.887Z</time></trkpt><trkpt lat="43.8695244" lon="12.5906127"><ele>153.71428571428572</ele><time>2026-04-19T11:12:19.886Z</time></trkpt><trkpt lat="43.8695455" lon="12.5907146"><ele>153.28571428571428</ele><time>2026-04-19T11:12:22.927Z</time></trkpt><trkpt lat="43.8695712" lon="12.5908114"><ele>152.85714285714286</ele><time>2026-04-19T11:12:26.846Z</time></trkpt><trkpt lat="43.8695694" lon="12.5909053"><ele>152.42857142857142</ele><time>2026-04-19T11:12:30.928Z</time></trkpt><trkpt lat="43.869557" lon="12.591007"><ele>152.0</ele><time>2026-04-19T11:12:34.871Z</time></trkpt><trkpt lat="43.8695764" lon="12.5911036"><ele>152.0</ele><time>2026-04-19T11:12:36.927Z</time></trkpt><trkpt lat="43.8695484" lon="12.5912218"><ele>152.0</ele><time>2026-04-19T11:12:39.152Z</time></trkpt><trkpt lat="43.8695204" lon="12.5913383"><ele>152.0</ele><time>2026-04-19T11:12:41.615Z</time></trkpt><trkpt lat="43.8695176" lon="12.5914289"><ele>152.0</ele><time>2026-04-19T11:12:43.927Z</time></trkpt><trkpt lat="43.869552" lon="12.591512"><ele>152.0</ele><time>2026-04-19T11:12:47.853Z</time></trkpt><trkpt lat="43.8696149" lon="12.5915898"><ele>152.0</ele><time>2026-04-19T11:12:50.929Z</time></trkpt><trkpt lat="43.8696642" lon="12.5916513"><ele>152.0</ele><time>2026-04-19T11:12:53.866Z</time></trkpt><trkpt lat="43.8697517" lon="12.5916911"><ele>152.0</ele><time>2026-04-19T11:12:56.87Z</time></trkpt><trkpt lat="43.8698311" lon="12.5916925"><ele>152.0</ele><time>2026-04-19T11:12:57.851Z</time></trkpt><trkpt lat="43.8699164" lon="12.5916903"><ele>152.0</ele><time>2026-04-19T11:12:58.853Z</time></trkpt><trkpt lat="43.8699923" lon="12.5916918"><ele>152.0</ele><time>2026-04-19T11:12:59.848Z</time></trkpt><trkpt lat="43.8700614" lon="12.5916911"><ele>152.0</ele><time>2026-04-19T11:13:00.86Z</time></trkpt><trkpt lat="43.8701321" lon="12.5916996"><ele>152.0</ele><time>2026-04-19T11:13:01.852Z</time></trkpt><trkpt lat="43.8701971" lon="12.5917125"><ele>152.0</ele><time>2026-04-19T11:13:02.849Z</time></trkpt><trkpt lat="43.8703162" lon="12.5917211"><ele>152.0</ele><time>2026-04-19T11:13:04.853Z</time></trkpt><trkpt lat="43.8704187" lon="12.5917137"><ele>152.0</ele><time>2026-04-19T11:13:06.853Z</time></trkpt><trkpt lat="43.870483" lon="12.591742"><ele>152.0</ele><time>2026-04-19T11:13:08.859Z</time></trkpt><trkpt lat="43.8705569" lon="12.5917826"><ele>152.0</ele><time>2026-04-19T11:13:10.854Z</time></trkpt><trkpt lat="43.8706374" lon="12.5917771"><ele>152.0</ele><time>2026-04-19T11:13:12.853Z</time></trkpt><trkpt lat="43.8707098" lon="12.5917809"><ele>152.0</ele><time>2026-04-19T11:13:15.857Z</time></trkpt><trkpt lat="43.8707934" lon="12.5917867"><ele>152.0</ele><time>2026-04-19T11:13:17.853Z</time></trkpt><trkpt lat="43.8708704" lon="12.5918002"><ele>152.0</ele><time>2026-04-19T11:13:19.876Z</time></trkpt><trkpt lat="43.8709446" lon="12.5918081"><ele>152.0</ele><time>2026-04-19T11:13:21.941Z</time></trkpt><trkpt lat="43.8710278" lon="12.5918171"><ele>152.0</ele><time>2026-04-19T11:13:23.823Z</time></trkpt><trkpt lat="43.8711086" lon="12.5918494"><ele>151.57142857142856</ele><time>2026-04-19T11:13:25.918Z</time></trkpt><trkpt lat="43.8711865" lon="12.5918994"><ele>151.14285714285717</ele><time>2026-04-19T11:13:26.858Z</time></trkpt><trkpt lat="43.8712668" lon="12.5919411"><ele>150.71428571428572</ele><time>2026-04-19T11:13:27.849Z</time></trkpt><trkpt lat="43.871331" lon="12.5919742"><ele>150.28571428571428</ele><time>2026-04-19T11:13:28.871Z</time></trkpt><trkpt lat="43.871393" lon="12.592006"><ele>149.85714285714283</ele><time>2026-04-19T11:13:30.869Z</time></trkpt><trkpt lat="43.8714559" lon="12.591982"><ele>149.42857142857142</ele><time>2026-04-19T11:13:33.858Z</time></trkpt><trkpt lat="43.8715182" lon="12.5919507"><ele>149.0</ele><time>2026-04-19T11:13:35.856Z</time></trkpt><trkpt lat="43.871595" lon="12.5919826"><ele>149.0</ele><time>2026-04-19T11:13:42.869Z</time></trkpt><trkpt lat="43.8716631" lon="12.5919873"><ele>149.0</ele><time>2026-04-19T11:13:45.852Z</time></trkpt><trkpt lat="43.8717345" lon="12.592092"><ele>149.0</ele><time>2026-04-19T11:13:47.847Z</time></trkpt><trkpt lat="43.8717896" lon="12.592192"><ele>149.0</ele><time>2026-04-19T11:13:48.854Z</time></trkpt><trkpt lat="43.8718329" lon="12.5922662"><ele>149.0</ele><time>2026-04-19T11:13:49.852Z</time></trkpt><trkpt lat="43.8719402" lon="12.5923562"><ele>149.0</ele><time>2026-04-19T11:13:51.846Z</time></trkpt><trkpt lat="43.8720128" lon="12.5923782"><ele>149.0</ele><time>2026-04-19T11:13:52.853Z</time></trkpt><trkpt lat="43.8720833" lon="12.5923777"><ele>149.0</ele><time>2026-04-19T11:13:53.85Z</time></trkpt><trkpt lat="43.8721441" lon="12.5923523"><ele>149.0</ele><time>2026-04-19T11:13:54.85Z</time></trkpt><trkpt lat="43.8722288" lon="12.5922848"><ele>149.0</ele><time>2026-04-19T11:13:56.854Z</time></trkpt><trkpt lat="43.8722944" lon="12.5922225"><ele>149.0</ele><time>2026-04-19T11:13:58.856Z</time></trkpt><trkpt lat="43.8723967" lon="12.5921742"><ele>149.0</ele><time>2026-04-19T11:14:00.855Z</time></trkpt><trkpt lat="43.8724613" lon="12.5921244"><ele>149.0</ele><time>2026-04-19T11:14:01.848Z</time></trkpt><trkpt lat="43.8725308" lon="12.592062"><ele>149.0</ele><time>2026-04-19T11:14:02.854Z</time></trkpt><trkpt lat="43.8725984" lon="12.5920126"><ele>149.0</ele><time>2026-04-19T11:14:03.848Z</time></trkpt><trkpt lat="43.8726579" lon="12.5919742"><ele>149.0</ele><time>2026-04-19T11:14:04.872Z</time></trkpt><trkpt lat="43.8727622" lon="12.591971"><ele>149.0</ele><time>2026-04-19T11:14:06.85Z</time></trkpt><trkpt lat="43.8728192" lon="12.5920485"><ele>148.5</ele><time>2026-04-19T11:14:10.926Z</time></trkpt><trkpt lat="43.872873" lon="12.5921525"><ele>148.0</ele><time>2026-04-19T11:14:11.851Z</time></trkpt><trkpt lat="43.8729281" lon="12.5922658"><ele>147.5</ele><time>2026-04-19T11:14:12.85Z</time></trkpt><trkpt lat="43.8729698" lon="12.5923514"><ele>147.0</ele><time>2026-04-19T11:14:13.857Z</time></trkpt><trkpt lat="43.8730136" lon="12.5924254"><ele>146.5</ele><time>2026-04-19T11:14:14.85Z</time></trkpt><trkpt lat="43.8730703" lon="12.5924913"><ele>146.0</ele><time>2026-04-19T11:14:15.849Z</time></trkpt><trkpt lat="43.8731255" lon="12.5925345"><ele>146.0</ele><time>2026-04-19T11:14:16.851Z</time></trkpt><trkpt lat="43.873184" lon="12.5925706"><ele>146.0</ele><time>2026-04-19T11:14:17.854Z</time></trkpt><trkpt lat="43.8732544" lon="12.5925757"><ele>146.0</ele><time>2026-04-19T11:14:18.871Z</time></trkpt><trkpt lat="43.8733228" lon="12.5925663"><ele>146.0</ele><time>2026-04-19T11:14:19.851Z</time></trkpt><trkpt lat="43.873392" lon="12.5925543"><ele>146.0</ele><time>2026-04-19T11:14:20.86Z</time></trkpt><trkpt lat="43.8734597" lon="12.5925531"><ele>146.0</ele><time>2026-04-19T11:14:21.853Z</time></trkpt><trkpt lat="43.8735339" lon="12.5925588"><ele>146.0</ele><time>2026-04-19T11:14:22.853Z</time></trkpt><trkpt lat="43.8736001" lon="12.5925606"><ele>145.6</ele><time>2026-04-19T11:14:23.856Z</time></trkpt><trkpt lat="43.8737023" lon="12.5924932"><ele>145.2</ele><time>2026-04-19T11:14:25.854Z</time></trkpt><trkpt lat="43.8737763" lon="12.5924019"><ele>144.8</ele><time>2026-04-19T11:14:27.863Z</time></trkpt><trkpt lat="43.8738408" lon="12.5923503"><ele>144.4</ele><time>2026-04-19T11:14:34.934Z</time></trkpt><trkpt lat="43.873918" lon="12.5922982"><ele>144.0</ele><time>2026-04-19T11:14:37.799Z</time></trkpt><trkpt lat="43.8739715" lon="12.5924015"><ele>144.0</ele><time>2026-04-19T11:14:38.857Z</time></trkpt><trkpt lat="43.8740035" lon="12.5924911"><ele>144.0</ele><time>2026-04-19T11:14:39.856Z</time></trkpt><trkpt lat="43.8740203" lon="12.5923957"><ele>144.0</ele><time>2026-04-19T11:14:42.743Z</time></trkpt><trkpt lat="43.8740566" lon="12.5926533"><ele>144.0</ele><time>2026-04-19T11:14:45.944Z</time></trkpt><trkpt lat="43.8741279" lon="12.5928343"><ele>143.83333333333334</ele><time>2026-04-19T11:14:46.849Z</time></trkpt><trkpt lat="43.8741812" lon="12.592947"><ele>143.66666666666666</ele><time>2026-04-19T11:14:47.851Z</time></trkpt><trkpt lat="43.874215" lon="12.5930225"><ele>143.5</ele><time>2026-04-19T11:14:48.854Z</time></trkpt><trkpt lat="43.8742787" lon="12.5931501"><ele>143.33333333333331</ele><time>2026-04-19T11:14:50.855Z</time></trkpt><trkpt lat="43.874328" lon="12.5932324"><ele>143.16666666666666</ele><time>2026-04-19T11:14:51.866Z</time></trkpt><trkpt lat="43.874382" lon="12.5933218"><ele>143.0</ele><time>2026-04-19T11:14:52.879Z</time></trkpt><trkpt lat="43.8744484" lon="12.593411"><ele>143.0</ele><time>2026-04-19T11:14:53.862Z</time></trkpt><trkpt lat="43.874509" lon="12.5934846"><ele>143.0</ele><time>2026-04-19T11:14:54.852Z</time></trkpt><trkpt lat="43.8745639" lon="12.5935523"><ele>143.0</ele><time>2026-04-19T11:14:55.853Z</time></trkpt><trkpt lat="43.8746303" lon="12.5936357"><ele>143.0</ele><time>2026-04-19T11:14:56.853Z</time></trkpt><trkpt lat="43.8746944" lon="12.593722"><ele>143.0</ele><time>2026-04-19T11:14:57.871Z</time></trkpt><trkpt lat="43.8747603" lon="12.5937993"><ele>143.0</ele><time>2026-04-19T11:14:58.854Z</time></trkpt><trkpt lat="43.8748353" lon="12.5938668"><ele>144.0</ele><time>2026-04-19T11:14:59.853Z</time></trkpt><trkpt lat="43.8749048" lon="12.5939256"><ele>145.0</ele><time>2026-04-19T11:15:00.856Z</time></trkpt><trkpt lat="43.8749667" lon="12.5939824"><ele>146.0</ele><time>2026-04-19T11:15:01.854Z</time></trkpt><trkpt lat="43.8750209" lon="12.5940406"><ele>147.0</ele><time>2026-04-19T11:15:02.867Z</time></trkpt><trkpt lat="43.8750847" lon="12.5941434"><ele>148.0</ele><time>2026-04-19T11:15:04.852Z</time></trkpt><trkpt lat="43.8750869" lon="12.5942805"><ele>149.0</ele><time>2026-04-19T11:15:06.858Z</time></trkpt><trkpt lat="43.8750957" lon="12.5944675"><ele>152.6</ele><time>2026-04-19T11:15:08.871Z</time></trkpt><trkpt lat="43.8751195" lon="12.5945815"><ele>156.2</ele><time>2026-04-19T11:15:09.858Z</time></trkpt><trkpt lat="43.8751472" lon="12.5946829"><ele>159.79999999999998</ele><time>2026-04-19T11:15:10.851Z</time></trkpt><trkpt lat="43.8752313" lon="12.594747"><ele>163.4</ele><time>2026-04-19T11:15:12.858Z</time></trkpt><trkpt lat="43.8753507" lon="12.5947659"><ele>167.0</ele><time>2026-04-19T11:15:14.849Z</time></trkpt><trkpt lat="43.8754311" lon="12.594787"><ele>167.0</ele><time>2026-04-19T11:15:15.853Z</time></trkpt><trkpt lat="43.8755167" lon="12.5948099"><ele>167.0</ele><time>2026-04-19T11:15:16.85Z</time></trkpt><trkpt lat="43.8756184" lon="12.5948392"><ele>167.0</ele><time>2026-04-19T11:15:17.868Z</time></trkpt><trkpt lat="43.8757416" lon="12.5948745"><ele>167.0</ele><time>2026-04-19T11:15:18.852Z</time></trkpt><trkpt lat="43.8758751" lon="12.5949123"><ele>169.75</ele><time>2026-04-19T11:15:19.854Z</time></trkpt><trkpt lat="43.8759967" lon="12.5949432"><ele>172.5</ele><time>2026-04-19T11:15:20.849Z</time></trkpt><trkpt lat="43.8761133" lon="12.5949576"><ele>175.25</ele><time>2026-04-19T11:15:21.858Z</time></trkpt><trkpt lat="43.8762355" lon="12.5949622"><ele>178.0</ele><time>2026-04-19T11:15:22.849Z</time></trkpt><trkpt lat="43.8763572" lon="12.5949604"><ele>178.0</ele><time>2026-04-19T11:15:23.848Z</time></trkpt><trkpt lat="43.8764633" lon="12.5949512"><ele>178.0</ele><time>2026-04-19T11:15:24.849Z</time></trkpt><trkpt lat="43.8765663" lon="12.5949442"><ele>178.0</ele><time>2026-04-19T11:15:25.853Z</time></trkpt><trkpt lat="43.8766571" lon="12.5949473"><ele>178.0</ele><time>2026-04-19T11:15:26.846Z</time></trkpt><trkpt lat="43.8767354" lon="12.5949554"><ele>178.0</ele><time>2026-04-19T11:15:27.853Z</time></trkpt><trkpt lat="43.8768012" lon="12.5949731"><ele>178.0</ele><time>2026-04-19T11:15:28.849Z</time></trkpt><trkpt lat="43.8769166" lon="12.5950474"><ele>178.83333333333334</ele><time>2026-04-19T11:15:30.848Z</time></trkpt><trkpt lat="43.8769712" lon="12.5951298"><ele>179.66666666666669</ele><time>2026-04-19T11:15:31.857Z</time></trkpt><trkpt lat="43.8770236" lon="12.5952342"><ele>180.5</ele><time>2026-04-19T11:15:32.853Z</time></trkpt><trkpt lat="43.8770738" lon="12.5953473"><ele>181.33333333333334</ele><time>2026-04-19T11:15:33.852Z</time></trkpt><trkpt lat="43.8771168" lon="12.5954484"><ele>182.16666666666666</ele><time>2026-04-19T11:15:34.849Z</time></trkpt><trkpt lat="43.8771582" lon="12.5955444"><ele>183.0</ele><time>2026-04-19T11:15:35.856Z</time></trkpt><trkpt lat="43.8772014" lon="12.5956433"><ele>184.5</ele><time>2026-04-19T11:15:36.847Z</time></trkpt><trkpt lat="43.8772525" lon="12.5957473"><ele>186.0</ele><time>2026-04-19T11:15:37.865Z</time></trkpt><trkpt lat="43.87731" lon="12.5958577"><ele>187.5</ele><time>2026-04-19T11:15:38.849Z</time></trkpt><trkpt lat="43.8773646" lon="12.5959605"><ele>189.0</ele><time>2026-04-19T11:15:39.846Z</time></trkpt><trkpt lat="43.8774204" lon="12.5960434"><ele>190.5</ele><time>2026-04-19T11:15:40.85Z</time></trkpt><trkpt lat="43.8774769" lon="12.5961257"><ele>192.0</ele><time>2026-04-19T11:15:41.847Z</time></trkpt><trkpt lat="43.877536" lon="12.5962128"><ele>192.8</ele><time>2026-04-19T11:15:42.849Z</time></trkpt><trkpt lat="43.8775916" lon="12.5962945"><ele>193.6</ele><time>2026-04-19T11:15:43.852Z</time></trkpt><trkpt lat="43.8776284" lon="12.5963762"><ele>194.4</ele><time>2026-04-19T11:15:44.85Z</time></trkpt><trkpt lat="43.8776523" lon="12.5964901"><ele>195.20000000000002</ele><time>2026-04-19T11:15:45.848Z</time></trkpt><trkpt lat="43.8776739" lon="12.5966734"><ele>196.0</ele><time>2026-04-19T11:15:46.854Z</time></trkpt><trkpt lat="43.8776954" lon="12.5968697"><ele>195.5</ele><time>2026-04-19T11:15:47.846Z</time></trkpt><trkpt lat="43.8777258" lon="12.5970654"><ele>195.0</ele><time>2026-04-19T11:15:48.849Z</time></trkpt><trkpt lat="43.8777603" lon="12.597233"><ele>194.5</ele><time>2026-04-19T11:15:49.855Z</time></trkpt><trkpt lat="43.8777994" lon="12.5973771"><ele>194.0</ele><time>2026-04-19T11:15:50.842Z</time></trkpt><trkpt lat="43.8778416" lon="12.5975122"><ele>194.0</ele><time>2026-04-19T11:15:51.864Z</time></trkpt><trkpt lat="43.8778997" lon="12.5976389"><ele>194.0</ele><time>2026-04-19T11:15:52.849Z</time></trkpt><trkpt lat="43.8779632" lon="12.5977745"><ele>194.0</ele><time>2026-04-19T11:15:53.855Z</time></trkpt><trkpt lat="43.8780158" lon="12.5979205"><ele>194.0</ele><time>2026-04-19T11:15:54.846Z</time></trkpt><trkpt lat="43.8780538" lon="12.5980707"><ele>196.75</ele><time>2026-04-19T11:15:55.845Z</time></trkpt><trkpt lat="43.878077" lon="12.5982247"><ele>199.5</ele><time>2026-04-19T11:15:56.86Z</time></trkpt><trkpt lat="43.8780919" lon="12.598379"><ele>202.25</ele><time>2026-04-19T11:15:57.849Z</time></trkpt><trkpt lat="43.8781008" lon="12.5985476"><ele>205.0</ele><time>2026-04-19T11:15:58.863Z</time></trkpt><trkpt lat="43.878108" lon="12.598737"><ele>206.75</ele><time>2026-04-19T11:15:59.854Z</time></trkpt><trkpt lat="43.8781151" lon="12.5989501"><ele>208.5</ele><time>2026-04-19T11:16:00.849Z</time></trkpt><trkpt lat="43.8781261" lon="12.5991539"><ele>210.25</ele><time>2026-04-19T11:16:01.849Z</time></trkpt><trkpt lat="43.8781387" lon="12.5993455"><ele>212.0</ele><time>2026-04-19T11:16:02.849Z</time></trkpt><trkpt lat="43.8781489" lon="12.599543"><ele>214.0</ele><time>2026-04-19T11:16:03.852Z</time></trkpt><trkpt lat="43.8781578" lon="12.599745"><ele>216.0</ele><time>2026-04-19T11:16:04.848Z</time></trkpt><trkpt lat="43.8781639" lon="12.5999358"><ele>218.0</ele><time>2026-04-19T11:16:05.867Z</time></trkpt><trkpt lat="43.8781686" lon="12.6001007"><ele>220.0</ele><time>2026-04-19T11:16:06.844Z</time></trkpt><trkpt lat="43.8781717" lon="12.6002564"><ele>221.6</ele><time>2026-04-19T11:16:07.854Z</time></trkpt><trkpt lat="43.878174" lon="12.6004129"><ele>223.2</ele><time>2026-04-19T11:16:08.846Z</time></trkpt><trkpt lat="43.8781826" lon="12.6005591"><ele>224.8</ele><time>2026-04-19T11:16:09.853Z</time></trkpt><trkpt lat="43.8782055" lon="12.6006853"><ele>226.4</ele><time>2026-04-19T11:16:10.851Z</time></trkpt><trkpt lat="43.8782487" lon="12.6007941"><ele>228.0</ele><time>2026-04-19T11:16:11.848Z</time></trkpt><trkpt lat="43.8782987" lon="12.6009026"><ele>228.0</ele><time>2026-04-19T11:16:12.855Z</time></trkpt><trkpt lat="43.8783761" lon="12.6010232"><ele>228.0</ele><time>2026-04-19T11:16:13.85Z</time></trkpt><trkpt lat="43.8784487" lon="12.6011514"><ele>228.0</ele><time>2026-04-19T11:16:14.849Z</time></trkpt><trkpt lat="43.8785016" lon="12.6012787"><ele>228.0</ele><time>2026-04-19T11:16:15.85Z</time></trkpt><trkpt lat="43.8785386" lon="12.601416"><ele>228.0</ele><time>2026-04-19T11:16:16.856Z</time></trkpt><trkpt lat="43.8785568" lon="12.6015678"><ele>229.25</ele><time>2026-04-19T11:16:17.853Z</time></trkpt><trkpt lat="43.8785605" lon="12.6017153"><ele>230.5</ele><time>2026-04-19T11:16:18.846Z</time></trkpt><trkpt lat="43.8785389" lon="12.6018667"><ele>231.75</ele><time>2026-04-19T11:16:19.855Z</time></trkpt><trkpt lat="43.8785063" lon="12.6020322"><ele>233.0</ele><time>2026-04-19T11:16:20.851Z</time></trkpt><trkpt lat="43.8784827" lon="12.6021906"><ele>235.25</ele><time>2026-04-19T11:16:21.864Z</time></trkpt><trkpt lat="43.8784723" lon="12.6023659"><ele>237.5</ele><time>2026-04-19T11:16:22.849Z</time></trkpt><trkpt lat="43.8784698" lon="12.6025666"><ele>239.75</ele><time>2026-04-19T11:16:23.847Z</time></trkpt><trkpt lat="43.8784799" lon="12.6027731"><ele>242.0</ele><time>2026-04-19T11:16:24.849Z</time></trkpt><trkpt lat="43.8784953" lon="12.6029778"><ele>245.0</ele><time>2026-04-19T11:16:25.854Z</time></trkpt><trkpt lat="43.8785182" lon="12.6031842"><ele>248.0</ele><time>2026-04-19T11:16:26.848Z</time></trkpt><trkpt lat="43.8785372" lon="12.6034013"><ele>251.0</ele><time>2026-04-19T11:16:27.869Z</time></trkpt><trkpt lat="43.8785546" lon="12.6036253"><ele>254.0</ele><time>2026-04-19T11:16:28.845Z</time></trkpt><trkpt lat="43.8785709" lon="12.6038516"><ele>257.0</ele><time>2026-04-19T11:16:29.852Z</time></trkpt><trkpt lat="43.8785856" lon="12.6040379"><ele>260.0</ele><time>2026-04-19T11:16:30.845Z</time></trkpt><trkpt lat="43.8786072" lon="12.6041914"><ele>263.0</ele><time>2026-04-19T11:16:31.847Z</time></trkpt><trkpt lat="43.87864" lon="12.6043339"><ele>263.0</ele><time>2026-04-19T11:16:32.854Z</time></trkpt><trkpt lat="43.8786799" lon="12.6044638"><ele>263.0</ele><time>2026-04-19T11:16:33.845Z</time></trkpt><trkpt lat="43.87874" lon="12.60458"><ele>263.0</ele><time>2026-04-19T11:16:34.862Z</time></trkpt><trkpt lat="43.8788125" lon="12.6046841"><ele>263.0</ele><time>2026-04-19T11:16:35.853Z</time></trkpt><trkpt lat="43.8788938" lon="12.6047897"><ele>263.0</ele><time>2026-04-19T11:16:36.851Z</time></trkpt><trkpt lat="43.8789928" lon="12.6049066"><ele>266.5</ele><time>2026-04-19T11:16:37.847Z</time></trkpt><trkpt lat="43.8790888" lon="12.6050421"><ele>270.0</ele><time>2026-04-19T11:16:38.857Z</time></trkpt><trkpt lat="43.8791892" lon="12.6051965"><ele>273.5</ele><time>2026-04-19T11:16:39.849Z</time></trkpt><trkpt lat="43.8792729" lon="12.6053742"><ele>277.0</ele><time>2026-04-19T11:16:40.855Z</time></trkpt><trkpt lat="43.879345" lon="12.6055597"><ele>278.25</ele><time>2026-04-19T11:16:41.848Z</time></trkpt><trkpt lat="43.8794027" lon="12.6057395"><ele>279.5</ele><time>2026-04-19T11:16:42.856Z</time></trkpt><trkpt lat="43.8794436" lon="12.6059045"><ele>280.75</ele><time>2026-04-19T11:16:43.857Z</time></trkpt><trkpt lat="43.8794676" lon="12.6060773"><ele>282.0</ele><time>2026-04-19T11:16:44.852Z</time></trkpt><trkpt lat="43.8794804" lon="12.606272"><ele>285.0</ele><time>2026-04-19T11:16:45.851Z</time></trkpt><trkpt lat="43.879493" lon="12.6064673"><ele>288.0</ele><time>2026-04-19T11:16:46.884Z</time></trkpt><trkpt lat="43.8795048" lon="12.6066429"><ele>291.0</ele><time>2026-04-19T11:16:47.848Z</time></trkpt><trkpt lat="43.8795203" lon="12.6068206"><ele>294.0</ele><time>2026-04-19T11:16:48.853Z</time></trkpt><trkpt lat="43.87954" lon="12.6070207"><ele>297.75</ele><time>2026-04-19T11:16:49.849Z</time></trkpt><trkpt lat="43.8795556" lon="12.6072379"><ele>301.5</ele><time>2026-04-19T11:16:50.85Z</time></trkpt><trkpt lat="43.8795583" lon="12.6074392"><ele>305.25</ele><time>2026-04-19T11:16:51.852Z</time></trkpt><trkpt lat="43.8795505" lon="12.6076251"><ele>309.0</ele><time>2026-04-19T11:16:52.856Z</time></trkpt><trkpt lat="43.8795398" lon="12.6077968"><ele>310.5</ele><time>2026-04-19T11:16:53.849Z</time></trkpt><trkpt lat="43.8795259" lon="12.6079353"><ele>312.0</ele><time>2026-04-19T11:16:54.854Z</time></trkpt><trkpt lat="43.8795131" lon="12.6080389"><ele>313.5</ele><time>2026-04-19T11:16:55.854Z</time></trkpt><trkpt lat="43.8794953" lon="12.608147"><ele>315.0</ele><time>2026-04-19T11:16:57.853Z</time></trkpt><trkpt lat="43.8794064" lon="12.6082275"><ele>316.5</ele><time>2026-04-19T11:17:00.853Z</time></trkpt><trkpt lat="43.8793276" lon="12.6082401"><ele>318.0</ele><time>2026-04-19T11:17:01.851Z</time></trkpt><trkpt lat="43.8792379" lon="12.6082474"><ele>318.0</ele><time>2026-04-19T11:17:02.865Z</time></trkpt><trkpt lat="43.8791468" lon="12.6082616"><ele>318.0</ele><time>2026-04-19T11:17:03.845Z</time></trkpt><trkpt lat="43.8790605" lon="12.6082811"><ele>318.0</ele><time>2026-04-19T11:17:04.853Z</time></trkpt><trkpt lat="43.878979" lon="12.6083042"><ele>318.0</ele><time>2026-04-19T11:17:05.86Z</time></trkpt><trkpt lat="43.8788909" lon="12.6083201"><ele>318.0</ele><time>2026-04-19T11:17:06.854Z</time></trkpt><trkpt lat="43.8787891" lon="12.6083344"><ele>318.0</ele><time>2026-04-19T11:17:07.867Z</time></trkpt><trkpt lat="43.8786664" lon="12.6083176"><ele>318.0</ele><time>2026-04-19T11:17:08.851Z</time></trkpt><trkpt lat="43.8785296" lon="12.6082875"><ele>318.0</ele><time>2026-04-19T11:17:09.861Z</time></trkpt><trkpt lat="43.878379" lon="12.6082471"><ele>318.0</ele><time>2026-04-19T11:17:10.851Z</time></trkpt><trkpt lat="43.8782166" lon="12.6082033"><ele>317.3333333333333</ele><time>2026-04-19T11:17:11.857Z</time></trkpt><trkpt lat="43.8780445" lon="12.6081585"><ele>316.66666666666663</ele><time>2026-04-19T11:17:12.852Z</time></trkpt><trkpt lat="43.8778613" lon="12.6081238"><ele>316.0</ele><time>2026-04-19T11:17:13.855Z</time></trkpt><trkpt lat="43.8776777" lon="12.6081032"><ele>314.0</ele><time>2026-04-19T11:17:14.852Z</time></trkpt><trkpt lat="43.8774881" lon="12.6081057"><ele>312.0</ele><time>2026-04-19T11:17:15.877Z</time></trkpt><trkpt lat="43.8773013" lon="12.6080996"><ele>310.0</ele><time>2026-04-19T11:17:16.853Z</time></trkpt><trkpt lat="43.8771173" lon="12.6080731"><ele>310.0</ele><time>2026-04-19T11:17:17.854Z</time></trkpt><trkpt lat="43.8769438" lon="12.6080146"><ele>310.0</ele><time>2026-04-19T11:17:18.857Z</time></trkpt><trkpt lat="43.8767807" lon="12.6079172"><ele>310.0</ele><time>2026-04-19T11:17:19.858Z</time></trkpt><trkpt lat="43.8766333" lon="12.6077832"><ele>309.0</ele><time>2026-04-19T11:17:20.872Z</time></trkpt><trkpt lat="43.8765028" lon="12.6076352"><ele>308.0</ele><time>2026-04-19T11:17:21.855Z</time></trkpt><trkpt lat="43.8763624" lon="12.6074941"><ele>307.0</ele><time>2026-04-19T11:17:22.857Z</time></trkpt><trkpt lat="43.8762192" lon="12.6073728"><ele>307.0</ele><time>2026-04-19T11:17:23.858Z</time></trkpt><trkpt lat="43.8760743" lon="12.6072716"><ele>307.0</ele><time>2026-04-19T11:17:24.861Z</time></trkpt><trkpt lat="43.875924" lon="12.6071944"><ele>307.0</ele><time>2026-04-19T11:17:25.861Z</time></trkpt><trkpt lat="43.8757717" lon="12.6071327"><ele>305.25</ele><time>2026-04-19T11:17:26.854Z</time></trkpt><trkpt lat="43.8756265" lon="12.6070798"><ele>303.5</ele><time>2026-04-19T11:17:27.848Z</time></trkpt><trkpt lat="43.8754916" lon="12.607027"><ele>301.75</ele><time>2026-04-19T11:17:28.854Z</time></trkpt><trkpt lat="43.8753654" lon="12.6069775"><ele>300.0</ele><time>2026-04-19T11:17:29.856Z</time></trkpt><trkpt lat="43.875249" lon="12.6069286"><ele>300.0</ele><time>2026-04-19T11:17:30.85Z</time></trkpt><trkpt lat="43.8751428" lon="12.6068857"><ele>300.0</ele><time>2026-04-19T11:17:31.857Z</time></trkpt><trkpt lat="43.8750476" lon="12.6068556"><ele>300.0</ele><time>2026-04-19T11:17:32.854Z</time></trkpt><trkpt lat="43.8749533" lon="12.6068523"><ele>300.0</ele><time>2026-04-19T11:17:33.883Z</time></trkpt><trkpt lat="43.8748568" lon="12.6068732"><ele>300.0</ele><time>2026-04-19T11:17:34.853Z</time></trkpt><trkpt lat="43.8747499" lon="12.6069208"><ele>300.2</ele><time>2026-04-19T11:17:35.85Z</time></trkpt><trkpt lat="43.8746437" lon="12.6069898"><ele>300.4</ele><time>2026-04-19T11:17:36.85Z</time></trkpt><trkpt lat="43.8745585" lon="12.6070742"><ele>300.6</ele><time>2026-04-19T11:17:37.847Z</time></trkpt><trkpt lat="43.8744978" lon="12.6071825"><ele>300.8</ele><time>2026-04-19T11:17:38.856Z</time></trkpt><trkpt lat="43.8744553" lon="12.6073199"><ele>301.0</ele><time>2026-04-19T11:17:39.852Z</time></trkpt><trkpt lat="43.8744266" lon="12.6074833"><ele>304.75</ele><time>2026-04-19T11:17:40.864Z</time></trkpt><trkpt lat="43.8744016" lon="12.607664"><ele>308.5</ele><time>2026-04-19T11:17:41.857Z</time></trkpt><trkpt lat="43.874377" lon="12.607835"><ele>312.25</ele><time>2026-04-19T11:17:42.846Z</time></trkpt><trkpt lat="43.8743618" lon="12.6079788"><ele>316.0</ele><time>2026-04-19T11:17:43.849Z</time></trkpt><trkpt lat="43.8743582" lon="12.6081047"><ele>316.25</ele><time>2026-04-19T11:17:44.849Z</time></trkpt><trkpt lat="43.8743783" lon="12.6082304"><ele>316.5</ele><time>2026-04-19T11:17:45.855Z</time></trkpt><trkpt lat="43.8744216" lon="12.608375"><ele>316.75</ele><time>2026-04-19T11:17:46.849Z</time></trkpt><trkpt lat="43.8744787" lon="12.6085475"><ele>317.0</ele><time>2026-04-19T11:17:47.881Z</time></trkpt><trkpt lat="43.874531" lon="12.6087169"><ele>317.0</ele><time>2026-04-19T11:17:48.85Z</time></trkpt><trkpt lat="43.8745673" lon="12.6088646"><ele>317.0</ele><time>2026-04-19T11:17:49.852Z</time></trkpt><trkpt lat="43.8745861" lon="12.6089623"><ele>317.0</ele><time>2026-04-19T11:17:50.849Z</time></trkpt><trkpt lat="43.8745883" lon="12.6090908"><ele>317.0</ele><time>2026-04-19T11:17:52.865Z</time></trkpt><trkpt lat="43.8744886" lon="12.609138"><ele>317.0</ele><time>2026-04-19T11:17:54.87Z</time></trkpt><trkpt lat="43.874426" lon="12.6091259"><ele>317.0</ele><time>2026-04-19T11:17:55.86Z</time></trkpt><trkpt lat="43.8743092" lon="12.6090784"><ele>315.6</ele><time>2026-04-19T11:17:57.854Z</time></trkpt><trkpt lat="43.8742073" lon="12.6091475"><ele>314.2</ele><time>2026-04-19T11:17:59.853Z</time></trkpt><trkpt lat="43.8741499" lon="12.6092241"><ele>312.8</ele><time>2026-04-19T11:18:00.865Z</time></trkpt><trkpt lat="43.8740756" lon="12.609327"><ele>311.4</ele><time>2026-04-19T11:18:01.858Z</time></trkpt><trkpt lat="43.8739979" lon="12.6094305"><ele>310.0</ele><time>2026-04-19T11:18:02.858Z</time></trkpt><trkpt lat="43.8739213" lon="12.6095222"><ele>308.8333333333333</ele><time>2026-04-19T11:18:03.851Z</time></trkpt><trkpt lat="43.8738518" lon="12.6096027"><ele>307.66666666666663</ele><time>2026-04-19T11:18:04.857Z</time></trkpt><trkpt lat="43.8737906" lon="12.6096867"><ele>306.5</ele><time>2026-04-19T11:18:05.856Z</time></trkpt><trkpt lat="43.8737405" lon="12.6097795"><ele>305.3333333333333</ele><time>2026-04-19T11:18:06.86Z</time></trkpt><trkpt lat="43.8737013" lon="12.6098749"><ele>304.1666666666667</ele><time>2026-04-19T11:18:07.851Z</time></trkpt><trkpt lat="43.8736614" lon="12.609981"><ele>303.0</ele><time>2026-04-19T11:18:08.856Z</time></trkpt><trkpt lat="43.8736124" lon="12.6100972"><ele>303.0</ele><time>2026-04-19T11:18:09.852Z</time></trkpt><trkpt lat="43.8735672" lon="12.6102144"><ele>303.0</ele><time>2026-04-19T11:18:10.86Z</time></trkpt><trkpt lat="43.8735296" lon="12.6103233"><ele>303.0</ele><time>2026-04-19T11:18:11.856Z</time></trkpt><trkpt lat="43.873498" lon="12.6104261"><ele>303.0</ele><time>2026-04-19T11:18:12.852Z</time></trkpt><trkpt lat="43.8734728" lon="12.6105285"><ele>303.0</ele><time>2026-04-19T11:18:13.851Z</time></trkpt><trkpt lat="43.8734535" lon="12.6106403"><ele>303.0</ele><time>2026-04-19T11:18:14.858Z</time></trkpt><trkpt lat="43.8734384" lon="12.6107567"><ele>300.3333333333333</ele><time>2026-04-19T11:18:15.848Z</time></trkpt><trkpt lat="43.8734345" lon="12.6108659"><ele>297.6666666666667</ele><time>2026-04-19T11:18:16.869Z</time></trkpt><trkpt lat="43.8734436" lon="12.6109524"><ele>295.0</ele><time>2026-04-19T11:18:17.861Z</time></trkpt><trkpt lat="43.8734629" lon="12.6110616"><ele>292.33333333333337</ele><time>2026-04-19T11:18:18.856Z</time></trkpt><trkpt lat="43.8734912" lon="12.6111889"><ele>289.6666666666667</ele><time>2026-04-19T11:18:19.854Z</time></trkpt><trkpt lat="43.8735201" lon="12.611316"><ele>287.0</ele><time>2026-04-19T11:18:20.855Z</time></trkpt><trkpt lat="43.8735348" lon="12.6114253"><ele>283.83333333333337</ele><time>2026-04-19T11:18:21.85Z</time></trkpt><trkpt lat="43.8735456" lon="12.6115328"><ele>280.6666666666667</ele><time>2026-04-19T11:18:22.859Z</time></trkpt><trkpt lat="43.8735471" lon="12.6116308"><ele>277.5</ele><time>2026-04-19T11:18:23.855Z</time></trkpt><trkpt lat="43.8735408" lon="12.6117291"><ele>274.3333333333333</ele><time>2026-04-19T11:18:24.857Z</time></trkpt><trkpt lat="43.8735278" lon="12.6118198"><ele>271.16666666666663</ele><time>2026-04-19T11:18:25.86Z</time></trkpt><trkpt lat="43.8734728" lon="12.6119566"><ele>268.0</ele><time>2026-04-19T11:18:27.855Z</time></trkpt><trkpt lat="43.8734151" lon="12.6120003"><ele>266.4</ele><time>2026-04-19T11:18:28.877Z</time></trkpt><trkpt lat="43.8733246" lon="12.612033"><ele>264.8</ele><time>2026-04-19T11:18:29.861Z</time></trkpt><trkpt lat="43.8732148" lon="12.6120561"><ele>263.2</ele><time>2026-04-19T11:18:30.857Z</time></trkpt><trkpt lat="43.8731229" lon="12.612067"><ele>261.6</ele><time>2026-04-19T11:18:31.867Z</time></trkpt><trkpt lat="43.8730382" lon="12.6120842"><ele>260.0</ele><time>2026-04-19T11:18:32.863Z</time></trkpt><trkpt lat="43.872947" lon="12.6121075"><ele>260.0</ele><time>2026-04-19T11:18:33.861Z</time></trkpt><trkpt lat="43.8728546" lon="12.6121385"><ele>260.0</ele><time>2026-04-19T11:18:34.868Z</time></trkpt><trkpt lat="43.872772" lon="12.6121684"><ele>260.0</ele><time>2026-04-19T11:18:35.854Z</time></trkpt><trkpt lat="43.8727027" lon="12.6121953"><ele>260.0</ele><time>2026-04-19T11:18:36.855Z</time></trkpt><trkpt lat="43.8726086" lon="12.6122181"><ele>260.0</ele><time>2026-04-19T11:18:38.861Z</time></trkpt><trkpt lat="43.8725242" lon="12.6121326"><ele>258.2</ele><time>2026-04-19T11:18:40.86Z</time></trkpt><trkpt lat="43.872487" lon="12.6120599"><ele>256.4</ele><time>2026-04-19T11:18:41.873Z</time></trkpt><trkpt lat="43.8723897" lon="12.6120097"><ele>254.60000000000002</ele><time>2026-04-19T11:18:43.857Z</time></trkpt><trkpt lat="43.8722571" lon="12.6120647"><ele>252.8</ele><time>2026-04-19T11:18:45.857Z</time></trkpt><trkpt lat="43.8721751" lon="12.6121421"><ele>251.0</ele><time>2026-04-19T11:18:46.852Z</time></trkpt><trkpt lat="43.8720927" lon="12.6122191"><ele>251.0</ele><time>2026-04-19T11:18:47.853Z</time></trkpt><trkpt lat="43.8720186" lon="12.6122947"><ele>251.00000000000003</ele><time>2026-04-19T11:18:48.853Z</time></trkpt><trkpt lat="43.8719486" lon="12.6123736"><ele>251.00000000000003</ele><time>2026-04-19T11:18:49.85Z</time></trkpt><trkpt lat="43.871879" lon="12.6124545"><ele>251.0</ele><time>2026-04-19T11:18:50.853Z</time></trkpt><trkpt lat="43.8718043" lon="12.6125346"><ele>251.0</ele><time>2026-04-19T11:18:51.85Z</time></trkpt><trkpt lat="43.871723" lon="12.6126126"><ele>248.4</ele><time>2026-04-19T11:18:52.866Z</time></trkpt><trkpt lat="43.8716418" lon="12.612682"><ele>245.8</ele><time>2026-04-19T11:18:53.852Z</time></trkpt><trkpt lat="43.8715663" lon="12.6127367"><ele>243.20000000000002</ele><time>2026-04-19T11:18:54.847Z</time></trkpt><trkpt lat="43.8714947" lon="12.6127919"><ele>240.60000000000002</ele><time>2026-04-19T11:18:55.855Z</time></trkpt><trkpt lat="43.871423" lon="12.6128791"><ele>238.0</ele><time>2026-04-19T11:18:56.854Z</time></trkpt><trkpt lat="43.8713481" lon="12.6129877"><ele>238.0</ele><time>2026-04-19T11:18:57.871Z</time></trkpt><trkpt lat="43.8712775" lon="12.6130992"><ele>238.0</ele><time>2026-04-19T11:18:58.855Z</time></trkpt><trkpt lat="43.8712178" lon="12.6132048"><ele>238.0</ele><time>2026-04-19T11:18:59.859Z</time></trkpt><trkpt lat="43.8711649" lon="12.6133116"><ele>238.0</ele><time>2026-04-19T11:19:00.852Z</time></trkpt><trkpt lat="43.8711261" lon="12.6134347"><ele>238.0</ele><time>2026-04-19T11:19:01.854Z</time></trkpt><trkpt lat="43.8710916" lon="12.6135731"><ele>236.66666666666666</ele><time>2026-04-19T11:19:02.86Z</time></trkpt><trkpt lat="43.8710611" lon="12.6137068"><ele>235.33333333333331</ele><time>2026-04-19T11:19:03.854Z</time></trkpt><trkpt lat="43.8710293" lon="12.6138157"><ele>234.0</ele><time>2026-04-19T11:19:04.889Z</time></trkpt><trkpt lat="43.8709877" lon="12.6139136"><ele>232.66666666666669</ele><time>2026-04-19T11:19:05.856Z</time></trkpt><trkpt lat="43.8709361" lon="12.6140025"><ele>231.33333333333334</ele><time>2026-04-19T11:19:06.852Z</time></trkpt><trkpt lat="43.8708799" lon="12.6140918"><ele>230.0</ele><time>2026-04-19T11:19:07.853Z</time></trkpt><trkpt lat="43.8708159" lon="12.6141931"><ele>230.0</ele><time>2026-04-19T11:19:08.854Z</time></trkpt><trkpt lat="43.870738" lon="12.6142986"><ele>230.0</ele><time>2026-04-19T11:19:09.856Z</time></trkpt><trkpt lat="43.8706519" lon="12.6144069"><ele>230.0</ele><time>2026-04-19T11:19:10.852Z</time></trkpt><trkpt lat="43.8705616" lon="12.6145104"><ele>230.0</ele><time>2026-04-19T11:19:11.872Z</time></trkpt><trkpt lat="43.8704806" lon="12.6145909"><ele>230.0</ele><time>2026-04-19T11:19:12.854Z</time></trkpt><trkpt lat="43.8704072" lon="12.6146664"><ele>228.83333333333334</ele><time>2026-04-19T11:19:13.855Z</time></trkpt><trkpt lat="43.8703463" lon="12.6147419"><ele>227.66666666666669</ele><time>2026-04-19T11:19:14.855Z</time></trkpt><trkpt lat="43.8702999" lon="12.6148064"><ele>226.5</ele><time>2026-04-19T11:19:15.858Z</time></trkpt><trkpt lat="43.8702076" lon="12.6149425"><ele>225.33333333333331</ele><time>2026-04-19T11:19:17.852Z</time></trkpt><trkpt lat="43.8701417" lon="12.6150108"><ele>224.16666666666666</ele><time>2026-04-19T11:19:18.862Z</time></trkpt><trkpt lat="43.8700693" lon="12.6150638"><ele>223.0</ele><time>2026-04-19T11:19:19.856Z</time></trkpt><trkpt lat="43.8699898" lon="12.6151114"><ele>223.0</ele><time>2026-04-19T11:19:20.856Z</time></trkpt><trkpt lat="43.8698997" lon="12.6151578"><ele>223.0</ele><time>2026-04-19T11:19:21.856Z</time></trkpt><trkpt lat="43.8698118" lon="12.6152031"><ele>223.0</ele><time>2026-04-19T11:19:22.857Z</time></trkpt><trkpt lat="43.8697273" lon="12.6152395"><ele>223.0</ele><time>2026-04-19T11:19:23.853Z</time></trkpt><trkpt lat="43.869657" lon="12.615271"><ele>223.0</ele><time>2026-04-19T11:19:24.875Z</time></trkpt><trkpt lat="43.8695453" lon="12.6152995"><ele>223.0</ele><time>2026-04-19T11:19:26.855Z</time></trkpt><trkpt lat="43.8694218" lon="12.6152842"><ele>223.0</ele><time>2026-04-19T11:19:28.854Z</time></trkpt><trkpt lat="43.8693496" lon="12.6152693"><ele>223.0</ele><time>2026-04-19T11:19:29.852Z</time></trkpt><trkpt lat="43.8692629" lon="12.6152558"><ele>223.0</ele><time>2026-04-19T11:19:30.87Z</time></trkpt><trkpt lat="43.8691781" lon="12.6152433"><ele>223.0</ele><time>2026-04-19T11:19:31.853Z</time></trkpt><trkpt lat="43.8690938" lon="12.6152294"><ele>220.16666666666666</ele><time>2026-04-19T11:19:32.852Z</time></trkpt><trkpt lat="43.8690105" lon="12.6152142"><ele>217.33333333333331</ele><time>2026-04-19T11:19:33.859Z</time></trkpt><trkpt lat="43.8689359" lon="12.6152004"><ele>214.5</ele><time>2026-04-19T11:19:34.853Z</time></trkpt><trkpt lat="43.8688693" lon="12.6151875"><ele>211.66666666666669</ele><time>2026-04-19T11:19:35.874Z</time></trkpt><trkpt lat="43.8687446" lon="12.6151678"><ele>208.83333333333334</ele><time>2026-04-19T11:19:37.856Z</time></trkpt><trkpt lat="43.8686816" lon="12.6151579"><ele>206.0</ele><time>2026-04-19T11:19:38.853Z</time></trkpt><trkpt lat="43.8685652" lon="12.6151358"><ele>206.0</ele><time>2026-04-19T11:19:40.858Z</time></trkpt><trkpt lat="43.8684484" lon="12.6151425"><ele>206.0</ele><time>2026-04-19T11:19:42.857Z</time></trkpt><trkpt lat="43.8683796" lon="12.6151482"><ele>206.0</ele><time>2026-04-19T11:19:43.868Z</time></trkpt><trkpt lat="43.8683091" lon="12.6151589"><ele>206.0</ele><time>2026-04-19T11:19:44.857Z</time></trkpt><trkpt lat="43.8681958" lon="12.6151771"><ele>206.0</ele><time>2026-04-19T11:19:46.855Z</time></trkpt><trkpt lat="43.8681018" lon="12.6151392"><ele>202.0</ele><time>2026-04-19T11:19:48.854Z</time></trkpt><trkpt lat="43.8680159" lon="12.615034"><ele>198.0</ele><time>2026-04-19T11:19:50.857Z</time></trkpt><trkpt lat="43.8679353" lon="12.6149159"><ele>194.0</ele><time>2026-04-19T11:19:52.849Z</time></trkpt><trkpt lat="43.8678571" lon="12.6148004"><ele>190.0</ele><time>2026-04-19T11:19:54.859Z</time></trkpt><trkpt lat="43.8677699" lon="12.6146835"><ele>190.0</ele><time>2026-04-19T11:19:56.857Z</time></trkpt><trkpt lat="43.8676859" lon="12.6146102"><ele>190.0</ele><time>2026-04-19T11:19:58.847Z</time></trkpt><trkpt lat="43.8675918" lon="12.6146343"><ele>190.0</ele><time>2026-04-19T11:20:00.86Z</time></trkpt><trkpt lat="43.8675203" lon="12.6146673"><ele>190.0</ele><time>2026-04-19T11:20:01.856Z</time></trkpt><trkpt lat="43.867448" lon="12.6146976"><ele>190.0</ele><time>2026-04-19T11:20:02.852Z</time></trkpt><trkpt lat="43.8673808" lon="12.6147219"><ele>190.0</ele><time>2026-04-19T11:20:03.858Z</time></trkpt><trkpt lat="43.8673118" lon="12.6147315"><ele>185.2</ele><time>2026-04-19T11:20:04.851Z</time></trkpt><trkpt lat="43.8672484" lon="12.614737"><ele>180.4</ele><time>2026-04-19T11:20:05.851Z</time></trkpt><trkpt lat="43.867145" lon="12.6147356"><ele>175.60000000000002</ele><time>2026-04-19T11:20:07.858Z</time></trkpt><trkpt lat="43.8670426" lon="12.6147328"><ele>170.8</ele><time>2026-04-19T11:20:09.854Z</time></trkpt><trkpt lat="43.8669239" lon="12.6146948"><ele>166.0</ele><time>2026-04-19T11:20:11.854Z</time></trkpt><trkpt lat="43.8668313" lon="12.6146102"><ele>166.0</ele><time>2026-04-19T11:20:13.852Z</time></trkpt><trkpt lat="43.8667871" lon="12.6145464"><ele>166.0</ele><time>2026-04-19T11:20:14.851Z</time></trkpt><trkpt lat="43.8667447" lon="12.6144758"><ele>166.0</ele><time>2026-04-19T11:20:15.865Z</time></trkpt><trkpt lat="43.8667029" lon="12.614409"><ele>166.0</ele><time>2026-04-19T11:20:16.855Z</time></trkpt><trkpt lat="43.8666039" lon="12.6143426"><ele>166.0</ele><time>2026-04-19T11:20:18.861Z</time></trkpt><trkpt lat="43.8665217" lon="12.6143816"><ele>166.0</ele><time>2026-04-19T11:20:20.85Z</time></trkpt><trkpt lat="43.8664143" lon="12.6144621"><ele>162.83333333333334</ele><time>2026-04-19T11:20:22.85Z</time></trkpt><trkpt lat="43.866314" lon="12.6145232"><ele>159.66666666666669</ele><time>2026-04-19T11:20:24.855Z</time></trkpt><trkpt lat="43.8662385" lon="12.6145336"><ele>156.5</ele><time>2026-04-19T11:20:27.863Z</time></trkpt><trkpt lat="43.8661867" lon="12.6144497"><ele>153.33333333333334</ele><time>2026-04-19T11:20:31.929Z</time></trkpt><trkpt lat="43.8661613" lon="12.614368"><ele>150.16666666666666</ele><time>2026-04-19T11:20:33.853Z</time></trkpt><trkpt lat="43.8661032" lon="12.6143082"><ele>147.0</ele><time>2026-04-19T11:20:36.889Z</time></trkpt><trkpt lat="43.8660171" lon="12.614305"><ele>147.0</ele><time>2026-04-19T11:20:38.855Z</time></trkpt><trkpt lat="43.8659397" lon="12.6144113"><ele>147.0</ele><time>2026-04-19T11:20:40.853Z</time></trkpt><trkpt lat="43.8659033" lon="12.6145064"><ele>147.0</ele><time>2026-04-19T11:20:41.867Z</time></trkpt><trkpt lat="43.8658694" lon="12.6146095"><ele>147.0</ele><time>2026-04-19T11:20:42.86Z</time></trkpt><trkpt lat="43.8658404" lon="12.6146905"><ele>147.0</ele><time>2026-04-19T11:20:43.848Z</time></trkpt><trkpt lat="43.8658238" lon="12.6147977"><ele>147.0</ele><time>2026-04-19T11:20:45.858Z</time></trkpt><trkpt lat="43.8658545" lon="12.6148822"><ele>147.0</ele><time>2026-04-19T11:20:46.879Z</time></trkpt><trkpt lat="43.8659042" lon="12.6149879"><ele>147.0</ele><time>2026-04-19T11:20:47.854Z</time></trkpt><trkpt lat="43.8659591" lon="12.6150921"><ele>147.0</ele><time>2026-04-19T11:20:48.855Z</time></trkpt><trkpt lat="43.8660103" lon="12.6151815"><ele>147.0</ele><time>2026-04-19T11:20:49.851Z</time></trkpt><trkpt lat="43.8660605" lon="12.6152605"><ele>147.0</ele><time>2026-04-19T11:20:50.854Z</time></trkpt><trkpt lat="43.8661254" lon="12.6153448"><ele>147.0</ele><time>2026-04-19T11:20:51.854Z</time></trkpt><trkpt lat="43.8662013" lon="12.6154516"><ele>146.6</ele><time>2026-04-19T11:20:52.853Z</time></trkpt><trkpt lat="43.8662775" lon="12.615565"><ele>146.2</ele><time>2026-04-19T11:20:53.855Z</time></trkpt><trkpt lat="43.8663392" lon="12.6156665"><ele>145.8</ele><time>2026-04-19T11:20:54.866Z</time></trkpt><trkpt lat="43.8663847" lon="12.6157697"><ele>145.4</ele><time>2026-04-19T11:20:55.861Z</time></trkpt><trkpt lat="43.8664192" lon="12.6158694"><ele>145.0</ele><time>2026-04-19T11:20:56.845Z</time></trkpt><trkpt lat="43.8664497" lon="12.6159664"><ele>145.0</ele><time>2026-04-19T11:20:57.852Z</time></trkpt><trkpt lat="43.8664772" lon="12.6160649"><ele>145.0</ele><time>2026-04-19T11:20:58.851Z</time></trkpt><trkpt lat="43.8665072" lon="12.6161572"><ele>145.0</ele><time>2026-04-19T11:20:59.866Z</time></trkpt><trkpt lat="43.8665485" lon="12.6162495"><ele>145.0</ele><time>2026-04-19T11:21:00.849Z</time></trkpt><trkpt lat="43.8665894" lon="12.6163507"><ele>145.0</ele><time>2026-04-19T11:21:01.851Z</time></trkpt><trkpt lat="43.8666293" lon="12.6164521"><ele>145.0</ele><time>2026-04-19T11:21:02.856Z</time></trkpt><trkpt lat="43.8666827" lon="12.6165718"><ele>144.8</ele><time>2026-04-19T11:21:03.847Z</time></trkpt><trkpt lat="43.866736" lon="12.616699"><ele>144.6</ele><time>2026-04-19T11:21:04.863Z</time></trkpt><trkpt lat="43.8667797" lon="12.6168123"><ele>144.4</ele><time>2026-04-19T11:21:05.85Z</time></trkpt><trkpt lat="43.8668249" lon="12.6169242"><ele>144.2</ele><time>2026-04-19T11:21:06.851Z</time></trkpt><trkpt lat="43.8668855" lon="12.6170527"><ele>144.0</ele><time>2026-04-19T11:21:07.847Z</time></trkpt><trkpt lat="43.86696" lon="12.6171913"><ele>144.0</ele><time>2026-04-19T11:21:08.851Z</time></trkpt><trkpt lat="43.8670501" lon="12.6173304"><ele>144.0</ele><time>2026-04-19T11:21:09.854Z</time></trkpt><trkpt lat="43.8671511" lon="12.6174708"><ele>144.0</ele><time>2026-04-19T11:21:10.857Z</time></trkpt><trkpt lat="43.8672486" lon="12.6176002"><ele>144.0</ele><time>2026-04-19T11:21:11.854Z</time></trkpt><trkpt lat="43.8673354" lon="12.6177078"><ele>144.0</ele><time>2026-04-19T11:21:12.855Z</time></trkpt><trkpt lat="43.867416" lon="12.6178105"><ele>144.0</ele><time>2026-04-19T11:21:13.849Z</time></trkpt><trkpt lat="43.8674933" lon="12.6179186"><ele>144.0</ele><time>2026-04-19T11:21:14.856Z</time></trkpt><trkpt lat="43.8675688" lon="12.6180296"><ele>144.0</ele><time>2026-04-19T11:21:15.86Z</time></trkpt><trkpt lat="43.867641" lon="12.6181397"><ele>144.0</ele><time>2026-04-19T11:21:16.856Z</time></trkpt><trkpt lat="43.8677095" lon="12.6182469"><ele>144.6</ele><time>2026-04-19T11:21:17.866Z</time></trkpt><trkpt lat="43.8677787" lon="12.6183563"><ele>145.2</ele><time>2026-04-19T11:21:18.855Z</time></trkpt><trkpt lat="43.8678533" lon="12.6184751"><ele>145.79999999999998</ele><time>2026-04-19T11:21:19.856Z</time></trkpt><trkpt lat="43.8679166" lon="12.6185856"><ele>146.4</ele><time>2026-04-19T11:21:20.857Z</time></trkpt><trkpt lat="43.8679644" lon="12.6186817"><ele>147.0</ele><time>2026-04-19T11:21:21.855Z</time></trkpt><trkpt lat="43.8680039" lon="12.6187728"><ele>145.6</ele><time>2026-04-19T11:21:22.849Z</time></trkpt><trkpt lat="43.8680377" lon="12.61887"><ele>144.2</ele><time>2026-04-19T11:21:23.852Z</time></trkpt><trkpt lat="43.868061" lon="12.6189668"><ele>142.8</ele><time>2026-04-19T11:21:24.867Z</time></trkpt><trkpt lat="43.8680846" lon="12.6190955"><ele>141.4</ele><time>2026-04-19T11:21:26.854Z</time></trkpt><trkpt lat="43.8681681" lon="12.619255"><ele>140.0</ele><time>2026-04-19T11:21:28.859Z</time></trkpt><trkpt lat="43.86822" lon="12.6193565"><ele>140.0</ele><time>2026-04-19T11:21:29.867Z</time></trkpt><trkpt lat="43.8682762" lon="12.6194551"><ele>140.0</ele><time>2026-04-19T11:21:30.855Z</time></trkpt><trkpt lat="43.8683511" lon="12.6195612"><ele>140.0</ele><time>2026-04-19T11:21:31.85Z</time></trkpt><trkpt lat="43.8684336" lon="12.6196763"><ele>140.0</ele><time>2026-04-19T11:21:32.858Z</time></trkpt><trkpt lat="43.868519" lon="12.6197853"><ele>140.0</ele><time>2026-04-19T11:21:33.855Z</time></trkpt><trkpt lat="43.8686069" lon="12.6198896"><ele>140.8</ele><time>2026-04-19T11:21:34.866Z</time></trkpt><trkpt lat="43.8686914" lon="12.6199914"><ele>141.6</ele><time>2026-04-19T11:21:35.853Z</time></trkpt><trkpt lat="43.8687716" lon="12.6200862"><ele>142.4</ele><time>2026-04-19T11:21:36.852Z</time></trkpt><trkpt lat="43.86885" lon="12.6201656"><ele>143.2</ele><time>2026-04-19T11:21:37.855Z</time></trkpt><trkpt lat="43.8689285" lon="12.6202313"><ele>144.0</ele><time>2026-04-19T11:21:38.848Z</time></trkpt><trkpt lat="43.8690106" lon="12.6202915"><ele>142.83333333333334</ele><time>2026-04-19T11:21:39.863Z</time></trkpt><trkpt lat="43.8690856" lon="12.6203463"><ele>141.66666666666666</ele><time>2026-04-19T11:21:40.853Z</time></trkpt><trkpt lat="43.8691458" lon="12.6204009"><ele>140.5</ele><time>2026-04-19T11:21:41.856Z</time></trkpt><trkpt lat="43.8691931" lon="12.6204604"><ele>139.33333333333331</ele><time>2026-04-19T11:21:42.857Z</time></trkpt><trkpt lat="43.8692518" lon="12.6205678"><ele>138.16666666666666</ele><time>2026-04-19T11:21:44.853Z</time></trkpt><trkpt lat="43.8692907" lon="12.620668"><ele>137.0</ele><time>2026-04-19T11:21:47.866Z</time></trkpt><trkpt lat="43.8693119" lon="12.620758"><ele>137.0</ele><time>2026-04-19T11:21:52.928Z</time></trkpt><trkpt lat="43.8692672" lon="12.6208308"><ele>137.0</ele><time>2026-04-19T11:21:56.928Z</time></trkpt><trkpt lat="43.8692922" lon="12.62094"><ele>137.0</ele><time>2026-04-19T11:22:00.821Z</time></trkpt><trkpt lat="43.8693026" lon="12.6210301"><ele>137.0</ele><time>2026-04-19T11:22:03.887Z</time></trkpt><trkpt lat="43.8693283" lon="12.6211417"><ele>137.0</ele><time>2026-04-19T11:22:06.928Z</time></trkpt><trkpt lat="43.8693661" lon="12.621318"><ele>137.0</ele><time>2026-04-19T11:22:08.856Z</time></trkpt><trkpt lat="43.8693638" lon="12.6214302"><ele>138.0</ele><time>2026-04-19T11:22:09.85Z</time></trkpt><trkpt lat="43.8693503" lon="12.6215586"><ele>139.0</ele><time>2026-04-19T11:22:10.848Z</time></trkpt><trkpt lat="43.8693361" lon="12.6216779"><ele>140.0</ele><time>2026-04-19T11:22:11.847Z</time></trkpt><trkpt lat="43.8693294" lon="12.6217831"><ele>141.0</ele><time>2026-04-19T11:22:12.852Z</time></trkpt><trkpt lat="43.8693283" lon="12.6218851"><ele>142.0</ele><time>2026-04-19T11:22:13.863Z</time></trkpt><trkpt lat="43.8693306" lon="12.6219918"><ele>143.0</ele><time>2026-04-19T11:22:14.847Z</time></trkpt><trkpt lat="43.8693333" lon="12.6220842"><ele>145.25</ele><time>2026-04-19T11:22:15.856Z</time></trkpt><trkpt lat="43.8693377" lon="12.6222524"><ele>147.5</ele><time>2026-04-19T11:22:17.85Z</time></trkpt><trkpt lat="43.8693372" lon="12.6224092"><ele>149.75</ele><time>2026-04-19T11:22:19.848Z</time></trkpt><trkpt lat="43.8693211" lon="12.6225784"><ele>152.0</ele><time>2026-04-19T11:22:21.849Z</time></trkpt><trkpt lat="43.8693049" lon="12.6227454"><ele>152.83333333333331</ele><time>2026-04-19T11:22:23.853Z</time></trkpt><trkpt lat="43.8692975" lon="12.622847"><ele>153.66666666666666</ele><time>2026-04-19T11:22:24.865Z</time></trkpt><trkpt lat="43.8692868" lon="12.6229663"><ele>154.5</ele><time>2026-04-19T11:22:25.854Z</time></trkpt><trkpt lat="43.8692723" lon="12.6230858"><ele>155.33333333333334</ele><time>2026-04-19T11:22:26.851Z</time></trkpt><trkpt lat="43.8692566" lon="12.6232095"><ele>156.16666666666669</ele><time>2026-04-19T11:22:27.852Z</time></trkpt><trkpt lat="43.8692421" lon="12.6233218"><ele>157.0</ele><time>2026-04-19T11:22:28.854Z</time></trkpt><trkpt lat="43.8692319" lon="12.6234111"><ele>154.0</ele><time>2026-04-19T11:22:29.857Z</time></trkpt><trkpt lat="43.8692197" lon="12.6235844"><ele>151.0</ele><time>2026-04-19T11:22:31.87Z</time></trkpt><trkpt lat="43.8692151" lon="12.6236726"><ele>148.0</ele><time>2026-04-19T11:22:32.863Z</time></trkpt><trkpt lat="43.8692083" lon="12.6237596"><ele>145.0</ele><time>2026-04-19T11:22:33.856Z</time></trkpt><trkpt lat="43.8691885" lon="12.6238757"><ele>142.0</ele><time>2026-04-19T11:22:35.857Z</time></trkpt><trkpt lat="43.8691104" lon="12.6238995"><ele>139.0</ele><time>2026-04-19T11:22:39.861Z</time></trkpt><trkpt lat="43.8690849" lon="12.6240204"><ele>138.5</ele><time>2026-04-19T11:22:43.882Z</time></trkpt><trkpt lat="43.8690571" lon="12.6241716"><ele>138.0</ele><time>2026-04-19T11:22:45.854Z</time></trkpt><trkpt lat="43.8690457" lon="12.6242834"><ele>137.5</ele><time>2026-04-19T11:22:46.853Z</time></trkpt><trkpt lat="43.869039" lon="12.6243856"><ele>137.0</ele><time>2026-04-19T11:22:47.871Z</time></trkpt><trkpt lat="43.8690382" lon="12.6244731"><ele>136.5</ele><time>2026-04-19T11:22:48.85Z</time></trkpt><trkpt lat="43.8690383" lon="12.6245777"><ele>136.0</ele><time>2026-04-19T11:22:49.854Z</time></trkpt><trkpt lat="43.8690387" lon="12.624681"><ele>135.83333333333334</ele><time>2026-04-19T11:22:50.853Z</time></trkpt><trkpt lat="43.8690359" lon="12.6247867"><ele>135.66666666666669</ele><time>2026-04-19T11:22:51.848Z</time></trkpt><trkpt lat="43.8690307" lon="12.6249006"><ele>135.5</ele><time>2026-04-19T11:22:52.849Z</time></trkpt><trkpt lat="43.8690299" lon="12.6250043"><ele>135.33333333333334</ele><time>2026-04-19T11:22:53.853Z</time></trkpt><trkpt lat="43.8690328" lon="12.6250994"><ele>135.16666666666666</ele><time>2026-04-19T11:22:54.856Z</time></trkpt><trkpt lat="43.8690421" lon="12.625248"><ele>135.0</ele><time>2026-04-19T11:22:56.869Z</time></trkpt><trkpt lat="43.8690573" lon="12.6253498"><ele>133.75</ele><time>2026-04-19T11:22:58.852Z</time></trkpt><trkpt lat="43.8690503" lon="12.6255199"><ele>132.5</ele><time>2026-04-19T11:23:00.857Z</time></trkpt><trkpt lat="43.8690387" lon="12.6256553"><ele>131.25</ele><time>2026-04-19T11:23:02.854Z</time></trkpt><trkpt lat="43.8690156" lon="12.6257558"><ele>130.0</ele><time>2026-04-19T11:23:06.893Z</time></trkpt><trkpt lat="43.8689677" lon="12.6261044"><ele>129.2</ele><time>2026-04-19T11:23:09.854Z</time></trkpt><trkpt lat="43.868964" lon="12.6262523"><ele>128.4</ele><time>2026-04-19T11:23:10.849Z</time></trkpt><trkpt lat="43.8689661" lon="12.626402"><ele>127.6</ele><time>2026-04-19T11:23:11.856Z</time></trkpt><trkpt lat="43.8689718" lon="12.6265316"><ele>126.8</ele><time>2026-04-19T11:23:12.854Z</time></trkpt><trkpt lat="43.8689802" lon="12.6266442"><ele>126.0</ele><time>2026-04-19T11:23:13.854Z</time></trkpt><trkpt lat="43.8689867" lon="12.626749"><ele>126.0</ele><time>2026-04-19T11:23:14.862Z</time></trkpt><trkpt lat="43.868984" lon="12.6268489"><ele>126.0</ele><time>2026-04-19T11:23:15.851Z</time></trkpt><trkpt lat="43.8689552" lon="12.6270057"><ele>126.0</ele><time>2026-04-19T11:23:17.848Z</time></trkpt><trkpt lat="43.8689382" lon="12.6270908"><ele>126.0</ele><time>2026-04-19T11:23:18.854Z</time></trkpt><trkpt lat="43.8689249" lon="12.627202"><ele>126.0</ele><time>2026-04-19T11:23:19.869Z</time></trkpt><trkpt lat="43.8689072" lon="12.6273397"><ele>126.0</ele><time>2026-04-19T11:23:20.852Z</time></trkpt><trkpt lat="43.8688874" lon="12.6274955"><ele>126.0</ele><time>2026-04-19T11:23:21.852Z</time></trkpt><trkpt lat="43.8688731" lon="12.6276461"><ele>126.0</ele><time>2026-04-19T11:23:22.853Z</time></trkpt><trkpt lat="43.8688596" lon="12.6277929"><ele>126.0</ele><time>2026-04-19T11:23:23.852Z</time></trkpt><trkpt lat="43.8688531" lon="12.6279408"><ele>126.0</ele><time>2026-04-19T11:23:24.848Z</time></trkpt><trkpt lat="43.8688551" lon="12.6280804"><ele>126.0</ele><time>2026-04-19T11:23:25.853Z</time></trkpt><trkpt lat="43.8688678" lon="12.6282101"><ele>126.0</ele><time>2026-04-19T11:23:26.852Z</time></trkpt><trkpt lat="43.8688883" lon="12.628339"><ele>126.0</ele><time>2026-04-19T11:23:27.861Z</time></trkpt><trkpt lat="43.868903" lon="12.6284501"><ele>126.0</ele><time>2026-04-19T11:23:28.857Z</time></trkpt><trkpt lat="43.8689281" lon="12.6285539"><ele>126.0</ele><time>2026-04-19T11:23:30.854Z</time></trkpt><trkpt lat="43.8689658" lon="12.6286858"><ele>126.0</ele><time>2026-04-19T11:23:34.857Z</time></trkpt><trkpt lat="43.8690001" lon="12.628816"><ele>126.0</ele><time>2026-04-19T11:23:36.856Z</time></trkpt><trkpt lat="43.8690469" lon="12.6289581"><ele>126.0</ele><time>2026-04-19T11:23:38.859Z</time></trkpt><trkpt lat="43.8690722" lon="12.6290772"><ele>126.0</ele><time>2026-04-19T11:23:40.857Z</time></trkpt><trkpt lat="43.8690201" lon="12.6291283"><ele>126.0</ele><time>2026-04-19T11:23:51.853Z</time></trkpt><trkpt lat="43.8689477" lon="12.6291121"><ele>126.0</ele><time>2026-04-19T11:23:53.859Z</time></trkpt><trkpt lat="43.8688669" lon="12.6291366"><ele>126.0</ele><time>2026-04-19T11:23:54.858Z</time></trkpt><trkpt lat="43.8687723" lon="12.6291764"><ele>126.0</ele><time>2026-04-19T11:23:55.864Z</time></trkpt><trkpt lat="43.8686734" lon="12.6292189"><ele>126.0</ele><time>2026-04-19T11:23:56.856Z</time></trkpt><trkpt lat="43.8685744" lon="12.6292606"><ele>126.0</ele><time>2026-04-19T11:23:57.856Z</time></trkpt><trkpt lat="43.8684714" lon="12.6293007"><ele>126.0</ele><time>2026-04-19T11:23:58.851Z</time></trkpt><trkpt lat="43.8683716" lon="12.6293334"><ele>126.0</ele><time>2026-04-19T11:23:59.851Z</time></trkpt><trkpt lat="43.8682824" lon="12.6293608"><ele>126.16666666666667</ele><time>2026-04-19T11:24:00.861Z</time></trkpt><trkpt lat="43.8682006" lon="12.6293821"><ele>126.33333333333334</ele><time>2026-04-19T11:24:01.853Z</time></trkpt><trkpt lat="43.8681177" lon="12.6293812"><ele>126.5</ele><time>2026-04-19T11:24:02.848Z</time></trkpt><trkpt lat="43.8680359" lon="12.6293695"><ele>126.66666666666667</ele><time>2026-04-19T11:24:03.852Z</time></trkpt><trkpt lat="43.867971" lon="12.6293641"><ele>126.83333333333334</ele><time>2026-04-19T11:24:04.853Z</time></trkpt><trkpt lat="43.8678962" lon="12.629397"><ele>127.0</ele><time>2026-04-19T11:24:06.874Z</time></trkpt><trkpt lat="43.867914" lon="12.6294854"><ele>127.0</ele><time>2026-04-19T11:24:08.868Z</time></trkpt><trkpt lat="43.8680411" lon="12.6295612"><ele>126.99999999999999</ele><time>2026-04-19T11:24:10.861Z</time></trkpt><trkpt lat="43.868123" lon="12.6296082"><ele>126.99999999999999</ele><time>2026-04-19T11:24:11.86Z</time></trkpt><trkpt lat="43.8681855" lon="12.6296629"><ele>127.0</ele><time>2026-04-19T11:24:12.875Z</time></trkpt><trkpt lat="43.8682341" lon="12.6297851"><ele>127.0</ele><time>2026-04-19T11:24:14.862Z</time></trkpt><trkpt lat="43.8681538" lon="12.6298957"><ele>127.0</ele><time>2026-04-19T11:24:16.857Z</time></trkpt><trkpt lat="43.8680771" lon="12.6299635"><ele>126.99999999999999</ele><time>2026-04-19T11:24:17.875Z</time></trkpt><trkpt lat="43.8679877" lon="12.6300592"><ele>126.99999999999999</ele><time>2026-04-19T11:24:18.845Z</time></trkpt><trkpt lat="43.8679031" lon="12.6301598"><ele>127.0</ele><time>2026-04-19T11:24:19.858Z</time></trkpt><trkpt lat="43.8678708" lon="12.6302577"><ele>127.0</ele><time>2026-04-19T11:24:20.852Z</time></trkpt><trkpt lat="43.8678707" lon="12.63036"><ele>128.33333333333334</ele><time>2026-04-19T11:24:21.853Z</time></trkpt><trkpt lat="43.8678984" lon="12.6304821"><ele>129.66666666666669</ele><time>2026-04-19T11:24:22.85Z</time></trkpt><trkpt lat="43.8679226" lon="12.6306168"><ele>131.0</ele><time>2026-04-19T11:24:23.857Z</time></trkpt><trkpt lat="43.8679388" lon="12.6307355"><ele>132.33333333333334</ele><time>2026-04-19T11:24:24.854Z</time></trkpt><trkpt lat="43.8679294" lon="12.6308267"><ele>133.66666666666666</ele><time>2026-04-19T11:24:25.86Z</time></trkpt><trkpt lat="43.867905" lon="12.6309379"><ele>135.0</ele><time>2026-04-19T11:24:26.85Z</time></trkpt><trkpt lat="43.8678682" lon="12.63106"><ele>137.33333333333334</ele><time>2026-04-19T11:24:27.857Z</time></trkpt><trkpt lat="43.8678293" lon="12.6311673"><ele>139.66666666666666</ele><time>2026-04-19T11:24:28.852Z</time></trkpt><trkpt lat="43.8677823" lon="12.6312591"><ele>142.0</ele><time>2026-04-19T11:24:29.858Z</time></trkpt><trkpt lat="43.867729" lon="12.63137"><ele>144.33333333333331</ele><time>2026-04-19T11:24:30.853Z</time></trkpt><trkpt lat="43.8676882" lon="12.6314872"><ele>146.66666666666666</ele><time>2026-04-19T11:24:31.856Z</time></trkpt><trkpt lat="43.8676553" lon="12.6315954"><ele>149.0</ele><time>2026-04-19T11:24:32.859Z</time></trkpt><trkpt lat="43.8676114" lon="12.6317128"><ele>152.2</ele><time>2026-04-19T11:24:33.852Z</time></trkpt><trkpt lat="43.8675593" lon="12.6318401"><ele>155.4</ele><time>2026-04-19T11:24:34.873Z</time></trkpt><trkpt lat="43.8675045" lon="12.6319669"><ele>158.6</ele><time>2026-04-19T11:24:35.852Z</time></trkpt><trkpt lat="43.8674498" lon="12.6320914"><ele>161.8</ele><time>2026-04-19T11:24:36.859Z</time></trkpt><trkpt lat="43.8673934" lon="12.6322105"><ele>165.0</ele><time>2026-04-19T11:24:37.853Z</time></trkpt><trkpt lat="43.8673361" lon="12.632317"><ele>168.4</ele><time>2026-04-19T11:24:38.858Z</time></trkpt><trkpt lat="43.8672717" lon="12.6324187"><ele>171.8</ele><time>2026-04-19T11:24:39.86Z</time></trkpt><trkpt lat="43.8672037" lon="12.6325328"><ele>175.2</ele><time>2026-04-19T11:24:40.857Z</time></trkpt><trkpt lat="43.8671339" lon="12.6326588"><ele>178.6</ele><time>2026-04-19T11:24:41.873Z</time></trkpt><trkpt lat="43.8670691" lon="12.6327954"><ele>182.0</ele><time>2026-04-19T11:24:42.857Z</time></trkpt><trkpt lat="43.867022" lon="12.6329182"><ele>182.66666666666666</ele><time>2026-04-19T11:24:43.862Z</time></trkpt><trkpt lat="43.8669804" lon="12.6330204"><ele>183.33333333333331</ele><time>2026-04-19T11:24:44.856Z</time></trkpt><trkpt lat="43.8669394" lon="12.6330967"><ele>184.0</ele><time>2026-04-19T11:24:45.862Z</time></trkpt><trkpt lat="43.8668919" lon="12.6331637"><ele>184.66666666666666</ele><time>2026-04-19T11:24:46.857Z</time></trkpt><trkpt lat="43.8668211" lon="12.6332248"><ele>185.33333333333334</ele><time>2026-04-19T11:24:47.863Z</time></trkpt><trkpt lat="43.8667291" lon="12.6332891"><ele>186.0</ele><time>2026-04-19T11:24:48.863Z</time></trkpt><trkpt lat="43.8666203" lon="12.6333605"><ele>187.75</ele><time>2026-04-19T11:24:49.857Z</time></trkpt><trkpt lat="43.866507" lon="12.6334535"><ele>189.5</ele><time>2026-04-19T11:24:50.855Z</time></trkpt><trkpt lat="43.8664016" lon="12.6335502"><ele>191.25</ele><time>2026-04-19T11:24:51.862Z</time></trkpt><trkpt lat="43.866304" lon="12.6336367"><ele>193.0</ele><time>2026-04-19T11:24:52.857Z</time></trkpt><trkpt lat="43.8661965" lon="12.6337169"><ele>193.0</ele><time>2026-04-19T11:24:53.855Z</time></trkpt><trkpt lat="43.8660828" lon="12.6337977"><ele>193.0</ele><time>2026-04-19T11:24:54.852Z</time></trkpt><trkpt lat="43.865967" lon="12.6338778"><ele>193.0</ele><time>2026-04-19T11:24:55.869Z</time></trkpt><trkpt lat="43.8658633" lon="12.6339465"><ele>193.0</ele><time>2026-04-19T11:24:56.858Z</time></trkpt><trkpt lat="43.8657644" lon="12.6340131"><ele>196.2</ele><time>2026-04-19T11:24:57.864Z</time></trkpt><trkpt lat="43.8656685" lon="12.634089"><ele>199.4</ele><time>2026-04-19T11:24:58.863Z</time></trkpt><trkpt lat="43.8655735" lon="12.6341699"><ele>202.6</ele><time>2026-04-19T11:24:59.864Z</time></trkpt><trkpt lat="43.8654941" lon="12.6342574"><ele>205.79999999999998</ele><time>2026-04-19T11:25:00.861Z</time></trkpt><trkpt lat="43.865413" lon="12.6343466"><ele>209.0</ele><time>2026-04-19T11:25:01.872Z</time></trkpt><trkpt lat="43.8653227" lon="12.6344329"><ele>209.50000000000003</ele><time>2026-04-19T11:25:02.862Z</time></trkpt><trkpt lat="43.8652513" lon="12.6345074"><ele>210.0</ele><time>2026-04-19T11:25:03.859Z</time></trkpt><trkpt lat="43.8651876" lon="12.6345749"><ele>210.5</ele><time>2026-04-19T11:25:04.861Z</time></trkpt><trkpt lat="43.865126" lon="12.6346518"><ele>211.0</ele><time>2026-04-19T11:25:05.863Z</time></trkpt><trkpt lat="43.8650602" lon="12.6347452"><ele>211.50000000000003</ele><time>2026-04-19T11:25:06.86Z</time></trkpt><trkpt lat="43.8649901" lon="12.6348392"><ele>212.0</ele><time>2026-04-19T11:25:07.875Z</time></trkpt><trkpt lat="43.8649182" lon="12.6349349"><ele>212.0</ele><time>2026-04-19T11:25:08.853Z</time></trkpt><trkpt lat="43.8648483" lon="12.6350274"><ele>212.0</ele><time>2026-04-19T11:25:09.864Z</time></trkpt><trkpt lat="43.8647866" lon="12.6351145"><ele>212.0</ele><time>2026-04-19T11:25:10.868Z</time></trkpt><trkpt lat="43.864722" lon="12.6352066"><ele>212.0</ele><time>2026-04-19T11:25:11.862Z</time></trkpt><trkpt lat="43.864644" lon="12.6353176"><ele>212.0</ele><time>2026-04-19T11:25:12.877Z</time></trkpt><trkpt lat="43.8645581" lon="12.6354402"><ele>211.25</ele><time>2026-04-19T11:25:13.862Z</time></trkpt><trkpt lat="43.8644757" lon="12.6355614"><ele>210.5</ele><time>2026-04-19T11:25:14.864Z</time></trkpt><trkpt lat="43.8643951" lon="12.6356806"><ele>209.75</ele><time>2026-04-19T11:25:15.852Z</time></trkpt><trkpt lat="43.8643149" lon="12.6358011"><ele>209.0</ele><time>2026-04-19T11:25:16.866Z</time></trkpt><trkpt lat="43.8642464" lon="12.6359076"><ele>210.6</ele><time>2026-04-19T11:25:17.86Z</time></trkpt><trkpt lat="43.8641838" lon="12.6360086"><ele>212.2</ele><time>2026-04-19T11:25:18.856Z</time></trkpt><trkpt lat="43.8641209" lon="12.6361114"><ele>213.79999999999998</ele><time>2026-04-19T11:25:19.864Z</time></trkpt><trkpt lat="43.8640558" lon="12.6362231"><ele>215.39999999999998</ele><time>2026-04-19T11:25:20.863Z</time></trkpt><trkpt lat="43.8639862" lon="12.6363477"><ele>217.0</ele><time>2026-04-19T11:25:21.894Z</time></trkpt><trkpt lat="43.8639156" lon="12.6364718"><ele>217.33333333333331</ele><time>2026-04-19T11:25:22.858Z</time></trkpt><trkpt lat="43.8638509" lon="12.6365836"><ele>217.66666666666666</ele><time>2026-04-19T11:25:23.863Z</time></trkpt><trkpt lat="43.8637972" lon="12.6366712"><ele>218.0</ele><time>2026-04-19T11:25:24.859Z</time></trkpt><trkpt lat="43.8637382" lon="12.6367499"><ele>218.33333333333331</ele><time>2026-04-19T11:25:25.856Z</time></trkpt><trkpt lat="43.8636663" lon="12.6368222"><ele>218.66666666666666</ele><time>2026-04-19T11:25:26.866Z</time></trkpt><trkpt lat="43.863593" lon="12.636885"><ele>219.0</ele><time>2026-04-19T11:25:27.854Z</time></trkpt><trkpt lat="43.8635214" lon="12.636939"><ele>219.0</ele><time>2026-04-19T11:25:28.857Z</time></trkpt><trkpt lat="43.8634564" lon="12.6369867"><ele>219.0</ele><time>2026-04-19T11:25:29.858Z</time></trkpt><trkpt lat="43.8633933" lon="12.6370357"><ele>219.0</ele><time>2026-04-19T11:25:30.861Z</time></trkpt><trkpt lat="43.8633326" lon="12.6370881"><ele>219.0</ele><time>2026-04-19T11:25:31.861Z</time></trkpt><trkpt lat="43.8632643" lon="12.6371484"><ele>219.0</ele><time>2026-04-19T11:25:32.853Z</time></trkpt><trkpt lat="43.8631853" lon="12.6372275"><ele>219.0</ele><time>2026-04-19T11:25:33.878Z</time></trkpt><trkpt lat="43.8631124" lon="12.6373161"><ele>220.66666666666666</ele><time>2026-04-19T11:25:34.849Z</time></trkpt><trkpt lat="43.8630499" lon="12.6374147"><ele>222.33333333333331</ele><time>2026-04-19T11:25:35.854Z</time></trkpt><trkpt lat="43.8630006" lon="12.6375108"><ele>224.0</ele><time>2026-04-19T11:25:36.862Z</time></trkpt><trkpt lat="43.8629665" lon="12.6375995"><ele>225.66666666666666</ele><time>2026-04-19T11:25:37.856Z</time></trkpt><trkpt lat="43.8629329" lon="12.6376912"><ele>227.33333333333331</ele><time>2026-04-19T11:25:38.861Z</time></trkpt><trkpt lat="43.8628867" lon="12.6377906"><ele>229.0</ele><time>2026-04-19T11:25:39.863Z</time></trkpt><trkpt lat="43.8628283" lon="12.6378844"><ele>229.66666666666666</ele><time>2026-04-19T11:25:40.854Z</time></trkpt><trkpt lat="43.8627681" lon="12.6379677"><ele>230.33333333333331</ele><time>2026-04-19T11:25:41.861Z</time></trkpt><trkpt lat="43.8627008" lon="12.6380397"><ele>231.0</ele><time>2026-04-19T11:25:42.853Z</time></trkpt><trkpt lat="43.8626352" lon="12.6381062"><ele>231.66666666666669</ele><time>2026-04-19T11:25:43.854Z</time></trkpt><trkpt lat="43.8625698" lon="12.6381773"><ele>232.33333333333334</ele><time>2026-04-19T11:25:44.853Z</time></trkpt><trkpt lat="43.8625075" lon="12.6382511"><ele>233.0</ele><time>2026-04-19T11:25:45.859Z</time></trkpt><trkpt lat="43.8624523" lon="12.6383203"><ele>234.66666666666669</ele><time>2026-04-19T11:25:46.871Z</time></trkpt><trkpt lat="43.8624132" lon="12.6384028"><ele>236.33333333333334</ele><time>2026-04-19T11:25:47.861Z</time></trkpt><trkpt lat="43.8623699" lon="12.638503"><ele>238.0</ele><time>2026-04-19T11:25:48.857Z</time></trkpt><trkpt lat="43.8623316" lon="12.638614"><ele>239.66666666666669</ele><time>2026-04-19T11:25:49.857Z</time></trkpt><trkpt lat="43.8622928" lon="12.6387306"><ele>241.33333333333334</ele><time>2026-04-19T11:25:50.86Z</time></trkpt><trkpt lat="43.8622438" lon="12.6388406"><ele>243.0</ele><time>2026-04-19T11:25:51.875Z</time></trkpt><trkpt lat="43.8621914" lon="12.6389449"><ele>244.4</ele><time>2026-04-19T11:25:52.86Z</time></trkpt><trkpt lat="43.8621296" lon="12.6390406"><ele>245.8</ele><time>2026-04-19T11:25:53.855Z</time></trkpt><trkpt lat="43.8620495" lon="12.6391372"><ele>247.2</ele><time>2026-04-19T11:25:54.855Z</time></trkpt><trkpt lat="43.8619678" lon="12.6392359"><ele>248.6</ele><time>2026-04-19T11:25:55.859Z</time></trkpt><trkpt lat="43.8618999" lon="12.6393167"><ele>250.0</ele><time>2026-04-19T11:25:56.858Z</time></trkpt><trkpt lat="43.8618416" lon="12.6393864"><ele>250.83333333333331</ele><time>2026-04-19T11:25:57.872Z</time></trkpt><trkpt lat="43.8617741" lon="12.6394655"><ele>251.66666666666666</ele><time>2026-04-19T11:25:58.856Z</time></trkpt><trkpt lat="43.8616992" lon="12.6395636"><ele>252.5</ele><time>2026-04-19T11:25:59.858Z</time></trkpt><trkpt lat="43.8616296" lon="12.6396659"><ele>253.33333333333331</ele><time>2026-04-19T11:26:00.858Z</time></trkpt><trkpt lat="43.8615743" lon="12.6397513"><ele>254.16666666666666</ele><time>2026-04-19T11:26:01.854Z</time></trkpt><trkpt lat="43.8615346" lon="12.6398335"><ele>255.0</ele><time>2026-04-19T11:26:02.868Z</time></trkpt><trkpt lat="43.8614892" lon="12.6399383"><ele>255.0</ele><time>2026-04-19T11:26:03.849Z</time></trkpt><trkpt lat="43.8614346" lon="12.6400591"><ele>255.0</ele><time>2026-04-19T11:26:04.861Z</time></trkpt><trkpt lat="43.8613786" lon="12.6401805"><ele>255.0</ele><time>2026-04-19T11:26:05.854Z</time></trkpt><trkpt lat="43.8613178" lon="12.6402579"><ele>255.0</ele><time>2026-04-19T11:26:06.864Z</time></trkpt><trkpt lat="43.8612516" lon="12.6403252"><ele>255.0</ele><time>2026-04-19T11:26:07.854Z</time></trkpt><trkpt lat="43.8611676" lon="12.6403666"><ele>255.0</ele><time>2026-04-19T11:26:08.854Z</time></trkpt><trkpt lat="43.8610813" lon="12.6403904"><ele>255.0</ele><time>2026-04-19T11:26:09.854Z</time></trkpt><trkpt lat="43.861005" lon="12.6403973"><ele>255.0</ele><time>2026-04-19T11:26:10.855Z</time></trkpt><trkpt lat="43.8609219" lon="12.6404053"><ele>255.0</ele><time>2026-04-19T11:26:11.872Z</time></trkpt><trkpt lat="43.8608309" lon="12.6404184"><ele>255.0</ele><time>2026-04-19T11:26:12.856Z</time></trkpt><trkpt lat="43.8607295" lon="12.6404315"><ele>255.0</ele><time>2026-04-19T11:26:13.855Z</time></trkpt><trkpt lat="43.8606191" lon="12.6404508"><ele>258.5</ele><time>2026-04-19T11:26:14.854Z</time></trkpt><trkpt lat="43.8605209" lon="12.640469"><ele>262.0</ele><time>2026-04-19T11:26:15.859Z</time></trkpt><trkpt lat="43.860417" lon="12.6404974"><ele>265.5</ele><time>2026-04-19T11:26:16.856Z</time></trkpt><trkpt lat="43.8603258" lon="12.6405325"><ele>269.0</ele><time>2026-04-19T11:26:17.86Z</time></trkpt><trkpt lat="43.8602572" lon="12.6405659"><ele>272.5</ele><time>2026-04-19T11:26:18.858Z</time></trkpt><trkpt lat="43.8601879" lon="12.6405939"><ele>276.0</ele><time>2026-04-19T11:26:19.862Z</time></trkpt><trkpt lat="43.8601061" lon="12.6406135"><ele>279.1666666666667</ele><time>2026-04-19T11:26:20.859Z</time></trkpt><trkpt lat="43.8600199" lon="12.6406284"><ele>282.3333333333333</ele><time>2026-04-19T11:26:21.875Z</time></trkpt><trkpt lat="43.8599437" lon="12.6406231"><ele>285.5</ele><time>2026-04-19T11:26:22.861Z</time></trkpt><trkpt lat="43.8598703" lon="12.6406135"><ele>288.66666666666663</ele><time>2026-04-19T11:26:23.856Z</time></trkpt><trkpt lat="43.8597619" lon="12.6405856"><ele>291.8333333333333</ele><time>2026-04-19T11:26:25.855Z</time></trkpt><trkpt lat="43.8597235" lon="12.6404896"><ele>295.0</ele><time>2026-04-19T11:26:28.879Z</time></trkpt><trkpt lat="43.859763" lon="12.6404204"><ele>295.0</ele><time>2026-04-19T11:26:31.858Z</time></trkpt><trkpt lat="43.8598188" lon="12.6403664"><ele>295.0</ele><time>2026-04-19T11:26:36.854Z</time></trkpt><trkpt lat="43.8598192" lon="12.6402518"><ele>295.0</ele><time>2026-04-19T11:26:39.922Z</time></trkpt><trkpt lat="43.859738" lon="12.6401251"><ele>295.0</ele><time>2026-04-19T11:26:41.855Z</time></trkpt><trkpt lat="43.8596753" lon="12.6400988"><ele>295.0</ele><time>2026-04-19T11:26:42.862Z</time></trkpt><trkpt lat="43.8596072" lon="12.6400893"><ele>295.0</ele><time>2026-04-19T11:26:43.856Z</time></trkpt><trkpt lat="43.8595316" lon="12.6400709"><ele>295.3333333333333</ele><time>2026-04-19T11:26:44.859Z</time></trkpt><trkpt lat="43.8594478" lon="12.6400511"><ele>295.66666666666663</ele><time>2026-04-19T11:26:45.862Z</time></trkpt><trkpt lat="43.8593568" lon="12.6400335"><ele>296.0</ele><time>2026-04-19T11:26:46.861Z</time></trkpt><trkpt lat="43.8592784" lon="12.6400245"><ele>296.3333333333333</ele><time>2026-04-19T11:26:47.864Z</time></trkpt><trkpt lat="43.8591887" lon="12.6400411"><ele>296.6666666666667</ele><time>2026-04-19T11:26:49.865Z</time></trkpt><trkpt lat="43.8591404" lon="12.640126"><ele>297.0</ele><time>2026-04-19T11:26:50.861Z</time></trkpt><trkpt lat="43.8590773" lon="12.6402418"><ele>301.25</ele><time>2026-04-19T11:26:51.871Z</time></trkpt><trkpt lat="43.8590106" lon="12.640387"><ele>305.5</ele><time>2026-04-19T11:26:52.856Z</time></trkpt><trkpt lat="43.8589451" lon="12.6405393"><ele>309.75</ele><time>2026-04-19T11:26:53.858Z</time></trkpt><trkpt lat="43.8588848" lon="12.6406734"><ele>314.0</ele><time>2026-04-19T11:26:54.858Z</time></trkpt><trkpt lat="43.858825" lon="12.6407752"><ele>314.0</ele><time>2026-04-19T11:26:55.858Z</time></trkpt><trkpt lat="43.858766" lon="12.6408521"><ele>314.0</ele><time>2026-04-19T11:26:56.862Z</time></trkpt><trkpt lat="43.8586895" lon="12.6409159"><ele>314.0</ele><time>2026-04-19T11:26:57.871Z</time></trkpt><trkpt lat="43.8585895" lon="12.6409705"><ele>314.0</ele><time>2026-04-19T11:26:58.858Z</time></trkpt><trkpt lat="43.8584706" lon="12.6410238"><ele>314.0</ele><time>2026-04-19T11:26:59.857Z</time></trkpt><trkpt lat="43.8583652" lon="12.6411229"><ele>318.5</ele><time>2026-04-19T11:27:00.853Z</time></trkpt><trkpt lat="43.858274" lon="12.6412243"><ele>323.0</ele><time>2026-04-19T11:27:01.857Z</time></trkpt><trkpt lat="43.858211" lon="12.6413373"><ele>327.5</ele><time>2026-04-19T11:27:02.85Z</time></trkpt><trkpt lat="43.8581436" lon="12.6414739"><ele>332.0</ele><time>2026-04-19T11:27:03.862Z</time></trkpt><trkpt lat="43.8580834" lon="12.6416483"><ele>332.0</ele><time>2026-04-19T11:27:04.852Z</time></trkpt><trkpt lat="43.8580217" lon="12.6418394"><ele>332.0</ele><time>2026-04-19T11:27:05.852Z</time></trkpt><trkpt lat="43.8579667" lon="12.6420222"><ele>332.0</ele><time>2026-04-19T11:27:06.853Z</time></trkpt><trkpt lat="43.8579195" lon="12.6421943"><ele>332.0</ele><time>2026-04-19T11:27:07.854Z</time></trkpt><trkpt lat="43.8578754" lon="12.642355"><ele>332.0</ele><time>2026-04-19T11:27:08.879Z</time></trkpt><trkpt lat="43.8578383" lon="12.6425075"><ele>332.0</ele><time>2026-04-19T11:27:09.857Z</time></trkpt><trkpt lat="43.8578097" lon="12.6426451"><ele>332.0</ele><time>2026-04-19T11:27:10.853Z</time></trkpt><trkpt lat="43.8577818" lon="12.6427823"><ele>332.0</ele><time>2026-04-19T11:27:11.849Z</time></trkpt><trkpt lat="43.8577367" lon="12.6429413"><ele>332.0</ele><time>2026-04-19T11:27:12.852Z</time></trkpt><trkpt lat="43.857683" lon="12.6431233"><ele>331.0</ele><time>2026-04-19T11:27:13.852Z</time></trkpt><trkpt lat="43.8576342" lon="12.6432894"><ele>330.0</ele><time>2026-04-19T11:27:14.853Z</time></trkpt><trkpt lat="43.8575958" lon="12.6434442"><ele>329.0</ele><time>2026-04-19T11:27:15.856Z</time></trkpt><trkpt lat="43.8575672" lon="12.643607"><ele>328.0</ele><time>2026-04-19T11:27:16.859Z</time></trkpt><trkpt lat="43.8575469" lon="12.6437664"><ele>334.0</ele><time>2026-04-19T11:27:17.87Z</time></trkpt><trkpt lat="43.8575259" lon="12.6439299"><ele>340.0</ele><time>2026-04-19T11:27:18.86Z</time></trkpt><trkpt lat="43.857496" lon="12.6441049"><ele>346.0</ele><time>2026-04-19T11:27:19.851Z</time></trkpt><trkpt lat="43.8574599" lon="12.6442662"><ele>352.0</ele><time>2026-04-19T11:27:20.857Z</time></trkpt><trkpt lat="43.8574204" lon="12.644397"><ele>352.0</ele><time>2026-04-19T11:27:21.862Z</time></trkpt><trkpt lat="43.857373" lon="12.6444956"><ele>352.0</ele><time>2026-04-19T11:27:22.861Z</time></trkpt><trkpt lat="43.8573295" lon="12.6445626"><ele>352.0</ele><time>2026-04-19T11:27:23.855Z</time></trkpt><trkpt lat="43.8572667" lon="12.6446089"><ele>352.0</ele><time>2026-04-19T11:27:25.858Z</time></trkpt><trkpt lat="43.8572112" lon="12.6445041"><ele>352.0</ele><time>2026-04-19T11:27:27.867Z</time></trkpt><trkpt lat="43.8571768" lon="12.6444234"><ele>352.0</ele><time>2026-04-19T11:27:28.86Z</time></trkpt><trkpt lat="43.8571292" lon="12.6443326"><ele>352.0</ele><time>2026-04-19T11:27:29.867Z</time></trkpt><trkpt lat="43.8570667" lon="12.6442364"><ele>352.0</ele><time>2026-04-19T11:27:30.854Z</time></trkpt><trkpt lat="43.856996" lon="12.6441306"><ele>352.0</ele><time>2026-04-19T11:27:31.863Z</time></trkpt><trkpt lat="43.8569217" lon="12.6440142"><ele>352.0</ele><time>2026-04-19T11:27:32.853Z</time></trkpt><trkpt lat="43.8568486" lon="12.6438937"><ele>352.0</ele><time>2026-04-19T11:27:33.857Z</time></trkpt><trkpt lat="43.8567821" lon="12.6437824"><ele>352.8</ele><time>2026-04-19T11:27:34.853Z</time></trkpt><trkpt lat="43.8567228" lon="12.6436751"><ele>353.6</ele><time>2026-04-19T11:27:35.853Z</time></trkpt><trkpt lat="43.8566667" lon="12.6435563"><ele>354.40000000000003</ele><time>2026-04-19T11:27:36.855Z</time></trkpt><trkpt lat="43.8566177" lon="12.6434253"><ele>355.20000000000005</ele><time>2026-04-19T11:27:37.849Z</time></trkpt><trkpt lat="43.8565637" lon="12.6432847"><ele>356.0</ele><time>2026-04-19T11:27:38.86Z</time></trkpt><trkpt lat="43.8565115" lon="12.6431549"><ele>358.25</ele><time>2026-04-19T11:27:39.855Z</time></trkpt><trkpt lat="43.8564722" lon="12.6430153"><ele>360.5</ele><time>2026-04-19T11:27:40.854Z</time></trkpt><trkpt lat="43.8564354" lon="12.6428719"><ele>362.75</ele><time>2026-04-19T11:27:41.853Z</time></trkpt><trkpt lat="43.8563912" lon="12.6427205"><ele>365.0</ele><time>2026-04-19T11:27:42.855Z</time></trkpt><trkpt lat="43.8563403" lon="12.6425676"><ele>366.8</ele><time>2026-04-19T11:27:43.866Z</time></trkpt><trkpt lat="43.8562963" lon="12.6424255"><ele>368.6</ele><time>2026-04-19T11:27:44.852Z</time></trkpt><trkpt lat="43.8562502" lon="12.6422891"><ele>370.4</ele><time>2026-04-19T11:27:45.848Z</time></trkpt><trkpt lat="43.8561909" lon="12.6421619"><ele>372.2</ele><time>2026-04-19T11:27:46.863Z</time></trkpt><trkpt lat="43.8561216" lon="12.6420379"><ele>374.0</ele><time>2026-04-19T11:27:47.855Z</time></trkpt><trkpt lat="43.8560535" lon="12.6419203"><ele>375.2</ele><time>2026-04-19T11:27:48.868Z</time></trkpt><trkpt lat="43.8559963" lon="12.641812"><ele>376.4</ele><time>2026-04-19T11:27:49.855Z</time></trkpt><trkpt lat="43.8559439" lon="12.6417042"><ele>377.6</ele><time>2026-04-19T11:27:50.851Z</time></trkpt><trkpt lat="43.8558885" lon="12.6415977"><ele>378.8</ele><time>2026-04-19T11:27:51.855Z</time></trkpt><trkpt lat="43.8558317" lon="12.6415016"><ele>380.0</ele><time>2026-04-19T11:27:52.856Z</time></trkpt><trkpt lat="43.8557796" lon="12.6414093"><ele>378.14285714285717</ele><time>2026-04-19T11:27:53.854Z</time></trkpt><trkpt lat="43.8557324" lon="12.6413238"><ele>376.28571428571433</ele><time>2026-04-19T11:27:54.877Z</time></trkpt><trkpt lat="43.8556867" lon="12.6412425"><ele>374.42857142857144</ele><time>2026-04-19T11:27:55.861Z</time></trkpt><trkpt lat="43.8556361" lon="12.6411752"><ele>372.57142857142856</ele><time>2026-04-19T11:27:56.853Z</time></trkpt><trkpt lat="43.8555816" lon="12.6411162"><ele>370.7142857142857</ele><time>2026-04-19T11:27:57.852Z</time></trkpt><trkpt lat="43.8555168" lon="12.6410815"><ele>368.85714285714283</ele><time>2026-04-19T11:27:58.859Z</time></trkpt><trkpt lat="43.8554521" lon="12.64105"><ele>367.0</ele><time>2026-04-19T11:27:59.857Z</time></trkpt><trkpt lat="43.8553433" lon="12.6409853"><ele>366.66666666666663</ele><time>2026-04-19T11:28:01.871Z</time></trkpt><trkpt lat="43.8552438" lon="12.6408658"><ele>366.3333333333333</ele><time>2026-04-19T11:28:03.854Z</time></trkpt><trkpt lat="43.8551969" lon="12.6407861"><ele>366.0</ele><time>2026-04-19T11:28:04.856Z</time></trkpt><trkpt lat="43.8551575" lon="12.6406898"><ele>365.6666666666667</ele><time>2026-04-19T11:28:05.858Z</time></trkpt><trkpt lat="43.8551282" lon="12.6405962"><ele>365.33333333333337</ele><time>2026-04-19T11:28:06.864Z</time></trkpt><trkpt lat="43.8550894" lon="12.6405142"><ele>365.0</ele><time>2026-04-19T11:28:07.856Z</time></trkpt><trkpt lat="43.8550436" lon="12.6404233"><ele>363.6666666666667</ele><time>2026-04-19T11:28:08.853Z</time></trkpt><trkpt lat="43.8549953" lon="12.6403241"><ele>362.33333333333337</ele><time>2026-04-19T11:28:09.855Z</time></trkpt><trkpt lat="43.8549447" lon="12.6402178"><ele>361.0</ele><time>2026-04-19T11:28:10.851Z</time></trkpt><trkpt lat="43.8548968" lon="12.6401124"><ele>359.6666666666667</ele><time>2026-04-19T11:28:11.854Z</time></trkpt><trkpt lat="43.8548557" lon="12.6400155"><ele>358.3333333333333</ele><time>2026-04-19T11:28:12.856Z</time></trkpt><trkpt lat="43.8548214" lon="12.6399211"><ele>357.0</ele><time>2026-04-19T11:28:13.854Z</time></trkpt><trkpt lat="43.8547909" lon="12.6398324"><ele>357.0</ele><time>2026-04-19T11:28:14.874Z</time></trkpt><trkpt lat="43.85477" lon="12.6397461"><ele>357.0</ele><time>2026-04-19T11:28:15.856Z</time></trkpt><trkpt lat="43.8547468" lon="12.6396402"><ele>357.0</ele><time>2026-04-19T11:28:16.854Z</time></trkpt><trkpt lat="43.8547233" lon="12.6395399"><ele>357.0</ele><time>2026-04-19T11:28:17.857Z</time></trkpt><trkpt lat="43.8546993" lon="12.6394508"><ele>357.0</ele><time>2026-04-19T11:28:18.853Z</time></trkpt><trkpt lat="43.8546695" lon="12.63937"><ele>357.0</ele><time>2026-04-19T11:28:19.854Z</time></trkpt><trkpt lat="43.8546171" lon="12.639263"><ele>357.0</ele><time>2026-04-19T11:28:21.894Z</time></trkpt><trkpt lat="43.8544917" lon="12.6391787"><ele>355.1666666666667</ele><time>2026-04-19T11:28:46.857Z</time></trkpt><trkpt lat="43.8544156" lon="12.6391432"><ele>353.3333333333333</ele><time>2026-04-19T11:28:47.855Z</time></trkpt><trkpt lat="43.8543445" lon="12.6391161"><ele>351.5</ele><time>2026-04-19T11:28:48.865Z</time></trkpt><trkpt lat="43.8542798" lon="12.6391076"><ele>349.66666666666663</ele><time>2026-04-19T11:28:49.855Z</time></trkpt><trkpt lat="43.8541887" lon="12.6392332"><ele>347.8333333333333</ele><time>2026-04-19T11:28:51.848Z</time></trkpt><trkpt lat="43.8541627" lon="12.6393357"><ele>346.0</ele><time>2026-04-19T11:28:52.856Z</time></trkpt><trkpt lat="43.8541482" lon="12.6394454"><ele>344.5</ele><time>2026-04-19T11:28:53.852Z</time></trkpt><trkpt lat="43.8541431" lon="12.6395484"><ele>343.0</ele><time>2026-04-19T11:28:54.858Z</time></trkpt><trkpt lat="43.8541516" lon="12.6396849"><ele>341.5</ele><time>2026-04-19T11:28:56.852Z</time></trkpt><trkpt lat="43.8540846" lon="12.6396954"><ele>340.0</ele><time>2026-04-19T11:29:00.869Z</time></trkpt><trkpt lat="43.8540452" lon="12.6396173"><ele>338.5</ele><time>2026-04-19T11:29:01.85Z</time></trkpt><trkpt lat="43.8539972" lon="12.6394994"><ele>337.0</ele><time>2026-04-19T11:29:02.855Z</time></trkpt><trkpt lat="43.8539392" lon="12.6393588"><ele>337.0</ele><time>2026-04-19T11:29:03.853Z</time></trkpt><trkpt lat="43.8538753" lon="12.6392109"><ele>337.0</ele><time>2026-04-19T11:29:04.863Z</time></trkpt><trkpt lat="43.8538047" lon="12.6390648"><ele>337.0</ele><time>2026-04-19T11:29:05.86Z</time></trkpt><trkpt lat="43.8537349" lon="12.638922"><ele>337.0</ele><time>2026-04-19T11:29:06.87Z</time></trkpt><trkpt lat="43.8536779" lon="12.638788"><ele>337.0</ele><time>2026-04-19T11:29:07.858Z</time></trkpt><trkpt lat="43.8536307" lon="12.6386666"><ele>337.0</ele><time>2026-04-19T11:29:08.855Z</time></trkpt><trkpt lat="43.8536195" lon="12.6385539"><ele>337.0</ele><time>2026-04-19T11:29:09.863Z</time></trkpt><trkpt lat="43.8536372" lon="12.6384516"><ele>337.0</ele><time>2026-04-19T11:29:10.856Z</time></trkpt><trkpt lat="43.853702" lon="12.6383702"><ele>337.0</ele><time>2026-04-19T11:29:11.877Z</time></trkpt><trkpt lat="43.8537877" lon="12.6383125"><ele>337.0</ele><time>2026-04-19T11:29:12.852Z</time></trkpt><trkpt lat="43.8538958" lon="12.6382789"><ele>336.25</ele><time>2026-04-19T11:29:13.853Z</time></trkpt><trkpt lat="43.8540193" lon="12.6382895"><ele>335.5</ele><time>2026-04-19T11:29:14.849Z</time></trkpt><trkpt lat="43.8541498" lon="12.6383304"><ele>334.75</ele><time>2026-04-19T11:29:15.845Z</time></trkpt><trkpt lat="43.8542825" lon="12.6383916"><ele>334.0</ele><time>2026-04-19T11:29:16.851Z</time></trkpt><trkpt lat="43.854408" lon="12.6384492"><ele>334.0</ele><time>2026-04-19T11:29:17.847Z</time></trkpt><trkpt lat="43.8545253" lon="12.6384834"><ele>334.0</ele><time>2026-04-19T11:29:18.846Z</time></trkpt><trkpt lat="43.8546344" lon="12.6384933"><ele>334.0</ele><time>2026-04-19T11:29:19.853Z</time></trkpt><trkpt lat="43.8547255" lon="12.6384338"><ele>334.0</ele><time>2026-04-19T11:29:20.856Z</time></trkpt><trkpt lat="43.8547963" lon="12.6383204"><ele>334.0</ele><time>2026-04-19T11:29:21.854Z</time></trkpt><trkpt lat="43.8548539" lon="12.6381672"><ele>334.0</ele><time>2026-04-19T11:29:22.853Z</time></trkpt><trkpt lat="43.8549076" lon="12.637985"><ele>334.0</ele><time>2026-04-19T11:29:23.862Z</time></trkpt><trkpt lat="43.8549653" lon="12.6377942"><ele>334.0</ele><time>2026-04-19T11:29:24.853Z</time></trkpt><trkpt lat="43.8550275" lon="12.637599"><ele>334.0</ele><time>2026-04-19T11:29:25.849Z</time></trkpt><trkpt lat="43.8550975" lon="12.6374052"><ele>334.75</ele><time>2026-04-19T11:29:26.852Z</time></trkpt><trkpt lat="43.8551638" lon="12.637224"><ele>335.5</ele><time>2026-04-19T11:29:27.852Z</time></trkpt><trkpt lat="43.8552197" lon="12.6370506"><ele>336.25</ele><time>2026-04-19T11:29:28.862Z</time></trkpt><trkpt lat="43.8552651" lon="12.636881"><ele>337.0</ele><time>2026-04-19T11:29:29.849Z</time></trkpt><trkpt lat="43.8552802" lon="12.636695"><ele>335.0</ele><time>2026-04-19T11:29:30.864Z</time></trkpt><trkpt lat="43.8552533" lon="12.6364987"><ele>333.0</ele><time>2026-04-19T11:29:31.852Z</time></trkpt><trkpt lat="43.8551964" lon="12.6362986"><ele>331.0</ele><time>2026-04-19T11:29:32.854Z</time></trkpt><trkpt lat="43.8551018" lon="12.6361053"><ele>324.3333333333333</ele><time>2026-04-19T11:29:33.852Z</time></trkpt><trkpt lat="43.8549986" lon="12.6359216"><ele>317.6666666666667</ele><time>2026-04-19T11:29:34.855Z</time></trkpt><trkpt lat="43.8548982" lon="12.6357424"><ele>311.0</ele><time>2026-04-19T11:29:35.854Z</time></trkpt><trkpt lat="43.8548057" lon="12.635547"><ele>311.0</ele><time>2026-04-19T11:29:36.864Z</time></trkpt><trkpt lat="43.8547097" lon="12.6353349"><ele>311.0</ele><time>2026-04-19T11:29:37.855Z</time></trkpt><trkpt lat="43.854635" lon="12.6350936"><ele>311.0</ele><time>2026-04-19T11:29:38.85Z</time></trkpt><trkpt lat="43.8545695" lon="12.6348485"><ele>311.33333333333337</ele><time>2026-04-19T11:29:39.849Z</time></trkpt><trkpt lat="43.8545157" lon="12.6346202"><ele>311.6666666666667</ele><time>2026-04-19T11:29:40.855Z</time></trkpt><trkpt lat="43.8544793" lon="12.6343952"><ele>312.0</ele><time>2026-04-19T11:29:41.854Z</time></trkpt><trkpt lat="43.8544588" lon="12.6341805"><ele>310.0</ele><time>2026-04-19T11:29:42.87Z</time></trkpt><trkpt lat="43.8544453" lon="12.6340036"><ele>308.0</ele><time>2026-04-19T11:29:43.853Z</time></trkpt><trkpt lat="43.8544463" lon="12.6338642"><ele>306.0</ele><time>2026-04-19T11:29:44.856Z</time></trkpt><trkpt lat="43.8544683" lon="12.6337579"><ele>304.0</ele><time>2026-04-19T11:29:45.855Z</time></trkpt><trkpt lat="43.8545183" lon="12.6336822"><ele>302.0</ele><time>2026-04-19T11:29:46.855Z</time></trkpt><trkpt lat="43.8546045" lon="12.6336289"><ele>299.4</ele><time>2026-04-19T11:29:47.874Z</time></trkpt><trkpt lat="43.8546935" lon="12.6336324"><ele>296.79999999999995</ele><time>2026-04-19T11:29:48.855Z</time></trkpt><trkpt lat="43.8547656" lon="12.633627"><ele>294.2</ele><time>2026-04-19T11:29:49.853Z</time></trkpt><trkpt lat="43.8548086" lon="12.633505"><ele>291.59999999999997</ele><time>2026-04-19T11:29:51.846Z</time></trkpt><trkpt lat="43.8547045" lon="12.6333857"><ele>289.0</ele><time>2026-04-19T11:29:53.856Z</time></trkpt><trkpt lat="43.8546127" lon="12.633351"><ele>289.0</ele><time>2026-04-19T11:29:54.855Z</time></trkpt><trkpt lat="43.8545284" lon="12.6333027"><ele>289.0</ele><time>2026-04-19T11:29:55.856Z</time></trkpt><trkpt lat="43.854436" lon="12.6332478"><ele>289.0</ele><time>2026-04-19T11:29:56.854Z</time></trkpt><trkpt lat="43.8543358" lon="12.6331956"><ele>289.0</ele><time>2026-04-19T11:29:57.855Z</time></trkpt><trkpt lat="43.8542406" lon="12.6331601"><ele>289.0</ele><time>2026-04-19T11:29:58.852Z</time></trkpt><trkpt lat="43.8541467" lon="12.6331323"><ele>288.3333333333333</ele><time>2026-04-19T11:29:59.851Z</time></trkpt><trkpt lat="43.8540581" lon="12.6331187"><ele>287.66666666666663</ele><time>2026-04-19T11:30:00.853Z</time></trkpt><trkpt lat="43.8539747" lon="12.6331261"><ele>287.0</ele><time>2026-04-19T11:30:01.872Z</time></trkpt><trkpt lat="43.8539013" lon="12.6331661"><ele>286.3333333333333</ele><time>2026-04-19T11:30:02.853Z</time></trkpt><trkpt lat="43.8538423" lon="12.6332332"><ele>285.6666666666667</ele><time>2026-04-19T11:30:03.86Z</time></trkpt><trkpt lat="43.8537993" lon="12.6333142"><ele>285.0</ele><time>2026-04-19T11:30:04.85Z</time></trkpt><trkpt lat="43.8537634" lon="12.6333994"><ele>285.0</ele><time>2026-04-19T11:30:05.853Z</time></trkpt><trkpt lat="43.8537259" lon="12.6334712"><ele>285.0</ele><time>2026-04-19T11:30:06.852Z</time></trkpt><trkpt lat="43.8536326" lon="12.6335015"><ele>285.0</ele><time>2026-04-19T11:30:08.882Z</time></trkpt><trkpt lat="43.8535671" lon="12.6333854"><ele>285.0</ele><time>2026-04-19T11:30:10.868Z</time></trkpt><trkpt lat="43.8535473" lon="12.6332944"><ele>285.0</ele><time>2026-04-19T11:30:11.858Z</time></trkpt><trkpt lat="43.8535314" lon="12.6331921"><ele>285.0</ele><time>2026-04-19T11:30:12.854Z</time></trkpt><trkpt lat="43.8535167" lon="12.6330888"><ele>285.0</ele><time>2026-04-19T11:30:13.855Z</time></trkpt><trkpt lat="43.8535025" lon="12.6329932"><ele>285.0</ele><time>2026-04-19T11:30:14.845Z</time></trkpt><trkpt lat="43.8534883" lon="12.6329038"><ele>285.0</ele><time>2026-04-19T11:30:15.865Z</time></trkpt><trkpt lat="43.8534747" lon="12.6328085"><ele>285.0</ele><time>2026-04-19T11:30:16.858Z</time></trkpt><trkpt lat="43.8534647" lon="12.6327003"><ele>285.0</ele><time>2026-04-19T11:30:17.855Z</time></trkpt><trkpt lat="43.8534631" lon="12.6325792"><ele>285.0</ele><time>2026-04-19T11:30:18.858Z</time></trkpt><trkpt lat="43.8534755" lon="12.6324529"><ele>283.0</ele><time>2026-04-19T11:30:19.863Z</time></trkpt><trkpt lat="43.8535064" lon="12.6323207"><ele>281.0</ele><time>2026-04-19T11:30:20.859Z</time></trkpt><trkpt lat="43.8535515" lon="12.6321838"><ele>279.0</ele><time>2026-04-19T11:30:21.86Z</time></trkpt><trkpt lat="43.8535971" lon="12.6320469"><ele>277.0</ele><time>2026-04-19T11:30:22.86Z</time></trkpt><trkpt lat="43.8536304" lon="12.6319121"><ele>275.0</ele><time>2026-04-19T11:30:23.849Z</time></trkpt><trkpt lat="43.8536488" lon="12.6317799"><ele>273.33333333333337</ele><time>2026-04-19T11:30:24.856Z</time></trkpt><trkpt lat="43.8536587" lon="12.6316544"><ele>271.6666666666667</ele><time>2026-04-19T11:30:25.855Z</time></trkpt><trkpt lat="43.8536668" lon="12.6315341"><ele>270.0</ele><time>2026-04-19T11:30:26.861Z</time></trkpt><trkpt lat="43.8536755" lon="12.6314199"><ele>268.3333333333333</ele><time>2026-04-19T11:30:27.857Z</time></trkpt><trkpt lat="43.8536822" lon="12.6313137"><ele>266.66666666666663</ele><time>2026-04-19T11:30:28.859Z</time></trkpt><trkpt lat="43.853679" lon="12.6312265"><ele>265.0</ele><time>2026-04-19T11:30:29.857Z</time></trkpt><trkpt lat="43.8536612" lon="12.6311251"><ele>263.66666666666663</ele><time>2026-04-19T11:30:31.86Z</time></trkpt><trkpt lat="43.8536435" lon="12.6310149"><ele>262.3333333333333</ele><time>2026-04-19T11:30:33.872Z</time></trkpt><trkpt lat="43.8536438" lon="12.6309176"><ele>261.0</ele><time>2026-04-19T11:30:34.861Z</time></trkpt><trkpt lat="43.853619" lon="12.6307766"><ele>259.6666666666667</ele><time>2026-04-19T11:30:36.862Z</time></trkpt><trkpt lat="43.853518" lon="12.6307782"><ele>258.33333333333337</ele><time>2026-04-19T11:30:38.859Z</time></trkpt><trkpt lat="43.853428" lon="12.6307722"><ele>257.0</ele><time>2026-04-19T11:30:39.869Z</time></trkpt><trkpt lat="43.8533598" lon="12.6307628"><ele>256.6</ele><time>2026-04-19T11:30:40.856Z</time></trkpt><trkpt lat="43.8532646" lon="12.6307588"><ele>256.2</ele><time>2026-04-19T11:30:42.852Z</time></trkpt><trkpt lat="43.8531743" lon="12.6307609"><ele>255.8</ele><time>2026-04-19T11:30:44.852Z</time></trkpt><trkpt lat="43.8530814" lon="12.630762"><ele>255.4</ele><time>2026-04-19T11:30:46.862Z</time></trkpt><trkpt lat="43.8529596" lon="12.6307348"><ele>255.0</ele><time>2026-04-19T11:30:48.853Z</time></trkpt><trkpt lat="43.8528794" lon="12.6306981"><ele>255.0</ele><time>2026-04-19T11:30:49.853Z</time></trkpt><trkpt lat="43.8528068" lon="12.630659"><ele>255.0</ele><time>2026-04-19T11:30:50.853Z</time></trkpt><trkpt lat="43.8527006" lon="12.6306093"><ele>255.0</ele><time>2026-04-19T11:30:52.853Z</time></trkpt><trkpt lat="43.8526089" lon="12.6306183"><ele>255.0</ele><time>2026-04-19T11:30:54.851Z</time></trkpt><trkpt lat="43.8525111" lon="12.6306401"><ele>255.0</ele><time>2026-04-19T11:30:56.851Z</time></trkpt><trkpt lat="43.8524156" lon="12.6306626"><ele>250.8</ele><time>2026-04-19T11:30:58.851Z</time></trkpt><trkpt lat="43.8523034" lon="12.6306754"><ele>246.6</ele><time>2026-04-19T11:31:00.852Z</time></trkpt><trkpt lat="43.8522402" lon="12.6306869"><ele>242.39999999999998</ele><time>2026-04-19T11:31:01.851Z</time></trkpt><trkpt lat="43.8521264" lon="12.6306863"><ele>238.2</ele><time>2026-04-19T11:31:03.851Z</time></trkpt><trkpt lat="43.8520267" lon="12.6306074"><ele>234.0</ele><time>2026-04-19T11:31:05.852Z</time></trkpt><trkpt lat="43.8519546" lon="12.630538"><ele>234.0</ele><time>2026-04-19T11:31:07.858Z</time></trkpt><trkpt lat="43.8518812" lon="12.6304932"><ele>234.0</ele><time>2026-04-19T11:31:10.853Z</time></trkpt><trkpt lat="43.8518082" lon="12.6304669"><ele>234.0</ele><time>2026-04-19T11:31:12.855Z</time></trkpt><trkpt lat="43.8517261" lon="12.6304511"><ele>234.0</ele><time>2026-04-19T11:31:15.871Z</time></trkpt><trkpt lat="43.8516553" lon="12.6304546"><ele>234.0</ele><time>2026-04-19T11:31:17.911Z</time></trkpt><trkpt lat="43.851576" lon="12.6304534"><ele>234.0</ele><time>2026-04-19T11:31:19.849Z</time></trkpt><trkpt lat="43.8515009" lon="12.6304507"><ele>230.0</ele><time>2026-04-19T11:31:21.849Z</time></trkpt><trkpt lat="43.8513812" lon="12.6304385"><ele>225.99999999999997</ele><time>2026-04-19T11:31:27.854Z</time></trkpt><trkpt lat="43.851306" lon="12.6304449"><ele>221.99999999999997</ele><time>2026-04-19T11:31:28.849Z</time></trkpt><trkpt lat="43.8512279" lon="12.6304503"><ele>218.0</ele><time>2026-04-19T11:31:29.848Z</time></trkpt><trkpt lat="43.8511406" lon="12.6304545"><ele>214.0</ele><time>2026-04-19T11:31:30.85Z</time></trkpt><trkpt lat="43.8510501" lon="12.6304525"><ele>213.99999999999997</ele><time>2026-04-19T11:31:31.852Z</time></trkpt><trkpt lat="43.8509629" lon="12.6304464"><ele>214.0</ele><time>2026-04-19T11:31:32.865Z</time></trkpt><trkpt lat="43.8508865" lon="12.6304415"><ele>214.0</ele><time>2026-04-19T11:31:33.852Z</time></trkpt><trkpt lat="43.8508094" lon="12.6304368"><ele>214.0</ele><time>2026-04-19T11:31:34.86Z</time></trkpt><trkpt lat="43.8507395" lon="12.6304241"><ele>213.99999999999997</ele><time>2026-04-19T11:31:35.856Z</time></trkpt><trkpt lat="43.8506763" lon="12.6304189"><ele>214.0</ele><time>2026-04-19T11:31:36.853Z</time></trkpt><trkpt lat="43.8505965" lon="12.6304012"><ele>211.16666666666666</ele><time>2026-04-19T11:31:37.856Z</time></trkpt><trkpt lat="43.8505028" lon="12.6303877"><ele>208.33333333333331</ele><time>2026-04-19T11:31:38.852Z</time></trkpt><trkpt lat="43.8504072" lon="12.6303838"><ele>205.5</ele><time>2026-04-19T11:31:39.868Z</time></trkpt><trkpt lat="43.8503204" lon="12.6303818"><ele>202.66666666666669</ele><time>2026-04-19T11:31:40.86Z</time></trkpt><trkpt lat="43.8502424" lon="12.630379"><ele>199.83333333333334</ele><time>2026-04-19T11:31:41.857Z</time></trkpt><trkpt lat="43.8501711" lon="12.6303808"><ele>197.0</ele><time>2026-04-19T11:31:42.852Z</time></trkpt><trkpt lat="43.8501044" lon="12.6303809"><ele>194.0</ele><time>2026-04-19T11:31:43.853Z</time></trkpt><trkpt lat="43.8499848" lon="12.6303834"><ele>191.0</ele><time>2026-04-19T11:31:45.858Z</time></trkpt><trkpt lat="43.8499193" lon="12.6303833"><ele>188.0</ele><time>2026-04-19T11:31:46.853Z</time></trkpt><trkpt lat="43.8498297" lon="12.6303774"><ele>185.0</ele><time>2026-04-19T11:31:47.861Z</time></trkpt><trkpt lat="43.8497305" lon="12.6303688"><ele>182.0</ele><time>2026-04-19T11:31:48.86Z</time></trkpt><trkpt lat="43.8496422" lon="12.6303564"><ele>182.0</ele><time>2026-04-19T11:31:49.853Z</time></trkpt><trkpt lat="43.8495666" lon="12.630349"><ele>182.0</ele><time>2026-04-19T11:31:50.854Z</time></trkpt><trkpt lat="43.8495019" lon="12.6303509"><ele>182.0</ele><time>2026-04-19T11:31:51.857Z</time></trkpt><trkpt lat="43.8493824" lon="12.6303271"><ele>182.0</ele><time>2026-04-19T11:31:53.863Z</time></trkpt><trkpt lat="43.8492942" lon="12.6302104"><ele>182.0</ele><time>2026-04-19T11:31:55.857Z</time></trkpt><trkpt lat="43.8492409" lon="12.6300762"><ele>180.33333333333331</ele><time>2026-04-19T11:31:57.856Z</time></trkpt><trkpt lat="43.849195" lon="12.6300154"><ele>178.66666666666666</ele><time>2026-04-19T11:31:58.852Z</time></trkpt><trkpt lat="43.8491329" lon="12.6299524"><ele>177.0</ele><time>2026-04-19T11:31:59.849Z</time></trkpt><trkpt lat="43.8490652" lon="12.6299001"><ele>175.33333333333334</ele><time>2026-04-19T11:32:00.857Z</time></trkpt><trkpt lat="43.8489674" lon="12.629862"><ele>173.66666666666669</ele><time>2026-04-19T11:32:02.859Z</time></trkpt><trkpt lat="43.8488783" lon="12.6298357"><ele>172.0</ele><time>2026-04-19T11:32:04.858Z</time></trkpt><trkpt lat="43.8487458" lon="12.6297803"><ele>172.0</ele><time>2026-04-19T11:32:06.852Z</time></trkpt><trkpt lat="43.8486582" lon="12.629736"><ele>172.0</ele><time>2026-04-19T11:32:07.855Z</time></trkpt><trkpt lat="43.8485578" lon="12.6296779"><ele>172.0</ele><time>2026-04-19T11:32:08.856Z</time></trkpt><trkpt lat="43.8484691" lon="12.6296192"><ele>172.0</ele><time>2026-04-19T11:32:09.853Z</time></trkpt><trkpt lat="43.8483944" lon="12.6295608"><ele>172.0</ele><time>2026-04-19T11:32:10.869Z</time></trkpt><trkpt lat="43.8483262" lon="12.6295142"><ele>170.5</ele><time>2026-04-19T11:32:11.85Z</time></trkpt><trkpt lat="43.8482667" lon="12.6294794"><ele>169.0</ele><time>2026-04-19T11:32:12.853Z</time></trkpt><trkpt lat="43.8481262" lon="12.6294453"><ele>167.5</ele><time>2026-04-19T11:32:14.854Z</time></trkpt><trkpt lat="43.8480423" lon="12.6294329"><ele>166.0</ele><time>2026-04-19T11:32:15.853Z</time></trkpt><trkpt lat="43.8479674" lon="12.6294133"><ele>164.5</ele><time>2026-04-19T11:32:16.849Z</time></trkpt><trkpt lat="43.8478938" lon="12.6293858"><ele>163.0</ele><time>2026-04-19T11:32:17.851Z</time></trkpt><trkpt lat="43.8478297" lon="12.6293583"><ele>163.0</ele><time>2026-04-19T11:32:18.852Z</time></trkpt><trkpt lat="43.8477008" lon="12.6293075"><ele>163.0</ele><time>2026-04-19T11:32:20.866Z</time></trkpt><trkpt lat="43.8476346" lon="12.6292858"><ele>163.0</ele><time>2026-04-19T11:32:21.856Z</time></trkpt><trkpt lat="43.8475132" lon="12.6292534"><ele>163.0</ele><time>2026-04-19T11:32:23.858Z</time></trkpt><trkpt lat="43.847444" lon="12.6292385"><ele>163.0</ele><time>2026-04-19T11:32:25.857Z</time></trkpt><trkpt lat="43.8473634" lon="12.6292259"><ele>162.0</ele><time>2026-04-19T11:32:27.854Z</time></trkpt><trkpt lat="43.8472352" lon="12.6292036"><ele>161.0</ele><time>2026-04-19T11:32:29.853Z</time></trkpt><trkpt lat="43.8471693" lon="12.6291834"><ele>160.0</ele><time>2026-04-19T11:32:30.858Z</time></trkpt><trkpt lat="43.8471037" lon="12.6291578"><ele>159.0</ele><time>2026-04-19T11:32:31.856Z</time></trkpt><trkpt lat="43.8470444" lon="12.6291241"><ele>158.0</ele><time>2026-04-19T11:32:32.856Z</time></trkpt><trkpt lat="43.8469846" lon="12.629079"><ele>157.0</ele><time>2026-04-19T11:32:33.857Z</time></trkpt><trkpt lat="43.8469067" lon="12.6290516"><ele>157.0</ele><time>2026-04-19T11:32:34.856Z</time></trkpt><trkpt lat="43.8468351" lon="12.6290541"><ele>157.0</ele><time>2026-04-19T11:32:35.852Z</time></trkpt><trkpt lat="43.8467314" lon="12.6290492"><ele>157.0</ele><time>2026-04-19T11:32:37.853Z</time></trkpt><trkpt lat="43.846607" lon="12.6289815"><ele>157.0</ele><time>2026-04-19T11:32:39.856Z</time></trkpt><trkpt lat="43.8465105" lon="12.6289575"><ele>157.0</ele><time>2026-04-19T11:32:40.851Z</time></trkpt><trkpt lat="43.8464161" lon="12.6289533"><ele>156.0</ele><time>2026-04-19T11:32:41.855Z</time></trkpt><trkpt lat="43.8463397" lon="12.6289749"><ele>155.0</ele><time>2026-04-19T11:32:42.853Z</time></trkpt><trkpt lat="43.8462725" lon="12.6290134"><ele>154.0</ele><time>2026-04-19T11:32:43.851Z</time></trkpt><trkpt lat="43.8462145" lon="12.6290647"><ele>153.0</ele><time>2026-04-19T11:32:44.869Z</time></trkpt><trkpt lat="43.8461242" lon="12.629126"><ele>152.0</ele><time>2026-04-19T11:32:46.853Z</time></trkpt><trkpt lat="43.8460545" lon="12.6291728"><ele>151.0</ele><time>2026-04-19T11:32:48.865Z</time></trkpt><trkpt lat="43.8459523" lon="12.6292522"><ele>149.66666666666669</ele><time>2026-04-19T11:32:51.856Z</time></trkpt><trkpt lat="43.8459002" lon="12.6293026"><ele>148.33333333333334</ele><time>2026-04-19T11:32:52.85Z</time></trkpt><trkpt lat="43.845839" lon="12.6293515"><ele>147.0</ele><time>2026-04-19T11:32:53.863Z</time></trkpt><trkpt lat="43.8457602" lon="12.6294068"><ele>145.66666666666666</ele><time>2026-04-19T11:32:54.85Z</time></trkpt><trkpt lat="43.8456824" lon="12.6294571"><ele>144.33333333333331</ele><time>2026-04-19T11:32:55.86Z</time></trkpt><trkpt lat="43.8456184" lon="12.6294946"><ele>143.0</ele><time>2026-04-19T11:32:56.851Z</time></trkpt><trkpt lat="43.8454908" lon="12.6295089"><ele>142.66666666666666</ele><time>2026-04-19T11:32:58.855Z</time></trkpt><trkpt lat="43.8454193" lon="12.6295143"><ele>142.33333333333331</ele><time>2026-04-19T11:32:59.847Z</time></trkpt><trkpt lat="43.8453374" lon="12.6295494"><ele>142.0</ele><time>2026-04-19T11:33:00.876Z</time></trkpt><trkpt lat="43.8452657" lon="12.6296013"><ele>141.66666666666666</ele><time>2026-04-19T11:33:01.85Z</time></trkpt><trkpt lat="43.8452099" lon="12.6296582"><ele>141.33333333333334</ele><time>2026-04-19T11:33:02.856Z</time></trkpt><trkpt lat="43.8451658" lon="12.6297482"><ele>141.0</ele><time>2026-04-19T11:33:03.852Z</time></trkpt><trkpt lat="43.8451117" lon="12.6298932"><ele>139.75</ele><time>2026-04-19T11:33:04.853Z</time></trkpt><trkpt lat="43.8450543" lon="12.6300517"><ele>138.5</ele><time>2026-04-19T11:33:05.853Z</time></trkpt><trkpt lat="43.8450012" lon="12.630204"><ele>137.25</ele><time>2026-04-19T11:33:06.849Z</time></trkpt><trkpt lat="43.8449495" lon="12.6303439"><ele>136.0</ele><time>2026-04-19T11:33:07.851Z</time></trkpt><trkpt lat="43.8449099" lon="12.6304687"><ele>135.4</ele><time>2026-04-19T11:33:08.856Z</time></trkpt><trkpt lat="43.8448823" lon="12.630595"><ele>134.8</ele><time>2026-04-19T11:33:09.852Z</time></trkpt><trkpt lat="43.8448592" lon="12.6307273"><ele>134.20000000000002</ele><time>2026-04-19T11:33:10.872Z</time></trkpt><trkpt lat="43.8448387" lon="12.6308576"><ele>133.6</ele><time>2026-04-19T11:33:11.854Z</time></trkpt><trkpt lat="43.8448178" lon="12.6309937"><ele>133.0</ele><time>2026-04-19T11:33:12.856Z</time></trkpt><trkpt lat="43.844793" lon="12.6311267"><ele>132.83333333333334</ele><time>2026-04-19T11:33:13.859Z</time></trkpt><trkpt lat="43.8447658" lon="12.6312312"><ele>132.66666666666669</ele><time>2026-04-19T11:33:14.851Z</time></trkpt><trkpt lat="43.8447562" lon="12.631319"><ele>132.5</ele><time>2026-04-19T11:33:15.864Z</time></trkpt><trkpt lat="43.8447766" lon="12.6314645"><ele>132.33333333333334</ele><time>2026-04-19T11:33:17.854Z</time></trkpt><trkpt lat="43.8446963" lon="12.6315768"><ele>132.16666666666666</ele><time>2026-04-19T11:33:19.857Z</time></trkpt><trkpt lat="43.8446354" lon="12.6316431"><ele>132.0</ele><time>2026-04-19T11:33:20.852Z</time></trkpt><trkpt lat="43.8445716" lon="12.6317773"><ele>132.0</ele><time>2026-04-19T11:33:22.854Z</time></trkpt><trkpt lat="43.8445555" lon="12.631902"><ele>132.0</ele><time>2026-04-19T11:33:23.851Z</time></trkpt><trkpt lat="43.8445399" lon="12.6320399"><ele>132.0</ele><time>2026-04-19T11:33:24.867Z</time></trkpt><trkpt lat="43.8445151" lon="12.6321636"><ele>132.0</ele><time>2026-04-19T11:33:25.851Z</time></trkpt><trkpt lat="43.8444704" lon="12.6322737"><ele>132.0</ele><time>2026-04-19T11:33:26.85Z</time></trkpt><trkpt lat="43.8444235" lon="12.6323847"><ele>132.0</ele><time>2026-04-19T11:33:27.856Z</time></trkpt><trkpt lat="43.8443879" lon="12.6325117"><ele>132.0</ele><time>2026-04-19T11:33:28.853Z</time></trkpt><trkpt lat="43.844337" lon="12.6326368"><ele>132.0</ele><time>2026-04-19T11:33:29.88Z</time></trkpt><trkpt lat="43.8442835" lon="12.6327445"><ele>132.0</ele><time>2026-04-19T11:33:30.851Z</time></trkpt><trkpt lat="43.8442343" lon="12.6328459"><ele>132.0</ele><time>2026-04-19T11:33:31.851Z</time></trkpt><trkpt lat="43.8441976" lon="12.6329538"><ele>131.0</ele><time>2026-04-19T11:33:32.854Z</time></trkpt><trkpt lat="43.8441729" lon="12.6330749"><ele>130.0</ele><time>2026-04-19T11:33:33.854Z</time></trkpt><trkpt lat="43.8441556" lon="12.6331796"><ele>129.0</ele><time>2026-04-19T11:33:34.853Z</time></trkpt><trkpt lat="43.8441298" lon="12.6332624"><ele>128.0</ele><time>2026-04-19T11:33:35.862Z</time></trkpt><trkpt lat="43.8440727" lon="12.6333306"><ele>127.0</ele><time>2026-04-19T11:33:36.851Z</time></trkpt><trkpt lat="43.8439944" lon="12.6334056"><ele>126.0</ele><time>2026-04-19T11:33:37.852Z</time></trkpt><trkpt lat="43.8439093" lon="12.6334672"><ele>126.0</ele><time>2026-04-19T11:33:38.852Z</time></trkpt><trkpt lat="43.8438257" lon="12.633505"><ele>126.0</ele><time>2026-04-19T11:33:39.853Z</time></trkpt><trkpt lat="43.8437315" lon="12.6335142"><ele>126.0</ele><time>2026-04-19T11:33:40.868Z</time></trkpt><trkpt lat="43.8436337" lon="12.6335069"><ele>126.0</ele><time>2026-04-19T11:33:41.849Z</time></trkpt><trkpt lat="43.8435505" lon="12.6335078"><ele>126.0</ele><time>2026-04-19T11:33:42.852Z</time></trkpt><trkpt lat="43.8434727" lon="12.6335305"><ele>126.0</ele><time>2026-04-19T11:33:43.853Z</time></trkpt><trkpt lat="43.8433835" lon="12.6335855"><ele>125.83333333333333</ele><time>2026-04-19T11:33:44.85Z</time></trkpt><trkpt lat="43.8432806" lon="12.6336409"><ele>125.66666666666666</ele><time>2026-04-19T11:33:45.848Z</time></trkpt><trkpt lat="43.8431777" lon="12.6336725"><ele>125.5</ele><time>2026-04-19T11:33:46.85Z</time></trkpt><trkpt lat="43.843103" lon="12.6336923"><ele>125.33333333333333</ele><time>2026-04-19T11:33:47.851Z</time></trkpt><trkpt lat="43.843041" lon="12.6337172"><ele>125.16666666666666</ele><time>2026-04-19T11:33:48.846Z</time></trkpt><trkpt lat="43.8429897" lon="12.6337787"><ele>125.0</ele><time>2026-04-19T11:33:49.852Z</time></trkpt><trkpt lat="43.8429314" lon="12.63384"><ele>125.0</ele><time>2026-04-19T11:33:50.85Z</time></trkpt><trkpt lat="43.842857" lon="12.6338826"><ele>125.0</ele><time>2026-04-19T11:33:51.857Z</time></trkpt><trkpt lat="43.8427641" lon="12.6339151"><ele>125.0</ele><time>2026-04-19T11:33:52.848Z</time></trkpt><trkpt lat="43.8426937" lon="12.6339338"><ele>125.0</ele><time>2026-04-19T11:33:53.851Z</time></trkpt><trkpt lat="43.8425911" lon="12.6338727"><ele>125.0</ele><time>2026-04-19T11:33:55.855Z</time></trkpt><trkpt lat="43.8425078" lon="12.6338212"><ele>124.6</ele><time>2026-04-19T11:33:56.857Z</time></trkpt><trkpt lat="43.8424277" lon="12.6338012"><ele>124.2</ele><time>2026-04-19T11:33:57.871Z</time></trkpt><trkpt lat="43.8423348" lon="12.633826"><ele>123.80000000000001</ele><time>2026-04-19T11:33:59.849Z</time></trkpt><trkpt lat="43.8421793" lon="12.6339294"><ele>123.4</ele><time>2026-04-19T11:34:02.85Z</time></trkpt><trkpt lat="43.842119" lon="12.6339969"><ele>123.0</ele><time>2026-04-19T11:34:03.848Z</time></trkpt><trkpt lat="43.8420843" lon="12.6340871"><ele>123.0</ele><time>2026-04-19T11:34:04.848Z</time></trkpt><trkpt lat="43.8420656" lon="12.6342324"><ele>123.00000000000001</ele><time>2026-04-19T11:34:05.87Z</time></trkpt><trkpt lat="43.8420499" lon="12.6343899"><ele>123.00000000000001</ele><time>2026-04-19T11:34:06.852Z</time></trkpt><trkpt lat="43.842044" lon="12.6345205"><ele>123.0</ele><time>2026-04-19T11:34:07.848Z</time></trkpt><trkpt lat="43.8420317" lon="12.6346133"><ele>123.0</ele><time>2026-04-19T11:34:08.85Z</time></trkpt><trkpt lat="43.8419953" lon="12.6347048"><ele>123.0</ele><time>2026-04-19T11:34:09.845Z</time></trkpt><trkpt lat="43.8419262" lon="12.6347826"><ele>123.00000000000001</ele><time>2026-04-19T11:34:10.854Z</time></trkpt><trkpt lat="43.841835" lon="12.6348665"><ele>123.00000000000001</ele><time>2026-04-19T11:34:11.849Z</time></trkpt><trkpt lat="43.8417429" lon="12.6349564"><ele>123.0</ele><time>2026-04-19T11:34:12.867Z</time></trkpt><trkpt lat="43.8416576" lon="12.6350707"><ele>123.0</ele><time>2026-04-19T11:34:13.858Z</time></trkpt><trkpt lat="43.8415613" lon="12.6352159"><ele>122.60000000000001</ele><time>2026-04-19T11:34:14.851Z</time></trkpt><trkpt lat="43.8414673" lon="12.6353537"><ele>122.20000000000002</ele><time>2026-04-19T11:34:15.854Z</time></trkpt><trkpt lat="43.8413944" lon="12.6354642"><ele>121.8</ele><time>2026-04-19T11:34:16.853Z</time></trkpt><trkpt lat="43.8413324" lon="12.6355484"><ele>121.4</ele><time>2026-04-19T11:34:17.854Z</time></trkpt><trkpt lat="43.8412578" lon="12.6356222"><ele>121.0</ele><time>2026-04-19T11:34:19.851Z</time></trkpt><trkpt lat="43.8411909" lon="12.6356273"><ele>121.0</ele><time>2026-04-19T11:34:21.884Z</time></trkpt><trkpt lat="43.8410559" lon="12.6356714"><ele>121.0</ele><time>2026-04-19T11:34:23.857Z</time></trkpt><trkpt lat="43.8409835" lon="12.6357109"><ele>121.0</ele><time>2026-04-19T11:34:24.851Z</time></trkpt><trkpt lat="43.8408998" lon="12.6357688"><ele>121.0</ele><time>2026-04-19T11:34:25.851Z</time></trkpt><trkpt lat="43.8408207" lon="12.6358507"><ele>121.0</ele><time>2026-04-19T11:34:26.851Z</time></trkpt><trkpt lat="43.8407459" lon="12.6359505"><ele>120.83333333333334</ele><time>2026-04-19T11:34:27.854Z</time></trkpt><trkpt lat="43.8406749" lon="12.6360279"><ele>120.66666666666667</ele><time>2026-04-19T11:34:28.856Z</time></trkpt><trkpt lat="43.8406019" lon="12.6361051"><ele>120.5</ele><time>2026-04-19T11:34:30.853Z</time></trkpt><trkpt lat="43.8405574" lon="12.6361682"><ele>120.33333333333334</ele><time>2026-04-19T11:34:33.921Z</time></trkpt><trkpt lat="43.8405776" lon="12.6362623"><ele>120.16666666666667</ele><time>2026-04-19T11:34:35.89Z</time></trkpt><trkpt lat="43.8406558" lon="12.6363722"><ele>120.0</ele><time>2026-04-19T11:34:36.849Z</time></trkpt><trkpt lat="43.8407255" lon="12.6365081"><ele>120.0</ele><time>2026-04-19T11:34:37.856Z</time></trkpt><trkpt lat="43.8407619" lon="12.6366486"><ele>120.0</ele><time>2026-04-19T11:34:38.849Z</time></trkpt><trkpt lat="43.8407634" lon="12.6368063"><ele>120.0</ele><time>2026-04-19T11:34:39.859Z</time></trkpt><trkpt lat="43.8407403" lon="12.6369773"><ele>120.0</ele><time>2026-04-19T11:34:40.852Z</time></trkpt><trkpt lat="43.8407031" lon="12.6371574"><ele>119.75</ele><time>2026-04-19T11:34:41.845Z</time></trkpt><trkpt lat="43.8406655" lon="12.6373349"><ele>119.5</ele><time>2026-04-19T11:34:42.849Z</time></trkpt><trkpt lat="43.8406232" lon="12.6374882"><ele>119.25</ele><time>2026-04-19T11:34:43.85Z</time></trkpt><trkpt lat="43.8405555" lon="12.6376112"><ele>119.0</ele><time>2026-04-19T11:34:44.853Z</time></trkpt><trkpt lat="43.8404793" lon="12.6377309"><ele>119.25</ele><time>2026-04-19T11:34:45.864Z</time></trkpt><trkpt lat="43.8403935" lon="12.6378465"><ele>119.5</ele><time>2026-04-19T11:34:46.847Z</time></trkpt><trkpt lat="43.8403294" lon="12.6379938"><ele>119.75</ele><time>2026-04-19T11:34:47.843Z</time></trkpt><trkpt lat="43.8403001" lon="12.6381562"><ele>120.0</ele><time>2026-04-19T11:34:48.851Z</time></trkpt><trkpt lat="43.8403002" lon="12.6383269"><ele>120.0</ele><time>2026-04-19T11:34:49.851Z</time></trkpt><trkpt lat="43.8403233" lon="12.6385114"><ele>120.0</ele><time>2026-04-19T11:34:50.859Z</time></trkpt><trkpt lat="43.8403492" lon="12.6387055"><ele>120.0</ele><time>2026-04-19T11:34:51.857Z</time></trkpt><trkpt lat="43.8403649" lon="12.6389011"><ele>120.0</ele><time>2026-04-19T11:34:52.863Z</time></trkpt><trkpt lat="43.8403809" lon="12.639079"><ele>120.0</ele><time>2026-04-19T11:34:53.855Z</time></trkpt><trkpt lat="43.8404157" lon="12.6392388"><ele>120.0</ele><time>2026-04-19T11:34:54.853Z</time></trkpt><trkpt lat="43.8404677" lon="12.639405"><ele>120.0</ele><time>2026-04-19T11:34:55.858Z</time></trkpt><trkpt lat="43.8405592" lon="12.639571"><ele>120.0</ele><time>2026-04-19T11:34:56.859Z</time></trkpt><trkpt lat="43.8406724" lon="12.6397474"><ele>120.33333333333334</ele><time>2026-04-19T11:34:57.856Z</time></trkpt><trkpt lat="43.8408016" lon="12.6399263"><ele>120.66666666666667</ele><time>2026-04-19T11:34:58.853Z</time></trkpt><trkpt lat="43.8409439" lon="12.6401049"><ele>121.0</ele><time>2026-04-19T11:34:59.853Z</time></trkpt><trkpt lat="43.8410791" lon="12.64028"><ele>120.0</ele><time>2026-04-19T11:35:00.855Z</time></trkpt><trkpt lat="43.8412026" lon="12.6404525"><ele>119.0</ele><time>2026-04-19T11:35:01.853Z</time></trkpt><trkpt lat="43.8413035" lon="12.6406038"><ele>118.0</ele><time>2026-04-19T11:35:02.85Z</time></trkpt><trkpt lat="43.8413937" lon="12.6407677"><ele>118.0</ele><time>2026-04-19T11:35:03.856Z</time></trkpt><trkpt lat="43.8414632" lon="12.6409305"><ele>118.0</ele><time>2026-04-19T11:35:04.854Z</time></trkpt><trkpt lat="43.8415144" lon="12.6410858"><ele>118.0</ele><time>2026-04-19T11:35:05.859Z</time></trkpt><trkpt lat="43.8415469" lon="12.6412456"><ele>118.0</ele><time>2026-04-19T11:35:06.863Z</time></trkpt><trkpt lat="43.8415337" lon="12.6414028"><ele>118.5</ele><time>2026-04-19T11:35:07.852Z</time></trkpt><trkpt lat="43.8414932" lon="12.6415525"><ele>119.0</ele><time>2026-04-19T11:35:08.852Z</time></trkpt><trkpt lat="43.8414284" lon="12.6416978"><ele>119.5</ele><time>2026-04-19T11:35:09.857Z</time></trkpt><trkpt lat="43.8413668" lon="12.6418389"><ele>120.0</ele><time>2026-04-19T11:35:10.852Z</time></trkpt><trkpt lat="43.8413291" lon="12.641981"><ele>120.33333333333334</ele><time>2026-04-19T11:35:11.858Z</time></trkpt><trkpt lat="43.8413118" lon="12.6421585"><ele>120.66666666666667</ele><time>2026-04-19T11:35:12.852Z</time></trkpt><trkpt lat="43.8412838" lon="12.6423762"><ele>121.0</ele><time>2026-04-19T11:35:13.848Z</time></trkpt><trkpt lat="43.8412356" lon="12.6426339"><ele>122.33333333333334</ele><time>2026-04-19T11:35:14.869Z</time></trkpt><trkpt lat="43.8411693" lon="12.6429157"><ele>123.66666666666666</ele><time>2026-04-19T11:35:15.856Z</time></trkpt><trkpt lat="43.8410966" lon="12.6432141"><ele>125.0</ele><time>2026-04-19T11:35:16.855Z</time></trkpt><trkpt lat="43.8410248" lon="12.6435018"><ele>122.33333333333333</ele><time>2026-04-19T11:35:17.852Z</time></trkpt><trkpt lat="43.8409561" lon="12.6437601"><ele>119.66666666666666</ele><time>2026-04-19T11:35:18.852Z</time></trkpt><trkpt lat="43.8408922" lon="12.6439852"><ele>117.0</ele><time>2026-04-19T11:35:19.851Z</time></trkpt><trkpt lat="43.8408377" lon="12.6441729"><ele>117.0</ele><time>2026-04-19T11:35:20.852Z</time></trkpt><trkpt lat="43.8408022" lon="12.6443332"><ele>117.0</ele><time>2026-04-19T11:35:21.849Z</time></trkpt><trkpt lat="43.8407911" lon="12.6444989"><ele>117.0</ele><time>2026-04-19T11:35:22.848Z</time></trkpt><trkpt lat="43.8407981" lon="12.6446859"><ele>117.0</ele><time>2026-04-19T11:35:23.85Z</time></trkpt><trkpt lat="43.8407936" lon="12.644871"><ele>117.33333333333334</ele><time>2026-04-19T11:35:24.863Z</time></trkpt><trkpt lat="43.8407611" lon="12.6450541"><ele>117.66666666666667</ele><time>2026-04-19T11:35:25.846Z</time></trkpt><trkpt lat="43.8407214" lon="12.6452574"><ele>118.0</ele><time>2026-04-19T11:35:26.852Z</time></trkpt><trkpt lat="43.8406569" lon="12.6454997"><ele>118.66666666666667</ele><time>2026-04-19T11:35:27.853Z</time></trkpt><trkpt lat="43.8406029" lon="12.6457419"><ele>119.33333333333334</ele><time>2026-04-19T11:35:28.845Z</time></trkpt><trkpt lat="43.8405432" lon="12.6459413"><ele>120.0</ele><time>2026-04-19T11:35:29.873Z</time></trkpt><trkpt lat="43.8404777" lon="12.6460991"><ele>120.25</ele><time>2026-04-19T11:35:30.845Z</time></trkpt><trkpt lat="43.8403863" lon="12.6462071"><ele>120.5</ele><time>2026-04-19T11:35:31.851Z</time></trkpt><trkpt lat="43.8402662" lon="12.6462893"><ele>120.75</ele><time>2026-04-19T11:35:32.849Z</time></trkpt><trkpt lat="43.8401188" lon="12.6463664"><ele>121.0</ele><time>2026-04-19T11:35:33.851Z</time></trkpt><trkpt lat="43.8399658" lon="12.6464167"><ele>121.0</ele><time>2026-04-19T11:35:34.862Z</time></trkpt><trkpt lat="43.839823" lon="12.6464586"><ele>121.0</ele><time>2026-04-19T11:35:35.852Z</time></trkpt><trkpt lat="43.8396975" lon="12.6464987"><ele>121.0</ele><time>2026-04-19T11:35:36.851Z</time></trkpt><trkpt lat="43.8395798" lon="12.6465464"><ele>121.0</ele><time>2026-04-19T11:35:37.849Z</time></trkpt><trkpt lat="43.8394545" lon="12.6466011"><ele>121.0</ele><time>2026-04-19T11:35:38.852Z</time></trkpt><trkpt lat="43.8393253" lon="12.646653"><ele>121.0</ele><time>2026-04-19T11:35:39.851Z</time></trkpt><trkpt lat="43.8392044" lon="12.6467085"><ele>121.0</ele><time>2026-04-19T11:35:40.853Z</time></trkpt><trkpt lat="43.8390993" lon="12.6467783"><ele>121.0</ele><time>2026-04-19T11:35:41.851Z</time></trkpt><trkpt lat="43.8390118" lon="12.6468589"><ele>120.83333333333334</ele><time>2026-04-19T11:35:42.849Z</time></trkpt><trkpt lat="43.8389441" lon="12.6469364"><ele>120.66666666666667</ele><time>2026-04-19T11:35:43.85Z</time></trkpt><trkpt lat="43.8388867" lon="12.6469999"><ele>120.5</ele><time>2026-04-19T11:35:44.849Z</time></trkpt><trkpt lat="43.8388241" lon="12.6470455"><ele>120.33333333333334</ele><time>2026-04-19T11:35:45.845Z</time></trkpt><trkpt lat="43.838756" lon="12.6470696"><ele>120.16666666666667</ele><time>2026-04-19T11:35:46.871Z</time></trkpt><trkpt lat="43.8386886" lon="12.6470561"><ele>120.0</ele><time>2026-04-19T11:35:47.847Z</time></trkpt><trkpt lat="43.8386195" lon="12.6469941"><ele>119.83333333333333</ele><time>2026-04-19T11:35:48.846Z</time></trkpt><trkpt lat="43.8385516" lon="12.6469064"><ele>119.66666666666666</ele><time>2026-04-19T11:35:49.848Z</time></trkpt><trkpt lat="43.8384949" lon="12.6468221"><ele>119.5</ele><time>2026-04-19T11:35:50.849Z</time></trkpt><trkpt lat="43.8384673" lon="12.6467243"><ele>119.33333333333333</ele><time>2026-04-19T11:35:51.862Z</time></trkpt><trkpt lat="43.8384712" lon="12.6466277"><ele>119.16666666666666</ele><time>2026-04-19T11:35:52.85Z</time></trkpt><trkpt lat="43.8384979" lon="12.6465313"><ele>119.0</ele><time>2026-04-19T11:35:53.845Z</time></trkpt><trkpt lat="43.8385065" lon="12.6464236"><ele>119.0</ele><time>2026-04-19T11:35:54.847Z</time></trkpt><trkpt lat="43.8384889" lon="12.6463188"><ele>119.0</ele><time>2026-04-19T11:35:55.85Z</time></trkpt><trkpt lat="43.8384382" lon="12.6461964"><ele>119.0</ele><time>2026-04-19T11:35:56.858Z</time></trkpt><trkpt lat="43.8383581" lon="12.6460472"><ele>119.0</ele><time>2026-04-19T11:35:57.848Z</time></trkpt><trkpt lat="43.8382742" lon="12.6459075"><ele>119.0</ele><time>2026-04-19T11:35:58.845Z</time></trkpt><trkpt lat="43.8381872" lon="12.6457896"><ele>117.0</ele><time>2026-04-19T11:35:59.843Z</time></trkpt><trkpt lat="43.8380943" lon="12.6457026"><ele>115.0</ele><time>2026-04-19T11:36:00.847Z</time></trkpt><trkpt lat="43.8380034" lon="12.6456445"><ele>113.0</ele><time>2026-04-19T11:36:01.852Z</time></trkpt><trkpt lat="43.8379285" lon="12.6456185"><ele>111.0</ele><time>2026-04-19T11:36:02.847Z</time></trkpt><trkpt lat="43.8378295" lon="12.6456976"><ele>109.0</ele><time>2026-04-19T11:36:04.847Z</time></trkpt><trkpt lat="43.8377851" lon="12.6457947"><ele>109.0</ele><time>2026-04-19T11:36:05.849Z</time></trkpt><trkpt lat="43.8377255" lon="12.6459173"><ele>109.0</ele><time>2026-04-19T11:36:06.86Z</time></trkpt><trkpt lat="43.8376556" lon="12.6460267"><ele>109.0</ele><time>2026-04-19T11:36:07.849Z</time></trkpt><trkpt lat="43.8375748" lon="12.6460799"><ele>109.0</ele><time>2026-04-19T11:36:08.87Z</time></trkpt><trkpt lat="43.8374976" lon="12.646084"><ele>109.0</ele><time>2026-04-19T11:36:09.847Z</time></trkpt><trkpt lat="43.8374299" lon="12.6460199"><ele>109.80000000000001</ele><time>2026-04-19T11:36:10.848Z</time></trkpt><trkpt lat="43.8373719" lon="12.6459132"><ele>110.60000000000001</ele><time>2026-04-19T11:36:11.848Z</time></trkpt><trkpt lat="43.837308" lon="12.6457772"><ele>111.4</ele><time>2026-04-19T11:36:12.851Z</time></trkpt><trkpt lat="43.8372397" lon="12.6456471"><ele>112.2</ele><time>2026-04-19T11:36:13.847Z</time></trkpt><trkpt lat="43.8371616" lon="12.6455538"><ele>113.0</ele><time>2026-04-19T11:36:14.857Z</time></trkpt><trkpt lat="43.8370699" lon="12.6454974"><ele>113.0</ele><time>2026-04-19T11:36:15.856Z</time></trkpt><trkpt lat="43.8369692" lon="12.6454697"><ele>113.0</ele><time>2026-04-19T11:36:16.855Z</time></trkpt><trkpt lat="43.8368567" lon="12.6454823"><ele>113.0</ele><time>2026-04-19T11:36:17.849Z</time></trkpt><trkpt lat="43.8367316" lon="12.6455122"><ele>113.0</ele><time>2026-04-19T11:36:18.865Z</time></trkpt><trkpt lat="43.8365925" lon="12.6455683"><ele>115.80000000000001</ele><time>2026-04-19T11:36:19.849Z</time></trkpt><trkpt lat="43.8364683" lon="12.6456224"><ele>118.60000000000001</ele><time>2026-04-19T11:36:20.854Z</time></trkpt><trkpt lat="43.836387" lon="12.6456841"><ele>121.39999999999999</ele><time>2026-04-19T11:36:21.856Z</time></trkpt><trkpt lat="43.8363321" lon="12.6457678"><ele>124.19999999999999</ele><time>2026-04-19T11:36:22.854Z</time></trkpt><trkpt lat="43.8362857" lon="12.6458752"><ele>127.0</ele><time>2026-04-19T11:36:23.871Z</time></trkpt><trkpt lat="43.8362601" lon="12.6460083"><ele>127.25</ele><time>2026-04-19T11:36:24.849Z</time></trkpt><trkpt lat="43.8362411" lon="12.6461709"><ele>127.5</ele><time>2026-04-19T11:36:25.853Z</time></trkpt><trkpt lat="43.8362227" lon="12.6463536"><ele>127.75</ele><time>2026-04-19T11:36:26.849Z</time></trkpt><trkpt lat="43.8362009" lon="12.6465473"><ele>128.0</ele><time>2026-04-19T11:36:27.852Z</time></trkpt><trkpt lat="43.8361738" lon="12.6467538"><ele>127.66666666666666</ele><time>2026-04-19T11:36:28.854Z</time></trkpt><trkpt lat="43.8361457" lon="12.646973"><ele>127.33333333333334</ele><time>2026-04-19T11:36:29.854Z</time></trkpt><trkpt lat="43.8361161" lon="12.6471949"><ele>127.0</ele><time>2026-04-19T11:36:30.874Z</time></trkpt><trkpt lat="43.8360865" lon="12.6474002"><ele>127.0</ele><time>2026-04-19T11:36:31.853Z</time></trkpt><trkpt lat="43.83605" lon="12.6475976"><ele>127.0</ele><time>2026-04-19T11:36:32.86Z</time></trkpt><trkpt lat="43.8359987" lon="12.6478031"><ele>127.0</ele><time>2026-04-19T11:36:33.858Z</time></trkpt><trkpt lat="43.8359272" lon="12.648024"><ele>132.0</ele><time>2026-04-19T11:36:34.851Z</time></trkpt><trkpt lat="43.8358448" lon="12.6482449"><ele>137.0</ele><time>2026-04-19T11:36:35.849Z</time></trkpt><trkpt lat="43.8357638" lon="12.6484446"><ele>142.0</ele><time>2026-04-19T11:36:36.857Z</time></trkpt><trkpt lat="43.835688" lon="12.6486225"><ele>140.75</ele><time>2026-04-19T11:36:37.864Z</time></trkpt><trkpt lat="43.8356115" lon="12.6487844"><ele>139.5</ele><time>2026-04-19T11:36:38.859Z</time></trkpt><trkpt lat="43.8355285" lon="12.6489594"><ele>138.25</ele><time>2026-04-19T11:36:39.857Z</time></trkpt><trkpt lat="43.8354571" lon="12.6491333"><ele>137.0</ele><time>2026-04-19T11:36:40.852Z</time></trkpt><trkpt lat="43.8353866" lon="12.6493008"><ele>137.0</ele><time>2026-04-19T11:36:41.856Z</time></trkpt><trkpt lat="43.8353134" lon="12.649455"><ele>137.0</ele><time>2026-04-19T11:36:42.85Z</time></trkpt><trkpt lat="43.8352485" lon="12.6496118"><ele>137.0</ele><time>2026-04-19T11:36:43.854Z</time></trkpt><trkpt lat="43.8351572" lon="12.6497652"><ele>137.0</ele><time>2026-04-19T11:36:44.85Z</time></trkpt><trkpt lat="43.8350378" lon="12.6499236"><ele>140.33333333333331</ele><time>2026-04-19T11:36:45.85Z</time></trkpt><trkpt lat="43.8349109" lon="12.6500829"><ele>143.66666666666666</ele><time>2026-04-19T11:36:46.855Z</time></trkpt><trkpt lat="43.8347797" lon="12.6502466"><ele>147.0</ele><time>2026-04-19T11:36:47.854Z</time></trkpt><trkpt lat="43.8346415" lon="12.6504166"><ele>147.0</ele><time>2026-04-19T11:36:48.856Z</time></trkpt><trkpt lat="43.8345055" lon="12.6505799"><ele>147.0</ele><time>2026-04-19T11:36:49.854Z</time></trkpt><trkpt lat="43.8343728" lon="12.6507523"><ele>147.0</ele><time>2026-04-19T11:36:50.871Z</time></trkpt><trkpt lat="43.834242" lon="12.6509289"><ele>153.0</ele><time>2026-04-19T11:36:51.85Z</time></trkpt><trkpt lat="43.8341007" lon="12.6511182"><ele>159.0</ele><time>2026-04-19T11:36:52.852Z</time></trkpt><trkpt lat="43.833957" lon="12.6513047"><ele>165.0</ele><time>2026-04-19T11:36:53.854Z</time></trkpt><trkpt lat="43.8338307" lon="12.6514656"><ele>165.0</ele><time>2026-04-19T11:36:54.849Z</time></trkpt><trkpt lat="43.8337283" lon="12.6515944"><ele>165.0</ele><time>2026-04-19T11:36:55.853Z</time></trkpt><trkpt lat="43.8336367" lon="12.6517071"><ele>165.0</ele><time>2026-04-19T11:36:56.854Z</time></trkpt><trkpt lat="43.8335355" lon="12.6518164"><ele>165.0</ele><time>2026-04-19T11:36:57.851Z</time></trkpt><trkpt lat="43.8334235" lon="12.6519186"><ele>165.4</ele><time>2026-04-19T11:36:58.871Z</time></trkpt><trkpt lat="43.8333217" lon="12.651989"><ele>165.8</ele><time>2026-04-19T11:36:59.853Z</time></trkpt><trkpt lat="43.8332325" lon="12.6520231"><ele>166.2</ele><time>2026-04-19T11:37:00.858Z</time></trkpt><trkpt lat="43.833156" lon="12.6520134"><ele>166.6</ele><time>2026-04-19T11:37:01.855Z</time></trkpt><trkpt lat="43.8330537" lon="12.6519226"><ele>167.0</ele><time>2026-04-19T11:37:03.849Z</time></trkpt><trkpt lat="43.8330209" lon="12.6518267"><ele>169.75</ele><time>2026-04-19T11:37:04.852Z</time></trkpt><trkpt lat="43.8329925" lon="12.6516966"><ele>172.5</ele><time>2026-04-19T11:37:05.869Z</time></trkpt><trkpt lat="43.832967" lon="12.6515302"><ele>175.25</ele><time>2026-04-19T11:37:06.853Z</time></trkpt><trkpt lat="43.8329468" lon="12.6513616"><ele>178.0</ele><time>2026-04-19T11:37:07.856Z</time></trkpt><trkpt lat="43.8329287" lon="12.6511969"><ele>180.0</ele><time>2026-04-19T11:37:08.857Z</time></trkpt><trkpt lat="43.8329042" lon="12.6510424"><ele>182.0</ele><time>2026-04-19T11:37:09.852Z</time></trkpt><trkpt lat="43.8328733" lon="12.650881"><ele>184.0</ele><time>2026-04-19T11:37:10.877Z</time></trkpt><trkpt lat="43.8328377" lon="12.6507084"><ele>186.0</ele><time>2026-04-19T11:37:11.857Z</time></trkpt><trkpt lat="43.8327951" lon="12.6505348"><ele>186.0</ele><time>2026-04-19T11:37:12.859Z</time></trkpt><trkpt lat="43.8327467" lon="12.6503647"><ele>186.0</ele><time>2026-04-19T11:37:13.853Z</time></trkpt><trkpt lat="43.8326864" lon="12.6501847"><ele>186.0</ele><time>2026-04-19T11:37:14.855Z</time></trkpt><trkpt lat="43.8326195" lon="12.6499973"><ele>186.0</ele><time>2026-04-19T11:37:15.856Z</time></trkpt><trkpt lat="43.8325518" lon="12.6498232"><ele>187.66666666666666</ele><time>2026-04-19T11:37:16.853Z</time></trkpt><trkpt lat="43.8324797" lon="12.6496556"><ele>189.33333333333331</ele><time>2026-04-19T11:37:17.87Z</time></trkpt><trkpt lat="43.8324" lon="12.6494805"><ele>191.0</ele><time>2026-04-19T11:37:18.852Z</time></trkpt><trkpt lat="43.8323119" lon="12.6492877"><ele>194.0</ele><time>2026-04-19T11:37:19.859Z</time></trkpt><trkpt lat="43.832222" lon="12.6490878"><ele>197.0</ele><time>2026-04-19T11:37:20.858Z</time></trkpt><trkpt lat="43.8321333" lon="12.6488899"><ele>200.0</ele><time>2026-04-19T11:37:21.856Z</time></trkpt><trkpt lat="43.83205" lon="12.6487012"><ele>200.25</ele><time>2026-04-19T11:37:22.871Z</time></trkpt><trkpt lat="43.8319762" lon="12.6485352"><ele>200.5</ele><time>2026-04-19T11:37:23.858Z</time></trkpt><trkpt lat="43.8319037" lon="12.6483859"><ele>200.75</ele><time>2026-04-19T11:37:24.853Z</time></trkpt><trkpt lat="43.8318243" lon="12.6482486"><ele>201.0</ele><time>2026-04-19T11:37:25.856Z</time></trkpt><trkpt lat="43.8317313" lon="12.6481243"><ele>200.25</ele><time>2026-04-19T11:37:26.857Z</time></trkpt><trkpt lat="43.8316216" lon="12.6480073"><ele>199.5</ele><time>2026-04-19T11:37:27.853Z</time></trkpt><trkpt lat="43.8314977" lon="12.6478893"><ele>198.75</ele><time>2026-04-19T11:37:28.873Z</time></trkpt><trkpt lat="43.8313661" lon="12.6477709"><ele>198.0</ele><time>2026-04-19T11:37:29.857Z</time></trkpt><trkpt lat="43.8312189" lon="12.6476432"><ele>198.0</ele><time>2026-04-19T11:37:30.849Z</time></trkpt><trkpt lat="43.831051" lon="12.6475027"><ele>198.0</ele><time>2026-04-19T11:37:31.853Z</time></trkpt><trkpt lat="43.8308772" lon="12.6473649"><ele>198.0</ele><time>2026-04-19T11:37:32.855Z</time></trkpt><trkpt lat="43.8307155" lon="12.647241"><ele>197.66666666666669</ele><time>2026-04-19T11:37:33.861Z</time></trkpt><trkpt lat="43.8305693" lon="12.6471296"><ele>197.33333333333334</ele><time>2026-04-19T11:37:34.85Z</time></trkpt><trkpt lat="43.8304328" lon="12.6470254"><ele>197.0</ele><time>2026-04-19T11:37:35.856Z</time></trkpt><trkpt lat="43.8302888" lon="12.6469126"><ele>199.33333333333334</ele><time>2026-04-19T11:37:36.858Z</time></trkpt><trkpt lat="43.8301314" lon="12.6467773"><ele>201.66666666666669</ele><time>2026-04-19T11:37:37.856Z</time></trkpt><trkpt lat="43.8299661" lon="12.6466257"><ele>204.0</ele><time>2026-04-19T11:37:38.855Z</time></trkpt><trkpt lat="43.8297822" lon="12.6464698"><ele>204.0</ele><time>2026-04-19T11:37:39.869Z</time></trkpt><trkpt lat="43.8296028" lon="12.6463211"><ele>204.0</ele><time>2026-04-19T11:37:40.853Z</time></trkpt><trkpt lat="43.8294396" lon="12.6461752"><ele>204.0</ele><time>2026-04-19T11:37:41.854Z</time></trkpt><trkpt lat="43.8292879" lon="12.6460292"><ele>205.0</ele><time>2026-04-19T11:37:42.86Z</time></trkpt><trkpt lat="43.8291425" lon="12.6458853"><ele>206.0</ele><time>2026-04-19T11:37:43.856Z</time></trkpt><trkpt lat="43.8289951" lon="12.645745"><ele>207.0</ele><time>2026-04-19T11:37:44.869Z</time></trkpt><trkpt lat="43.8288489" lon="12.6456066"><ele>207.0</ele><time>2026-04-19T11:37:45.853Z</time></trkpt><trkpt lat="43.8287077" lon="12.6454727"><ele>207.0</ele><time>2026-04-19T11:37:46.854Z</time></trkpt><trkpt lat="43.8285856" lon="12.6453593"><ele>207.0</ele><time>2026-04-19T11:37:47.852Z</time></trkpt><trkpt lat="43.8284634" lon="12.6452444"><ele>208.75</ele><time>2026-04-19T11:37:48.859Z</time></trkpt><trkpt lat="43.8283491" lon="12.6451489"><ele>210.5</ele><time>2026-04-19T11:37:49.857Z</time></trkpt><trkpt lat="43.8282414" lon="12.6450849"><ele>212.25</ele><time>2026-04-19T11:37:50.858Z</time></trkpt><trkpt lat="43.8281387" lon="12.6450569"><ele>214.0</ele><time>2026-04-19T11:37:51.879Z</time></trkpt><trkpt lat="43.8280305" lon="12.6450645"><ele>214.0</ele><time>2026-04-19T11:37:52.856Z</time></trkpt><trkpt lat="43.8279021" lon="12.6450948"><ele>214.0</ele><time>2026-04-19T11:37:53.851Z</time></trkpt><trkpt lat="43.8277436" lon="12.6451213"><ele>214.0</ele><time>2026-04-19T11:37:54.853Z</time></trkpt><trkpt lat="43.8275677" lon="12.6451434"><ele>217.0</ele><time>2026-04-19T11:37:55.852Z</time></trkpt><trkpt lat="43.8274075" lon="12.64516"><ele>220.0</ele><time>2026-04-19T11:37:56.855Z</time></trkpt><trkpt lat="43.8272805" lon="12.6451747"><ele>223.0</ele><time>2026-04-19T11:37:57.87Z</time></trkpt><trkpt lat="43.8271814" lon="12.6452015"><ele>226.0</ele><time>2026-04-19T11:37:58.856Z</time></trkpt><trkpt lat="43.8270952" lon="12.6452488"><ele>224.49999999999997</ele><time>2026-04-19T11:37:59.854Z</time></trkpt><trkpt lat="43.8270121" lon="12.6453017"><ele>223.0</ele><time>2026-04-19T11:38:00.851Z</time></trkpt><trkpt lat="43.8269419" lon="12.6453347"><ele>221.5</ele><time>2026-04-19T11:38:01.855Z</time></trkpt><trkpt lat="43.8268786" lon="12.6453651"><ele>220.0</ele><time>2026-04-19T11:38:07.859Z</time></trkpt><trkpt lat="43.8268676" lon="12.645459"><ele>218.49999999999997</ele><time>2026-04-19T11:38:09.936Z</time></trkpt><trkpt lat="43.8268561" lon="12.6456487"><ele>217.0</ele><time>2026-04-19T11:38:10.859Z</time></trkpt><trkpt lat="43.8268296" lon="12.6458239"><ele>217.0</ele><time>2026-04-19T11:38:11.856Z</time></trkpt><trkpt lat="43.8267777" lon="12.6460042"><ele>217.0</ele><time>2026-04-19T11:38:12.854Z</time></trkpt><trkpt lat="43.8267065" lon="12.6462014"><ele>217.0</ele><time>2026-04-19T11:38:13.875Z</time></trkpt><trkpt lat="43.826629" lon="12.6464063"><ele>216.0</ele><time>2026-04-19T11:38:14.853Z</time></trkpt><trkpt lat="43.8265461" lon="12.6466166"><ele>215.0</ele><time>2026-04-19T11:38:15.855Z</time></trkpt><trkpt lat="43.8264597" lon="12.6468253"><ele>214.0</ele><time>2026-04-19T11:38:16.855Z</time></trkpt><trkpt lat="43.8263709" lon="12.6470292"><ele>211.33333333333331</ele><time>2026-04-19T11:38:17.856Z</time></trkpt><trkpt lat="43.8262816" lon="12.6472225"><ele>208.66666666666669</ele><time>2026-04-19T11:38:18.857Z</time></trkpt><trkpt lat="43.8261953" lon="12.6474013"><ele>206.0</ele><time>2026-04-19T11:38:19.855Z</time></trkpt><trkpt lat="43.826112" lon="12.6475664"><ele>206.0</ele><time>2026-04-19T11:38:20.87Z</time></trkpt><trkpt lat="43.8260349" lon="12.6477228"><ele>206.0</ele><time>2026-04-19T11:38:21.856Z</time></trkpt><trkpt lat="43.8259616" lon="12.6478749"><ele>206.0</ele><time>2026-04-19T11:38:22.854Z</time></trkpt><trkpt lat="43.8258936" lon="12.6480156"><ele>206.0</ele><time>2026-04-19T11:38:23.855Z</time></trkpt><trkpt lat="43.8258212" lon="12.648155"><ele>205.75</ele><time>2026-04-19T11:38:24.857Z</time></trkpt><trkpt lat="43.8257391" lon="12.6483043"><ele>205.5</ele><time>2026-04-19T11:38:25.861Z</time></trkpt><trkpt lat="43.8256626" lon="12.6484454"><ele>205.25</ele><time>2026-04-19T11:38:26.854Z</time></trkpt><trkpt lat="43.8255922" lon="12.6485805"><ele>205.0</ele><time>2026-04-19T11:38:27.867Z</time></trkpt><trkpt lat="43.825527" lon="12.6487236"><ele>205.0</ele><time>2026-04-19T11:38:28.855Z</time></trkpt><trkpt lat="43.825467" lon="12.6488877"><ele>205.0</ele><time>2026-04-19T11:38:29.857Z</time></trkpt><trkpt lat="43.8254153" lon="12.649074"><ele>205.0</ele><time>2026-04-19T11:38:30.852Z</time></trkpt><trkpt lat="43.8253772" lon="12.6492764"><ele>205.0</ele><time>2026-04-19T11:38:31.858Z</time></trkpt><trkpt lat="43.8253521" lon="12.6494886"><ele>203.33333333333331</ele><time>2026-04-19T11:38:32.859Z</time></trkpt><trkpt lat="43.8253317" lon="12.6497113"><ele>201.66666666666669</ele><time>2026-04-19T11:38:33.862Z</time></trkpt><trkpt lat="43.8253136" lon="12.6499487"><ele>200.0</ele><time>2026-04-19T11:38:34.86Z</time></trkpt><trkpt lat="43.8252925" lon="12.6502113"><ele>199.0</ele><time>2026-04-19T11:38:35.853Z</time></trkpt><trkpt lat="43.8252698" lon="12.6504757"><ele>198.0</ele><time>2026-04-19T11:38:36.867Z</time></trkpt><trkpt lat="43.8252491" lon="12.6507116"><ele>197.0</ele><time>2026-04-19T11:38:37.861Z</time></trkpt><trkpt lat="43.8252293" lon="12.650934"><ele>196.66666666666669</ele><time>2026-04-19T11:38:38.86Z</time></trkpt><trkpt lat="43.8252113" lon="12.6511471"><ele>196.33333333333331</ele><time>2026-04-19T11:38:39.858Z</time></trkpt><trkpt lat="43.8251936" lon="12.6513695"><ele>196.0</ele><time>2026-04-19T11:38:40.857Z</time></trkpt><trkpt lat="43.8251757" lon="12.6516083"><ele>196.0</ele><time>2026-04-19T11:38:41.858Z</time></trkpt><trkpt lat="43.8251554" lon="12.6518451"><ele>196.0</ele><time>2026-04-19T11:38:42.85Z</time></trkpt><trkpt lat="43.8251345" lon="12.6520946"><ele>196.0</ele><time>2026-04-19T11:38:43.855Z</time></trkpt><trkpt lat="43.8251146" lon="12.6523598"><ele>196.0</ele><time>2026-04-19T11:38:44.853Z</time></trkpt><trkpt lat="43.8250977" lon="12.6526121"><ele>196.0</ele><time>2026-04-19T11:38:45.867Z</time></trkpt><trkpt lat="43.8250828" lon="12.6528357"><ele>196.0</ele><time>2026-04-19T11:38:46.853Z</time></trkpt><trkpt lat="43.8250696" lon="12.6530498"><ele>197.5</ele><time>2026-04-19T11:38:47.854Z</time></trkpt><trkpt lat="43.8250588" lon="12.653257"><ele>199.0</ele><time>2026-04-19T11:38:48.852Z</time></trkpt><trkpt lat="43.8250476" lon="12.6534496"><ele>200.5</ele><time>2026-04-19T11:38:49.853Z</time></trkpt><trkpt lat="43.82503" lon="12.6536217"><ele>202.0</ele><time>2026-04-19T11:38:50.867Z</time></trkpt><trkpt lat="43.8250057" lon="12.6537829"><ele>203.5</ele><time>2026-04-19T11:38:51.856Z</time></trkpt><trkpt lat="43.8249787" lon="12.6539435"><ele>205.0</ele><time>2026-04-19T11:38:52.851Z</time></trkpt><trkpt lat="43.8249603" lon="12.6541102"><ele>206.5</ele><time>2026-04-19T11:38:53.86Z</time></trkpt><trkpt lat="43.824943" lon="12.6542728"><ele>208.0</ele><time>2026-04-19T11:38:54.852Z</time></trkpt><trkpt lat="43.8249385" lon="12.6544465"><ele>209.33333333333331</ele><time>2026-04-19T11:38:55.853Z</time></trkpt><trkpt lat="43.8249504" lon="12.6546411"><ele>210.66666666666669</ele><time>2026-04-19T11:38:56.853Z</time></trkpt><trkpt lat="43.8249667" lon="12.654866"><ele>212.0</ele><time>2026-04-19T11:38:57.857Z</time></trkpt><trkpt lat="43.8249755" lon="12.6550864"><ele>212.0</ele><time>2026-04-19T11:38:58.852Z</time></trkpt><trkpt lat="43.8249698" lon="12.6552679"><ele>212.0</ele><time>2026-04-19T11:38:59.869Z</time></trkpt><trkpt lat="43.8249473" lon="12.6554117"><ele>212.0</ele><time>2026-04-19T11:39:00.851Z</time></trkpt><trkpt lat="43.8249134" lon="12.6555264"><ele>212.0</ele><time>2026-04-19T11:39:01.853Z</time></trkpt><trkpt lat="43.8248703" lon="12.6556066"><ele>212.0</ele><time>2026-04-19T11:39:02.855Z</time></trkpt><trkpt lat="43.8248169" lon="12.6556598"><ele>212.2</ele><time>2026-04-19T11:39:03.849Z</time></trkpt><trkpt lat="43.8246884" lon="12.6556979"><ele>212.39999999999998</ele><time>2026-04-19T11:39:05.855Z</time></trkpt><trkpt lat="43.8246038" lon="12.6556903"><ele>212.60000000000002</ele><time>2026-04-19T11:39:06.865Z</time></trkpt><trkpt lat="43.8245139" lon="12.6556677"><ele>212.8</ele><time>2026-04-19T11:39:07.857Z</time></trkpt><trkpt lat="43.8244195" lon="12.6556295"><ele>213.0</ele><time>2026-04-19T11:39:08.852Z</time></trkpt><trkpt lat="43.8243201" lon="12.6555785"><ele>211.5</ele><time>2026-04-19T11:39:09.858Z</time></trkpt><trkpt lat="43.824214" lon="12.6555166"><ele>210.0</ele><time>2026-04-19T11:39:10.849Z</time></trkpt><trkpt lat="43.8240992" lon="12.6554464"><ele>208.5</ele><time>2026-04-19T11:39:11.869Z</time></trkpt><trkpt lat="43.8239796" lon="12.65537"><ele>207.0</ele><time>2026-04-19T11:39:12.851Z</time></trkpt><trkpt lat="43.8238525" lon="12.655289"><ele>206.25</ele><time>2026-04-19T11:39:13.855Z</time></trkpt><trkpt lat="43.8237183" lon="12.6552119"><ele>205.5</ele><time>2026-04-19T11:39:14.854Z</time></trkpt><trkpt lat="43.8235814" lon="12.6551436"><ele>204.75</ele><time>2026-04-19T11:39:15.852Z</time></trkpt><trkpt lat="43.8234522" lon="12.6550808"><ele>204.0</ele><time>2026-04-19T11:39:16.875Z</time></trkpt><trkpt lat="43.823336" lon="12.6550224"><ele>204.0</ele><time>2026-04-19T11:39:17.851Z</time></trkpt><trkpt lat="43.823227" lon="12.6549623"><ele>204.0</ele><time>2026-04-19T11:39:18.856Z</time></trkpt><trkpt lat="43.823125" lon="12.6549067"><ele>204.0</ele><time>2026-04-19T11:39:19.855Z</time></trkpt><trkpt lat="43.8230254" lon="12.6548615"><ele>204.0</ele><time>2026-04-19T11:39:20.853Z</time></trkpt><trkpt lat="43.8229259" lon="12.6548344"><ele>204.0</ele><time>2026-04-19T11:39:21.87Z</time></trkpt><trkpt lat="43.8228289" lon="12.6548296"><ele>204.0</ele><time>2026-04-19T11:39:22.854Z</time></trkpt><trkpt lat="43.8227383" lon="12.6548404"><ele>204.0</ele><time>2026-04-19T11:39:23.854Z</time></trkpt><trkpt lat="43.8226651" lon="12.6548579"><ele>204.0</ele><time>2026-04-19T11:39:24.853Z</time></trkpt><trkpt lat="43.8225802" lon="12.6548927"><ele>204.0</ele><time>2026-04-19T11:39:26.86Z</time></trkpt><trkpt lat="43.8225153" lon="12.6549366"><ele>204.0</ele><time>2026-04-19T11:39:28.874Z</time></trkpt><trkpt lat="43.8224282" lon="12.6549515"><ele>204.0</ele><time>2026-04-19T11:39:30.858Z</time></trkpt><trkpt lat="43.8223391" lon="12.6549558"><ele>202.66666666666666</ele><time>2026-04-19T11:39:32.853Z</time></trkpt><trkpt lat="43.82227" lon="12.654945"><ele>201.33333333333331</ele><time>2026-04-19T11:39:36.928Z</time></trkpt><trkpt lat="43.8222319" lon="12.6548705"><ele>200.0</ele><time>2026-04-19T11:39:40.912Z</time></trkpt><trkpt lat="43.8221351" lon="12.6549589"><ele>198.66666666666666</ele><time>2026-04-19T11:40:15.873Z</time></trkpt><trkpt lat="43.8220567" lon="12.654977"><ele>197.33333333333331</ele><time>2026-04-19T11:40:16.851Z</time></trkpt><trkpt lat="43.8219875" lon="12.6549972"><ele>196.0</ele><time>2026-04-19T11:40:17.866Z</time></trkpt><trkpt lat="43.8219096" lon="12.6550229"><ele>195.99999999999997</ele><time>2026-04-19T11:40:18.853Z</time></trkpt><trkpt lat="43.8218278" lon="12.6550464"><ele>196.0</ele><time>2026-04-19T11:40:19.852Z</time></trkpt><trkpt lat="43.8217614" lon="12.6550589"><ele>196.0</ele><time>2026-04-19T11:40:20.855Z</time></trkpt><trkpt lat="43.8216845" lon="12.6550694"><ele>196.0</ele><time>2026-04-19T11:40:22.851Z</time></trkpt><trkpt lat="43.8217156" lon="12.6551794"><ele>195.99999999999997</ele><time>2026-04-19T11:40:25.859Z</time></trkpt><trkpt lat="43.8217862" lon="12.6553104"><ele>196.0</ele><time>2026-04-19T11:40:27.855Z</time></trkpt><trkpt lat="43.8218201" lon="12.6554418"><ele>195.99999999999997</ele><time>2026-04-19T11:40:29.853Z</time></trkpt><trkpt lat="43.8218358" lon="12.6556014"><ele>196.0</ele><time>2026-04-19T11:40:31.855Z</time></trkpt><trkpt lat="43.8218775" lon="12.6556761"><ele>196.0</ele><time>2026-04-19T11:40:33.856Z</time></trkpt><trkpt lat="43.8219343" lon="12.655622"><ele>196.0</ele><time>2026-04-19T11:40:36.901Z</time></trkpt><trkpt lat="43.8219491" lon="12.6555169"><ele>195.99999999999997</ele><time>2026-04-19T11:40:37.855Z</time></trkpt><trkpt lat="43.8219572" lon="12.65541"><ele>196.0</ele><time>2026-04-19T11:40:38.857Z</time></trkpt><trkpt lat="43.8219477" lon="12.655286"><ele>195.99999999999997</ele><time>2026-04-19T11:40:39.855Z</time></trkpt><trkpt lat="43.8219369" lon="12.655191"><ele>196.0</ele><time>2026-04-19T11:40:40.862Z</time></trkpt><trkpt lat="43.8219361" lon="12.6550657"><ele>196.0</ele><time>2026-04-19T11:40:42.855Z</time></trkpt><trkpt lat="43.8219872" lon="12.6549968"><ele>196.0</ele><time>2026-04-19T11:40:44.861Z</time></trkpt><trkpt lat="43.8221126" lon="12.6549574"><ele>195.99999999999997</ele><time>2026-04-19T11:40:46.855Z</time></trkpt><trkpt lat="43.8221831" lon="12.6549496"><ele>196.0</ele><time>2026-04-19T11:40:47.854Z</time></trkpt><trkpt lat="43.8222505" lon="12.6549436"><ele>195.99999999999997</ele><time>2026-04-19T11:40:48.854Z</time></trkpt><trkpt lat="43.822349" lon="12.6549245"><ele>196.0</ele><time>2026-04-19T11:40:50.851Z</time></trkpt><trkpt lat="43.8224248" lon="12.6549667"><ele>196.0</ele><time>2026-04-19T11:40:53.874Z</time></trkpt><trkpt lat="43.8225052" lon="12.6549389"><ele>196.0</ele><time>2026-04-19T11:40:55.877Z</time></trkpt><trkpt lat="43.8225706" lon="12.6549952"><ele>195.99999999999997</ele><time>2026-04-19T11:40:57.874Z</time></trkpt><trkpt lat="43.8225042" lon="12.6549686"><ele>196.0</ele><time>2026-04-19T11:40:58.938Z</time></trkpt><trkpt lat="43.8225708" lon="12.654959"><ele>196.0</ele><time>2026-04-19T11:41:05.938Z</time></trkpt><trkpt lat="43.8223198" lon="12.6549257"><ele>196.0</ele><time>2026-04-19T11:41:06.898Z</time></trkpt><trkpt lat="43.8224279" lon="12.6548942"><ele>196.0</ele><time>2026-04-19T11:41:10.865Z</time></trkpt><trkpt lat="43.8223811" lon="12.6549619"><ele>196.0</ele><time>2026-04-19T11:41:22.896Z</time></trkpt><trkpt lat="43.8223977" lon="12.6548671"><ele>196.0</ele><time>2026-04-19T11:41:28.937Z</time></trkpt><trkpt lat="43.8224624" lon="12.6548814"><ele>196.0</ele><time>2026-04-19T11:41:36.858Z</time></trkpt><trkpt lat="43.8224186" lon="12.6549531"><ele>196.0</ele><time>2026-04-19T11:41:46.864Z</time></trkpt><trkpt lat="43.8223712" lon="12.6548793"><ele>196.0</ele><time>2026-04-19T11:41:53.871Z</time></trkpt><trkpt lat="43.8224312" lon="12.6548437"><ele>196.0</ele><time>2026-04-19T11:42:00.877Z</time></trkpt><trkpt lat="43.8224581" lon="12.6549314"><ele>196.0</ele><time>2026-04-19T11:42:06.875Z</time></trkpt><trkpt lat="43.8223989" lon="12.6549629"><ele>196.0</ele><time>2026-04-19T11:42:12.915Z</time></trkpt><trkpt lat="43.8223934" lon="12.6548717"><ele>196.0</ele><time>2026-04-19T11:42:19.874Z</time></trkpt><trkpt lat="43.8224554" lon="12.6548504"><ele>196.0</ele><time>2026-04-19T11:42:29.953Z</time></trkpt><trkpt lat="43.8224341" lon="12.6549334"><ele>196.0</ele><time>2026-04-19T11:42:40.854Z</time></trkpt><trkpt lat="43.8223748" lon="12.6549026"><ele>196.0</ele><time>2026-04-19T11:42:50.874Z</time></trkpt><trkpt lat="43.8224356" lon="12.6548627"><ele>196.0</ele><time>2026-04-19T11:42:58.857Z</time></trkpt><trkpt lat="43.8223935" lon="12.6549309"><ele>196.0</ele><time>2026-04-19T11:43:08.933Z</time></trkpt><trkpt lat="43.8224999" lon="12.6549137"><ele>196.0</ele><time>2026-04-19T11:43:52.863Z</time></trkpt><trkpt lat="43.822587" lon="12.6548855"><ele>197.60000000000002</ele><time>2026-04-19T11:43:53.863Z</time></trkpt><trkpt lat="43.8226706" lon="12.6548646"><ele>199.2</ele><time>2026-04-19T11:43:54.857Z</time></trkpt><trkpt lat="43.8227632" lon="12.6548478"><ele>200.8</ele><time>2026-04-19T11:43:55.855Z</time></trkpt><trkpt lat="43.822858" lon="12.6548415"><ele>202.39999999999998</ele><time>2026-04-19T11:43:56.856Z</time></trkpt><trkpt lat="43.8229555" lon="12.6548546"><ele>204.0</ele><time>2026-04-19T11:43:57.857Z</time></trkpt><trkpt lat="43.8230526" lon="12.6548866"><ele>204.0</ele><time>2026-04-19T11:43:58.854Z</time></trkpt><trkpt lat="43.8231547" lon="12.6549417"><ele>204.0</ele><time>2026-04-19T11:43:59.884Z</time></trkpt><trkpt lat="43.82326" lon="12.655003"><ele>204.0</ele><time>2026-04-19T11:44:00.85Z</time></trkpt><trkpt lat="43.8233682" lon="12.6550625"><ele>204.0</ele><time>2026-04-19T11:44:01.854Z</time></trkpt><trkpt lat="43.8234769" lon="12.6551169"><ele>204.75</ele><time>2026-04-19T11:44:02.854Z</time></trkpt><trkpt lat="43.8235955" lon="12.6551728"><ele>205.5</ele><time>2026-04-19T11:44:03.855Z</time></trkpt><trkpt lat="43.8237212" lon="12.6552349"><ele>206.25</ele><time>2026-04-19T11:44:04.867Z</time></trkpt><trkpt lat="43.8238469" lon="12.6553048"><ele>207.0</ele><time>2026-04-19T11:44:05.856Z</time></trkpt><trkpt lat="43.8239723" lon="12.6553838"><ele>207.0</ele><time>2026-04-19T11:44:06.855Z</time></trkpt><trkpt lat="43.8240946" lon="12.6554647"><ele>207.0</ele><time>2026-04-19T11:44:07.859Z</time></trkpt><trkpt lat="43.8242132" lon="12.6555388"><ele>207.0</ele><time>2026-04-19T11:44:08.855Z</time></trkpt><trkpt lat="43.8243247" lon="12.6555997"><ele>207.0</ele><time>2026-04-19T11:44:09.854Z</time></trkpt><trkpt lat="43.8244252" lon="12.6556438"><ele>208.0</ele><time>2026-04-19T11:44:10.867Z</time></trkpt><trkpt lat="43.8245106" lon="12.6556736"><ele>209.0</ele><time>2026-04-19T11:44:11.855Z</time></trkpt><trkpt lat="43.8245915" lon="12.6556952"><ele>210.0</ele><time>2026-04-19T11:44:12.854Z</time></trkpt><trkpt lat="43.8246721" lon="12.655712"><ele>211.0</ele><time>2026-04-19T11:44:13.852Z</time></trkpt><trkpt lat="43.8247403" lon="12.6557234"><ele>212.0</ele><time>2026-04-19T11:44:14.853Z</time></trkpt><trkpt lat="43.8248197" lon="12.6557398"><ele>213.0</ele><time>2026-04-19T11:44:16.864Z</time></trkpt><trkpt lat="43.8248976" lon="12.655778"><ele>213.0</ele><time>2026-04-19T11:44:19.854Z</time></trkpt><trkpt lat="43.8249578" lon="12.655828"><ele>213.0</ele><time>2026-04-19T11:44:21.862Z</time></trkpt><trkpt lat="43.8250182" lon="12.6558972"><ele>213.0</ele><time>2026-04-19T11:44:24.951Z</time></trkpt><trkpt lat="43.8250911" lon="12.6559512"><ele>213.0</ele><time>2026-04-19T11:44:26.871Z</time></trkpt><trkpt lat="43.8251811" lon="12.6560515"><ele>213.0</ele><time>2026-04-19T11:44:28.854Z</time></trkpt><trkpt lat="43.8252672" lon="12.6561654"><ele>213.0</ele><time>2026-04-19T11:44:30.858Z</time></trkpt><trkpt lat="43.8253127" lon="12.6562311"><ele>213.0</ele><time>2026-04-19T11:44:31.856Z</time></trkpt><trkpt lat="43.825368" lon="12.6563031"><ele>213.0</ele><time>2026-04-19T11:44:32.865Z</time></trkpt><trkpt lat="43.8254297" lon="12.6563791"><ele>213.0</ele><time>2026-04-19T11:44:33.86Z</time></trkpt><trkpt lat="43.8254954" lon="12.6564549"><ele>213.0</ele><time>2026-04-19T11:44:34.859Z</time></trkpt><trkpt lat="43.825558" lon="12.6565304"><ele>213.0</ele><time>2026-04-19T11:44:35.86Z</time></trkpt><trkpt lat="43.8256177" lon="12.6566019"><ele>213.0</ele><time>2026-04-19T11:44:36.853Z</time></trkpt><trkpt lat="43.8256795" lon="12.6566719"><ele>213.0</ele><time>2026-04-19T11:44:37.855Z</time></trkpt><trkpt lat="43.8257443" lon="12.6567467"><ele>213.0</ele><time>2026-04-19T11:44:38.89Z</time></trkpt><trkpt lat="43.8258081" lon="12.6568241"><ele>213.0</ele><time>2026-04-19T11:44:39.86Z</time></trkpt><trkpt lat="43.8258721" lon="12.656898"><ele>213.0</ele><time>2026-04-19T11:44:40.858Z</time></trkpt><trkpt lat="43.8259334" lon="12.6569637"><ele>213.0</ele><time>2026-04-19T11:44:41.858Z</time></trkpt><trkpt lat="43.8259923" lon="12.6570219"><ele>212.83333333333334</ele><time>2026-04-19T11:44:42.857Z</time></trkpt><trkpt lat="43.8260474" lon="12.6570765"><ele>212.66666666666669</ele><time>2026-04-19T11:44:43.888Z</time></trkpt><trkpt lat="43.8261501" lon="12.6571699"><ele>212.5</ele><time>2026-04-19T11:44:45.86Z</time></trkpt><trkpt lat="43.8262365" lon="12.6572472"><ele>212.33333333333334</ele><time>2026-04-19T11:44:47.865Z</time></trkpt><trkpt lat="43.8262977" lon="12.6572971"><ele>212.16666666666669</ele><time>2026-04-19T11:44:49.86Z</time></trkpt><trkpt lat="43.82636" lon="12.6572654"><ele>212.0</ele><time>2026-04-19T11:44:54.883Z</time></trkpt><trkpt lat="43.8262892" lon="12.6572322"><ele>212.00000000000003</ele><time>2026-04-19T11:44:58.861Z</time></trkpt><trkpt lat="43.8262135" lon="12.6571979"><ele>212.0</ele><time>2026-04-19T11:45:02.922Z</time></trkpt><trkpt lat="43.8261489" lon="12.6571584"><ele>212.0</ele><time>2026-04-19T11:45:07.882Z</time></trkpt><trkpt lat="43.8260512" lon="12.6570763"><ele>212.0</ele><time>2026-04-19T11:45:11.86Z</time></trkpt><trkpt lat="43.8259964" lon="12.657025"><ele>212.00000000000003</ele><time>2026-04-19T11:45:12.858Z</time></trkpt><trkpt lat="43.8259361" lon="12.6569661"><ele>212.0</ele><time>2026-04-19T11:45:13.875Z</time></trkpt><trkpt lat="43.8258783" lon="12.6569023"><ele>212.16666666666669</ele><time>2026-04-19T11:45:14.858Z</time></trkpt><trkpt lat="43.8258236" lon="12.65684"><ele>212.33333333333334</ele><time>2026-04-19T11:45:15.858Z</time></trkpt><trkpt lat="43.825765" lon="12.6567718"><ele>212.5</ele><time>2026-04-19T11:45:16.855Z</time></trkpt><trkpt lat="43.8257008" lon="12.656694"><ele>212.66666666666669</ele><time>2026-04-19T11:45:17.862Z</time></trkpt><trkpt lat="43.8256295" lon="12.6566088"><ele>212.83333333333334</ele><time>2026-04-19T11:45:18.858Z</time></trkpt><trkpt lat="43.8255466" lon="12.6565151"><ele>213.0</ele><time>2026-04-19T11:45:19.86Z</time></trkpt><trkpt lat="43.8254619" lon="12.6564169"><ele>213.0</ele><time>2026-04-19T11:45:20.86Z</time></trkpt><trkpt lat="43.8253823" lon="12.6563186"><ele>213.0</ele><time>2026-04-19T11:45:21.86Z</time></trkpt><trkpt lat="43.8253055" lon="12.6562239"><ele>213.0</ele><time>2026-04-19T11:45:22.858Z</time></trkpt><trkpt lat="43.8252322" lon="12.6561342"><ele>213.0</ele><time>2026-04-19T11:45:23.857Z</time></trkpt><trkpt lat="43.8251654" lon="12.6560525"><ele>213.0</ele><time>2026-04-19T11:45:24.876Z</time></trkpt><trkpt lat="43.8251073" lon="12.6559874"><ele>213.0</ele><time>2026-04-19T11:45:25.861Z</time></trkpt><trkpt lat="43.8250531" lon="12.6559358"><ele>213.0</ele><time>2026-04-19T11:45:26.854Z</time></trkpt><trkpt lat="43.8249528" lon="12.6558466"><ele>213.0</ele><time>2026-04-19T11:45:28.858Z</time></trkpt><trkpt lat="43.8248614" lon="12.6557534"><ele>213.0</ele><time>2026-04-19T11:45:30.868Z</time></trkpt><trkpt lat="43.824827" lon="12.6556618"><ele>213.0</ele><time>2026-04-19T11:45:32.86Z</time></trkpt><trkpt lat="43.8248603" lon="12.6555559"><ele>213.0</ele><time>2026-04-19T11:45:34.871Z</time></trkpt><trkpt lat="43.8248982" lon="12.6554803"><ele>213.0</ele><time>2026-04-19T11:45:35.86Z</time></trkpt><trkpt lat="43.8249385" lon="12.655388"><ele>213.0</ele><time>2026-04-19T11:45:36.863Z</time></trkpt><trkpt lat="43.824963" lon="12.655268"><ele>213.0</ele><time>2026-04-19T11:45:37.861Z</time></trkpt><trkpt lat="43.8249735" lon="12.6551338"><ele>213.0</ele><time>2026-04-19T11:45:38.853Z</time></trkpt><trkpt lat="43.8249722" lon="12.6549856"><ele>213.0</ele><time>2026-04-19T11:45:39.859Z</time></trkpt><trkpt lat="43.8249628" lon="12.6548302"><ele>212.8</ele><time>2026-04-19T11:45:40.862Z</time></trkpt><trkpt lat="43.8249502" lon="12.6546707"><ele>212.60000000000002</ele><time>2026-04-19T11:45:41.861Z</time></trkpt><trkpt lat="43.8249385" lon="12.6545096"><ele>212.39999999999998</ele><time>2026-04-19T11:45:42.863Z</time></trkpt><trkpt lat="43.8249299" lon="12.6543576"><ele>212.2</ele><time>2026-04-19T11:45:43.855Z</time></trkpt><trkpt lat="43.8249316" lon="12.6542211"><ele>212.0</ele><time>2026-04-19T11:45:44.872Z</time></trkpt><trkpt lat="43.8249441" lon="12.654092"><ele>211.42857142857144</ele><time>2026-04-19T11:45:45.86Z</time></trkpt><trkpt lat="43.8249635" lon="12.6539772"><ele>210.85714285714283</ele><time>2026-04-19T11:45:46.852Z</time></trkpt><trkpt lat="43.8249853" lon="12.6538699"><ele>210.28571428571428</ele><time>2026-04-19T11:45:47.862Z</time></trkpt><trkpt lat="43.8250068" lon="12.653772"><ele>209.71428571428572</ele><time>2026-04-19T11:45:48.864Z</time></trkpt><trkpt lat="43.8250248" lon="12.6536759"><ele>209.14285714285717</ele><time>2026-04-19T11:45:49.878Z</time></trkpt><trkpt lat="43.8250403" lon="12.6535835"><ele>208.57142857142856</ele><time>2026-04-19T11:45:50.857Z</time></trkpt><trkpt lat="43.8250529" lon="12.6534908"><ele>208.0</ele><time>2026-04-19T11:45:51.859Z</time></trkpt><trkpt lat="43.8250624" lon="12.6534013"><ele>206.5</ele><time>2026-04-19T11:45:52.855Z</time></trkpt><trkpt lat="43.825071" lon="12.6532346"><ele>205.0</ele><time>2026-04-19T11:45:54.858Z</time></trkpt><trkpt lat="43.8250744" lon="12.6530833"><ele>203.5</ele><time>2026-04-19T11:45:56.857Z</time></trkpt><trkpt lat="43.8250854" lon="12.6529252"><ele>202.0</ele><time>2026-04-19T11:45:58.862Z</time></trkpt><trkpt lat="43.8250952" lon="12.6527737"><ele>200.5</ele><time>2026-04-19T11:46:00.859Z</time></trkpt><trkpt lat="43.825107" lon="12.6526138"><ele>199.0</ele><time>2026-04-19T11:46:02.878Z</time></trkpt><trkpt lat="43.8251164" lon="12.6524554"><ele>197.5</ele><time>2026-04-19T11:46:04.852Z</time></trkpt><trkpt lat="43.8251254" lon="12.652293"><ele>196.0</ele><time>2026-04-19T11:46:06.856Z</time></trkpt><trkpt lat="43.8251461" lon="12.6521177"><ele>195.99999999999997</ele><time>2026-04-19T11:46:08.857Z</time></trkpt><trkpt lat="43.8251545" lon="12.6520139"><ele>196.0</ele><time>2026-04-19T11:46:09.857Z</time></trkpt><trkpt lat="43.8251599" lon="12.6518981"><ele>196.0</ele><time>2026-04-19T11:46:10.857Z</time></trkpt><trkpt lat="43.8251652" lon="12.651776"><ele>196.0</ele><time>2026-04-19T11:46:11.856Z</time></trkpt><trkpt lat="43.8251729" lon="12.6516443"><ele>195.99999999999997</ele><time>2026-04-19T11:46:12.884Z</time></trkpt><trkpt lat="43.8251834" lon="12.6515064"><ele>196.0</ele><time>2026-04-19T11:46:13.86Z</time></trkpt><trkpt lat="43.8251976" lon="12.6513589"><ele>196.0</ele><time>2026-04-19T11:46:14.856Z</time></trkpt><trkpt lat="43.8252113" lon="12.6512102"><ele>196.0</ele><time>2026-04-19T11:46:15.857Z</time></trkpt><trkpt lat="43.8252212" lon="12.6510626"><ele>196.0</ele><time>2026-04-19T11:46:16.857Z</time></trkpt><trkpt lat="43.8252296" lon="12.6509121"><ele>196.0</ele><time>2026-04-19T11:46:17.859Z</time></trkpt><trkpt lat="43.8252411" lon="12.6507526"><ele>196.0</ele><time>2026-04-19T11:46:18.857Z</time></trkpt><trkpt lat="43.8252584" lon="12.6505842"><ele>196.25</ele><time>2026-04-19T11:46:19.851Z</time></trkpt><trkpt lat="43.8252791" lon="12.6504092"><ele>196.5</ele><time>2026-04-19T11:46:20.855Z</time></trkpt><trkpt lat="43.8252983" lon="12.6502296"><ele>196.75</ele><time>2026-04-19T11:46:21.853Z</time></trkpt><trkpt lat="43.8253132" lon="12.6500441"><ele>197.0</ele><time>2026-04-19T11:46:22.854Z</time></trkpt><trkpt lat="43.8253275" lon="12.6498516"><ele>197.75</ele><time>2026-04-19T11:46:23.859Z</time></trkpt><trkpt lat="43.8253429" lon="12.6496577"><ele>198.5</ele><time>2026-04-19T11:46:24.853Z</time></trkpt><trkpt lat="43.8253599" lon="12.6494688"><ele>199.25</ele><time>2026-04-19T11:46:25.874Z</time></trkpt><trkpt lat="43.8253797" lon="12.6492962"><ele>200.0</ele><time>2026-04-19T11:46:26.854Z</time></trkpt><trkpt lat="43.8254034" lon="12.6491407"><ele>201.0</ele><time>2026-04-19T11:46:27.852Z</time></trkpt><trkpt lat="43.8254315" lon="12.649"><ele>202.0</ele><time>2026-04-19T11:46:28.853Z</time></trkpt><trkpt lat="43.8254684" lon="12.6488645"><ele>203.0</ele><time>2026-04-19T11:46:29.854Z</time></trkpt><trkpt lat="43.8255153" lon="12.648735"><ele>204.0</ele><time>2026-04-19T11:46:30.858Z</time></trkpt><trkpt lat="43.8255702" lon="12.6486137"><ele>205.0</ele><time>2026-04-19T11:46:31.856Z</time></trkpt><trkpt lat="43.8256328" lon="12.6484986"><ele>205.6</ele><time>2026-04-19T11:46:32.875Z</time></trkpt><trkpt lat="43.825697" lon="12.6483858"><ele>206.2</ele><time>2026-04-19T11:46:33.857Z</time></trkpt><trkpt lat="43.8257624" lon="12.6482671"><ele>206.8</ele><time>2026-04-19T11:46:34.859Z</time></trkpt><trkpt lat="43.8258272" lon="12.6481386"><ele>207.4</ele><time>2026-04-19T11:46:35.857Z</time></trkpt><trkpt lat="43.8258896" lon="12.6480037"><ele>208.0</ele><time>2026-04-19T11:46:36.857Z</time></trkpt><trkpt lat="43.8259519" lon="12.6478715"><ele>207.5</ele><time>2026-04-19T11:46:37.856Z</time></trkpt><trkpt lat="43.8260149" lon="12.6477382"><ele>207.0</ele><time>2026-04-19T11:46:38.86Z</time></trkpt><trkpt lat="43.8260799" lon="12.6476065"><ele>206.5</ele><time>2026-04-19T11:46:39.86Z</time></trkpt><trkpt lat="43.8261463" lon="12.647475"><ele>206.0</ele><time>2026-04-19T11:46:40.863Z</time></trkpt><trkpt lat="43.8262103" lon="12.6473389"><ele>206.0</ele><time>2026-04-19T11:46:41.858Z</time></trkpt><trkpt lat="43.8262723" lon="12.6471998"><ele>206.0</ele><time>2026-04-19T11:46:42.87Z</time></trkpt><trkpt lat="43.8263355" lon="12.6470608"><ele>206.0</ele><time>2026-04-19T11:46:43.857Z</time></trkpt><trkpt lat="43.8264013" lon="12.6469187"><ele>206.0</ele><time>2026-04-19T11:46:44.854Z</time></trkpt><trkpt lat="43.8264676" lon="12.6467718"><ele>208.0</ele><time>2026-04-19T11:46:45.857Z</time></trkpt><trkpt lat="43.8265328" lon="12.6466219"><ele>210.0</ele><time>2026-04-19T11:46:46.864Z</time></trkpt><trkpt lat="43.8265956" lon="12.6464744"><ele>212.0</ele><time>2026-04-19T11:46:47.855Z</time></trkpt><trkpt lat="43.826653" lon="12.6463304"><ele>214.0</ele><time>2026-04-19T11:46:48.862Z</time></trkpt><trkpt lat="43.8267057" lon="12.6461858"><ele>214.6</ele><time>2026-04-19T11:46:49.854Z</time></trkpt><trkpt lat="43.8267577" lon="12.6460368"><ele>215.2</ele><time>2026-04-19T11:46:50.858Z</time></trkpt><trkpt lat="43.8268069" lon="12.6458916"><ele>215.79999999999998</ele><time>2026-04-19T11:46:51.856Z</time></trkpt><trkpt lat="43.8268466" lon="12.645752"><ele>216.39999999999998</ele><time>2026-04-19T11:46:52.849Z</time></trkpt><trkpt lat="43.8268697" lon="12.6456176"><ele>217.0</ele><time>2026-04-19T11:46:53.856Z</time></trkpt><trkpt lat="43.8268783" lon="12.6454946"><ele>216.99999999999997</ele><time>2026-04-19T11:46:54.855Z</time></trkpt><trkpt lat="43.8268787" lon="12.645382"><ele>217.0</ele><time>2026-04-19T11:46:55.87Z</time></trkpt><trkpt lat="43.8268725" lon="12.6452785"><ele>217.0</ele><time>2026-04-19T11:46:56.855Z</time></trkpt><trkpt lat="43.8268663" lon="12.6451771"><ele>217.0</ele><time>2026-04-19T11:46:57.856Z</time></trkpt><trkpt lat="43.8268649" lon="12.6450726"><ele>216.99999999999997</ele><time>2026-04-19T11:46:58.857Z</time></trkpt><trkpt lat="43.8268708" lon="12.6449657"><ele>217.0</ele><time>2026-04-19T11:46:59.857Z</time></trkpt><trkpt lat="43.8268812" lon="12.6448593"><ele>218.8</ele><time>2026-04-19T11:47:00.872Z</time></trkpt><trkpt lat="43.8268908" lon="12.6447612"><ele>220.6</ele><time>2026-04-19T11:47:01.856Z</time></trkpt><trkpt lat="43.8268962" lon="12.6446063"><ele>222.40000000000003</ele><time>2026-04-19T11:47:03.856Z</time></trkpt><trkpt lat="43.8268724" lon="12.644791"><ele>224.20000000000002</ele><time>2026-04-19T11:49:28.857Z</time></trkpt><trkpt lat="43.8268733" lon="12.644899"><ele>226.0</ele><time>2026-04-19T11:49:29.858Z</time></trkpt><trkpt lat="43.8268729" lon="12.6450075"><ele>225.99999999999997</ele><time>2026-04-19T11:49:30.863Z</time></trkpt><trkpt lat="43.8268691" lon="12.6451161"><ele>226.0</ele><time>2026-04-19T11:49:31.863Z</time></trkpt><trkpt lat="43.8268636" lon="12.64523"><ele>226.0</ele><time>2026-04-19T11:49:32.857Z</time></trkpt><trkpt lat="43.8268612" lon="12.6453528"><ele>226.0</ele><time>2026-04-19T11:49:33.874Z</time></trkpt><trkpt lat="43.8268627" lon="12.6454737"><ele>225.99999999999997</ele><time>2026-04-19T11:49:34.861Z</time></trkpt><trkpt lat="43.8268623" lon="12.6455927"><ele>226.0</ele><time>2026-04-19T11:49:35.858Z</time></trkpt><trkpt lat="43.8268591" lon="12.6457113"><ele>224.20000000000002</ele><time>2026-04-19T11:49:36.862Z</time></trkpt><trkpt lat="43.8268359" lon="12.6458356"><ele>222.40000000000003</ele><time>2026-04-19T11:49:37.86Z</time></trkpt><trkpt lat="43.8267968" lon="12.6459688"><ele>220.6</ele><time>2026-04-19T11:49:38.853Z</time></trkpt><trkpt lat="43.8267475" lon="12.6461092"><ele>218.8</ele><time>2026-04-19T11:49:39.853Z</time></trkpt><trkpt lat="43.8266931" lon="12.6462552"><ele>217.0</ele><time>2026-04-19T11:49:40.853Z</time></trkpt><trkpt lat="43.8266378" lon="12.6463991"><ele>216.25</ele><time>2026-04-19T11:49:41.85Z</time></trkpt><trkpt lat="43.8265824" lon="12.6465414"><ele>215.5</ele><time>2026-04-19T11:49:42.853Z</time></trkpt><trkpt lat="43.826522" lon="12.6466889"><ele>214.75</ele><time>2026-04-19T11:49:43.878Z</time></trkpt><trkpt lat="43.8264566" lon="12.6468434"><ele>214.0</ele><time>2026-04-19T11:49:44.86Z</time></trkpt><trkpt lat="43.8263798" lon="12.6470184"><ele>212.0</ele><time>2026-04-19T11:49:45.859Z</time></trkpt><trkpt lat="43.8262994" lon="12.6471901"><ele>210.0</ele><time>2026-04-19T11:49:46.856Z</time></trkpt><trkpt lat="43.8262223" lon="12.6473506"><ele>208.0</ele><time>2026-04-19T11:49:47.852Z</time></trkpt><trkpt lat="43.8261496" lon="12.647501"><ele>206.0</ele><time>2026-04-19T11:49:48.853Z</time></trkpt><trkpt lat="43.8260847" lon="12.6476361"><ele>206.0</ele><time>2026-04-19T11:49:49.856Z</time></trkpt><trkpt lat="43.8260219" lon="12.6477593"><ele>206.0</ele><time>2026-04-19T11:49:50.856Z</time></trkpt><trkpt lat="43.8259588" lon="12.6478824"><ele>206.0</ele><time>2026-04-19T11:49:51.854Z</time></trkpt><trkpt lat="43.8258987" lon="12.6480072"><ele>206.0</ele><time>2026-04-19T11:49:52.856Z</time></trkpt><trkpt lat="43.825835" lon="12.6481285"><ele>206.0</ele><time>2026-04-19T11:49:53.862Z</time></trkpt><trkpt lat="43.8257678" lon="12.6482536"><ele>205.8</ele><time>2026-04-19T11:49:54.861Z</time></trkpt><trkpt lat="43.8256988" lon="12.6483839"><ele>205.60000000000002</ele><time>2026-04-19T11:49:55.852Z</time></trkpt><trkpt lat="43.8256311" lon="12.648511"><ele>205.4</ele><time>2026-04-19T11:49:56.856Z</time></trkpt><trkpt lat="43.8255694" lon="12.6486284"><ele>205.2</ele><time>2026-04-19T11:49:57.855Z</time></trkpt><trkpt lat="43.8255135" lon="12.6487486"><ele>205.0</ele><time>2026-04-19T11:49:58.87Z</time></trkpt><trkpt lat="43.8254638" lon="12.6488848"><ele>205.0</ele><time>2026-04-19T11:49:59.853Z</time></trkpt><trkpt lat="43.8254228" lon="12.6490409"><ele>205.0</ele><time>2026-04-19T11:50:00.852Z</time></trkpt><trkpt lat="43.8253897" lon="12.649213"><ele>205.0</ele><time>2026-04-19T11:50:01.861Z</time></trkpt><trkpt lat="43.825364" lon="12.6493947"><ele>205.0</ele><time>2026-04-19T11:50:02.854Z</time></trkpt><trkpt lat="43.825345" lon="12.6495863"><ele>203.75</ele><time>2026-04-19T11:50:03.874Z</time></trkpt><trkpt lat="43.8253274" lon="12.6497805"><ele>202.5</ele><time>2026-04-19T11:50:04.864Z</time></trkpt><trkpt lat="43.8253112" lon="12.6499764"><ele>201.25</ele><time>2026-04-19T11:50:05.854Z</time></trkpt><trkpt lat="43.8252975" lon="12.6501705"><ele>200.0</ele><time>2026-04-19T11:50:06.854Z</time></trkpt><trkpt lat="43.8252832" lon="12.6503589"><ele>199.25</ele><time>2026-04-19T11:50:07.854Z</time></trkpt><trkpt lat="43.8252671" lon="12.6505409"><ele>198.5</ele><time>2026-04-19T11:50:08.868Z</time></trkpt><trkpt lat="43.8252501" lon="12.6507216"><ele>197.75</ele><time>2026-04-19T11:50:09.854Z</time></trkpt><trkpt lat="43.8252333" lon="12.6509066"><ele>197.0</ele><time>2026-04-19T11:50:10.849Z</time></trkpt><trkpt lat="43.8252185" lon="12.6510939"><ele>196.75</ele><time>2026-04-19T11:50:11.86Z</time></trkpt><trkpt lat="43.8252054" lon="12.6512755"><ele>196.5</ele><time>2026-04-19T11:50:12.857Z</time></trkpt><trkpt lat="43.8251921" lon="12.6514534"><ele>196.25</ele><time>2026-04-19T11:50:13.872Z</time></trkpt><trkpt lat="43.8251771" lon="12.6516427"><ele>196.0</ele><time>2026-04-19T11:50:14.86Z</time></trkpt><trkpt lat="43.8251611" lon="12.6518579"><ele>196.0</ele><time>2026-04-19T11:50:15.853Z</time></trkpt><trkpt lat="43.8251418" lon="12.6520948"><ele>196.0</ele><time>2026-04-19T11:50:16.862Z</time></trkpt><trkpt lat="43.8251226" lon="12.6523363"><ele>196.0</ele><time>2026-04-19T11:50:17.857Z</time></trkpt><trkpt lat="43.8251048" lon="12.6525736"><ele>197.5</ele><time>2026-04-19T11:50:18.86Z</time></trkpt><trkpt lat="43.8250893" lon="12.6527975"><ele>199.0</ele><time>2026-04-19T11:50:19.867Z</time></trkpt><trkpt lat="43.8250768" lon="12.6530007"><ele>200.5</ele><time>2026-04-19T11:50:20.852Z</time></trkpt><trkpt lat="43.8250688" lon="12.6531912"><ele>202.0</ele><time>2026-04-19T11:50:21.852Z</time></trkpt><trkpt lat="43.8250622" lon="12.6533662"><ele>202.0</ele><time>2026-04-19T11:50:22.859Z</time></trkpt><trkpt lat="43.8250512" lon="12.6535212"><ele>202.0</ele><time>2026-04-19T11:50:23.854Z</time></trkpt><trkpt lat="43.8250309" lon="12.6536694"><ele>202.0</ele><time>2026-04-19T11:50:24.866Z</time></trkpt><trkpt lat="43.8250032" lon="12.6538141"><ele>202.0</ele><time>2026-04-19T11:50:25.851Z</time></trkpt><trkpt lat="43.8249731" lon="12.6539564"><ele>202.0</ele><time>2026-04-19T11:50:26.861Z</time></trkpt><trkpt lat="43.8249469" lon="12.6541005"><ele>203.5</ele><time>2026-04-19T11:50:27.852Z</time></trkpt><trkpt lat="43.8249298" lon="12.6542641"><ele>205.0</ele><time>2026-04-19T11:50:28.856Z</time></trkpt><trkpt lat="43.8249256" lon="12.6544475"><ele>206.5</ele><time>2026-04-19T11:50:29.858Z</time></trkpt><trkpt lat="43.8249341" lon="12.6546466"><ele>208.0</ele><time>2026-04-19T11:50:30.855Z</time></trkpt><trkpt lat="43.8249495" lon="12.654847"><ele>209.0</ele><time>2026-04-19T11:50:31.872Z</time></trkpt><trkpt lat="43.8249622" lon="12.6550342"><ele>210.0</ele><time>2026-04-19T11:50:32.851Z</time></trkpt><trkpt lat="43.8249635" lon="12.6552142"><ele>211.0</ele><time>2026-04-19T11:50:33.85Z</time></trkpt><trkpt lat="43.8249462" lon="12.6553737"><ele>212.0</ele><time>2026-04-19T11:50:34.849Z</time></trkpt><trkpt lat="43.8249133" lon="12.6555032"><ele>212.16666666666669</ele><time>2026-04-19T11:50:35.855Z</time></trkpt><trkpt lat="43.8248709" lon="12.6555983"><ele>212.33333333333334</ele><time>2026-04-19T11:50:36.848Z</time></trkpt><trkpt lat="43.8248183" lon="12.6556652"><ele>212.5</ele><time>2026-04-19T11:50:37.852Z</time></trkpt><trkpt lat="43.8247543" lon="12.6557035"><ele>212.66666666666669</ele><time>2026-04-19T11:50:38.848Z</time></trkpt><trkpt lat="43.8246744" lon="12.6557193"><ele>212.83333333333334</ele><time>2026-04-19T11:50:39.853Z</time></trkpt><trkpt lat="43.8245819" lon="12.6557107"><ele>213.0</ele><time>2026-04-19T11:50:40.853Z</time></trkpt><trkpt lat="43.824482" lon="12.6556764"><ele>213.0</ele><time>2026-04-19T11:50:41.848Z</time></trkpt><trkpt lat="43.8243804" lon="12.6556306"><ele>213.0</ele><time>2026-04-19T11:50:42.856Z</time></trkpt><trkpt lat="43.824274" lon="12.6555714"><ele>213.0</ele><time>2026-04-19T11:50:43.854Z</time></trkpt><trkpt lat="43.8241546" lon="12.6555003"><ele>213.0</ele><time>2026-04-19T11:50:44.878Z</time></trkpt><trkpt lat="43.8240283" lon="12.655424"><ele>213.0</ele><time>2026-04-19T11:50:45.856Z</time></trkpt><trkpt lat="43.823893" lon="12.6553403"><ele>213.0</ele><time>2026-04-19T11:50:46.857Z</time></trkpt><trkpt lat="43.823751" lon="12.6552544"><ele>213.0</ele><time>2026-04-19T11:50:47.856Z</time></trkpt><trkpt lat="43.8236065" lon="12.6551715"><ele>210.75</ele><time>2026-04-19T11:50:48.854Z</time></trkpt><trkpt lat="43.8234665" lon="12.6550984"><ele>208.5</ele><time>2026-04-19T11:50:49.849Z</time></trkpt><trkpt lat="43.8233304" lon="12.6550323"><ele>206.25</ele><time>2026-04-19T11:50:50.895Z</time></trkpt><trkpt lat="43.8232011" lon="12.6549669"><ele>204.0</ele><time>2026-04-19T11:50:51.854Z</time></trkpt><trkpt lat="43.8230705" lon="12.6549012"><ele>204.0</ele><time>2026-04-19T11:50:52.857Z</time></trkpt><trkpt lat="43.8229433" lon="12.6548546"><ele>204.0</ele><time>2026-04-19T11:50:53.853Z</time></trkpt><trkpt lat="43.8228121" lon="12.6548404"><ele>204.0</ele><time>2026-04-19T11:50:54.857Z</time></trkpt><trkpt lat="43.8226761" lon="12.6548582"><ele>204.0</ele><time>2026-04-19T11:50:55.858Z</time></trkpt><trkpt lat="43.8225353" lon="12.654884"><ele>201.33333333333331</ele><time>2026-04-19T11:50:56.855Z</time></trkpt><trkpt lat="43.8223879" lon="12.6549019"><ele>198.66666666666666</ele><time>2026-04-19T11:50:57.858Z</time></trkpt><trkpt lat="43.8222336" lon="12.6549099"><ele>196.0</ele><time>2026-04-19T11:50:58.867Z</time></trkpt><trkpt lat="43.8220743" lon="12.6549128"><ele>196.0</ele><time>2026-04-19T11:50:59.857Z</time></trkpt><trkpt lat="43.821921" lon="12.654917"><ele>196.0</ele><time>2026-04-19T11:51:00.852Z</time></trkpt><trkpt lat="43.8217828" lon="12.6549252"><ele>196.0</ele><time>2026-04-19T11:51:01.852Z</time></trkpt><trkpt lat="43.8216565" lon="12.6549442"><ele>196.0</ele><time>2026-04-19T11:51:02.853Z</time></trkpt><trkpt lat="43.8215342" lon="12.6549855"><ele>196.25</ele><time>2026-04-19T11:51:03.851Z</time></trkpt><trkpt lat="43.8214086" lon="12.6550476"><ele>196.5</ele><time>2026-04-19T11:51:04.852Z</time></trkpt><trkpt lat="43.8212797" lon="12.6551241"><ele>196.75</ele><time>2026-04-19T11:51:05.856Z</time></trkpt><trkpt lat="43.8211488" lon="12.6552087"><ele>197.0</ele><time>2026-04-19T11:51:06.853Z</time></trkpt><trkpt lat="43.8210147" lon="12.655295"><ele>194.75</ele><time>2026-04-19T11:51:07.874Z</time></trkpt><trkpt lat="43.8208838" lon="12.6553707"><ele>192.5</ele><time>2026-04-19T11:51:08.849Z</time></trkpt><trkpt lat="43.8207548" lon="12.6554361"><ele>190.25</ele><time>2026-04-19T11:51:09.854Z</time></trkpt><trkpt lat="43.8206329" lon="12.6554967"><ele>188.0</ele><time>2026-04-19T11:51:10.852Z</time></trkpt><trkpt lat="43.8205173" lon="12.6555567"><ele>188.0</ele><time>2026-04-19T11:51:11.855Z</time></trkpt><trkpt lat="43.8204041" lon="12.6556178"><ele>188.0</ele><time>2026-04-19T11:51:12.849Z</time></trkpt><trkpt lat="43.8202831" lon="12.6556847"><ele>188.0</ele><time>2026-04-19T11:51:13.869Z</time></trkpt><trkpt lat="43.8201559" lon="12.6557585"><ele>188.0</ele><time>2026-04-19T11:51:14.851Z</time></trkpt><trkpt lat="43.8200311" lon="12.6558445"><ele>186.5</ele><time>2026-04-19T11:51:15.855Z</time></trkpt><trkpt lat="43.8199185" lon="12.6559438"><ele>185.0</ele><time>2026-04-19T11:51:16.853Z</time></trkpt><trkpt lat="43.8198115" lon="12.6560585"><ele>183.5</ele><time>2026-04-19T11:51:17.852Z</time></trkpt><trkpt lat="43.8197084" lon="12.6561791"><ele>182.0</ele><time>2026-04-19T11:51:18.871Z</time></trkpt><trkpt lat="43.8196172" lon="12.6562916"><ele>180.8</ele><time>2026-04-19T11:51:19.853Z</time></trkpt><trkpt lat="43.8195386" lon="12.6563972"><ele>179.6</ele><time>2026-04-19T11:51:20.86Z</time></trkpt><trkpt lat="43.8194733" lon="12.6564964"><ele>178.4</ele><time>2026-04-19T11:51:21.854Z</time></trkpt><trkpt lat="43.8194176" lon="12.6565943"><ele>177.20000000000002</ele><time>2026-04-19T11:51:22.852Z</time></trkpt><trkpt lat="43.8193674" lon="12.6566871"><ele>176.0</ele><time>2026-04-19T11:51:23.854Z</time></trkpt><trkpt lat="43.819323" lon="12.6567617"><ele>175.4</ele><time>2026-04-19T11:51:24.856Z</time></trkpt><trkpt lat="43.8192608" lon="12.656864"><ele>174.8</ele><time>2026-04-19T11:51:26.854Z</time></trkpt><trkpt lat="43.8191917" lon="12.6570252"><ele>174.20000000000002</ele><time>2026-04-19T11:51:28.851Z</time></trkpt><trkpt lat="43.8191468" lon="12.6571304"><ele>173.60000000000002</ele><time>2026-04-19T11:51:29.856Z</time></trkpt><trkpt lat="43.8190967" lon="12.6572389"><ele>173.0</ele><time>2026-04-19T11:51:30.858Z</time></trkpt><trkpt lat="43.8190471" lon="12.6573419"><ele>171.60000000000002</ele><time>2026-04-19T11:51:31.872Z</time></trkpt><trkpt lat="43.819002" lon="12.6574372"><ele>170.20000000000002</ele><time>2026-04-19T11:51:32.852Z</time></trkpt><trkpt lat="43.8189571" lon="12.6575373"><ele>168.8</ele><time>2026-04-19T11:51:33.852Z</time></trkpt><trkpt lat="43.818909" lon="12.6576508"><ele>167.4</ele><time>2026-04-19T11:51:34.872Z</time></trkpt><trkpt lat="43.8188586" lon="12.6577709"><ele>166.0</ele><time>2026-04-19T11:51:35.857Z</time></trkpt><trkpt lat="43.8188052" lon="12.6578973"><ele>163.25</ele><time>2026-04-19T11:51:36.85Z</time></trkpt><trkpt lat="43.8187483" lon="12.6580241"><ele>160.5</ele><time>2026-04-19T11:51:37.857Z</time></trkpt><trkpt lat="43.818689" lon="12.6581514"><ele>157.75</ele><time>2026-04-19T11:51:38.853Z</time></trkpt><trkpt lat="43.8186249" lon="12.6582916"><ele>155.0</ele><time>2026-04-19T11:51:39.871Z</time></trkpt><trkpt lat="43.8185571" lon="12.6584491"><ele>154.0</ele><time>2026-04-19T11:51:40.852Z</time></trkpt><trkpt lat="43.8184794" lon="12.6586246"><ele>153.0</ele><time>2026-04-19T11:51:41.854Z</time></trkpt><trkpt lat="43.8183949" lon="12.6588119"><ele>152.0</ele><time>2026-04-19T11:51:42.85Z</time></trkpt><trkpt lat="43.81831" lon="12.6589976"><ele>152.0</ele><time>2026-04-19T11:51:43.853Z</time></trkpt><trkpt lat="43.8182306" lon="12.6591691"><ele>152.0</ele><time>2026-04-19T11:51:44.85Z</time></trkpt><trkpt lat="43.8181561" lon="12.6593265"><ele>152.0</ele><time>2026-04-19T11:51:45.852Z</time></trkpt><trkpt lat="43.8180852" lon="12.6594708"><ele>152.0</ele><time>2026-04-19T11:51:46.853Z</time></trkpt><trkpt lat="43.8180207" lon="12.6596002"><ele>150.0</ele><time>2026-04-19T11:51:47.855Z</time></trkpt><trkpt lat="43.8179619" lon="12.6597072"><ele>148.0</ele><time>2026-04-19T11:51:48.851Z</time></trkpt><trkpt lat="43.8179055" lon="12.6597882"><ele>146.0</ele><time>2026-04-19T11:51:49.854Z</time></trkpt><trkpt lat="43.8178397" lon="12.6598477"><ele>144.0</ele><time>2026-04-19T11:51:50.85Z</time></trkpt><trkpt lat="43.8177552" lon="12.6598923"><ele>142.0</ele><time>2026-04-19T11:51:51.85Z</time></trkpt><trkpt lat="43.8176524" lon="12.6599223"><ele>143.0</ele><time>2026-04-19T11:51:52.847Z</time></trkpt><trkpt lat="43.8175479" lon="12.659946"><ele>144.0</ele><time>2026-04-19T11:51:53.854Z</time></trkpt><trkpt lat="43.8174577" lon="12.6599762"><ele>145.0</ele><time>2026-04-19T11:51:54.852Z</time></trkpt><trkpt lat="43.8173831" lon="12.660027"><ele>146.0</ele><time>2026-04-19T11:51:55.854Z</time></trkpt><trkpt lat="43.8173206" lon="12.660111"><ele>147.0</ele><time>2026-04-19T11:51:56.849Z</time></trkpt><trkpt lat="43.8172608" lon="12.6602365"><ele>147.0</ele><time>2026-04-19T11:51:57.852Z</time></trkpt><trkpt lat="43.8172009" lon="12.6603782"><ele>138.0</ele><time>2026-04-19T11:51:58.856Z</time></trkpt><trkpt lat="43.8171397" lon="12.6605235"><ele>138.0</ele><time>2026-04-19T11:51:59.852Z</time></trkpt></trkseg></trk></gpx>